<?xml version="1.0" encoding="UTF-8" standalone="no" ?>
<gpx xmlns="http://www.topografix.com/GPX/1/1" xmlns:xsi="http://www.w3.org/2001/XMLSchema-instance" xsi:schemaLocation="http://www.topografix.com/GPX/1/1 http://www.topografix.com/GPX/1/1/gpx.xsd" version="1.1" creator="VisuGPX - https://www.visugpx.com">
  <metadata>
    <name>de split au montenegro</name>
    <desc><![CDATA[allons au montenegro c'est vraiment bien]]></desc>
  </metadata>
  <trk>
    <name><![CDATA[OR-6181270--Vela Luka:SPLIT MONTENEGRO]]></name>
    <trkseg>
      <trkpt lat="42.9598" lon="16.70999">
        <time>2016-07-10T22:32:06Z</time>
      </trkpt>
      <trkpt lat="42.95941" lon="16.71024">
        <time>2016-07-10T22:34:06Z</time>
      </trkpt>
      <trkpt lat="42.95931" lon="16.7103">
        <time>2016-07-10T22:36:06Z</time>
      </trkpt>
      <trkpt lat="42.95927" lon="16.71032">
        <time>2016-07-10T22:38:06Z</time>
      </trkpt>
      <trkpt lat="42.95797" lon="16.71112">
        <ele>2</ele>
        <time>2016-07-10T22:40:06Z</time>
      </trkpt>
      <trkpt lat="42.95795" lon="16.71115">
        <ele>2</ele>
        <time>2016-07-10T22:42:06Z</time>
      </trkpt>
      <trkpt lat="42.95794" lon="16.71118">
        <ele>2</ele>
        <time>2016-07-10T22:44:06Z</time>
      </trkpt>
      <trkpt lat="42.95794" lon="16.71119">
        <ele>2</ele>
        <time>2016-07-10T22:46:06Z</time>
      </trkpt>
      <trkpt lat="42.95794" lon="16.7112">
        <ele>2</ele>
        <time>2016-07-10T22:48:06Z</time>
      </trkpt>
      <trkpt lat="42.95794" lon="16.7112">
        <ele>2</ele>
        <time>2016-07-10T22:50:06Z</time>
      </trkpt>
      <trkpt lat="42.95774" lon="16.71121">
        <ele>2</ele>
        <time>2016-07-10T22:52:06Z</time>
      </trkpt>
      <trkpt lat="42.95723" lon="16.71122">
        <ele>3</ele>
        <time>2016-07-10T22:54:06Z</time>
      </trkpt>
      <trkpt lat="42.95705" lon="16.71122">
        <ele>3</ele>
        <time>2016-07-10T22:56:06Z</time>
      </trkpt>
      <trkpt lat="42.95696" lon="16.71123">
        <ele>3</ele>
        <time>2016-07-10T22:58:06Z</time>
      </trkpt>
      <trkpt lat="42.95687" lon="16.71124">
        <ele>3</ele>
        <time>2016-07-10T23:00:06Z</time>
      </trkpt>
      <trkpt lat="42.95681" lon="16.71125">
        <ele>3</ele>
        <time>2016-07-10T23:02:06Z</time>
      </trkpt>
      <trkpt lat="42.95674" lon="16.71127">
        <ele>3</ele>
        <time>2016-07-10T23:04:06Z</time>
      </trkpt>
      <trkpt lat="42.95669" lon="16.71128">
        <ele>3</ele>
        <time>2016-07-10T23:06:06Z</time>
      </trkpt>
      <trkpt lat="42.95665" lon="16.7113">
        <ele>3</ele>
        <time>2016-07-10T23:08:06Z</time>
      </trkpt>
      <trkpt lat="42.95662" lon="16.71132">
        <ele>3</ele>
        <time>2016-07-10T23:10:06Z</time>
      </trkpt>
      <trkpt lat="42.9566" lon="16.71135">
        <ele>4</ele>
        <time>2016-07-10T23:12:06Z</time>
      </trkpt>
      <trkpt lat="42.95655" lon="16.71141">
        <ele>4</ele>
        <time>2016-07-10T23:14:06Z</time>
      </trkpt>
      <trkpt lat="42.95646" lon="16.71156">
        <ele>4</ele>
        <time>2016-07-10T23:16:06Z</time>
      </trkpt>
      <trkpt lat="42.95636" lon="16.71171">
        <ele>4</ele>
        <time>2016-07-10T23:18:06Z</time>
      </trkpt>
      <trkpt lat="42.95626" lon="16.71187">
        <ele>5</ele>
        <time>2016-07-10T23:20:06Z</time>
      </trkpt>
      <trkpt lat="42.95616" lon="16.71201">
        <ele>5</ele>
        <time>2016-07-10T23:22:06Z</time>
      </trkpt>
      <trkpt lat="42.95607" lon="16.71214">
        <ele>6</ele>
        <time>2016-07-10T23:24:06Z</time>
      </trkpt>
      <trkpt lat="42.95596" lon="16.71232">
        <ele>6</ele>
        <time>2016-07-10T23:26:06Z</time>
      </trkpt>
      <trkpt lat="42.95588" lon="16.71246">
        <ele>6</ele>
        <time>2016-07-10T23:28:06Z</time>
      </trkpt>
      <trkpt lat="42.95583" lon="16.71256">
        <ele>6</ele>
        <time>2016-07-10T23:30:06Z</time>
      </trkpt>
      <trkpt lat="42.9558" lon="16.7126">
        <ele>7</ele>
        <time>2016-07-10T23:32:06Z</time>
      </trkpt>
      <trkpt lat="42.95577" lon="16.71265">
        <ele>7</ele>
        <time>2016-07-10T23:34:06Z</time>
      </trkpt>
      <trkpt lat="42.95575" lon="16.7127">
        <ele>7</ele>
        <time>2016-07-10T23:36:06Z</time>
      </trkpt>
      <trkpt lat="42.95572" lon="16.71277">
        <ele>7</ele>
        <time>2016-07-10T23:38:06Z</time>
      </trkpt>
      <trkpt lat="42.9557" lon="16.71283">
        <ele>8</ele>
        <time>2016-07-10T23:40:06Z</time>
      </trkpt>
      <trkpt lat="42.95568" lon="16.71289">
        <ele>8</ele>
        <time>2016-07-10T23:42:06Z</time>
      </trkpt>
      <trkpt lat="42.95567" lon="16.71291">
        <ele>8</ele>
        <time>2016-07-10T23:44:06Z</time>
      </trkpt>
      <trkpt lat="42.95561" lon="16.71328">
        <ele>9</ele>
        <time>2016-07-10T23:46:06Z</time>
      </trkpt>
      <trkpt lat="42.95553" lon="16.71373">
        <ele>11</ele>
        <time>2016-07-10T23:48:06Z</time>
      </trkpt>
      <trkpt lat="42.95544" lon="16.71412">
        <ele>12</ele>
        <time>2016-07-10T23:50:06Z</time>
      </trkpt>
      <trkpt lat="42.95537" lon="16.71434">
        <ele>13</ele>
        <time>2016-07-10T23:52:06Z</time>
      </trkpt>
      <trkpt lat="42.95524" lon="16.71461">
        <ele>14</ele>
        <time>2016-07-10T23:54:06Z</time>
      </trkpt>
      <trkpt lat="42.95514" lon="16.71477">
        <ele>15</ele>
        <time>2016-07-10T23:56:06Z</time>
      </trkpt>
      <trkpt lat="42.95507" lon="16.71485">
        <ele>15</ele>
        <time>2016-07-10T23:58:06Z</time>
      </trkpt>
      <trkpt lat="42.95505" lon="16.71489">
        <ele>15</ele>
        <time>2016-07-11T00:00:06Z</time>
      </trkpt>
      <trkpt lat="42.95497" lon="16.71499">
        <ele>16</ele>
        <time>2016-07-11T00:02:06Z</time>
      </trkpt>
      <trkpt lat="42.95475" lon="16.71519">
        <ele>18</ele>
        <time>2016-07-11T00:04:06Z</time>
      </trkpt>
      <trkpt lat="42.95453" lon="16.71541">
        <ele>20</ele>
        <time>2016-07-11T00:06:06Z</time>
      </trkpt>
      <trkpt lat="42.95438" lon="16.71564">
        <ele>22</ele>
        <time>2016-07-11T00:08:06Z</time>
      </trkpt>
      <trkpt lat="42.95429" lon="16.71585">
        <ele>24</ele>
        <time>2016-07-11T00:10:06Z</time>
      </trkpt>
      <trkpt lat="42.9542" lon="16.71612">
        <ele>25</ele>
        <time>2016-07-11T00:12:06Z</time>
      </trkpt>
      <trkpt lat="42.95408" lon="16.71689">
        <ele>26</ele>
        <time>2016-07-11T00:14:06Z</time>
      </trkpt>
      <trkpt lat="42.95397" lon="16.71766">
        <ele>27</ele>
        <time>2016-07-11T00:16:06Z</time>
      </trkpt>
      <trkpt lat="42.95389" lon="16.71815">
        <ele>27</ele>
        <time>2016-07-11T00:18:06Z</time>
      </trkpt>
      <trkpt lat="42.9538" lon="16.71857">
        <ele>27</ele>
        <time>2016-07-11T00:20:06Z</time>
      </trkpt>
      <trkpt lat="42.9536" lon="16.71908">
        <ele>27</ele>
        <time>2016-07-11T00:22:06Z</time>
      </trkpt>
      <trkpt lat="42.95345" lon="16.71942">
        <ele>28</ele>
        <time>2016-07-11T00:24:06Z</time>
      </trkpt>
      <trkpt lat="42.95319" lon="16.72004">
        <ele>29</ele>
        <time>2016-07-11T00:26:06Z</time>
      </trkpt>
      <trkpt lat="42.95304" lon="16.72038">
        <ele>30</ele>
        <time>2016-07-11T00:28:06Z</time>
      </trkpt>
      <trkpt lat="42.95296" lon="16.72055">
        <ele>30</ele>
        <time>2016-07-11T00:30:06Z</time>
      </trkpt>
      <trkpt lat="42.95296" lon="16.72055">
        <ele>30</ele>
        <time>2016-07-11T00:32:06Z</time>
      </trkpt>
      <trkpt lat="42.95287" lon="16.72053">
        <ele>30</ele>
        <time>2016-07-11T00:34:06Z</time>
      </trkpt>
      <trkpt lat="42.95247" lon="16.72051">
        <ele>32</ele>
        <time>2016-07-11T00:36:06Z</time>
      </trkpt>
      <trkpt lat="42.95212" lon="16.72051">
        <ele>32</ele>
        <time>2016-07-11T00:38:06Z</time>
      </trkpt>
      <trkpt lat="42.95184" lon="16.72049">
        <ele>32</ele>
        <time>2016-07-11T00:40:06Z</time>
      </trkpt>
      <trkpt lat="42.95163" lon="16.7205">
        <ele>32</ele>
        <time>2016-07-11T00:42:06Z</time>
      </trkpt>
      <trkpt lat="42.95145" lon="16.72052">
        <ele>33</ele>
        <time>2016-07-11T00:44:06Z</time>
      </trkpt>
      <trkpt lat="42.95125" lon="16.72056">
        <ele>34</ele>
        <time>2016-07-11T00:46:06Z</time>
      </trkpt>
      <trkpt lat="42.95118" lon="16.72059">
        <ele>35</ele>
        <time>2016-07-11T00:48:06Z</time>
      </trkpt>
      <trkpt lat="42.95108" lon="16.72064">
        <ele>35</ele>
        <time>2016-07-11T00:50:06Z</time>
      </trkpt>
      <trkpt lat="42.95098" lon="16.72071">
        <ele>35</ele>
        <time>2016-07-11T00:52:06Z</time>
      </trkpt>
      <trkpt lat="42.95084" lon="16.72081">
        <ele>35</ele>
        <time>2016-07-11T00:54:06Z</time>
      </trkpt>
      <trkpt lat="42.95073" lon="16.72091">
        <ele>36</ele>
        <time>2016-07-11T00:56:06Z</time>
      </trkpt>
      <trkpt lat="42.95058" lon="16.72106">
        <ele>38</ele>
        <time>2016-07-11T00:58:06Z</time>
      </trkpt>
      <trkpt lat="42.95048" lon="16.72116">
        <ele>39</ele>
        <time>2016-07-11T01:00:06Z</time>
      </trkpt>
      <trkpt lat="42.95035" lon="16.72131">
        <ele>39</ele>
        <time>2016-07-11T01:02:06Z</time>
      </trkpt>
      <trkpt lat="42.95024" lon="16.72146">
        <ele>39</ele>
        <time>2016-07-11T01:04:06Z</time>
      </trkpt>
      <trkpt lat="42.95011" lon="16.72163">
        <ele>39</ele>
        <time>2016-07-11T01:06:06Z</time>
      </trkpt>
      <trkpt lat="42.95" lon="16.7218">
        <ele>40</ele>
        <time>2016-07-11T01:08:06Z</time>
      </trkpt>
      <trkpt lat="42.94988" lon="16.72195">
        <ele>41</ele>
        <time>2016-07-11T01:10:06Z</time>
      </trkpt>
      <trkpt lat="42.94981" lon="16.72205">
        <ele>42</ele>
        <time>2016-07-11T01:12:06Z</time>
      </trkpt>
      <trkpt lat="42.9497" lon="16.72223">
        <ele>43</ele>
        <time>2016-07-11T01:14:06Z</time>
      </trkpt>
      <trkpt lat="42.9496" lon="16.72237">
        <ele>43</ele>
        <time>2016-07-11T01:16:06Z</time>
      </trkpt>
      <trkpt lat="42.94951" lon="16.72252">
        <ele>43</ele>
        <time>2016-07-11T01:18:06Z</time>
      </trkpt>
      <trkpt lat="42.9494" lon="16.72269">
        <ele>44</ele>
        <time>2016-07-11T01:20:06Z</time>
      </trkpt>
      <trkpt lat="42.9493" lon="16.72285">
        <ele>45</ele>
        <time>2016-07-11T01:22:06Z</time>
      </trkpt>
      <trkpt lat="42.9492" lon="16.72302">
        <ele>46</ele>
        <time>2016-07-11T01:24:06Z</time>
      </trkpt>
      <trkpt lat="42.94909" lon="16.72323">
        <ele>46</ele>
        <time>2016-07-11T01:26:06Z</time>
      </trkpt>
      <trkpt lat="42.94897" lon="16.72344">
        <ele>47</ele>
        <time>2016-07-11T01:28:06Z</time>
      </trkpt>
      <trkpt lat="42.94864" lon="16.72406">
        <ele>48</ele>
        <time>2016-07-11T01:30:06Z</time>
      </trkpt>
      <trkpt lat="42.94844" lon="16.7245">
        <ele>48</ele>
        <time>2016-07-11T01:32:06Z</time>
      </trkpt>
      <trkpt lat="42.94834" lon="16.7247">
        <ele>49</ele>
        <time>2016-07-11T01:34:06Z</time>
      </trkpt>
      <trkpt lat="42.94824" lon="16.72484">
        <ele>49</ele>
        <time>2016-07-11T01:36:06Z</time>
      </trkpt>
      <trkpt lat="42.94815" lon="16.72495">
        <ele>49</ele>
        <time>2016-07-11T01:38:06Z</time>
      </trkpt>
      <trkpt lat="42.94805" lon="16.72503">
        <ele>49</ele>
        <time>2016-07-11T01:40:06Z</time>
      </trkpt>
      <trkpt lat="42.94782" lon="16.72519">
        <ele>49</ele>
        <time>2016-07-11T01:42:06Z</time>
      </trkpt>
      <trkpt lat="42.9475" lon="16.72543">
        <ele>49</ele>
        <time>2016-07-11T01:44:06Z</time>
      </trkpt>
      <trkpt lat="42.94731" lon="16.72555">
        <ele>50</ele>
        <time>2016-07-11T01:46:06Z</time>
      </trkpt>
      <trkpt lat="42.94717" lon="16.72565">
        <ele>51</ele>
        <time>2016-07-11T01:48:06Z</time>
      </trkpt>
      <trkpt lat="42.94702" lon="16.7258">
        <ele>51</ele>
        <time>2016-07-11T01:50:06Z</time>
      </trkpt>
      <trkpt lat="42.94692" lon="16.72594">
        <ele>51</ele>
        <time>2016-07-11T01:52:06Z</time>
      </trkpt>
      <trkpt lat="42.94682" lon="16.7261">
        <ele>51</ele>
        <time>2016-07-11T01:54:06Z</time>
      </trkpt>
      <trkpt lat="42.94674" lon="16.72633">
        <ele>50</ele>
        <time>2016-07-11T01:56:06Z</time>
      </trkpt>
      <trkpt lat="42.94666" lon="16.72657">
        <ele>50</ele>
        <time>2016-07-11T01:58:06Z</time>
      </trkpt>
      <trkpt lat="42.94656" lon="16.72685">
        <ele>49</ele>
        <time>2016-07-11T02:00:06Z</time>
      </trkpt>
      <trkpt lat="42.94652" lon="16.72698">
        <ele>49</ele>
        <time>2016-07-11T02:02:06Z</time>
      </trkpt>
      <trkpt lat="42.94644" lon="16.72714">
        <ele>49</ele>
        <time>2016-07-11T02:04:06Z</time>
      </trkpt>
      <trkpt lat="42.94625" lon="16.72745">
        <ele>48</ele>
        <time>2016-07-11T02:06:06Z</time>
      </trkpt>
      <trkpt lat="42.9459" lon="16.72794">
        <ele>49</ele>
        <time>2016-07-11T02:08:06Z</time>
      </trkpt>
      <trkpt lat="42.94574" lon="16.72816">
        <ele>50</ele>
        <time>2016-07-11T02:10:06Z</time>
      </trkpt>
      <trkpt lat="42.94567" lon="16.72822">
        <ele>50</ele>
        <time>2016-07-11T02:12:06Z</time>
      </trkpt>
      <trkpt lat="42.94561" lon="16.72826">
        <ele>51</ele>
        <time>2016-07-11T02:14:06Z</time>
      </trkpt>
      <trkpt lat="42.94554" lon="16.72831">
        <ele>52</ele>
        <time>2016-07-11T02:16:06Z</time>
      </trkpt>
      <trkpt lat="42.94545" lon="16.72838">
        <ele>53</ele>
        <time>2016-07-11T02:18:06Z</time>
      </trkpt>
      <trkpt lat="42.94531" lon="16.72849">
        <ele>54</ele>
        <time>2016-07-11T02:20:06Z</time>
      </trkpt>
      <trkpt lat="42.94503" lon="16.72867">
        <ele>57</ele>
        <time>2016-07-11T02:22:06Z</time>
      </trkpt>
      <trkpt lat="42.94479" lon="16.72881">
        <ele>56</ele>
        <time>2016-07-11T02:24:06Z</time>
      </trkpt>
      <trkpt lat="42.94465" lon="16.72889">
        <ele>56</ele>
        <time>2016-07-11T02:26:06Z</time>
      </trkpt>
      <trkpt lat="42.94448" lon="16.72892">
        <ele>56</ele>
        <time>2016-07-11T02:28:06Z</time>
      </trkpt>
      <trkpt lat="42.94436" lon="16.72895">
        <ele>56</ele>
        <time>2016-07-11T02:30:06Z</time>
      </trkpt>
      <trkpt lat="42.9442" lon="16.72893">
        <ele>56</ele>
        <time>2016-07-11T02:32:06Z</time>
      </trkpt>
      <trkpt lat="42.94402" lon="16.72888">
        <ele>57</ele>
        <time>2016-07-11T02:34:06Z</time>
      </trkpt>
      <trkpt lat="42.94368" lon="16.72853">
        <ele>60</ele>
        <time>2016-07-11T02:36:06Z</time>
      </trkpt>
      <trkpt lat="42.94331" lon="16.72812">
        <ele>62</ele>
        <time>2016-07-11T02:38:06Z</time>
      </trkpt>
      <trkpt lat="42.94276" lon="16.72749">
        <ele>64</ele>
        <time>2016-07-11T02:40:06Z</time>
      </trkpt>
      <trkpt lat="42.94225" lon="16.72685">
        <ele>68</ele>
        <time>2016-07-11T02:42:06Z</time>
      </trkpt>
      <trkpt lat="42.94197" lon="16.72657">
        <ele>69</ele>
        <time>2016-07-11T02:44:06Z</time>
      </trkpt>
      <trkpt lat="42.94165" lon="16.72628">
        <ele>69</ele>
        <time>2016-07-11T02:46:06Z</time>
      </trkpt>
      <trkpt lat="42.94153" lon="16.72617">
        <ele>70</ele>
        <time>2016-07-11T02:48:06Z</time>
      </trkpt>
      <trkpt lat="42.94145" lon="16.72613">
        <ele>71</ele>
        <time>2016-07-11T02:50:06Z</time>
      </trkpt>
      <trkpt lat="42.94136" lon="16.7261">
        <ele>72</ele>
        <time>2016-07-11T02:52:06Z</time>
      </trkpt>
      <trkpt lat="42.94129" lon="16.7261">
        <ele>72</ele>
        <time>2016-07-11T02:54:06Z</time>
      </trkpt>
      <trkpt lat="42.94119" lon="16.72611">
        <ele>72</ele>
        <time>2016-07-11T02:56:06Z</time>
      </trkpt>
      <trkpt lat="42.94088" lon="16.72616">
        <ele>74</ele>
        <time>2016-07-11T02:58:06Z</time>
      </trkpt>
      <trkpt lat="42.94051" lon="16.72624">
        <ele>76</ele>
        <time>2016-07-11T03:00:06Z</time>
      </trkpt>
      <trkpt lat="42.94022" lon="16.72629">
        <ele>79</ele>
        <time>2016-07-11T03:02:06Z</time>
      </trkpt>
      <trkpt lat="42.94018" lon="16.72629">
        <ele>79</ele>
        <time>2016-07-11T03:04:06Z</time>
      </trkpt>
      <trkpt lat="42.94014" lon="16.72626">
        <ele>80</ele>
        <time>2016-07-11T03:06:06Z</time>
      </trkpt>
      <trkpt lat="42.94011" lon="16.72621">
        <ele>80</ele>
        <time>2016-07-11T03:08:06Z</time>
      </trkpt>
      <trkpt lat="42.94007" lon="16.72611">
        <ele>80</ele>
        <time>2016-07-11T03:10:06Z</time>
      </trkpt>
      <trkpt lat="42.94004" lon="16.72597">
        <ele>81</ele>
        <time>2016-07-11T03:12:06Z</time>
      </trkpt>
      <trkpt lat="42.94001" lon="16.72571">
        <ele>82</ele>
        <time>2016-07-11T03:14:06Z</time>
      </trkpt>
      <trkpt lat="42.93998" lon="16.7255">
        <ele>83</ele>
        <time>2016-07-11T03:16:06Z</time>
      </trkpt>
      <trkpt lat="42.93987" lon="16.72523">
        <ele>85</ele>
        <time>2016-07-11T03:18:06Z</time>
      </trkpt>
      <trkpt lat="42.93975" lon="16.72502">
        <ele>87</ele>
        <time>2016-07-11T03:20:06Z</time>
      </trkpt>
      <trkpt lat="42.93956" lon="16.7248">
        <ele>89</ele>
        <time>2016-07-11T03:22:06Z</time>
      </trkpt>
      <trkpt lat="42.93939" lon="16.72466">
        <ele>90</ele>
        <time>2016-07-11T03:24:06Z</time>
      </trkpt>
      <trkpt lat="42.93926" lon="16.72453">
        <ele>91</ele>
        <time>2016-07-11T03:26:06Z</time>
      </trkpt>
      <trkpt lat="42.93914" lon="16.7244">
        <ele>92</ele>
        <time>2016-07-11T03:28:06Z</time>
      </trkpt>
      <trkpt lat="42.93901" lon="16.72424">
        <ele>93</ele>
        <time>2016-07-11T03:30:06Z</time>
      </trkpt>
      <trkpt lat="42.93891" lon="16.72404">
        <ele>94</ele>
        <time>2016-07-11T03:32:06Z</time>
      </trkpt>
      <trkpt lat="42.93884" lon="16.72383">
        <ele>95</ele>
        <time>2016-07-11T03:34:06Z</time>
      </trkpt>
      <trkpt lat="42.93877" lon="16.7235">
        <ele>95</ele>
        <time>2016-07-11T03:36:06Z</time>
      </trkpt>
      <trkpt lat="42.93875" lon="16.72341">
        <ele>95</ele>
        <time>2016-07-11T03:38:06Z</time>
      </trkpt>
      <trkpt lat="42.93873" lon="16.7233">
        <ele>95</ele>
        <time>2016-07-11T03:40:06Z</time>
      </trkpt>
      <trkpt lat="42.9387" lon="16.72324">
        <ele>95</ele>
        <time>2016-07-11T03:42:06Z</time>
      </trkpt>
      <trkpt lat="42.93868" lon="16.72316">
        <ele>96</ele>
        <time>2016-07-11T03:44:06Z</time>
      </trkpt>
      <trkpt lat="42.93864" lon="16.72308">
        <ele>96</ele>
        <time>2016-07-11T03:46:06Z</time>
      </trkpt>
      <trkpt lat="42.93861" lon="16.72303">
        <ele>96</ele>
        <time>2016-07-11T03:48:06Z</time>
      </trkpt>
      <trkpt lat="42.93859" lon="16.72297">
        <ele>97</ele>
        <time>2016-07-11T03:50:06Z</time>
      </trkpt>
      <trkpt lat="42.9385" lon="16.72285">
        <ele>97</ele>
        <time>2016-07-11T03:52:06Z</time>
      </trkpt>
      <trkpt lat="42.9384" lon="16.72273">
        <ele>97</ele>
        <time>2016-07-11T03:54:06Z</time>
      </trkpt>
      <trkpt lat="42.93833" lon="16.72264">
        <ele>97</ele>
        <time>2016-07-11T03:56:06Z</time>
      </trkpt>
      <trkpt lat="42.93825" lon="16.72257">
        <ele>99</ele>
        <time>2016-07-11T03:58:06Z</time>
      </trkpt>
      <trkpt lat="42.93819" lon="16.72247">
        <ele>100</ele>
        <time>2016-07-11T04:00:06Z</time>
      </trkpt>
      <trkpt lat="42.93814" lon="16.72238">
        <ele>102</ele>
        <time>2016-07-11T04:02:06Z</time>
      </trkpt>
      <trkpt lat="42.93813" lon="16.72237">
        <ele>102</ele>
        <time>2016-07-11T04:04:06Z</time>
      </trkpt>
      <trkpt lat="42.93809" lon="16.7223">
        <ele>103</ele>
        <time>2016-07-11T04:06:06Z</time>
      </trkpt>
      <trkpt lat="42.93788" lon="16.72207">
        <ele>107</ele>
        <time>2016-07-11T04:08:06Z</time>
      </trkpt>
      <trkpt lat="42.93767" lon="16.72187">
        <ele>110</ele>
        <time>2016-07-11T04:10:06Z</time>
      </trkpt>
      <trkpt lat="42.93751" lon="16.72178">
        <ele>111</ele>
        <time>2016-07-11T04:12:06Z</time>
      </trkpt>
      <trkpt lat="42.93742" lon="16.72173">
        <ele>112</ele>
        <time>2016-07-11T04:14:06Z</time>
      </trkpt>
      <trkpt lat="42.93729" lon="16.72162">
        <ele>113</ele>
        <time>2016-07-11T04:16:06Z</time>
      </trkpt>
      <trkpt lat="42.93709" lon="16.72135">
        <ele>119</ele>
        <time>2016-07-11T04:18:06Z</time>
      </trkpt>
      <trkpt lat="42.93702" lon="16.72124">
        <ele>121</ele>
        <time>2016-07-11T04:20:06Z</time>
      </trkpt>
      <trkpt lat="42.93692" lon="16.72114">
        <ele>123</ele>
        <time>2016-07-11T04:22:06Z</time>
      </trkpt>
      <trkpt lat="42.93689" lon="16.72112">
        <ele>123</ele>
        <time>2016-07-11T04:24:06Z</time>
      </trkpt>
      <trkpt lat="42.93683" lon="16.72108">
        <ele>124</ele>
        <time>2016-07-11T04:26:06Z</time>
      </trkpt>
      <trkpt lat="42.93679" lon="16.72108">
        <ele>124</ele>
        <time>2016-07-11T04:28:06Z</time>
      </trkpt>
      <trkpt lat="42.93668" lon="16.72107">
        <ele>124</ele>
        <time>2016-07-11T04:30:06Z</time>
      </trkpt>
      <trkpt lat="42.93652" lon="16.72109">
        <ele>124</ele>
        <time>2016-07-11T04:32:06Z</time>
      </trkpt>
      <trkpt lat="42.93636" lon="16.72112">
        <ele>124</ele>
        <time>2016-07-11T04:34:06Z</time>
      </trkpt>
      <trkpt lat="42.93623" lon="16.72115">
        <ele>124</ele>
        <time>2016-07-11T04:36:06Z</time>
      </trkpt>
      <trkpt lat="42.93609" lon="16.72118">
        <ele>124</ele>
        <time>2016-07-11T04:38:06Z</time>
      </trkpt>
      <trkpt lat="42.93597" lon="16.7212">
        <ele>125</ele>
        <time>2016-07-11T04:40:06Z</time>
      </trkpt>
      <trkpt lat="42.93585" lon="16.72122">
        <ele>125</ele>
        <time>2016-07-11T04:42:06Z</time>
      </trkpt>
      <trkpt lat="42.93573" lon="16.72125">
        <ele>126</ele>
        <time>2016-07-11T04:44:06Z</time>
      </trkpt>
      <trkpt lat="42.93562" lon="16.72126">
        <ele>127</ele>
        <time>2016-07-11T04:46:06Z</time>
      </trkpt>
      <trkpt lat="42.93551" lon="16.72127">
        <ele>128</ele>
        <time>2016-07-11T04:48:06Z</time>
      </trkpt>
      <trkpt lat="42.93544" lon="16.72129">
        <ele>129</ele>
        <time>2016-07-11T04:50:06Z</time>
      </trkpt>
      <trkpt lat="42.93539" lon="16.7213">
        <ele>129</ele>
        <time>2016-07-11T04:52:06Z</time>
      </trkpt>
      <trkpt lat="42.93535" lon="16.72133">
        <ele>129</ele>
        <time>2016-07-11T04:54:06Z</time>
      </trkpt>
      <trkpt lat="42.9353" lon="16.72137">
        <ele>129</ele>
        <time>2016-07-11T04:56:06Z</time>
      </trkpt>
      <trkpt lat="42.93524" lon="16.72142">
        <ele>130</ele>
        <time>2016-07-11T04:58:06Z</time>
      </trkpt>
      <trkpt lat="42.93514" lon="16.72153">
        <ele>130</ele>
        <time>2016-07-11T05:00:06Z</time>
      </trkpt>
      <trkpt lat="42.93502" lon="16.72166">
        <ele>131</ele>
        <time>2016-07-11T05:02:06Z</time>
      </trkpt>
      <trkpt lat="42.9349" lon="16.72182">
        <ele>131</ele>
        <time>2016-07-11T05:04:06Z</time>
      </trkpt>
      <trkpt lat="42.93485" lon="16.72189">
        <ele>132</ele>
        <time>2016-07-11T05:06:06Z</time>
      </trkpt>
      <trkpt lat="42.93481" lon="16.72193">
        <ele>132</ele>
        <time>2016-07-11T05:08:06Z</time>
      </trkpt>
      <trkpt lat="42.93478" lon="16.72195">
        <ele>132</ele>
        <time>2016-07-11T05:10:06Z</time>
      </trkpt>
      <trkpt lat="42.93476" lon="16.72197">
        <ele>132</ele>
        <time>2016-07-11T05:12:06Z</time>
      </trkpt>
      <trkpt lat="42.93473" lon="16.72198">
        <ele>132</ele>
        <time>2016-07-11T05:14:06Z</time>
      </trkpt>
      <trkpt lat="42.93472" lon="16.72198">
        <ele>132</ele>
        <time>2016-07-11T05:16:06Z</time>
      </trkpt>
      <trkpt lat="42.9347" lon="16.72198">
        <ele>132</ele>
        <time>2016-07-11T05:18:06Z</time>
      </trkpt>
      <trkpt lat="42.93468" lon="16.72198">
        <ele>132</ele>
        <time>2016-07-11T05:20:06Z</time>
      </trkpt>
      <trkpt lat="42.93465" lon="16.72197">
        <ele>132</ele>
        <time>2016-07-11T05:22:06Z</time>
      </trkpt>
      <trkpt lat="42.93463" lon="16.72196">
        <ele>132</ele>
        <time>2016-07-11T05:24:06Z</time>
      </trkpt>
      <trkpt lat="42.93461" lon="16.72194">
        <ele>132</ele>
        <time>2016-07-11T05:26:06Z</time>
      </trkpt>
      <trkpt lat="42.93456" lon="16.72189">
        <ele>132</ele>
        <time>2016-07-11T05:28:06Z</time>
      </trkpt>
      <trkpt lat="42.93469" lon="16.72091">
        <ele>136</ele>
        <time>2016-07-11T05:30:06Z</time>
      </trkpt>
      <trkpt lat="42.93478" lon="16.7204">
        <ele>140</ele>
        <time>2016-07-11T05:32:06Z</time>
      </trkpt>
      <trkpt lat="42.93486" lon="16.7199">
        <ele>144</ele>
        <time>2016-07-11T05:34:06Z</time>
      </trkpt>
      <trkpt lat="42.93491" lon="16.71951">
        <ele>147</ele>
        <time>2016-07-11T05:36:06Z</time>
      </trkpt>
      <trkpt lat="42.93492" lon="16.71935">
        <ele>148</ele>
        <time>2016-07-11T05:38:06Z</time>
      </trkpt>
      <trkpt lat="42.93493" lon="16.71929">
        <ele>148</ele>
        <time>2016-07-11T05:40:06Z</time>
      </trkpt>
      <trkpt lat="42.93493" lon="16.7192">
        <ele>149</ele>
        <time>2016-07-11T05:42:06Z</time>
      </trkpt>
      <trkpt lat="42.93493" lon="16.7191">
        <ele>149</ele>
        <time>2016-07-11T05:44:06Z</time>
      </trkpt>
      <trkpt lat="42.93492" lon="16.71901">
        <ele>150</ele>
        <time>2016-07-11T05:46:06Z</time>
      </trkpt>
      <trkpt lat="42.9349" lon="16.71879">
        <ele>151</ele>
        <time>2016-07-11T05:48:06Z</time>
      </trkpt>
      <trkpt lat="42.93489" lon="16.71858">
        <ele>152</ele>
        <time>2016-07-11T05:50:06Z</time>
      </trkpt>
      <trkpt lat="42.93484" lon="16.71832">
        <ele>152</ele>
        <time>2016-07-11T05:52:06Z</time>
      </trkpt>
      <trkpt lat="42.93481" lon="16.71805">
        <ele>154</ele>
        <time>2016-07-11T05:54:06Z</time>
      </trkpt>
      <trkpt lat="42.93474" lon="16.71781">
        <ele>156</ele>
        <time>2016-07-11T05:56:06Z</time>
      </trkpt>
      <trkpt lat="42.9347" lon="16.71764">
        <ele>157</ele>
        <time>2016-07-11T05:58:06Z</time>
      </trkpt>
      <trkpt lat="42.93465" lon="16.71747">
        <ele>158</ele>
        <time>2016-07-11T06:00:06Z</time>
      </trkpt>
      <trkpt lat="42.93461" lon="16.71732">
        <ele>159</ele>
        <time>2016-07-11T06:02:06Z</time>
      </trkpt>
      <trkpt lat="42.93458" lon="16.7172">
        <ele>160</ele>
        <time>2016-07-11T06:04:06Z</time>
      </trkpt>
      <trkpt lat="42.93453" lon="16.7171">
        <ele>160</ele>
        <time>2016-07-11T06:06:06Z</time>
      </trkpt>
      <trkpt lat="42.93448" lon="16.717">
        <ele>161</ele>
        <time>2016-07-11T06:08:06Z</time>
      </trkpt>
      <trkpt lat="42.93441" lon="16.71689">
        <ele>161</ele>
        <time>2016-07-11T06:10:06Z</time>
      </trkpt>
      <trkpt lat="42.93434" lon="16.71679">
        <ele>161</ele>
        <time>2016-07-11T06:12:06Z</time>
      </trkpt>
      <trkpt lat="42.93426" lon="16.71669">
        <ele>161</ele>
        <time>2016-07-11T06:14:06Z</time>
      </trkpt>
      <trkpt lat="42.93418" lon="16.7166">
        <ele>160</ele>
        <time>2016-07-11T06:16:06Z</time>
      </trkpt>
      <trkpt lat="42.93409" lon="16.71651">
        <ele>161</ele>
        <time>2016-07-11T06:18:06Z</time>
      </trkpt>
      <trkpt lat="42.93397" lon="16.71641">
        <ele>162</ele>
        <time>2016-07-11T06:20:06Z</time>
      </trkpt>
      <trkpt lat="42.93391" lon="16.71634">
        <ele>162</ele>
        <time>2016-07-11T06:22:06Z</time>
      </trkpt>
      <trkpt lat="42.93386" lon="16.71628">
        <ele>162</ele>
        <time>2016-07-11T06:24:06Z</time>
      </trkpt>
      <trkpt lat="42.93386" lon="16.71627">
        <ele>162</ele>
        <time>2016-07-11T06:26:06Z</time>
      </trkpt>
      <trkpt lat="42.93382" lon="16.7162">
        <ele>162</ele>
        <time>2016-07-11T06:28:06Z</time>
      </trkpt>
      <trkpt lat="42.93381" lon="16.71611">
        <ele>162</ele>
        <time>2016-07-11T06:30:06Z</time>
      </trkpt>
      <trkpt lat="42.93381" lon="16.71606">
        <ele>162</ele>
        <time>2016-07-11T06:32:06Z</time>
      </trkpt>
      <trkpt lat="42.93383" lon="16.71598">
        <ele>162</ele>
        <time>2016-07-11T06:34:06Z</time>
      </trkpt>
      <trkpt lat="42.93383" lon="16.71595">
        <ele>162</ele>
        <time>2016-07-11T06:36:06Z</time>
      </trkpt>
      <trkpt lat="42.93386" lon="16.71586">
        <ele>162</ele>
        <time>2016-07-11T06:38:06Z</time>
      </trkpt>
      <trkpt lat="42.93393" lon="16.71567">
        <ele>161</ele>
        <time>2016-07-11T06:40:06Z</time>
      </trkpt>
      <trkpt lat="42.93399" lon="16.71553">
        <ele>161</ele>
        <time>2016-07-11T06:42:06Z</time>
      </trkpt>
      <trkpt lat="42.93404" lon="16.71535">
        <ele>160</ele>
        <time>2016-07-11T06:44:06Z</time>
      </trkpt>
      <trkpt lat="42.93406" lon="16.71524">
        <ele>160</ele>
        <time>2016-07-11T06:46:06Z</time>
      </trkpt>
      <trkpt lat="42.93408" lon="16.71514">
        <ele>160</ele>
        <time>2016-07-11T06:48:06Z</time>
      </trkpt>
      <trkpt lat="42.9341" lon="16.71499">
        <ele>159</ele>
        <time>2016-07-11T06:50:06Z</time>
      </trkpt>
      <trkpt lat="42.9341" lon="16.71482">
        <ele>158</ele>
        <time>2016-07-11T06:52:06Z</time>
      </trkpt>
      <trkpt lat="42.93409" lon="16.71449">
        <ele>156</ele>
        <time>2016-07-11T06:54:06Z</time>
      </trkpt>
      <trkpt lat="42.93406" lon="16.71397">
        <ele>154</ele>
        <time>2016-07-11T06:56:06Z</time>
      </trkpt>
      <trkpt lat="42.93404" lon="16.71374">
        <ele>153</ele>
        <time>2016-07-11T06:58:06Z</time>
      </trkpt>
      <trkpt lat="42.93402" lon="16.71353">
        <ele>152</ele>
        <time>2016-07-11T07:00:06Z</time>
      </trkpt>
      <trkpt lat="42.93399" lon="16.71333">
        <ele>151</ele>
        <time>2016-07-11T07:02:06Z</time>
      </trkpt>
      <trkpt lat="42.93396" lon="16.71311">
        <ele>151</ele>
        <time>2016-07-11T07:04:06Z</time>
      </trkpt>
      <trkpt lat="42.93391" lon="16.71282">
        <ele>150</ele>
        <time>2016-07-11T07:06:06Z</time>
      </trkpt>
      <trkpt lat="42.93384" lon="16.71247">
        <ele>148</ele>
        <time>2016-07-11T07:08:06Z</time>
      </trkpt>
      <trkpt lat="42.93378" lon="16.71219">
        <ele>146</ele>
        <time>2016-07-11T07:10:06Z</time>
      </trkpt>
      <trkpt lat="42.93374" lon="16.71194">
        <ele>145</ele>
        <time>2016-07-11T07:12:06Z</time>
      </trkpt>
      <trkpt lat="42.93369" lon="16.71164">
        <ele>144</ele>
        <time>2016-07-11T07:14:06Z</time>
      </trkpt>
      <trkpt lat="42.93364" lon="16.71137">
        <ele>143</ele>
        <time>2016-07-11T07:16:06Z</time>
      </trkpt>
      <trkpt lat="42.93361" lon="16.71115">
        <ele>142</ele>
        <time>2016-07-11T07:18:06Z</time>
      </trkpt>
      <trkpt lat="42.93357" lon="16.71085">
        <ele>140</ele>
        <time>2016-07-11T07:20:06Z</time>
      </trkpt>
      <trkpt lat="42.93353" lon="16.71043">
        <ele>139</ele>
        <time>2016-07-11T07:22:06Z</time>
      </trkpt>
      <trkpt lat="42.93349" lon="16.71009">
        <ele>138</ele>
        <time>2016-07-11T07:24:06Z</time>
      </trkpt>
      <trkpt lat="42.93345" lon="16.70974">
        <ele>136</ele>
        <time>2016-07-11T07:26:06Z</time>
      </trkpt>
      <trkpt lat="42.93339" lon="16.70925">
        <ele>133</ele>
        <time>2016-07-11T07:28:06Z</time>
      </trkpt>
      <trkpt lat="42.93335" lon="16.70889">
        <ele>131</ele>
        <time>2016-07-11T07:30:06Z</time>
      </trkpt>
      <trkpt lat="42.93332" lon="16.70855">
        <ele>130</ele>
        <time>2016-07-11T07:32:06Z</time>
      </trkpt>
      <trkpt lat="42.93329" lon="16.70823">
        <ele>129</ele>
        <time>2016-07-11T07:34:06Z</time>
      </trkpt>
      <trkpt lat="42.93328" lon="16.70804">
        <ele>129</ele>
        <time>2016-07-11T07:36:06Z</time>
      </trkpt>
      <trkpt lat="42.93328" lon="16.70787">
        <ele>128</ele>
        <time>2016-07-11T07:38:06Z</time>
      </trkpt>
      <trkpt lat="42.93329" lon="16.70768">
        <ele>128</ele>
        <time>2016-07-11T07:40:06Z</time>
      </trkpt>
      <trkpt lat="42.9333" lon="16.70741">
        <ele>127</ele>
        <time>2016-07-11T07:42:06Z</time>
      </trkpt>
      <trkpt lat="42.93329" lon="16.70712">
        <ele>125</ele>
        <time>2016-07-11T07:44:06Z</time>
      </trkpt>
      <trkpt lat="42.93328" lon="16.70687">
        <ele>123</ele>
        <time>2016-07-11T07:46:06Z</time>
      </trkpt>
      <trkpt lat="42.93325" lon="16.70656">
        <ele>121</ele>
        <time>2016-07-11T07:48:06Z</time>
      </trkpt>
      <trkpt lat="42.93323" lon="16.70635">
        <ele>120</ele>
        <time>2016-07-11T07:50:06Z</time>
      </trkpt>
      <trkpt lat="42.93319" lon="16.70617">
        <ele>119</ele>
        <time>2016-07-11T07:52:06Z</time>
      </trkpt>
      <trkpt lat="42.93317" lon="16.70602">
        <ele>118</ele>
        <time>2016-07-11T07:54:06Z</time>
      </trkpt>
      <trkpt lat="42.93315" lon="16.70592">
        <ele>118</ele>
        <time>2016-07-11T07:56:06Z</time>
      </trkpt>
      <trkpt lat="42.93314" lon="16.70583">
        <ele>117</ele>
        <time>2016-07-11T07:58:06Z</time>
      </trkpt>
      <trkpt lat="42.93313" lon="16.70573">
        <ele>117</ele>
        <time>2016-07-11T08:00:06Z</time>
      </trkpt>
      <trkpt lat="42.93313" lon="16.70563">
        <ele>116</ele>
        <time>2016-07-11T08:02:06Z</time>
      </trkpt>
      <trkpt lat="42.93313" lon="16.70552">
        <ele>116</ele>
        <time>2016-07-11T08:04:06Z</time>
      </trkpt>
      <trkpt lat="42.93314" lon="16.70537">
        <ele>115</ele>
        <time>2016-07-11T08:06:06Z</time>
      </trkpt>
      <trkpt lat="42.93315" lon="16.70523">
        <ele>115</ele>
        <time>2016-07-11T08:08:06Z</time>
      </trkpt>
      <trkpt lat="42.93316" lon="16.7051">
        <ele>114</ele>
        <time>2016-07-11T08:10:06Z</time>
      </trkpt>
      <trkpt lat="42.93318" lon="16.70488">
        <ele>113</ele>
        <time>2016-07-11T08:12:06Z</time>
      </trkpt>
      <trkpt lat="42.93321" lon="16.7046">
        <ele>112</ele>
        <time>2016-07-11T08:14:06Z</time>
      </trkpt>
      <trkpt lat="42.93325" lon="16.70423">
        <ele>111</ele>
        <time>2016-07-11T08:16:06Z</time>
      </trkpt>
      <trkpt lat="42.93327" lon="16.70399">
        <ele>110</ele>
        <time>2016-07-11T08:18:06Z</time>
      </trkpt>
      <trkpt lat="42.9333" lon="16.70365">
        <ele>109</ele>
        <time>2016-07-11T08:20:06Z</time>
      </trkpt>
      <trkpt lat="42.93332" lon="16.70332">
        <ele>108</ele>
        <time>2016-07-11T08:22:06Z</time>
      </trkpt>
      <trkpt lat="42.93332" lon="16.70298">
        <ele>106</ele>
        <time>2016-07-11T08:24:06Z</time>
      </trkpt>
      <trkpt lat="42.93331" lon="16.7028">
        <ele>105</ele>
        <time>2016-07-11T08:26:06Z</time>
      </trkpt>
      <trkpt lat="42.93328" lon="16.70252">
        <ele>104</ele>
        <time>2016-07-11T08:28:06Z</time>
      </trkpt>
      <trkpt lat="42.93324" lon="16.70231">
        <ele>103</ele>
        <time>2016-07-11T08:30:06Z</time>
      </trkpt>
      <trkpt lat="42.93321" lon="16.70218">
        <ele>103</ele>
        <time>2016-07-11T08:32:06Z</time>
      </trkpt>
      <trkpt lat="42.93315" lon="16.70201">
        <ele>102</ele>
        <time>2016-07-11T08:34:06Z</time>
      </trkpt>
      <trkpt lat="42.93305" lon="16.70171">
        <ele>101</ele>
        <time>2016-07-11T08:36:06Z</time>
      </trkpt>
      <trkpt lat="42.93296" lon="16.70144">
        <ele>101</ele>
        <time>2016-07-11T08:38:06Z</time>
      </trkpt>
      <trkpt lat="42.93286" lon="16.70112">
        <ele>100</ele>
        <time>2016-07-11T08:40:06Z</time>
      </trkpt>
      <trkpt lat="42.93278" lon="16.70088">
        <ele>99</ele>
        <time>2016-07-11T08:42:06Z</time>
      </trkpt>
      <trkpt lat="42.93271" lon="16.70069">
        <ele>99</ele>
        <time>2016-07-11T08:44:06Z</time>
      </trkpt>
      <trkpt lat="42.93268" lon="16.70057">
        <ele>99</ele>
        <time>2016-07-11T08:46:06Z</time>
      </trkpt>
      <trkpt lat="42.93264" lon="16.70043">
        <ele>99</ele>
        <time>2016-07-11T08:48:06Z</time>
      </trkpt>
      <trkpt lat="42.9326" lon="16.70024">
        <ele>99</ele>
        <time>2016-07-11T08:50:06Z</time>
      </trkpt>
      <trkpt lat="42.93257" lon="16.70008">
        <ele>98</ele>
        <time>2016-07-11T08:52:06Z</time>
      </trkpt>
      <trkpt lat="42.93254" lon="16.69994">
        <ele>98</ele>
        <time>2016-07-11T08:54:06Z</time>
      </trkpt>
      <trkpt lat="42.93252" lon="16.69982">
        <ele>98</ele>
        <time>2016-07-11T08:56:06Z</time>
      </trkpt>
      <trkpt lat="42.93251" lon="16.69971">
        <ele>98</ele>
        <time>2016-07-11T08:58:06Z</time>
      </trkpt>
      <trkpt lat="42.93251" lon="16.69961">
        <ele>98</ele>
        <time>2016-07-11T09:00:06Z</time>
      </trkpt>
      <trkpt lat="42.9325" lon="16.6995">
        <ele>97</ele>
        <time>2016-07-11T09:02:06Z</time>
      </trkpt>
      <trkpt lat="42.93248" lon="16.69921">
        <ele>97</ele>
        <time>2016-07-11T09:04:06Z</time>
      </trkpt>
      <trkpt lat="42.93245" lon="16.69869">
        <ele>94</ele>
        <time>2016-07-11T09:06:06Z</time>
      </trkpt>
      <trkpt lat="42.93243" lon="16.69836">
        <ele>91</ele>
        <time>2016-07-11T09:08:06Z</time>
      </trkpt>
      <trkpt lat="42.9324" lon="16.69793">
        <ele>89</ele>
        <time>2016-07-11T09:10:06Z</time>
      </trkpt>
      <trkpt lat="42.93239" lon="16.69757">
        <ele>88</ele>
        <time>2016-07-11T09:12:06Z</time>
      </trkpt>
      <trkpt lat="42.93233" lon="16.69639">
        <ele>87</ele>
        <time>2016-07-11T09:14:06Z</time>
      </trkpt>
      <trkpt lat="42.93228" lon="16.69562">
        <ele>86</ele>
        <time>2016-07-11T09:16:06Z</time>
      </trkpt>
      <trkpt lat="42.93228" lon="16.69562">
        <ele>86</ele>
        <time>2016-07-11T09:18:06Z</time>
      </trkpt>
      <trkpt lat="42.93199" lon="16.69558">
        <ele>85</ele>
        <time>2016-07-11T09:20:06Z</time>
      </trkpt>
      <trkpt lat="42.93132" lon="16.69543">
        <ele>83</ele>
        <time>2016-07-11T09:22:06Z</time>
      </trkpt>
      <trkpt lat="42.93084" lon="16.69532">
        <ele>84</ele>
        <time>2016-07-11T09:24:06Z</time>
      </trkpt>
      <trkpt lat="42.93078" lon="16.69531">
        <ele>84</ele>
        <time>2016-07-11T09:26:06Z</time>
      </trkpt>
      <trkpt lat="42.93075" lon="16.69532">
        <ele>85</ele>
        <time>2016-07-11T09:28:06Z</time>
      </trkpt>
      <trkpt lat="42.93072" lon="16.69533">
        <ele>85</ele>
        <time>2016-07-11T09:30:06Z</time>
      </trkpt>
      <trkpt lat="42.93071" lon="16.69535">
        <ele>85</ele>
        <time>2016-07-11T09:32:06Z</time>
      </trkpt>
      <trkpt lat="42.93069" lon="16.69538">
        <ele>85</ele>
        <time>2016-07-11T09:34:06Z</time>
      </trkpt>
      <trkpt lat="42.93068" lon="16.69542">
        <ele>85</ele>
        <time>2016-07-11T09:36:06Z</time>
      </trkpt>
      <trkpt lat="42.93063" lon="16.6957">
        <ele>85</ele>
        <time>2016-07-11T09:38:06Z</time>
      </trkpt>
      <trkpt lat="42.93057" lon="16.69606">
        <ele>85</ele>
        <time>2016-07-11T09:40:06Z</time>
      </trkpt>
      <trkpt lat="42.93056" lon="16.69609">
        <ele>85</ele>
        <time>2016-07-11T09:42:06Z</time>
      </trkpt>
      <trkpt lat="42.93055" lon="16.69612">
        <ele>85</ele>
        <time>2016-07-11T09:44:06Z</time>
      </trkpt>
      <trkpt lat="42.93053" lon="16.69614">
        <ele>86</ele>
        <time>2016-07-11T09:46:06Z</time>
      </trkpt>
      <trkpt lat="42.93051" lon="16.69614">
        <ele>86</ele>
        <time>2016-07-11T09:48:06Z</time>
      </trkpt>
      <trkpt lat="42.93048" lon="16.69614">
        <ele>86</ele>
        <time>2016-07-11T09:50:06Z</time>
      </trkpt>
      <trkpt lat="42.93043" lon="16.69611">
        <ele>86</ele>
        <time>2016-07-11T09:52:06Z</time>
      </trkpt>
      <trkpt lat="42.93039" lon="16.6961">
        <ele>86</ele>
        <time>2016-07-11T09:54:06Z</time>
      </trkpt>
      <trkpt lat="42.93035" lon="16.6961">
        <ele>86</ele>
        <time>2016-07-11T09:56:06Z</time>
      </trkpt>
      <trkpt lat="42.93032" lon="16.69611">
        <ele>86</ele>
        <time>2016-07-11T09:58:06Z</time>
      </trkpt>
      <trkpt lat="42.93026" lon="16.69614">
        <ele>87</ele>
        <time>2016-07-11T10:00:06Z</time>
      </trkpt>
      <trkpt lat="42.93021" lon="16.69615">
        <ele>87</ele>
        <time>2016-07-11T10:02:06Z</time>
      </trkpt>
      <trkpt lat="42.93017" lon="16.69614">
        <ele>87</ele>
        <time>2016-07-11T10:04:06Z</time>
      </trkpt>
      <trkpt lat="42.93013" lon="16.69613">
        <ele>87</ele>
        <time>2016-07-11T10:06:06Z</time>
      </trkpt>
      <trkpt lat="42.92987" lon="16.69603">
        <ele>89</ele>
        <time>2016-07-11T10:08:06Z</time>
      </trkpt>
      <trkpt lat="42.9296" lon="16.69591">
        <ele>91</ele>
        <time>2016-07-11T10:10:06Z</time>
      </trkpt>
      <trkpt lat="42.92956" lon="16.69589">
        <ele>91</ele>
        <time>2016-07-11T10:12:06Z</time>
      </trkpt>
      <trkpt lat="42.92947" lon="16.69582">
        <ele>92</ele>
        <time>2016-07-11T10:14:06Z</time>
      </trkpt>
      <trkpt lat="42.92909" lon="16.69547">
        <ele>94</ele>
        <time>2016-07-11T10:16:06Z</time>
      </trkpt>
      <trkpt lat="42.92887" lon="16.69529">
        <ele>95</ele>
        <time>2016-07-11T10:18:06Z</time>
      </trkpt>
      <trkpt lat="42.92877" lon="16.69518">
        <ele>95</ele>
        <time>2016-07-11T10:20:06Z</time>
      </trkpt>
      <trkpt lat="42.92866" lon="16.69504">
        <ele>94</ele>
        <time>2016-07-11T10:22:06Z</time>
      </trkpt>
      <trkpt lat="42.92862" lon="16.69497">
        <ele>94</ele>
        <time>2016-07-11T10:24:06Z</time>
      </trkpt>
      <trkpt lat="42.92859" lon="16.69494">
        <ele>94</ele>
        <time>2016-07-11T10:26:06Z</time>
      </trkpt>
      <trkpt lat="42.92856" lon="16.69493">
        <ele>94</ele>
        <time>2016-07-11T10:28:06Z</time>
      </trkpt>
      <trkpt lat="42.92852" lon="16.69493">
        <ele>94</ele>
        <time>2016-07-11T10:30:06Z</time>
      </trkpt>
      <trkpt lat="42.92848" lon="16.69492">
        <ele>94</ele>
        <time>2016-07-11T10:32:06Z</time>
      </trkpt>
      <trkpt lat="42.92837" lon="16.69492">
        <ele>95</ele>
        <time>2016-07-11T10:34:06Z</time>
      </trkpt>
      <trkpt lat="42.92811" lon="16.69497">
        <ele>93</ele>
        <time>2016-07-11T10:36:06Z</time>
      </trkpt>
      <trkpt lat="42.92797" lon="16.69499">
        <ele>93</ele>
        <time>2016-07-11T10:38:06Z</time>
      </trkpt>
      <trkpt lat="42.92787" lon="16.69502">
        <ele>92</ele>
        <time>2016-07-11T10:40:06Z</time>
      </trkpt>
      <trkpt lat="42.9278" lon="16.69505">
        <ele>92</ele>
        <time>2016-07-11T10:42:06Z</time>
      </trkpt>
      <trkpt lat="42.92776" lon="16.69507">
        <ele>92</ele>
        <time>2016-07-11T10:44:06Z</time>
      </trkpt>
      <trkpt lat="42.92766" lon="16.69517">
        <ele>93</ele>
        <time>2016-07-11T10:46:06Z</time>
      </trkpt>
      <trkpt lat="42.92761" lon="16.69522">
        <ele>93</ele>
        <time>2016-07-11T10:48:06Z</time>
      </trkpt>
      <trkpt lat="42.92734" lon="16.69541">
        <ele>93</ele>
        <time>2016-07-11T10:50:06Z</time>
      </trkpt>
      <trkpt lat="42.92714" lon="16.69559">
        <ele>93</ele>
        <time>2016-07-11T10:52:06Z</time>
      </trkpt>
      <trkpt lat="42.92698" lon="16.69578">
        <ele>95</ele>
        <time>2016-07-11T10:54:06Z</time>
      </trkpt>
      <trkpt lat="42.92685" lon="16.69597">
        <ele>95</ele>
        <time>2016-07-11T10:56:06Z</time>
      </trkpt>
      <trkpt lat="42.92668" lon="16.69622">
        <ele>96</ele>
        <time>2016-07-11T10:58:06Z</time>
      </trkpt>
      <trkpt lat="42.92657" lon="16.69642">
        <ele>96</ele>
        <time>2016-07-11T11:00:06Z</time>
      </trkpt>
      <trkpt lat="42.9265" lon="16.69654">
        <ele>95</ele>
        <time>2016-07-11T11:02:06Z</time>
      </trkpt>
      <trkpt lat="42.92643" lon="16.6967">
        <ele>96</ele>
        <time>2016-07-11T11:04:06Z</time>
      </trkpt>
      <trkpt lat="42.92592" lon="16.69814">
        <ele>95</ele>
        <time>2016-07-11T11:06:06Z</time>
      </trkpt>
      <trkpt lat="42.92557" lon="16.6991">
        <ele>94</ele>
        <time>2016-07-11T11:08:06Z</time>
      </trkpt>
      <trkpt lat="42.92537" lon="16.69952">
        <ele>94</ele>
        <time>2016-07-11T11:10:06Z</time>
      </trkpt>
      <trkpt lat="42.92534" lon="16.69961">
        <ele>94</ele>
        <time>2016-07-11T11:12:06Z</time>
      </trkpt>
      <trkpt lat="42.92533" lon="16.69964">
        <ele>94</ele>
        <time>2016-07-11T11:14:06Z</time>
      </trkpt>
      <trkpt lat="42.9252" lon="16.70008">
        <ele>94</ele>
        <time>2016-07-11T11:16:06Z</time>
      </trkpt>
      <trkpt lat="42.9243" lon="16.70138">
        <ele>84</ele>
        <time>2016-07-11T11:18:06Z</time>
      </trkpt>
      <trkpt lat="42.92418" lon="16.70156">
        <ele>83</ele>
        <time>2016-07-11T11:20:06Z</time>
      </trkpt>
      <trkpt lat="42.92398" lon="16.70182">
        <ele>81</ele>
        <time>2016-07-11T11:22:06Z</time>
      </trkpt>
      <trkpt lat="42.92392" lon="16.702">
        <ele>80</ele>
        <time>2016-07-11T11:24:06Z</time>
      </trkpt>
      <trkpt lat="42.92387" lon="16.70217">
        <ele>79</ele>
        <time>2016-07-11T11:26:06Z</time>
      </trkpt>
      <trkpt lat="42.9238" lon="16.70231">
        <ele>79</ele>
        <time>2016-07-11T11:28:06Z</time>
      </trkpt>
      <trkpt lat="42.9237" lon="16.70248">
        <ele>78</ele>
        <time>2016-07-11T11:30:06Z</time>
      </trkpt>
      <trkpt lat="42.92354" lon="16.70295">
        <ele>75</ele>
        <time>2016-07-11T11:32:06Z</time>
      </trkpt>
      <trkpt lat="42.92344" lon="16.70328">
        <ele>73</ele>
        <time>2016-07-11T11:34:06Z</time>
      </trkpt>
      <trkpt lat="42.9234" lon="16.70347">
        <ele>72</ele>
        <time>2016-07-11T11:36:06Z</time>
      </trkpt>
      <trkpt lat="42.9234" lon="16.7036">
        <ele>71</ele>
        <time>2016-07-11T11:38:06Z</time>
      </trkpt>
      <trkpt lat="42.92341" lon="16.70375">
        <ele>71</ele>
        <time>2016-07-11T11:40:06Z</time>
      </trkpt>
      <trkpt lat="42.92342" lon="16.70387">
        <ele>71</ele>
        <time>2016-07-11T11:42:06Z</time>
      </trkpt>
      <trkpt lat="42.92344" lon="16.70408">
        <ele>70</ele>
        <time>2016-07-11T11:44:06Z</time>
      </trkpt>
      <trkpt lat="42.92347" lon="16.70422">
        <ele>70</ele>
        <time>2016-07-11T11:46:06Z</time>
      </trkpt>
      <trkpt lat="42.92357" lon="16.70449">
        <ele>69</ele>
        <time>2016-07-11T11:48:06Z</time>
      </trkpt>
      <trkpt lat="42.92365" lon="16.70466">
        <ele>69</ele>
        <time>2016-07-11T11:50:06Z</time>
      </trkpt>
      <trkpt lat="42.9237" lon="16.70479">
        <ele>69</ele>
        <time>2016-07-11T11:52:06Z</time>
      </trkpt>
      <trkpt lat="42.92378" lon="16.70509">
        <ele>68</ele>
        <time>2016-07-11T11:54:06Z</time>
      </trkpt>
      <trkpt lat="42.92385" lon="16.70536">
        <ele>68</ele>
        <time>2016-07-11T11:56:06Z</time>
      </trkpt>
      <trkpt lat="42.9239" lon="16.70573">
        <ele>67</ele>
        <time>2016-07-11T11:58:06Z</time>
      </trkpt>
      <trkpt lat="42.92397" lon="16.70651">
        <ele>66</ele>
        <time>2016-07-11T12:00:06Z</time>
      </trkpt>
      <trkpt lat="42.924" lon="16.7071">
        <ele>66</ele>
        <time>2016-07-11T12:02:06Z</time>
      </trkpt>
      <trkpt lat="42.92402" lon="16.70747">
        <ele>67</ele>
        <time>2016-07-11T12:04:06Z</time>
      </trkpt>
      <trkpt lat="42.92402" lon="16.70754">
        <ele>67</ele>
        <time>2016-07-11T12:06:06Z</time>
      </trkpt>
      <trkpt lat="42.92402" lon="16.70759">
        <ele>68</ele>
        <time>2016-07-11T12:08:06Z</time>
      </trkpt>
      <trkpt lat="42.924" lon="16.70764">
        <ele>67</ele>
        <time>2016-07-11T12:10:06Z</time>
      </trkpt>
      <trkpt lat="42.92396" lon="16.70772">
        <ele>67</ele>
        <time>2016-07-11T12:12:06Z</time>
      </trkpt>
      <trkpt lat="42.92379" lon="16.708">
        <ele>64</ele>
        <time>2016-07-11T12:14:06Z</time>
      </trkpt>
      <trkpt lat="42.92358" lon="16.70835">
        <ele>59</ele>
        <time>2016-07-11T12:16:06Z</time>
      </trkpt>
      <trkpt lat="42.92324" lon="16.70897">
        <ele>53</ele>
        <time>2016-07-11T12:18:06Z</time>
      </trkpt>
      <trkpt lat="42.9232" lon="16.70908">
        <ele>52</ele>
        <time>2016-07-11T12:20:06Z</time>
      </trkpt>
      <trkpt lat="42.92315" lon="16.70923">
        <ele>51</ele>
        <time>2016-07-11T12:22:06Z</time>
      </trkpt>
      <trkpt lat="42.92309" lon="16.70944">
        <ele>50</ele>
        <time>2016-07-11T12:24:06Z</time>
      </trkpt>
      <trkpt lat="42.92301" lon="16.70981">
        <ele>48</ele>
        <time>2016-07-11T12:26:06Z</time>
      </trkpt>
      <trkpt lat="42.9228" lon="16.71088">
        <ele>42</ele>
        <time>2016-07-11T12:28:06Z</time>
      </trkpt>
      <trkpt lat="42.92267" lon="16.71161">
        <ele>37</ele>
        <time>2016-07-11T12:30:06Z</time>
      </trkpt>
      <trkpt lat="42.92266" lon="16.71167">
        <ele>37</ele>
        <time>2016-07-11T12:32:06Z</time>
      </trkpt>
      <trkpt lat="42.92264" lon="16.7117">
        <ele>37</ele>
        <time>2016-07-11T12:34:06Z</time>
      </trkpt>
      <trkpt lat="42.92261" lon="16.71174">
        <ele>37</ele>
        <time>2016-07-11T12:36:06Z</time>
      </trkpt>
      <trkpt lat="42.92257" lon="16.71178">
        <ele>37</ele>
        <time>2016-07-11T12:38:06Z</time>
      </trkpt>
      <trkpt lat="42.92226" lon="16.71201">
        <ele>35</ele>
        <time>2016-07-11T12:40:06Z</time>
      </trkpt>
      <trkpt lat="42.92183" lon="16.71243">
        <ele>29</ele>
        <time>2016-07-11T12:42:06Z</time>
      </trkpt>
      <trkpt lat="42.92163" lon="16.71262">
        <ele>25</ele>
        <time>2016-07-11T12:44:06Z</time>
      </trkpt>
      <trkpt lat="42.92148" lon="16.71281">
        <ele>26</ele>
        <time>2016-07-11T12:46:06Z</time>
      </trkpt>
      <trkpt lat="42.92131" lon="16.71303">
        <ele>25</ele>
        <time>2016-07-11T12:48:06Z</time>
      </trkpt>
      <trkpt lat="42.92118" lon="16.7132">
        <ele>23</ele>
        <time>2016-07-11T12:50:06Z</time>
      </trkpt>
      <trkpt lat="42.92106" lon="16.71342">
        <ele>21</ele>
        <time>2016-07-11T12:52:06Z</time>
      </trkpt>
      <trkpt lat="42.92096" lon="16.71365">
        <ele>19</ele>
        <time>2016-07-11T12:54:06Z</time>
      </trkpt>
      <trkpt lat="42.92089" lon="16.71386">
        <ele>17</ele>
        <time>2016-07-11T12:56:06Z</time>
      </trkpt>
      <trkpt lat="42.92083" lon="16.71411">
        <ele>16</ele>
        <time>2016-07-11T12:58:06Z</time>
      </trkpt>
      <trkpt lat="42.92079" lon="16.71439">
        <ele>19</ele>
        <time>2016-07-11T13:00:06Z</time>
      </trkpt>
      <trkpt lat="42.92074" lon="16.71468">
        <ele>23</ele>
        <time>2016-07-11T13:02:06Z</time>
      </trkpt>
      <trkpt lat="42.9207" lon="16.7149">
        <ele>26</ele>
        <time>2016-07-11T13:04:06Z</time>
      </trkpt>
      <trkpt lat="42.92065" lon="16.71521">
        <ele>28</ele>
        <time>2016-07-11T13:06:06Z</time>
      </trkpt>
      <trkpt lat="42.92056" lon="16.71558">
        <ele>27</ele>
        <time>2016-07-11T13:08:06Z</time>
      </trkpt>
      <trkpt lat="42.92048" lon="16.71583">
        <ele>26</ele>
        <time>2016-07-11T13:10:06Z</time>
      </trkpt>
      <trkpt lat="42.92041" lon="16.71605">
        <ele>24</ele>
        <time>2016-07-11T13:12:06Z</time>
      </trkpt>
      <trkpt lat="42.92039" lon="16.71628">
        <ele>25</ele>
        <time>2016-07-11T13:14:06Z</time>
      </trkpt>
      <trkpt lat="42.92037" lon="16.71648">
        <ele>25</ele>
        <time>2016-07-11T13:16:06Z</time>
      </trkpt>
      <trkpt lat="42.92035" lon="16.71689">
        <ele>25</ele>
        <time>2016-07-11T13:18:06Z</time>
      </trkpt>
      <trkpt lat="42.92034" lon="16.71724">
        <ele>25</ele>
        <time>2016-07-11T13:20:06Z</time>
      </trkpt>
      <trkpt lat="42.92034" lon="16.71751">
        <ele>25</ele>
        <time>2016-07-11T13:22:06Z</time>
      </trkpt>
      <trkpt lat="42.92034" lon="16.7177">
        <ele>24</ele>
        <time>2016-07-11T13:24:06Z</time>
      </trkpt>
      <trkpt lat="42.92035" lon="16.71786">
        <ele>23</ele>
        <time>2016-07-11T13:26:06Z</time>
      </trkpt>
      <trkpt lat="42.92037" lon="16.71801">
        <ele>23</ele>
        <time>2016-07-11T13:28:06Z</time>
      </trkpt>
      <trkpt lat="42.9204" lon="16.71814">
        <ele>23</ele>
        <time>2016-07-11T13:30:06Z</time>
      </trkpt>
      <trkpt lat="42.92042" lon="16.71828">
        <ele>23</ele>
        <time>2016-07-11T13:32:06Z</time>
      </trkpt>
      <trkpt lat="42.92044" lon="16.71846">
        <ele>23</ele>
        <time>2016-07-11T13:34:06Z</time>
      </trkpt>
      <trkpt lat="42.92046" lon="16.71865">
        <ele>22</ele>
        <time>2016-07-11T13:36:06Z</time>
      </trkpt>
      <trkpt lat="42.9205" lon="16.71878">
        <ele>23</ele>
        <time>2016-07-11T13:38:06Z</time>
      </trkpt>
      <trkpt lat="42.92054" lon="16.71896">
        <ele>23</ele>
        <time>2016-07-11T13:40:06Z</time>
      </trkpt>
      <trkpt lat="42.92059" lon="16.71923">
        <ele>23</ele>
        <time>2016-07-11T13:42:06Z</time>
      </trkpt>
      <trkpt lat="42.9206" lon="16.71941">
        <ele>24</ele>
        <time>2016-07-11T13:44:06Z</time>
      </trkpt>
      <trkpt lat="42.92059" lon="16.71953">
        <ele>24</ele>
        <time>2016-07-11T13:46:06Z</time>
      </trkpt>
      <trkpt lat="42.92057" lon="16.71967">
        <ele>24</ele>
        <time>2016-07-11T13:48:06Z</time>
      </trkpt>
      <trkpt lat="42.92052" lon="16.71992">
        <ele>24</ele>
        <time>2016-07-11T13:50:06Z</time>
      </trkpt>
      <trkpt lat="42.92046" lon="16.7203">
        <ele>23</ele>
        <time>2016-07-11T13:52:06Z</time>
      </trkpt>
      <trkpt lat="42.92043" lon="16.7207">
        <ele>24</ele>
        <time>2016-07-11T13:54:06Z</time>
      </trkpt>
      <trkpt lat="42.92038" lon="16.7211">
        <ele>25</ele>
        <time>2016-07-11T13:56:06Z</time>
      </trkpt>
      <trkpt lat="42.92034" lon="16.72152">
        <ele>26</ele>
        <time>2016-07-11T13:58:06Z</time>
      </trkpt>
      <trkpt lat="42.92027" lon="16.72184">
        <ele>26</ele>
        <time>2016-07-11T14:00:06Z</time>
      </trkpt>
      <trkpt lat="42.92017" lon="16.72221">
        <ele>26</ele>
        <time>2016-07-11T14:02:06Z</time>
      </trkpt>
      <trkpt lat="42.92006" lon="16.72259">
        <ele>26</ele>
        <time>2016-07-11T14:04:06Z</time>
      </trkpt>
      <trkpt lat="42.9198" lon="16.72309">
        <ele>26</ele>
        <time>2016-07-11T14:06:06Z</time>
      </trkpt>
      <trkpt lat="42.91957" lon="16.72353">
        <ele>27</ele>
        <time>2016-07-11T14:08:06Z</time>
      </trkpt>
      <trkpt lat="42.91935" lon="16.72393">
        <ele>27</ele>
        <time>2016-07-11T14:10:06Z</time>
      </trkpt>
      <trkpt lat="42.91914" lon="16.72428">
        <ele>25</ele>
        <time>2016-07-11T14:12:06Z</time>
      </trkpt>
      <trkpt lat="42.91896" lon="16.72468">
        <ele>26</ele>
        <time>2016-07-11T14:14:06Z</time>
      </trkpt>
      <trkpt lat="42.9189" lon="16.72484">
        <ele>26</ele>
        <time>2016-07-11T14:16:06Z</time>
      </trkpt>
      <trkpt lat="42.91882" lon="16.72508">
        <ele>27</ele>
        <time>2016-07-11T14:18:06Z</time>
      </trkpt>
      <trkpt lat="42.91858" lon="16.72575">
        <ele>31</ele>
        <time>2016-07-11T14:20:06Z</time>
      </trkpt>
      <trkpt lat="42.91841" lon="16.72631">
        <ele>35</ele>
        <time>2016-07-11T14:22:06Z</time>
      </trkpt>
      <trkpt lat="42.91831" lon="16.72673">
        <ele>38</ele>
        <time>2016-07-11T14:24:06Z</time>
      </trkpt>
      <trkpt lat="42.91831" lon="16.72675">
        <ele>39</ele>
        <time>2016-07-11T14:26:06Z</time>
      </trkpt>
      <trkpt lat="42.91824" lon="16.727">
        <ele>41</ele>
        <time>2016-07-11T14:28:06Z</time>
      </trkpt>
      <trkpt lat="42.91823" lon="16.72707">
        <ele>42</ele>
        <time>2016-07-11T14:30:06Z</time>
      </trkpt>
      <trkpt lat="42.91823" lon="16.72711">
        <ele>43</ele>
        <time>2016-07-11T14:32:06Z</time>
      </trkpt>
      <trkpt lat="42.91824" lon="16.72719">
        <ele>44</ele>
        <time>2016-07-11T14:34:06Z</time>
      </trkpt>
      <trkpt lat="42.91824" lon="16.72719">
        <ele>44</ele>
        <time>2016-07-11T14:36:06Z</time>
      </trkpt>
      <trkpt lat="42.91815" lon="16.7273">
        <ele>44</ele>
        <time>2016-07-11T14:38:06Z</time>
      </trkpt>
      <trkpt lat="42.91782" lon="16.72772">
        <ele>40</ele>
        <time>2016-07-11T14:40:06Z</time>
      </trkpt>
      <trkpt lat="42.91749" lon="16.7282">
        <ele>37</ele>
        <time>2016-07-11T14:42:06Z</time>
      </trkpt>
      <trkpt lat="42.91689" lon="16.72909">
        <ele>32</ele>
        <time>2016-07-11T14:44:06Z</time>
      </trkpt>
      <trkpt lat="42.91685" lon="16.72924">
        <ele>33</ele>
        <time>2016-07-11T14:46:06Z</time>
      </trkpt>
      <trkpt lat="42.91677" lon="16.72937">
        <ele>33</ele>
        <time>2016-07-11T14:48:06Z</time>
      </trkpt>
      <trkpt lat="42.91664" lon="16.72954">
        <ele>31</ele>
        <time>2016-07-11T14:50:06Z</time>
      </trkpt>
      <trkpt lat="42.91634" lon="16.73003">
        <ele>30</ele>
        <time>2016-07-11T14:52:06Z</time>
      </trkpt>
      <trkpt lat="42.91612" lon="16.73047">
        <ele>28</ele>
        <time>2016-07-11T14:54:06Z</time>
      </trkpt>
      <trkpt lat="42.91582" lon="16.73106">
        <ele>24</ele>
        <time>2016-07-11T14:56:06Z</time>
      </trkpt>
      <trkpt lat="42.91543" lon="16.73193">
        <ele>27</ele>
        <time>2016-07-11T14:58:06Z</time>
      </trkpt>
      <trkpt lat="42.91511" lon="16.73248">
        <ele>22</ele>
        <time>2016-07-11T15:00:06Z</time>
      </trkpt>
      <trkpt lat="42.91487" lon="16.7329">
        <ele>19</ele>
        <time>2016-07-11T15:02:06Z</time>
      </trkpt>
      <trkpt lat="42.91462" lon="16.73355">
        <ele>19</ele>
        <time>2016-07-11T15:04:06Z</time>
      </trkpt>
      <trkpt lat="42.91429" lon="16.7345">
        <ele>20</ele>
        <time>2016-07-11T15:06:06Z</time>
      </trkpt>
      <trkpt lat="42.91407" lon="16.73526">
        <ele>20</ele>
        <time>2016-07-11T15:08:06Z</time>
      </trkpt>
      <trkpt lat="42.91382" lon="16.73593">
        <ele>21</ele>
        <time>2016-07-11T15:10:06Z</time>
      </trkpt>
      <trkpt lat="42.91362" lon="16.73652">
        <ele>20</ele>
        <time>2016-07-11T15:12:06Z</time>
      </trkpt>
      <trkpt lat="42.91338" lon="16.73716">
        <ele>17</ele>
        <time>2016-07-11T15:14:06Z</time>
      </trkpt>
      <trkpt lat="42.91309" lon="16.73795">
        <ele>20</ele>
        <time>2016-07-11T15:16:06Z</time>
      </trkpt>
      <trkpt lat="42.91277" lon="16.73883">
        <ele>20</ele>
        <time>2016-07-11T15:18:06Z</time>
      </trkpt>
      <trkpt lat="42.91249" lon="16.73968">
        <ele>15</ele>
        <time>2016-07-11T15:20:06Z</time>
      </trkpt>
      <trkpt lat="42.91236" lon="16.74007">
        <ele>15</ele>
        <time>2016-07-11T15:22:06Z</time>
      </trkpt>
      <trkpt lat="42.91233" lon="16.74035">
        <ele>16</ele>
        <time>2016-07-11T15:24:06Z</time>
      </trkpt>
      <trkpt lat="42.91231" lon="16.74058">
        <ele>17</ele>
        <time>2016-07-11T15:26:06Z</time>
      </trkpt>
      <trkpt lat="42.91224" lon="16.74085">
        <ele>17</ele>
        <time>2016-07-11T15:28:06Z</time>
      </trkpt>
      <trkpt lat="42.91211" lon="16.74122">
        <ele>19</ele>
        <time>2016-07-11T15:30:06Z</time>
      </trkpt>
      <trkpt lat="42.91161" lon="16.74235">
        <ele>19</ele>
        <time>2016-07-11T15:32:06Z</time>
      </trkpt>
      <trkpt lat="42.91086" lon="16.7441">
        <ele>22</ele>
        <time>2016-07-11T15:34:06Z</time>
      </trkpt>
      <trkpt lat="42.91044" lon="16.74511">
        <ele>26</ele>
        <time>2016-07-11T15:36:06Z</time>
      </trkpt>
      <trkpt lat="42.9102" lon="16.74578">
        <ele>24</ele>
        <time>2016-07-11T15:38:06Z</time>
      </trkpt>
      <trkpt lat="42.91005" lon="16.74645">
        <ele>25</ele>
        <time>2016-07-11T15:40:06Z</time>
      </trkpt>
      <trkpt lat="42.90996" lon="16.74706">
        <ele>26</ele>
        <time>2016-07-11T15:42:06Z</time>
      </trkpt>
      <trkpt lat="42.90995" lon="16.74723">
        <ele>26</ele>
        <time>2016-07-11T15:44:06Z</time>
      </trkpt>
      <trkpt lat="42.90995" lon="16.7474">
        <ele>26</ele>
        <time>2016-07-11T15:46:06Z</time>
      </trkpt>
      <trkpt lat="42.90997" lon="16.74771">
        <ele>27</ele>
        <time>2016-07-11T15:48:06Z</time>
      </trkpt>
      <trkpt lat="42.91005" lon="16.74799">
        <ele>28</ele>
        <time>2016-07-11T15:50:06Z</time>
      </trkpt>
      <trkpt lat="42.91022" lon="16.74825">
        <ele>31</ele>
        <time>2016-07-11T15:52:06Z</time>
      </trkpt>
      <trkpt lat="42.91051" lon="16.74844">
        <ele>36</ele>
        <time>2016-07-11T15:54:06Z</time>
      </trkpt>
      <trkpt lat="42.91074" lon="16.7485">
        <ele>41</ele>
        <time>2016-07-11T15:56:06Z</time>
      </trkpt>
      <trkpt lat="42.91113" lon="16.74856">
        <ele>47</ele>
        <time>2016-07-11T15:58:06Z</time>
      </trkpt>
      <trkpt lat="42.9118" lon="16.74867">
        <ele>56</ele>
        <time>2016-07-11T16:00:06Z</time>
      </trkpt>
      <trkpt lat="42.912" lon="16.7487">
        <ele>59</ele>
        <time>2016-07-11T16:02:06Z</time>
      </trkpt>
      <trkpt lat="42.91205" lon="16.74873">
        <ele>59</ele>
        <time>2016-07-11T16:04:06Z</time>
      </trkpt>
      <trkpt lat="42.91207" lon="16.74877">
        <ele>60</ele>
        <time>2016-07-11T16:06:06Z</time>
      </trkpt>
      <trkpt lat="42.91206" lon="16.74883">
        <ele>60</ele>
        <time>2016-07-11T16:08:06Z</time>
      </trkpt>
      <trkpt lat="42.91203" lon="16.74888">
        <ele>59</ele>
        <time>2016-07-11T16:10:06Z</time>
      </trkpt>
      <trkpt lat="42.91197" lon="16.74894">
        <ele>58</ele>
        <time>2016-07-11T16:12:06Z</time>
      </trkpt>
      <trkpt lat="42.91187" lon="16.74899">
        <ele>57</ele>
        <time>2016-07-11T16:14:06Z</time>
      </trkpt>
      <trkpt lat="42.9115" lon="16.74912">
        <ele>51</ele>
        <time>2016-07-11T16:16:06Z</time>
      </trkpt>
      <trkpt lat="42.91091" lon="16.74943">
        <ele>48</ele>
        <time>2016-07-11T16:18:06Z</time>
      </trkpt>
      <trkpt lat="42.91044" lon="16.74975">
        <ele>45</ele>
        <time>2016-07-11T16:20:06Z</time>
      </trkpt>
      <trkpt lat="42.9101" lon="16.74998">
        <ele>42</ele>
        <time>2016-07-11T16:22:06Z</time>
      </trkpt>
      <trkpt lat="42.90981" lon="16.75027">
        <ele>41</ele>
        <time>2016-07-11T16:24:06Z</time>
      </trkpt>
      <trkpt lat="42.90955" lon="16.75064">
        <ele>41</ele>
        <time>2016-07-11T16:26:06Z</time>
      </trkpt>
      <trkpt lat="42.90929" lon="16.7511">
        <ele>40</ele>
        <time>2016-07-11T16:28:06Z</time>
      </trkpt>
      <trkpt lat="42.90906" lon="16.75155">
        <ele>37</ele>
        <time>2016-07-11T16:30:06Z</time>
      </trkpt>
      <trkpt lat="42.90887" lon="16.75198">
        <ele>35</ele>
        <time>2016-07-11T16:32:06Z</time>
      </trkpt>
      <trkpt lat="42.90879" lon="16.75233">
        <ele>36</ele>
        <time>2016-07-11T16:34:06Z</time>
      </trkpt>
      <trkpt lat="42.90872" lon="16.75275">
        <ele>37</ele>
        <time>2016-07-11T16:36:06Z</time>
      </trkpt>
      <trkpt lat="42.90866" lon="16.7533">
        <ele>38</ele>
        <time>2016-07-11T16:38:06Z</time>
      </trkpt>
      <trkpt lat="42.90858" lon="16.75379">
        <ele>38</ele>
        <time>2016-07-11T16:40:06Z</time>
      </trkpt>
      <trkpt lat="42.90845" lon="16.75462">
        <ele>39</ele>
        <time>2016-07-11T16:42:06Z</time>
      </trkpt>
      <trkpt lat="42.90831" lon="16.75565">
        <ele>39</ele>
        <time>2016-07-11T16:44:06Z</time>
      </trkpt>
      <trkpt lat="42.90825" lon="16.75647">
        <ele>38</ele>
        <time>2016-07-11T16:46:06Z</time>
      </trkpt>
      <trkpt lat="42.90821" lon="16.75714">
        <ele>37</ele>
        <time>2016-07-11T16:48:06Z</time>
      </trkpt>
      <trkpt lat="42.90818" lon="16.75785">
        <ele>34</ele>
        <time>2016-07-11T16:50:06Z</time>
      </trkpt>
      <trkpt lat="42.90818" lon="16.75812">
        <ele>32</ele>
        <time>2016-07-11T16:52:06Z</time>
      </trkpt>
      <trkpt lat="42.90825" lon="16.75841">
        <ele>33</ele>
        <time>2016-07-11T16:54:06Z</time>
      </trkpt>
      <trkpt lat="42.90835" lon="16.7588">
        <ele>33</ele>
        <time>2016-07-11T16:56:06Z</time>
      </trkpt>
      <trkpt lat="42.90848" lon="16.75918">
        <ele>33</ele>
        <time>2016-07-11T16:58:06Z</time>
      </trkpt>
      <trkpt lat="42.90853" lon="16.75949">
        <ele>33</ele>
        <time>2016-07-11T17:00:06Z</time>
      </trkpt>
      <trkpt lat="42.90854" lon="16.7597">
        <ele>31</ele>
        <time>2016-07-11T17:02:06Z</time>
      </trkpt>
      <trkpt lat="42.90855" lon="16.76002">
        <ele>29</ele>
        <time>2016-07-11T17:04:06Z</time>
      </trkpt>
      <trkpt lat="42.90859" lon="16.76049">
        <ele>28</ele>
        <time>2016-07-11T17:06:06Z</time>
      </trkpt>
      <trkpt lat="42.9087" lon="16.76092">
        <ele>28</ele>
        <time>2016-07-11T17:08:06Z</time>
      </trkpt>
      <trkpt lat="42.90895" lon="16.76153">
        <ele>27</ele>
        <time>2016-07-11T17:10:06Z</time>
      </trkpt>
      <trkpt lat="42.90943" lon="16.7624">
        <ele>30</ele>
        <time>2016-07-11T17:12:06Z</time>
      </trkpt>
      <trkpt lat="42.90959" lon="16.76267">
        <ele>33</ele>
        <time>2016-07-11T17:14:06Z</time>
      </trkpt>
      <trkpt lat="42.90961" lon="16.76278">
        <ele>33</ele>
        <time>2016-07-11T17:16:06Z</time>
      </trkpt>
      <trkpt lat="42.90962" lon="16.76292">
        <ele>32</ele>
        <time>2016-07-11T17:18:06Z</time>
      </trkpt>
      <trkpt lat="42.90959" lon="16.76302">
        <ele>32</ele>
        <time>2016-07-11T17:20:06Z</time>
      </trkpt>
      <trkpt lat="42.90953" lon="16.76306">
        <ele>31</ele>
        <time>2016-07-11T17:22:06Z</time>
      </trkpt>
      <trkpt lat="42.90942" lon="16.76308">
        <ele>29</ele>
        <time>2016-07-11T17:24:06Z</time>
      </trkpt>
      <trkpt lat="42.90927" lon="16.76308">
        <ele>27</ele>
        <time>2016-07-11T17:26:06Z</time>
      </trkpt>
      <trkpt lat="42.90836" lon="16.763">
        <ele>25</ele>
        <time>2016-07-11T17:28:06Z</time>
      </trkpt>
      <trkpt lat="42.90808" lon="16.76301">
        <ele>24</ele>
        <time>2016-07-11T17:30:06Z</time>
      </trkpt>
      <trkpt lat="42.90795" lon="16.76302">
        <ele>23</ele>
        <time>2016-07-11T17:32:06Z</time>
      </trkpt>
      <trkpt lat="42.90786" lon="16.76309">
        <ele>23</ele>
        <time>2016-07-11T17:34:06Z</time>
      </trkpt>
      <trkpt lat="42.90774" lon="16.76318">
        <ele>24</ele>
        <time>2016-07-11T17:36:06Z</time>
      </trkpt>
      <trkpt lat="42.90756" lon="16.76344">
        <ele>26</ele>
        <time>2016-07-11T17:38:06Z</time>
      </trkpt>
      <trkpt lat="42.90741" lon="16.76372">
        <ele>27</ele>
        <time>2016-07-11T17:40:06Z</time>
      </trkpt>
      <trkpt lat="42.90727" lon="16.76408">
        <ele>27</ele>
        <time>2016-07-11T17:42:06Z</time>
      </trkpt>
      <trkpt lat="42.90722" lon="16.76448">
        <ele>28</ele>
        <time>2016-07-11T17:44:06Z</time>
      </trkpt>
      <trkpt lat="42.90719" lon="16.76485">
        <ele>29</ele>
        <time>2016-07-11T17:46:06Z</time>
      </trkpt>
      <trkpt lat="42.90711" lon="16.76561">
        <ele>28</ele>
        <time>2016-07-11T17:48:06Z</time>
      </trkpt>
      <trkpt lat="42.90707" lon="16.76622">
        <ele>28</ele>
        <time>2016-07-11T17:50:06Z</time>
      </trkpt>
      <trkpt lat="42.90709" lon="16.76665">
        <ele>29</ele>
        <time>2016-07-11T17:52:06Z</time>
      </trkpt>
      <trkpt lat="42.90713" lon="16.76702">
        <ele>29</ele>
        <time>2016-07-11T17:54:06Z</time>
      </trkpt>
      <trkpt lat="42.90716" lon="16.7673">
        <ele>28</ele>
        <time>2016-07-11T17:56:06Z</time>
      </trkpt>
      <trkpt lat="42.90723" lon="16.76746">
        <ele>29</ele>
        <time>2016-07-11T17:58:06Z</time>
      </trkpt>
      <trkpt lat="42.90731" lon="16.7676">
        <ele>31</ele>
        <time>2016-07-11T18:00:06Z</time>
      </trkpt>
      <trkpt lat="42.90753" lon="16.76784">
        <ele>35</ele>
        <time>2016-07-11T18:02:06Z</time>
      </trkpt>
      <trkpt lat="42.90774" lon="16.76812">
        <ele>37</ele>
        <time>2016-07-11T18:04:06Z</time>
      </trkpt>
      <trkpt lat="42.90787" lon="16.76834">
        <ele>39</ele>
        <time>2016-07-11T18:06:06Z</time>
      </trkpt>
      <trkpt lat="42.90789" lon="16.76857">
        <ele>39</ele>
        <time>2016-07-11T18:08:06Z</time>
      </trkpt>
      <trkpt lat="42.90789" lon="16.76889">
        <ele>38</ele>
        <time>2016-07-11T18:10:06Z</time>
      </trkpt>
      <trkpt lat="42.90789" lon="16.76931">
        <ele>38</ele>
        <time>2016-07-11T18:12:06Z</time>
      </trkpt>
      <trkpt lat="42.90791" lon="16.76969">
        <ele>37</ele>
        <time>2016-07-11T18:14:06Z</time>
      </trkpt>
      <trkpt lat="42.90798" lon="16.76991">
        <ele>38</ele>
        <time>2016-07-11T18:16:06Z</time>
      </trkpt>
      <trkpt lat="42.90811" lon="16.7701">
        <ele>37</ele>
        <time>2016-07-11T18:18:06Z</time>
      </trkpt>
      <trkpt lat="42.90833" lon="16.77039">
        <ele>34</ele>
        <time>2016-07-11T18:20:06Z</time>
      </trkpt>
      <trkpt lat="42.90866" lon="16.77076">
        <ele>35</ele>
        <time>2016-07-11T18:22:06Z</time>
      </trkpt>
      <trkpt lat="42.90874" lon="16.77088">
        <ele>35</ele>
        <time>2016-07-11T18:24:06Z</time>
      </trkpt>
      <trkpt lat="42.90876" lon="16.77097">
        <ele>36</ele>
        <time>2016-07-11T18:26:06Z</time>
      </trkpt>
      <trkpt lat="42.90876" lon="16.77104">
        <ele>36</ele>
        <time>2016-07-11T18:28:06Z</time>
      </trkpt>
      <trkpt lat="42.90871" lon="16.77113">
        <ele>35</ele>
        <time>2016-07-11T18:30:06Z</time>
      </trkpt>
      <trkpt lat="42.90859" lon="16.77138">
        <ele>31</ele>
        <time>2016-07-11T18:32:06Z</time>
      </trkpt>
      <trkpt lat="42.90832" lon="16.772">
        <ele>24</ele>
        <time>2016-07-11T18:34:06Z</time>
      </trkpt>
      <trkpt lat="42.9082" lon="16.77237">
        <ele>24</ele>
        <time>2016-07-11T18:36:06Z</time>
      </trkpt>
      <trkpt lat="42.90815" lon="16.77259">
        <ele>24</ele>
        <time>2016-07-11T18:38:06Z</time>
      </trkpt>
      <trkpt lat="42.90814" lon="16.77282">
        <ele>24</ele>
        <time>2016-07-11T18:40:06Z</time>
      </trkpt>
      <trkpt lat="42.90815" lon="16.77311">
        <ele>24</ele>
        <time>2016-07-11T18:42:06Z</time>
      </trkpt>
      <trkpt lat="42.90817" lon="16.77329">
        <ele>24</ele>
        <time>2016-07-11T18:44:06Z</time>
      </trkpt>
      <trkpt lat="42.90826" lon="16.77373">
        <ele>23</ele>
        <time>2016-07-11T18:46:06Z</time>
      </trkpt>
      <trkpt lat="42.90837" lon="16.77412">
        <ele>24</ele>
        <time>2016-07-11T18:48:06Z</time>
      </trkpt>
      <trkpt lat="42.90856" lon="16.77478">
        <ele>27</ele>
        <time>2016-07-11T18:50:06Z</time>
      </trkpt>
      <trkpt lat="42.90856" lon="16.77479">
        <ele>27</ele>
        <time>2016-07-11T18:52:06Z</time>
      </trkpt>
      <trkpt lat="42.90864" lon="16.77509">
        <ele>27</ele>
        <time>2016-07-11T18:54:06Z</time>
      </trkpt>
      <trkpt lat="42.90869" lon="16.7753">
        <ele>25</ele>
        <time>2016-07-11T18:56:06Z</time>
      </trkpt>
      <trkpt lat="42.9087" lon="16.77533">
        <ele>25</ele>
        <time>2016-07-11T18:58:06Z</time>
      </trkpt>
      <trkpt lat="42.90872" lon="16.77557">
        <ele>22</ele>
        <time>2016-07-11T19:00:06Z</time>
      </trkpt>
      <trkpt lat="42.9088" lon="16.77579">
        <ele>21</ele>
        <time>2016-07-11T19:02:06Z</time>
      </trkpt>
      <trkpt lat="42.90899" lon="16.77611">
        <ele>23</ele>
        <time>2016-07-11T19:04:06Z</time>
      </trkpt>
      <trkpt lat="42.9092" lon="16.77643">
        <ele>22</ele>
        <time>2016-07-11T19:06:06Z</time>
      </trkpt>
      <trkpt lat="42.90945" lon="16.77666">
        <ele>23</ele>
        <time>2016-07-11T19:08:06Z</time>
      </trkpt>
      <trkpt lat="42.90966" lon="16.7768">
        <ele>25</ele>
        <time>2016-07-11T19:10:06Z</time>
      </trkpt>
      <trkpt lat="42.90996" lon="16.77693">
        <ele>27</ele>
        <time>2016-07-11T19:12:06Z</time>
      </trkpt>
      <trkpt lat="42.91012" lon="16.777">
        <ele>28</ele>
        <time>2016-07-11T19:14:06Z</time>
      </trkpt>
      <trkpt lat="42.91022" lon="16.77709">
        <ele>28</ele>
        <time>2016-07-11T19:16:06Z</time>
      </trkpt>
      <trkpt lat="42.91051" lon="16.77745">
        <ele>23</ele>
        <time>2016-07-11T19:18:06Z</time>
      </trkpt>
      <trkpt lat="42.9107" lon="16.77782">
        <ele>21</ele>
        <time>2016-07-11T19:20:06Z</time>
      </trkpt>
      <trkpt lat="42.91078" lon="16.77799">
        <ele>20</ele>
        <time>2016-07-11T19:22:06Z</time>
      </trkpt>
      <trkpt lat="42.91086" lon="16.77817">
        <ele>18</ele>
        <time>2016-07-11T19:24:06Z</time>
      </trkpt>
      <trkpt lat="42.91086" lon="16.77817">
        <ele>18</ele>
        <time>2016-07-11T19:26:06Z</time>
      </trkpt>
      <trkpt lat="42.91082" lon="16.7782">
        <ele>17</ele>
        <time>2016-07-11T19:28:06Z</time>
      </trkpt>
      <trkpt lat="42.91079" lon="16.7782">
        <ele>17</ele>
        <time>2016-07-11T19:30:06Z</time>
      </trkpt>
      <trkpt lat="42.91072" lon="16.77817">
        <ele>17</ele>
        <time>2016-07-11T19:32:06Z</time>
      </trkpt>
      <trkpt lat="42.91056" lon="16.77803">
        <ele>18</ele>
        <time>2016-07-11T19:34:06Z</time>
      </trkpt>
      <trkpt lat="42.91035" lon="16.77782">
        <ele>18</ele>
        <time>2016-07-11T19:36:06Z</time>
      </trkpt>
      <trkpt lat="42.91014" lon="16.77762">
        <ele>16</ele>
        <time>2016-07-11T19:38:06Z</time>
      </trkpt>
      <trkpt lat="42.90996" lon="16.7775">
        <ele>13</ele>
        <time>2016-07-11T19:40:06Z</time>
      </trkpt>
      <trkpt lat="42.90981" lon="16.77745">
        <ele>13</ele>
        <time>2016-07-11T19:42:06Z</time>
      </trkpt>
      <trkpt lat="42.90969" lon="16.77746">
        <ele>12</ele>
        <time>2016-07-11T19:44:06Z</time>
      </trkpt>
      <trkpt lat="42.9095" lon="16.77748">
        <ele>11</ele>
        <time>2016-07-11T19:46:06Z</time>
      </trkpt>
      <trkpt lat="42.90926" lon="16.77746">
        <ele>10</ele>
        <time>2016-07-11T19:48:06Z</time>
      </trkpt>
      <trkpt lat="42.90908" lon="16.77744">
        <ele>10</ele>
        <time>2016-07-11T19:50:06Z</time>
      </trkpt>
      <trkpt lat="42.90901" lon="16.77743">
        <ele>10</ele>
        <time>2016-07-11T19:52:06Z</time>
      </trkpt>
      <trkpt lat="42.90895" lon="16.77739">
        <ele>10</ele>
        <time>2016-07-11T19:54:06Z</time>
      </trkpt>
      <trkpt lat="42.90891" lon="16.77735">
        <ele>10</ele>
        <time>2016-07-11T19:56:06Z</time>
      </trkpt>
      <trkpt lat="42.90883" lon="16.77721">
        <ele>10</ele>
        <time>2016-07-11T19:58:06Z</time>
      </trkpt>
      <trkpt lat="42.90863" lon="16.77688">
        <ele>8</ele>
        <time>2016-07-11T20:00:06Z</time>
      </trkpt>
      <trkpt lat="42.90862" lon="16.77687">
        <ele>8</ele>
        <time>2016-07-11T20:02:06Z</time>
      </trkpt>
      <trkpt lat="42.90859" lon="16.77685">
        <ele>8</ele>
        <time>2016-07-11T20:04:06Z</time>
      </trkpt>
      <trkpt lat="42.90853" lon="16.77684">
        <ele>7</ele>
        <time>2016-07-11T20:06:06Z</time>
      </trkpt>
      <trkpt lat="42.90847" lon="16.77684">
        <ele>6</ele>
        <time>2016-07-11T20:08:06Z</time>
      </trkpt>
      <trkpt lat="42.90834" lon="16.77685">
        <ele>5</ele>
        <time>2016-07-11T20:10:06Z</time>
      </trkpt>
      <trkpt lat="42.90822" lon="16.7768">
        <ele>5</ele>
        <time>2016-07-11T20:12:06Z</time>
      </trkpt>
      <trkpt lat="42.90819" lon="16.77679">
        <ele>5</ele>
        <time>2016-07-11T20:14:06Z</time>
      </trkpt>
      <trkpt lat="42.90811" lon="16.77674">
        <ele>5</ele>
        <time>2016-07-11T20:16:06Z</time>
      </trkpt>
      <trkpt lat="42.908" lon="16.77665">
        <ele>5</ele>
        <time>2016-07-11T20:18:06Z</time>
      </trkpt>
      <trkpt lat="42.90789" lon="16.77641">
        <ele>5</ele>
        <time>2016-07-11T20:20:06Z</time>
      </trkpt>
      <trkpt lat="42.90779" lon="16.77608">
        <ele>4</ele>
        <time>2016-07-11T20:22:06Z</time>
      </trkpt>
      <trkpt lat="42.9077" lon="16.7759">
        <ele>4</ele>
        <time>2016-07-11T20:24:06Z</time>
      </trkpt>
      <trkpt lat="42.90766" lon="16.77581">
        <ele>4</ele>
        <time>2016-07-11T20:26:06Z</time>
      </trkpt>
      <trkpt lat="42.90761" lon="16.77572">
        <ele>4</ele>
        <time>2016-07-11T20:28:06Z</time>
      </trkpt>
      <trkpt lat="42.90751" lon="16.77563">
        <ele>3</ele>
        <time>2016-07-11T20:30:06Z</time>
      </trkpt>
      <trkpt lat="42.90745" lon="16.77559">
        <ele>3</ele>
        <time>2016-07-11T20:32:06Z</time>
      </trkpt>
      <trkpt lat="42.90738" lon="16.77555">
        <ele>3</ele>
        <time>2016-07-11T20:34:06Z</time>
      </trkpt>
      <trkpt lat="42.90732" lon="16.77554">
        <ele>4</ele>
        <time>2016-07-11T20:36:06Z</time>
      </trkpt>
      <trkpt lat="42.90728" lon="16.77555">
        <ele>4</ele>
        <time>2016-07-11T20:38:06Z</time>
      </trkpt>
      <trkpt lat="42.90725" lon="16.77555">
        <ele>4</ele>
        <time>2016-07-11T20:40:06Z</time>
      </trkpt>
      <trkpt lat="42.90722" lon="16.77558">
        <ele>4</ele>
        <time>2016-07-11T20:42:06Z</time>
      </trkpt>
      <trkpt lat="42.90719" lon="16.77563">
        <ele>5</ele>
        <time>2016-07-11T20:44:06Z</time>
      </trkpt>
      <trkpt lat="42.90717" lon="16.77571">
        <ele>5</ele>
        <time>2016-07-11T20:46:06Z</time>
      </trkpt>
      <trkpt lat="42.90715" lon="16.77581">
        <ele>6</ele>
        <time>2016-07-11T20:48:06Z</time>
      </trkpt>
      <trkpt lat="42.90714" lon="16.77587">
        <ele>6</ele>
        <time>2016-07-11T20:50:06Z</time>
      </trkpt>
      <trkpt lat="42.90714" lon="16.77598">
        <ele>6</ele>
        <time>2016-07-11T20:52:06Z</time>
      </trkpt>
      <trkpt lat="42.90716" lon="16.77614">
        <ele>7</ele>
        <time>2016-07-11T20:54:06Z</time>
      </trkpt>
      <trkpt lat="42.90732" lon="16.77682">
        <ele>9</ele>
        <time>2016-07-11T20:56:06Z</time>
      </trkpt>
      <trkpt lat="42.90737" lon="16.77708">
        <ele>11</ele>
        <time>2016-07-11T20:58:06Z</time>
      </trkpt>
      <trkpt lat="42.90745" lon="16.77729">
        <ele>12</ele>
        <time>2016-07-11T21:00:06Z</time>
      </trkpt>
      <trkpt lat="42.90748" lon="16.77738">
        <ele>12</ele>
        <time>2016-07-11T21:02:06Z</time>
      </trkpt>
      <trkpt lat="42.90752" lon="16.77743">
        <ele>12</ele>
        <time>2016-07-11T21:04:06Z</time>
      </trkpt>
      <trkpt lat="42.90758" lon="16.7775">
        <ele>13</ele>
        <time>2016-07-11T21:06:06Z</time>
      </trkpt>
      <trkpt lat="42.90761" lon="16.77753">
        <ele>13</ele>
        <time>2016-07-11T21:08:06Z</time>
      </trkpt>
      <trkpt lat="42.90764" lon="16.77758">
        <ele>14</ele>
        <time>2016-07-11T21:10:06Z</time>
      </trkpt>
      <trkpt lat="42.90766" lon="16.77766">
        <ele>15</ele>
        <time>2016-07-11T21:12:06Z</time>
      </trkpt>
      <trkpt lat="42.90766" lon="16.77766">
        <ele>15</ele>
        <time>2016-07-11T21:14:06Z</time>
      </trkpt>
      <trkpt lat="42.90764" lon="16.77767">
        <ele>16</ele>
        <time>2016-07-11T21:16:06Z</time>
      </trkpt>
      <trkpt lat="42.90758" lon="16.7777">
        <ele>16</ele>
        <time>2016-07-11T21:18:06Z</time>
      </trkpt>
      <trkpt lat="42.90749" lon="16.77778">
        <ele>18</ele>
        <time>2016-07-11T21:20:06Z</time>
      </trkpt>
      <trkpt lat="42.90742" lon="16.77781">
        <ele>19</ele>
        <time>2016-07-11T21:22:06Z</time>
      </trkpt>
      <trkpt lat="42.90735" lon="16.77781">
        <ele>20</ele>
        <time>2016-07-11T21:24:06Z</time>
      </trkpt>
      <trkpt lat="42.90724" lon="16.77779">
        <ele>21</ele>
        <time>2016-07-11T21:26:06Z</time>
      </trkpt>
      <trkpt lat="42.90709" lon="16.77773">
        <ele>22</ele>
        <time>2016-07-11T21:28:06Z</time>
      </trkpt>
      <trkpt lat="42.90695" lon="16.77766">
        <ele>22</ele>
        <time>2016-07-11T21:30:06Z</time>
      </trkpt>
      <trkpt lat="42.90695" lon="16.77766">
        <ele>22</ele>
        <time>2016-07-11T21:32:06Z</time>
      </trkpt>
      <trkpt lat="42.90646" lon="16.77743">
        <ele>22</ele>
        <time>2016-07-11T21:34:06Z</time>
      </trkpt>
      <trkpt lat="42.90621" lon="16.77732">
        <ele>22</ele>
        <time>2016-07-11T21:36:06Z</time>
      </trkpt>
      <trkpt lat="42.90613" lon="16.7773">
        <ele>23</ele>
        <time>2016-07-11T21:38:06Z</time>
      </trkpt>
      <trkpt lat="42.90608" lon="16.77729">
        <ele>23</ele>
        <time>2016-07-11T21:40:06Z</time>
      </trkpt>
      <trkpt lat="42.90604" lon="16.7773">
        <ele>23</ele>
        <time>2016-07-11T21:42:06Z</time>
      </trkpt>
      <trkpt lat="42.90599" lon="16.77731">
        <ele>24</ele>
        <time>2016-07-11T21:44:06Z</time>
      </trkpt>
      <trkpt lat="42.90597" lon="16.77733">
        <ele>24</ele>
        <time>2016-07-11T21:46:06Z</time>
      </trkpt>
      <trkpt lat="42.90597" lon="16.77733">
        <ele>24</ele>
        <time>2016-07-11T21:48:06Z</time>
      </trkpt>
      <trkpt lat="42.90593" lon="16.77738">
        <ele>24</ele>
        <time>2016-07-11T21:50:06Z</time>
      </trkpt>
      <trkpt lat="42.90591" lon="16.77742">
        <ele>24</ele>
        <time>2016-07-11T21:52:06Z</time>
      </trkpt>
      <trkpt lat="42.90589" lon="16.77752">
        <ele>24</ele>
        <time>2016-07-11T21:54:06Z</time>
      </trkpt>
      <trkpt lat="42.90585" lon="16.77778">
        <ele>25</ele>
        <time>2016-07-11T21:56:06Z</time>
      </trkpt>
      <trkpt lat="42.90576" lon="16.77843">
        <ele>27</ele>
        <time>2016-07-11T21:58:06Z</time>
      </trkpt>
      <trkpt lat="42.90573" lon="16.77881">
        <ele>28</ele>
        <time>2016-07-11T22:00:06Z</time>
      </trkpt>
      <trkpt lat="42.90571" lon="16.7792">
        <ele>30</ele>
        <time>2016-07-11T22:02:06Z</time>
      </trkpt>
      <trkpt lat="42.90569" lon="16.77945">
        <ele>28</ele>
        <time>2016-07-11T22:04:06Z</time>
      </trkpt>
      <trkpt lat="42.9057" lon="16.77964">
        <ele>28</ele>
        <time>2016-07-11T22:06:06Z</time>
      </trkpt>
      <trkpt lat="42.90571" lon="16.7797">
        <ele>28</ele>
        <time>2016-07-11T22:08:06Z</time>
      </trkpt>
      <trkpt lat="42.90573" lon="16.77975">
        <ele>28</ele>
        <time>2016-07-11T22:10:06Z</time>
      </trkpt>
      <trkpt lat="42.90575" lon="16.77979">
        <ele>28</ele>
        <time>2016-07-11T22:12:06Z</time>
      </trkpt>
      <trkpt lat="42.90581" lon="16.77986">
        <ele>28</ele>
        <time>2016-07-11T22:14:06Z</time>
      </trkpt>
      <trkpt lat="42.90612" lon="16.78012">
        <ele>31</ele>
        <time>2016-07-11T22:16:06Z</time>
      </trkpt>
      <trkpt lat="42.90624" lon="16.78025">
        <ele>32</ele>
        <time>2016-07-11T22:18:06Z</time>
      </trkpt>
      <trkpt lat="42.90628" lon="16.78033">
        <ele>33</ele>
        <time>2016-07-11T22:20:06Z</time>
      </trkpt>
      <trkpt lat="42.90629" lon="16.78037">
        <ele>33</ele>
        <time>2016-07-11T22:22:06Z</time>
      </trkpt>
      <trkpt lat="42.9063" lon="16.78042">
        <ele>33</ele>
        <time>2016-07-11T22:24:06Z</time>
      </trkpt>
      <trkpt lat="42.9063" lon="16.78052">
        <ele>33</ele>
        <time>2016-07-11T22:26:06Z</time>
      </trkpt>
      <trkpt lat="42.9063" lon="16.78054">
        <ele>33</ele>
        <time>2016-07-11T22:28:06Z</time>
      </trkpt>
      <trkpt lat="42.90633" lon="16.78116">
        <ele>31</ele>
        <time>2016-07-11T22:30:06Z</time>
      </trkpt>
      <trkpt lat="42.90634" lon="16.7815">
        <ele>30</ele>
        <time>2016-07-11T22:32:06Z</time>
      </trkpt>
      <trkpt lat="42.90642" lon="16.78218">
        <ele>31</ele>
        <time>2016-07-11T22:34:06Z</time>
      </trkpt>
      <trkpt lat="42.90649" lon="16.78267">
        <ele>32</ele>
        <time>2016-07-11T22:36:06Z</time>
      </trkpt>
      <trkpt lat="42.90649" lon="16.78282">
        <ele>32</ele>
        <time>2016-07-11T22:38:06Z</time>
      </trkpt>
      <trkpt lat="42.90648" lon="16.78301">
        <ele>31</ele>
        <time>2016-07-11T22:40:06Z</time>
      </trkpt>
      <trkpt lat="42.90647" lon="16.78312">
        <ele>30</ele>
        <time>2016-07-11T22:42:06Z</time>
      </trkpt>
      <trkpt lat="42.90644" lon="16.78341">
        <ele>29</ele>
        <time>2016-07-11T22:44:06Z</time>
      </trkpt>
      <trkpt lat="42.90639" lon="16.78381">
        <ele>27</ele>
        <time>2016-07-11T22:46:06Z</time>
      </trkpt>
      <trkpt lat="42.90638" lon="16.78426">
        <ele>28</ele>
        <time>2016-07-11T22:48:06Z</time>
      </trkpt>
      <trkpt lat="42.90636" lon="16.78473">
        <ele>27</ele>
        <time>2016-07-11T22:50:06Z</time>
      </trkpt>
      <trkpt lat="42.90637" lon="16.78506">
        <ele>27</ele>
        <time>2016-07-11T22:52:06Z</time>
      </trkpt>
      <trkpt lat="42.90643" lon="16.7857">
        <ele>25</ele>
        <time>2016-07-11T22:54:06Z</time>
      </trkpt>
      <trkpt lat="42.90649" lon="16.786">
        <ele>25</ele>
        <time>2016-07-11T22:56:06Z</time>
      </trkpt>
      <trkpt lat="42.90668" lon="16.78675">
        <ele>25</ele>
        <time>2016-07-11T22:58:06Z</time>
      </trkpt>
      <trkpt lat="42.9068" lon="16.78706">
        <ele>26</ele>
        <time>2016-07-11T23:00:06Z</time>
      </trkpt>
      <trkpt lat="42.90691" lon="16.78733">
        <ele>27</ele>
        <time>2016-07-11T23:02:06Z</time>
      </trkpt>
      <trkpt lat="42.90695" lon="16.78751">
        <ele>26</ele>
        <time>2016-07-11T23:04:06Z</time>
      </trkpt>
      <trkpt lat="42.90696" lon="16.78765">
        <ele>27</ele>
        <time>2016-07-11T23:06:06Z</time>
      </trkpt>
      <trkpt lat="42.90696" lon="16.78782">
        <ele>26</ele>
        <time>2016-07-11T23:08:06Z</time>
      </trkpt>
      <trkpt lat="42.90694" lon="16.78849">
        <ele>26</ele>
        <time>2016-07-11T23:10:06Z</time>
      </trkpt>
      <trkpt lat="42.90692" lon="16.78897">
        <ele>28</ele>
        <time>2016-07-11T23:12:06Z</time>
      </trkpt>
      <trkpt lat="42.90687" lon="16.78936">
        <ele>26</ele>
        <time>2016-07-11T23:14:06Z</time>
      </trkpt>
      <trkpt lat="42.90684" lon="16.78967">
        <ele>25</ele>
        <time>2016-07-11T23:16:06Z</time>
      </trkpt>
      <trkpt lat="42.90679" lon="16.78984">
        <ele>23</ele>
        <time>2016-07-11T23:18:06Z</time>
      </trkpt>
      <trkpt lat="42.90677" lon="16.79">
        <ele>22</ele>
        <time>2016-07-11T23:20:06Z</time>
      </trkpt>
      <trkpt lat="42.90675" lon="16.79016">
        <ele>20</ele>
        <time>2016-07-11T23:22:06Z</time>
      </trkpt>
      <trkpt lat="42.90675" lon="16.79035">
        <ele>19</ele>
        <time>2016-07-11T23:24:06Z</time>
      </trkpt>
      <trkpt lat="42.90675" lon="16.79045">
        <ele>19</ele>
        <time>2016-07-11T23:26:06Z</time>
      </trkpt>
      <trkpt lat="42.90677" lon="16.79057">
        <ele>19</ele>
        <time>2016-07-11T23:28:06Z</time>
      </trkpt>
      <trkpt lat="42.90679" lon="16.79075">
        <ele>19</ele>
        <time>2016-07-11T23:30:06Z</time>
      </trkpt>
      <trkpt lat="42.90684" lon="16.79099">
        <ele>19</ele>
        <time>2016-07-11T23:32:06Z</time>
      </trkpt>
      <trkpt lat="42.90687" lon="16.79122">
        <ele>19</ele>
        <time>2016-07-11T23:34:06Z</time>
      </trkpt>
      <trkpt lat="42.90694" lon="16.79145">
        <ele>20</ele>
        <time>2016-07-11T23:36:06Z</time>
      </trkpt>
      <trkpt lat="42.90702" lon="16.79183">
        <ele>19</ele>
        <time>2016-07-11T23:38:06Z</time>
      </trkpt>
      <trkpt lat="42.90707" lon="16.79215">
        <ele>18</ele>
        <time>2016-07-11T23:40:06Z</time>
      </trkpt>
      <trkpt lat="42.90711" lon="16.79241">
        <ele>18</ele>
        <time>2016-07-11T23:42:06Z</time>
      </trkpt>
      <trkpt lat="42.90713" lon="16.7925">
        <ele>18</ele>
        <time>2016-07-11T23:44:06Z</time>
      </trkpt>
      <trkpt lat="42.90718" lon="16.79281">
        <ele>17</ele>
        <time>2016-07-11T23:46:06Z</time>
      </trkpt>
      <trkpt lat="42.90721" lon="16.79299">
        <ele>17</ele>
        <time>2016-07-11T23:48:06Z</time>
      </trkpt>
      <trkpt lat="42.90729" lon="16.79333">
        <ele>16</ele>
        <time>2016-07-11T23:50:06Z</time>
      </trkpt>
      <trkpt lat="42.90737" lon="16.79358">
        <ele>16</ele>
        <time>2016-07-11T23:52:06Z</time>
      </trkpt>
      <trkpt lat="42.90743" lon="16.79383">
        <ele>15</ele>
        <time>2016-07-11T23:54:06Z</time>
      </trkpt>
      <trkpt lat="42.90744" lon="16.79387">
        <ele>15</ele>
        <time>2016-07-11T23:56:06Z</time>
      </trkpt>
      <trkpt lat="42.90759" lon="16.79431">
        <ele>15</ele>
        <time>2016-07-11T23:58:06Z</time>
      </trkpt>
      <trkpt lat="42.90769" lon="16.79466">
        <ele>17</ele>
        <time>2016-07-12T00:00:06Z</time>
      </trkpt>
      <trkpt lat="42.90784" lon="16.7952">
        <ele>20</ele>
        <time>2016-07-12T00:02:06Z</time>
      </trkpt>
      <trkpt lat="42.90793" lon="16.79547">
        <ele>21</ele>
        <time>2016-07-12T00:04:06Z</time>
      </trkpt>
      <trkpt lat="42.908" lon="16.7957">
        <ele>21</ele>
        <time>2016-07-12T00:06:06Z</time>
      </trkpt>
      <trkpt lat="42.90806" lon="16.79592">
        <ele>21</ele>
        <time>2016-07-12T00:08:06Z</time>
      </trkpt>
      <trkpt lat="42.90808" lon="16.79606">
        <ele>21</ele>
        <time>2016-07-12T00:10:06Z</time>
      </trkpt>
      <trkpt lat="42.90808" lon="16.79616">
        <ele>21</ele>
        <time>2016-07-12T00:12:06Z</time>
      </trkpt>
      <trkpt lat="42.90806" lon="16.79627">
        <ele>20</ele>
        <time>2016-07-12T00:14:06Z</time>
      </trkpt>
      <trkpt lat="42.90801" lon="16.79644">
        <ele>19</ele>
        <time>2016-07-12T00:16:06Z</time>
      </trkpt>
      <trkpt lat="42.908" lon="16.79645">
        <ele>19</ele>
        <time>2016-07-12T00:18:06Z</time>
      </trkpt>
      <trkpt lat="42.90794" lon="16.79661">
        <ele>17</ele>
        <time>2016-07-12T00:20:06Z</time>
      </trkpt>
      <trkpt lat="42.90776" lon="16.79705">
        <ele>14</ele>
        <time>2016-07-12T00:22:06Z</time>
      </trkpt>
      <trkpt lat="42.9076" lon="16.79748">
        <ele>13</ele>
        <time>2016-07-12T00:24:06Z</time>
      </trkpt>
      <trkpt lat="42.90736" lon="16.79809">
        <ele>11</ele>
        <time>2016-07-12T00:26:06Z</time>
      </trkpt>
      <trkpt lat="42.90708" lon="16.79888">
        <ele>8</ele>
        <time>2016-07-12T00:28:06Z</time>
      </trkpt>
      <trkpt lat="42.90694" lon="16.79927">
        <ele>7</ele>
        <time>2016-07-12T00:30:06Z</time>
      </trkpt>
      <trkpt lat="42.90694" lon="16.79927">
        <ele>7</ele>
        <time>2016-07-12T00:32:06Z</time>
      </trkpt>
      <trkpt lat="42.90693" lon="16.79929">
        <ele>7</ele>
        <time>2016-07-12T00:34:06Z</time>
      </trkpt>
      <trkpt lat="42.90685" lon="16.79957">
        <ele>8</ele>
        <time>2016-07-12T00:36:06Z</time>
      </trkpt>
      <trkpt lat="42.9068" lon="16.7998">
        <ele>9</ele>
        <time>2016-07-12T00:38:06Z</time>
      </trkpt>
      <trkpt lat="42.90677" lon="16.79997">
        <ele>10</ele>
        <time>2016-07-12T00:40:06Z</time>
      </trkpt>
      <trkpt lat="42.90672" lon="16.80023">
        <ele>11</ele>
        <time>2016-07-12T00:42:06Z</time>
      </trkpt>
      <trkpt lat="42.90666" lon="16.80052">
        <ele>12</ele>
        <time>2016-07-12T00:44:06Z</time>
      </trkpt>
      <trkpt lat="42.90653" lon="16.80095">
        <ele>14</ele>
        <time>2016-07-12T00:46:06Z</time>
      </trkpt>
      <trkpt lat="42.90635" lon="16.80152">
        <ele>17</ele>
        <time>2016-07-12T00:48:06Z</time>
      </trkpt>
      <trkpt lat="42.90614" lon="16.80228">
        <ele>19</ele>
        <time>2016-07-12T00:50:06Z</time>
      </trkpt>
      <trkpt lat="42.90601" lon="16.8029">
        <ele>20</ele>
        <time>2016-07-12T00:52:06Z</time>
      </trkpt>
      <trkpt lat="42.90596" lon="16.80319">
        <ele>20</ele>
        <time>2016-07-12T00:54:06Z</time>
      </trkpt>
      <trkpt lat="42.90583" lon="16.80373">
        <ele>21</ele>
        <time>2016-07-12T00:56:06Z</time>
      </trkpt>
      <trkpt lat="42.90572" lon="16.80406">
        <ele>21</ele>
        <time>2016-07-12T00:58:06Z</time>
      </trkpt>
      <trkpt lat="42.90552" lon="16.80475">
        <ele>21</ele>
        <time>2016-07-12T01:00:06Z</time>
      </trkpt>
      <trkpt lat="42.9054" lon="16.80506">
        <ele>20</ele>
        <time>2016-07-12T01:02:06Z</time>
      </trkpt>
      <trkpt lat="42.9051" lon="16.80569">
        <ele>16</ele>
        <time>2016-07-12T01:04:06Z</time>
      </trkpt>
      <trkpt lat="42.90493" lon="16.80606">
        <ele>15</ele>
        <time>2016-07-12T01:06:06Z</time>
      </trkpt>
      <trkpt lat="42.90481" lon="16.80637">
        <ele>15</ele>
        <time>2016-07-12T01:08:06Z</time>
      </trkpt>
      <trkpt lat="42.90473" lon="16.80674">
        <ele>15</ele>
        <time>2016-07-12T01:10:06Z</time>
      </trkpt>
      <trkpt lat="42.90466" lon="16.80718">
        <ele>14</ele>
        <time>2016-07-12T01:12:06Z</time>
      </trkpt>
      <trkpt lat="42.90462" lon="16.80755">
        <ele>14</ele>
        <time>2016-07-12T01:14:06Z</time>
      </trkpt>
      <trkpt lat="42.9046" lon="16.80791">
        <ele>14</ele>
        <time>2016-07-12T01:16:06Z</time>
      </trkpt>
      <trkpt lat="42.90461" lon="16.80807">
        <ele>15</ele>
        <time>2016-07-12T01:18:06Z</time>
      </trkpt>
      <trkpt lat="42.90463" lon="16.8082">
        <ele>15</ele>
        <time>2016-07-12T01:20:06Z</time>
      </trkpt>
      <trkpt lat="42.90465" lon="16.80843">
        <ele>16</ele>
        <time>2016-07-12T01:22:06Z</time>
      </trkpt>
      <trkpt lat="42.90469" lon="16.80871">
        <ele>15</ele>
        <time>2016-07-12T01:24:06Z</time>
      </trkpt>
      <trkpt lat="42.90473" lon="16.80885">
        <ele>16</ele>
        <time>2016-07-12T01:26:06Z</time>
      </trkpt>
      <trkpt lat="42.90479" lon="16.80897">
        <ele>16</ele>
        <time>2016-07-12T01:28:06Z</time>
      </trkpt>
      <trkpt lat="42.90492" lon="16.80914">
        <ele>18</ele>
        <time>2016-07-12T01:30:06Z</time>
      </trkpt>
      <trkpt lat="42.90509" lon="16.80936">
        <ele>20</ele>
        <time>2016-07-12T01:32:06Z</time>
      </trkpt>
      <trkpt lat="42.90518" lon="16.80943">
        <ele>22</ele>
        <time>2016-07-12T01:34:06Z</time>
      </trkpt>
      <trkpt lat="42.90531" lon="16.80951">
        <ele>25</ele>
        <time>2016-07-12T01:36:06Z</time>
      </trkpt>
      <trkpt lat="42.90539" lon="16.80962">
        <ele>26</ele>
        <time>2016-07-12T01:38:06Z</time>
      </trkpt>
      <trkpt lat="42.90542" lon="16.80971">
        <ele>26</ele>
        <time>2016-07-12T01:40:06Z</time>
      </trkpt>
      <trkpt lat="42.90542" lon="16.80986">
        <ele>25</ele>
        <time>2016-07-12T01:42:06Z</time>
      </trkpt>
      <trkpt lat="42.90543" lon="16.81">
        <ele>24</ele>
        <time>2016-07-12T01:44:06Z</time>
      </trkpt>
      <trkpt lat="42.90543" lon="16.81021">
        <ele>26</ele>
        <time>2016-07-12T01:46:06Z</time>
      </trkpt>
      <trkpt lat="42.90541" lon="16.81032">
        <ele>26</ele>
        <time>2016-07-12T01:48:06Z</time>
      </trkpt>
      <trkpt lat="42.90538" lon="16.81039">
        <ele>26</ele>
        <time>2016-07-12T01:50:06Z</time>
      </trkpt>
      <trkpt lat="42.90531" lon="16.81047">
        <ele>24</ele>
        <time>2016-07-12T01:52:06Z</time>
      </trkpt>
      <trkpt lat="42.90522" lon="16.81054">
        <ele>22</ele>
        <time>2016-07-12T01:54:06Z</time>
      </trkpt>
      <trkpt lat="42.90515" lon="16.81062">
        <ele>20</ele>
        <time>2016-07-12T01:56:06Z</time>
      </trkpt>
      <trkpt lat="42.90499" lon="16.81086">
        <ele>17</ele>
        <time>2016-07-12T01:58:06Z</time>
      </trkpt>
      <trkpt lat="42.90486" lon="16.81115">
        <ele>19</ele>
        <time>2016-07-12T02:00:06Z</time>
      </trkpt>
      <trkpt lat="42.90474" lon="16.81147">
        <ele>19</ele>
        <time>2016-07-12T02:02:06Z</time>
      </trkpt>
      <trkpt lat="42.90468" lon="16.81169">
        <ele>19</ele>
        <time>2016-07-12T02:04:06Z</time>
      </trkpt>
      <trkpt lat="42.90463" lon="16.81196">
        <ele>20</ele>
        <time>2016-07-12T02:06:06Z</time>
      </trkpt>
      <trkpt lat="42.90459" lon="16.81218">
        <ele>21</ele>
        <time>2016-07-12T02:08:06Z</time>
      </trkpt>
      <trkpt lat="42.90459" lon="16.81227">
        <ele>22</ele>
        <time>2016-07-12T02:10:06Z</time>
      </trkpt>
      <trkpt lat="42.90459" lon="16.81239">
        <ele>24</ele>
        <time>2016-07-12T02:12:06Z</time>
      </trkpt>
      <trkpt lat="42.90459" lon="16.81254">
        <ele>25</ele>
        <time>2016-07-12T02:14:06Z</time>
      </trkpt>
      <trkpt lat="42.90459" lon="16.81273">
        <ele>25</ele>
        <time>2016-07-12T02:16:06Z</time>
      </trkpt>
      <trkpt lat="42.90459" lon="16.81288">
        <ele>25</ele>
        <time>2016-07-12T02:18:06Z</time>
      </trkpt>
      <trkpt lat="42.9046" lon="16.81304">
        <ele>25</ele>
        <time>2016-07-12T02:20:06Z</time>
      </trkpt>
      <trkpt lat="42.9046" lon="16.81333">
        <ele>25</ele>
        <time>2016-07-12T02:22:06Z</time>
      </trkpt>
      <trkpt lat="42.90464" lon="16.81364">
        <ele>22</ele>
        <time>2016-07-12T02:24:06Z</time>
      </trkpt>
      <trkpt lat="42.90469" lon="16.81398">
        <ele>19</ele>
        <time>2016-07-12T02:26:06Z</time>
      </trkpt>
      <trkpt lat="42.90475" lon="16.81412">
        <ele>19</ele>
        <time>2016-07-12T02:28:06Z</time>
      </trkpt>
      <trkpt lat="42.90482" lon="16.81425">
        <ele>20</ele>
        <time>2016-07-12T02:30:06Z</time>
      </trkpt>
      <trkpt lat="42.90507" lon="16.81464">
        <ele>20</ele>
        <time>2016-07-12T02:32:06Z</time>
      </trkpt>
      <trkpt lat="42.90538" lon="16.81504">
        <ele>20</ele>
        <time>2016-07-12T02:34:06Z</time>
      </trkpt>
      <trkpt lat="42.90543" lon="16.81516">
        <ele>21</ele>
        <time>2016-07-12T02:36:06Z</time>
      </trkpt>
      <trkpt lat="42.90545" lon="16.8152">
        <ele>21</ele>
        <time>2016-07-12T02:38:06Z</time>
      </trkpt>
      <trkpt lat="42.90548" lon="16.8154">
        <ele>21</ele>
        <time>2016-07-12T02:40:06Z</time>
      </trkpt>
      <trkpt lat="42.90548" lon="16.81565">
        <ele>20</ele>
        <time>2016-07-12T02:42:06Z</time>
      </trkpt>
      <trkpt lat="42.9055" lon="16.81593">
        <ele>20</ele>
        <time>2016-07-12T02:44:06Z</time>
      </trkpt>
      <trkpt lat="42.90547" lon="16.81653">
        <ele>21</ele>
        <time>2016-07-12T02:46:06Z</time>
      </trkpt>
      <trkpt lat="42.90542" lon="16.81696">
        <ele>23</ele>
        <time>2016-07-12T02:48:06Z</time>
      </trkpt>
      <trkpt lat="42.90528" lon="16.81754">
        <ele>22</ele>
        <time>2016-07-12T02:50:06Z</time>
      </trkpt>
      <trkpt lat="42.90513" lon="16.81799">
        <ele>21</ele>
        <time>2016-07-12T02:52:06Z</time>
      </trkpt>
      <trkpt lat="42.90494" lon="16.81875">
        <ele>21</ele>
        <time>2016-07-12T02:54:06Z</time>
      </trkpt>
      <trkpt lat="42.90487" lon="16.81912">
        <ele>22</ele>
        <time>2016-07-12T02:56:06Z</time>
      </trkpt>
      <trkpt lat="42.90477" lon="16.81956">
        <ele>22</ele>
        <time>2016-07-12T02:58:06Z</time>
      </trkpt>
      <trkpt lat="42.9047" lon="16.81998">
        <ele>24</ele>
        <time>2016-07-12T03:00:06Z</time>
      </trkpt>
      <trkpt lat="42.90462" lon="16.8204">
        <ele>24</ele>
        <time>2016-07-12T03:02:06Z</time>
      </trkpt>
      <trkpt lat="42.90453" lon="16.8208">
        <ele>23</ele>
        <time>2016-07-12T03:04:06Z</time>
      </trkpt>
      <trkpt lat="42.90445" lon="16.82125">
        <ele>24</ele>
        <time>2016-07-12T03:06:06Z</time>
      </trkpt>
      <trkpt lat="42.90438" lon="16.82157">
        <ele>24</ele>
        <time>2016-07-12T03:08:06Z</time>
      </trkpt>
      <trkpt lat="42.90438" lon="16.82157">
        <ele>24</ele>
        <time>2016-07-12T03:10:06Z</time>
      </trkpt>
      <trkpt lat="42.90436" lon="16.8217">
        <ele>25</ele>
        <time>2016-07-12T03:12:06Z</time>
      </trkpt>
      <trkpt lat="42.90423" lon="16.82221">
        <ele>21</ele>
        <time>2016-07-12T03:14:06Z</time>
      </trkpt>
      <trkpt lat="42.90418" lon="16.82251">
        <ele>21</ele>
        <time>2016-07-12T03:16:06Z</time>
      </trkpt>
      <trkpt lat="42.90418" lon="16.82258">
        <ele>21</ele>
        <time>2016-07-12T03:18:06Z</time>
      </trkpt>
      <trkpt lat="42.90417" lon="16.82288">
        <ele>21</ele>
        <time>2016-07-12T03:20:06Z</time>
      </trkpt>
      <trkpt lat="42.90418" lon="16.82322">
        <ele>21</ele>
        <time>2016-07-12T03:22:06Z</time>
      </trkpt>
      <trkpt lat="42.90422" lon="16.82364">
        <ele>22</ele>
        <time>2016-07-12T03:24:06Z</time>
      </trkpt>
      <trkpt lat="42.90426" lon="16.82388">
        <ele>23</ele>
        <time>2016-07-12T03:26:06Z</time>
      </trkpt>
      <trkpt lat="42.90439" lon="16.8245">
        <ele>27</ele>
        <time>2016-07-12T03:28:06Z</time>
      </trkpt>
      <trkpt lat="42.90457" lon="16.82517">
        <ele>30</ele>
        <time>2016-07-12T03:30:06Z</time>
      </trkpt>
      <trkpt lat="42.9047" lon="16.82561">
        <ele>28</ele>
        <time>2016-07-12T03:32:06Z</time>
      </trkpt>
      <trkpt lat="42.90486" lon="16.82612">
        <ele>29</ele>
        <time>2016-07-12T03:34:06Z</time>
      </trkpt>
      <trkpt lat="42.90494" lon="16.82639">
        <ele>31</ele>
        <time>2016-07-12T03:36:06Z</time>
      </trkpt>
      <trkpt lat="42.90496" lon="16.82649">
        <ele>31</ele>
        <time>2016-07-12T03:38:06Z</time>
      </trkpt>
      <trkpt lat="42.90497" lon="16.82657">
        <ele>31</ele>
        <time>2016-07-12T03:40:06Z</time>
      </trkpt>
      <trkpt lat="42.90496" lon="16.82669">
        <ele>31</ele>
        <time>2016-07-12T03:42:06Z</time>
      </trkpt>
      <trkpt lat="42.90493" lon="16.8269">
        <ele>30</ele>
        <time>2016-07-12T03:44:06Z</time>
      </trkpt>
      <trkpt lat="42.90484" lon="16.82727">
        <ele>28</ele>
        <time>2016-07-12T03:46:06Z</time>
      </trkpt>
      <trkpt lat="42.90476" lon="16.82783">
        <ele>28</ele>
        <time>2016-07-12T03:48:06Z</time>
      </trkpt>
      <trkpt lat="42.90469" lon="16.82841">
        <ele>28</ele>
        <time>2016-07-12T03:50:06Z</time>
      </trkpt>
      <trkpt lat="42.90464" lon="16.82889">
        <ele>30</ele>
        <time>2016-07-12T03:52:06Z</time>
      </trkpt>
      <trkpt lat="42.90459" lon="16.82948">
        <ele>29</ele>
        <time>2016-07-12T03:54:06Z</time>
      </trkpt>
      <trkpt lat="42.90457" lon="16.82978">
        <ele>27</ele>
        <time>2016-07-12T03:56:06Z</time>
      </trkpt>
      <trkpt lat="42.90457" lon="16.83004">
        <ele>27</ele>
        <time>2016-07-12T03:58:06Z</time>
      </trkpt>
      <trkpt lat="42.90459" lon="16.83036">
        <ele>26</ele>
        <time>2016-07-12T04:00:06Z</time>
      </trkpt>
      <trkpt lat="42.90463" lon="16.8307">
        <ele>26</ele>
        <time>2016-07-12T04:02:06Z</time>
      </trkpt>
      <trkpt lat="42.90469" lon="16.83094">
        <ele>27</ele>
        <time>2016-07-12T04:04:06Z</time>
      </trkpt>
      <trkpt lat="42.90484" lon="16.83131">
        <ele>28</ele>
        <time>2016-07-12T04:06:06Z</time>
      </trkpt>
      <trkpt lat="42.90507" lon="16.83178">
        <ele>33</ele>
        <time>2016-07-12T04:08:06Z</time>
      </trkpt>
      <trkpt lat="42.90518" lon="16.83196">
        <ele>38</ele>
        <time>2016-07-12T04:10:06Z</time>
      </trkpt>
      <trkpt lat="42.90522" lon="16.83205">
        <ele>40</ele>
        <time>2016-07-12T04:12:06Z</time>
      </trkpt>
      <trkpt lat="42.90523" lon="16.8321">
        <ele>40</ele>
        <time>2016-07-12T04:14:06Z</time>
      </trkpt>
      <trkpt lat="42.90522" lon="16.83215">
        <ele>40</ele>
        <time>2016-07-12T04:16:06Z</time>
      </trkpt>
      <trkpt lat="42.90518" lon="16.83223">
        <ele>39</ele>
        <time>2016-07-12T04:18:06Z</time>
      </trkpt>
      <trkpt lat="42.90511" lon="16.83228">
        <ele>37</ele>
        <time>2016-07-12T04:20:06Z</time>
      </trkpt>
      <trkpt lat="42.90471" lon="16.83252">
        <ele>28</ele>
        <time>2016-07-12T04:22:06Z</time>
      </trkpt>
      <trkpt lat="42.90447" lon="16.83267">
        <ele>25</ele>
        <time>2016-07-12T04:24:06Z</time>
      </trkpt>
      <trkpt lat="42.90431" lon="16.83283">
        <ele>25</ele>
        <time>2016-07-12T04:26:06Z</time>
      </trkpt>
      <trkpt lat="42.90416" lon="16.83303">
        <ele>26</ele>
        <time>2016-07-12T04:28:06Z</time>
      </trkpt>
      <trkpt lat="42.90378" lon="16.8335">
        <ele>29</ele>
        <time>2016-07-12T04:30:06Z</time>
      </trkpt>
      <trkpt lat="42.90361" lon="16.83375">
        <ele>28</ele>
        <time>2016-07-12T04:32:06Z</time>
      </trkpt>
      <trkpt lat="42.9034" lon="16.83414">
        <ele>26</ele>
        <time>2016-07-12T04:34:06Z</time>
      </trkpt>
      <trkpt lat="42.90331" lon="16.83436">
        <ele>24</ele>
        <time>2016-07-12T04:36:06Z</time>
      </trkpt>
      <trkpt lat="42.90325" lon="16.83458">
        <ele>24</ele>
        <time>2016-07-12T04:38:06Z</time>
      </trkpt>
      <trkpt lat="42.90321" lon="16.83493">
        <ele>25</ele>
        <time>2016-07-12T04:40:06Z</time>
      </trkpt>
      <trkpt lat="42.90321" lon="16.83515">
        <ele>25</ele>
        <time>2016-07-12T04:42:06Z</time>
      </trkpt>
      <trkpt lat="42.90324" lon="16.83558">
        <ele>25</ele>
        <time>2016-07-12T04:44:06Z</time>
      </trkpt>
      <trkpt lat="42.90329" lon="16.83589">
        <ele>26</ele>
        <time>2016-07-12T04:46:06Z</time>
      </trkpt>
      <trkpt lat="42.90334" lon="16.8362">
        <ele>26</ele>
        <time>2016-07-12T04:48:06Z</time>
      </trkpt>
      <trkpt lat="42.90339" lon="16.83646">
        <ele>26</ele>
        <time>2016-07-12T04:50:06Z</time>
      </trkpt>
      <trkpt lat="42.90345" lon="16.83675">
        <ele>27</ele>
        <time>2016-07-12T04:52:06Z</time>
      </trkpt>
      <trkpt lat="42.90354" lon="16.83719">
        <ele>29</ele>
        <time>2016-07-12T04:54:06Z</time>
      </trkpt>
      <trkpt lat="42.9036" lon="16.83766">
        <ele>29</ele>
        <time>2016-07-12T04:56:06Z</time>
      </trkpt>
      <trkpt lat="42.90363" lon="16.8379">
        <ele>29</ele>
        <time>2016-07-12T04:58:06Z</time>
      </trkpt>
      <trkpt lat="42.90369" lon="16.83844">
        <ele>29</ele>
        <time>2016-07-12T05:00:06Z</time>
      </trkpt>
      <trkpt lat="42.90374" lon="16.83934">
        <ele>27</ele>
        <time>2016-07-12T05:02:06Z</time>
      </trkpt>
      <trkpt lat="42.90381" lon="16.84026">
        <ele>26</ele>
        <time>2016-07-12T05:04:06Z</time>
      </trkpt>
      <trkpt lat="42.90388" lon="16.8408">
        <ele>27</ele>
        <time>2016-07-12T05:06:06Z</time>
      </trkpt>
      <trkpt lat="42.90389" lon="16.84095">
        <ele>25</ele>
        <time>2016-07-12T05:08:06Z</time>
      </trkpt>
      <trkpt lat="42.90394" lon="16.84131">
        <ele>23</ele>
        <time>2016-07-12T05:10:06Z</time>
      </trkpt>
      <trkpt lat="42.90399" lon="16.84158">
        <ele>22</ele>
        <time>2016-07-12T05:12:06Z</time>
      </trkpt>
      <trkpt lat="42.90405" lon="16.84183">
        <ele>22</ele>
        <time>2016-07-12T05:14:06Z</time>
      </trkpt>
      <trkpt lat="42.90419" lon="16.84212">
        <ele>22</ele>
        <time>2016-07-12T05:16:06Z</time>
      </trkpt>
      <trkpt lat="42.90429" lon="16.84227">
        <ele>24</ele>
        <time>2016-07-12T05:18:06Z</time>
      </trkpt>
      <trkpt lat="42.90447" lon="16.84247">
        <ele>25</ele>
        <time>2016-07-12T05:20:06Z</time>
      </trkpt>
      <trkpt lat="42.9048" lon="16.84278">
        <ele>30</ele>
        <time>2016-07-12T05:22:06Z</time>
      </trkpt>
      <trkpt lat="42.90501" lon="16.84293">
        <ele>34</ele>
        <time>2016-07-12T05:24:06Z</time>
      </trkpt>
      <trkpt lat="42.9051" lon="16.84303">
        <ele>35</ele>
        <time>2016-07-12T05:26:06Z</time>
      </trkpt>
      <trkpt lat="42.90514" lon="16.84308">
        <ele>35</ele>
        <time>2016-07-12T05:28:06Z</time>
      </trkpt>
      <trkpt lat="42.90516" lon="16.84313">
        <ele>35</ele>
        <time>2016-07-12T05:30:06Z</time>
      </trkpt>
      <trkpt lat="42.90515" lon="16.84316">
        <ele>35</ele>
        <time>2016-07-12T05:32:06Z</time>
      </trkpt>
      <trkpt lat="42.90513" lon="16.8432">
        <ele>34</ele>
        <time>2016-07-12T05:34:06Z</time>
      </trkpt>
      <trkpt lat="42.90506" lon="16.84325">
        <ele>32</ele>
        <time>2016-07-12T05:36:06Z</time>
      </trkpt>
      <trkpt lat="42.90499" lon="16.84328">
        <ele>30</ele>
        <time>2016-07-12T05:38:06Z</time>
      </trkpt>
      <trkpt lat="42.90489" lon="16.84332">
        <ele>28</ele>
        <time>2016-07-12T05:40:06Z</time>
      </trkpt>
      <trkpt lat="42.90474" lon="16.84338">
        <ele>27</ele>
        <time>2016-07-12T05:42:06Z</time>
      </trkpt>
      <trkpt lat="42.90429" lon="16.84351">
        <ele>22</ele>
        <time>2016-07-12T05:44:06Z</time>
      </trkpt>
      <trkpt lat="42.90418" lon="16.84358">
        <ele>21</ele>
        <time>2016-07-12T05:46:06Z</time>
      </trkpt>
      <trkpt lat="42.90408" lon="16.84367">
        <ele>20</ele>
        <time>2016-07-12T05:48:06Z</time>
      </trkpt>
      <trkpt lat="42.90397" lon="16.84379">
        <ele>19</ele>
        <time>2016-07-12T05:50:06Z</time>
      </trkpt>
      <trkpt lat="42.90392" lon="16.8439">
        <ele>20</ele>
        <time>2016-07-12T05:52:06Z</time>
      </trkpt>
      <trkpt lat="42.9039" lon="16.84401">
        <ele>21</ele>
        <time>2016-07-12T05:54:06Z</time>
      </trkpt>
      <trkpt lat="42.90387" lon="16.84423">
        <ele>22</ele>
        <time>2016-07-12T05:56:06Z</time>
      </trkpt>
      <trkpt lat="42.90386" lon="16.84443">
        <ele>22</ele>
        <time>2016-07-12T05:58:06Z</time>
      </trkpt>
      <trkpt lat="42.90388" lon="16.84467">
        <ele>22</ele>
        <time>2016-07-12T06:00:06Z</time>
      </trkpt>
      <trkpt lat="42.90394" lon="16.84495">
        <ele>23</ele>
        <time>2016-07-12T06:02:06Z</time>
      </trkpt>
      <trkpt lat="42.904" lon="16.84521">
        <ele>23</ele>
        <time>2016-07-12T06:04:06Z</time>
      </trkpt>
      <trkpt lat="42.90411" lon="16.84557">
        <ele>23</ele>
        <time>2016-07-12T06:06:06Z</time>
      </trkpt>
      <trkpt lat="42.9042" lon="16.84579">
        <ele>23</ele>
        <time>2016-07-12T06:08:06Z</time>
      </trkpt>
      <trkpt lat="42.90442" lon="16.84617">
        <ele>23</ele>
        <time>2016-07-12T06:10:06Z</time>
      </trkpt>
      <trkpt lat="42.90459" lon="16.84639">
        <ele>23</ele>
        <time>2016-07-12T06:12:06Z</time>
      </trkpt>
      <trkpt lat="42.90486" lon="16.84669">
        <ele>21</ele>
        <time>2016-07-12T06:14:06Z</time>
      </trkpt>
      <trkpt lat="42.905" lon="16.8468">
        <ele>19</ele>
        <time>2016-07-12T06:16:06Z</time>
      </trkpt>
      <trkpt lat="42.90518" lon="16.84686">
        <ele>20</ele>
        <time>2016-07-12T06:18:06Z</time>
      </trkpt>
      <trkpt lat="42.90551" lon="16.84691">
        <ele>22</ele>
        <time>2016-07-12T06:20:06Z</time>
      </trkpt>
      <trkpt lat="42.90572" lon="16.84692">
        <ele>25</ele>
        <time>2016-07-12T06:22:06Z</time>
      </trkpt>
      <trkpt lat="42.90585" lon="16.84692">
        <ele>26</ele>
        <time>2016-07-12T06:24:06Z</time>
      </trkpt>
      <trkpt lat="42.90594" lon="16.84694">
        <ele>29</ele>
        <time>2016-07-12T06:26:06Z</time>
      </trkpt>
      <trkpt lat="42.90601" lon="16.84699">
        <ele>30</ele>
        <time>2016-07-12T06:28:06Z</time>
      </trkpt>
      <trkpt lat="42.90606" lon="16.84707">
        <ele>29</ele>
        <time>2016-07-12T06:30:06Z</time>
      </trkpt>
      <trkpt lat="42.90618" lon="16.84736">
        <ele>26</ele>
        <time>2016-07-12T06:32:06Z</time>
      </trkpt>
      <trkpt lat="42.90628" lon="16.84753">
        <ele>25</ele>
        <time>2016-07-12T06:34:06Z</time>
      </trkpt>
      <trkpt lat="42.90639" lon="16.8477">
        <ele>27</ele>
        <time>2016-07-12T06:36:06Z</time>
      </trkpt>
      <trkpt lat="42.90647" lon="16.84786">
        <ele>29</ele>
        <time>2016-07-12T06:38:06Z</time>
      </trkpt>
      <trkpt lat="42.90652" lon="16.84794">
        <ele>30</ele>
        <time>2016-07-12T06:40:06Z</time>
      </trkpt>
      <trkpt lat="42.90654" lon="16.84804">
        <ele>30</ele>
        <time>2016-07-12T06:42:06Z</time>
      </trkpt>
      <trkpt lat="42.90655" lon="16.84812">
        <ele>29</ele>
        <time>2016-07-12T06:44:06Z</time>
      </trkpt>
      <trkpt lat="42.90655" lon="16.84821">
        <ele>29</ele>
        <time>2016-07-12T06:46:06Z</time>
      </trkpt>
      <trkpt lat="42.90652" lon="16.8483">
        <ele>27</ele>
        <time>2016-07-12T06:48:06Z</time>
      </trkpt>
      <trkpt lat="42.90649" lon="16.84839">
        <ele>26</ele>
        <time>2016-07-12T06:50:06Z</time>
      </trkpt>
      <trkpt lat="42.90648" lon="16.84848">
        <ele>25</ele>
        <time>2016-07-12T06:52:06Z</time>
      </trkpt>
      <trkpt lat="42.90647" lon="16.84859">
        <ele>25</ele>
        <time>2016-07-12T06:54:06Z</time>
      </trkpt>
      <trkpt lat="42.90647" lon="16.8487">
        <ele>24</ele>
        <time>2016-07-12T06:56:06Z</time>
      </trkpt>
      <trkpt lat="42.90648" lon="16.84894">
        <ele>24</ele>
        <time>2016-07-12T06:58:06Z</time>
      </trkpt>
      <trkpt lat="42.90651" lon="16.84919">
        <ele>24</ele>
        <time>2016-07-12T07:00:06Z</time>
      </trkpt>
      <trkpt lat="42.90657" lon="16.84946">
        <ele>25</ele>
        <time>2016-07-12T07:02:06Z</time>
      </trkpt>
      <trkpt lat="42.90662" lon="16.84973">
        <ele>26</ele>
        <time>2016-07-12T07:04:06Z</time>
      </trkpt>
      <trkpt lat="42.90674" lon="16.85012">
        <ele>25</ele>
        <time>2016-07-12T07:06:06Z</time>
      </trkpt>
      <trkpt lat="42.90686" lon="16.85039">
        <ele>21</ele>
        <time>2016-07-12T07:08:06Z</time>
      </trkpt>
      <trkpt lat="42.90693" lon="16.85055">
        <ele>19</ele>
        <time>2016-07-12T07:10:06Z</time>
      </trkpt>
      <trkpt lat="42.90698" lon="16.85065">
        <ele>17</ele>
        <time>2016-07-12T07:12:06Z</time>
      </trkpt>
      <trkpt lat="42.90704" lon="16.85071">
        <ele>18</ele>
        <time>2016-07-12T07:14:06Z</time>
      </trkpt>
      <trkpt lat="42.90715" lon="16.85077">
        <ele>20</ele>
        <time>2016-07-12T07:16:06Z</time>
      </trkpt>
      <trkpt lat="42.90754" lon="16.85099">
        <ele>25</ele>
        <time>2016-07-12T07:18:06Z</time>
      </trkpt>
      <trkpt lat="42.90775" lon="16.85114">
        <ele>26</ele>
        <time>2016-07-12T07:20:06Z</time>
      </trkpt>
      <trkpt lat="42.90795" lon="16.85139">
        <ele>24</ele>
        <time>2016-07-12T07:22:06Z</time>
      </trkpt>
      <trkpt lat="42.90803" lon="16.8515">
        <ele>23</ele>
        <time>2016-07-12T07:24:06Z</time>
      </trkpt>
      <trkpt lat="42.90811" lon="16.85168">
        <ele>21</ele>
        <time>2016-07-12T07:26:06Z</time>
      </trkpt>
      <trkpt lat="42.90819" lon="16.85203">
        <ele>19</ele>
        <time>2016-07-12T07:28:06Z</time>
      </trkpt>
      <trkpt lat="42.90823" lon="16.8522">
        <ele>17</ele>
        <time>2016-07-12T07:30:06Z</time>
      </trkpt>
      <trkpt lat="42.9083" lon="16.85231">
        <ele>17</ele>
        <time>2016-07-12T07:32:06Z</time>
      </trkpt>
      <trkpt lat="42.90836" lon="16.85236">
        <ele>17</ele>
        <time>2016-07-12T07:34:06Z</time>
      </trkpt>
      <trkpt lat="42.90841" lon="16.85236">
        <ele>18</ele>
        <time>2016-07-12T07:36:06Z</time>
      </trkpt>
      <trkpt lat="42.90852" lon="16.85234">
        <ele>22</ele>
        <time>2016-07-12T07:38:06Z</time>
      </trkpt>
      <trkpt lat="42.90866" lon="16.85225">
        <ele>26</ele>
        <time>2016-07-12T07:40:06Z</time>
      </trkpt>
      <trkpt lat="42.90881" lon="16.85207">
        <ele>32</ele>
        <time>2016-07-12T07:42:06Z</time>
      </trkpt>
      <trkpt lat="42.90888" lon="16.85201">
        <ele>34</ele>
        <time>2016-07-12T07:44:06Z</time>
      </trkpt>
      <trkpt lat="42.90893" lon="16.85202">
        <ele>35</ele>
        <time>2016-07-12T07:46:06Z</time>
      </trkpt>
      <trkpt lat="42.90896" lon="16.85204">
        <ele>35</ele>
        <time>2016-07-12T07:48:06Z</time>
      </trkpt>
      <trkpt lat="42.90898" lon="16.8521">
        <ele>35</ele>
        <time>2016-07-12T07:50:06Z</time>
      </trkpt>
      <trkpt lat="42.90899" lon="16.85227">
        <ele>34</ele>
        <time>2016-07-12T07:52:06Z</time>
      </trkpt>
      <trkpt lat="42.909" lon="16.85277">
        <ele>32</ele>
        <time>2016-07-12T07:54:06Z</time>
      </trkpt>
      <trkpt lat="42.909" lon="16.85278">
        <ele>32</ele>
        <time>2016-07-12T07:56:06Z</time>
      </trkpt>
      <trkpt lat="42.90898" lon="16.85304">
        <ele>31</ele>
        <time>2016-07-12T07:58:06Z</time>
      </trkpt>
      <trkpt lat="42.9089" lon="16.85344">
        <ele>28</ele>
        <time>2016-07-12T08:00:06Z</time>
      </trkpt>
      <trkpt lat="42.90887" lon="16.85386">
        <ele>26</ele>
        <time>2016-07-12T08:02:06Z</time>
      </trkpt>
      <trkpt lat="42.90887" lon="16.85407">
        <ele>25</ele>
        <time>2016-07-12T08:04:06Z</time>
      </trkpt>
      <trkpt lat="42.90888" lon="16.85427">
        <ele>25</ele>
        <time>2016-07-12T08:06:06Z</time>
      </trkpt>
      <trkpt lat="42.90893" lon="16.85463">
        <ele>23</ele>
        <time>2016-07-12T08:08:06Z</time>
      </trkpt>
      <trkpt lat="42.909" lon="16.85483">
        <ele>24</ele>
        <time>2016-07-12T08:10:06Z</time>
      </trkpt>
      <trkpt lat="42.90906" lon="16.85502">
        <ele>24</ele>
        <time>2016-07-12T08:12:06Z</time>
      </trkpt>
      <trkpt lat="42.90916" lon="16.85534">
        <ele>22</ele>
        <time>2016-07-12T08:14:06Z</time>
      </trkpt>
      <trkpt lat="42.90925" lon="16.85561">
        <ele>22</ele>
        <time>2016-07-12T08:16:06Z</time>
      </trkpt>
      <trkpt lat="42.90944" lon="16.85618">
        <ele>23</ele>
        <time>2016-07-12T08:18:06Z</time>
      </trkpt>
      <trkpt lat="42.90953" lon="16.85644">
        <ele>24</ele>
        <time>2016-07-12T08:20:06Z</time>
      </trkpt>
      <trkpt lat="42.90972" lon="16.8568">
        <ele>26</ele>
        <time>2016-07-12T08:22:06Z</time>
      </trkpt>
      <trkpt lat="42.90984" lon="16.85704">
        <ele>25</ele>
        <time>2016-07-12T08:24:06Z</time>
      </trkpt>
      <trkpt lat="42.91016" lon="16.85758">
        <ele>26</ele>
        <time>2016-07-12T08:26:06Z</time>
      </trkpt>
      <trkpt lat="42.91045" lon="16.85813">
        <ele>27</ele>
        <time>2016-07-12T08:28:06Z</time>
      </trkpt>
      <trkpt lat="42.91057" lon="16.85838">
        <ele>25</ele>
        <time>2016-07-12T08:30:06Z</time>
      </trkpt>
      <trkpt lat="42.91068" lon="16.8586">
        <ele>26</ele>
        <time>2016-07-12T08:32:06Z</time>
      </trkpt>
      <trkpt lat="42.91074" lon="16.85887">
        <ele>24</ele>
        <time>2016-07-12T08:34:06Z</time>
      </trkpt>
      <trkpt lat="42.91075" lon="16.85906">
        <ele>22</ele>
        <time>2016-07-12T08:36:06Z</time>
      </trkpt>
      <trkpt lat="42.91078" lon="16.85918">
        <ele>21</ele>
        <time>2016-07-12T08:38:06Z</time>
      </trkpt>
      <trkpt lat="42.91083" lon="16.85932">
        <ele>21</ele>
        <time>2016-07-12T08:40:06Z</time>
      </trkpt>
      <trkpt lat="42.91084" lon="16.85944">
        <ele>21</ele>
        <time>2016-07-12T08:42:06Z</time>
      </trkpt>
      <trkpt lat="42.91085" lon="16.85953">
        <ele>22</ele>
        <time>2016-07-12T08:44:06Z</time>
      </trkpt>
      <trkpt lat="42.91084" lon="16.85962">
        <ele>21</ele>
        <time>2016-07-12T08:46:06Z</time>
      </trkpt>
      <trkpt lat="42.91082" lon="16.85967">
        <ele>21</ele>
        <time>2016-07-12T08:48:06Z</time>
      </trkpt>
      <trkpt lat="42.91076" lon="16.85972">
        <ele>22</ele>
        <time>2016-07-12T08:50:06Z</time>
      </trkpt>
      <trkpt lat="42.91069" lon="16.85973">
        <ele>23</ele>
        <time>2016-07-12T08:52:06Z</time>
      </trkpt>
      <trkpt lat="42.91062" lon="16.85973">
        <ele>24</ele>
        <time>2016-07-12T08:54:06Z</time>
      </trkpt>
      <trkpt lat="42.91057" lon="16.85972">
        <ele>25</ele>
        <time>2016-07-12T08:56:06Z</time>
      </trkpt>
      <trkpt lat="42.91051" lon="16.85967">
        <ele>25</ele>
        <time>2016-07-12T08:58:06Z</time>
      </trkpt>
      <trkpt lat="42.91043" lon="16.8596">
        <ele>26</ele>
        <time>2016-07-12T09:00:06Z</time>
      </trkpt>
      <trkpt lat="42.91035" lon="16.85949">
        <ele>25</ele>
        <time>2016-07-12T09:02:06Z</time>
      </trkpt>
      <trkpt lat="42.91021" lon="16.85929">
        <ele>22</ele>
        <time>2016-07-12T09:04:06Z</time>
      </trkpt>
      <trkpt lat="42.91003" lon="16.85897">
        <ele>17</ele>
        <time>2016-07-12T09:06:06Z</time>
      </trkpt>
      <trkpt lat="42.90991" lon="16.8588">
        <ele>17</ele>
        <time>2016-07-12T09:08:06Z</time>
      </trkpt>
      <trkpt lat="42.90981" lon="16.85868">
        <ele>17</ele>
        <time>2016-07-12T09:10:06Z</time>
      </trkpt>
      <trkpt lat="42.90963" lon="16.85852">
        <ele>17</ele>
        <time>2016-07-12T09:12:06Z</time>
      </trkpt>
      <trkpt lat="42.9094" lon="16.85831">
        <ele>15</ele>
        <time>2016-07-12T09:14:06Z</time>
      </trkpt>
      <trkpt lat="42.90918" lon="16.85816">
        <ele>15</ele>
        <time>2016-07-12T09:16:06Z</time>
      </trkpt>
      <trkpt lat="42.90896" lon="16.85808">
        <ele>15</ele>
        <time>2016-07-12T09:18:06Z</time>
      </trkpt>
      <trkpt lat="42.90888" lon="16.85807">
        <ele>15</ele>
        <time>2016-07-12T09:20:06Z</time>
      </trkpt>
      <trkpt lat="42.90883" lon="16.85806">
        <ele>15</ele>
        <time>2016-07-12T09:22:06Z</time>
      </trkpt>
      <trkpt lat="42.90862" lon="16.85806">
        <ele>15</ele>
        <time>2016-07-12T09:24:06Z</time>
      </trkpt>
      <trkpt lat="42.90826" lon="16.85806">
        <ele>16</ele>
        <time>2016-07-12T09:26:06Z</time>
      </trkpt>
      <trkpt lat="42.90811" lon="16.85804">
        <ele>17</ele>
        <time>2016-07-12T09:28:06Z</time>
      </trkpt>
      <trkpt lat="42.90786" lon="16.85796">
        <ele>17</ele>
        <time>2016-07-12T09:30:06Z</time>
      </trkpt>
      <trkpt lat="42.90769" lon="16.85793">
        <ele>18</ele>
        <time>2016-07-12T09:32:06Z</time>
      </trkpt>
      <trkpt lat="42.90738" lon="16.85793">
        <ele>19</ele>
        <time>2016-07-12T09:34:06Z</time>
      </trkpt>
      <trkpt lat="42.90715" lon="16.85793">
        <ele>18</ele>
        <time>2016-07-12T09:36:06Z</time>
      </trkpt>
      <trkpt lat="42.90715" lon="16.85793">
        <ele>18</ele>
        <time>2016-07-12T09:38:06Z</time>
      </trkpt>
      <trkpt lat="42.90715" lon="16.85805">
        <ele>19</ele>
        <time>2016-07-12T09:40:06Z</time>
      </trkpt>
      <trkpt lat="42.90717" lon="16.85823">
        <ele>19</ele>
        <time>2016-07-12T09:42:06Z</time>
      </trkpt>
      <trkpt lat="42.90718" lon="16.85834">
        <ele>19</ele>
        <time>2016-07-12T09:44:06Z</time>
      </trkpt>
      <trkpt lat="42.90717" lon="16.85847">
        <ele>20</ele>
        <time>2016-07-12T09:46:06Z</time>
      </trkpt>
      <trkpt lat="42.90714" lon="16.85877">
        <ele>22</ele>
        <time>2016-07-12T09:48:06Z</time>
      </trkpt>
      <trkpt lat="42.90714" lon="16.85878">
        <ele>22</ele>
        <time>2016-07-12T09:50:06Z</time>
      </trkpt>
      <trkpt lat="42.9071" lon="16.85916">
        <ele>25</ele>
        <time>2016-07-12T09:52:06Z</time>
      </trkpt>
      <trkpt lat="42.90708" lon="16.85947">
        <ele>25</ele>
        <time>2016-07-12T09:54:06Z</time>
      </trkpt>
      <trkpt lat="42.90708" lon="16.85969">
        <ele>26</ele>
        <time>2016-07-12T09:56:06Z</time>
      </trkpt>
      <trkpt lat="42.9071" lon="16.85984">
        <ele>27</ele>
        <time>2016-07-12T09:58:06Z</time>
      </trkpt>
      <trkpt lat="42.90713" lon="16.86002">
        <ele>28</ele>
        <time>2016-07-12T10:00:06Z</time>
      </trkpt>
      <trkpt lat="42.90718" lon="16.86015">
        <ele>29</ele>
        <time>2016-07-12T10:02:06Z</time>
      </trkpt>
      <trkpt lat="42.90732" lon="16.86054">
        <ele>31</ele>
        <time>2016-07-12T10:04:06Z</time>
      </trkpt>
      <trkpt lat="42.90749" lon="16.86098">
        <ele>35</ele>
        <time>2016-07-12T10:06:06Z</time>
      </trkpt>
      <trkpt lat="42.90757" lon="16.86118">
        <ele>37</ele>
        <time>2016-07-12T10:08:06Z</time>
      </trkpt>
      <trkpt lat="42.90775" lon="16.86167">
        <ele>41</ele>
        <time>2016-07-12T10:10:06Z</time>
      </trkpt>
      <trkpt lat="42.90785" lon="16.86198">
        <ele>44</ele>
        <time>2016-07-12T10:12:06Z</time>
      </trkpt>
      <trkpt lat="42.90796" lon="16.86239">
        <ele>46</ele>
        <time>2016-07-12T10:14:06Z</time>
      </trkpt>
      <trkpt lat="42.90801" lon="16.86261">
        <ele>48</ele>
        <time>2016-07-12T10:16:06Z</time>
      </trkpt>
      <trkpt lat="42.90802" lon="16.86282">
        <ele>48</ele>
        <time>2016-07-12T10:18:06Z</time>
      </trkpt>
      <trkpt lat="42.90803" lon="16.86327">
        <ele>48</ele>
        <time>2016-07-12T10:20:06Z</time>
      </trkpt>
      <trkpt lat="42.90806" lon="16.86357">
        <ele>49</ele>
        <time>2016-07-12T10:22:06Z</time>
      </trkpt>
      <trkpt lat="42.90814" lon="16.86388">
        <ele>50</ele>
        <time>2016-07-12T10:24:06Z</time>
      </trkpt>
      <trkpt lat="42.90828" lon="16.86422">
        <ele>53</ele>
        <time>2016-07-12T10:26:06Z</time>
      </trkpt>
      <trkpt lat="42.90885" lon="16.86527">
        <ele>62</ele>
        <time>2016-07-12T10:28:06Z</time>
      </trkpt>
      <trkpt lat="42.90905" lon="16.86573">
        <ele>65</ele>
        <time>2016-07-12T10:30:06Z</time>
      </trkpt>
      <trkpt lat="42.9092" lon="16.86613">
        <ele>66</ele>
        <time>2016-07-12T10:32:06Z</time>
      </trkpt>
      <trkpt lat="42.90949" lon="16.867">
        <ele>71</ele>
        <time>2016-07-12T10:34:06Z</time>
      </trkpt>
      <trkpt lat="42.90967" lon="16.8677">
        <ele>73</ele>
        <time>2016-07-12T10:36:06Z</time>
      </trkpt>
      <trkpt lat="42.90986" lon="16.86822">
        <ele>75</ele>
        <time>2016-07-12T10:38:06Z</time>
      </trkpt>
      <trkpt lat="42.91" lon="16.86847">
        <ele>76</ele>
        <time>2016-07-12T10:40:06Z</time>
      </trkpt>
      <trkpt lat="42.91022" lon="16.86882">
        <ele>77</ele>
        <time>2016-07-12T10:42:06Z</time>
      </trkpt>
      <trkpt lat="42.91053" lon="16.86925">
        <ele>79</ele>
        <time>2016-07-12T10:44:06Z</time>
      </trkpt>
      <trkpt lat="42.91122" lon="16.87009">
        <ele>84</ele>
        <time>2016-07-12T10:46:06Z</time>
      </trkpt>
      <trkpt lat="42.91139" lon="16.8703">
        <ele>87</ele>
        <time>2016-07-12T10:48:06Z</time>
      </trkpt>
      <trkpt lat="42.91153" lon="16.87049">
        <ele>90</ele>
        <time>2016-07-12T10:50:06Z</time>
      </trkpt>
      <trkpt lat="42.91196" lon="16.87119">
        <ele>97</ele>
        <time>2016-07-12T10:52:06Z</time>
      </trkpt>
      <trkpt lat="42.9123" lon="16.87176">
        <ele>102</ele>
        <time>2016-07-12T10:54:06Z</time>
      </trkpt>
      <trkpt lat="42.91251" lon="16.87206">
        <ele>104</ele>
        <time>2016-07-12T10:56:06Z</time>
      </trkpt>
      <trkpt lat="42.9126" lon="16.8722">
        <ele>105</ele>
        <time>2016-07-12T10:58:06Z</time>
      </trkpt>
      <trkpt lat="42.91267" lon="16.87226">
        <ele>106</ele>
        <time>2016-07-12T11:00:06Z</time>
      </trkpt>
      <trkpt lat="42.91276" lon="16.87231">
        <ele>106</ele>
        <time>2016-07-12T11:02:06Z</time>
      </trkpt>
      <trkpt lat="42.91301" lon="16.87244">
        <ele>107</ele>
        <time>2016-07-12T11:04:06Z</time>
      </trkpt>
      <trkpt lat="42.9133" lon="16.87262">
        <ele>108</ele>
        <time>2016-07-12T11:06:06Z</time>
      </trkpt>
      <trkpt lat="42.9135" lon="16.87274">
        <ele>109</ele>
        <time>2016-07-12T11:08:06Z</time>
      </trkpt>
      <trkpt lat="42.91362" lon="16.87285">
        <ele>110</ele>
        <time>2016-07-12T11:10:06Z</time>
      </trkpt>
      <trkpt lat="42.91376" lon="16.87303">
        <ele>111</ele>
        <time>2016-07-12T11:12:06Z</time>
      </trkpt>
      <trkpt lat="42.91403" lon="16.87339">
        <ele>112</ele>
        <time>2016-07-12T11:14:06Z</time>
      </trkpt>
      <trkpt lat="42.91424" lon="16.87366">
        <ele>113</ele>
        <time>2016-07-12T11:16:06Z</time>
      </trkpt>
      <trkpt lat="42.91456" lon="16.87403">
        <ele>113</ele>
        <time>2016-07-12T11:18:06Z</time>
      </trkpt>
      <trkpt lat="42.91479" lon="16.87436">
        <ele>113</ele>
        <time>2016-07-12T11:20:06Z</time>
      </trkpt>
      <trkpt lat="42.915" lon="16.87469">
        <ele>112</ele>
        <time>2016-07-12T11:22:06Z</time>
      </trkpt>
      <trkpt lat="42.91517" lon="16.87503">
        <ele>112</ele>
        <time>2016-07-12T11:24:06Z</time>
      </trkpt>
      <trkpt lat="42.91523" lon="16.87514">
        <ele>112</ele>
        <time>2016-07-12T11:26:06Z</time>
      </trkpt>
      <trkpt lat="42.91562" lon="16.87594">
        <ele>110</ele>
        <time>2016-07-12T11:28:06Z</time>
      </trkpt>
      <trkpt lat="42.91572" lon="16.87614">
        <ele>110</ele>
        <time>2016-07-12T11:30:06Z</time>
      </trkpt>
      <trkpt lat="42.91576" lon="16.87623">
        <ele>110</ele>
        <time>2016-07-12T11:32:06Z</time>
      </trkpt>
      <trkpt lat="42.91592" lon="16.87669">
        <ele>108</ele>
        <time>2016-07-12T11:34:06Z</time>
      </trkpt>
      <trkpt lat="42.91598" lon="16.87694">
        <ele>108</ele>
        <time>2016-07-12T11:36:06Z</time>
      </trkpt>
      <trkpt lat="42.91604" lon="16.87706">
        <ele>108</ele>
        <time>2016-07-12T11:38:06Z</time>
      </trkpt>
      <trkpt lat="42.91611" lon="16.8772">
        <ele>107</ele>
        <time>2016-07-12T11:40:06Z</time>
      </trkpt>
      <trkpt lat="42.91615" lon="16.87725">
        <ele>107</ele>
        <time>2016-07-12T11:42:06Z</time>
      </trkpt>
      <trkpt lat="42.9162" lon="16.8773">
        <ele>107</ele>
        <time>2016-07-12T11:44:06Z</time>
      </trkpt>
      <trkpt lat="42.91628" lon="16.87731">
        <ele>106</ele>
        <time>2016-07-12T11:46:06Z</time>
      </trkpt>
      <trkpt lat="42.91646" lon="16.87732">
        <ele>105</ele>
        <time>2016-07-12T11:48:06Z</time>
      </trkpt>
      <trkpt lat="42.9167" lon="16.87731">
        <ele>103</ele>
        <time>2016-07-12T11:50:06Z</time>
      </trkpt>
      <trkpt lat="42.9169" lon="16.87733">
        <ele>103</ele>
        <time>2016-07-12T11:52:06Z</time>
      </trkpt>
      <trkpt lat="42.91704" lon="16.87738">
        <ele>103</ele>
        <time>2016-07-12T11:54:06Z</time>
      </trkpt>
      <trkpt lat="42.91707" lon="16.87739">
        <ele>103</ele>
        <time>2016-07-12T11:56:06Z</time>
      </trkpt>
      <trkpt lat="42.91741" lon="16.87749">
        <ele>103</ele>
        <time>2016-07-12T11:58:06Z</time>
      </trkpt>
      <trkpt lat="42.91785" lon="16.87764">
        <ele>103</ele>
        <time>2016-07-12T12:00:06Z</time>
      </trkpt>
      <trkpt lat="42.91792" lon="16.87766">
        <ele>102</ele>
        <time>2016-07-12T12:02:06Z</time>
      </trkpt>
      <trkpt lat="42.91807" lon="16.87771">
        <ele>102</ele>
        <time>2016-07-12T12:04:06Z</time>
      </trkpt>
      <trkpt lat="42.91824" lon="16.87776">
        <ele>102</ele>
        <time>2016-07-12T12:06:06Z</time>
      </trkpt>
      <trkpt lat="42.91853" lon="16.87784">
        <ele>101</ele>
        <time>2016-07-12T12:08:06Z</time>
      </trkpt>
      <trkpt lat="42.91905" lon="16.878">
        <ele>99</ele>
        <time>2016-07-12T12:10:06Z</time>
      </trkpt>
      <trkpt lat="42.91958" lon="16.87815">
        <ele>97</ele>
        <time>2016-07-12T12:12:06Z</time>
      </trkpt>
      <trkpt lat="42.9201" lon="16.87831">
        <ele>95</ele>
        <time>2016-07-12T12:14:06Z</time>
      </trkpt>
      <trkpt lat="42.92055" lon="16.8784">
        <ele>94</ele>
        <time>2016-07-12T12:16:06Z</time>
      </trkpt>
      <trkpt lat="42.92099" lon="16.87853">
        <ele>93</ele>
        <time>2016-07-12T12:18:06Z</time>
      </trkpt>
      <trkpt lat="42.92125" lon="16.87864">
        <ele>93</ele>
        <time>2016-07-12T12:20:06Z</time>
      </trkpt>
      <trkpt lat="42.92139" lon="16.87869">
        <ele>94</ele>
        <time>2016-07-12T12:22:06Z</time>
      </trkpt>
      <trkpt lat="42.92143" lon="16.87871">
        <ele>94</ele>
        <time>2016-07-12T12:24:06Z</time>
      </trkpt>
      <trkpt lat="42.92186" lon="16.87885">
        <ele>96</ele>
        <time>2016-07-12T12:26:06Z</time>
      </trkpt>
      <trkpt lat="42.92211" lon="16.87896">
        <ele>98</ele>
        <time>2016-07-12T12:28:06Z</time>
      </trkpt>
      <trkpt lat="42.9222" lon="16.87902">
        <ele>98</ele>
        <time>2016-07-12T12:30:06Z</time>
      </trkpt>
      <trkpt lat="42.92226" lon="16.87911">
        <ele>99</ele>
        <time>2016-07-12T12:32:06Z</time>
      </trkpt>
      <trkpt lat="42.92231" lon="16.87921">
        <ele>100</ele>
        <time>2016-07-12T12:34:06Z</time>
      </trkpt>
      <trkpt lat="42.92239" lon="16.87944">
        <ele>100</ele>
        <time>2016-07-12T12:36:06Z</time>
      </trkpt>
      <trkpt lat="42.9225" lon="16.87995">
        <ele>102</ele>
        <time>2016-07-12T12:38:06Z</time>
      </trkpt>
      <trkpt lat="42.92256" lon="16.88027">
        <ele>103</ele>
        <time>2016-07-12T12:40:06Z</time>
      </trkpt>
      <trkpt lat="42.92262" lon="16.88058">
        <ele>104</ele>
        <time>2016-07-12T12:42:06Z</time>
      </trkpt>
      <trkpt lat="42.92266" lon="16.8809">
        <ele>106</ele>
        <time>2016-07-12T12:44:06Z</time>
      </trkpt>
      <trkpt lat="42.9227" lon="16.88106">
        <ele>108</ele>
        <time>2016-07-12T12:46:06Z</time>
      </trkpt>
      <trkpt lat="42.92271" lon="16.88116">
        <ele>108</ele>
        <time>2016-07-12T12:48:06Z</time>
      </trkpt>
      <trkpt lat="42.92271" lon="16.88131">
        <ele>109</ele>
        <time>2016-07-12T12:50:06Z</time>
      </trkpt>
      <trkpt lat="42.92271" lon="16.88144">
        <ele>109</ele>
        <time>2016-07-12T12:52:06Z</time>
      </trkpt>
      <trkpt lat="42.92269" lon="16.8817">
        <ele>110</ele>
        <time>2016-07-12T12:54:06Z</time>
      </trkpt>
      <trkpt lat="42.92267" lon="16.88206">
        <ele>109</ele>
        <time>2016-07-12T12:56:06Z</time>
      </trkpt>
      <trkpt lat="42.92265" lon="16.88242">
        <ele>109</ele>
        <time>2016-07-12T12:58:06Z</time>
      </trkpt>
      <trkpt lat="42.92264" lon="16.88274">
        <ele>109</ele>
        <time>2016-07-12T13:00:06Z</time>
      </trkpt>
      <trkpt lat="42.92264" lon="16.88303">
        <ele>109</ele>
        <time>2016-07-12T13:02:06Z</time>
      </trkpt>
      <trkpt lat="42.92265" lon="16.88318">
        <ele>109</ele>
        <time>2016-07-12T13:04:06Z</time>
      </trkpt>
      <trkpt lat="42.92266" lon="16.88328">
        <ele>109</ele>
        <time>2016-07-12T13:06:06Z</time>
      </trkpt>
      <trkpt lat="42.92267" lon="16.88336">
        <ele>109</ele>
        <time>2016-07-12T13:08:06Z</time>
      </trkpt>
      <trkpt lat="42.9227" lon="16.88346">
        <ele>108</ele>
        <time>2016-07-12T13:10:06Z</time>
      </trkpt>
      <trkpt lat="42.92278" lon="16.88361">
        <ele>108</ele>
        <time>2016-07-12T13:12:06Z</time>
      </trkpt>
      <trkpt lat="42.92298" lon="16.88383">
        <ele>108</ele>
        <time>2016-07-12T13:14:06Z</time>
      </trkpt>
      <trkpt lat="42.92316" lon="16.884">
        <ele>108</ele>
        <time>2016-07-12T13:16:06Z</time>
      </trkpt>
      <trkpt lat="42.92333" lon="16.88419">
        <ele>107</ele>
        <time>2016-07-12T13:18:06Z</time>
      </trkpt>
      <trkpt lat="42.92345" lon="16.88438">
        <ele>108</ele>
        <time>2016-07-12T13:20:06Z</time>
      </trkpt>
      <trkpt lat="42.92353" lon="16.88455">
        <ele>109</ele>
        <time>2016-07-12T13:22:06Z</time>
      </trkpt>
      <trkpt lat="42.9237" lon="16.88498">
        <ele>110</ele>
        <time>2016-07-12T13:24:06Z</time>
      </trkpt>
      <trkpt lat="42.92388" lon="16.88541">
        <ele>110</ele>
        <time>2016-07-12T13:26:06Z</time>
      </trkpt>
      <trkpt lat="42.92401" lon="16.8857">
        <ele>109</ele>
        <time>2016-07-12T13:28:06Z</time>
      </trkpt>
      <trkpt lat="42.92416" lon="16.88607">
        <ele>108</ele>
        <time>2016-07-12T13:30:06Z</time>
      </trkpt>
      <trkpt lat="42.92427" lon="16.88637">
        <ele>108</ele>
        <time>2016-07-12T13:32:06Z</time>
      </trkpt>
      <trkpt lat="42.92441" lon="16.88668">
        <ele>109</ele>
        <time>2016-07-12T13:34:06Z</time>
      </trkpt>
      <trkpt lat="42.9245" lon="16.88688">
        <ele>109</ele>
        <time>2016-07-12T13:36:06Z</time>
      </trkpt>
      <trkpt lat="42.92465" lon="16.88712">
        <ele>109</ele>
        <time>2016-07-12T13:38:06Z</time>
      </trkpt>
      <trkpt lat="42.92501" lon="16.88766">
        <ele>107</ele>
        <time>2016-07-12T13:40:06Z</time>
      </trkpt>
      <trkpt lat="42.92516" lon="16.88791">
        <ele>108</ele>
        <time>2016-07-12T13:42:06Z</time>
      </trkpt>
      <trkpt lat="42.92531" lon="16.88812">
        <ele>108</ele>
        <time>2016-07-12T13:44:06Z</time>
      </trkpt>
      <trkpt lat="42.92546" lon="16.88832">
        <ele>108</ele>
        <time>2016-07-12T13:46:06Z</time>
      </trkpt>
      <trkpt lat="42.92563" lon="16.8885">
        <ele>110</ele>
        <time>2016-07-12T13:48:06Z</time>
      </trkpt>
      <trkpt lat="42.92573" lon="16.88859">
        <ele>111</ele>
        <time>2016-07-12T13:50:06Z</time>
      </trkpt>
      <trkpt lat="42.92589" lon="16.88876">
        <ele>112</ele>
        <time>2016-07-12T13:52:06Z</time>
      </trkpt>
      <trkpt lat="42.92596" lon="16.88886">
        <ele>113</ele>
        <time>2016-07-12T13:54:06Z</time>
      </trkpt>
      <trkpt lat="42.92609" lon="16.88907">
        <ele>115</ele>
        <time>2016-07-12T13:56:06Z</time>
      </trkpt>
      <trkpt lat="42.92624" lon="16.88934">
        <ele>116</ele>
        <time>2016-07-12T13:58:06Z</time>
      </trkpt>
      <trkpt lat="42.92638" lon="16.8896">
        <ele>117</ele>
        <time>2016-07-12T14:00:06Z</time>
      </trkpt>
      <trkpt lat="42.92651" lon="16.88984">
        <ele>118</ele>
        <time>2016-07-12T14:02:06Z</time>
      </trkpt>
      <trkpt lat="42.92664" lon="16.89009">
        <ele>119</ele>
        <time>2016-07-12T14:04:06Z</time>
      </trkpt>
      <trkpt lat="42.92682" lon="16.89041">
        <ele>121</ele>
        <time>2016-07-12T14:06:06Z</time>
      </trkpt>
      <trkpt lat="42.92695" lon="16.89063">
        <ele>121</ele>
        <time>2016-07-12T14:08:06Z</time>
      </trkpt>
      <trkpt lat="42.92712" lon="16.89089">
        <ele>122</ele>
        <time>2016-07-12T14:10:06Z</time>
      </trkpt>
      <trkpt lat="42.92717" lon="16.89099">
        <ele>122</ele>
        <time>2016-07-12T14:12:06Z</time>
      </trkpt>
      <trkpt lat="42.92729" lon="16.89115">
        <ele>123</ele>
        <time>2016-07-12T14:14:06Z</time>
      </trkpt>
      <trkpt lat="42.92738" lon="16.89127">
        <ele>124</ele>
        <time>2016-07-12T14:16:06Z</time>
      </trkpt>
      <trkpt lat="42.92754" lon="16.89146">
        <ele>126</ele>
        <time>2016-07-12T14:18:06Z</time>
      </trkpt>
      <trkpt lat="42.92773" lon="16.89164">
        <ele>128</ele>
        <time>2016-07-12T14:20:06Z</time>
      </trkpt>
      <trkpt lat="42.9278" lon="16.89169">
        <ele>129</ele>
        <time>2016-07-12T14:22:06Z</time>
      </trkpt>
      <trkpt lat="42.92794" lon="16.89181">
        <ele>131</ele>
        <time>2016-07-12T14:24:06Z</time>
      </trkpt>
      <trkpt lat="42.92814" lon="16.89199">
        <ele>133</ele>
        <time>2016-07-12T14:26:06Z</time>
      </trkpt>
      <trkpt lat="42.92825" lon="16.8921">
        <ele>134</ele>
        <time>2016-07-12T14:28:06Z</time>
      </trkpt>
      <trkpt lat="42.92851" lon="16.89241">
        <ele>135</ele>
        <time>2016-07-12T14:30:06Z</time>
      </trkpt>
      <trkpt lat="42.92871" lon="16.89263">
        <ele>137</ele>
        <time>2016-07-12T14:32:06Z</time>
      </trkpt>
      <trkpt lat="42.92881" lon="16.89275">
        <ele>137</ele>
        <time>2016-07-12T14:34:06Z</time>
      </trkpt>
      <trkpt lat="42.92891" lon="16.8929">
        <ele>137</ele>
        <time>2016-07-12T14:36:06Z</time>
      </trkpt>
      <trkpt lat="42.92898" lon="16.89306">
        <ele>137</ele>
        <time>2016-07-12T14:38:06Z</time>
      </trkpt>
      <trkpt lat="42.92902" lon="16.89321">
        <ele>136</ele>
        <time>2016-07-12T14:40:06Z</time>
      </trkpt>
      <trkpt lat="42.92907" lon="16.89333">
        <ele>135</ele>
        <time>2016-07-12T14:42:06Z</time>
      </trkpt>
      <trkpt lat="42.92911" lon="16.8934">
        <ele>136</ele>
        <time>2016-07-12T14:44:06Z</time>
      </trkpt>
      <trkpt lat="42.92916" lon="16.89344">
        <ele>136</ele>
        <time>2016-07-12T14:46:06Z</time>
      </trkpt>
      <trkpt lat="42.92923" lon="16.89345">
        <ele>138</ele>
        <time>2016-07-12T14:48:06Z</time>
      </trkpt>
      <trkpt lat="42.92923" lon="16.89345">
        <ele>138</ele>
        <time>2016-07-12T14:50:06Z</time>
      </trkpt>
      <trkpt lat="42.9293" lon="16.89381">
        <ele>138</ele>
        <time>2016-07-12T14:52:06Z</time>
      </trkpt>
      <trkpt lat="42.92931" lon="16.89382">
        <ele>139</ele>
        <time>2016-07-12T14:54:06Z</time>
      </trkpt>
      <trkpt lat="42.92935" lon="16.89397">
        <ele>139</ele>
        <time>2016-07-12T14:56:06Z</time>
      </trkpt>
      <trkpt lat="42.92939" lon="16.89415">
        <ele>139</ele>
        <time>2016-07-12T14:58:06Z</time>
      </trkpt>
      <trkpt lat="42.92941" lon="16.89433">
        <ele>140</ele>
        <time>2016-07-12T15:00:06Z</time>
      </trkpt>
      <trkpt lat="42.92942" lon="16.89434">
        <ele>140</ele>
        <time>2016-07-12T15:02:06Z</time>
      </trkpt>
      <trkpt lat="42.92942" lon="16.89455">
        <ele>141</ele>
        <time>2016-07-12T15:04:06Z</time>
      </trkpt>
      <trkpt lat="42.92942" lon="16.89465">
        <ele>141</ele>
        <time>2016-07-12T15:06:06Z</time>
      </trkpt>
      <trkpt lat="42.9294" lon="16.89483">
        <ele>140</ele>
        <time>2016-07-12T15:08:06Z</time>
      </trkpt>
      <trkpt lat="42.92939" lon="16.89489">
        <ele>140</ele>
        <time>2016-07-12T15:10:06Z</time>
      </trkpt>
      <trkpt lat="42.92933" lon="16.89518">
        <ele>140</ele>
        <time>2016-07-12T15:12:06Z</time>
      </trkpt>
      <trkpt lat="42.92927" lon="16.89543">
        <ele>140</ele>
        <time>2016-07-12T15:14:06Z</time>
      </trkpt>
      <trkpt lat="42.92914" lon="16.8959">
        <ele>138</ele>
        <time>2016-07-12T15:16:06Z</time>
      </trkpt>
      <trkpt lat="42.92902" lon="16.8963">
        <ele>136</ele>
        <time>2016-07-12T15:18:06Z</time>
      </trkpt>
      <trkpt lat="42.92898" lon="16.89651">
        <ele>136</ele>
        <time>2016-07-12T15:20:06Z</time>
      </trkpt>
      <trkpt lat="42.92897" lon="16.89659">
        <ele>136</ele>
        <time>2016-07-12T15:22:06Z</time>
      </trkpt>
      <trkpt lat="42.92895" lon="16.8968">
        <ele>135</ele>
        <time>2016-07-12T15:24:06Z</time>
      </trkpt>
      <trkpt lat="42.92893" lon="16.89703">
        <ele>133</ele>
        <time>2016-07-12T15:26:06Z</time>
      </trkpt>
      <trkpt lat="42.92894" lon="16.89724">
        <ele>132</ele>
        <time>2016-07-12T15:28:06Z</time>
      </trkpt>
      <trkpt lat="42.92897" lon="16.89748">
        <ele>133</ele>
        <time>2016-07-12T15:30:06Z</time>
      </trkpt>
      <trkpt lat="42.92905" lon="16.89778">
        <ele>132</ele>
        <time>2016-07-12T15:32:06Z</time>
      </trkpt>
      <trkpt lat="42.92921" lon="16.89828">
        <ele>130</ele>
        <time>2016-07-12T15:34:06Z</time>
      </trkpt>
      <trkpt lat="42.92945" lon="16.89896">
        <ele>129</ele>
        <time>2016-07-12T15:36:06Z</time>
      </trkpt>
      <trkpt lat="42.92953" lon="16.8992">
        <ele>129</ele>
        <time>2016-07-12T15:38:06Z</time>
      </trkpt>
      <trkpt lat="42.92957" lon="16.89933">
        <ele>130</ele>
        <time>2016-07-12T15:40:06Z</time>
      </trkpt>
      <trkpt lat="42.92963" lon="16.89974">
        <ele>128</ele>
        <time>2016-07-12T15:42:06Z</time>
      </trkpt>
      <trkpt lat="42.9297" lon="16.89999">
        <ele>128</ele>
        <time>2016-07-12T15:44:06Z</time>
      </trkpt>
      <trkpt lat="42.92991" lon="16.90066">
        <ele>126</ele>
        <time>2016-07-12T15:46:06Z</time>
      </trkpt>
      <trkpt lat="42.93013" lon="16.90128">
        <ele>123</ele>
        <time>2016-07-12T15:48:06Z</time>
      </trkpt>
      <trkpt lat="42.93029" lon="16.90174">
        <ele>122</ele>
        <time>2016-07-12T15:50:06Z</time>
      </trkpt>
      <trkpt lat="42.93046" lon="16.90219">
        <ele>122</ele>
        <time>2016-07-12T15:52:06Z</time>
      </trkpt>
      <trkpt lat="42.93055" lon="16.90249">
        <ele>121</ele>
        <time>2016-07-12T15:54:06Z</time>
      </trkpt>
      <trkpt lat="42.93063" lon="16.90273">
        <ele>121</ele>
        <time>2016-07-12T15:56:06Z</time>
      </trkpt>
      <trkpt lat="42.93069" lon="16.90298">
        <ele>121</ele>
        <time>2016-07-12T15:58:06Z</time>
      </trkpt>
      <trkpt lat="42.93077" lon="16.90343">
        <ele>118</ele>
        <time>2016-07-12T16:00:06Z</time>
      </trkpt>
      <trkpt lat="42.93083" lon="16.90408">
        <ele>114</ele>
        <time>2016-07-12T16:02:06Z</time>
      </trkpt>
      <trkpt lat="42.9309" lon="16.90473">
        <ele>114</ele>
        <time>2016-07-12T16:04:06Z</time>
      </trkpt>
      <trkpt lat="42.93094" lon="16.90516">
        <ele>114</ele>
        <time>2016-07-12T16:06:06Z</time>
      </trkpt>
      <trkpt lat="42.93098" lon="16.90569">
        <ele>112</ele>
        <time>2016-07-12T16:08:06Z</time>
      </trkpt>
      <trkpt lat="42.93102" lon="16.90606">
        <ele>112</ele>
        <time>2016-07-12T16:10:06Z</time>
      </trkpt>
      <trkpt lat="42.93101" lon="16.90655">
        <ele>110</ele>
        <time>2016-07-12T16:12:06Z</time>
      </trkpt>
      <trkpt lat="42.93102" lon="16.90698">
        <ele>108</ele>
        <time>2016-07-12T16:14:06Z</time>
      </trkpt>
      <trkpt lat="42.93103" lon="16.90725">
        <ele>107</ele>
        <time>2016-07-12T16:16:06Z</time>
      </trkpt>
      <trkpt lat="42.93106" lon="16.9076">
        <ele>106</ele>
        <time>2016-07-12T16:18:06Z</time>
      </trkpt>
      <trkpt lat="42.93109" lon="16.90778">
        <ele>106</ele>
        <time>2016-07-12T16:20:06Z</time>
      </trkpt>
      <trkpt lat="42.93116" lon="16.90814">
        <ele>106</ele>
        <time>2016-07-12T16:22:06Z</time>
      </trkpt>
      <trkpt lat="42.93118" lon="16.90839">
        <ele>106</ele>
        <time>2016-07-12T16:24:06Z</time>
      </trkpt>
      <trkpt lat="42.9312" lon="16.90868">
        <ele>106</ele>
        <time>2016-07-12T16:26:06Z</time>
      </trkpt>
      <trkpt lat="42.93117" lon="16.90968">
        <ele>104</ele>
        <time>2016-07-12T16:28:06Z</time>
      </trkpt>
      <trkpt lat="42.93114" lon="16.91055">
        <ele>103</ele>
        <time>2016-07-12T16:30:06Z</time>
      </trkpt>
      <trkpt lat="42.93111" lon="16.91129">
        <ele>103</ele>
        <time>2016-07-12T16:32:06Z</time>
      </trkpt>
      <trkpt lat="42.93108" lon="16.91167">
        <ele>103</ele>
        <time>2016-07-12T16:34:06Z</time>
      </trkpt>
      <trkpt lat="42.93103" lon="16.91218">
        <ele>104</ele>
        <time>2016-07-12T16:36:06Z</time>
      </trkpt>
      <trkpt lat="42.93098" lon="16.91245">
        <ele>104</ele>
        <time>2016-07-12T16:38:06Z</time>
      </trkpt>
      <trkpt lat="42.93093" lon="16.91271">
        <ele>104</ele>
        <time>2016-07-12T16:40:06Z</time>
      </trkpt>
      <trkpt lat="42.93084" lon="16.91335">
        <ele>103</ele>
        <time>2016-07-12T16:42:06Z</time>
      </trkpt>
      <trkpt lat="42.93073" lon="16.91408">
        <ele>106</ele>
        <time>2016-07-12T16:44:06Z</time>
      </trkpt>
      <trkpt lat="42.93069" lon="16.91435">
        <ele>105</ele>
        <time>2016-07-12T16:46:06Z</time>
      </trkpt>
      <trkpt lat="42.93065" lon="16.9148">
        <ele>105</ele>
        <time>2016-07-12T16:48:06Z</time>
      </trkpt>
      <trkpt lat="42.93063" lon="16.91563">
        <ele>106</ele>
        <time>2016-07-12T16:50:06Z</time>
      </trkpt>
      <trkpt lat="42.93065" lon="16.91646">
        <ele>107</ele>
        <time>2016-07-12T16:52:06Z</time>
      </trkpt>
      <trkpt lat="42.93071" lon="16.91702">
        <ele>109</ele>
        <time>2016-07-12T16:54:06Z</time>
      </trkpt>
      <trkpt lat="42.93072" lon="16.9171">
        <ele>109</ele>
        <time>2016-07-12T16:56:06Z</time>
      </trkpt>
      <trkpt lat="42.93099" lon="16.91879">
        <ele>113</ele>
        <time>2016-07-12T16:58:06Z</time>
      </trkpt>
      <trkpt lat="42.93111" lon="16.91953">
        <ele>115</ele>
        <time>2016-07-12T17:00:06Z</time>
      </trkpt>
      <trkpt lat="42.93111" lon="16.91988">
        <ele>115</ele>
        <time>2016-07-12T17:02:06Z</time>
      </trkpt>
      <trkpt lat="42.93108" lon="16.9202">
        <ele>115</ele>
        <time>2016-07-12T17:04:06Z</time>
      </trkpt>
      <trkpt lat="42.93108" lon="16.92046">
        <ele>116</ele>
        <time>2016-07-12T17:06:06Z</time>
      </trkpt>
      <trkpt lat="42.93108" lon="16.92063">
        <ele>116</ele>
        <time>2016-07-12T17:08:06Z</time>
      </trkpt>
      <trkpt lat="42.93108" lon="16.9208">
        <ele>116</ele>
        <time>2016-07-12T17:10:06Z</time>
      </trkpt>
      <trkpt lat="42.9311" lon="16.92115">
        <ele>117</ele>
        <time>2016-07-12T17:12:06Z</time>
      </trkpt>
      <trkpt lat="42.93112" lon="16.9215">
        <ele>117</ele>
        <time>2016-07-12T17:14:06Z</time>
      </trkpt>
      <trkpt lat="42.93114" lon="16.92168">
        <ele>117</ele>
        <time>2016-07-12T17:16:06Z</time>
      </trkpt>
      <trkpt lat="42.93118" lon="16.92203">
        <ele>117</ele>
        <time>2016-07-12T17:18:06Z</time>
      </trkpt>
      <trkpt lat="42.93123" lon="16.92238">
        <ele>117</ele>
        <time>2016-07-12T17:20:06Z</time>
      </trkpt>
      <trkpt lat="42.93126" lon="16.9225">
        <ele>117</ele>
        <time>2016-07-12T17:22:06Z</time>
      </trkpt>
      <trkpt lat="42.9313" lon="16.92261">
        <ele>117</ele>
        <time>2016-07-12T17:24:06Z</time>
      </trkpt>
      <trkpt lat="42.93138" lon="16.92283">
        <ele>118</ele>
        <time>2016-07-12T17:26:06Z</time>
      </trkpt>
      <trkpt lat="42.93147" lon="16.92304">
        <ele>118</ele>
        <time>2016-07-12T17:28:06Z</time>
      </trkpt>
      <trkpt lat="42.93158" lon="16.92325">
        <ele>118</ele>
        <time>2016-07-12T17:30:06Z</time>
      </trkpt>
      <trkpt lat="42.93163" lon="16.92335">
        <ele>119</ele>
        <time>2016-07-12T17:32:06Z</time>
      </trkpt>
      <trkpt lat="42.93169" lon="16.92345">
        <ele>119</ele>
        <time>2016-07-12T17:34:06Z</time>
      </trkpt>
      <trkpt lat="42.93188" lon="16.92375">
        <ele>120</ele>
        <time>2016-07-12T17:36:06Z</time>
      </trkpt>
      <trkpt lat="42.93195" lon="16.92387">
        <ele>120</ele>
        <time>2016-07-12T17:38:06Z</time>
      </trkpt>
      <trkpt lat="42.93208" lon="16.9241">
        <ele>119</ele>
        <time>2016-07-12T17:40:06Z</time>
      </trkpt>
      <trkpt lat="42.93222" lon="16.92436">
        <ele>119</ele>
        <time>2016-07-12T17:42:06Z</time>
      </trkpt>
      <trkpt lat="42.93228" lon="16.9245">
        <ele>119</ele>
        <time>2016-07-12T17:44:06Z</time>
      </trkpt>
      <trkpt lat="42.9324" lon="16.92478">
        <ele>119</ele>
        <time>2016-07-12T17:46:06Z</time>
      </trkpt>
      <trkpt lat="42.93248" lon="16.92504">
        <ele>118</ele>
        <time>2016-07-12T17:48:06Z</time>
      </trkpt>
      <trkpt lat="42.93255" lon="16.92527">
        <ele>118</ele>
        <time>2016-07-12T17:50:06Z</time>
      </trkpt>
      <trkpt lat="42.93262" lon="16.9255">
        <ele>119</ele>
        <time>2016-07-12T17:52:06Z</time>
      </trkpt>
      <trkpt lat="42.93269" lon="16.92574">
        <ele>119</ele>
        <time>2016-07-12T17:54:06Z</time>
      </trkpt>
      <trkpt lat="42.9328" lon="16.92616">
        <ele>121</ele>
        <time>2016-07-12T17:56:06Z</time>
      </trkpt>
      <trkpt lat="42.93289" lon="16.9266">
        <ele>121</ele>
        <time>2016-07-12T17:58:06Z</time>
      </trkpt>
      <trkpt lat="42.93298" lon="16.92701">
        <ele>121</ele>
        <time>2016-07-12T18:00:06Z</time>
      </trkpt>
      <trkpt lat="42.93308" lon="16.92759">
        <ele>119</ele>
        <time>2016-07-12T18:02:06Z</time>
      </trkpt>
      <trkpt lat="42.93312" lon="16.92787">
        <ele>119</ele>
        <time>2016-07-12T18:04:06Z</time>
      </trkpt>
      <trkpt lat="42.93316" lon="16.92815">
        <ele>118</ele>
        <time>2016-07-12T18:06:06Z</time>
      </trkpt>
      <trkpt lat="42.9332" lon="16.92843">
        <ele>118</ele>
        <time>2016-07-12T18:08:06Z</time>
      </trkpt>
      <trkpt lat="42.93323" lon="16.92867">
        <ele>117</ele>
        <time>2016-07-12T18:10:06Z</time>
      </trkpt>
      <trkpt lat="42.93327" lon="16.92914">
        <ele>117</ele>
        <time>2016-07-12T18:12:06Z</time>
      </trkpt>
      <trkpt lat="42.9333" lon="16.92962">
        <ele>117</ele>
        <time>2016-07-12T18:14:06Z</time>
      </trkpt>
      <trkpt lat="42.93331" lon="16.92974">
        <ele>117</ele>
        <time>2016-07-12T18:16:06Z</time>
      </trkpt>
      <trkpt lat="42.93333" lon="16.92985">
        <ele>117</ele>
        <time>2016-07-12T18:18:06Z</time>
      </trkpt>
      <trkpt lat="42.93335" lon="16.92996">
        <ele>118</ele>
        <time>2016-07-12T18:20:06Z</time>
      </trkpt>
      <trkpt lat="42.93336" lon="16.93008">
        <ele>117</ele>
        <time>2016-07-12T18:22:06Z</time>
      </trkpt>
      <trkpt lat="42.93338" lon="16.93019">
        <ele>117</ele>
        <time>2016-07-12T18:24:06Z</time>
      </trkpt>
      <trkpt lat="42.93341" lon="16.9303">
        <ele>117</ele>
        <time>2016-07-12T18:26:06Z</time>
      </trkpt>
      <trkpt lat="42.93344" lon="16.93042">
        <ele>117</ele>
        <time>2016-07-12T18:28:06Z</time>
      </trkpt>
      <trkpt lat="42.93347" lon="16.93051">
        <ele>117</ele>
        <time>2016-07-12T18:30:06Z</time>
      </trkpt>
      <trkpt lat="42.9335" lon="16.93058">
        <ele>117</ele>
        <time>2016-07-12T18:32:06Z</time>
      </trkpt>
      <trkpt lat="42.93352" lon="16.93063">
        <ele>118</ele>
        <time>2016-07-12T18:34:06Z</time>
      </trkpt>
      <trkpt lat="42.93357" lon="16.93073">
        <ele>118</ele>
        <time>2016-07-12T18:36:06Z</time>
      </trkpt>
      <trkpt lat="42.93362" lon="16.93083">
        <ele>119</ele>
        <time>2016-07-12T18:38:06Z</time>
      </trkpt>
      <trkpt lat="42.93368" lon="16.93092">
        <ele>119</ele>
        <time>2016-07-12T18:40:06Z</time>
      </trkpt>
      <trkpt lat="42.93373" lon="16.93101">
        <ele>119</ele>
        <time>2016-07-12T18:42:06Z</time>
      </trkpt>
      <trkpt lat="42.93379" lon="16.9311">
        <ele>120</ele>
        <time>2016-07-12T18:44:06Z</time>
      </trkpt>
      <trkpt lat="42.93393" lon="16.9313">
        <ele>120</ele>
        <time>2016-07-12T18:46:06Z</time>
      </trkpt>
      <trkpt lat="42.93411" lon="16.93152">
        <ele>120</ele>
        <time>2016-07-12T18:48:06Z</time>
      </trkpt>
      <trkpt lat="42.93419" lon="16.93165">
        <ele>120</ele>
        <time>2016-07-12T18:50:06Z</time>
      </trkpt>
      <trkpt lat="42.93427" lon="16.93181">
        <ele>121</ele>
        <time>2016-07-12T18:52:06Z</time>
      </trkpt>
      <trkpt lat="42.93431" lon="16.93196">
        <ele>121</ele>
        <time>2016-07-12T18:54:06Z</time>
      </trkpt>
      <trkpt lat="42.93436" lon="16.93211">
        <ele>121</ele>
        <time>2016-07-12T18:56:06Z</time>
      </trkpt>
      <trkpt lat="42.93439" lon="16.93221">
        <ele>121</ele>
        <time>2016-07-12T18:58:06Z</time>
      </trkpt>
      <trkpt lat="42.9344" lon="16.93225">
        <ele>121</ele>
        <time>2016-07-12T19:00:06Z</time>
      </trkpt>
      <trkpt lat="42.93444" lon="16.93233">
        <ele>121</ele>
        <time>2016-07-12T19:02:06Z</time>
      </trkpt>
      <trkpt lat="42.93452" lon="16.93249">
        <ele>121</ele>
        <time>2016-07-12T19:04:06Z</time>
      </trkpt>
      <trkpt lat="42.93532" lon="16.9341">
        <ele>129</ele>
        <time>2016-07-12T19:06:06Z</time>
      </trkpt>
      <trkpt lat="42.93536" lon="16.93418">
        <ele>129</ele>
        <time>2016-07-12T19:08:06Z</time>
      </trkpt>
      <trkpt lat="42.9354" lon="16.93425">
        <ele>130</ele>
        <time>2016-07-12T19:10:06Z</time>
      </trkpt>
      <trkpt lat="42.93544" lon="16.93433">
        <ele>130</ele>
        <time>2016-07-12T19:12:06Z</time>
      </trkpt>
      <trkpt lat="42.93548" lon="16.93441">
        <ele>131</ele>
        <time>2016-07-12T19:14:06Z</time>
      </trkpt>
      <trkpt lat="42.93552" lon="16.93449">
        <ele>131</ele>
        <time>2016-07-12T19:16:06Z</time>
      </trkpt>
      <trkpt lat="42.93555" lon="16.93456">
        <ele>132</ele>
        <time>2016-07-12T19:18:06Z</time>
      </trkpt>
      <trkpt lat="42.93559" lon="16.93465">
        <ele>132</ele>
        <time>2016-07-12T19:20:06Z</time>
      </trkpt>
      <trkpt lat="42.93562" lon="16.93473">
        <ele>132</ele>
        <time>2016-07-12T19:22:06Z</time>
      </trkpt>
      <trkpt lat="42.93569" lon="16.93498">
        <ele>133</ele>
        <time>2016-07-12T19:24:06Z</time>
      </trkpt>
      <trkpt lat="42.93571" lon="16.93519">
        <ele>134</ele>
        <time>2016-07-12T19:26:06Z</time>
      </trkpt>
      <trkpt lat="42.93572" lon="16.93532">
        <ele>134</ele>
        <time>2016-07-12T19:28:06Z</time>
      </trkpt>
      <trkpt lat="42.93573" lon="16.93545">
        <ele>134</ele>
        <time>2016-07-12T19:30:06Z</time>
      </trkpt>
      <trkpt lat="42.93573" lon="16.93558">
        <ele>134</ele>
        <time>2016-07-12T19:32:06Z</time>
      </trkpt>
      <trkpt lat="42.93572" lon="16.93571">
        <ele>134</ele>
        <time>2016-07-12T19:34:06Z</time>
      </trkpt>
      <trkpt lat="42.93572" lon="16.93585">
        <ele>134</ele>
        <time>2016-07-12T19:36:06Z</time>
      </trkpt>
      <trkpt lat="42.93571" lon="16.93598">
        <ele>135</ele>
        <time>2016-07-12T19:38:06Z</time>
      </trkpt>
      <trkpt lat="42.9357" lon="16.93611">
        <ele>135</ele>
        <time>2016-07-12T19:40:06Z</time>
      </trkpt>
      <trkpt lat="42.93556" lon="16.93747">
        <ele>133</ele>
        <time>2016-07-12T19:42:06Z</time>
      </trkpt>
      <trkpt lat="42.93555" lon="16.93765">
        <ele>132</ele>
        <time>2016-07-12T19:44:06Z</time>
      </trkpt>
      <trkpt lat="42.93553" lon="16.93841">
        <ele>130</ele>
        <time>2016-07-12T19:46:06Z</time>
      </trkpt>
      <trkpt lat="42.93552" lon="16.93866">
        <ele>130</ele>
        <time>2016-07-12T19:48:06Z</time>
      </trkpt>
      <trkpt lat="42.93552" lon="16.93889">
        <ele>130</ele>
        <time>2016-07-12T19:50:06Z</time>
      </trkpt>
      <trkpt lat="42.93552" lon="16.93903">
        <ele>130</ele>
        <time>2016-07-12T19:52:06Z</time>
      </trkpt>
      <trkpt lat="42.93552" lon="16.93913">
        <ele>130</ele>
        <time>2016-07-12T19:54:06Z</time>
      </trkpt>
      <trkpt lat="42.93551" lon="16.93937">
        <ele>129</ele>
        <time>2016-07-12T19:56:06Z</time>
      </trkpt>
      <trkpt lat="42.93549" lon="16.93976">
        <ele>129</ele>
        <time>2016-07-12T19:58:06Z</time>
      </trkpt>
      <trkpt lat="42.93543" lon="16.94006">
        <ele>128</ele>
        <time>2016-07-12T20:00:06Z</time>
      </trkpt>
      <trkpt lat="42.93538" lon="16.94017">
        <ele>127</ele>
        <time>2016-07-12T20:02:06Z</time>
      </trkpt>
      <trkpt lat="42.93533" lon="16.94029">
        <ele>126</ele>
        <time>2016-07-12T20:04:06Z</time>
      </trkpt>
      <trkpt lat="42.93527" lon="16.94041">
        <ele>125</ele>
        <time>2016-07-12T20:06:06Z</time>
      </trkpt>
      <trkpt lat="42.93523" lon="16.94053">
        <ele>124</ele>
        <time>2016-07-12T20:08:06Z</time>
      </trkpt>
      <trkpt lat="42.93518" lon="16.94066">
        <ele>123</ele>
        <time>2016-07-12T20:10:06Z</time>
      </trkpt>
      <trkpt lat="42.93512" lon="16.94079">
        <ele>123</ele>
        <time>2016-07-12T20:12:06Z</time>
      </trkpt>
      <trkpt lat="42.93506" lon="16.94097">
        <ele>122</ele>
        <time>2016-07-12T20:14:06Z</time>
      </trkpt>
      <trkpt lat="42.93498" lon="16.94131">
        <ele>121</ele>
        <time>2016-07-12T20:16:06Z</time>
      </trkpt>
      <trkpt lat="42.93493" lon="16.94172">
        <ele>120</ele>
        <time>2016-07-12T20:18:06Z</time>
      </trkpt>
      <trkpt lat="42.93494" lon="16.94206">
        <ele>120</ele>
        <time>2016-07-12T20:20:06Z</time>
      </trkpt>
      <trkpt lat="42.93496" lon="16.94229">
        <ele>120</ele>
        <time>2016-07-12T20:22:06Z</time>
      </trkpt>
      <trkpt lat="42.93497" lon="16.94241">
        <ele>120</ele>
        <time>2016-07-12T20:24:06Z</time>
      </trkpt>
      <trkpt lat="42.93497" lon="16.94246">
        <ele>120</ele>
        <time>2016-07-12T20:26:06Z</time>
      </trkpt>
      <trkpt lat="42.935" lon="16.94264">
        <ele>120</ele>
        <time>2016-07-12T20:28:06Z</time>
      </trkpt>
      <trkpt lat="42.93501" lon="16.94287">
        <ele>119</ele>
        <time>2016-07-12T20:30:06Z</time>
      </trkpt>
      <trkpt lat="42.93504" lon="16.9433">
        <ele>118</ele>
        <time>2016-07-12T20:32:06Z</time>
      </trkpt>
      <trkpt lat="42.9351" lon="16.94385">
        <ele>118</ele>
        <time>2016-07-12T20:34:06Z</time>
      </trkpt>
      <trkpt lat="42.93515" lon="16.94442">
        <ele>117</ele>
        <time>2016-07-12T20:36:06Z</time>
      </trkpt>
      <trkpt lat="42.93531" lon="16.94531">
        <ele>117</ele>
        <time>2016-07-12T20:38:06Z</time>
      </trkpt>
      <trkpt lat="42.93518" lon="16.9471">
        <ele>116</ele>
        <time>2016-07-12T20:40:06Z</time>
      </trkpt>
      <trkpt lat="42.93505" lon="16.95295">
        <ele>130</ele>
        <time>2016-07-12T20:42:06Z</time>
      </trkpt>
      <trkpt lat="42.93505" lon="16.95303">
        <ele>130</ele>
        <time>2016-07-12T20:44:06Z</time>
      </trkpt>
      <trkpt lat="42.93504" lon="16.95312">
        <ele>130</ele>
        <time>2016-07-12T20:46:06Z</time>
      </trkpt>
      <trkpt lat="42.93504" lon="16.9532">
        <ele>131</ele>
        <time>2016-07-12T20:48:06Z</time>
      </trkpt>
      <trkpt lat="42.93503" lon="16.95324">
        <ele>131</ele>
        <time>2016-07-12T20:50:06Z</time>
      </trkpt>
      <trkpt lat="42.93502" lon="16.95344">
        <ele>131</ele>
        <time>2016-07-12T20:52:06Z</time>
      </trkpt>
      <trkpt lat="42.93498" lon="16.95366">
        <ele>132</ele>
        <time>2016-07-12T20:54:06Z</time>
      </trkpt>
      <trkpt lat="42.93489" lon="16.95396">
        <ele>133</ele>
        <time>2016-07-12T20:56:06Z</time>
      </trkpt>
      <trkpt lat="42.93444" lon="16.95534">
        <ele>137</ele>
        <time>2016-07-12T20:58:06Z</time>
      </trkpt>
      <trkpt lat="42.93426" lon="16.95592">
        <ele>139</ele>
        <time>2016-07-12T21:00:06Z</time>
      </trkpt>
      <trkpt lat="42.93425" lon="16.95599">
        <ele>139</ele>
        <time>2016-07-12T21:02:06Z</time>
      </trkpt>
      <trkpt lat="42.93423" lon="16.95612">
        <ele>139</ele>
        <time>2016-07-12T21:04:06Z</time>
      </trkpt>
      <trkpt lat="42.93421" lon="16.95624">
        <ele>139</ele>
        <time>2016-07-12T21:06:06Z</time>
      </trkpt>
      <trkpt lat="42.9342" lon="16.95636">
        <ele>140</ele>
        <time>2016-07-12T21:08:06Z</time>
      </trkpt>
      <trkpt lat="42.93416" lon="16.95661">
        <ele>140</ele>
        <time>2016-07-12T21:10:06Z</time>
      </trkpt>
      <trkpt lat="42.93413" lon="16.95686">
        <ele>140</ele>
        <time>2016-07-12T21:12:06Z</time>
      </trkpt>
      <trkpt lat="42.9341" lon="16.9571">
        <ele>140</ele>
        <time>2016-07-12T21:14:06Z</time>
      </trkpt>
      <trkpt lat="42.93407" lon="16.95735">
        <ele>140</ele>
        <time>2016-07-12T21:16:06Z</time>
      </trkpt>
      <trkpt lat="42.93405" lon="16.9576">
        <ele>140</ele>
        <time>2016-07-12T21:18:06Z</time>
      </trkpt>
      <trkpt lat="42.93401" lon="16.95785">
        <ele>141</ele>
        <time>2016-07-12T21:20:06Z</time>
      </trkpt>
      <trkpt lat="42.93399" lon="16.95809">
        <ele>140</ele>
        <time>2016-07-12T21:22:06Z</time>
      </trkpt>
      <trkpt lat="42.93397" lon="16.95834">
        <ele>140</ele>
        <time>2016-07-12T21:24:06Z</time>
      </trkpt>
      <trkpt lat="42.93397" lon="16.9586">
        <ele>140</ele>
        <time>2016-07-12T21:26:06Z</time>
      </trkpt>
      <trkpt lat="42.93398" lon="16.95866">
        <ele>140</ele>
        <time>2016-07-12T21:28:06Z</time>
      </trkpt>
      <trkpt lat="42.93397" lon="16.95884">
        <ele>140</ele>
        <time>2016-07-12T21:30:06Z</time>
      </trkpt>
      <trkpt lat="42.93397" lon="16.95909">
        <ele>139</ele>
        <time>2016-07-12T21:32:06Z</time>
      </trkpt>
      <trkpt lat="42.93398" lon="16.95934">
        <ele>139</ele>
        <time>2016-07-12T21:34:06Z</time>
      </trkpt>
      <trkpt lat="42.93398" lon="16.95959">
        <ele>139</ele>
        <time>2016-07-12T21:36:06Z</time>
      </trkpt>
      <trkpt lat="42.93397" lon="16.95972">
        <ele>139</ele>
        <time>2016-07-12T21:38:06Z</time>
      </trkpt>
      <trkpt lat="42.93397" lon="16.95986">
        <ele>139</ele>
        <time>2016-07-12T21:40:06Z</time>
      </trkpt>
      <trkpt lat="42.93397" lon="16.95999">
        <ele>139</ele>
        <time>2016-07-12T21:42:06Z</time>
      </trkpt>
      <trkpt lat="42.93397" lon="16.96012">
        <ele>139</ele>
        <time>2016-07-12T21:44:06Z</time>
      </trkpt>
      <trkpt lat="42.93398" lon="16.96025">
        <ele>139</ele>
        <time>2016-07-12T21:46:06Z</time>
      </trkpt>
      <trkpt lat="42.93399" lon="16.96036">
        <ele>138</ele>
        <time>2016-07-12T21:48:06Z</time>
      </trkpt>
      <trkpt lat="42.934" lon="16.96046">
        <ele>138</ele>
        <time>2016-07-12T21:50:06Z</time>
      </trkpt>
      <trkpt lat="42.93401" lon="16.96057">
        <ele>138</ele>
        <time>2016-07-12T21:52:06Z</time>
      </trkpt>
      <trkpt lat="42.93403" lon="16.96084">
        <ele>137</ele>
        <time>2016-07-12T21:54:06Z</time>
      </trkpt>
      <trkpt lat="42.9341" lon="16.96119">
        <ele>136</ele>
        <time>2016-07-12T21:56:06Z</time>
      </trkpt>
      <trkpt lat="42.93419" lon="16.96159">
        <ele>135</ele>
        <time>2016-07-12T21:58:06Z</time>
      </trkpt>
      <trkpt lat="42.93421" lon="16.9617">
        <ele>135</ele>
        <time>2016-07-12T22:00:06Z</time>
      </trkpt>
      <trkpt lat="42.93424" lon="16.96181">
        <ele>136</ele>
        <time>2016-07-12T22:02:06Z</time>
      </trkpt>
      <trkpt lat="42.93426" lon="16.96193">
        <ele>136</ele>
        <time>2016-07-12T22:04:06Z</time>
      </trkpt>
      <trkpt lat="42.93427" lon="16.96203">
        <ele>136</ele>
        <time>2016-07-12T22:06:06Z</time>
      </trkpt>
      <trkpt lat="42.93427" lon="16.96204">
        <ele>136</ele>
        <time>2016-07-12T22:08:06Z</time>
      </trkpt>
      <trkpt lat="42.93434" lon="16.96233">
        <ele>137</ele>
        <time>2016-07-12T22:10:06Z</time>
      </trkpt>
      <trkpt lat="42.93437" lon="16.96264">
        <ele>137</ele>
        <time>2016-07-12T22:12:06Z</time>
      </trkpt>
      <trkpt lat="42.93437" lon="16.96301">
        <ele>137</ele>
        <time>2016-07-12T22:14:06Z</time>
      </trkpt>
      <trkpt lat="42.93431" lon="16.96372">
        <ele>135</ele>
        <time>2016-07-12T22:16:06Z</time>
      </trkpt>
      <trkpt lat="42.93428" lon="16.96424">
        <ele>132</ele>
        <time>2016-07-12T22:18:06Z</time>
      </trkpt>
      <trkpt lat="42.93427" lon="16.96465">
        <ele>129</ele>
        <time>2016-07-12T22:20:06Z</time>
      </trkpt>
      <trkpt lat="42.93429" lon="16.96495">
        <ele>128</ele>
        <time>2016-07-12T22:22:06Z</time>
      </trkpt>
      <trkpt lat="42.93429" lon="16.965">
        <ele>128</ele>
        <time>2016-07-12T22:24:06Z</time>
      </trkpt>
      <trkpt lat="42.93462" lon="16.9663">
        <ele>126</ele>
        <time>2016-07-12T22:26:06Z</time>
      </trkpt>
      <trkpt lat="42.93475" lon="16.96688">
        <ele>126</ele>
        <time>2016-07-12T22:28:06Z</time>
      </trkpt>
      <trkpt lat="42.93476" lon="16.96707">
        <ele>126</ele>
        <time>2016-07-12T22:30:06Z</time>
      </trkpt>
      <trkpt lat="42.9348" lon="16.96753">
        <ele>127</ele>
        <time>2016-07-12T22:32:06Z</time>
      </trkpt>
      <trkpt lat="42.93475" lon="16.96848">
        <ele>125</ele>
        <time>2016-07-12T22:34:06Z</time>
      </trkpt>
      <trkpt lat="42.93477" lon="16.96931">
        <ele>124</ele>
        <time>2016-07-12T22:36:06Z</time>
      </trkpt>
      <trkpt lat="42.93489" lon="16.97022">
        <ele>121</ele>
        <time>2016-07-12T22:38:06Z</time>
      </trkpt>
      <trkpt lat="42.93506" lon="16.97082">
        <ele>120</ele>
        <time>2016-07-12T22:40:06Z</time>
      </trkpt>
      <trkpt lat="42.93511" lon="16.97094">
        <ele>120</ele>
        <time>2016-07-12T22:42:06Z</time>
      </trkpt>
      <trkpt lat="42.93566" lon="16.97229">
        <ele>120</ele>
        <time>2016-07-12T22:44:06Z</time>
      </trkpt>
      <trkpt lat="42.93577" lon="16.97258">
        <ele>120</ele>
        <time>2016-07-12T22:46:06Z</time>
      </trkpt>
      <trkpt lat="42.93596" lon="16.973">
        <ele>122</ele>
        <time>2016-07-12T22:48:06Z</time>
      </trkpt>
      <trkpt lat="42.93601" lon="16.97312">
        <ele>122</ele>
        <time>2016-07-12T22:50:06Z</time>
      </trkpt>
      <trkpt lat="42.93605" lon="16.97329">
        <ele>122</ele>
        <time>2016-07-12T22:52:06Z</time>
      </trkpt>
      <trkpt lat="42.93608" lon="16.97354">
        <ele>122</ele>
        <time>2016-07-12T22:54:06Z</time>
      </trkpt>
      <trkpt lat="42.93607" lon="16.97375">
        <ele>121</ele>
        <time>2016-07-12T22:56:06Z</time>
      </trkpt>
      <trkpt lat="42.93604" lon="16.97394">
        <ele>120</ele>
        <time>2016-07-12T22:58:06Z</time>
      </trkpt>
      <trkpt lat="42.93598" lon="16.97428">
        <ele>118</ele>
        <time>2016-07-12T23:00:06Z</time>
      </trkpt>
      <trkpt lat="42.93589" lon="16.97465">
        <ele>116</ele>
        <time>2016-07-12T23:02:06Z</time>
      </trkpt>
      <trkpt lat="42.9357" lon="16.97507">
        <ele>114</ele>
        <time>2016-07-12T23:04:06Z</time>
      </trkpt>
      <trkpt lat="42.9353" lon="16.97573">
        <ele>113</ele>
        <time>2016-07-12T23:06:06Z</time>
      </trkpt>
      <trkpt lat="42.93507" lon="16.97619">
        <ele>110</ele>
        <time>2016-07-12T23:08:06Z</time>
      </trkpt>
      <trkpt lat="42.93498" lon="16.97639">
        <ele>109</ele>
        <time>2016-07-12T23:10:06Z</time>
      </trkpt>
      <trkpt lat="42.93493" lon="16.97663">
        <ele>110</ele>
        <time>2016-07-12T23:12:06Z</time>
      </trkpt>
      <trkpt lat="42.93494" lon="16.97692">
        <ele>110</ele>
        <time>2016-07-12T23:14:06Z</time>
      </trkpt>
      <trkpt lat="42.93499" lon="16.97756">
        <ele>111</ele>
        <time>2016-07-12T23:16:06Z</time>
      </trkpt>
      <trkpt lat="42.93499" lon="16.97767">
        <ele>111</ele>
        <time>2016-07-12T23:18:06Z</time>
      </trkpt>
      <trkpt lat="42.93497" lon="16.97778">
        <ele>111</ele>
        <time>2016-07-12T23:20:06Z</time>
      </trkpt>
      <trkpt lat="42.93496" lon="16.97793">
        <ele>111</ele>
        <time>2016-07-12T23:22:06Z</time>
      </trkpt>
      <trkpt lat="42.93489" lon="16.97817">
        <ele>110</ele>
        <time>2016-07-12T23:24:06Z</time>
      </trkpt>
      <trkpt lat="42.93473" lon="16.97869">
        <ele>109</ele>
        <time>2016-07-12T23:26:06Z</time>
      </trkpt>
      <trkpt lat="42.93469" lon="16.97888">
        <ele>109</ele>
        <time>2016-07-12T23:28:06Z</time>
      </trkpt>
      <trkpt lat="42.93466" lon="16.9791">
        <ele>109</ele>
        <time>2016-07-12T23:30:06Z</time>
      </trkpt>
      <trkpt lat="42.93464" lon="16.9793">
        <ele>110</ele>
        <time>2016-07-12T23:32:06Z</time>
      </trkpt>
      <trkpt lat="42.93462" lon="16.97955">
        <ele>111</ele>
        <time>2016-07-12T23:34:06Z</time>
      </trkpt>
      <trkpt lat="42.93455" lon="16.97982">
        <ele>110</ele>
        <time>2016-07-12T23:36:06Z</time>
      </trkpt>
      <trkpt lat="42.93438" lon="16.98017">
        <ele>106</ele>
        <time>2016-07-12T23:38:06Z</time>
      </trkpt>
      <trkpt lat="42.93419" lon="16.98045">
        <ele>101</ele>
        <time>2016-07-12T23:40:06Z</time>
      </trkpt>
      <trkpt lat="42.93405" lon="16.98067">
        <ele>99</ele>
        <time>2016-07-12T23:42:06Z</time>
      </trkpt>
      <trkpt lat="42.93393" lon="16.98088">
        <ele>98</ele>
        <time>2016-07-12T23:44:06Z</time>
      </trkpt>
      <trkpt lat="42.93392" lon="16.98091">
        <ele>97</ele>
        <time>2016-07-12T23:46:06Z</time>
      </trkpt>
      <trkpt lat="42.93388" lon="16.98114">
        <ele>97</ele>
        <time>2016-07-12T23:48:06Z</time>
      </trkpt>
      <trkpt lat="42.93389" lon="16.98136">
        <ele>99</ele>
        <time>2016-07-12T23:50:06Z</time>
      </trkpt>
      <trkpt lat="42.93395" lon="16.98157">
        <ele>103</ele>
        <time>2016-07-12T23:52:06Z</time>
      </trkpt>
      <trkpt lat="42.93399" lon="16.98185">
        <ele>106</ele>
        <time>2016-07-12T23:54:06Z</time>
      </trkpt>
      <trkpt lat="42.93403" lon="16.9821">
        <ele>107</ele>
        <time>2016-07-12T23:56:06Z</time>
      </trkpt>
      <trkpt lat="42.93403" lon="16.98232">
        <ele>108</ele>
        <time>2016-07-12T23:58:06Z</time>
      </trkpt>
      <trkpt lat="42.93403" lon="16.98246">
        <ele>108</ele>
        <time>2016-07-13T00:00:06Z</time>
      </trkpt>
      <trkpt lat="42.93402" lon="16.98259">
        <ele>108</ele>
        <time>2016-07-13T00:02:06Z</time>
      </trkpt>
      <trkpt lat="42.93399" lon="16.98268">
        <ele>108</ele>
        <time>2016-07-13T00:04:06Z</time>
      </trkpt>
      <trkpt lat="42.93396" lon="16.98274">
        <ele>108</ele>
        <time>2016-07-13T00:06:06Z</time>
      </trkpt>
      <trkpt lat="42.9339" lon="16.98283">
        <ele>108</ele>
        <time>2016-07-13T00:08:06Z</time>
      </trkpt>
      <trkpt lat="42.93383" lon="16.98287">
        <ele>107</ele>
        <time>2016-07-13T00:10:06Z</time>
      </trkpt>
      <trkpt lat="42.93371" lon="16.98288">
        <ele>105</ele>
        <time>2016-07-13T00:12:06Z</time>
      </trkpt>
      <trkpt lat="42.93341" lon="16.98282">
        <ele>99</ele>
        <time>2016-07-13T00:14:06Z</time>
      </trkpt>
      <trkpt lat="42.93318" lon="16.98291">
        <ele>95</ele>
        <time>2016-07-13T00:16:06Z</time>
      </trkpt>
      <trkpt lat="42.93305" lon="16.98307">
        <ele>95</ele>
        <time>2016-07-13T00:18:06Z</time>
      </trkpt>
      <trkpt lat="42.93291" lon="16.98341">
        <ele>95</ele>
        <time>2016-07-13T00:20:06Z</time>
      </trkpt>
      <trkpt lat="42.93285" lon="16.98368">
        <ele>96</ele>
        <time>2016-07-13T00:22:06Z</time>
      </trkpt>
      <trkpt lat="42.93282" lon="16.9841">
        <ele>98</ele>
        <time>2016-07-13T00:24:06Z</time>
      </trkpt>
      <trkpt lat="42.93288" lon="16.98463">
        <ele>103</ele>
        <time>2016-07-13T00:26:06Z</time>
      </trkpt>
      <trkpt lat="42.93285" lon="16.98542">
        <ele>104</ele>
        <time>2016-07-13T00:28:06Z</time>
      </trkpt>
      <trkpt lat="42.93283" lon="16.98566">
        <ele>104</ele>
        <time>2016-07-13T00:30:06Z</time>
      </trkpt>
      <trkpt lat="42.93283" lon="16.98579">
        <ele>105</ele>
        <time>2016-07-13T00:32:06Z</time>
      </trkpt>
      <trkpt lat="42.93285" lon="16.98595">
        <ele>105</ele>
        <time>2016-07-13T00:34:06Z</time>
      </trkpt>
      <trkpt lat="42.93289" lon="16.98607">
        <ele>106</ele>
        <time>2016-07-13T00:36:06Z</time>
      </trkpt>
      <trkpt lat="42.93302" lon="16.98621">
        <ele>109</ele>
        <time>2016-07-13T00:38:06Z</time>
      </trkpt>
      <trkpt lat="42.93312" lon="16.98633">
        <ele>111</ele>
        <time>2016-07-13T00:40:06Z</time>
      </trkpt>
      <trkpt lat="42.9332" lon="16.98644">
        <ele>112</ele>
        <time>2016-07-13T00:42:06Z</time>
      </trkpt>
      <trkpt lat="42.93324" lon="16.98662">
        <ele>111</ele>
        <time>2016-07-13T00:44:06Z</time>
      </trkpt>
      <trkpt lat="42.93326" lon="16.98673">
        <ele>112</ele>
        <time>2016-07-13T00:46:06Z</time>
      </trkpt>
      <trkpt lat="42.93326" lon="16.9869">
        <ele>114</ele>
        <time>2016-07-13T00:48:06Z</time>
      </trkpt>
      <trkpt lat="42.9332" lon="16.98708">
        <ele>115</ele>
        <time>2016-07-13T00:50:06Z</time>
      </trkpt>
      <trkpt lat="42.9331" lon="16.98725">
        <ele>115</ele>
        <time>2016-07-13T00:52:06Z</time>
      </trkpt>
      <trkpt lat="42.933" lon="16.98765">
        <ele>120</ele>
        <time>2016-07-13T00:54:06Z</time>
      </trkpt>
      <trkpt lat="42.93297" lon="16.9878">
        <ele>122</ele>
        <time>2016-07-13T00:56:06Z</time>
      </trkpt>
      <trkpt lat="42.93295" lon="16.98789">
        <ele>124</ele>
        <time>2016-07-13T00:58:06Z</time>
      </trkpt>
      <trkpt lat="42.93292" lon="16.98796">
        <ele>125</ele>
        <time>2016-07-13T01:00:06Z</time>
      </trkpt>
      <trkpt lat="42.93288" lon="16.98805">
        <ele>127</ele>
        <time>2016-07-13T01:02:06Z</time>
      </trkpt>
      <trkpt lat="42.93283" lon="16.98811">
        <ele>127</ele>
        <time>2016-07-13T01:04:06Z</time>
      </trkpt>
      <trkpt lat="42.93275" lon="16.98814">
        <ele>127</ele>
        <time>2016-07-13T01:06:06Z</time>
      </trkpt>
      <trkpt lat="42.93266" lon="16.98812">
        <ele>126</ele>
        <time>2016-07-13T01:08:06Z</time>
      </trkpt>
      <trkpt lat="42.93254" lon="16.98806">
        <ele>123</ele>
        <time>2016-07-13T01:10:06Z</time>
      </trkpt>
      <trkpt lat="42.93227" lon="16.98785">
        <ele>122</ele>
        <time>2016-07-13T01:12:06Z</time>
      </trkpt>
      <trkpt lat="42.9318" lon="16.9877">
        <ele>126</ele>
        <time>2016-07-13T01:14:06Z</time>
      </trkpt>
      <trkpt lat="42.93152" lon="16.98756">
        <ele>125</ele>
        <time>2016-07-13T01:16:06Z</time>
      </trkpt>
      <trkpt lat="42.93116" lon="16.98745">
        <ele>124</ele>
        <time>2016-07-13T01:18:06Z</time>
      </trkpt>
      <trkpt lat="42.93097" lon="16.98749">
        <ele>126</ele>
        <time>2016-07-13T01:20:06Z</time>
      </trkpt>
      <trkpt lat="42.93076" lon="16.98757">
        <ele>128</ele>
        <time>2016-07-13T01:22:06Z</time>
      </trkpt>
      <trkpt lat="42.93051" lon="16.98774">
        <ele>129</ele>
        <time>2016-07-13T01:24:06Z</time>
      </trkpt>
      <trkpt lat="42.93008" lon="16.98816">
        <ele>132</ele>
        <time>2016-07-13T01:26:06Z</time>
      </trkpt>
      <trkpt lat="42.92968" lon="16.98851">
        <ele>134</ele>
        <time>2016-07-13T01:28:06Z</time>
      </trkpt>
      <trkpt lat="42.92922" lon="16.98917">
        <ele>138</ele>
        <time>2016-07-13T01:30:06Z</time>
      </trkpt>
      <trkpt lat="42.92918" lon="16.98922">
        <ele>138</ele>
        <time>2016-07-13T01:32:06Z</time>
      </trkpt>
      <trkpt lat="42.92906" lon="16.98944">
        <ele>138</ele>
        <time>2016-07-13T01:34:06Z</time>
      </trkpt>
      <trkpt lat="42.929" lon="16.98964">
        <ele>138</ele>
        <time>2016-07-13T01:36:06Z</time>
      </trkpt>
      <trkpt lat="42.92894" lon="16.99001">
        <ele>138</ele>
        <time>2016-07-13T01:38:06Z</time>
      </trkpt>
      <trkpt lat="42.92893" lon="16.99041">
        <ele>140</ele>
        <time>2016-07-13T01:40:06Z</time>
      </trkpt>
      <trkpt lat="42.92894" lon="16.99095">
        <ele>143</ele>
        <time>2016-07-13T01:42:06Z</time>
      </trkpt>
      <trkpt lat="42.929" lon="16.99148">
        <ele>146</ele>
        <time>2016-07-13T01:44:06Z</time>
      </trkpt>
      <trkpt lat="42.92911" lon="16.9919">
        <ele>150</ele>
        <time>2016-07-13T01:46:06Z</time>
      </trkpt>
      <trkpt lat="42.92933" lon="16.99236">
        <ele>155</ele>
        <time>2016-07-13T01:48:06Z</time>
      </trkpt>
      <trkpt lat="42.92936" lon="16.99247">
        <ele>156</ele>
        <time>2016-07-13T01:50:06Z</time>
      </trkpt>
      <trkpt lat="42.92935" lon="16.99256">
        <ele>156</ele>
        <time>2016-07-13T01:52:06Z</time>
      </trkpt>
      <trkpt lat="42.92933" lon="16.99266">
        <ele>158</ele>
        <time>2016-07-13T01:54:06Z</time>
      </trkpt>
      <trkpt lat="42.92929" lon="16.99273">
        <ele>158</ele>
        <time>2016-07-13T01:56:06Z</time>
      </trkpt>
      <trkpt lat="42.92923" lon="16.9928">
        <ele>157</ele>
        <time>2016-07-13T01:58:06Z</time>
      </trkpt>
      <trkpt lat="42.92911" lon="16.99285">
        <ele>155</ele>
        <time>2016-07-13T02:00:06Z</time>
      </trkpt>
      <trkpt lat="42.92882" lon="16.99298">
        <ele>152</ele>
        <time>2016-07-13T02:02:06Z</time>
      </trkpt>
      <trkpt lat="42.92864" lon="16.99302">
        <ele>150</ele>
        <time>2016-07-13T02:04:06Z</time>
      </trkpt>
      <trkpt lat="42.92847" lon="16.99308">
        <ele>147</ele>
        <time>2016-07-13T02:06:06Z</time>
      </trkpt>
      <trkpt lat="42.92838" lon="16.99313">
        <ele>146</ele>
        <time>2016-07-13T02:08:06Z</time>
      </trkpt>
      <trkpt lat="42.92828" lon="16.99326">
        <ele>146</ele>
        <time>2016-07-13T02:10:06Z</time>
      </trkpt>
      <trkpt lat="42.92824" lon="16.99336">
        <ele>146</ele>
        <time>2016-07-13T02:12:06Z</time>
      </trkpt>
      <trkpt lat="42.92819" lon="16.99353">
        <ele>147</ele>
        <time>2016-07-13T02:14:06Z</time>
      </trkpt>
      <trkpt lat="42.9281" lon="16.99397">
        <ele>150</ele>
        <time>2016-07-13T02:16:06Z</time>
      </trkpt>
      <trkpt lat="42.928" lon="16.99431">
        <ele>151</ele>
        <time>2016-07-13T02:18:06Z</time>
      </trkpt>
      <trkpt lat="42.92789" lon="16.99451">
        <ele>151</ele>
        <time>2016-07-13T02:20:06Z</time>
      </trkpt>
      <trkpt lat="42.92754" lon="16.99496">
        <ele>148</ele>
        <time>2016-07-13T02:22:06Z</time>
      </trkpt>
      <trkpt lat="42.92734" lon="16.99524">
        <ele>145</ele>
        <time>2016-07-13T02:24:06Z</time>
      </trkpt>
      <trkpt lat="42.92728" lon="16.99546">
        <ele>144</ele>
        <time>2016-07-13T02:26:06Z</time>
      </trkpt>
      <trkpt lat="42.92725" lon="16.99571">
        <ele>145</ele>
        <time>2016-07-13T02:28:06Z</time>
      </trkpt>
      <trkpt lat="42.92726" lon="16.99591">
        <ele>146</ele>
        <time>2016-07-13T02:30:06Z</time>
      </trkpt>
      <trkpt lat="42.92731" lon="16.99614">
        <ele>145</ele>
        <time>2016-07-13T02:32:06Z</time>
      </trkpt>
      <trkpt lat="42.9274" lon="16.9963">
        <ele>146</ele>
        <time>2016-07-13T02:34:06Z</time>
      </trkpt>
      <trkpt lat="42.92793" lon="16.99666">
        <ele>153</ele>
        <time>2016-07-13T02:36:06Z</time>
      </trkpt>
      <trkpt lat="42.92824" lon="16.99696">
        <ele>152</ele>
        <time>2016-07-13T02:38:06Z</time>
      </trkpt>
      <trkpt lat="42.92872" lon="16.99759">
        <ele>153</ele>
        <time>2016-07-13T02:40:06Z</time>
      </trkpt>
      <trkpt lat="42.92931" lon="16.99846">
        <ele>148</ele>
        <time>2016-07-13T02:42:06Z</time>
      </trkpt>
      <trkpt lat="42.92943" lon="16.99857">
        <ele>147</ele>
        <time>2016-07-13T02:44:06Z</time>
      </trkpt>
      <trkpt lat="42.92953" lon="16.99865">
        <ele>146</ele>
        <time>2016-07-13T02:46:06Z</time>
      </trkpt>
      <trkpt lat="42.92964" lon="16.99872">
        <ele>146</ele>
        <time>2016-07-13T02:48:06Z</time>
      </trkpt>
      <trkpt lat="42.92978" lon="16.99878">
        <ele>147</ele>
        <time>2016-07-13T02:50:06Z</time>
      </trkpt>
      <trkpt lat="42.93003" lon="16.99884">
        <ele>149</ele>
        <time>2016-07-13T02:52:06Z</time>
      </trkpt>
      <trkpt lat="42.93021" lon="16.99884">
        <ele>152</ele>
        <time>2016-07-13T02:54:06Z</time>
      </trkpt>
      <trkpt lat="42.93039" lon="16.99884">
        <ele>155</ele>
        <time>2016-07-13T02:56:06Z</time>
      </trkpt>
      <trkpt lat="42.93051" lon="16.99886">
        <ele>157</ele>
        <time>2016-07-13T02:58:06Z</time>
      </trkpt>
      <trkpt lat="42.93094" lon="16.99902">
        <ele>159</ele>
        <time>2016-07-13T03:00:06Z</time>
      </trkpt>
      <trkpt lat="42.93124" lon="16.99913">
        <ele>168</ele>
        <time>2016-07-13T03:02:06Z</time>
      </trkpt>
      <trkpt lat="42.93132" lon="16.99918">
        <ele>170</ele>
        <time>2016-07-13T03:04:06Z</time>
      </trkpt>
      <trkpt lat="42.9314" lon="16.99924">
        <ele>173</ele>
        <time>2016-07-13T03:06:06Z</time>
      </trkpt>
      <trkpt lat="42.93144" lon="16.99931">
        <ele>174</ele>
        <time>2016-07-13T03:08:06Z</time>
      </trkpt>
      <trkpt lat="42.93146" lon="16.99942">
        <ele>174</ele>
        <time>2016-07-13T03:10:06Z</time>
      </trkpt>
      <trkpt lat="42.93145" lon="16.99959">
        <ele>171</ele>
        <time>2016-07-13T03:12:06Z</time>
      </trkpt>
      <trkpt lat="42.93135" lon="17.00007">
        <ele>160</ele>
        <time>2016-07-13T03:14:06Z</time>
      </trkpt>
      <trkpt lat="42.93125" lon="17.00051">
        <ele>154</ele>
        <time>2016-07-13T03:16:06Z</time>
      </trkpt>
      <trkpt lat="42.93123" lon="17.00067">
        <ele>153</ele>
        <time>2016-07-13T03:18:06Z</time>
      </trkpt>
      <trkpt lat="42.93122" lon="17.00076">
        <ele>153</ele>
        <time>2016-07-13T03:20:06Z</time>
      </trkpt>
      <trkpt lat="42.93122" lon="17.00086">
        <ele>152</ele>
        <time>2016-07-13T03:22:06Z</time>
      </trkpt>
      <trkpt lat="42.93125" lon="17.00096">
        <ele>152</ele>
        <time>2016-07-13T03:24:06Z</time>
      </trkpt>
      <trkpt lat="42.93143" lon="17.00138">
        <ele>154</ele>
        <time>2016-07-13T03:26:06Z</time>
      </trkpt>
      <trkpt lat="42.93174" lon="17.00198">
        <ele>152</ele>
        <time>2016-07-13T03:28:06Z</time>
      </trkpt>
      <trkpt lat="42.93186" lon="17.00221">
        <ele>147</ele>
        <time>2016-07-13T03:30:06Z</time>
      </trkpt>
      <trkpt lat="42.93194" lon="17.00231">
        <ele>147</ele>
        <time>2016-07-13T03:32:06Z</time>
      </trkpt>
      <trkpt lat="42.93198" lon="17.00237">
        <ele>146</ele>
        <time>2016-07-13T03:34:06Z</time>
      </trkpt>
      <trkpt lat="42.93203" lon="17.0024">
        <ele>147</ele>
        <time>2016-07-13T03:36:06Z</time>
      </trkpt>
      <trkpt lat="42.93214" lon="17.00242">
        <ele>151</ele>
        <time>2016-07-13T03:38:06Z</time>
      </trkpt>
      <trkpt lat="42.93237" lon="17.00243">
        <ele>160</ele>
        <time>2016-07-13T03:40:06Z</time>
      </trkpt>
      <trkpt lat="42.93252" lon="17.00248">
        <ele>164</ele>
        <time>2016-07-13T03:42:06Z</time>
      </trkpt>
      <trkpt lat="42.93259" lon="17.00253">
        <ele>164</ele>
        <time>2016-07-13T03:44:06Z</time>
      </trkpt>
      <trkpt lat="42.93275" lon="17.00271">
        <ele>163</ele>
        <time>2016-07-13T03:46:06Z</time>
      </trkpt>
      <trkpt lat="42.93295" lon="17.00303">
        <ele>157</ele>
        <time>2016-07-13T03:48:06Z</time>
      </trkpt>
      <trkpt lat="42.93306" lon="17.00322">
        <ele>152</ele>
        <time>2016-07-13T03:50:06Z</time>
      </trkpt>
      <trkpt lat="42.93312" lon="17.0033">
        <ele>150</ele>
        <time>2016-07-13T03:52:06Z</time>
      </trkpt>
      <trkpt lat="42.93318" lon="17.00334">
        <ele>150</ele>
        <time>2016-07-13T03:54:06Z</time>
      </trkpt>
      <trkpt lat="42.93325" lon="17.00335">
        <ele>152</ele>
        <time>2016-07-13T03:56:06Z</time>
      </trkpt>
      <trkpt lat="42.93356" lon="17.00327">
        <ele>163</ele>
        <time>2016-07-13T03:58:06Z</time>
      </trkpt>
      <trkpt lat="42.93393" lon="17.00313">
        <ele>179</ele>
        <time>2016-07-13T04:00:06Z</time>
      </trkpt>
      <trkpt lat="42.93405" lon="17.00311">
        <ele>183</ele>
        <time>2016-07-13T04:02:06Z</time>
      </trkpt>
      <trkpt lat="42.93413" lon="17.00311">
        <ele>184</ele>
        <time>2016-07-13T04:04:06Z</time>
      </trkpt>
      <trkpt lat="42.93418" lon="17.00312">
        <ele>186</ele>
        <time>2016-07-13T04:06:06Z</time>
      </trkpt>
      <trkpt lat="42.93424" lon="17.00315">
        <ele>188</ele>
        <time>2016-07-13T04:08:06Z</time>
      </trkpt>
      <trkpt lat="42.93432" lon="17.00324">
        <ele>189</ele>
        <time>2016-07-13T04:10:06Z</time>
      </trkpt>
      <trkpt lat="42.93436" lon="17.00334">
        <ele>187</ele>
        <time>2016-07-13T04:12:06Z</time>
      </trkpt>
      <trkpt lat="42.9344" lon="17.00356">
        <ele>187</ele>
        <time>2016-07-13T04:14:06Z</time>
      </trkpt>
      <trkpt lat="42.93441" lon="17.00371">
        <ele>186</ele>
        <time>2016-07-13T04:16:06Z</time>
      </trkpt>
      <trkpt lat="42.93438" lon="17.004">
        <ele>180</ele>
        <time>2016-07-13T04:18:06Z</time>
      </trkpt>
      <trkpt lat="42.93424" lon="17.00455">
        <ele>170</ele>
        <time>2016-07-13T04:20:06Z</time>
      </trkpt>
      <trkpt lat="42.93401" lon="17.0054">
        <ele>172</ele>
        <time>2016-07-13T04:22:06Z</time>
      </trkpt>
      <trkpt lat="42.9338" lon="17.00607">
        <ele>181</ele>
        <time>2016-07-13T04:24:06Z</time>
      </trkpt>
      <trkpt lat="42.93363" lon="17.0065">
        <ele>187</ele>
        <time>2016-07-13T04:26:06Z</time>
      </trkpt>
      <trkpt lat="42.93349" lon="17.00679">
        <ele>190</ele>
        <time>2016-07-13T04:28:06Z</time>
      </trkpt>
      <trkpt lat="42.93335" lon="17.00697">
        <ele>191</ele>
        <time>2016-07-13T04:30:06Z</time>
      </trkpt>
      <trkpt lat="42.9333" lon="17.00701">
        <ele>192</ele>
        <time>2016-07-13T04:32:06Z</time>
      </trkpt>
      <trkpt lat="42.93324" lon="17.00704">
        <ele>192</ele>
        <time>2016-07-13T04:34:06Z</time>
      </trkpt>
      <trkpt lat="42.93316" lon="17.00706">
        <ele>192</ele>
        <time>2016-07-13T04:36:06Z</time>
      </trkpt>
      <trkpt lat="42.93298" lon="17.00703">
        <ele>187</ele>
        <time>2016-07-13T04:38:06Z</time>
      </trkpt>
      <trkpt lat="42.93272" lon="17.00696">
        <ele>178</ele>
        <time>2016-07-13T04:40:06Z</time>
      </trkpt>
      <trkpt lat="42.93268" lon="17.00696">
        <ele>178</ele>
        <time>2016-07-13T04:42:06Z</time>
      </trkpt>
      <trkpt lat="42.93261" lon="17.00697">
        <ele>177</ele>
        <time>2016-07-13T04:44:06Z</time>
      </trkpt>
      <trkpt lat="42.93255" lon="17.00701">
        <ele>178</ele>
        <time>2016-07-13T04:46:06Z</time>
      </trkpt>
      <trkpt lat="42.93246" lon="17.0071">
        <ele>181</ele>
        <time>2016-07-13T04:48:06Z</time>
      </trkpt>
      <trkpt lat="42.93238" lon="17.0072">
        <ele>185</ele>
        <time>2016-07-13T04:50:06Z</time>
      </trkpt>
      <trkpt lat="42.93205" lon="17.0077">
        <ele>201</ele>
        <time>2016-07-13T04:52:06Z</time>
      </trkpt>
      <trkpt lat="42.93196" lon="17.00784">
        <ele>205</ele>
        <time>2016-07-13T04:54:06Z</time>
      </trkpt>
      <trkpt lat="42.93188" lon="17.00794">
        <ele>207</ele>
        <time>2016-07-13T04:56:06Z</time>
      </trkpt>
      <trkpt lat="42.93183" lon="17.00797">
        <ele>207</ele>
        <time>2016-07-13T04:58:06Z</time>
      </trkpt>
      <trkpt lat="42.93175" lon="17.008">
        <ele>206</ele>
        <time>2016-07-13T05:00:06Z</time>
      </trkpt>
      <trkpt lat="42.93167" lon="17.00798">
        <ele>203</ele>
        <time>2016-07-13T05:02:06Z</time>
      </trkpt>
      <trkpt lat="42.93157" lon="17.00792">
        <ele>201</ele>
        <time>2016-07-13T05:04:06Z</time>
      </trkpt>
      <trkpt lat="42.93121" lon="17.00763">
        <ele>192</ele>
        <time>2016-07-13T05:06:06Z</time>
      </trkpt>
      <trkpt lat="42.93108" lon="17.00751">
        <ele>190</ele>
        <time>2016-07-13T05:08:06Z</time>
      </trkpt>
      <trkpt lat="42.93105" lon="17.00748">
        <ele>189</ele>
        <time>2016-07-13T05:10:06Z</time>
      </trkpt>
      <trkpt lat="42.93102" lon="17.00747">
        <ele>189</ele>
        <time>2016-07-13T05:12:06Z</time>
      </trkpt>
      <trkpt lat="42.93099" lon="17.00745">
        <ele>188</ele>
        <time>2016-07-13T05:14:06Z</time>
      </trkpt>
      <trkpt lat="42.93095" lon="17.00743">
        <ele>188</ele>
        <time>2016-07-13T05:16:06Z</time>
      </trkpt>
      <trkpt lat="42.9309" lon="17.00744">
        <ele>189</ele>
        <time>2016-07-13T05:18:06Z</time>
      </trkpt>
      <trkpt lat="42.93086" lon="17.00748">
        <ele>190</ele>
        <time>2016-07-13T05:20:06Z</time>
      </trkpt>
      <trkpt lat="42.9308" lon="17.00758">
        <ele>191</ele>
        <time>2016-07-13T05:22:06Z</time>
      </trkpt>
      <trkpt lat="42.93077" lon="17.00771">
        <ele>193</ele>
        <time>2016-07-13T05:24:06Z</time>
      </trkpt>
      <trkpt lat="42.93075" lon="17.00788">
        <ele>196</ele>
        <time>2016-07-13T05:26:06Z</time>
      </trkpt>
      <trkpt lat="42.93072" lon="17.00812">
        <ele>200</ele>
        <time>2016-07-13T05:28:06Z</time>
      </trkpt>
      <trkpt lat="42.93069" lon="17.00853">
        <ele>208</ele>
        <time>2016-07-13T05:30:06Z</time>
      </trkpt>
      <trkpt lat="42.93065" lon="17.00884">
        <ele>214</ele>
        <time>2016-07-13T05:32:06Z</time>
      </trkpt>
      <trkpt lat="42.93061" lon="17.00901">
        <ele>216</ele>
        <time>2016-07-13T05:34:06Z</time>
      </trkpt>
      <trkpt lat="42.93059" lon="17.0091">
        <ele>217</ele>
        <time>2016-07-13T05:36:06Z</time>
      </trkpt>
      <trkpt lat="42.93051" lon="17.00926">
        <ele>216</ele>
        <time>2016-07-13T05:38:06Z</time>
      </trkpt>
      <trkpt lat="42.93043" lon="17.00944">
        <ele>215</ele>
        <time>2016-07-13T05:40:06Z</time>
      </trkpt>
      <trkpt lat="42.93034" lon="17.00972">
        <ele>216</ele>
        <time>2016-07-13T05:42:06Z</time>
      </trkpt>
      <trkpt lat="42.93027" lon="17.01007">
        <ele>218</ele>
        <time>2016-07-13T05:44:06Z</time>
      </trkpt>
      <trkpt lat="42.93018" lon="17.01043">
        <ele>216</ele>
        <time>2016-07-13T05:46:06Z</time>
      </trkpt>
      <trkpt lat="42.93014" lon="17.01063">
        <ele>216</ele>
        <time>2016-07-13T05:48:06Z</time>
      </trkpt>
      <trkpt lat="42.93014" lon="17.01072">
        <ele>217</ele>
        <time>2016-07-13T05:50:06Z</time>
      </trkpt>
      <trkpt lat="42.93016" lon="17.01083">
        <ele>219</ele>
        <time>2016-07-13T05:52:06Z</time>
      </trkpt>
      <trkpt lat="42.93021" lon="17.01097">
        <ele>221</ele>
        <time>2016-07-13T05:54:06Z</time>
      </trkpt>
      <trkpt lat="42.93031" lon="17.01113">
        <ele>225</ele>
        <time>2016-07-13T05:56:06Z</time>
      </trkpt>
      <trkpt lat="42.93049" lon="17.01139">
        <ele>233</ele>
        <time>2016-07-13T05:58:06Z</time>
      </trkpt>
      <trkpt lat="42.93057" lon="17.01156">
        <ele>237</ele>
        <time>2016-07-13T06:00:06Z</time>
      </trkpt>
      <trkpt lat="42.93063" lon="17.01168">
        <ele>240</ele>
        <time>2016-07-13T06:02:06Z</time>
      </trkpt>
      <trkpt lat="42.93065" lon="17.01181">
        <ele>242</ele>
        <time>2016-07-13T06:04:06Z</time>
      </trkpt>
      <trkpt lat="42.93065" lon="17.01194">
        <ele>244</ele>
        <time>2016-07-13T06:06:06Z</time>
      </trkpt>
      <trkpt lat="42.93063" lon="17.01207">
        <ele>244</ele>
        <time>2016-07-13T06:08:06Z</time>
      </trkpt>
      <trkpt lat="42.9306" lon="17.01217">
        <ele>243</ele>
        <time>2016-07-13T06:10:06Z</time>
      </trkpt>
      <trkpt lat="42.93053" lon="17.01234">
        <ele>241</ele>
        <time>2016-07-13T06:12:06Z</time>
      </trkpt>
      <trkpt lat="42.93039" lon="17.01256">
        <ele>237</ele>
        <time>2016-07-13T06:14:06Z</time>
      </trkpt>
      <trkpt lat="42.93025" lon="17.01279">
        <ele>236</ele>
        <time>2016-07-13T06:16:06Z</time>
      </trkpt>
      <trkpt lat="42.93016" lon="17.013">
        <ele>237</ele>
        <time>2016-07-13T06:18:06Z</time>
      </trkpt>
      <trkpt lat="42.93005" lon="17.01327">
        <ele>239</ele>
        <time>2016-07-13T06:20:06Z</time>
      </trkpt>
      <trkpt lat="42.93001" lon="17.01341">
        <ele>239</ele>
        <time>2016-07-13T06:22:06Z</time>
      </trkpt>
      <trkpt lat="42.92998" lon="17.01356">
        <ele>239</ele>
        <time>2016-07-13T06:24:06Z</time>
      </trkpt>
      <trkpt lat="42.92996" lon="17.01372">
        <ele>239</ele>
        <time>2016-07-13T06:26:06Z</time>
      </trkpt>
      <trkpt lat="42.92996" lon="17.01413">
        <ele>243</ele>
        <time>2016-07-13T06:28:06Z</time>
      </trkpt>
      <trkpt lat="42.93002" lon="17.01435">
        <ele>245</ele>
        <time>2016-07-13T06:30:06Z</time>
      </trkpt>
      <trkpt lat="42.93014" lon="17.01495">
        <ele>249</ele>
        <time>2016-07-13T06:32:06Z</time>
      </trkpt>
      <trkpt lat="42.93021" lon="17.01587">
        <ele>255</ele>
        <time>2016-07-13T06:34:06Z</time>
      </trkpt>
      <trkpt lat="42.93024" lon="17.01658">
        <ele>259</ele>
        <time>2016-07-13T06:36:06Z</time>
      </trkpt>
      <trkpt lat="42.93026" lon="17.01675">
        <ele>260</ele>
        <time>2016-07-13T06:38:06Z</time>
      </trkpt>
      <trkpt lat="42.93027" lon="17.0169">
        <ele>261</ele>
        <time>2016-07-13T06:40:06Z</time>
      </trkpt>
      <trkpt lat="42.93026" lon="17.01711">
        <ele>261</ele>
        <time>2016-07-13T06:42:06Z</time>
      </trkpt>
      <trkpt lat="42.93024" lon="17.01732">
        <ele>261</ele>
        <time>2016-07-13T06:44:06Z</time>
      </trkpt>
      <trkpt lat="42.9302" lon="17.01754">
        <ele>259</ele>
        <time>2016-07-13T06:46:06Z</time>
      </trkpt>
      <trkpt lat="42.93021" lon="17.01774">
        <ele>258</ele>
        <time>2016-07-13T06:48:06Z</time>
      </trkpt>
      <trkpt lat="42.93025" lon="17.01787">
        <ele>259</ele>
        <time>2016-07-13T06:50:06Z</time>
      </trkpt>
      <trkpt lat="42.93034" lon="17.01806">
        <ele>263</ele>
        <time>2016-07-13T06:52:06Z</time>
      </trkpt>
      <trkpt lat="42.93043" lon="17.01823">
        <ele>266</ele>
        <time>2016-07-13T06:54:06Z</time>
      </trkpt>
      <trkpt lat="42.93054" lon="17.01847">
        <ele>268</ele>
        <time>2016-07-13T06:56:06Z</time>
      </trkpt>
      <trkpt lat="42.93061" lon="17.01867">
        <ele>266</ele>
        <time>2016-07-13T06:58:06Z</time>
      </trkpt>
      <trkpt lat="42.93067" lon="17.0189">
        <ele>262</ele>
        <time>2016-07-13T07:00:06Z</time>
      </trkpt>
      <trkpt lat="42.9307" lon="17.01906">
        <ele>260</ele>
        <time>2016-07-13T07:02:06Z</time>
      </trkpt>
      <trkpt lat="42.93076" lon="17.0192">
        <ele>258</ele>
        <time>2016-07-13T07:04:06Z</time>
      </trkpt>
      <trkpt lat="42.93082" lon="17.01928">
        <ele>258</ele>
        <time>2016-07-13T07:06:06Z</time>
      </trkpt>
      <trkpt lat="42.93095" lon="17.01933">
        <ele>260</ele>
        <time>2016-07-13T07:08:06Z</time>
      </trkpt>
      <trkpt lat="42.93112" lon="17.01934">
        <ele>264</ele>
        <time>2016-07-13T07:10:06Z</time>
      </trkpt>
      <trkpt lat="42.93145" lon="17.01936">
        <ele>273</ele>
        <time>2016-07-13T07:12:06Z</time>
      </trkpt>
      <trkpt lat="42.93204" lon="17.01935">
        <ele>286</ele>
        <time>2016-07-13T07:14:06Z</time>
      </trkpt>
      <trkpt lat="42.93219" lon="17.01934">
        <ele>288</ele>
        <time>2016-07-13T07:16:06Z</time>
      </trkpt>
      <trkpt lat="42.93231" lon="17.01936">
        <ele>290</ele>
        <time>2016-07-13T07:18:06Z</time>
      </trkpt>
      <trkpt lat="42.93242" lon="17.01943">
        <ele>290</ele>
        <time>2016-07-13T07:20:06Z</time>
      </trkpt>
      <trkpt lat="42.93249" lon="17.01954">
        <ele>290</ele>
        <time>2016-07-13T07:22:06Z</time>
      </trkpt>
      <trkpt lat="42.93253" lon="17.01963">
        <ele>290</ele>
        <time>2016-07-13T07:24:06Z</time>
      </trkpt>
      <trkpt lat="42.93256" lon="17.01975">
        <ele>289</ele>
        <time>2016-07-13T07:26:06Z</time>
      </trkpt>
      <trkpt lat="42.93261" lon="17.02">
        <ele>287</ele>
        <time>2016-07-13T07:28:06Z</time>
      </trkpt>
      <trkpt lat="42.9327" lon="17.02025">
        <ele>286</ele>
        <time>2016-07-13T07:30:06Z</time>
      </trkpt>
      <trkpt lat="42.93277" lon="17.02042">
        <ele>286</ele>
        <time>2016-07-13T07:32:06Z</time>
      </trkpt>
      <trkpt lat="42.93289" lon="17.02058">
        <ele>288</ele>
        <time>2016-07-13T07:34:06Z</time>
      </trkpt>
      <trkpt lat="42.93307" lon="17.02084">
        <ele>291</ele>
        <time>2016-07-13T07:36:06Z</time>
      </trkpt>
      <trkpt lat="42.93333" lon="17.02101">
        <ele>297</ele>
        <time>2016-07-13T07:38:06Z</time>
      </trkpt>
      <trkpt lat="42.93355" lon="17.02117">
        <ele>298</ele>
        <time>2016-07-13T07:40:06Z</time>
      </trkpt>
      <trkpt lat="42.93377" lon="17.02132">
        <ele>298</ele>
        <time>2016-07-13T07:42:06Z</time>
      </trkpt>
      <trkpt lat="42.93388" lon="17.02141">
        <ele>298</ele>
        <time>2016-07-13T07:44:06Z</time>
      </trkpt>
      <trkpt lat="42.93402" lon="17.02142">
        <ele>299</ele>
        <time>2016-07-13T07:46:06Z</time>
      </trkpt>
      <trkpt lat="42.93411" lon="17.02141">
        <ele>301</ele>
        <time>2016-07-13T07:48:06Z</time>
      </trkpt>
      <trkpt lat="42.9342" lon="17.02139">
        <ele>303</ele>
        <time>2016-07-13T07:50:06Z</time>
      </trkpt>
      <trkpt lat="42.93434" lon="17.02132">
        <ele>306</ele>
        <time>2016-07-13T07:52:06Z</time>
      </trkpt>
      <trkpt lat="42.93444" lon="17.02126">
        <ele>308</ele>
        <time>2016-07-13T07:54:06Z</time>
      </trkpt>
      <trkpt lat="42.93453" lon="17.02117">
        <ele>310</ele>
        <time>2016-07-13T07:56:06Z</time>
      </trkpt>
      <trkpt lat="42.9346" lon="17.02106">
        <ele>312</ele>
        <time>2016-07-13T07:58:06Z</time>
      </trkpt>
      <trkpt lat="42.9347" lon="17.02085">
        <ele>315</ele>
        <time>2016-07-13T08:00:06Z</time>
      </trkpt>
      <trkpt lat="42.93482" lon="17.0207">
        <ele>318</ele>
        <time>2016-07-13T08:02:06Z</time>
      </trkpt>
      <trkpt lat="42.93495" lon="17.02063">
        <ele>319</ele>
        <time>2016-07-13T08:04:06Z</time>
      </trkpt>
      <trkpt lat="42.93507" lon="17.0206">
        <ele>321</ele>
        <time>2016-07-13T08:06:06Z</time>
      </trkpt>
      <trkpt lat="42.93518" lon="17.0206">
        <ele>324</ele>
        <time>2016-07-13T08:08:06Z</time>
      </trkpt>
      <trkpt lat="42.93525" lon="17.02064">
        <ele>324</ele>
        <time>2016-07-13T08:10:06Z</time>
      </trkpt>
      <trkpt lat="42.93529" lon="17.02072">
        <ele>324</ele>
        <time>2016-07-13T08:12:06Z</time>
      </trkpt>
      <trkpt lat="42.93531" lon="17.0208">
        <ele>324</ele>
        <time>2016-07-13T08:14:06Z</time>
      </trkpt>
      <trkpt lat="42.93533" lon="17.0209">
        <ele>323</ele>
        <time>2016-07-13T08:16:06Z</time>
      </trkpt>
      <trkpt lat="42.93531" lon="17.02098">
        <ele>322</ele>
        <time>2016-07-13T08:18:06Z</time>
      </trkpt>
      <trkpt lat="42.93521" lon="17.02124">
        <ele>318</ele>
        <time>2016-07-13T08:20:06Z</time>
      </trkpt>
      <trkpt lat="42.93514" lon="17.02141">
        <ele>315</ele>
        <time>2016-07-13T08:22:06Z</time>
      </trkpt>
      <trkpt lat="42.93506" lon="17.02171">
        <ele>312</ele>
        <time>2016-07-13T08:24:06Z</time>
      </trkpt>
      <trkpt lat="42.93501" lon="17.02186">
        <ele>311</ele>
        <time>2016-07-13T08:26:06Z</time>
      </trkpt>
      <trkpt lat="42.93499" lon="17.02199">
        <ele>311</ele>
        <time>2016-07-13T08:28:06Z</time>
      </trkpt>
      <trkpt lat="42.93496" lon="17.02214">
        <ele>310</ele>
        <time>2016-07-13T08:30:06Z</time>
      </trkpt>
      <trkpt lat="42.93495" lon="17.02232">
        <ele>311</ele>
        <time>2016-07-13T08:32:06Z</time>
      </trkpt>
      <trkpt lat="42.935" lon="17.02247">
        <ele>312</ele>
        <time>2016-07-13T08:34:06Z</time>
      </trkpt>
      <trkpt lat="42.93549" lon="17.0229">
        <ele>317</ele>
        <time>2016-07-13T08:36:06Z</time>
      </trkpt>
      <trkpt lat="42.93581" lon="17.02325">
        <ele>318</ele>
        <time>2016-07-13T08:38:06Z</time>
      </trkpt>
      <trkpt lat="42.93598" lon="17.02344">
        <ele>320</ele>
        <time>2016-07-13T08:40:06Z</time>
      </trkpt>
      <trkpt lat="42.93623" lon="17.02395">
        <ele>318</ele>
        <time>2016-07-13T08:42:06Z</time>
      </trkpt>
      <trkpt lat="42.9364" lon="17.0242">
        <ele>316</ele>
        <time>2016-07-13T08:44:06Z</time>
      </trkpt>
      <trkpt lat="42.93665" lon="17.02445">
        <ele>317</ele>
        <time>2016-07-13T08:46:06Z</time>
      </trkpt>
      <trkpt lat="42.93699" lon="17.0248">
        <ele>319</ele>
        <time>2016-07-13T08:48:06Z</time>
      </trkpt>
      <trkpt lat="42.93766" lon="17.02539">
        <ele>321</ele>
        <time>2016-07-13T08:50:06Z</time>
      </trkpt>
      <trkpt lat="42.93849" lon="17.026">
        <ele>321</ele>
        <time>2016-07-13T08:52:06Z</time>
      </trkpt>
      <trkpt lat="42.9396" lon="17.02677">
        <ele>325</ele>
        <time>2016-07-13T08:54:06Z</time>
      </trkpt>
      <trkpt lat="42.94035" lon="17.0273">
        <ele>328</ele>
        <time>2016-07-13T08:56:06Z</time>
      </trkpt>
      <trkpt lat="42.94098" lon="17.02774">
        <ele>329</ele>
        <time>2016-07-13T08:58:06Z</time>
      </trkpt>
      <trkpt lat="42.94163" lon="17.02799">
        <ele>331</ele>
        <time>2016-07-13T09:00:06Z</time>
      </trkpt>
      <trkpt lat="42.94196" lon="17.02815">
        <ele>330</ele>
        <time>2016-07-13T09:02:06Z</time>
      </trkpt>
      <trkpt lat="42.94318" lon="17.02853">
        <ele>329</ele>
        <time>2016-07-13T09:04:06Z</time>
      </trkpt>
      <trkpt lat="42.94383" lon="17.02878">
        <ele>328</ele>
        <time>2016-07-13T09:06:06Z</time>
      </trkpt>
      <trkpt lat="42.94445" lon="17.02902">
        <ele>327</ele>
        <time>2016-07-13T09:08:06Z</time>
      </trkpt>
      <trkpt lat="42.94489" lon="17.02942">
        <ele>323</ele>
        <time>2016-07-13T09:10:06Z</time>
      </trkpt>
      <trkpt lat="42.94538" lon="17.0299">
        <ele>321</ele>
        <time>2016-07-13T09:12:06Z</time>
      </trkpt>
      <trkpt lat="42.94567" lon="17.03024">
        <ele>318</ele>
        <time>2016-07-13T09:14:06Z</time>
      </trkpt>
      <trkpt lat="42.94588" lon="17.03068">
        <ele>315</ele>
        <time>2016-07-13T09:16:06Z</time>
      </trkpt>
      <trkpt lat="42.9461" lon="17.03105">
        <ele>314</ele>
        <time>2016-07-13T09:18:06Z</time>
      </trkpt>
      <trkpt lat="42.94623" lon="17.03127">
        <ele>313</ele>
        <time>2016-07-13T09:20:06Z</time>
      </trkpt>
      <trkpt lat="42.94659" lon="17.03176">
        <ele>313</ele>
        <time>2016-07-13T09:22:06Z</time>
      </trkpt>
      <trkpt lat="42.94663" lon="17.0318">
        <ele>313</ele>
        <time>2016-07-13T09:24:06Z</time>
      </trkpt>
      <trkpt lat="42.94666" lon="17.03182">
        <ele>313</ele>
        <time>2016-07-13T09:26:06Z</time>
      </trkpt>
      <trkpt lat="42.94698" lon="17.03185">
        <ele>314</ele>
        <time>2016-07-13T09:28:06Z</time>
      </trkpt>
      <trkpt lat="42.94726" lon="17.03188">
        <ele>314</ele>
        <time>2016-07-13T09:30:06Z</time>
      </trkpt>
      <trkpt lat="42.94737" lon="17.0319">
        <ele>314</ele>
        <time>2016-07-13T09:32:06Z</time>
      </trkpt>
      <trkpt lat="42.94748" lon="17.03195">
        <ele>314</ele>
        <time>2016-07-13T09:34:06Z</time>
      </trkpt>
      <trkpt lat="42.94753" lon="17.03199">
        <ele>315</ele>
        <time>2016-07-13T09:36:06Z</time>
      </trkpt>
      <trkpt lat="42.94767" lon="17.03209">
        <ele>315</ele>
        <time>2016-07-13T09:38:06Z</time>
      </trkpt>
      <trkpt lat="42.94767" lon="17.03209">
        <ele>315</ele>
        <time>2016-07-13T09:40:06Z</time>
      </trkpt>
      <trkpt lat="42.9476" lon="17.03224">
        <ele>315</ele>
        <time>2016-07-13T09:42:06Z</time>
      </trkpt>
      <trkpt lat="42.94754" lon="17.03319">
        <ele>317</ele>
        <time>2016-07-13T09:44:06Z</time>
      </trkpt>
      <trkpt lat="42.94747" lon="17.03397">
        <ele>318</ele>
        <time>2016-07-13T09:46:06Z</time>
      </trkpt>
      <trkpt lat="42.94745" lon="17.0343">
        <ele>318</ele>
        <time>2016-07-13T09:48:06Z</time>
      </trkpt>
      <trkpt lat="42.94746" lon="17.03452">
        <ele>317</ele>
        <time>2016-07-13T09:50:06Z</time>
      </trkpt>
      <trkpt lat="42.94748" lon="17.03472">
        <ele>316</ele>
        <time>2016-07-13T09:52:06Z</time>
      </trkpt>
      <trkpt lat="42.94754" lon="17.03493">
        <ele>315</ele>
        <time>2016-07-13T09:54:06Z</time>
      </trkpt>
      <trkpt lat="42.94762" lon="17.03513">
        <ele>315</ele>
        <time>2016-07-13T09:56:06Z</time>
      </trkpt>
      <trkpt lat="42.94771" lon="17.03529">
        <ele>316</ele>
        <time>2016-07-13T09:58:06Z</time>
      </trkpt>
      <trkpt lat="42.94795" lon="17.03555">
        <ele>316</ele>
        <time>2016-07-13T10:00:06Z</time>
      </trkpt>
      <trkpt lat="42.94823" lon="17.03575">
        <ele>316</ele>
        <time>2016-07-13T10:02:06Z</time>
      </trkpt>
      <trkpt lat="42.94849" lon="17.03591">
        <ele>316</ele>
        <time>2016-07-13T10:04:06Z</time>
      </trkpt>
      <trkpt lat="42.94899" lon="17.03627">
        <ele>317</ele>
        <time>2016-07-13T10:06:06Z</time>
      </trkpt>
      <trkpt lat="42.9491" lon="17.03637">
        <ele>316</ele>
        <time>2016-07-13T10:08:06Z</time>
      </trkpt>
      <trkpt lat="42.94921" lon="17.03648">
        <ele>316</ele>
        <time>2016-07-13T10:10:06Z</time>
      </trkpt>
      <trkpt lat="42.94933" lon="17.03668">
        <ele>316</ele>
        <time>2016-07-13T10:12:06Z</time>
      </trkpt>
      <trkpt lat="42.9494" lon="17.0368">
        <ele>317</ele>
        <time>2016-07-13T10:14:06Z</time>
      </trkpt>
      <trkpt lat="42.94945" lon="17.03691">
        <ele>317</ele>
        <time>2016-07-13T10:16:06Z</time>
      </trkpt>
      <trkpt lat="42.9495" lon="17.03709">
        <ele>318</ele>
        <time>2016-07-13T10:18:06Z</time>
      </trkpt>
      <trkpt lat="42.94955" lon="17.03735">
        <ele>319</ele>
        <time>2016-07-13T10:20:06Z</time>
      </trkpt>
      <trkpt lat="42.94956" lon="17.03751">
        <ele>319</ele>
        <time>2016-07-13T10:22:06Z</time>
      </trkpt>
      <trkpt lat="42.94956" lon="17.03785">
        <ele>320</ele>
        <time>2016-07-13T10:24:06Z</time>
      </trkpt>
      <trkpt lat="42.94955" lon="17.038">
        <ele>321</ele>
        <time>2016-07-13T10:26:06Z</time>
      </trkpt>
      <trkpt lat="42.94952" lon="17.0384">
        <ele>322</ele>
        <time>2016-07-13T10:28:06Z</time>
      </trkpt>
      <trkpt lat="42.94946" lon="17.0387">
        <ele>322</ele>
        <time>2016-07-13T10:30:06Z</time>
      </trkpt>
      <trkpt lat="42.94941" lon="17.03894">
        <ele>322</ele>
        <time>2016-07-13T10:32:06Z</time>
      </trkpt>
      <trkpt lat="42.94941" lon="17.03894">
        <ele>322</ele>
        <time>2016-07-13T10:34:06Z</time>
      </trkpt>
      <trkpt lat="42.94959" lon="17.039">
        <ele>322</ele>
        <time>2016-07-13T10:36:06Z</time>
      </trkpt>
      <trkpt lat="42.94971" lon="17.03905">
        <ele>323</ele>
        <time>2016-07-13T10:38:06Z</time>
      </trkpt>
      <trkpt lat="42.94984" lon="17.03906">
        <ele>323</ele>
        <time>2016-07-13T10:40:06Z</time>
      </trkpt>
      <trkpt lat="42.94996" lon="17.03904">
        <ele>323</ele>
        <time>2016-07-13T10:42:06Z</time>
      </trkpt>
      <trkpt lat="42.94996" lon="17.03904">
        <ele>323</ele>
        <time>2016-07-13T10:44:06Z</time>
      </trkpt>
      <trkpt lat="42.94984" lon="17.03975">
        <ele>328</ele>
        <time>2016-07-13T10:46:06Z</time>
      </trkpt>
      <trkpt lat="42.94974" lon="17.04014">
        <ele>330</ele>
        <time>2016-07-13T10:48:06Z</time>
      </trkpt>
      <trkpt lat="42.94964" lon="17.04044">
        <ele>330</ele>
        <time>2016-07-13T10:50:06Z</time>
      </trkpt>
      <trkpt lat="42.9496" lon="17.04084">
        <ele>333</ele>
        <time>2016-07-13T10:52:06Z</time>
      </trkpt>
      <trkpt lat="42.94956" lon="17.0413">
        <ele>335</ele>
        <time>2016-07-13T10:54:06Z</time>
      </trkpt>
      <trkpt lat="42.9495" lon="17.04178">
        <ele>336</ele>
        <time>2016-07-13T10:56:06Z</time>
      </trkpt>
      <trkpt lat="42.94946" lon="17.04233">
        <ele>336</ele>
        <time>2016-07-13T10:58:06Z</time>
      </trkpt>
      <trkpt lat="42.94951" lon="17.04287">
        <ele>339</ele>
        <time>2016-07-13T11:00:06Z</time>
      </trkpt>
      <trkpt lat="42.94955" lon="17.04314">
        <ele>341</ele>
        <time>2016-07-13T11:02:06Z</time>
      </trkpt>
      <trkpt lat="42.94955" lon="17.04314">
        <ele>341</ele>
        <time>2016-07-13T11:04:06Z</time>
      </trkpt>
      <trkpt lat="42.94961" lon="17.04353">
        <ele>342</ele>
        <time>2016-07-13T11:06:06Z</time>
      </trkpt>
      <trkpt lat="42.94966" lon="17.04376">
        <ele>343</ele>
        <time>2016-07-13T11:08:06Z</time>
      </trkpt>
      <trkpt lat="42.94978" lon="17.04411">
        <ele>345</ele>
        <time>2016-07-13T11:10:06Z</time>
      </trkpt>
      <trkpt lat="42.94987" lon="17.04432">
        <ele>346</ele>
        <time>2016-07-13T11:12:06Z</time>
      </trkpt>
      <trkpt lat="42.94996" lon="17.04453">
        <ele>347</ele>
        <time>2016-07-13T11:14:06Z</time>
      </trkpt>
      <trkpt lat="42.95009" lon="17.04477">
        <ele>349</ele>
        <time>2016-07-13T11:16:06Z</time>
      </trkpt>
      <trkpt lat="42.95015" lon="17.04487">
        <ele>349</ele>
        <time>2016-07-13T11:18:06Z</time>
      </trkpt>
      <trkpt lat="42.95054" lon="17.04538">
        <ele>352</ele>
        <time>2016-07-13T11:20:06Z</time>
      </trkpt>
      <trkpt lat="42.95102" lon="17.04597">
        <ele>352</ele>
        <time>2016-07-13T11:22:06Z</time>
      </trkpt>
      <trkpt lat="42.95137" lon="17.04636">
        <ele>352</ele>
        <time>2016-07-13T11:24:06Z</time>
      </trkpt>
      <trkpt lat="42.9516" lon="17.04661">
        <ele>351</ele>
        <time>2016-07-13T11:26:06Z</time>
      </trkpt>
      <trkpt lat="42.95169" lon="17.04668">
        <ele>351</ele>
        <time>2016-07-13T11:28:06Z</time>
      </trkpt>
      <trkpt lat="42.95206" lon="17.04693">
        <ele>349</ele>
        <time>2016-07-13T11:30:06Z</time>
      </trkpt>
      <trkpt lat="42.95243" lon="17.04717">
        <ele>348</ele>
        <time>2016-07-13T11:32:06Z</time>
      </trkpt>
      <trkpt lat="42.9528" lon="17.0474">
        <ele>345</ele>
        <time>2016-07-13T11:34:06Z</time>
      </trkpt>
      <trkpt lat="42.95312" lon="17.04759">
        <ele>343</ele>
        <time>2016-07-13T11:36:06Z</time>
      </trkpt>
      <trkpt lat="42.95314" lon="17.0476">
        <ele>343</ele>
        <time>2016-07-13T11:38:06Z</time>
      </trkpt>
      <trkpt lat="42.95317" lon="17.04761">
        <ele>343</ele>
        <time>2016-07-13T11:40:06Z</time>
      </trkpt>
      <trkpt lat="42.9532" lon="17.04762">
        <ele>343</ele>
        <time>2016-07-13T11:42:06Z</time>
      </trkpt>
      <trkpt lat="42.95332" lon="17.04763">
        <ele>342</ele>
        <time>2016-07-13T11:44:06Z</time>
      </trkpt>
      <trkpt lat="42.95335" lon="17.04763">
        <ele>342</ele>
        <time>2016-07-13T11:46:06Z</time>
      </trkpt>
      <trkpt lat="42.95338" lon="17.04763">
        <ele>342</ele>
        <time>2016-07-13T11:48:06Z</time>
      </trkpt>
      <trkpt lat="42.95341" lon="17.04763">
        <ele>342</ele>
        <time>2016-07-13T11:50:06Z</time>
      </trkpt>
      <trkpt lat="42.95344" lon="17.04764">
        <ele>342</ele>
        <time>2016-07-13T11:52:06Z</time>
      </trkpt>
      <trkpt lat="42.95347" lon="17.04764">
        <ele>342</ele>
        <time>2016-07-13T11:54:06Z</time>
      </trkpt>
      <trkpt lat="42.95351" lon="17.04766">
        <ele>342</ele>
        <time>2016-07-13T11:56:06Z</time>
      </trkpt>
      <trkpt lat="42.95353" lon="17.04767">
        <ele>342</ele>
        <time>2016-07-13T11:58:06Z</time>
      </trkpt>
      <trkpt lat="42.95374" lon="17.04782">
        <ele>342</ele>
        <time>2016-07-13T12:00:06Z</time>
      </trkpt>
      <trkpt lat="42.95403" lon="17.04803">
        <ele>341</ele>
        <time>2016-07-13T12:02:06Z</time>
      </trkpt>
      <trkpt lat="42.95415" lon="17.04809">
        <ele>340</ele>
        <time>2016-07-13T12:04:06Z</time>
      </trkpt>
      <trkpt lat="42.9542" lon="17.04811">
        <ele>340</ele>
        <time>2016-07-13T12:06:06Z</time>
      </trkpt>
      <trkpt lat="42.95423" lon="17.04812">
        <ele>340</ele>
        <time>2016-07-13T12:08:06Z</time>
      </trkpt>
      <trkpt lat="42.95426" lon="17.04813">
        <ele>340</ele>
        <time>2016-07-13T12:10:06Z</time>
      </trkpt>
      <trkpt lat="42.95428" lon="17.04813">
        <ele>340</ele>
        <time>2016-07-13T12:12:06Z</time>
      </trkpt>
      <trkpt lat="42.95431" lon="17.04813">
        <ele>340</ele>
        <time>2016-07-13T12:14:06Z</time>
      </trkpt>
      <trkpt lat="42.95435" lon="17.04812">
        <ele>340</ele>
        <time>2016-07-13T12:16:06Z</time>
      </trkpt>
      <trkpt lat="42.95441" lon="17.04811">
        <ele>339</ele>
        <time>2016-07-13T12:18:06Z</time>
      </trkpt>
      <trkpt lat="42.95484" lon="17.04797">
        <ele>339</ele>
        <time>2016-07-13T12:20:06Z</time>
      </trkpt>
      <trkpt lat="42.95522" lon="17.04783">
        <ele>337</ele>
        <time>2016-07-13T12:22:06Z</time>
      </trkpt>
      <trkpt lat="42.95535" lon="17.04777">
        <ele>335</ele>
        <time>2016-07-13T12:24:06Z</time>
      </trkpt>
      <trkpt lat="42.95546" lon="17.04771">
        <ele>335</ele>
        <time>2016-07-13T12:26:06Z</time>
      </trkpt>
      <trkpt lat="42.95553" lon="17.04764">
        <ele>334</ele>
        <time>2016-07-13T12:28:06Z</time>
      </trkpt>
      <trkpt lat="42.95563" lon="17.04754">
        <ele>334</ele>
        <time>2016-07-13T12:30:06Z</time>
      </trkpt>
      <trkpt lat="42.95573" lon="17.04746">
        <ele>333</ele>
        <time>2016-07-13T12:32:06Z</time>
      </trkpt>
      <trkpt lat="42.95574" lon="17.04744">
        <ele>333</ele>
        <time>2016-07-13T12:34:06Z</time>
      </trkpt>
      <trkpt lat="42.95577" lon="17.04743">
        <ele>333</ele>
        <time>2016-07-13T12:36:06Z</time>
      </trkpt>
      <trkpt lat="42.95579" lon="17.04742">
        <ele>333</ele>
        <time>2016-07-13T12:38:06Z</time>
      </trkpt>
      <trkpt lat="42.95581" lon="17.04741">
        <ele>333</ele>
        <time>2016-07-13T12:40:06Z</time>
      </trkpt>
      <trkpt lat="42.95584" lon="17.0474">
        <ele>333</ele>
        <time>2016-07-13T12:42:06Z</time>
      </trkpt>
      <trkpt lat="42.95586" lon="17.04739">
        <ele>333</ele>
        <time>2016-07-13T12:44:06Z</time>
      </trkpt>
      <trkpt lat="42.95604" lon="17.04736">
        <ele>330</ele>
        <time>2016-07-13T12:46:06Z</time>
      </trkpt>
      <trkpt lat="42.95631" lon="17.0473">
        <ele>327</ele>
        <time>2016-07-13T12:48:06Z</time>
      </trkpt>
      <trkpt lat="42.95635" lon="17.0473">
        <ele>326</ele>
        <time>2016-07-13T12:50:06Z</time>
      </trkpt>
      <trkpt lat="42.95638" lon="17.04729">
        <ele>326</ele>
        <time>2016-07-13T12:52:06Z</time>
      </trkpt>
      <trkpt lat="42.9564" lon="17.04727">
        <ele>326</ele>
        <time>2016-07-13T12:54:06Z</time>
      </trkpt>
      <trkpt lat="42.95643" lon="17.04725">
        <ele>326</ele>
        <time>2016-07-13T12:56:06Z</time>
      </trkpt>
      <trkpt lat="42.95646" lon="17.04722">
        <ele>326</ele>
        <time>2016-07-13T12:58:06Z</time>
      </trkpt>
      <trkpt lat="42.95659" lon="17.04711">
        <ele>325</ele>
        <time>2016-07-13T13:00:06Z</time>
      </trkpt>
      <trkpt lat="42.95704" lon="17.04672">
        <ele>320</ele>
        <time>2016-07-13T13:02:06Z</time>
      </trkpt>
      <trkpt lat="42.9574" lon="17.04643">
        <ele>314</ele>
        <time>2016-07-13T13:04:06Z</time>
      </trkpt>
      <trkpt lat="42.95786" lon="17.04595">
        <ele>305</ele>
        <time>2016-07-13T13:06:06Z</time>
      </trkpt>
      <trkpt lat="42.95801" lon="17.04576">
        <ele>302</ele>
        <time>2016-07-13T13:08:06Z</time>
      </trkpt>
      <trkpt lat="42.95803" lon="17.04573">
        <ele>302</ele>
        <time>2016-07-13T13:10:06Z</time>
      </trkpt>
      <trkpt lat="42.95805" lon="17.04572">
        <ele>302</ele>
        <time>2016-07-13T13:12:06Z</time>
      </trkpt>
      <trkpt lat="42.95807" lon="17.04571">
        <ele>301</ele>
        <time>2016-07-13T13:14:06Z</time>
      </trkpt>
      <trkpt lat="42.95808" lon="17.04571">
        <ele>301</ele>
        <time>2016-07-13T13:16:06Z</time>
      </trkpt>
      <trkpt lat="42.95809" lon="17.04571">
        <ele>301</ele>
        <time>2016-07-13T13:18:06Z</time>
      </trkpt>
      <trkpt lat="42.9581" lon="17.04572">
        <ele>300</ele>
        <time>2016-07-13T13:20:06Z</time>
      </trkpt>
      <trkpt lat="42.95813" lon="17.04573">
        <ele>299</ele>
        <time>2016-07-13T13:22:06Z</time>
      </trkpt>
      <trkpt lat="42.95814" lon="17.04575">
        <ele>299</ele>
        <time>2016-07-13T13:24:06Z</time>
      </trkpt>
      <trkpt lat="42.95815" lon="17.04576">
        <ele>298</ele>
        <time>2016-07-13T13:26:06Z</time>
      </trkpt>
      <trkpt lat="42.95815" lon="17.04578">
        <ele>298</ele>
        <time>2016-07-13T13:28:06Z</time>
      </trkpt>
      <trkpt lat="42.95816" lon="17.04581">
        <ele>297</ele>
        <time>2016-07-13T13:30:06Z</time>
      </trkpt>
      <trkpt lat="42.95816" lon="17.04586">
        <ele>296</ele>
        <time>2016-07-13T13:32:06Z</time>
      </trkpt>
      <trkpt lat="42.95819" lon="17.04626">
        <ele>293</ele>
        <time>2016-07-13T13:34:06Z</time>
      </trkpt>
      <trkpt lat="42.95822" lon="17.04671">
        <ele>290</ele>
        <time>2016-07-13T13:36:06Z</time>
      </trkpt>
      <trkpt lat="42.95823" lon="17.04672">
        <ele>290</ele>
        <time>2016-07-13T13:38:06Z</time>
      </trkpt>
      <trkpt lat="42.95823" lon="17.04673">
        <ele>290</ele>
        <time>2016-07-13T13:40:06Z</time>
      </trkpt>
      <trkpt lat="42.95824" lon="17.04674">
        <ele>290</ele>
        <time>2016-07-13T13:42:06Z</time>
      </trkpt>
      <trkpt lat="42.95825" lon="17.04674">
        <ele>290</ele>
        <time>2016-07-13T13:44:06Z</time>
      </trkpt>
      <trkpt lat="42.95826" lon="17.04675">
        <ele>289</ele>
        <time>2016-07-13T13:46:06Z</time>
      </trkpt>
      <trkpt lat="42.95827" lon="17.04675">
        <ele>289</ele>
        <time>2016-07-13T13:48:06Z</time>
      </trkpt>
      <trkpt lat="42.95828" lon="17.04675">
        <ele>289</ele>
        <time>2016-07-13T13:50:06Z</time>
      </trkpt>
      <trkpt lat="42.95829" lon="17.04674">
        <ele>289</ele>
        <time>2016-07-13T13:52:06Z</time>
      </trkpt>
      <trkpt lat="42.9583" lon="17.04674">
        <ele>288</ele>
        <time>2016-07-13T13:54:06Z</time>
      </trkpt>
      <trkpt lat="42.95831" lon="17.04674">
        <ele>288</ele>
        <time>2016-07-13T13:56:06Z</time>
      </trkpt>
      <trkpt lat="42.95832" lon="17.04673">
        <ele>288</ele>
        <time>2016-07-13T13:58:06Z</time>
      </trkpt>
      <trkpt lat="42.95832" lon="17.04672">
        <ele>288</ele>
        <time>2016-07-13T14:00:06Z</time>
      </trkpt>
      <trkpt lat="42.95833" lon="17.04671">
        <ele>287</ele>
        <time>2016-07-13T14:02:06Z</time>
      </trkpt>
      <trkpt lat="42.95834" lon="17.04669">
        <ele>287</ele>
        <time>2016-07-13T14:04:06Z</time>
      </trkpt>
      <trkpt lat="42.95835" lon="17.04668">
        <ele>287</ele>
        <time>2016-07-13T14:06:06Z</time>
      </trkpt>
      <trkpt lat="42.95835" lon="17.04665">
        <ele>287</ele>
        <time>2016-07-13T14:08:06Z</time>
      </trkpt>
      <trkpt lat="42.95836" lon="17.04662">
        <ele>287</ele>
        <time>2016-07-13T14:10:06Z</time>
      </trkpt>
      <trkpt lat="42.95836" lon="17.04658">
        <ele>287</ele>
        <time>2016-07-13T14:12:06Z</time>
      </trkpt>
      <trkpt lat="42.95837" lon="17.04653">
        <ele>287</ele>
        <time>2016-07-13T14:14:06Z</time>
      </trkpt>
      <trkpt lat="42.95839" lon="17.04648">
        <ele>287</ele>
        <time>2016-07-13T14:16:06Z</time>
      </trkpt>
      <trkpt lat="42.9584" lon="17.04645">
        <ele>287</ele>
        <time>2016-07-13T14:18:06Z</time>
      </trkpt>
      <trkpt lat="42.95842" lon="17.04642">
        <ele>286</ele>
        <time>2016-07-13T14:20:06Z</time>
      </trkpt>
      <trkpt lat="42.95852" lon="17.0463">
        <ele>285</ele>
        <time>2016-07-13T14:22:06Z</time>
      </trkpt>
      <trkpt lat="42.95867" lon="17.04611">
        <ele>283</ele>
        <time>2016-07-13T14:24:06Z</time>
      </trkpt>
      <trkpt lat="42.9587" lon="17.04607">
        <ele>283</ele>
        <time>2016-07-13T14:26:06Z</time>
      </trkpt>
      <trkpt lat="42.95873" lon="17.04604">
        <ele>283</ele>
        <time>2016-07-13T14:28:06Z</time>
      </trkpt>
      <trkpt lat="42.95876" lon="17.04602">
        <ele>282</ele>
        <time>2016-07-13T14:30:06Z</time>
      </trkpt>
      <trkpt lat="42.95878" lon="17.046">
        <ele>282</ele>
        <time>2016-07-13T14:32:06Z</time>
      </trkpt>
      <trkpt lat="42.95881" lon="17.04598">
        <ele>282</ele>
        <time>2016-07-13T14:34:06Z</time>
      </trkpt>
      <trkpt lat="42.95884" lon="17.04597">
        <ele>281</ele>
        <time>2016-07-13T14:36:06Z</time>
      </trkpt>
      <trkpt lat="42.95888" lon="17.04595">
        <ele>281</ele>
        <time>2016-07-13T14:38:06Z</time>
      </trkpt>
      <trkpt lat="42.95891" lon="17.04594">
        <ele>280</ele>
        <time>2016-07-13T14:40:06Z</time>
      </trkpt>
      <trkpt lat="42.95895" lon="17.04593">
        <ele>280</ele>
        <time>2016-07-13T14:42:06Z</time>
      </trkpt>
      <trkpt lat="42.95898" lon="17.04592">
        <ele>279</ele>
        <time>2016-07-13T14:44:06Z</time>
      </trkpt>
      <trkpt lat="42.9592" lon="17.04587">
        <ele>276</ele>
        <time>2016-07-13T14:46:06Z</time>
      </trkpt>
      <trkpt lat="42.95932" lon="17.04584">
        <ele>273</ele>
        <time>2016-07-13T14:48:06Z</time>
      </trkpt>
      <trkpt lat="42.95942" lon="17.0458">
        <ele>271</ele>
        <time>2016-07-13T14:50:06Z</time>
      </trkpt>
      <trkpt lat="42.9595" lon="17.04575">
        <ele>270</ele>
        <time>2016-07-13T14:52:06Z</time>
      </trkpt>
      <trkpt lat="42.95961" lon="17.04568">
        <ele>269</ele>
        <time>2016-07-13T14:54:06Z</time>
      </trkpt>
      <trkpt lat="42.96002" lon="17.04527">
        <ele>265</ele>
        <time>2016-07-13T14:56:06Z</time>
      </trkpt>
      <trkpt lat="42.96043" lon="17.04476">
        <ele>260</ele>
        <time>2016-07-13T14:58:06Z</time>
      </trkpt>
      <trkpt lat="42.9607" lon="17.04443">
        <ele>257</ele>
        <time>2016-07-13T15:00:06Z</time>
      </trkpt>
      <trkpt lat="42.96105" lon="17.0439">
        <ele>251</ele>
        <time>2016-07-13T15:02:06Z</time>
      </trkpt>
      <trkpt lat="42.96121" lon="17.04369">
        <ele>247</ele>
        <time>2016-07-13T15:04:06Z</time>
      </trkpt>
      <trkpt lat="42.96127" lon="17.0436">
        <ele>246</ele>
        <time>2016-07-13T15:06:06Z</time>
      </trkpt>
      <trkpt lat="42.96132" lon="17.04353">
        <ele>244</ele>
        <time>2016-07-13T15:08:06Z</time>
      </trkpt>
      <trkpt lat="42.96144" lon="17.04329">
        <ele>242</ele>
        <time>2016-07-13T15:10:06Z</time>
      </trkpt>
      <trkpt lat="42.96147" lon="17.0432">
        <ele>241</ele>
        <time>2016-07-13T15:12:06Z</time>
      </trkpt>
      <trkpt lat="42.9615" lon="17.04313">
        <ele>240</ele>
        <time>2016-07-13T15:14:06Z</time>
      </trkpt>
      <trkpt lat="42.96153" lon="17.04301">
        <ele>240</ele>
        <time>2016-07-13T15:16:06Z</time>
      </trkpt>
      <trkpt lat="42.96156" lon="17.04289">
        <ele>239</ele>
        <time>2016-07-13T15:18:06Z</time>
      </trkpt>
      <trkpt lat="42.96159" lon="17.04282">
        <ele>239</ele>
        <time>2016-07-13T15:20:06Z</time>
      </trkpt>
      <trkpt lat="42.96168" lon="17.04263">
        <ele>236</ele>
        <time>2016-07-13T15:22:06Z</time>
      </trkpt>
      <trkpt lat="42.962" lon="17.04197">
        <ele>230</ele>
        <time>2016-07-13T15:24:06Z</time>
      </trkpt>
      <trkpt lat="42.96207" lon="17.0418">
        <ele>228</ele>
        <time>2016-07-13T15:26:06Z</time>
      </trkpt>
      <trkpt lat="42.96209" lon="17.04176">
        <ele>228</ele>
        <time>2016-07-13T15:28:06Z</time>
      </trkpt>
      <trkpt lat="42.9621" lon="17.04173">
        <ele>228</ele>
        <time>2016-07-13T15:30:06Z</time>
      </trkpt>
      <trkpt lat="42.96211" lon="17.04171">
        <ele>228</ele>
        <time>2016-07-13T15:32:06Z</time>
      </trkpt>
      <trkpt lat="42.96215" lon="17.04168">
        <ele>227</ele>
        <time>2016-07-13T15:34:06Z</time>
      </trkpt>
      <trkpt lat="42.96217" lon="17.04167">
        <ele>226</ele>
        <time>2016-07-13T15:36:06Z</time>
      </trkpt>
      <trkpt lat="42.96218" lon="17.04167">
        <ele>226</ele>
        <time>2016-07-13T15:38:06Z</time>
      </trkpt>
      <trkpt lat="42.96219" lon="17.04167">
        <ele>226</ele>
        <time>2016-07-13T15:40:06Z</time>
      </trkpt>
      <trkpt lat="42.9622" lon="17.04168">
        <ele>226</ele>
        <time>2016-07-13T15:42:06Z</time>
      </trkpt>
      <trkpt lat="42.96221" lon="17.04169">
        <ele>225</ele>
        <time>2016-07-13T15:44:06Z</time>
      </trkpt>
      <trkpt lat="42.96223" lon="17.04172">
        <ele>225</ele>
        <time>2016-07-13T15:46:06Z</time>
      </trkpt>
      <trkpt lat="42.96224" lon="17.04175">
        <ele>224</ele>
        <time>2016-07-13T15:48:06Z</time>
      </trkpt>
      <trkpt lat="42.96226" lon="17.04178">
        <ele>224</ele>
        <time>2016-07-13T15:50:06Z</time>
      </trkpt>
      <trkpt lat="42.96227" lon="17.04182">
        <ele>223</ele>
        <time>2016-07-13T15:52:06Z</time>
      </trkpt>
      <trkpt lat="42.96229" lon="17.0419">
        <ele>223</ele>
        <time>2016-07-13T15:54:06Z</time>
      </trkpt>
      <trkpt lat="42.96259" lon="17.04313">
        <ele>212</ele>
        <time>2016-07-13T15:56:06Z</time>
      </trkpt>
      <trkpt lat="42.96274" lon="17.04401">
        <ele>206</ele>
        <time>2016-07-13T15:58:06Z</time>
      </trkpt>
      <trkpt lat="42.96286" lon="17.04454">
        <ele>202</ele>
        <time>2016-07-13T16:00:06Z</time>
      </trkpt>
      <trkpt lat="42.96295" lon="17.04483">
        <ele>198</ele>
        <time>2016-07-13T16:02:06Z</time>
      </trkpt>
      <trkpt lat="42.96311" lon="17.04525">
        <ele>194</ele>
        <time>2016-07-13T16:04:06Z</time>
      </trkpt>
      <trkpt lat="42.96329" lon="17.04575">
        <ele>189</ele>
        <time>2016-07-13T16:06:06Z</time>
      </trkpt>
      <trkpt lat="42.96333" lon="17.04581">
        <ele>188</ele>
        <time>2016-07-13T16:08:06Z</time>
      </trkpt>
      <trkpt lat="42.96338" lon="17.04588">
        <ele>187</ele>
        <time>2016-07-13T16:10:06Z</time>
      </trkpt>
      <trkpt lat="42.96344" lon="17.04595">
        <ele>186</ele>
        <time>2016-07-13T16:12:06Z</time>
      </trkpt>
      <trkpt lat="42.96352" lon="17.04605">
        <ele>184</ele>
        <time>2016-07-13T16:14:06Z</time>
      </trkpt>
      <trkpt lat="42.96361" lon="17.0461">
        <ele>182</ele>
        <time>2016-07-13T16:16:06Z</time>
      </trkpt>
      <trkpt lat="42.96367" lon="17.04614">
        <ele>181</ele>
        <time>2016-07-13T16:18:06Z</time>
      </trkpt>
      <trkpt lat="42.96373" lon="17.04616">
        <ele>180</ele>
        <time>2016-07-13T16:20:06Z</time>
      </trkpt>
      <trkpt lat="42.96378" lon="17.04617">
        <ele>179</ele>
        <time>2016-07-13T16:22:06Z</time>
      </trkpt>
      <trkpt lat="42.96383" lon="17.04618">
        <ele>178</ele>
        <time>2016-07-13T16:24:06Z</time>
      </trkpt>
      <trkpt lat="42.96392" lon="17.04619">
        <ele>176</ele>
        <time>2016-07-13T16:26:06Z</time>
      </trkpt>
      <trkpt lat="42.96435" lon="17.04626">
        <ele>168</ele>
        <time>2016-07-13T16:28:06Z</time>
      </trkpt>
      <trkpt lat="42.96467" lon="17.04633">
        <ele>162</ele>
        <time>2016-07-13T16:30:06Z</time>
      </trkpt>
      <trkpt lat="42.96478" lon="17.04635">
        <ele>159</ele>
        <time>2016-07-13T16:32:06Z</time>
      </trkpt>
      <trkpt lat="42.96484" lon="17.04637">
        <ele>159</ele>
        <time>2016-07-13T16:34:06Z</time>
      </trkpt>
      <trkpt lat="42.9649" lon="17.0464">
        <ele>158</ele>
        <time>2016-07-13T16:36:06Z</time>
      </trkpt>
      <trkpt lat="42.96495" lon="17.04643">
        <ele>157</ele>
        <time>2016-07-13T16:38:06Z</time>
      </trkpt>
      <trkpt lat="42.96503" lon="17.04648">
        <ele>156</ele>
        <time>2016-07-13T16:40:06Z</time>
      </trkpt>
      <trkpt lat="42.96508" lon="17.04653">
        <ele>156</ele>
        <time>2016-07-13T16:42:06Z</time>
      </trkpt>
      <trkpt lat="42.96515" lon="17.04659">
        <ele>155</ele>
        <time>2016-07-13T16:44:06Z</time>
      </trkpt>
      <trkpt lat="42.9652" lon="17.04664">
        <ele>154</ele>
        <time>2016-07-13T16:46:06Z</time>
      </trkpt>
      <trkpt lat="42.96532" lon="17.04677">
        <ele>152</ele>
        <time>2016-07-13T16:48:06Z</time>
      </trkpt>
      <trkpt lat="42.96542" lon="17.04691">
        <ele>150</ele>
        <time>2016-07-13T16:50:06Z</time>
      </trkpt>
      <trkpt lat="42.96547" lon="17.04701">
        <ele>149</ele>
        <time>2016-07-13T16:52:06Z</time>
      </trkpt>
      <trkpt lat="42.96551" lon="17.04712">
        <ele>148</ele>
        <time>2016-07-13T16:54:06Z</time>
      </trkpt>
      <trkpt lat="42.96555" lon="17.04725">
        <ele>148</ele>
        <time>2016-07-13T16:56:06Z</time>
      </trkpt>
      <trkpt lat="42.96561" lon="17.04751">
        <ele>147</ele>
        <time>2016-07-13T16:58:06Z</time>
      </trkpt>
      <trkpt lat="42.96561" lon="17.04759">
        <ele>146</ele>
        <time>2016-07-13T17:00:06Z</time>
      </trkpt>
      <trkpt lat="42.96561" lon="17.04774">
        <ele>144</ele>
        <time>2016-07-13T17:02:06Z</time>
      </trkpt>
      <trkpt lat="42.9656" lon="17.04796">
        <ele>142</ele>
        <time>2016-07-13T17:04:06Z</time>
      </trkpt>
      <trkpt lat="42.96558" lon="17.04813">
        <ele>141</ele>
        <time>2016-07-13T17:06:06Z</time>
      </trkpt>
      <trkpt lat="42.96556" lon="17.0483">
        <ele>140</ele>
        <time>2016-07-13T17:08:06Z</time>
      </trkpt>
      <trkpt lat="42.96554" lon="17.04837">
        <ele>139</ele>
        <time>2016-07-13T17:10:06Z</time>
      </trkpt>
      <trkpt lat="42.96548" lon="17.04859">
        <ele>136</ele>
        <time>2016-07-13T17:12:06Z</time>
      </trkpt>
      <trkpt lat="42.96542" lon="17.04875">
        <ele>134</ele>
        <time>2016-07-13T17:14:06Z</time>
      </trkpt>
      <trkpt lat="42.96539" lon="17.0488">
        <ele>134</ele>
        <time>2016-07-13T17:16:06Z</time>
      </trkpt>
      <trkpt lat="42.96536" lon="17.04885">
        <ele>133</ele>
        <time>2016-07-13T17:18:06Z</time>
      </trkpt>
      <trkpt lat="42.96519" lon="17.04903">
        <ele>133</ele>
        <time>2016-07-13T17:20:06Z</time>
      </trkpt>
      <trkpt lat="42.96513" lon="17.04908">
        <ele>133</ele>
        <time>2016-07-13T17:22:06Z</time>
      </trkpt>
      <trkpt lat="42.96508" lon="17.04912">
        <ele>133</ele>
        <time>2016-07-13T17:24:06Z</time>
      </trkpt>
      <trkpt lat="42.96502" lon="17.04916">
        <ele>134</ele>
        <time>2016-07-13T17:26:06Z</time>
      </trkpt>
      <trkpt lat="42.96501" lon="17.04917">
        <ele>134</ele>
        <time>2016-07-13T17:28:06Z</time>
      </trkpt>
      <trkpt lat="42.96501" lon="17.04918">
        <ele>134</ele>
        <time>2016-07-13T17:30:06Z</time>
      </trkpt>
      <trkpt lat="42.96501" lon="17.04919">
        <ele>134</ele>
        <time>2016-07-13T17:32:06Z</time>
      </trkpt>
      <trkpt lat="42.96501" lon="17.0492">
        <ele>133</ele>
        <time>2016-07-13T17:34:06Z</time>
      </trkpt>
      <trkpt lat="42.96501" lon="17.04921">
        <ele>133</ele>
        <time>2016-07-13T17:36:06Z</time>
      </trkpt>
      <trkpt lat="42.96501" lon="17.04922">
        <ele>133</ele>
        <time>2016-07-13T17:38:06Z</time>
      </trkpt>
      <trkpt lat="42.96502" lon="17.04922">
        <ele>133</ele>
        <time>2016-07-13T17:40:06Z</time>
      </trkpt>
      <trkpt lat="42.96502" lon="17.04923">
        <ele>133</ele>
        <time>2016-07-13T17:42:06Z</time>
      </trkpt>
      <trkpt lat="42.96503" lon="17.04924">
        <ele>133</ele>
        <time>2016-07-13T17:44:06Z</time>
      </trkpt>
      <trkpt lat="42.96504" lon="17.04924">
        <ele>132</ele>
        <time>2016-07-13T17:46:06Z</time>
      </trkpt>
      <trkpt lat="42.96505" lon="17.04925">
        <ele>132</ele>
        <time>2016-07-13T17:48:06Z</time>
      </trkpt>
      <trkpt lat="42.96506" lon="17.04925">
        <ele>132</ele>
        <time>2016-07-13T17:50:06Z</time>
      </trkpt>
      <trkpt lat="42.96507" lon="17.04925">
        <ele>131</ele>
        <time>2016-07-13T17:52:06Z</time>
      </trkpt>
      <trkpt lat="42.9651" lon="17.04925">
        <ele>131</ele>
        <time>2016-07-13T17:54:06Z</time>
      </trkpt>
      <trkpt lat="42.96517" lon="17.04925">
        <ele>129</ele>
        <time>2016-07-13T17:56:06Z</time>
      </trkpt>
      <trkpt lat="42.96522" lon="17.04925">
        <ele>128</ele>
        <time>2016-07-13T17:58:06Z</time>
      </trkpt>
      <trkpt lat="42.96534" lon="17.04923">
        <ele>125</ele>
        <time>2016-07-13T18:00:06Z</time>
      </trkpt>
      <trkpt lat="42.9654" lon="17.04922">
        <ele>124</ele>
        <time>2016-07-13T18:02:06Z</time>
      </trkpt>
      <trkpt lat="42.96565" lon="17.04917">
        <ele>118</ele>
        <time>2016-07-13T18:04:06Z</time>
      </trkpt>
      <trkpt lat="42.96569" lon="17.04916">
        <ele>118</ele>
        <time>2016-07-13T18:06:06Z</time>
      </trkpt>
      <trkpt lat="42.96574" lon="17.04914">
        <ele>117</ele>
        <time>2016-07-13T18:08:06Z</time>
      </trkpt>
      <trkpt lat="42.96587" lon="17.04908">
        <ele>114</ele>
        <time>2016-07-13T18:10:06Z</time>
      </trkpt>
      <trkpt lat="42.9659" lon="17.04905">
        <ele>114</ele>
        <time>2016-07-13T18:12:06Z</time>
      </trkpt>
      <trkpt lat="42.96597" lon="17.04899">
        <ele>113</ele>
        <time>2016-07-13T18:14:06Z</time>
      </trkpt>
      <trkpt lat="42.96603" lon="17.04891">
        <ele>112</ele>
        <time>2016-07-13T18:16:06Z</time>
      </trkpt>
      <trkpt lat="42.96614" lon="17.04876">
        <ele>110</ele>
        <time>2016-07-13T18:18:06Z</time>
      </trkpt>
      <trkpt lat="42.96627" lon="17.04852">
        <ele>109</ele>
        <time>2016-07-13T18:20:06Z</time>
      </trkpt>
      <trkpt lat="42.96658" lon="17.04783">
        <ele>101</ele>
        <time>2016-07-13T18:22:06Z</time>
      </trkpt>
      <trkpt lat="42.9668" lon="17.0473">
        <ele>94</ele>
        <time>2016-07-13T18:24:06Z</time>
      </trkpt>
      <trkpt lat="42.96684" lon="17.04718">
        <ele>93</ele>
        <time>2016-07-13T18:26:06Z</time>
      </trkpt>
      <trkpt lat="42.96693" lon="17.04691">
        <ele>92</ele>
        <time>2016-07-13T18:28:06Z</time>
      </trkpt>
      <trkpt lat="42.96704" lon="17.04649">
        <ele>90</ele>
        <time>2016-07-13T18:30:06Z</time>
      </trkpt>
      <trkpt lat="42.96711" lon="17.04622">
        <ele>90</ele>
        <time>2016-07-13T18:32:06Z</time>
      </trkpt>
      <trkpt lat="42.96717" lon="17.04605">
        <ele>89</ele>
        <time>2016-07-13T18:34:06Z</time>
      </trkpt>
      <trkpt lat="42.96721" lon="17.04598">
        <ele>88</ele>
        <time>2016-07-13T18:36:06Z</time>
      </trkpt>
      <trkpt lat="42.96728" lon="17.0459">
        <ele>87</ele>
        <time>2016-07-13T18:38:06Z</time>
      </trkpt>
      <trkpt lat="42.96732" lon="17.04586">
        <ele>86</ele>
        <time>2016-07-13T18:40:06Z</time>
      </trkpt>
      <trkpt lat="42.96737" lon="17.04583">
        <ele>85</ele>
        <time>2016-07-13T18:42:06Z</time>
      </trkpt>
      <trkpt lat="42.96741" lon="17.04583">
        <ele>84</ele>
        <time>2016-07-13T18:44:06Z</time>
      </trkpt>
      <trkpt lat="42.96745" lon="17.04583">
        <ele>83</ele>
        <time>2016-07-13T18:46:06Z</time>
      </trkpt>
      <trkpt lat="42.96749" lon="17.04584">
        <ele>82</ele>
        <time>2016-07-13T18:48:06Z</time>
      </trkpt>
      <trkpt lat="42.96754" lon="17.04587">
        <ele>82</ele>
        <time>2016-07-13T18:50:06Z</time>
      </trkpt>
      <trkpt lat="42.96758" lon="17.04591">
        <ele>81</ele>
        <time>2016-07-13T18:52:06Z</time>
      </trkpt>
      <trkpt lat="42.96764" lon="17.04596">
        <ele>81</ele>
        <time>2016-07-13T18:54:06Z</time>
      </trkpt>
      <trkpt lat="42.9677" lon="17.046">
        <ele>80</ele>
        <time>2016-07-13T18:56:06Z</time>
      </trkpt>
      <trkpt lat="42.96778" lon="17.0461">
        <ele>80</ele>
        <time>2016-07-13T18:58:06Z</time>
      </trkpt>
      <trkpt lat="42.96785" lon="17.04617">
        <ele>79</ele>
        <time>2016-07-13T19:00:06Z</time>
      </trkpt>
      <trkpt lat="42.96792" lon="17.04626">
        <ele>79</ele>
        <time>2016-07-13T19:02:06Z</time>
      </trkpt>
      <trkpt lat="42.96799" lon="17.04635">
        <ele>78</ele>
        <time>2016-07-13T19:04:06Z</time>
      </trkpt>
      <trkpt lat="42.96804" lon="17.04645">
        <ele>78</ele>
        <time>2016-07-13T19:06:06Z</time>
      </trkpt>
      <trkpt lat="42.96806" lon="17.0465">
        <ele>77</ele>
        <time>2016-07-13T19:08:06Z</time>
      </trkpt>
      <trkpt lat="42.96808" lon="17.04655">
        <ele>77</ele>
        <time>2016-07-13T19:10:06Z</time>
      </trkpt>
      <trkpt lat="42.96818" lon="17.04698">
        <ele>72</ele>
        <time>2016-07-13T19:12:06Z</time>
      </trkpt>
      <trkpt lat="42.96844" lon="17.04795">
        <ele>56</ele>
        <time>2016-07-13T19:14:06Z</time>
      </trkpt>
      <trkpt lat="42.96878" lon="17.04916">
        <ele>42</ele>
        <time>2016-07-13T19:16:06Z</time>
      </trkpt>
      <trkpt lat="42.96886" lon="17.0495">
        <ele>38</ele>
        <time>2016-07-13T19:18:06Z</time>
      </trkpt>
      <trkpt lat="42.96892" lon="17.0497">
        <ele>35</ele>
        <time>2016-07-13T19:20:06Z</time>
      </trkpt>
      <trkpt lat="42.96906" lon="17.0501">
        <ele>29</ele>
        <time>2016-07-13T19:22:06Z</time>
      </trkpt>
      <trkpt lat="42.96924" lon="17.05053">
        <ele>24</ele>
        <time>2016-07-13T19:24:06Z</time>
      </trkpt>
      <trkpt lat="42.96929" lon="17.05065">
        <ele>22</ele>
        <time>2016-07-13T19:26:06Z</time>
      </trkpt>
      <trkpt lat="42.9693" lon="17.0507">
        <ele>22</ele>
        <time>2016-07-13T19:28:06Z</time>
      </trkpt>
      <trkpt lat="42.96931" lon="17.05081">
        <ele>21</ele>
        <time>2016-07-13T19:30:06Z</time>
      </trkpt>
      <trkpt lat="42.9693" lon="17.05099">
        <ele>21</ele>
        <time>2016-07-13T19:32:06Z</time>
      </trkpt>
      <trkpt lat="42.96931" lon="17.05116">
        <ele>21</ele>
        <time>2016-07-13T19:34:06Z</time>
      </trkpt>
      <trkpt lat="42.96934" lon="17.05148">
        <ele>20</ele>
        <time>2016-07-13T19:36:06Z</time>
      </trkpt>
      <trkpt lat="42.96934" lon="17.05148">
        <ele>20</ele>
        <time>2016-07-13T19:38:06Z</time>
      </trkpt>
      <trkpt lat="42.96933" lon="17.0515">
        <ele>20</ele>
        <time>2016-07-13T19:40:06Z</time>
      </trkpt>
      <trkpt lat="42.96932" lon="17.05151">
        <ele>20</ele>
        <time>2016-07-13T19:42:06Z</time>
      </trkpt>
      <trkpt lat="42.96932" lon="17.05153">
        <ele>20</ele>
        <time>2016-07-13T19:44:06Z</time>
      </trkpt>
      <trkpt lat="42.96931" lon="17.05156">
        <ele>20</ele>
        <time>2016-07-13T19:46:06Z</time>
      </trkpt>
      <trkpt lat="42.96931" lon="17.05162">
        <ele>20</ele>
        <time>2016-07-13T19:48:06Z</time>
      </trkpt>
      <trkpt lat="42.96931" lon="17.05172">
        <ele>21</ele>
        <time>2016-07-13T19:50:06Z</time>
      </trkpt>
      <trkpt lat="42.96935" lon="17.05197">
        <ele>20</ele>
        <time>2016-07-13T19:52:06Z</time>
      </trkpt>
      <trkpt lat="42.96941" lon="17.05246">
        <ele>20</ele>
        <time>2016-07-13T19:54:06Z</time>
      </trkpt>
      <trkpt lat="42.96945" lon="17.05264">
        <ele>20</ele>
        <time>2016-07-13T19:56:06Z</time>
      </trkpt>
      <trkpt lat="42.96949" lon="17.05291">
        <ele>21</ele>
        <time>2016-07-13T19:58:06Z</time>
      </trkpt>
      <trkpt lat="42.96951" lon="17.05319">
        <ele>22</ele>
        <time>2016-07-13T20:00:06Z</time>
      </trkpt>
      <trkpt lat="42.96954" lon="17.05336">
        <ele>22</ele>
        <time>2016-07-13T20:02:06Z</time>
      </trkpt>
      <trkpt lat="42.96956" lon="17.05352">
        <ele>23</ele>
        <time>2016-07-13T20:04:06Z</time>
      </trkpt>
      <trkpt lat="42.96957" lon="17.0536">
        <ele>24</ele>
        <time>2016-07-13T20:06:06Z</time>
      </trkpt>
      <trkpt lat="42.96959" lon="17.05369">
        <ele>24</ele>
        <time>2016-07-13T20:08:06Z</time>
      </trkpt>
      <trkpt lat="42.9696" lon="17.05371">
        <ele>25</ele>
        <time>2016-07-13T20:10:06Z</time>
      </trkpt>
      <trkpt lat="42.96962" lon="17.05373">
        <ele>24</ele>
        <time>2016-07-13T20:12:06Z</time>
      </trkpt>
      <trkpt lat="42.96965" lon="17.05375">
        <ele>24</ele>
        <time>2016-07-13T20:14:06Z</time>
      </trkpt>
      <trkpt lat="42.96966" lon="17.05376">
        <ele>24</ele>
        <time>2016-07-13T20:16:06Z</time>
      </trkpt>
      <trkpt lat="42.96968" lon="17.05376">
        <ele>24</ele>
        <time>2016-07-13T20:18:06Z</time>
      </trkpt>
      <trkpt lat="42.96975" lon="17.05377">
        <ele>24</ele>
        <time>2016-07-13T20:20:06Z</time>
      </trkpt>
      <trkpt lat="42.96978" lon="17.05378">
        <ele>23</ele>
        <time>2016-07-13T20:22:06Z</time>
      </trkpt>
      <trkpt lat="42.96981" lon="17.05379">
        <ele>23</ele>
        <time>2016-07-13T20:24:06Z</time>
      </trkpt>
      <trkpt lat="42.97" lon="17.05383">
        <ele>22</ele>
        <time>2016-07-13T20:26:06Z</time>
      </trkpt>
      <trkpt lat="42.97012" lon="17.05389">
        <ele>20</ele>
        <time>2016-07-13T20:28:06Z</time>
      </trkpt>
      <trkpt lat="42.97022" lon="17.05395">
        <ele>19</ele>
        <time>2016-07-13T20:30:06Z</time>
      </trkpt>
      <trkpt lat="42.97032" lon="17.05398">
        <ele>18</ele>
        <time>2016-07-13T20:32:06Z</time>
      </trkpt>
      <trkpt lat="42.97037" lon="17.05399">
        <ele>17</ele>
        <time>2016-07-13T20:34:06Z</time>
      </trkpt>
      <trkpt lat="42.97043" lon="17.05399">
        <ele>16</ele>
        <time>2016-07-13T20:36:06Z</time>
      </trkpt>
      <trkpt lat="42.97047" lon="17.05398">
        <ele>15</ele>
        <time>2016-07-13T20:38:06Z</time>
      </trkpt>
      <trkpt lat="42.97055" lon="17.05396">
        <ele>14</ele>
        <time>2016-07-13T20:40:06Z</time>
      </trkpt>
      <trkpt lat="42.97055" lon="17.05396">
        <ele>14</ele>
        <time>2016-07-13T20:42:06Z</time>
      </trkpt>
      <trkpt lat="42.97058" lon="17.05412">
        <ele>14</ele>
        <time>2016-07-13T20:44:06Z</time>
      </trkpt>
      <trkpt lat="42.97061" lon="17.05423">
        <ele>14</ele>
        <time>2016-07-13T20:46:06Z</time>
      </trkpt>
      <trkpt lat="42.97065" lon="17.0543">
        <ele>14</ele>
        <time>2016-07-13T20:48:06Z</time>
      </trkpt>
      <trkpt lat="42.97071" lon="17.05442">
        <ele>14</ele>
        <time>2016-07-13T20:50:06Z</time>
      </trkpt>
      <trkpt lat="42.97075" lon="17.05452">
        <ele>14</ele>
        <time>2016-07-13T20:52:06Z</time>
      </trkpt>
      <trkpt lat="42.9708" lon="17.05465">
        <ele>14</ele>
        <time>2016-07-13T20:54:06Z</time>
      </trkpt>
      <trkpt lat="42.97083" lon="17.05478">
        <ele>14</ele>
        <time>2016-07-13T20:56:06Z</time>
      </trkpt>
      <trkpt lat="42.97085" lon="17.0549">
        <ele>15</ele>
        <time>2016-07-13T20:58:06Z</time>
      </trkpt>
      <trkpt lat="42.97087" lon="17.05506">
        <ele>15</ele>
        <time>2016-07-13T21:00:06Z</time>
      </trkpt>
      <trkpt lat="42.97088" lon="17.05521">
        <ele>16</ele>
        <time>2016-07-13T21:02:06Z</time>
      </trkpt>
      <trkpt lat="42.97089" lon="17.0554">
        <ele>16</ele>
        <time>2016-07-13T21:04:06Z</time>
      </trkpt>
      <trkpt lat="42.97088" lon="17.05556">
        <ele>16</ele>
        <time>2016-07-13T21:06:06Z</time>
      </trkpt>
      <trkpt lat="42.97086" lon="17.05584">
        <ele>17</ele>
        <time>2016-07-13T21:08:06Z</time>
      </trkpt>
      <trkpt lat="42.97083" lon="17.05602">
        <ele>17</ele>
        <time>2016-07-13T21:10:06Z</time>
      </trkpt>
      <trkpt lat="42.97079" lon="17.05624">
        <ele>17</ele>
        <time>2016-07-13T21:12:06Z</time>
      </trkpt>
      <trkpt lat="42.9707" lon="17.05648">
        <ele>18</ele>
        <time>2016-07-13T21:14:06Z</time>
      </trkpt>
      <trkpt lat="42.97062" lon="17.05672">
        <ele>18</ele>
        <time>2016-07-13T21:16:06Z</time>
      </trkpt>
      <trkpt lat="42.97061" lon="17.05676">
        <ele>19</ele>
        <time>2016-07-13T21:18:06Z</time>
      </trkpt>
      <trkpt lat="42.97054" lon="17.05698">
        <ele>20</ele>
        <time>2016-07-13T21:20:06Z</time>
      </trkpt>
      <trkpt lat="42.97047" lon="17.05716">
        <ele>22</ele>
        <time>2016-07-13T21:22:06Z</time>
      </trkpt>
      <trkpt lat="42.97038" lon="17.05734">
        <ele>23</ele>
        <time>2016-07-13T21:24:06Z</time>
      </trkpt>
      <trkpt lat="42.97031" lon="17.05745">
        <ele>24</ele>
        <time>2016-07-13T21:26:06Z</time>
      </trkpt>
      <trkpt lat="42.97021" lon="17.05757">
        <ele>25</ele>
        <time>2016-07-13T21:28:06Z</time>
      </trkpt>
      <trkpt lat="42.97002" lon="17.05779">
        <ele>25</ele>
        <time>2016-07-13T21:30:06Z</time>
      </trkpt>
      <trkpt lat="42.96998" lon="17.05784">
        <ele>26</ele>
        <time>2016-07-13T21:32:06Z</time>
      </trkpt>
      <trkpt lat="42.96986" lon="17.05799">
        <ele>26</ele>
        <time>2016-07-13T21:34:06Z</time>
      </trkpt>
      <trkpt lat="42.96971" lon="17.05816">
        <ele>26</ele>
        <time>2016-07-13T21:36:06Z</time>
      </trkpt>
      <trkpt lat="42.96952" lon="17.0584">
        <ele>26</ele>
        <time>2016-07-13T21:38:06Z</time>
      </trkpt>
      <trkpt lat="42.9693" lon="17.05865">
        <ele>26</ele>
        <time>2016-07-13T21:40:06Z</time>
      </trkpt>
      <trkpt lat="42.9691" lon="17.05889">
        <ele>27</ele>
        <time>2016-07-13T21:42:06Z</time>
      </trkpt>
      <trkpt lat="42.96897" lon="17.05905">
        <ele>28</ele>
        <time>2016-07-13T21:44:06Z</time>
      </trkpt>
      <trkpt lat="42.96888" lon="17.05914">
        <ele>28</ele>
        <time>2016-07-13T21:46:06Z</time>
      </trkpt>
      <trkpt lat="42.96883" lon="17.05921">
        <ele>29</ele>
        <time>2016-07-13T21:48:06Z</time>
      </trkpt>
      <trkpt lat="42.96877" lon="17.05928">
        <ele>29</ele>
        <time>2016-07-13T21:50:06Z</time>
      </trkpt>
      <trkpt lat="42.96874" lon="17.05935">
        <ele>29</ele>
        <time>2016-07-13T21:52:06Z</time>
      </trkpt>
      <trkpt lat="42.96871" lon="17.05941">
        <ele>30</ele>
        <time>2016-07-13T21:54:06Z</time>
      </trkpt>
      <trkpt lat="42.9687" lon="17.05948">
        <ele>30</ele>
        <time>2016-07-13T21:56:06Z</time>
      </trkpt>
      <trkpt lat="42.96869" lon="17.05954">
        <ele>30</ele>
        <time>2016-07-13T21:58:06Z</time>
      </trkpt>
      <trkpt lat="42.96869" lon="17.05962">
        <ele>29</ele>
        <time>2016-07-13T22:00:06Z</time>
      </trkpt>
      <trkpt lat="42.96869" lon="17.05974">
        <ele>29</ele>
        <time>2016-07-13T22:02:06Z</time>
      </trkpt>
      <trkpt lat="42.9687" lon="17.05988">
        <ele>29</ele>
        <time>2016-07-13T22:04:06Z</time>
      </trkpt>
      <trkpt lat="42.9687" lon="17.06007">
        <ele>28</ele>
        <time>2016-07-13T22:06:06Z</time>
      </trkpt>
      <trkpt lat="42.96871" lon="17.06037">
        <ele>26</ele>
        <time>2016-07-13T22:08:06Z</time>
      </trkpt>
      <trkpt lat="42.96871" lon="17.06056">
        <ele>25</ele>
        <time>2016-07-13T22:10:06Z</time>
      </trkpt>
      <trkpt lat="42.96871" lon="17.06073">
        <ele>24</ele>
        <time>2016-07-13T22:12:06Z</time>
      </trkpt>
      <trkpt lat="42.9687" lon="17.06092">
        <ele>23</ele>
        <time>2016-07-13T22:14:06Z</time>
      </trkpt>
      <trkpt lat="42.96869" lon="17.06112">
        <ele>22</ele>
        <time>2016-07-13T22:16:06Z</time>
      </trkpt>
      <trkpt lat="42.96866" lon="17.06127">
        <ele>21</ele>
        <time>2016-07-13T22:18:06Z</time>
      </trkpt>
      <trkpt lat="42.96865" lon="17.06135">
        <ele>20</ele>
        <time>2016-07-13T22:20:06Z</time>
      </trkpt>
      <trkpt lat="42.96861" lon="17.06147">
        <ele>20</ele>
        <time>2016-07-13T22:22:06Z</time>
      </trkpt>
      <trkpt lat="42.96858" lon="17.06156">
        <ele>20</ele>
        <time>2016-07-13T22:24:06Z</time>
      </trkpt>
      <trkpt lat="42.96856" lon="17.06159">
        <ele>20</ele>
        <time>2016-07-13T22:26:06Z</time>
      </trkpt>
      <trkpt lat="42.96855" lon="17.06163">
        <ele>20</ele>
        <time>2016-07-13T22:28:06Z</time>
      </trkpt>
      <trkpt lat="42.96854" lon="17.06168">
        <ele>20</ele>
        <time>2016-07-13T22:30:06Z</time>
      </trkpt>
      <trkpt lat="42.96854" lon="17.06181">
        <ele>20</ele>
        <time>2016-07-13T22:32:06Z</time>
      </trkpt>
      <trkpt lat="42.96854" lon="17.06192">
        <ele>20</ele>
        <time>2016-07-13T22:34:06Z</time>
      </trkpt>
      <trkpt lat="42.96855" lon="17.06202">
        <ele>19</ele>
        <time>2016-07-13T22:36:06Z</time>
      </trkpt>
      <trkpt lat="42.96858" lon="17.06215">
        <ele>18</ele>
        <time>2016-07-13T22:38:06Z</time>
      </trkpt>
      <trkpt lat="42.96863" lon="17.06236">
        <ele>17</ele>
        <time>2016-07-13T22:40:06Z</time>
      </trkpt>
      <trkpt lat="42.96868" lon="17.06256">
        <ele>15</ele>
        <time>2016-07-13T22:42:06Z</time>
      </trkpt>
      <trkpt lat="42.96875" lon="17.06291">
        <ele>14</ele>
        <time>2016-07-13T22:44:06Z</time>
      </trkpt>
      <trkpt lat="42.96882" lon="17.06326">
        <ele>13</ele>
        <time>2016-07-13T22:46:06Z</time>
      </trkpt>
      <trkpt lat="42.96886" lon="17.06348">
        <ele>12</ele>
        <time>2016-07-13T22:48:06Z</time>
      </trkpt>
      <trkpt lat="42.96891" lon="17.06373">
        <ele>10</ele>
        <time>2016-07-13T22:50:06Z</time>
      </trkpt>
      <trkpt lat="42.96893" lon="17.06398">
        <ele>9</ele>
        <time>2016-07-13T22:52:06Z</time>
      </trkpt>
      <trkpt lat="42.96895" lon="17.06419">
        <ele>8</ele>
        <time>2016-07-13T22:54:06Z</time>
      </trkpt>
      <trkpt lat="42.969" lon="17.06459">
        <ele>9</ele>
        <time>2016-07-13T22:56:06Z</time>
      </trkpt>
      <trkpt lat="42.96902" lon="17.06494">
        <ele>10</ele>
        <time>2016-07-13T22:58:06Z</time>
      </trkpt>
      <trkpt lat="42.96906" lon="17.0654">
        <ele>8</ele>
        <time>2016-07-13T23:00:06Z</time>
      </trkpt>
      <trkpt lat="42.96909" lon="17.06574">
        <ele>7</ele>
        <time>2016-07-13T23:02:06Z</time>
      </trkpt>
      <trkpt lat="42.96911" lon="17.06589">
        <ele>6</ele>
        <time>2016-07-13T23:04:06Z</time>
      </trkpt>
      <trkpt lat="42.96912" lon="17.06606">
        <ele>4</ele>
        <time>2016-07-13T23:06:06Z</time>
      </trkpt>
      <trkpt lat="42.96912" lon="17.06618">
        <ele>4</ele>
        <time>2016-07-13T23:08:06Z</time>
      </trkpt>
      <trkpt lat="42.96911" lon="17.06632">
        <ele>3</ele>
        <time>2016-07-13T23:10:06Z</time>
      </trkpt>
      <trkpt lat="42.96909" lon="17.06648">
        <ele>3</ele>
        <time>2016-07-13T23:12:06Z</time>
      </trkpt>
      <trkpt lat="42.96906" lon="17.06662">
        <ele>3</ele>
        <time>2016-07-13T23:14:06Z</time>
      </trkpt>
      <trkpt lat="42.96901" lon="17.06688">
        <ele>3</ele>
        <time>2016-07-13T23:16:06Z</time>
      </trkpt>
      <trkpt lat="42.96894" lon="17.06704">
        <ele>4</ele>
        <time>2016-07-13T23:18:06Z</time>
      </trkpt>
      <trkpt lat="42.96888" lon="17.0672">
        <ele>4</ele>
        <time>2016-07-13T23:20:06Z</time>
      </trkpt>
      <trkpt lat="42.96879" lon="17.0674">
        <ele>5</ele>
        <time>2016-07-13T23:22:06Z</time>
      </trkpt>
      <trkpt lat="42.96874" lon="17.06753">
        <ele>5</ele>
        <time>2016-07-13T23:24:06Z</time>
      </trkpt>
      <trkpt lat="42.96868" lon="17.06767">
        <ele>5</ele>
        <time>2016-07-13T23:26:06Z</time>
      </trkpt>
      <trkpt lat="42.9686" lon="17.06786">
        <ele>5</ele>
        <time>2016-07-13T23:28:06Z</time>
      </trkpt>
      <trkpt lat="42.96848" lon="17.06807">
        <ele>5</ele>
        <time>2016-07-13T23:30:06Z</time>
      </trkpt>
      <trkpt lat="42.96842" lon="17.0682">
        <ele>4</ele>
        <time>2016-07-13T23:32:06Z</time>
      </trkpt>
      <trkpt lat="42.96838" lon="17.06829">
        <ele>4</ele>
        <time>2016-07-13T23:34:06Z</time>
      </trkpt>
      <trkpt lat="42.96831" lon="17.06838">
        <ele>5</ele>
        <time>2016-07-13T23:36:06Z</time>
      </trkpt>
      <trkpt lat="42.96822" lon="17.06856">
        <ele>7</ele>
        <time>2016-07-13T23:38:06Z</time>
      </trkpt>
      <trkpt lat="42.96818" lon="17.0687">
        <ele>8</ele>
        <time>2016-07-13T23:40:06Z</time>
      </trkpt>
      <trkpt lat="42.9682" lon="17.06885">
        <ele>7</ele>
        <time>2016-07-13T23:42:06Z</time>
      </trkpt>
      <trkpt lat="42.96823" lon="17.06895">
        <ele>6</ele>
        <time>2016-07-13T23:44:06Z</time>
      </trkpt>
      <trkpt lat="42.96826" lon="17.06905">
        <ele>5</ele>
        <time>2016-07-13T23:46:06Z</time>
      </trkpt>
      <trkpt lat="42.96829" lon="17.0691">
        <ele>4</ele>
        <time>2016-07-13T23:48:06Z</time>
      </trkpt>
      <trkpt lat="42.96835" lon="17.0692">
        <ele>3</ele>
        <time>2016-07-13T23:50:06Z</time>
      </trkpt>
      <trkpt lat="42.96849" lon="17.06949">
        <ele>4</ele>
        <time>2016-07-13T23:52:06Z</time>
      </trkpt>
      <trkpt lat="42.96858" lon="17.0697">
        <ele>4</ele>
        <time>2016-07-13T23:54:06Z</time>
      </trkpt>
      <trkpt lat="42.96861" lon="17.06979">
        <ele>4</ele>
        <time>2016-07-13T23:56:06Z</time>
      </trkpt>
      <trkpt lat="42.96863" lon="17.0699">
        <ele>4</ele>
        <time>2016-07-13T23:58:06Z</time>
      </trkpt>
      <trkpt lat="42.96864" lon="17.07002">
        <ele>4</ele>
        <time>2016-07-14T00:00:06Z</time>
      </trkpt>
      <trkpt lat="42.96865" lon="17.07016">
        <ele>5</ele>
        <time>2016-07-14T00:02:06Z</time>
      </trkpt>
      <trkpt lat="42.96866" lon="17.07037">
        <ele>5</ele>
        <time>2016-07-14T00:04:06Z</time>
      </trkpt>
      <trkpt lat="42.96867" lon="17.07058">
        <ele>5</ele>
        <time>2016-07-14T00:06:06Z</time>
      </trkpt>
      <trkpt lat="42.96867" lon="17.07075">
        <ele>6</ele>
        <time>2016-07-14T00:08:06Z</time>
      </trkpt>
      <trkpt lat="42.96868" lon="17.07088">
        <ele>6</ele>
        <time>2016-07-14T00:10:06Z</time>
      </trkpt>
      <trkpt lat="42.96868" lon="17.07107">
        <ele>6</ele>
        <time>2016-07-14T00:12:06Z</time>
      </trkpt>
      <trkpt lat="42.96868" lon="17.07118">
        <ele>6</ele>
        <time>2016-07-14T00:14:06Z</time>
      </trkpt>
      <trkpt lat="42.96866" lon="17.07137">
        <ele>6</ele>
        <time>2016-07-14T00:16:06Z</time>
      </trkpt>
      <trkpt lat="42.96865" lon="17.07152">
        <ele>6</ele>
        <time>2016-07-14T00:18:06Z</time>
      </trkpt>
      <trkpt lat="42.96861" lon="17.07164">
        <ele>6</ele>
        <time>2016-07-14T00:20:06Z</time>
      </trkpt>
      <trkpt lat="42.96854" lon="17.07182">
        <ele>6</ele>
        <time>2016-07-14T00:22:06Z</time>
      </trkpt>
      <trkpt lat="42.96846" lon="17.07199">
        <ele>6</ele>
        <time>2016-07-14T00:24:06Z</time>
      </trkpt>
      <trkpt lat="42.96835" lon="17.07217">
        <ele>6</ele>
        <time>2016-07-14T00:26:06Z</time>
      </trkpt>
      <trkpt lat="42.96825" lon="17.07231">
        <ele>6</ele>
        <time>2016-07-14T00:28:06Z</time>
      </trkpt>
      <trkpt lat="42.96817" lon="17.07244">
        <ele>6</ele>
        <time>2016-07-14T00:30:06Z</time>
      </trkpt>
      <trkpt lat="42.96812" lon="17.07254">
        <ele>10</ele>
        <time>2016-07-14T00:32:06Z</time>
      </trkpt>
      <trkpt lat="42.96805" lon="17.07266">
        <ele>10</ele>
        <time>2016-07-14T00:34:06Z</time>
      </trkpt>
      <trkpt lat="42.96802" lon="17.07276">
        <ele>10</ele>
        <time>2016-07-14T00:36:06Z</time>
      </trkpt>
      <trkpt lat="42.968" lon="17.07285">
        <ele>10</ele>
        <time>2016-07-14T00:38:06Z</time>
      </trkpt>
      <trkpt lat="42.96798" lon="17.07294">
        <ele>10</ele>
        <time>2016-07-14T00:40:06Z</time>
      </trkpt>
      <trkpt lat="42.96797" lon="17.07303">
        <ele>10</ele>
        <time>2016-07-14T00:42:06Z</time>
      </trkpt>
      <trkpt lat="42.96796" lon="17.07314">
        <ele>10</ele>
        <time>2016-07-14T00:44:06Z</time>
      </trkpt>
      <trkpt lat="42.96796" lon="17.0733">
        <ele>10</ele>
        <time>2016-07-14T00:46:06Z</time>
      </trkpt>
      <trkpt lat="42.96796" lon="17.07344">
        <ele>7</ele>
        <time>2016-07-14T00:48:06Z</time>
      </trkpt>
      <trkpt lat="42.96796" lon="17.0736">
        <ele>7</ele>
        <time>2016-07-14T00:50:06Z</time>
      </trkpt>
      <trkpt lat="42.96796" lon="17.07373">
        <ele>7</ele>
        <time>2016-07-14T00:52:06Z</time>
      </trkpt>
      <trkpt lat="42.96796" lon="17.07389">
        <ele>7</ele>
        <time>2016-07-14T00:54:06Z</time>
      </trkpt>
      <trkpt lat="42.96796" lon="17.07396">
        <ele>7</ele>
        <time>2016-07-14T00:56:06Z</time>
      </trkpt>
      <trkpt lat="42.96795" lon="17.07404">
        <ele>7</ele>
        <time>2016-07-14T00:58:06Z</time>
      </trkpt>
      <trkpt lat="42.96794" lon="17.07409">
        <ele>7</ele>
        <time>2016-07-14T01:00:06Z</time>
      </trkpt>
      <trkpt lat="42.96793" lon="17.07416">
        <ele>7</ele>
        <time>2016-07-14T01:02:06Z</time>
      </trkpt>
      <trkpt lat="42.96792" lon="17.07425">
        <ele>4</ele>
        <time>2016-07-14T01:04:06Z</time>
      </trkpt>
      <trkpt lat="42.9679" lon="17.07432">
        <ele>4</ele>
        <time>2016-07-14T01:06:06Z</time>
      </trkpt>
      <trkpt lat="42.96788" lon="17.07439">
        <ele>4</ele>
        <time>2016-07-14T01:08:06Z</time>
      </trkpt>
      <trkpt lat="42.96785" lon="17.07448">
        <ele>5</ele>
        <time>2016-07-14T01:10:06Z</time>
      </trkpt>
      <trkpt lat="42.96783" lon="17.07456">
        <ele>5</ele>
        <time>2016-07-14T01:12:06Z</time>
      </trkpt>
      <trkpt lat="42.9678" lon="17.07467">
        <ele>5</ele>
        <time>2016-07-14T01:14:06Z</time>
      </trkpt>
      <trkpt lat="42.96777" lon="17.07477">
        <ele>5</ele>
        <time>2016-07-14T01:16:06Z</time>
      </trkpt>
      <trkpt lat="42.96775" lon="17.07487">
        <ele>6</ele>
        <time>2016-07-14T01:18:06Z</time>
      </trkpt>
      <trkpt lat="42.96774" lon="17.07499">
        <ele>6</ele>
        <time>2016-07-14T01:20:06Z</time>
      </trkpt>
      <trkpt lat="42.96774" lon="17.07513">
        <ele>6</ele>
        <time>2016-07-14T01:22:06Z</time>
      </trkpt>
      <trkpt lat="42.96773" lon="17.07527">
        <ele>7</ele>
        <time>2016-07-14T01:24:06Z</time>
      </trkpt>
      <trkpt lat="42.96772" lon="17.07538">
        <ele>8</ele>
        <time>2016-07-14T01:26:06Z</time>
      </trkpt>
      <trkpt lat="42.96773" lon="17.07548">
        <ele>8</ele>
        <time>2016-07-14T01:28:06Z</time>
      </trkpt>
      <trkpt lat="42.96773" lon="17.0756">
        <ele>9</ele>
        <time>2016-07-14T01:30:06Z</time>
      </trkpt>
      <trkpt lat="42.96774" lon="17.07567">
        <ele>9</ele>
        <time>2016-07-14T01:32:06Z</time>
      </trkpt>
      <trkpt lat="42.96774" lon="17.07576">
        <ele>10</ele>
        <time>2016-07-14T01:34:06Z</time>
      </trkpt>
      <trkpt lat="42.96776" lon="17.07582">
        <ele>10</ele>
        <time>2016-07-14T01:36:06Z</time>
      </trkpt>
      <trkpt lat="42.96778" lon="17.07589">
        <ele>10</ele>
        <time>2016-07-14T01:38:06Z</time>
      </trkpt>
      <trkpt lat="42.96781" lon="17.07597">
        <ele>11</ele>
        <time>2016-07-14T01:40:06Z</time>
      </trkpt>
      <trkpt lat="42.96785" lon="17.07604">
        <ele>11</ele>
        <time>2016-07-14T01:42:06Z</time>
      </trkpt>
      <trkpt lat="42.96789" lon="17.0761">
        <ele>11</ele>
        <time>2016-07-14T01:44:06Z</time>
      </trkpt>
      <trkpt lat="42.96799" lon="17.07622">
        <ele>11</ele>
        <time>2016-07-14T01:46:06Z</time>
      </trkpt>
      <trkpt lat="42.96811" lon="17.07635">
        <ele>11</ele>
        <time>2016-07-14T01:48:06Z</time>
      </trkpt>
      <trkpt lat="42.96833" lon="17.07657">
        <ele>10</ele>
        <time>2016-07-14T01:50:06Z</time>
      </trkpt>
      <trkpt lat="42.96844" lon="17.0767">
        <ele>10</ele>
        <time>2016-07-14T01:52:06Z</time>
      </trkpt>
      <trkpt lat="42.96851" lon="17.07678">
        <ele>11</ele>
        <time>2016-07-14T01:54:06Z</time>
      </trkpt>
      <trkpt lat="42.96858" lon="17.07686">
        <ele>11</ele>
        <time>2016-07-14T01:56:06Z</time>
      </trkpt>
      <trkpt lat="42.96867" lon="17.07698">
        <ele>11</ele>
        <time>2016-07-14T01:58:06Z</time>
      </trkpt>
      <trkpt lat="42.96882" lon="17.07727">
        <ele>12</ele>
        <time>2016-07-14T02:00:06Z</time>
      </trkpt>
      <trkpt lat="42.96889" lon="17.07743">
        <ele>12</ele>
        <time>2016-07-14T02:02:06Z</time>
      </trkpt>
      <trkpt lat="42.96897" lon="17.07758">
        <ele>11</ele>
        <time>2016-07-14T02:04:06Z</time>
      </trkpt>
      <trkpt lat="42.96901" lon="17.07771">
        <ele>10</ele>
        <time>2016-07-14T02:06:06Z</time>
      </trkpt>
      <trkpt lat="42.96906" lon="17.07785">
        <ele>9</ele>
        <time>2016-07-14T02:08:06Z</time>
      </trkpt>
      <trkpt lat="42.96909" lon="17.07797">
        <ele>9</ele>
        <time>2016-07-14T02:10:06Z</time>
      </trkpt>
      <trkpt lat="42.96911" lon="17.07808">
        <ele>9</ele>
        <time>2016-07-14T02:12:06Z</time>
      </trkpt>
      <trkpt lat="42.96912" lon="17.07819">
        <ele>9</ele>
        <time>2016-07-14T02:14:06Z</time>
      </trkpt>
      <trkpt lat="42.96912" lon="17.07829">
        <ele>10</ele>
        <time>2016-07-14T02:16:06Z</time>
      </trkpt>
      <trkpt lat="42.96912" lon="17.07835">
        <ele>10</ele>
        <time>2016-07-14T02:18:06Z</time>
      </trkpt>
      <trkpt lat="42.96911" lon="17.07844">
        <ele>10</ele>
        <time>2016-07-14T02:20:06Z</time>
      </trkpt>
      <trkpt lat="42.9691" lon="17.07849">
        <ele>9</ele>
        <time>2016-07-14T02:22:06Z</time>
      </trkpt>
      <trkpt lat="42.96909" lon="17.07854">
        <ele>9</ele>
        <time>2016-07-14T02:24:06Z</time>
      </trkpt>
      <trkpt lat="42.96906" lon="17.07861">
        <ele>9</ele>
        <time>2016-07-14T02:26:06Z</time>
      </trkpt>
      <trkpt lat="42.96905" lon="17.07866">
        <ele>9</ele>
        <time>2016-07-14T02:28:06Z</time>
      </trkpt>
      <trkpt lat="42.96902" lon="17.07874">
        <ele>9</ele>
        <time>2016-07-14T02:30:06Z</time>
      </trkpt>
      <trkpt lat="42.96897" lon="17.07884">
        <ele>9</ele>
        <time>2016-07-14T02:32:06Z</time>
      </trkpt>
      <trkpt lat="42.96892" lon="17.07892">
        <ele>9</ele>
        <time>2016-07-14T02:34:06Z</time>
      </trkpt>
      <trkpt lat="42.96888" lon="17.07897">
        <ele>9</ele>
        <time>2016-07-14T02:36:06Z</time>
      </trkpt>
      <trkpt lat="42.96885" lon="17.07901">
        <ele>9</ele>
        <time>2016-07-14T02:38:06Z</time>
      </trkpt>
      <trkpt lat="42.96881" lon="17.07905">
        <ele>9</ele>
        <time>2016-07-14T02:40:06Z</time>
      </trkpt>
      <trkpt lat="42.96875" lon="17.0791">
        <ele>10</ele>
        <time>2016-07-14T02:42:06Z</time>
      </trkpt>
      <trkpt lat="42.96869" lon="17.07916">
        <ele>10</ele>
        <time>2016-07-14T02:44:06Z</time>
      </trkpt>
      <trkpt lat="42.96862" lon="17.07921">
        <ele>10</ele>
        <time>2016-07-14T02:46:06Z</time>
      </trkpt>
      <trkpt lat="42.96857" lon="17.07924">
        <ele>11</ele>
        <time>2016-07-14T02:48:06Z</time>
      </trkpt>
      <trkpt lat="42.96852" lon="17.07927">
        <ele>11</ele>
        <time>2016-07-14T02:50:06Z</time>
      </trkpt>
      <trkpt lat="42.96846" lon="17.0793">
        <ele>12</ele>
        <time>2016-07-14T02:52:06Z</time>
      </trkpt>
      <trkpt lat="42.96843" lon="17.0793">
        <ele>12</ele>
        <time>2016-07-14T02:54:06Z</time>
      </trkpt>
      <trkpt lat="42.96839" lon="17.07931">
        <ele>12</ele>
        <time>2016-07-14T02:56:06Z</time>
      </trkpt>
      <trkpt lat="42.96832" lon="17.07931">
        <ele>13</ele>
        <time>2016-07-14T02:58:06Z</time>
      </trkpt>
      <trkpt lat="42.96824" lon="17.07931">
        <ele>14</ele>
        <time>2016-07-14T03:00:06Z</time>
      </trkpt>
      <trkpt lat="42.96815" lon="17.0793">
        <ele>15</ele>
        <time>2016-07-14T03:02:06Z</time>
      </trkpt>
      <trkpt lat="42.96807" lon="17.0793">
        <ele>16</ele>
        <time>2016-07-14T03:04:06Z</time>
      </trkpt>
      <trkpt lat="42.968" lon="17.07929">
        <ele>17</ele>
        <time>2016-07-14T03:06:06Z</time>
      </trkpt>
      <trkpt lat="42.96793" lon="17.0793">
        <ele>17</ele>
        <time>2016-07-14T03:08:06Z</time>
      </trkpt>
      <trkpt lat="42.96788" lon="17.0793">
        <ele>18</ele>
        <time>2016-07-14T03:10:06Z</time>
      </trkpt>
      <trkpt lat="42.96783" lon="17.07931">
        <ele>18</ele>
        <time>2016-07-14T03:12:06Z</time>
      </trkpt>
      <trkpt lat="42.96778" lon="17.07932">
        <ele>18</ele>
        <time>2016-07-14T03:14:06Z</time>
      </trkpt>
      <trkpt lat="42.96774" lon="17.07934">
        <ele>18</ele>
        <time>2016-07-14T03:16:06Z</time>
      </trkpt>
      <trkpt lat="42.96769" lon="17.07937">
        <ele>18</ele>
        <time>2016-07-14T03:18:06Z</time>
      </trkpt>
      <trkpt lat="42.96766" lon="17.0794">
        <ele>18</ele>
        <time>2016-07-14T03:20:06Z</time>
      </trkpt>
      <trkpt lat="42.96763" lon="17.07944">
        <ele>18</ele>
        <time>2016-07-14T03:22:06Z</time>
      </trkpt>
      <trkpt lat="42.9676" lon="17.0795">
        <ele>18</ele>
        <time>2016-07-14T03:24:06Z</time>
      </trkpt>
      <trkpt lat="42.96757" lon="17.07957">
        <ele>17</ele>
        <time>2016-07-14T03:26:06Z</time>
      </trkpt>
      <trkpt lat="42.96755" lon="17.07966">
        <ele>16</ele>
        <time>2016-07-14T03:28:06Z</time>
      </trkpt>
      <trkpt lat="42.96753" lon="17.07978">
        <ele>15</ele>
        <time>2016-07-14T03:30:06Z</time>
      </trkpt>
      <trkpt lat="42.96751" lon="17.0799">
        <ele>13</ele>
        <time>2016-07-14T03:32:06Z</time>
      </trkpt>
      <trkpt lat="42.9675" lon="17.08">
        <ele>12</ele>
        <time>2016-07-14T03:34:06Z</time>
      </trkpt>
      <trkpt lat="42.96748" lon="17.08009">
        <ele>12</ele>
        <time>2016-07-14T03:36:06Z</time>
      </trkpt>
      <trkpt lat="42.96747" lon="17.08018">
        <ele>11</ele>
        <time>2016-07-14T03:38:06Z</time>
      </trkpt>
      <trkpt lat="42.96746" lon="17.08025">
        <ele>11</ele>
        <time>2016-07-14T03:40:06Z</time>
      </trkpt>
      <trkpt lat="42.96745" lon="17.08033">
        <ele>10</ele>
        <time>2016-07-14T03:42:06Z</time>
      </trkpt>
      <trkpt lat="42.96743" lon="17.08041">
        <ele>10</ele>
        <time>2016-07-14T03:44:06Z</time>
      </trkpt>
      <trkpt lat="42.96741" lon="17.08049">
        <ele>10</ele>
        <time>2016-07-14T03:46:06Z</time>
      </trkpt>
      <trkpt lat="42.9674" lon="17.08054">
        <ele>9</ele>
        <time>2016-07-14T03:48:06Z</time>
      </trkpt>
      <trkpt lat="42.96738" lon="17.08059">
        <ele>9</ele>
        <time>2016-07-14T03:50:06Z</time>
      </trkpt>
      <trkpt lat="42.96737" lon="17.08064">
        <ele>9</ele>
        <time>2016-07-14T03:52:06Z</time>
      </trkpt>
      <trkpt lat="42.96734" lon="17.0807">
        <ele>9</ele>
        <time>2016-07-14T03:54:06Z</time>
      </trkpt>
      <trkpt lat="42.96732" lon="17.08076">
        <ele>9</ele>
        <time>2016-07-14T03:56:06Z</time>
      </trkpt>
      <trkpt lat="42.96729" lon="17.0808">
        <ele>9</ele>
        <time>2016-07-14T03:58:06Z</time>
      </trkpt>
      <trkpt lat="42.96726" lon="17.08083">
        <ele>10</ele>
        <time>2016-07-14T04:00:06Z</time>
      </trkpt>
      <trkpt lat="42.96719" lon="17.08094">
        <ele>11</ele>
        <time>2016-07-14T04:02:06Z</time>
      </trkpt>
      <trkpt lat="42.96713" lon="17.081">
        <ele>11</ele>
        <time>2016-07-14T04:04:06Z</time>
      </trkpt>
      <trkpt lat="42.96707" lon="17.08106">
        <ele>12</ele>
        <time>2016-07-14T04:06:06Z</time>
      </trkpt>
      <trkpt lat="42.96701" lon="17.08111">
        <ele>13</ele>
        <time>2016-07-14T04:08:06Z</time>
      </trkpt>
      <trkpt lat="42.96692" lon="17.08118">
        <ele>14</ele>
        <time>2016-07-14T04:10:06Z</time>
      </trkpt>
      <trkpt lat="42.96679" lon="17.08129">
        <ele>15</ele>
        <time>2016-07-14T04:12:06Z</time>
      </trkpt>
      <trkpt lat="42.96672" lon="17.08135">
        <ele>15</ele>
        <time>2016-07-14T04:14:06Z</time>
      </trkpt>
      <trkpt lat="42.96665" lon="17.0814">
        <ele>15</ele>
        <time>2016-07-14T04:16:06Z</time>
      </trkpt>
      <trkpt lat="42.96659" lon="17.08144">
        <ele>16</ele>
        <time>2016-07-14T04:18:06Z</time>
      </trkpt>
      <trkpt lat="42.96653" lon="17.08147">
        <ele>16</ele>
        <time>2016-07-14T04:20:06Z</time>
      </trkpt>
      <trkpt lat="42.96646" lon="17.0815">
        <ele>17</ele>
        <time>2016-07-14T04:22:06Z</time>
      </trkpt>
      <trkpt lat="42.9664" lon="17.08152">
        <ele>17</ele>
        <time>2016-07-14T04:24:06Z</time>
      </trkpt>
      <trkpt lat="42.96632" lon="17.08153">
        <ele>18</ele>
        <time>2016-07-14T04:26:06Z</time>
      </trkpt>
      <trkpt lat="42.96625" lon="17.08154">
        <ele>19</ele>
        <time>2016-07-14T04:28:06Z</time>
      </trkpt>
      <trkpt lat="42.9662" lon="17.08154">
        <ele>20</ele>
        <time>2016-07-14T04:30:06Z</time>
      </trkpt>
      <trkpt lat="42.96616" lon="17.08154">
        <ele>21</ele>
        <time>2016-07-14T04:32:06Z</time>
      </trkpt>
      <trkpt lat="42.96611" lon="17.08155">
        <ele>21</ele>
        <time>2016-07-14T04:34:06Z</time>
      </trkpt>
      <trkpt lat="42.96608" lon="17.08156">
        <ele>21</ele>
        <time>2016-07-14T04:36:06Z</time>
      </trkpt>
      <trkpt lat="42.96604" lon="17.08158">
        <ele>21</ele>
        <time>2016-07-14T04:38:06Z</time>
      </trkpt>
      <trkpt lat="42.96601" lon="17.0816">
        <ele>21</ele>
        <time>2016-07-14T04:40:06Z</time>
      </trkpt>
      <trkpt lat="42.96599" lon="17.08162">
        <ele>21</ele>
        <time>2016-07-14T04:42:06Z</time>
      </trkpt>
      <trkpt lat="42.96596" lon="17.08166">
        <ele>20</ele>
        <time>2016-07-14T04:44:06Z</time>
      </trkpt>
      <trkpt lat="42.96595" lon="17.0817">
        <ele>21</ele>
        <time>2016-07-14T04:46:06Z</time>
      </trkpt>
      <trkpt lat="42.96594" lon="17.08175">
        <ele>21</ele>
        <time>2016-07-14T04:48:06Z</time>
      </trkpt>
      <trkpt lat="42.96594" lon="17.08182">
        <ele>21</ele>
        <time>2016-07-14T04:50:06Z</time>
      </trkpt>
      <trkpt lat="42.96595" lon="17.08188">
        <ele>21</ele>
        <time>2016-07-14T04:52:06Z</time>
      </trkpt>
      <trkpt lat="42.96597" lon="17.08194">
        <ele>22</ele>
        <time>2016-07-14T04:54:06Z</time>
      </trkpt>
      <trkpt lat="42.96599" lon="17.082">
        <ele>22</ele>
        <time>2016-07-14T04:56:06Z</time>
      </trkpt>
      <trkpt lat="42.96603" lon="17.08207">
        <ele>21</ele>
        <time>2016-07-14T04:58:06Z</time>
      </trkpt>
      <trkpt lat="42.96606" lon="17.08211">
        <ele>21</ele>
        <time>2016-07-14T05:00:06Z</time>
      </trkpt>
      <trkpt lat="42.9661" lon="17.08214">
        <ele>20</ele>
        <time>2016-07-14T05:02:06Z</time>
      </trkpt>
      <trkpt lat="42.96614" lon="17.08217">
        <ele>20</ele>
        <time>2016-07-14T05:04:06Z</time>
      </trkpt>
      <trkpt lat="42.96619" lon="17.08219">
        <ele>19</ele>
        <time>2016-07-14T05:06:06Z</time>
      </trkpt>
      <trkpt lat="42.96627" lon="17.08222">
        <ele>18</ele>
        <time>2016-07-14T05:08:06Z</time>
      </trkpt>
      <trkpt lat="42.96633" lon="17.08227">
        <ele>17</ele>
        <time>2016-07-14T05:10:06Z</time>
      </trkpt>
      <trkpt lat="42.96642" lon="17.08235">
        <ele>16</ele>
        <time>2016-07-14T05:12:06Z</time>
      </trkpt>
      <trkpt lat="42.96646" lon="17.08241">
        <ele>15</ele>
        <time>2016-07-14T05:14:06Z</time>
      </trkpt>
      <trkpt lat="42.96651" lon="17.0825">
        <ele>15</ele>
        <time>2016-07-14T05:16:06Z</time>
      </trkpt>
      <trkpt lat="42.96659" lon="17.0826">
        <ele>15</ele>
        <time>2016-07-14T05:18:06Z</time>
      </trkpt>
      <trkpt lat="42.96664" lon="17.08267">
        <ele>16</ele>
        <time>2016-07-14T05:20:06Z</time>
      </trkpt>
      <trkpt lat="42.96671" lon="17.08278">
        <ele>16</ele>
        <time>2016-07-14T05:22:06Z</time>
      </trkpt>
      <trkpt lat="42.96678" lon="17.0829">
        <ele>17</ele>
        <time>2016-07-14T05:24:06Z</time>
      </trkpt>
      <trkpt lat="42.96689" lon="17.08307">
        <ele>17</ele>
        <time>2016-07-14T05:26:06Z</time>
      </trkpt>
      <trkpt lat="42.96697" lon="17.0832">
        <ele>17</ele>
        <time>2016-07-14T05:28:06Z</time>
      </trkpt>
      <trkpt lat="42.96706" lon="17.08334">
        <ele>17</ele>
        <time>2016-07-14T05:30:06Z</time>
      </trkpt>
      <trkpt lat="42.96738" lon="17.08382">
        <ele>15</ele>
        <time>2016-07-14T05:32:06Z</time>
      </trkpt>
      <trkpt lat="42.96747" lon="17.08395">
        <ele>14</ele>
        <time>2016-07-14T05:34:06Z</time>
      </trkpt>
      <trkpt lat="42.96752" lon="17.08404">
        <ele>14</ele>
        <time>2016-07-14T05:36:06Z</time>
      </trkpt>
      <trkpt lat="42.96756" lon="17.08412">
        <ele>14</ele>
        <time>2016-07-14T05:38:06Z</time>
      </trkpt>
      <trkpt lat="42.96758" lon="17.08417">
        <ele>14</ele>
        <time>2016-07-14T05:40:06Z</time>
      </trkpt>
      <trkpt lat="42.96761" lon="17.08422">
        <ele>13</ele>
        <time>2016-07-14T05:42:06Z</time>
      </trkpt>
      <trkpt lat="42.96763" lon="17.08427">
        <ele>13</ele>
        <time>2016-07-14T05:44:06Z</time>
      </trkpt>
      <trkpt lat="42.96764" lon="17.08432">
        <ele>12</ele>
        <time>2016-07-14T05:46:06Z</time>
      </trkpt>
      <trkpt lat="42.96765" lon="17.08438">
        <ele>12</ele>
        <time>2016-07-14T05:48:06Z</time>
      </trkpt>
      <trkpt lat="42.96766" lon="17.08443">
        <ele>11</ele>
        <time>2016-07-14T05:50:06Z</time>
      </trkpt>
      <trkpt lat="42.96766" lon="17.08447">
        <ele>11</ele>
        <time>2016-07-14T05:52:06Z</time>
      </trkpt>
      <trkpt lat="42.96765" lon="17.08454">
        <ele>11</ele>
        <time>2016-07-14T05:54:06Z</time>
      </trkpt>
      <trkpt lat="42.96764" lon="17.08464">
        <ele>10</ele>
        <time>2016-07-14T05:56:06Z</time>
      </trkpt>
      <trkpt lat="42.9676" lon="17.08474">
        <ele>10</ele>
        <time>2016-07-14T05:58:06Z</time>
      </trkpt>
      <trkpt lat="42.96746" lon="17.08509">
        <ele>10</ele>
        <time>2016-07-14T06:00:06Z</time>
      </trkpt>
      <trkpt lat="42.96728" lon="17.08553">
        <ele>11</ele>
        <time>2016-07-14T06:02:06Z</time>
      </trkpt>
      <trkpt lat="42.96721" lon="17.08568">
        <ele>11</ele>
        <time>2016-07-14T06:04:06Z</time>
      </trkpt>
      <trkpt lat="42.96717" lon="17.08575">
        <ele>11</ele>
        <time>2016-07-14T06:06:06Z</time>
      </trkpt>
      <trkpt lat="42.9671" lon="17.08587">
        <ele>12</ele>
        <time>2016-07-14T06:08:06Z</time>
      </trkpt>
      <trkpt lat="42.96703" lon="17.08598">
        <ele>12</ele>
        <time>2016-07-14T06:10:06Z</time>
      </trkpt>
      <trkpt lat="42.96694" lon="17.08609">
        <ele>13</ele>
        <time>2016-07-14T06:12:06Z</time>
      </trkpt>
      <trkpt lat="42.96683" lon="17.08617">
        <ele>14</ele>
        <time>2016-07-14T06:14:06Z</time>
      </trkpt>
      <trkpt lat="42.96668" lon="17.08628">
        <ele>14</ele>
        <time>2016-07-14T06:16:06Z</time>
      </trkpt>
      <trkpt lat="42.9665" lon="17.08644">
        <ele>16</ele>
        <time>2016-07-14T06:18:06Z</time>
      </trkpt>
      <trkpt lat="42.96637" lon="17.08656">
        <ele>17</ele>
        <time>2016-07-14T06:20:06Z</time>
      </trkpt>
      <trkpt lat="42.9663" lon="17.08665">
        <ele>17</ele>
        <time>2016-07-14T06:22:06Z</time>
      </trkpt>
      <trkpt lat="42.96625" lon="17.08679">
        <ele>17</ele>
        <time>2016-07-14T06:24:06Z</time>
      </trkpt>
      <trkpt lat="42.9662" lon="17.0869">
        <ele>17</ele>
        <time>2016-07-14T06:26:06Z</time>
      </trkpt>
      <trkpt lat="42.96618" lon="17.08704">
        <ele>15</ele>
        <time>2016-07-14T06:28:06Z</time>
      </trkpt>
      <trkpt lat="42.96616" lon="17.08715">
        <ele>15</ele>
        <time>2016-07-14T06:30:06Z</time>
      </trkpt>
      <trkpt lat="42.96612" lon="17.08731">
        <ele>13</ele>
        <time>2016-07-14T06:32:06Z</time>
      </trkpt>
      <trkpt lat="42.96611" lon="17.0874">
        <ele>13</ele>
        <time>2016-07-14T06:34:06Z</time>
      </trkpt>
      <trkpt lat="42.96611" lon="17.08756">
        <ele>11</ele>
        <time>2016-07-14T06:36:06Z</time>
      </trkpt>
      <trkpt lat="42.96609" lon="17.08771">
        <ele>10</ele>
        <time>2016-07-14T06:38:06Z</time>
      </trkpt>
      <trkpt lat="42.96608" lon="17.08783">
        <ele>9</ele>
        <time>2016-07-14T06:40:06Z</time>
      </trkpt>
      <trkpt lat="42.96606" lon="17.08795">
        <ele>8</ele>
        <time>2016-07-14T06:42:06Z</time>
      </trkpt>
      <trkpt lat="42.96605" lon="17.08805">
        <ele>7</ele>
        <time>2016-07-14T06:44:06Z</time>
      </trkpt>
      <trkpt lat="42.96602" lon="17.08815">
        <ele>7</ele>
        <time>2016-07-14T06:46:06Z</time>
      </trkpt>
      <trkpt lat="42.96599" lon="17.08823">
        <ele>6</ele>
        <time>2016-07-14T06:48:06Z</time>
      </trkpt>
      <trkpt lat="42.96595" lon="17.0883">
        <ele>6</ele>
        <time>2016-07-14T06:50:06Z</time>
      </trkpt>
      <trkpt lat="42.96589" lon="17.0884">
        <ele>5</ele>
        <time>2016-07-14T06:52:06Z</time>
      </trkpt>
      <trkpt lat="42.96584" lon="17.08846">
        <ele>5</ele>
        <time>2016-07-14T06:54:06Z</time>
      </trkpt>
      <trkpt lat="42.96577" lon="17.08854">
        <ele>6</ele>
        <time>2016-07-14T06:56:06Z</time>
      </trkpt>
      <trkpt lat="42.96568" lon="17.08862">
        <ele>7</ele>
        <time>2016-07-14T06:58:06Z</time>
      </trkpt>
      <trkpt lat="42.96556" lon="17.0887">
        <ele>9</ele>
        <time>2016-07-14T07:00:06Z</time>
      </trkpt>
      <trkpt lat="42.96548" lon="17.08875">
        <ele>10</ele>
        <time>2016-07-14T07:02:06Z</time>
      </trkpt>
      <trkpt lat="42.9654" lon="17.08878">
        <ele>11</ele>
        <time>2016-07-14T07:04:06Z</time>
      </trkpt>
      <trkpt lat="42.96533" lon="17.08882">
        <ele>12</ele>
        <time>2016-07-14T07:06:06Z</time>
      </trkpt>
      <trkpt lat="42.96528" lon="17.08886">
        <ele>12</ele>
        <time>2016-07-14T07:08:06Z</time>
      </trkpt>
      <trkpt lat="42.96521" lon="17.08892">
        <ele>12</ele>
        <time>2016-07-14T07:10:06Z</time>
      </trkpt>
      <trkpt lat="42.96513" lon="17.08906">
        <ele>12</ele>
        <time>2016-07-14T07:12:06Z</time>
      </trkpt>
      <trkpt lat="42.96498" lon="17.08934">
        <ele>11</ele>
        <time>2016-07-14T07:14:06Z</time>
      </trkpt>
      <trkpt lat="42.96485" lon="17.08956">
        <ele>10</ele>
        <time>2016-07-14T07:16:06Z</time>
      </trkpt>
      <trkpt lat="42.9648" lon="17.08964">
        <ele>10</ele>
        <time>2016-07-14T07:18:06Z</time>
      </trkpt>
      <trkpt lat="42.96476" lon="17.0897">
        <ele>9</ele>
        <time>2016-07-14T07:20:06Z</time>
      </trkpt>
      <trkpt lat="42.96471" lon="17.08974">
        <ele>9</ele>
        <time>2016-07-14T07:22:06Z</time>
      </trkpt>
      <trkpt lat="42.96465" lon="17.08979">
        <ele>9</ele>
        <time>2016-07-14T07:24:06Z</time>
      </trkpt>
      <trkpt lat="42.96461" lon="17.0898">
        <ele>10</ele>
        <time>2016-07-14T07:26:06Z</time>
      </trkpt>
      <trkpt lat="42.96455" lon="17.08981">
        <ele>10</ele>
        <time>2016-07-14T07:28:06Z</time>
      </trkpt>
      <trkpt lat="42.96448" lon="17.08981">
        <ele>10</ele>
        <time>2016-07-14T07:30:06Z</time>
      </trkpt>
      <trkpt lat="42.96442" lon="17.0898">
        <ele>11</ele>
        <time>2016-07-14T07:32:06Z</time>
      </trkpt>
      <trkpt lat="42.96436" lon="17.08978">
        <ele>12</ele>
        <time>2016-07-14T07:34:06Z</time>
      </trkpt>
      <trkpt lat="42.9643" lon="17.08976">
        <ele>12</ele>
        <time>2016-07-14T07:36:06Z</time>
      </trkpt>
      <trkpt lat="42.96423" lon="17.08974">
        <ele>13</ele>
        <time>2016-07-14T07:38:06Z</time>
      </trkpt>
      <trkpt lat="42.96416" lon="17.08971">
        <ele>14</ele>
        <time>2016-07-14T07:40:06Z</time>
      </trkpt>
      <trkpt lat="42.96409" lon="17.08971">
        <ele>15</ele>
        <time>2016-07-14T07:42:06Z</time>
      </trkpt>
      <trkpt lat="42.96406" lon="17.08971">
        <ele>15</ele>
        <time>2016-07-14T07:44:06Z</time>
      </trkpt>
      <trkpt lat="42.96402" lon="17.08971">
        <ele>15</ele>
        <time>2016-07-14T07:46:06Z</time>
      </trkpt>
      <trkpt lat="42.96398" lon="17.08972">
        <ele>16</ele>
        <time>2016-07-14T07:48:06Z</time>
      </trkpt>
      <trkpt lat="42.96394" lon="17.08974">
        <ele>16</ele>
        <time>2016-07-14T07:50:06Z</time>
      </trkpt>
      <trkpt lat="42.9639" lon="17.08978">
        <ele>16</ele>
        <time>2016-07-14T07:52:06Z</time>
      </trkpt>
      <trkpt lat="42.96387" lon="17.08981">
        <ele>16</ele>
        <time>2016-07-14T07:54:06Z</time>
      </trkpt>
      <trkpt lat="42.96385" lon="17.08984">
        <ele>16</ele>
        <time>2016-07-14T07:56:06Z</time>
      </trkpt>
      <trkpt lat="42.96383" lon="17.08989">
        <ele>15</ele>
        <time>2016-07-14T07:58:06Z</time>
      </trkpt>
      <trkpt lat="42.96382" lon="17.08995">
        <ele>15</ele>
        <time>2016-07-14T08:00:06Z</time>
      </trkpt>
      <trkpt lat="42.96381" lon="17.09004">
        <ele>15</ele>
        <time>2016-07-14T08:02:06Z</time>
      </trkpt>
      <trkpt lat="42.96381" lon="17.09017">
        <ele>14</ele>
        <time>2016-07-14T08:04:06Z</time>
      </trkpt>
      <trkpt lat="42.96386" lon="17.09059">
        <ele>13</ele>
        <time>2016-07-14T08:06:06Z</time>
      </trkpt>
      <trkpt lat="42.96393" lon="17.09095">
        <ele>11</ele>
        <time>2016-07-14T08:08:06Z</time>
      </trkpt>
      <trkpt lat="42.96402" lon="17.09154">
        <ele>12</ele>
        <time>2016-07-14T08:10:06Z</time>
      </trkpt>
      <trkpt lat="42.96405" lon="17.0917">
        <ele>12</ele>
        <time>2016-07-14T08:12:06Z</time>
      </trkpt>
      <trkpt lat="42.96407" lon="17.09185">
        <ele>12</ele>
        <time>2016-07-14T08:14:06Z</time>
      </trkpt>
      <trkpt lat="42.96408" lon="17.09209">
        <ele>13</ele>
        <time>2016-07-14T08:16:06Z</time>
      </trkpt>
      <trkpt lat="42.96409" lon="17.09227">
        <ele>14</ele>
        <time>2016-07-14T08:18:06Z</time>
      </trkpt>
      <trkpt lat="42.96409" lon="17.09241">
        <ele>14</ele>
        <time>2016-07-14T08:20:06Z</time>
      </trkpt>
      <trkpt lat="42.96408" lon="17.0926">
        <ele>15</ele>
        <time>2016-07-14T08:22:06Z</time>
      </trkpt>
      <trkpt lat="42.96408" lon="17.09275">
        <ele>15</ele>
        <time>2016-07-14T08:24:06Z</time>
      </trkpt>
      <trkpt lat="42.96406" lon="17.09291">
        <ele>15</ele>
        <time>2016-07-14T08:26:06Z</time>
      </trkpt>
      <trkpt lat="42.96403" lon="17.09318">
        <ele>16</ele>
        <time>2016-07-14T08:28:06Z</time>
      </trkpt>
      <trkpt lat="42.96393" lon="17.09386">
        <ele>18</ele>
        <time>2016-07-14T08:30:06Z</time>
      </trkpt>
      <trkpt lat="42.96384" lon="17.09428">
        <ele>20</ele>
        <time>2016-07-14T08:32:06Z</time>
      </trkpt>
      <trkpt lat="42.96379" lon="17.09453">
        <ele>22</ele>
        <time>2016-07-14T08:34:06Z</time>
      </trkpt>
      <trkpt lat="42.96374" lon="17.09483">
        <ele>23</ele>
        <time>2016-07-14T08:36:06Z</time>
      </trkpt>
      <trkpt lat="42.96366" lon="17.09527">
        <ele>23</ele>
        <time>2016-07-14T08:38:06Z</time>
      </trkpt>
      <trkpt lat="42.96362" lon="17.09545">
        <ele>23</ele>
        <time>2016-07-14T08:40:06Z</time>
      </trkpt>
      <trkpt lat="42.96356" lon="17.09568">
        <ele>23</ele>
        <time>2016-07-14T08:42:06Z</time>
      </trkpt>
      <trkpt lat="42.96354" lon="17.09578">
        <ele>23</ele>
        <time>2016-07-14T08:44:06Z</time>
      </trkpt>
      <trkpt lat="42.96352" lon="17.09584">
        <ele>23</ele>
        <time>2016-07-14T08:46:06Z</time>
      </trkpt>
      <trkpt lat="42.9635" lon="17.0959">
        <ele>22</ele>
        <time>2016-07-14T08:48:06Z</time>
      </trkpt>
      <trkpt lat="42.96348" lon="17.09598">
        <ele>22</ele>
        <time>2016-07-14T08:50:06Z</time>
      </trkpt>
      <trkpt lat="42.96344" lon="17.09606">
        <ele>21</ele>
        <time>2016-07-14T08:52:06Z</time>
      </trkpt>
      <trkpt lat="42.96337" lon="17.09625">
        <ele>20</ele>
        <time>2016-07-14T08:54:06Z</time>
      </trkpt>
      <trkpt lat="42.96326" lon="17.09647">
        <ele>19</ele>
        <time>2016-07-14T08:56:06Z</time>
      </trkpt>
      <trkpt lat="42.96315" lon="17.09672">
        <ele>20</ele>
        <time>2016-07-14T08:58:06Z</time>
      </trkpt>
      <trkpt lat="42.96307" lon="17.0969">
        <ele>21</ele>
        <time>2016-07-14T09:00:06Z</time>
      </trkpt>
      <trkpt lat="42.96304" lon="17.09699">
        <ele>21</ele>
        <time>2016-07-14T09:02:06Z</time>
      </trkpt>
      <trkpt lat="42.96302" lon="17.09707">
        <ele>21</ele>
        <time>2016-07-14T09:04:06Z</time>
      </trkpt>
      <trkpt lat="42.963" lon="17.09717">
        <ele>21</ele>
        <time>2016-07-14T09:06:06Z</time>
      </trkpt>
      <trkpt lat="42.96298" lon="17.09727">
        <ele>21</ele>
        <time>2016-07-14T09:08:06Z</time>
      </trkpt>
      <trkpt lat="42.96298" lon="17.09734">
        <ele>20</ele>
        <time>2016-07-14T09:10:06Z</time>
      </trkpt>
      <trkpt lat="42.96298" lon="17.0974">
        <ele>20</ele>
        <time>2016-07-14T09:12:06Z</time>
      </trkpt>
      <trkpt lat="42.96299" lon="17.09754">
        <ele>19</ele>
        <time>2016-07-14T09:14:06Z</time>
      </trkpt>
      <trkpt lat="42.96301" lon="17.09768">
        <ele>18</ele>
        <time>2016-07-14T09:16:06Z</time>
      </trkpt>
      <trkpt lat="42.96302" lon="17.09779">
        <ele>17</ele>
        <time>2016-07-14T09:18:06Z</time>
      </trkpt>
      <trkpt lat="42.96301" lon="17.09792">
        <ele>18</ele>
        <time>2016-07-14T09:20:06Z</time>
      </trkpt>
      <trkpt lat="42.963" lon="17.09814">
        <ele>18</ele>
        <time>2016-07-14T09:22:06Z</time>
      </trkpt>
      <trkpt lat="42.963" lon="17.0982">
        <ele>17</ele>
        <time>2016-07-14T09:24:06Z</time>
      </trkpt>
      <trkpt lat="42.963" lon="17.0982">
        <ele>17</ele>
        <time>2016-07-14T09:26:06Z</time>
      </trkpt>
      <trkpt lat="42.96299" lon="17.0983">
        <ele>18</ele>
        <time>2016-07-14T09:28:06Z</time>
      </trkpt>
      <trkpt lat="42.96298" lon="17.09841">
        <ele>17</ele>
        <time>2016-07-14T09:30:06Z</time>
      </trkpt>
      <trkpt lat="42.96296" lon="17.09859">
        <ele>17</ele>
        <time>2016-07-14T09:32:06Z</time>
      </trkpt>
      <trkpt lat="42.96294" lon="17.09874">
        <ele>16</ele>
        <time>2016-07-14T09:34:06Z</time>
      </trkpt>
      <trkpt lat="42.9629" lon="17.09891">
        <ele>16</ele>
        <time>2016-07-14T09:36:06Z</time>
      </trkpt>
      <trkpt lat="42.96287" lon="17.09905">
        <ele>16</ele>
        <time>2016-07-14T09:38:06Z</time>
      </trkpt>
      <trkpt lat="42.96284" lon="17.0992">
        <ele>15</ele>
        <time>2016-07-14T09:40:06Z</time>
      </trkpt>
      <trkpt lat="42.96279" lon="17.09933">
        <ele>15</ele>
        <time>2016-07-14T09:42:06Z</time>
      </trkpt>
      <trkpt lat="42.96274" lon="17.09948">
        <ele>14</ele>
        <time>2016-07-14T09:44:06Z</time>
      </trkpt>
      <trkpt lat="42.9627" lon="17.09959">
        <ele>13</ele>
        <time>2016-07-14T09:46:06Z</time>
      </trkpt>
      <trkpt lat="42.96266" lon="17.09968">
        <ele>13</ele>
        <time>2016-07-14T09:48:06Z</time>
      </trkpt>
      <trkpt lat="42.96264" lon="17.09973">
        <ele>12</ele>
        <time>2016-07-14T09:50:06Z</time>
      </trkpt>
      <trkpt lat="42.96259" lon="17.0998">
        <ele>12</ele>
        <time>2016-07-14T09:52:06Z</time>
      </trkpt>
      <trkpt lat="42.96254" lon="17.09988">
        <ele>11</ele>
        <time>2016-07-14T09:54:06Z</time>
      </trkpt>
      <trkpt lat="42.9625" lon="17.09995">
        <ele>11</ele>
        <time>2016-07-14T09:56:06Z</time>
      </trkpt>
      <trkpt lat="42.96245" lon="17.10002">
        <ele>11</ele>
        <time>2016-07-14T09:58:06Z</time>
      </trkpt>
      <trkpt lat="42.96236" lon="17.10014">
        <ele>11</ele>
        <time>2016-07-14T10:00:06Z</time>
      </trkpt>
      <trkpt lat="42.9623" lon="17.10021">
        <ele>10</ele>
        <time>2016-07-14T10:02:06Z</time>
      </trkpt>
      <trkpt lat="42.96224" lon="17.10028">
        <ele>10</ele>
        <time>2016-07-14T10:04:06Z</time>
      </trkpt>
      <trkpt lat="42.96215" lon="17.1004">
        <ele>10</ele>
        <time>2016-07-14T10:06:06Z</time>
      </trkpt>
      <trkpt lat="42.96206" lon="17.1005">
        <ele>9</ele>
        <time>2016-07-14T10:08:06Z</time>
      </trkpt>
      <trkpt lat="42.96195" lon="17.10061">
        <ele>9</ele>
        <time>2016-07-14T10:10:06Z</time>
      </trkpt>
      <trkpt lat="42.96188" lon="17.10066">
        <ele>9</ele>
        <time>2016-07-14T10:12:06Z</time>
      </trkpt>
      <trkpt lat="42.96182" lon="17.10071">
        <ele>9</ele>
        <time>2016-07-14T10:14:06Z</time>
      </trkpt>
      <trkpt lat="42.96178" lon="17.10074">
        <ele>9</ele>
        <time>2016-07-14T10:16:06Z</time>
      </trkpt>
      <trkpt lat="42.96173" lon="17.10076">
        <ele>9</ele>
        <time>2016-07-14T10:18:06Z</time>
      </trkpt>
      <trkpt lat="42.96168" lon="17.10079">
        <ele>9</ele>
        <time>2016-07-14T10:20:06Z</time>
      </trkpt>
      <trkpt lat="42.96163" lon="17.1008">
        <ele>9</ele>
        <time>2016-07-14T10:22:06Z</time>
      </trkpt>
      <trkpt lat="42.96155" lon="17.10083">
        <ele>8</ele>
        <time>2016-07-14T10:24:06Z</time>
      </trkpt>
      <trkpt lat="42.96144" lon="17.10086">
        <ele>8</ele>
        <time>2016-07-14T10:26:06Z</time>
      </trkpt>
      <trkpt lat="42.96129" lon="17.10089">
        <ele>8</ele>
        <time>2016-07-14T10:28:06Z</time>
      </trkpt>
      <trkpt lat="42.96111" lon="17.1009">
        <ele>9</ele>
        <time>2016-07-14T10:30:06Z</time>
      </trkpt>
      <trkpt lat="42.96102" lon="17.1009">
        <ele>9</ele>
        <time>2016-07-14T10:32:06Z</time>
      </trkpt>
      <trkpt lat="42.96095" lon="17.1009">
        <ele>9</ele>
        <time>2016-07-14T10:34:06Z</time>
      </trkpt>
      <trkpt lat="42.96087" lon="17.10088">
        <ele>10</ele>
        <time>2016-07-14T10:36:06Z</time>
      </trkpt>
      <trkpt lat="42.9608" lon="17.10085">
        <ele>10</ele>
        <time>2016-07-14T10:38:06Z</time>
      </trkpt>
      <trkpt lat="42.96073" lon="17.10082">
        <ele>11</ele>
        <time>2016-07-14T10:40:06Z</time>
      </trkpt>
      <trkpt lat="42.96065" lon="17.10076">
        <ele>12</ele>
        <time>2016-07-14T10:42:06Z</time>
      </trkpt>
      <trkpt lat="42.96059" lon="17.1007">
        <ele>13</ele>
        <time>2016-07-14T10:44:06Z</time>
      </trkpt>
      <trkpt lat="42.96051" lon="17.10062">
        <ele>15</ele>
        <time>2016-07-14T10:46:06Z</time>
      </trkpt>
      <trkpt lat="42.96044" lon="17.10055">
        <ele>16</ele>
        <time>2016-07-14T10:48:06Z</time>
      </trkpt>
      <trkpt lat="42.9604" lon="17.10049">
        <ele>17</ele>
        <time>2016-07-14T10:50:06Z</time>
      </trkpt>
      <trkpt lat="42.96035" lon="17.10043">
        <ele>17</ele>
        <time>2016-07-14T10:52:06Z</time>
      </trkpt>
      <trkpt lat="42.9603" lon="17.1004">
        <ele>18</ele>
        <time>2016-07-14T10:54:06Z</time>
      </trkpt>
      <trkpt lat="42.96026" lon="17.10038">
        <ele>18</ele>
        <time>2016-07-14T10:56:06Z</time>
      </trkpt>
      <trkpt lat="42.9602" lon="17.10035">
        <ele>18</ele>
        <time>2016-07-14T10:58:06Z</time>
      </trkpt>
      <trkpt lat="42.96015" lon="17.10035">
        <ele>18</ele>
        <time>2016-07-14T11:00:06Z</time>
      </trkpt>
      <trkpt lat="42.96009" lon="17.10035">
        <ele>18</ele>
        <time>2016-07-14T11:02:06Z</time>
      </trkpt>
      <trkpt lat="42.96004" lon="17.10036">
        <ele>17</ele>
        <time>2016-07-14T11:04:06Z</time>
      </trkpt>
      <trkpt lat="42.95999" lon="17.10039">
        <ele>17</ele>
        <time>2016-07-14T11:06:06Z</time>
      </trkpt>
      <trkpt lat="42.95995" lon="17.10042">
        <ele>18</ele>
        <time>2016-07-14T11:08:06Z</time>
      </trkpt>
      <trkpt lat="42.95993" lon="17.10046">
        <ele>18</ele>
        <time>2016-07-14T11:10:06Z</time>
      </trkpt>
      <trkpt lat="42.95991" lon="17.1005">
        <ele>19</ele>
        <time>2016-07-14T11:12:06Z</time>
      </trkpt>
      <trkpt lat="42.95991" lon="17.10055">
        <ele>18</ele>
        <time>2016-07-14T11:14:06Z</time>
      </trkpt>
      <trkpt lat="42.95991" lon="17.10063">
        <ele>18</ele>
        <time>2016-07-14T11:16:06Z</time>
      </trkpt>
      <trkpt lat="42.95992" lon="17.10067">
        <ele>18</ele>
        <time>2016-07-14T11:18:06Z</time>
      </trkpt>
      <trkpt lat="42.95993" lon="17.10075">
        <ele>17</ele>
        <time>2016-07-14T11:20:06Z</time>
      </trkpt>
      <trkpt lat="42.96005" lon="17.10113">
        <ele>15</ele>
        <time>2016-07-14T11:22:06Z</time>
      </trkpt>
      <trkpt lat="42.9601" lon="17.10129">
        <ele>15</ele>
        <time>2016-07-14T11:24:06Z</time>
      </trkpt>
      <trkpt lat="42.96017" lon="17.10152">
        <ele>14</ele>
        <time>2016-07-14T11:26:06Z</time>
      </trkpt>
      <trkpt lat="42.96021" lon="17.10168">
        <ele>14</ele>
        <time>2016-07-14T11:28:06Z</time>
      </trkpt>
      <trkpt lat="42.96032" lon="17.10205">
        <ele>13</ele>
        <time>2016-07-14T11:30:06Z</time>
      </trkpt>
      <trkpt lat="42.96036" lon="17.10228">
        <ele>13</ele>
        <time>2016-07-14T11:32:06Z</time>
      </trkpt>
      <trkpt lat="42.96037" lon="17.10247">
        <ele>13</ele>
        <time>2016-07-14T11:34:06Z</time>
      </trkpt>
      <trkpt lat="42.96036" lon="17.10259">
        <ele>13</ele>
        <time>2016-07-14T11:36:06Z</time>
      </trkpt>
      <trkpt lat="42.96034" lon="17.10273">
        <ele>13</ele>
        <time>2016-07-14T11:38:06Z</time>
      </trkpt>
      <trkpt lat="42.9603" lon="17.10293">
        <ele>12</ele>
        <time>2016-07-14T11:40:06Z</time>
      </trkpt>
      <trkpt lat="42.96025" lon="17.10306">
        <ele>12</ele>
        <time>2016-07-14T11:42:06Z</time>
      </trkpt>
      <trkpt lat="42.96021" lon="17.10315">
        <ele>12</ele>
        <time>2016-07-14T11:44:06Z</time>
      </trkpt>
      <trkpt lat="42.96021" lon="17.10316">
        <ele>12</ele>
        <time>2016-07-14T11:46:06Z</time>
      </trkpt>
      <trkpt lat="42.96014" lon="17.10331">
        <ele>12</ele>
        <time>2016-07-14T11:48:06Z</time>
      </trkpt>
      <trkpt lat="42.96008" lon="17.10344">
        <ele>12</ele>
        <time>2016-07-14T11:50:06Z</time>
      </trkpt>
      <trkpt lat="42.96005" lon="17.10355">
        <ele>12</ele>
        <time>2016-07-14T11:52:06Z</time>
      </trkpt>
      <trkpt lat="42.96002" lon="17.10381">
        <ele>12</ele>
        <time>2016-07-14T11:54:06Z</time>
      </trkpt>
      <trkpt lat="42.96003" lon="17.104">
        <ele>12</ele>
        <time>2016-07-14T11:56:06Z</time>
      </trkpt>
      <trkpt lat="42.96004" lon="17.10414">
        <ele>12</ele>
        <time>2016-07-14T11:58:06Z</time>
      </trkpt>
      <trkpt lat="42.96007" lon="17.10426">
        <ele>11</ele>
        <time>2016-07-14T12:00:06Z</time>
      </trkpt>
      <trkpt lat="42.96011" lon="17.10443">
        <ele>11</ele>
        <time>2016-07-14T12:02:06Z</time>
      </trkpt>
      <trkpt lat="42.96016" lon="17.10481">
        <ele>11</ele>
        <time>2016-07-14T12:04:06Z</time>
      </trkpt>
      <trkpt lat="42.96018" lon="17.10514">
        <ele>11</ele>
        <time>2016-07-14T12:06:06Z</time>
      </trkpt>
      <trkpt lat="42.96017" lon="17.10541">
        <ele>12</ele>
        <time>2016-07-14T12:08:06Z</time>
      </trkpt>
      <trkpt lat="42.96017" lon="17.10541">
        <ele>12</ele>
        <time>2016-07-14T12:10:06Z</time>
      </trkpt>
      <trkpt lat="42.96011" lon="17.10576">
        <ele>13</ele>
        <time>2016-07-14T12:12:06Z</time>
      </trkpt>
      <trkpt lat="42.96004" lon="17.10601">
        <ele>13</ele>
        <time>2016-07-14T12:14:06Z</time>
      </trkpt>
      <trkpt lat="42.95998" lon="17.10621">
        <ele>14</ele>
        <time>2016-07-14T12:16:06Z</time>
      </trkpt>
      <trkpt lat="42.9599" lon="17.1064">
        <ele>16</ele>
        <time>2016-07-14T12:18:06Z</time>
      </trkpt>
      <trkpt lat="42.95951" lon="17.10723">
        <ele>19</ele>
        <time>2016-07-14T12:20:06Z</time>
      </trkpt>
      <trkpt lat="42.95939" lon="17.10753">
        <ele>18</ele>
        <time>2016-07-14T12:22:06Z</time>
      </trkpt>
      <trkpt lat="42.95931" lon="17.1077">
        <ele>17</ele>
        <time>2016-07-14T12:24:06Z</time>
      </trkpt>
      <trkpt lat="42.95922" lon="17.10797">
        <ele>15</ele>
        <time>2016-07-14T12:26:06Z</time>
      </trkpt>
      <trkpt lat="42.95893" lon="17.10854">
        <ele>15</ele>
        <time>2016-07-14T12:28:06Z</time>
      </trkpt>
      <trkpt lat="42.95876" lon="17.10888">
        <ele>16</ele>
        <time>2016-07-14T12:30:06Z</time>
      </trkpt>
      <trkpt lat="42.95853" lon="17.10927">
        <ele>16</ele>
        <time>2016-07-14T12:32:06Z</time>
      </trkpt>
      <trkpt lat="42.95836" lon="17.1095">
        <ele>17</ele>
        <time>2016-07-14T12:34:06Z</time>
      </trkpt>
      <trkpt lat="42.95815" lon="17.10969">
        <ele>18</ele>
        <time>2016-07-14T12:36:06Z</time>
      </trkpt>
      <trkpt lat="42.95795" lon="17.10991">
        <ele>19</ele>
        <time>2016-07-14T12:38:06Z</time>
      </trkpt>
      <trkpt lat="42.95792" lon="17.10995">
        <ele>19</ele>
        <time>2016-07-14T12:40:06Z</time>
      </trkpt>
      <trkpt lat="42.95789" lon="17.10999">
        <ele>18</ele>
        <time>2016-07-14T12:42:06Z</time>
      </trkpt>
      <trkpt lat="42.95787" lon="17.11004">
        <ele>18</ele>
        <time>2016-07-14T12:44:06Z</time>
      </trkpt>
      <trkpt lat="42.95785" lon="17.11011">
        <ele>18</ele>
        <time>2016-07-14T12:46:06Z</time>
      </trkpt>
      <trkpt lat="42.95782" lon="17.11022">
        <ele>18</ele>
        <time>2016-07-14T12:48:06Z</time>
      </trkpt>
      <trkpt lat="42.95777" lon="17.11038">
        <ele>17</ele>
        <time>2016-07-14T12:50:06Z</time>
      </trkpt>
      <trkpt lat="42.95772" lon="17.11053">
        <ele>17</ele>
        <time>2016-07-14T12:52:06Z</time>
      </trkpt>
      <trkpt lat="42.95768" lon="17.11064">
        <ele>17</ele>
        <time>2016-07-14T12:54:06Z</time>
      </trkpt>
      <trkpt lat="42.95764" lon="17.11071">
        <ele>17</ele>
        <time>2016-07-14T12:56:06Z</time>
      </trkpt>
      <trkpt lat="42.9576" lon="17.11077">
        <ele>17</ele>
        <time>2016-07-14T12:58:06Z</time>
      </trkpt>
      <trkpt lat="42.95752" lon="17.11086">
        <ele>18</ele>
        <time>2016-07-14T13:00:06Z</time>
      </trkpt>
      <trkpt lat="42.95731" lon="17.11102">
        <ele>19</ele>
        <time>2016-07-14T13:02:06Z</time>
      </trkpt>
      <trkpt lat="42.95717" lon="17.11118">
        <ele>20</ele>
        <time>2016-07-14T13:04:06Z</time>
      </trkpt>
      <trkpt lat="42.95711" lon="17.11129">
        <ele>20</ele>
        <time>2016-07-14T13:06:06Z</time>
      </trkpt>
      <trkpt lat="42.9571" lon="17.11131">
        <ele>20</ele>
        <time>2016-07-14T13:08:06Z</time>
      </trkpt>
      <trkpt lat="42.95705" lon="17.11144">
        <ele>20</ele>
        <time>2016-07-14T13:10:06Z</time>
      </trkpt>
      <trkpt lat="42.95702" lon="17.11156">
        <ele>20</ele>
        <time>2016-07-14T13:12:06Z</time>
      </trkpt>
      <trkpt lat="42.95702" lon="17.11171">
        <ele>20</ele>
        <time>2016-07-14T13:14:06Z</time>
      </trkpt>
      <trkpt lat="42.95703" lon="17.11176">
        <ele>20</ele>
        <time>2016-07-14T13:16:06Z</time>
      </trkpt>
      <trkpt lat="42.95705" lon="17.11186">
        <ele>20</ele>
        <time>2016-07-14T13:18:06Z</time>
      </trkpt>
      <trkpt lat="42.95709" lon="17.11197">
        <ele>20</ele>
        <time>2016-07-14T13:20:06Z</time>
      </trkpt>
      <trkpt lat="42.95713" lon="17.11205">
        <ele>20</ele>
        <time>2016-07-14T13:22:06Z</time>
      </trkpt>
      <trkpt lat="42.95721" lon="17.11215">
        <ele>19</ele>
        <time>2016-07-14T13:24:06Z</time>
      </trkpt>
      <trkpt lat="42.95726" lon="17.1122">
        <ele>18</ele>
        <time>2016-07-14T13:26:06Z</time>
      </trkpt>
      <trkpt lat="42.95742" lon="17.11233">
        <ele>16</ele>
        <time>2016-07-14T13:28:06Z</time>
      </trkpt>
      <trkpt lat="42.95768" lon="17.11255">
        <ele>14</ele>
        <time>2016-07-14T13:30:06Z</time>
      </trkpt>
      <trkpt lat="42.95787" lon="17.11273">
        <ele>14</ele>
        <time>2016-07-14T13:32:06Z</time>
      </trkpt>
      <trkpt lat="42.95806" lon="17.11293">
        <ele>13</ele>
        <time>2016-07-14T13:34:06Z</time>
      </trkpt>
      <trkpt lat="42.95814" lon="17.11305">
        <ele>13</ele>
        <time>2016-07-14T13:36:06Z</time>
      </trkpt>
      <trkpt lat="42.95825" lon="17.11324">
        <ele>13</ele>
        <time>2016-07-14T13:38:06Z</time>
      </trkpt>
      <trkpt lat="42.95832" lon="17.1134">
        <ele>12</ele>
        <time>2016-07-14T13:40:06Z</time>
      </trkpt>
      <trkpt lat="42.95837" lon="17.1136">
        <ele>13</ele>
        <time>2016-07-14T13:42:06Z</time>
      </trkpt>
      <trkpt lat="42.95843" lon="17.11376">
        <ele>13</ele>
        <time>2016-07-14T13:44:06Z</time>
      </trkpt>
      <trkpt lat="42.95846" lon="17.11382">
        <ele>12</ele>
        <time>2016-07-14T13:46:06Z</time>
      </trkpt>
      <trkpt lat="42.95848" lon="17.11386">
        <ele>12</ele>
        <time>2016-07-14T13:48:06Z</time>
      </trkpt>
      <trkpt lat="42.95851" lon="17.1139">
        <ele>12</ele>
        <time>2016-07-14T13:50:06Z</time>
      </trkpt>
      <trkpt lat="42.95856" lon="17.11395">
        <ele>12</ele>
        <time>2016-07-14T13:52:06Z</time>
      </trkpt>
      <trkpt lat="42.9586" lon="17.11397">
        <ele>11</ele>
        <time>2016-07-14T13:54:06Z</time>
      </trkpt>
      <trkpt lat="42.95864" lon="17.11399">
        <ele>11</ele>
        <time>2016-07-14T13:56:06Z</time>
      </trkpt>
      <trkpt lat="42.95869" lon="17.11401">
        <ele>10</ele>
        <time>2016-07-14T13:58:06Z</time>
      </trkpt>
      <trkpt lat="42.95888" lon="17.11407">
        <ele>8</ele>
        <time>2016-07-14T14:00:06Z</time>
      </trkpt>
      <trkpt lat="42.9589" lon="17.11408">
        <ele>8</ele>
        <time>2016-07-14T14:02:06Z</time>
      </trkpt>
      <trkpt lat="42.95893" lon="17.1141">
        <ele>8</ele>
        <time>2016-07-14T14:04:06Z</time>
      </trkpt>
      <trkpt lat="42.95897" lon="17.11413">
        <ele>7</ele>
        <time>2016-07-14T14:06:06Z</time>
      </trkpt>
      <trkpt lat="42.95902" lon="17.11417">
        <ele>7</ele>
        <time>2016-07-14T14:08:06Z</time>
      </trkpt>
      <trkpt lat="42.95908" lon="17.11424">
        <ele>6</ele>
        <time>2016-07-14T14:10:06Z</time>
      </trkpt>
      <trkpt lat="42.95914" lon="17.11433">
        <ele>5</ele>
        <time>2016-07-14T14:12:06Z</time>
      </trkpt>
      <trkpt lat="42.95917" lon="17.11438">
        <ele>5</ele>
        <time>2016-07-14T14:14:06Z</time>
      </trkpt>
      <trkpt lat="42.9592" lon="17.11446">
        <ele>4</ele>
        <time>2016-07-14T14:16:06Z</time>
      </trkpt>
      <trkpt lat="42.95922" lon="17.11451">
        <ele>4</ele>
        <time>2016-07-14T14:18:06Z</time>
      </trkpt>
      <trkpt lat="42.95923" lon="17.11458">
        <ele>4</ele>
        <time>2016-07-14T14:20:06Z</time>
      </trkpt>
      <trkpt lat="42.95925" lon="17.11464">
        <ele>4</ele>
        <time>2016-07-14T14:22:06Z</time>
      </trkpt>
      <trkpt lat="42.95925" lon="17.11474">
        <ele>4</ele>
        <time>2016-07-14T14:24:06Z</time>
      </trkpt>
      <trkpt lat="42.95925" lon="17.11493">
        <ele>4</ele>
        <time>2016-07-14T14:26:06Z</time>
      </trkpt>
      <trkpt lat="42.95924" lon="17.11509">
        <ele>4</ele>
        <time>2016-07-14T14:28:06Z</time>
      </trkpt>
      <trkpt lat="42.95922" lon="17.11527">
        <ele>4</ele>
        <time>2016-07-14T14:30:06Z</time>
      </trkpt>
      <trkpt lat="42.95919" lon="17.11543">
        <ele>4</ele>
        <time>2016-07-14T14:32:06Z</time>
      </trkpt>
      <trkpt lat="42.95914" lon="17.11563">
        <ele>5</ele>
        <time>2016-07-14T14:34:06Z</time>
      </trkpt>
      <trkpt lat="42.9591" lon="17.11575">
        <ele>6</ele>
        <time>2016-07-14T14:36:06Z</time>
      </trkpt>
      <trkpt lat="42.95902" lon="17.11601">
        <ele>8</ele>
        <time>2016-07-14T14:38:06Z</time>
      </trkpt>
      <trkpt lat="42.95889" lon="17.11638">
        <ele>10</ele>
        <time>2016-07-14T14:40:06Z</time>
      </trkpt>
      <trkpt lat="42.95876" lon="17.1167">
        <ele>12</ele>
        <time>2016-07-14T14:42:06Z</time>
      </trkpt>
      <trkpt lat="42.95864" lon="17.11694">
        <ele>13</ele>
        <time>2016-07-14T14:44:06Z</time>
      </trkpt>
      <trkpt lat="42.95857" lon="17.11707">
        <ele>13</ele>
        <time>2016-07-14T14:46:06Z</time>
      </trkpt>
      <trkpt lat="42.95855" lon="17.11709">
        <ele>13</ele>
        <time>2016-07-14T14:48:06Z</time>
      </trkpt>
      <trkpt lat="42.95854" lon="17.11713">
        <ele>12</ele>
        <time>2016-07-14T14:50:06Z</time>
      </trkpt>
      <trkpt lat="42.95853" lon="17.11718">
        <ele>12</ele>
        <time>2016-07-14T14:52:06Z</time>
      </trkpt>
      <trkpt lat="42.95852" lon="17.11723">
        <ele>12</ele>
        <time>2016-07-14T14:54:06Z</time>
      </trkpt>
      <trkpt lat="42.95852" lon="17.11727">
        <ele>12</ele>
        <time>2016-07-14T14:56:06Z</time>
      </trkpt>
      <trkpt lat="42.95852" lon="17.11732">
        <ele>11</ele>
        <time>2016-07-14T14:58:06Z</time>
      </trkpt>
      <trkpt lat="42.95853" lon="17.11735">
        <ele>11</ele>
        <time>2016-07-14T15:00:06Z</time>
      </trkpt>
      <trkpt lat="42.95854" lon="17.11738">
        <ele>11</ele>
        <time>2016-07-14T15:02:06Z</time>
      </trkpt>
      <trkpt lat="42.95855" lon="17.1174">
        <ele>11</ele>
        <time>2016-07-14T15:04:06Z</time>
      </trkpt>
      <trkpt lat="42.95856" lon="17.11742">
        <ele>11</ele>
        <time>2016-07-14T15:06:06Z</time>
      </trkpt>
      <trkpt lat="42.95858" lon="17.11743">
        <ele>11</ele>
        <time>2016-07-14T15:08:06Z</time>
      </trkpt>
      <trkpt lat="42.9586" lon="17.11744">
        <ele>11</ele>
        <time>2016-07-14T15:10:06Z</time>
      </trkpt>
      <trkpt lat="42.95862" lon="17.11745">
        <ele>11</ele>
        <time>2016-07-14T15:12:06Z</time>
      </trkpt>
      <trkpt lat="42.95864" lon="17.11745">
        <ele>11</ele>
        <time>2016-07-14T15:14:06Z</time>
      </trkpt>
      <trkpt lat="42.95867" lon="17.11745">
        <ele>11</ele>
        <time>2016-07-14T15:16:06Z</time>
      </trkpt>
      <trkpt lat="42.9587" lon="17.11744">
        <ele>11</ele>
        <time>2016-07-14T15:18:06Z</time>
      </trkpt>
      <trkpt lat="42.95875" lon="17.11742">
        <ele>12</ele>
        <time>2016-07-14T15:20:06Z</time>
      </trkpt>
      <trkpt lat="42.9588" lon="17.11737">
        <ele>12</ele>
        <time>2016-07-14T15:22:06Z</time>
      </trkpt>
      <trkpt lat="42.95895" lon="17.1172">
        <ele>11</ele>
        <time>2016-07-14T15:24:06Z</time>
      </trkpt>
      <trkpt lat="42.95908" lon="17.11703">
        <ele>10</ele>
        <time>2016-07-14T15:26:06Z</time>
      </trkpt>
      <trkpt lat="42.95935" lon="17.11677">
        <ele>8</ele>
        <time>2016-07-14T15:28:06Z</time>
      </trkpt>
      <trkpt lat="42.95953" lon="17.11665">
        <ele>7</ele>
        <time>2016-07-14T15:30:06Z</time>
      </trkpt>
      <trkpt lat="42.9597" lon="17.11657">
        <ele>7</ele>
        <time>2016-07-14T15:32:06Z</time>
      </trkpt>
      <trkpt lat="42.96007" lon="17.1165">
        <ele>6</ele>
        <time>2016-07-14T15:34:06Z</time>
      </trkpt>
      <trkpt lat="42.96051" lon="17.11652">
        <ele>6</ele>
        <time>2016-07-14T15:36:06Z</time>
      </trkpt>
      <trkpt lat="42.96096" lon="17.11658">
        <ele>6</ele>
        <time>2016-07-14T15:38:06Z</time>
      </trkpt>
      <trkpt lat="42.96125" lon="17.11661">
        <ele>6</ele>
        <time>2016-07-14T15:40:06Z</time>
      </trkpt>
      <trkpt lat="42.96136" lon="17.11665">
        <ele>6</ele>
        <time>2016-07-14T15:42:06Z</time>
      </trkpt>
      <trkpt lat="42.96152" lon="17.11667">
        <ele>5</ele>
        <time>2016-07-14T15:44:06Z</time>
      </trkpt>
      <trkpt lat="42.96166" lon="17.11671">
        <ele>6</ele>
        <time>2016-07-14T15:46:06Z</time>
      </trkpt>
      <trkpt lat="42.96178" lon="17.11681">
        <ele>9</ele>
        <time>2016-07-14T15:48:06Z</time>
      </trkpt>
      <trkpt lat="42.962" lon="17.1171">
        <ele>9</ele>
        <time>2016-07-14T15:50:06Z</time>
      </trkpt>
      <trkpt lat="42.96227" lon="17.1175">
        <ele>9</ele>
        <time>2016-07-14T15:52:06Z</time>
      </trkpt>
      <trkpt lat="42.9625" lon="17.11801">
        <ele>22</ele>
        <time>2016-07-14T15:54:06Z</time>
      </trkpt>
      <trkpt lat="42.96265" lon="17.11842">
        <ele>11</ele>
        <time>2016-07-14T15:56:06Z</time>
      </trkpt>
      <trkpt lat="42.96269" lon="17.11864">
        <ele>12</ele>
        <time>2016-07-14T15:58:06Z</time>
      </trkpt>
      <trkpt lat="42.96277" lon="17.11902">
        <ele>14</ele>
        <time>2016-07-14T16:00:06Z</time>
      </trkpt>
      <trkpt lat="42.96281" lon="17.11922">
        <ele>14</ele>
        <time>2016-07-14T16:02:06Z</time>
      </trkpt>
      <trkpt lat="42.96285" lon="17.11931">
        <ele>14</ele>
        <time>2016-07-14T16:04:06Z</time>
      </trkpt>
      <trkpt lat="42.96286" lon="17.11934">
        <ele>14</ele>
        <time>2016-07-14T16:06:06Z</time>
      </trkpt>
      <trkpt lat="42.96288" lon="17.11937">
        <ele>13</ele>
        <time>2016-07-14T16:08:06Z</time>
      </trkpt>
      <trkpt lat="42.96294" lon="17.11946">
        <ele>12</ele>
        <time>2016-07-14T16:10:06Z</time>
      </trkpt>
      <trkpt lat="42.963" lon="17.11952">
        <ele>11</ele>
        <time>2016-07-14T16:12:06Z</time>
      </trkpt>
      <trkpt lat="42.9631" lon="17.11962">
        <ele>9</ele>
        <time>2016-07-14T16:14:06Z</time>
      </trkpt>
      <trkpt lat="42.9631" lon="17.11962">
        <ele>9</ele>
        <time>2016-07-14T16:16:06Z</time>
      </trkpt>
      <trkpt lat="42.96329" lon="17.11974">
        <ele>5</ele>
        <time>2016-07-14T16:18:06Z</time>
      </trkpt>
      <trkpt lat="42.96333" lon="17.11977">
        <ele>4</ele>
        <time>2016-07-14T16:20:06Z</time>
      </trkpt>
      <trkpt lat="42.96335" lon="17.1198">
        <ele>4</ele>
        <time>2016-07-14T16:22:06Z</time>
      </trkpt>
      <trkpt lat="42.96337" lon="17.11984">
        <ele>5</ele>
        <time>2016-07-14T16:24:06Z</time>
      </trkpt>
      <trkpt lat="42.96339" lon="17.11989">
        <ele>5</ele>
        <time>2016-07-14T16:26:06Z</time>
      </trkpt>
      <trkpt lat="42.9634" lon="17.11994">
        <ele>5</ele>
        <time>2016-07-14T16:28:06Z</time>
      </trkpt>
      <trkpt lat="42.96341" lon="17.11999">
        <ele>5</ele>
        <time>2016-07-14T16:30:06Z</time>
      </trkpt>
      <trkpt lat="42.96342" lon="17.12005">
        <ele>5</ele>
        <time>2016-07-14T16:32:06Z</time>
      </trkpt>
      <trkpt lat="42.96342" lon="17.12011">
        <ele>5</ele>
        <time>2016-07-14T16:34:06Z</time>
      </trkpt>
      <trkpt lat="42.96342" lon="17.12016">
        <ele>4</ele>
        <time>2016-07-14T16:36:06Z</time>
      </trkpt>
      <trkpt lat="42.96339" lon="17.12027">
        <ele>4</ele>
        <time>2016-07-14T16:38:06Z</time>
      </trkpt>
      <trkpt lat="42.96336" lon="17.12042">
        <ele>3</ele>
        <time>2016-07-14T16:40:06Z</time>
      </trkpt>
      <trkpt lat="42.96328" lon="17.12069">
        <ele>3</ele>
        <time>2016-07-14T16:42:06Z</time>
      </trkpt>
      <trkpt lat="42.96312" lon="17.12117">
        <ele>6</ele>
        <time>2016-07-14T16:44:06Z</time>
      </trkpt>
      <trkpt lat="42.96295" lon="17.12153">
        <ele>9</ele>
        <time>2016-07-14T16:46:06Z</time>
      </trkpt>
      <trkpt lat="42.96281" lon="17.12174">
        <ele>10</ele>
        <time>2016-07-14T16:48:06Z</time>
      </trkpt>
      <trkpt lat="42.96261" lon="17.12213">
        <ele>7</ele>
        <time>2016-07-14T16:50:06Z</time>
      </trkpt>
      <trkpt lat="42.9624" lon="17.12237">
        <ele>5</ele>
        <time>2016-07-14T16:52:06Z</time>
      </trkpt>
      <trkpt lat="42.9622" lon="17.12258">
        <ele>7</ele>
        <time>2016-07-14T16:54:06Z</time>
      </trkpt>
      <trkpt lat="42.96202" lon="17.12274">
        <ele>10</ele>
        <time>2016-07-14T16:56:06Z</time>
      </trkpt>
      <trkpt lat="42.96185" lon="17.12285">
        <ele>13</ele>
        <time>2016-07-14T16:58:06Z</time>
      </trkpt>
      <trkpt lat="42.96168" lon="17.12299">
        <ele>16</ele>
        <time>2016-07-14T17:00:06Z</time>
      </trkpt>
      <trkpt lat="42.9616" lon="17.12307">
        <ele>16</ele>
        <time>2016-07-14T17:02:06Z</time>
      </trkpt>
      <trkpt lat="42.96156" lon="17.12311">
        <ele>16</ele>
        <time>2016-07-14T17:04:06Z</time>
      </trkpt>
      <trkpt lat="42.96155" lon="17.12313">
        <ele>16</ele>
        <time>2016-07-14T17:06:06Z</time>
      </trkpt>
      <trkpt lat="42.96154" lon="17.12316">
        <ele>16</ele>
        <time>2016-07-14T17:08:06Z</time>
      </trkpt>
      <trkpt lat="42.96154" lon="17.12318">
        <ele>16</ele>
        <time>2016-07-14T17:10:06Z</time>
      </trkpt>
      <trkpt lat="42.96153" lon="17.12322">
        <ele>16</ele>
        <time>2016-07-14T17:12:06Z</time>
      </trkpt>
      <trkpt lat="42.96153" lon="17.12328">
        <ele>16</ele>
        <time>2016-07-14T17:14:06Z</time>
      </trkpt>
      <trkpt lat="42.96152" lon="17.1233">
        <ele>16</ele>
        <time>2016-07-14T17:16:06Z</time>
      </trkpt>
      <trkpt lat="42.96153" lon="17.12333">
        <ele>15</ele>
        <time>2016-07-14T17:18:06Z</time>
      </trkpt>
      <trkpt lat="42.96154" lon="17.12337">
        <ele>15</ele>
        <time>2016-07-14T17:20:06Z</time>
      </trkpt>
      <trkpt lat="42.96157" lon="17.12344">
        <ele>14</ele>
        <time>2016-07-14T17:22:06Z</time>
      </trkpt>
      <trkpt lat="42.96168" lon="17.1237">
        <ele>12</ele>
        <time>2016-07-14T17:24:06Z</time>
      </trkpt>
      <trkpt lat="42.96176" lon="17.1239">
        <ele>10</ele>
        <time>2016-07-14T17:26:06Z</time>
      </trkpt>
      <trkpt lat="42.96179" lon="17.12404">
        <ele>10</ele>
        <time>2016-07-14T17:28:06Z</time>
      </trkpt>
      <trkpt lat="42.96178" lon="17.12409">
        <ele>10</ele>
        <time>2016-07-14T17:30:06Z</time>
      </trkpt>
      <trkpt lat="42.96178" lon="17.12443">
        <ele>10</ele>
        <time>2016-07-14T17:32:06Z</time>
      </trkpt>
      <trkpt lat="42.96172" lon="17.12483">
        <ele>10</ele>
        <time>2016-07-14T17:34:06Z</time>
      </trkpt>
      <trkpt lat="42.96166" lon="17.12513">
        <ele>9</ele>
        <time>2016-07-14T17:36:06Z</time>
      </trkpt>
      <trkpt lat="42.96162" lon="17.12527">
        <ele>9</ele>
        <time>2016-07-14T17:38:06Z</time>
      </trkpt>
      <trkpt lat="42.96158" lon="17.12537">
        <ele>8</ele>
        <time>2016-07-14T17:40:06Z</time>
      </trkpt>
      <trkpt lat="42.96151" lon="17.12552">
        <ele>8</ele>
        <time>2016-07-14T17:42:06Z</time>
      </trkpt>
      <trkpt lat="42.96145" lon="17.1256">
        <ele>9</ele>
        <time>2016-07-14T17:44:06Z</time>
      </trkpt>
      <trkpt lat="42.96145" lon="17.1256">
        <ele>9</ele>
        <time>2016-07-14T17:46:06Z</time>
      </trkpt>
      <trkpt lat="42.96119" lon="17.12584">
        <ele>11</ele>
        <time>2016-07-14T17:48:06Z</time>
      </trkpt>
      <trkpt lat="42.961" lon="17.12596">
        <ele>15</ele>
        <time>2016-07-14T17:50:06Z</time>
      </trkpt>
      <trkpt lat="42.96087" lon="17.12603">
        <ele>17</ele>
        <time>2016-07-14T17:52:06Z</time>
      </trkpt>
      <trkpt lat="42.96075" lon="17.12608">
        <ele>17</ele>
        <time>2016-07-14T17:54:06Z</time>
      </trkpt>
      <trkpt lat="42.95972" lon="17.12625">
        <ele>19</ele>
        <time>2016-07-14T17:56:06Z</time>
      </trkpt>
      <trkpt lat="42.95959" lon="17.12628">
        <ele>19</ele>
        <time>2016-07-14T17:58:06Z</time>
      </trkpt>
      <trkpt lat="42.95954" lon="17.12622">
        <ele>19</ele>
        <time>2016-07-14T18:00:06Z</time>
      </trkpt>
      <trkpt lat="42.95951" lon="17.12617">
        <ele>20</ele>
        <time>2016-07-14T18:02:06Z</time>
      </trkpt>
      <trkpt lat="42.95947" lon="17.12612">
        <ele>20</ele>
        <time>2016-07-14T18:04:06Z</time>
      </trkpt>
      <trkpt lat="42.95944" lon="17.1261">
        <ele>20</ele>
        <time>2016-07-14T18:06:06Z</time>
      </trkpt>
      <trkpt lat="42.9594" lon="17.12608">
        <ele>20</ele>
        <time>2016-07-14T18:08:06Z</time>
      </trkpt>
      <trkpt lat="42.95933" lon="17.12606">
        <ele>20</ele>
        <time>2016-07-14T18:10:06Z</time>
      </trkpt>
      <trkpt lat="42.95929" lon="17.12607">
        <ele>20</ele>
        <time>2016-07-14T18:12:06Z</time>
      </trkpt>
      <trkpt lat="42.95927" lon="17.12608">
        <ele>19</ele>
        <time>2016-07-14T18:14:06Z</time>
      </trkpt>
      <trkpt lat="42.95924" lon="17.1261">
        <ele>19</ele>
        <time>2016-07-14T18:16:06Z</time>
      </trkpt>
      <trkpt lat="42.95922" lon="17.12612">
        <ele>19</ele>
        <time>2016-07-14T18:18:06Z</time>
      </trkpt>
      <trkpt lat="42.95919" lon="17.12615">
        <ele>19</ele>
        <time>2016-07-14T18:20:06Z</time>
      </trkpt>
      <trkpt lat="42.95917" lon="17.12618">
        <ele>19</ele>
        <time>2016-07-14T18:22:06Z</time>
      </trkpt>
      <trkpt lat="42.95915" lon="17.12621">
        <ele>19</ele>
        <time>2016-07-14T18:24:06Z</time>
      </trkpt>
      <trkpt lat="42.95914" lon="17.12625">
        <ele>19</ele>
        <time>2016-07-14T18:26:06Z</time>
      </trkpt>
      <trkpt lat="42.95914" lon="17.12629">
        <ele>19</ele>
        <time>2016-07-14T18:28:06Z</time>
      </trkpt>
      <trkpt lat="42.95913" lon="17.12633">
        <ele>18</ele>
        <time>2016-07-14T18:30:06Z</time>
      </trkpt>
      <trkpt lat="42.95913" lon="17.12638">
        <ele>18</ele>
        <time>2016-07-14T18:32:06Z</time>
      </trkpt>
      <trkpt lat="42.95914" lon="17.12645">
        <ele>18</ele>
        <time>2016-07-14T18:34:06Z</time>
      </trkpt>
      <trkpt lat="42.95915" lon="17.12653">
        <ele>18</ele>
        <time>2016-07-14T18:36:06Z</time>
      </trkpt>
      <trkpt lat="42.95916" lon="17.1266">
        <ele>17</ele>
        <time>2016-07-14T18:38:06Z</time>
      </trkpt>
      <trkpt lat="42.95917" lon="17.12663">
        <ele>17</ele>
        <time>2016-07-14T18:40:06Z</time>
      </trkpt>
      <trkpt lat="42.95918" lon="17.1267">
        <ele>17</ele>
        <time>2016-07-14T18:42:06Z</time>
      </trkpt>
      <trkpt lat="42.95919" lon="17.12676">
        <ele>18</ele>
        <time>2016-07-14T18:44:06Z</time>
      </trkpt>
      <trkpt lat="42.95919" lon="17.12677">
        <ele>18</ele>
        <time>2016-07-14T18:46:06Z</time>
      </trkpt>
      <trkpt lat="42.95922" lon="17.12709">
        <ele>22</ele>
        <time>2016-07-14T18:48:06Z</time>
      </trkpt>
      <trkpt lat="42.95921" lon="17.12718">
        <ele>23</ele>
        <time>2016-07-14T18:50:06Z</time>
      </trkpt>
      <trkpt lat="42.95919" lon="17.12726">
        <ele>24</ele>
        <time>2016-07-14T18:52:06Z</time>
      </trkpt>
      <trkpt lat="42.95916" lon="17.12733">
        <ele>25</ele>
        <time>2016-07-14T18:54:06Z</time>
      </trkpt>
      <trkpt lat="42.95913" lon="17.12739">
        <ele>26</ele>
        <time>2016-07-14T18:56:06Z</time>
      </trkpt>
      <trkpt lat="42.95907" lon="17.12743">
        <ele>27</ele>
        <time>2016-07-14T18:58:06Z</time>
      </trkpt>
      <trkpt lat="42.95899" lon="17.12747">
        <ele>28</ele>
        <time>2016-07-14T19:00:06Z</time>
      </trkpt>
      <trkpt lat="42.95889" lon="17.12748">
        <ele>29</ele>
        <time>2016-07-14T19:02:06Z</time>
      </trkpt>
      <trkpt lat="42.95878" lon="17.12747">
        <ele>30</ele>
        <time>2016-07-14T19:04:06Z</time>
      </trkpt>
      <trkpt lat="42.95875" lon="17.12746">
        <ele>30</ele>
        <time>2016-07-14T19:06:06Z</time>
      </trkpt>
      <trkpt lat="42.95862" lon="17.12744">
        <ele>31</ele>
        <time>2016-07-14T19:08:06Z</time>
      </trkpt>
      <trkpt lat="42.95844" lon="17.12739">
        <ele>32</ele>
        <time>2016-07-14T19:10:06Z</time>
      </trkpt>
      <trkpt lat="42.95775" lon="17.12717">
        <ele>42</ele>
        <time>2016-07-14T19:12:06Z</time>
      </trkpt>
      <trkpt lat="42.95762" lon="17.12711">
        <ele>43</ele>
        <time>2016-07-14T19:14:06Z</time>
      </trkpt>
      <trkpt lat="42.95749" lon="17.12706">
        <ele>45</ele>
        <time>2016-07-14T19:16:06Z</time>
      </trkpt>
      <trkpt lat="42.95736" lon="17.12701">
        <ele>47</ele>
        <time>2016-07-14T19:18:06Z</time>
      </trkpt>
      <trkpt lat="42.95723" lon="17.12696">
        <ele>48</ele>
        <time>2016-07-14T19:20:06Z</time>
      </trkpt>
      <trkpt lat="42.9571" lon="17.12691">
        <ele>49</ele>
        <time>2016-07-14T19:22:06Z</time>
      </trkpt>
      <trkpt lat="42.95697" lon="17.12686">
        <ele>50</ele>
        <time>2016-07-14T19:24:06Z</time>
      </trkpt>
      <trkpt lat="42.95684" lon="17.12682">
        <ele>51</ele>
        <time>2016-07-14T19:26:06Z</time>
      </trkpt>
      <trkpt lat="42.95673" lon="17.12678">
        <ele>51</ele>
        <time>2016-07-14T19:28:06Z</time>
      </trkpt>
      <trkpt lat="42.95664" lon="17.12676">
        <ele>52</ele>
        <time>2016-07-14T19:30:06Z</time>
      </trkpt>
      <trkpt lat="42.95663" lon="17.12675">
        <ele>52</ele>
        <time>2016-07-14T19:32:06Z</time>
      </trkpt>
      <trkpt lat="42.95651" lon="17.12672">
        <ele>52</ele>
        <time>2016-07-14T19:34:06Z</time>
      </trkpt>
      <trkpt lat="42.9564" lon="17.1267">
        <ele>53</ele>
        <time>2016-07-14T19:36:06Z</time>
      </trkpt>
      <trkpt lat="42.95634" lon="17.12668">
        <ele>53</ele>
        <time>2016-07-14T19:38:06Z</time>
      </trkpt>
      <trkpt lat="42.95628" lon="17.12666">
        <ele>53</ele>
        <time>2016-07-14T19:40:06Z</time>
      </trkpt>
      <trkpt lat="42.95622" lon="17.12664">
        <ele>54</ele>
        <time>2016-07-14T19:42:06Z</time>
      </trkpt>
      <trkpt lat="42.95616" lon="17.12662">
        <ele>55</ele>
        <time>2016-07-14T19:44:06Z</time>
      </trkpt>
      <trkpt lat="42.95609" lon="17.12658">
        <ele>55</ele>
        <time>2016-07-14T19:46:06Z</time>
      </trkpt>
      <trkpt lat="42.95602" lon="17.12654">
        <ele>56</ele>
        <time>2016-07-14T19:48:06Z</time>
      </trkpt>
      <trkpt lat="42.95591" lon="17.12645">
        <ele>58</ele>
        <time>2016-07-14T19:50:06Z</time>
      </trkpt>
      <trkpt lat="42.95581" lon="17.12637">
        <ele>59</ele>
        <time>2016-07-14T19:52:06Z</time>
      </trkpt>
      <trkpt lat="42.95569" lon="17.12629">
        <ele>60</ele>
        <time>2016-07-14T19:54:06Z</time>
      </trkpt>
      <trkpt lat="42.9556" lon="17.12625">
        <ele>61</ele>
        <time>2016-07-14T19:56:06Z</time>
      </trkpt>
      <trkpt lat="42.95547" lon="17.12621">
        <ele>63</ele>
        <time>2016-07-14T19:58:06Z</time>
      </trkpt>
      <trkpt lat="42.95531" lon="17.12621">
        <ele>64</ele>
        <time>2016-07-14T20:00:06Z</time>
      </trkpt>
      <trkpt lat="42.95527" lon="17.12621">
        <ele>65</ele>
        <time>2016-07-14T20:02:06Z</time>
      </trkpt>
      <trkpt lat="42.95522" lon="17.12622">
        <ele>65</ele>
        <time>2016-07-14T20:04:06Z</time>
      </trkpt>
      <trkpt lat="42.95518" lon="17.12623">
        <ele>65</ele>
        <time>2016-07-14T20:06:06Z</time>
      </trkpt>
      <trkpt lat="42.95513" lon="17.12623">
        <ele>66</ele>
        <time>2016-07-14T20:08:06Z</time>
      </trkpt>
      <trkpt lat="42.95508" lon="17.12624">
        <ele>66</ele>
        <time>2016-07-14T20:10:06Z</time>
      </trkpt>
      <trkpt lat="42.95504" lon="17.12625">
        <ele>67</ele>
        <time>2016-07-14T20:12:06Z</time>
      </trkpt>
      <trkpt lat="42.95499" lon="17.12626">
        <ele>67</ele>
        <time>2016-07-14T20:14:06Z</time>
      </trkpt>
      <trkpt lat="42.95438" lon="17.12643">
        <ele>71</ele>
        <time>2016-07-14T20:16:06Z</time>
      </trkpt>
      <trkpt lat="42.95433" lon="17.12644">
        <ele>71</ele>
        <time>2016-07-14T20:18:06Z</time>
      </trkpt>
      <trkpt lat="42.95427" lon="17.12645">
        <ele>71</ele>
        <time>2016-07-14T20:20:06Z</time>
      </trkpt>
      <trkpt lat="42.95422" lon="17.12647">
        <ele>72</ele>
        <time>2016-07-14T20:22:06Z</time>
      </trkpt>
      <trkpt lat="42.95417" lon="17.12648">
        <ele>72</ele>
        <time>2016-07-14T20:24:06Z</time>
      </trkpt>
      <trkpt lat="42.95411" lon="17.1265">
        <ele>72</ele>
        <time>2016-07-14T20:26:06Z</time>
      </trkpt>
      <trkpt lat="42.95406" lon="17.12652">
        <ele>72</ele>
        <time>2016-07-14T20:28:06Z</time>
      </trkpt>
      <trkpt lat="42.95401" lon="17.12654">
        <ele>71</ele>
        <time>2016-07-14T20:30:06Z</time>
      </trkpt>
      <trkpt lat="42.95395" lon="17.12656">
        <ele>71</ele>
        <time>2016-07-14T20:32:06Z</time>
      </trkpt>
      <trkpt lat="42.9539" lon="17.12659">
        <ele>71</ele>
        <time>2016-07-14T20:34:06Z</time>
      </trkpt>
      <trkpt lat="42.95384" lon="17.12662">
        <ele>70</ele>
        <time>2016-07-14T20:36:06Z</time>
      </trkpt>
      <trkpt lat="42.95379" lon="17.12665">
        <ele>70</ele>
        <time>2016-07-14T20:38:06Z</time>
      </trkpt>
      <trkpt lat="42.95374" lon="17.12667">
        <ele>70</ele>
        <time>2016-07-14T20:40:06Z</time>
      </trkpt>
      <trkpt lat="42.95373" lon="17.12668">
        <ele>70</ele>
        <time>2016-07-14T20:42:06Z</time>
      </trkpt>
      <trkpt lat="42.95368" lon="17.12671">
        <ele>70</ele>
        <time>2016-07-14T20:44:06Z</time>
      </trkpt>
      <trkpt lat="42.95368" lon="17.12671">
        <ele>70</ele>
        <time>2016-07-14T20:46:06Z</time>
      </trkpt>
      <trkpt lat="42.95398" lon="17.12706">
        <ele>72</ele>
        <time>2016-07-14T20:48:06Z</time>
      </trkpt>
      <trkpt lat="42.95401" lon="17.1271">
        <ele>72</ele>
        <time>2016-07-14T20:50:06Z</time>
      </trkpt>
      <trkpt lat="42.95403" lon="17.12713">
        <ele>72</ele>
        <time>2016-07-14T20:52:06Z</time>
      </trkpt>
      <trkpt lat="42.95407" lon="17.12723">
        <ele>73</ele>
        <time>2016-07-14T20:54:06Z</time>
      </trkpt>
      <trkpt lat="42.95411" lon="17.12729">
        <ele>73</ele>
        <time>2016-07-14T20:56:06Z</time>
      </trkpt>
      <trkpt lat="42.9542" lon="17.12742">
        <ele>73</ele>
        <time>2016-07-14T20:58:06Z</time>
      </trkpt>
      <trkpt lat="42.95434" lon="17.12767">
        <ele>75</ele>
        <time>2016-07-14T21:00:06Z</time>
      </trkpt>
      <trkpt lat="42.95443" lon="17.12785">
        <ele>76</ele>
        <time>2016-07-14T21:02:06Z</time>
      </trkpt>
      <trkpt lat="42.95448" lon="17.12797">
        <ele>77</ele>
        <time>2016-07-14T21:04:06Z</time>
      </trkpt>
      <trkpt lat="42.95456" lon="17.12823">
        <ele>79</ele>
        <time>2016-07-14T21:06:06Z</time>
      </trkpt>
      <trkpt lat="42.95458" lon="17.12841">
        <ele>80</ele>
        <time>2016-07-14T21:08:06Z</time>
      </trkpt>
      <trkpt lat="42.95459" lon="17.12859">
        <ele>79</ele>
        <time>2016-07-14T21:10:06Z</time>
      </trkpt>
      <trkpt lat="42.95459" lon="17.12867">
        <ele>79</ele>
        <time>2016-07-14T21:12:06Z</time>
      </trkpt>
      <trkpt lat="42.95459" lon="17.12868">
        <ele>79</ele>
        <time>2016-07-14T21:14:06Z</time>
      </trkpt>
      <trkpt lat="42.95459" lon="17.12877">
        <ele>79</ele>
        <time>2016-07-14T21:16:06Z</time>
      </trkpt>
      <trkpt lat="42.95458" lon="17.12895">
        <ele>79</ele>
        <time>2016-07-14T21:18:06Z</time>
      </trkpt>
      <trkpt lat="42.95456" lon="17.12913">
        <ele>78</ele>
        <time>2016-07-14T21:20:06Z</time>
      </trkpt>
      <trkpt lat="42.95454" lon="17.12931">
        <ele>77</ele>
        <time>2016-07-14T21:22:06Z</time>
      </trkpt>
      <trkpt lat="42.95449" lon="17.1295">
        <ele>76</ele>
        <time>2016-07-14T21:24:06Z</time>
      </trkpt>
      <trkpt lat="42.95443" lon="17.12968">
        <ele>74</ele>
        <time>2016-07-14T21:26:06Z</time>
      </trkpt>
      <trkpt lat="42.95439" lon="17.12978">
        <ele>74</ele>
        <time>2016-07-14T21:28:06Z</time>
      </trkpt>
      <trkpt lat="42.95439" lon="17.12989">
        <ele>73</ele>
        <time>2016-07-14T21:30:06Z</time>
      </trkpt>
      <trkpt lat="42.95433" lon="17.13007">
        <ele>71</ele>
        <time>2016-07-14T21:32:06Z</time>
      </trkpt>
      <trkpt lat="42.95426" lon="17.13028">
        <ele>69</ele>
        <time>2016-07-14T21:34:06Z</time>
      </trkpt>
      <trkpt lat="42.95419" lon="17.13046">
        <ele>68</ele>
        <time>2016-07-14T21:36:06Z</time>
      </trkpt>
      <trkpt lat="42.95414" lon="17.13059">
        <ele>66</ele>
        <time>2016-07-14T21:38:06Z</time>
      </trkpt>
      <trkpt lat="42.95407" lon="17.13073">
        <ele>65</ele>
        <time>2016-07-14T21:40:06Z</time>
      </trkpt>
      <trkpt lat="42.95401" lon="17.13082">
        <ele>64</ele>
        <time>2016-07-14T21:42:06Z</time>
      </trkpt>
      <trkpt lat="42.95393" lon="17.13093">
        <ele>65</ele>
        <time>2016-07-14T21:44:06Z</time>
      </trkpt>
      <trkpt lat="42.95387" lon="17.131">
        <ele>65</ele>
        <time>2016-07-14T21:46:06Z</time>
      </trkpt>
      <trkpt lat="42.95378" lon="17.13108">
        <ele>65</ele>
        <time>2016-07-14T21:48:06Z</time>
      </trkpt>
      <trkpt lat="42.95371" lon="17.13115">
        <ele>65</ele>
        <time>2016-07-14T21:50:06Z</time>
      </trkpt>
      <trkpt lat="42.95359" lon="17.13127">
        <ele>65</ele>
        <time>2016-07-14T21:52:06Z</time>
      </trkpt>
      <trkpt lat="42.95321" lon="17.13138">
        <ele>63</ele>
        <time>2016-07-14T21:54:06Z</time>
      </trkpt>
      <trkpt lat="42.9528" lon="17.1315">
        <ele>60</ele>
        <time>2016-07-14T21:56:06Z</time>
      </trkpt>
      <trkpt lat="42.9525" lon="17.13157">
        <ele>58</ele>
        <time>2016-07-14T21:58:06Z</time>
      </trkpt>
      <trkpt lat="42.95237" lon="17.13158">
        <ele>56</ele>
        <time>2016-07-14T22:00:06Z</time>
      </trkpt>
      <trkpt lat="42.95223" lon="17.13159">
        <ele>55</ele>
        <time>2016-07-14T22:02:06Z</time>
      </trkpt>
      <trkpt lat="42.9521" lon="17.13158">
        <ele>54</ele>
        <time>2016-07-14T22:04:06Z</time>
      </trkpt>
      <trkpt lat="42.95196" lon="17.13157">
        <ele>52</ele>
        <time>2016-07-14T22:06:06Z</time>
      </trkpt>
      <trkpt lat="42.9515" lon="17.13146">
        <ele>49</ele>
        <time>2016-07-14T22:08:06Z</time>
      </trkpt>
      <trkpt lat="42.95121" lon="17.13135">
        <ele>47</ele>
        <time>2016-07-14T22:10:06Z</time>
      </trkpt>
      <trkpt lat="42.95098" lon="17.13127">
        <ele>45</ele>
        <time>2016-07-14T22:12:06Z</time>
      </trkpt>
      <trkpt lat="42.95078" lon="17.13121">
        <ele>43</ele>
        <time>2016-07-14T22:14:06Z</time>
      </trkpt>
      <trkpt lat="42.95047" lon="17.13117">
        <ele>41</ele>
        <time>2016-07-14T22:16:06Z</time>
      </trkpt>
      <trkpt lat="42.95021" lon="17.13119">
        <ele>39</ele>
        <time>2016-07-14T22:18:06Z</time>
      </trkpt>
      <trkpt lat="42.94997" lon="17.13123">
        <ele>37</ele>
        <time>2016-07-14T22:20:06Z</time>
      </trkpt>
      <trkpt lat="42.94981" lon="17.13126">
        <ele>36</ele>
        <time>2016-07-14T22:22:06Z</time>
      </trkpt>
      <trkpt lat="42.94937" lon="17.13147">
        <ele>32</ele>
        <time>2016-07-14T22:24:06Z</time>
      </trkpt>
      <trkpt lat="42.94929" lon="17.13154">
        <ele>31</ele>
        <time>2016-07-14T22:26:06Z</time>
      </trkpt>
      <trkpt lat="42.94925" lon="17.1316">
        <ele>31</ele>
        <time>2016-07-14T22:28:06Z</time>
      </trkpt>
      <trkpt lat="42.94918" lon="17.13169">
        <ele>30</ele>
        <time>2016-07-14T22:30:06Z</time>
      </trkpt>
      <trkpt lat="42.94911" lon="17.13182">
        <ele>29</ele>
        <time>2016-07-14T22:32:06Z</time>
      </trkpt>
      <trkpt lat="42.94905" lon="17.13194">
        <ele>28</ele>
        <time>2016-07-14T22:34:06Z</time>
      </trkpt>
      <trkpt lat="42.94897" lon="17.13209">
        <ele>27</ele>
        <time>2016-07-14T22:36:06Z</time>
      </trkpt>
      <trkpt lat="42.9489" lon="17.13225">
        <ele>26</ele>
        <time>2016-07-14T22:38:06Z</time>
      </trkpt>
      <trkpt lat="42.94882" lon="17.13243">
        <ele>25</ele>
        <time>2016-07-14T22:40:06Z</time>
      </trkpt>
      <trkpt lat="42.94872" lon="17.13276">
        <ele>24</ele>
        <time>2016-07-14T22:42:06Z</time>
      </trkpt>
      <trkpt lat="42.94866" lon="17.13305">
        <ele>23</ele>
        <time>2016-07-14T22:44:06Z</time>
      </trkpt>
      <trkpt lat="42.94862" lon="17.13343">
        <ele>21</ele>
        <time>2016-07-14T22:46:06Z</time>
      </trkpt>
      <trkpt lat="42.94858" lon="17.13382">
        <ele>20</ele>
        <time>2016-07-14T22:48:06Z</time>
      </trkpt>
      <trkpt lat="42.94854" lon="17.13426">
        <ele>19</ele>
        <time>2016-07-14T22:50:06Z</time>
      </trkpt>
      <trkpt lat="42.94854" lon="17.13446">
        <ele>18</ele>
        <time>2016-07-14T22:52:06Z</time>
      </trkpt>
      <trkpt lat="42.94856" lon="17.13483">
        <ele>17</ele>
        <time>2016-07-14T22:54:06Z</time>
      </trkpt>
      <trkpt lat="42.94856" lon="17.13526">
        <ele>15</ele>
        <time>2016-07-14T22:56:06Z</time>
      </trkpt>
      <trkpt lat="42.94858" lon="17.13572">
        <ele>14</ele>
        <time>2016-07-14T22:58:06Z</time>
      </trkpt>
      <trkpt lat="42.94858" lon="17.13598">
        <ele>14</ele>
        <time>2016-07-14T23:00:06Z</time>
      </trkpt>
      <trkpt lat="42.94859" lon="17.13633">
        <ele>12</ele>
        <time>2016-07-14T23:02:06Z</time>
      </trkpt>
      <trkpt lat="42.9486" lon="17.13666">
        <ele>11</ele>
        <time>2016-07-14T23:04:06Z</time>
      </trkpt>
      <trkpt lat="42.9486" lon="17.13691">
        <ele>11</ele>
        <time>2016-07-14T23:06:06Z</time>
      </trkpt>
      <trkpt lat="42.94857" lon="17.13726">
        <ele>12</ele>
        <time>2016-07-14T23:08:06Z</time>
      </trkpt>
      <trkpt lat="42.94852" lon="17.13756">
        <ele>13</ele>
        <time>2016-07-14T23:10:06Z</time>
      </trkpt>
      <trkpt lat="42.94847" lon="17.13781">
        <ele>14</ele>
        <time>2016-07-14T23:12:06Z</time>
      </trkpt>
      <trkpt lat="42.9484" lon="17.13807">
        <ele>15</ele>
        <time>2016-07-14T23:14:06Z</time>
      </trkpt>
      <trkpt lat="42.94835" lon="17.13824">
        <ele>16</ele>
        <time>2016-07-14T23:16:06Z</time>
      </trkpt>
      <trkpt lat="42.94833" lon="17.13842">
        <ele>16</ele>
        <time>2016-07-14T23:18:06Z</time>
      </trkpt>
      <trkpt lat="42.94832" lon="17.13858">
        <ele>16</ele>
        <time>2016-07-14T23:20:06Z</time>
      </trkpt>
      <trkpt lat="42.94833" lon="17.13872">
        <ele>16</ele>
        <time>2016-07-14T23:22:06Z</time>
      </trkpt>
      <trkpt lat="42.94833" lon="17.13872">
        <ele>16</ele>
        <time>2016-07-14T23:24:06Z</time>
      </trkpt>
      <trkpt lat="42.94836" lon="17.13887">
        <ele>16</ele>
        <time>2016-07-14T23:26:06Z</time>
      </trkpt>
      <trkpt lat="42.94842" lon="17.13906">
        <ele>16</ele>
        <time>2016-07-14T23:28:06Z</time>
      </trkpt>
      <trkpt lat="42.94902" lon="17.14017">
        <ele>19</ele>
        <time>2016-07-14T23:30:06Z</time>
      </trkpt>
      <trkpt lat="42.94915" lon="17.14046">
        <ele>20</ele>
        <time>2016-07-14T23:32:06Z</time>
      </trkpt>
      <trkpt lat="42.94917" lon="17.14051">
        <ele>20</ele>
        <time>2016-07-14T23:34:06Z</time>
      </trkpt>
      <trkpt lat="42.94921" lon="17.14061">
        <ele>21</ele>
        <time>2016-07-14T23:36:06Z</time>
      </trkpt>
      <trkpt lat="42.94927" lon="17.14078">
        <ele>21</ele>
        <time>2016-07-14T23:38:06Z</time>
      </trkpt>
      <trkpt lat="42.94933" lon="17.14093">
        <ele>21</ele>
        <time>2016-07-14T23:40:06Z</time>
      </trkpt>
      <trkpt lat="42.94939" lon="17.14111">
        <ele>21</ele>
        <time>2016-07-14T23:42:06Z</time>
      </trkpt>
      <trkpt lat="42.94945" lon="17.1413">
        <ele>22</ele>
        <time>2016-07-14T23:44:06Z</time>
      </trkpt>
      <trkpt lat="42.94948" lon="17.1414">
        <ele>22</ele>
        <time>2016-07-14T23:46:06Z</time>
      </trkpt>
      <trkpt lat="42.94949" lon="17.14144">
        <ele>22</ele>
        <time>2016-07-14T23:48:06Z</time>
      </trkpt>
      <trkpt lat="42.94952" lon="17.14154">
        <ele>22</ele>
        <time>2016-07-14T23:50:06Z</time>
      </trkpt>
      <trkpt lat="42.94954" lon="17.14164">
        <ele>22</ele>
        <time>2016-07-14T23:52:06Z</time>
      </trkpt>
      <trkpt lat="42.94969" lon="17.14247">
        <ele>23</ele>
        <time>2016-07-14T23:54:06Z</time>
      </trkpt>
      <trkpt lat="42.94991" lon="17.14396">
        <ele>22</ele>
        <time>2016-07-14T23:56:06Z</time>
      </trkpt>
      <trkpt lat="42.94993" lon="17.14403">
        <ele>21</ele>
        <time>2016-07-14T23:58:06Z</time>
      </trkpt>
      <trkpt lat="42.95001" lon="17.14442">
        <ele>20</ele>
        <time>2016-07-15T00:00:06Z</time>
      </trkpt>
      <trkpt lat="42.95004" lon="17.14453">
        <ele>19</ele>
        <time>2016-07-15T00:02:06Z</time>
      </trkpt>
      <trkpt lat="42.9501" lon="17.14464">
        <ele>19</ele>
        <time>2016-07-15T00:04:06Z</time>
      </trkpt>
      <trkpt lat="42.95016" lon="17.14473">
        <ele>18</ele>
        <time>2016-07-15T00:06:06Z</time>
      </trkpt>
      <trkpt lat="42.95019" lon="17.14477">
        <ele>18</ele>
        <time>2016-07-15T00:08:06Z</time>
      </trkpt>
      <trkpt lat="42.95022" lon="17.14482">
        <ele>17</ele>
        <time>2016-07-15T00:10:06Z</time>
      </trkpt>
      <trkpt lat="42.9503" lon="17.1449">
        <ele>17</ele>
        <time>2016-07-15T00:12:06Z</time>
      </trkpt>
      <trkpt lat="42.95064" lon="17.14522">
        <ele>14</ele>
        <time>2016-07-15T00:14:06Z</time>
      </trkpt>
      <trkpt lat="42.95105" lon="17.14552">
        <ele>12</ele>
        <time>2016-07-15T00:16:06Z</time>
      </trkpt>
      <trkpt lat="42.95169" lon="17.146">
        <ele>10</ele>
        <time>2016-07-15T00:18:06Z</time>
      </trkpt>
      <trkpt lat="42.9518" lon="17.14611">
        <ele>10</ele>
        <time>2016-07-15T00:20:06Z</time>
      </trkpt>
      <trkpt lat="42.95185" lon="17.14616">
        <ele>10</ele>
        <time>2016-07-15T00:22:06Z</time>
      </trkpt>
      <trkpt lat="42.95186" lon="17.14617">
        <ele>10</ele>
        <time>2016-07-15T00:24:06Z</time>
      </trkpt>
      <trkpt lat="42.9519" lon="17.14621">
        <ele>10</ele>
        <time>2016-07-15T00:26:06Z</time>
      </trkpt>
      <trkpt lat="42.95194" lon="17.14626">
        <ele>10</ele>
        <time>2016-07-15T00:28:06Z</time>
      </trkpt>
      <trkpt lat="42.95196" lon="17.14628">
        <ele>10</ele>
        <time>2016-07-15T00:30:06Z</time>
      </trkpt>
      <trkpt lat="42.95198" lon="17.14632">
        <ele>10</ele>
        <time>2016-07-15T00:32:06Z</time>
      </trkpt>
      <trkpt lat="42.95198" lon="17.14633">
        <ele>10</ele>
        <time>2016-07-15T00:34:06Z</time>
      </trkpt>
      <trkpt lat="42.95204" lon="17.14644">
        <ele>11</ele>
        <time>2016-07-15T00:36:06Z</time>
      </trkpt>
      <trkpt lat="42.95214" lon="17.14671">
        <ele>11</ele>
        <time>2016-07-15T00:38:06Z</time>
      </trkpt>
      <trkpt lat="42.95223" lon="17.14698">
        <ele>12</ele>
        <time>2016-07-15T00:40:06Z</time>
      </trkpt>
      <trkpt lat="42.95232" lon="17.14725">
        <ele>13</ele>
        <time>2016-07-15T00:42:06Z</time>
      </trkpt>
      <trkpt lat="42.95236" lon="17.14743">
        <ele>13</ele>
        <time>2016-07-15T00:44:06Z</time>
      </trkpt>
      <trkpt lat="42.95254" lon="17.14813">
        <ele>11</ele>
        <time>2016-07-15T00:46:06Z</time>
      </trkpt>
      <trkpt lat="42.95257" lon="17.14829">
        <ele>10</ele>
        <time>2016-07-15T00:48:06Z</time>
      </trkpt>
      <trkpt lat="42.95258" lon="17.14833">
        <ele>10</ele>
        <time>2016-07-15T00:50:06Z</time>
      </trkpt>
      <trkpt lat="42.95263" lon="17.14843">
        <ele>9</ele>
        <time>2016-07-15T00:52:06Z</time>
      </trkpt>
      <trkpt lat="42.95269" lon="17.14852">
        <ele>8</ele>
        <time>2016-07-15T00:54:06Z</time>
      </trkpt>
      <trkpt lat="42.95273" lon="17.14857">
        <ele>8</ele>
        <time>2016-07-15T00:56:06Z</time>
      </trkpt>
      <trkpt lat="42.95277" lon="17.14862">
        <ele>8</ele>
        <time>2016-07-15T00:58:06Z</time>
      </trkpt>
      <trkpt lat="42.95282" lon="17.14866">
        <ele>7</ele>
        <time>2016-07-15T01:00:06Z</time>
      </trkpt>
      <trkpt lat="42.953" lon="17.14877">
        <ele>7</ele>
        <time>2016-07-15T01:02:06Z</time>
      </trkpt>
      <trkpt lat="42.95305" lon="17.1488">
        <ele>7</ele>
        <time>2016-07-15T01:04:06Z</time>
      </trkpt>
      <trkpt lat="42.95314" lon="17.14884">
        <ele>7</ele>
        <time>2016-07-15T01:06:06Z</time>
      </trkpt>
      <trkpt lat="42.95337" lon="17.14895">
        <ele>6</ele>
        <time>2016-07-15T01:08:06Z</time>
      </trkpt>
      <trkpt lat="42.95348" lon="17.14899">
        <ele>4</ele>
        <time>2016-07-15T01:10:06Z</time>
      </trkpt>
      <trkpt lat="42.9535" lon="17.149">
        <ele>4</ele>
        <time>2016-07-15T01:12:06Z</time>
      </trkpt>
      <trkpt lat="42.95351" lon="17.14901">
        <ele>4</ele>
        <time>2016-07-15T01:14:06Z</time>
      </trkpt>
      <trkpt lat="42.95352" lon="17.14902">
        <ele>4</ele>
        <time>2016-07-15T01:16:06Z</time>
      </trkpt>
      <trkpt lat="42.95353" lon="17.14902">
        <ele>4</ele>
        <time>2016-07-15T01:18:06Z</time>
      </trkpt>
      <trkpt lat="42.95354" lon="17.14904">
        <ele>4</ele>
        <time>2016-07-15T01:20:06Z</time>
      </trkpt>
      <trkpt lat="42.95357" lon="17.14909">
        <ele>3</ele>
        <time>2016-07-15T01:22:06Z</time>
      </trkpt>
      <trkpt lat="42.95359" lon="17.14914">
        <ele>2</ele>
        <time>2016-07-15T01:24:06Z</time>
      </trkpt>
      <trkpt lat="42.9536" lon="17.1492">
        <ele>1</ele>
        <time>2016-07-15T01:26:06Z</time>
      </trkpt>
      <trkpt lat="42.95361" lon="17.14923">
        <ele>1</ele>
        <time>2016-07-15T01:28:06Z</time>
      </trkpt>
      <trkpt lat="42.9536" lon="17.14929">
        <ele>1</ele>
        <time>2016-07-15T01:30:06Z</time>
      </trkpt>
      <trkpt lat="42.95359" lon="17.14935">
        <ele>1</ele>
        <time>2016-07-15T01:32:06Z</time>
      </trkpt>
      <trkpt lat="42.95357" lon="17.14941">
        <ele>1</ele>
        <time>2016-07-15T01:34:06Z</time>
      </trkpt>
      <trkpt lat="42.95349" lon="17.14947">
        <ele>1</ele>
        <time>2016-07-15T01:36:06Z</time>
      </trkpt>
      <trkpt lat="42.95334" lon="17.14955">
        <ele>1</ele>
        <time>2016-07-15T01:38:06Z</time>
      </trkpt>
      <trkpt lat="42.95328" lon="17.14956">
        <ele>2</ele>
        <time>2016-07-15T01:40:06Z</time>
      </trkpt>
      <trkpt lat="42.9532" lon="17.1496">
        <ele>2</ele>
        <time>2016-07-15T01:42:06Z</time>
      </trkpt>
      <trkpt lat="42.95311" lon="17.14972">
        <ele>2</ele>
        <time>2016-07-15T01:44:06Z</time>
      </trkpt>
      <trkpt lat="42.95293" lon="17.15012">
        <ele>3</ele>
        <time>2016-07-15T01:46:06Z</time>
      </trkpt>
      <trkpt lat="42.95293" lon="17.15012">
        <ele>3</ele>
        <time>2016-07-15T01:48:06Z</time>
      </trkpt>
      <trkpt lat="42.9526" lon="17.15052">
        <ele>3</ele>
        <time>2016-07-15T01:50:06Z</time>
      </trkpt>
      <trkpt lat="42.95252" lon="17.15065">
        <ele>3</ele>
        <time>2016-07-15T01:52:06Z</time>
      </trkpt>
      <trkpt lat="42.95249" lon="17.15073">
        <ele>2</ele>
        <time>2016-07-15T01:54:06Z</time>
      </trkpt>
      <trkpt lat="42.95246" lon="17.15079">
        <ele>2</ele>
        <time>2016-07-15T01:56:06Z</time>
      </trkpt>
      <trkpt lat="42.95245" lon="17.15084">
        <ele>5</ele>
        <time>2016-07-15T01:58:06Z</time>
      </trkpt>
      <trkpt lat="42.95245" lon="17.15089">
        <ele>4</ele>
        <time>2016-07-15T02:00:06Z</time>
      </trkpt>
      <trkpt lat="42.95245" lon="17.15099">
        <ele>4</ele>
        <time>2016-07-15T02:02:06Z</time>
      </trkpt>
      <trkpt lat="42.95247" lon="17.15107">
        <ele>3</ele>
        <time>2016-07-15T02:04:06Z</time>
      </trkpt>
      <trkpt lat="42.95251" lon="17.15114">
        <ele>3</ele>
        <time>2016-07-15T02:06:06Z</time>
      </trkpt>
      <trkpt lat="42.95256" lon="17.15121">
        <ele>3</ele>
        <time>2016-07-15T02:08:06Z</time>
      </trkpt>
      <trkpt lat="42.9526" lon="17.15125">
        <ele>2</ele>
        <time>2016-07-15T02:10:06Z</time>
      </trkpt>
      <trkpt lat="42.95264" lon="17.15127">
        <ele>2</ele>
        <time>2016-07-15T02:12:06Z</time>
      </trkpt>
      <trkpt lat="42.95272" lon="17.15129">
        <ele>2</ele>
        <time>2016-07-15T02:14:06Z</time>
      </trkpt>
      <trkpt lat="42.95282" lon="17.15131">
        <ele>1</ele>
        <time>2016-07-15T02:16:06Z</time>
      </trkpt>
      <trkpt lat="42.9529" lon="17.1513">
        <ele>1</ele>
        <time>2016-07-15T02:18:06Z</time>
      </trkpt>
      <trkpt lat="42.95299" lon="17.15127">
        <ele>1</ele>
        <time>2016-07-15T02:20:06Z</time>
      </trkpt>
      <trkpt lat="42.95305" lon="17.15124">
        <ele>1</ele>
        <time>2016-07-15T02:22:06Z</time>
      </trkpt>
      <trkpt lat="42.95402" lon="17.15065">
        <time>2016-07-15T02:24:06Z</time>
      </trkpt>
      <trkpt lat="42.95483" lon="17.15008">
        <time>2016-07-15T02:26:06Z</time>
      </trkpt>
      <trkpt lat="42.95492" lon="17.15003">
        <time>2016-07-15T02:28:06Z</time>
      </trkpt>
      <trkpt lat="42.95505" lon="17.14999">
        <time>2016-07-15T02:30:06Z</time>
      </trkpt>
      <trkpt lat="42.9553" lon="17.14992">
        <time>2016-07-15T02:32:06Z</time>
      </trkpt>
      <trkpt lat="42.95555" lon="17.14986">
        <time>2016-07-15T02:34:06Z</time>
      </trkpt>
      <trkpt lat="42.95567" lon="17.14984">
        <time>2016-07-15T02:36:06Z</time>
      </trkpt>
      <trkpt lat="42.95593" lon="17.14981">
        <time>2016-07-15T02:38:06Z</time>
      </trkpt>
      <trkpt lat="42.95606" lon="17.14981">
        <time>2016-07-15T02:40:06Z</time>
      </trkpt>
      <trkpt lat="42.95637" lon="17.14981">
        <time>2016-07-15T02:42:06Z</time>
      </trkpt>
      <trkpt lat="42.95667" lon="17.14985">
        <time>2016-07-15T02:44:06Z</time>
      </trkpt>
      <trkpt lat="42.95714" lon="17.14994">
        <time>2016-07-15T02:46:06Z</time>
      </trkpt>
      <trkpt lat="42.95771" lon="17.15013">
        <time>2016-07-15T02:48:06Z</time>
      </trkpt>
      <trkpt lat="42.95804" lon="17.15028">
        <time>2016-07-15T02:50:06Z</time>
      </trkpt>
      <trkpt lat="42.95838" lon="17.15048">
        <time>2016-07-15T02:52:06Z</time>
      </trkpt>
      <trkpt lat="42.95869" lon="17.1507">
        <time>2016-07-15T02:54:06Z</time>
      </trkpt>
      <trkpt lat="42.95889" lon="17.15087">
        <time>2016-07-15T02:56:06Z</time>
      </trkpt>
      <trkpt lat="42.95912" lon="17.15117">
        <time>2016-07-15T02:58:06Z</time>
      </trkpt>
      <trkpt lat="42.95928" lon="17.15137">
        <time>2016-07-15T03:00:06Z</time>
      </trkpt>
      <trkpt lat="42.96302" lon="17.15675">
        <time>2016-07-15T03:02:06Z</time>
      </trkpt>
      <trkpt lat="42.96511" lon="17.15991">
        <time>2016-07-15T03:04:06Z</time>
      </trkpt>
      <trkpt lat="42.96946" lon="17.16648">
        <time>2016-07-15T03:06:06Z</time>
      </trkpt>
      <trkpt lat="42.9707" lon="17.16861">
        <time>2016-07-15T03:08:06Z</time>
      </trkpt>
      <trkpt lat="42.9709" lon="17.16899">
        <time>2016-07-15T03:10:06Z</time>
      </trkpt>
      <trkpt lat="42.97106" lon="17.16934">
        <time>2016-07-15T03:12:06Z</time>
      </trkpt>
      <trkpt lat="42.97141" lon="17.17036">
        <time>2016-07-15T03:14:06Z</time>
      </trkpt>
      <trkpt lat="42.97253" lon="17.17404">
        <time>2016-07-15T03:16:06Z</time>
      </trkpt>
      <trkpt lat="42.97277" lon="17.17488">
        <time>2016-07-15T03:18:06Z</time>
      </trkpt>
      <trkpt lat="42.97277" lon="17.17488">
        <time>2016-07-15T03:20:06Z</time>
      </trkpt>
      <trkpt lat="42.973" lon="17.17533">
        <time>2016-07-15T03:22:06Z</time>
      </trkpt>
      <trkpt lat="42.97326" lon="17.17572">
        <time>2016-07-15T03:24:06Z</time>
      </trkpt>
      <trkpt lat="42.9734" lon="17.17588">
        <ele>2</ele>
        <time>2016-07-15T03:26:06Z</time>
      </trkpt>
      <trkpt lat="42.97376" lon="17.17629">
        <ele>2</ele>
        <time>2016-07-15T03:28:06Z</time>
      </trkpt>
      <trkpt lat="42.97394" lon="17.17642">
        <ele>2</ele>
        <time>2016-07-15T03:30:06Z</time>
      </trkpt>
      <trkpt lat="42.97424" lon="17.17623">
        <ele>4</ele>
        <time>2016-07-15T03:32:06Z</time>
      </trkpt>
      <trkpt lat="42.97433" lon="17.17614">
        <ele>4</ele>
        <time>2016-07-15T03:34:06Z</time>
      </trkpt>
      <trkpt lat="42.9744" lon="17.17605">
        <ele>5</ele>
        <time>2016-07-15T03:36:06Z</time>
      </trkpt>
      <trkpt lat="42.97449" lon="17.17588">
        <ele>5</ele>
        <time>2016-07-15T03:38:06Z</time>
      </trkpt>
      <trkpt lat="42.9748" lon="17.175">
        <ele>7</ele>
        <time>2016-07-15T03:40:06Z</time>
      </trkpt>
      <trkpt lat="42.97496" lon="17.17432">
        <ele>5</ele>
        <time>2016-07-15T03:42:06Z</time>
      </trkpt>
      <trkpt lat="42.97505" lon="17.17368">
        <ele>5</ele>
        <time>2016-07-15T03:44:06Z</time>
      </trkpt>
      <trkpt lat="42.97508" lon="17.17315">
        <ele>3</ele>
        <time>2016-07-15T03:46:06Z</time>
      </trkpt>
      <trkpt lat="42.97507" lon="17.17225">
        <ele>2</ele>
        <time>2016-07-15T03:48:06Z</time>
      </trkpt>
      <trkpt lat="42.97503" lon="17.17157">
        <time>2016-07-15T03:50:06Z</time>
      </trkpt>
      <trkpt lat="42.97499" lon="17.17032">
        <time>2016-07-15T03:52:06Z</time>
      </trkpt>
      <trkpt lat="42.97497" lon="17.16951">
        <time>2016-07-15T03:54:06Z</time>
      </trkpt>
      <trkpt lat="42.97495" lon="17.16912">
        <ele>1</ele>
        <time>2016-07-15T03:56:06Z</time>
      </trkpt>
      <trkpt lat="42.97495" lon="17.16895">
        <ele>1</ele>
        <time>2016-07-15T03:58:06Z</time>
      </trkpt>
      <trkpt lat="42.97496" lon="17.16887">
        <ele>1</ele>
        <time>2016-07-15T04:00:06Z</time>
      </trkpt>
      <trkpt lat="42.97498" lon="17.16881">
        <ele>1</ele>
        <time>2016-07-15T04:02:06Z</time>
      </trkpt>
      <trkpt lat="42.97501" lon="17.16876">
        <ele>2</ele>
        <time>2016-07-15T04:04:06Z</time>
      </trkpt>
      <trkpt lat="42.97505" lon="17.16873">
        <ele>2</ele>
        <time>2016-07-15T04:06:06Z</time>
      </trkpt>
      <trkpt lat="42.97512" lon="17.16871">
        <ele>3</ele>
        <time>2016-07-15T04:08:06Z</time>
      </trkpt>
      <trkpt lat="42.97562" lon="17.16865">
        <ele>8</ele>
        <time>2016-07-15T04:10:06Z</time>
      </trkpt>
      <trkpt lat="42.97562" lon="17.16865">
        <ele>8</ele>
        <time>2016-07-15T04:12:06Z</time>
      </trkpt>
      <trkpt lat="42.97564" lon="17.1688">
        <ele>8</ele>
        <time>2016-07-15T04:14:06Z</time>
      </trkpt>
      <trkpt lat="42.9757" lon="17.16884">
        <ele>8</ele>
        <time>2016-07-15T04:16:06Z</time>
      </trkpt>
      <trkpt lat="42.97579" lon="17.16893">
        <ele>9</ele>
        <time>2016-07-15T04:18:06Z</time>
      </trkpt>
      <trkpt lat="42.97587" lon="17.16903">
        <ele>9</ele>
        <time>2016-07-15T04:20:06Z</time>
      </trkpt>
      <trkpt lat="42.97592" lon="17.16911">
        <ele>10</ele>
        <time>2016-07-15T04:22:06Z</time>
      </trkpt>
      <trkpt lat="42.97596" lon="17.16919">
        <ele>11</ele>
        <time>2016-07-15T04:24:06Z</time>
      </trkpt>
      <trkpt lat="42.97604" lon="17.16938">
        <ele>12</ele>
        <time>2016-07-15T04:26:06Z</time>
      </trkpt>
      <trkpt lat="42.97606" lon="17.16944">
        <ele>12</ele>
        <time>2016-07-15T04:28:06Z</time>
      </trkpt>
      <trkpt lat="42.9761" lon="17.16955">
        <ele>12</ele>
        <time>2016-07-15T04:30:06Z</time>
      </trkpt>
      <trkpt lat="42.97616" lon="17.16972">
        <ele>13</ele>
        <time>2016-07-15T04:32:06Z</time>
      </trkpt>
      <trkpt lat="42.97621" lon="17.16989">
        <ele>13</ele>
        <time>2016-07-15T04:34:06Z</time>
      </trkpt>
      <trkpt lat="42.97627" lon="17.17012">
        <ele>13</ele>
        <time>2016-07-15T04:36:06Z</time>
      </trkpt>
      <trkpt lat="42.97633" lon="17.17041">
        <ele>13</ele>
        <time>2016-07-15T04:38:06Z</time>
      </trkpt>
      <trkpt lat="42.97638" lon="17.1707">
        <ele>12</ele>
        <time>2016-07-15T04:40:06Z</time>
      </trkpt>
      <trkpt lat="42.97644" lon="17.171">
        <ele>12</ele>
        <time>2016-07-15T04:42:06Z</time>
      </trkpt>
      <trkpt lat="42.97648" lon="17.17131">
        <ele>11</ele>
        <time>2016-07-15T04:44:06Z</time>
      </trkpt>
      <trkpt lat="42.97649" lon="17.17133">
        <ele>11</ele>
        <time>2016-07-15T04:46:06Z</time>
      </trkpt>
      <trkpt lat="42.97652" lon="17.17163">
        <ele>11</ele>
        <time>2016-07-15T04:48:06Z</time>
      </trkpt>
      <trkpt lat="42.97652" lon="17.17176">
        <ele>11</ele>
        <time>2016-07-15T04:50:06Z</time>
      </trkpt>
      <trkpt lat="42.97652" lon="17.17189">
        <ele>11</ele>
        <time>2016-07-15T04:52:06Z</time>
      </trkpt>
      <trkpt lat="42.9765" lon="17.17208">
        <ele>11</ele>
        <time>2016-07-15T04:54:06Z</time>
      </trkpt>
      <trkpt lat="42.97648" lon="17.17228">
        <ele>11</ele>
        <time>2016-07-15T04:56:06Z</time>
      </trkpt>
      <trkpt lat="42.97645" lon="17.17241">
        <ele>11</ele>
        <time>2016-07-15T04:58:06Z</time>
      </trkpt>
      <trkpt lat="42.97641" lon="17.17253">
        <ele>11</ele>
        <time>2016-07-15T05:00:06Z</time>
      </trkpt>
      <trkpt lat="42.97637" lon="17.17265">
        <ele>11</ele>
        <time>2016-07-15T05:02:06Z</time>
      </trkpt>
      <trkpt lat="42.97632" lon="17.17277">
        <ele>11</ele>
        <time>2016-07-15T05:04:06Z</time>
      </trkpt>
      <trkpt lat="42.97627" lon="17.17288">
        <ele>11</ele>
        <time>2016-07-15T05:06:06Z</time>
      </trkpt>
      <trkpt lat="42.97624" lon="17.17297">
        <ele>12</ele>
        <time>2016-07-15T05:08:06Z</time>
      </trkpt>
      <trkpt lat="42.97623" lon="17.17299">
        <ele>12</ele>
        <time>2016-07-15T05:10:06Z</time>
      </trkpt>
      <trkpt lat="42.9761" lon="17.17331">
        <ele>12</ele>
        <time>2016-07-15T05:12:06Z</time>
      </trkpt>
      <trkpt lat="42.97603" lon="17.17352">
        <ele>13</ele>
        <time>2016-07-15T05:14:06Z</time>
      </trkpt>
      <trkpt lat="42.97587" lon="17.17402">
        <ele>14</ele>
        <time>2016-07-15T05:16:06Z</time>
      </trkpt>
      <trkpt lat="42.97584" lon="17.1741">
        <ele>15</ele>
        <time>2016-07-15T05:18:06Z</time>
      </trkpt>
      <trkpt lat="42.97582" lon="17.17425">
        <ele>15</ele>
        <time>2016-07-15T05:20:06Z</time>
      </trkpt>
      <trkpt lat="42.97579" lon="17.17435">
        <ele>15</ele>
        <time>2016-07-15T05:22:06Z</time>
      </trkpt>
      <trkpt lat="42.97578" lon="17.17443">
        <ele>15</ele>
        <time>2016-07-15T05:24:06Z</time>
      </trkpt>
      <trkpt lat="42.97574" lon="17.17479">
        <ele>15</ele>
        <time>2016-07-15T05:26:06Z</time>
      </trkpt>
      <trkpt lat="42.97572" lon="17.17496">
        <ele>15</ele>
        <time>2016-07-15T05:28:06Z</time>
      </trkpt>
      <trkpt lat="42.97567" lon="17.17579">
        <ele>15</ele>
        <time>2016-07-15T05:30:06Z</time>
      </trkpt>
      <trkpt lat="42.97566" lon="17.17599">
        <ele>15</ele>
        <time>2016-07-15T05:32:06Z</time>
      </trkpt>
      <trkpt lat="42.97564" lon="17.17642">
        <ele>14</ele>
        <time>2016-07-15T05:34:06Z</time>
      </trkpt>
      <trkpt lat="42.97564" lon="17.17662">
        <ele>14</ele>
        <time>2016-07-15T05:36:06Z</time>
      </trkpt>
      <trkpt lat="42.97564" lon="17.17667">
        <ele>14</ele>
        <time>2016-07-15T05:38:06Z</time>
      </trkpt>
      <trkpt lat="42.97563" lon="17.17693">
        <ele>14</ele>
        <time>2016-07-15T05:40:06Z</time>
      </trkpt>
      <trkpt lat="42.97564" lon="17.17698">
        <ele>14</ele>
        <time>2016-07-15T05:42:06Z</time>
      </trkpt>
      <trkpt lat="42.97566" lon="17.17758">
        <ele>14</ele>
        <time>2016-07-15T05:44:06Z</time>
      </trkpt>
      <trkpt lat="42.97568" lon="17.17784">
        <ele>14</ele>
        <time>2016-07-15T05:46:06Z</time>
      </trkpt>
      <trkpt lat="42.97568" lon="17.17791">
        <ele>14</ele>
        <time>2016-07-15T05:48:06Z</time>
      </trkpt>
      <trkpt lat="42.9757" lon="17.17844">
        <ele>13</ele>
        <time>2016-07-15T05:50:06Z</time>
      </trkpt>
      <trkpt lat="42.97571" lon="17.17882">
        <ele>13</ele>
        <time>2016-07-15T05:52:06Z</time>
      </trkpt>
      <trkpt lat="42.97573" lon="17.17903">
        <ele>13</ele>
        <time>2016-07-15T05:54:06Z</time>
      </trkpt>
      <trkpt lat="42.97574" lon="17.17916">
        <ele>12</ele>
        <time>2016-07-15T05:56:06Z</time>
      </trkpt>
      <trkpt lat="42.97574" lon="17.17919">
        <ele>12</ele>
        <time>2016-07-15T05:58:06Z</time>
      </trkpt>
      <trkpt lat="42.97576" lon="17.17981">
        <ele>13</ele>
        <time>2016-07-15T06:00:06Z</time>
      </trkpt>
      <trkpt lat="42.97577" lon="17.18004">
        <ele>14</ele>
        <time>2016-07-15T06:02:06Z</time>
      </trkpt>
      <trkpt lat="42.9758" lon="17.18053">
        <ele>14</ele>
        <time>2016-07-15T06:04:06Z</time>
      </trkpt>
      <trkpt lat="42.97582" lon="17.1809">
        <ele>14</ele>
        <time>2016-07-15T06:06:06Z</time>
      </trkpt>
      <trkpt lat="42.97582" lon="17.18101">
        <ele>14</ele>
        <time>2016-07-15T06:08:06Z</time>
      </trkpt>
      <trkpt lat="42.97584" lon="17.18129">
        <ele>13</ele>
        <time>2016-07-15T06:10:06Z</time>
      </trkpt>
      <trkpt lat="42.97585" lon="17.18159">
        <ele>13</ele>
        <time>2016-07-15T06:12:06Z</time>
      </trkpt>
      <trkpt lat="42.97585" lon="17.18187">
        <ele>13</ele>
        <time>2016-07-15T06:14:06Z</time>
      </trkpt>
      <trkpt lat="42.97585" lon="17.18192">
        <ele>13</ele>
        <time>2016-07-15T06:16:06Z</time>
      </trkpt>
      <trkpt lat="42.97587" lon="17.18239">
        <ele>13</ele>
        <time>2016-07-15T06:18:06Z</time>
      </trkpt>
      <trkpt lat="42.97587" lon="17.18241">
        <ele>13</ele>
        <time>2016-07-15T06:20:06Z</time>
      </trkpt>
      <trkpt lat="42.97588" lon="17.18257">
        <ele>13</ele>
        <time>2016-07-15T06:22:06Z</time>
      </trkpt>
      <trkpt lat="42.97589" lon="17.18299">
        <ele>14</ele>
        <time>2016-07-15T06:24:06Z</time>
      </trkpt>
      <trkpt lat="42.97589" lon="17.18304">
        <ele>14</ele>
        <time>2016-07-15T06:26:06Z</time>
      </trkpt>
      <trkpt lat="42.97597" lon="17.18352">
        <ele>15</ele>
        <time>2016-07-15T06:28:06Z</time>
      </trkpt>
      <trkpt lat="42.97603" lon="17.18378">
        <ele>15</ele>
        <time>2016-07-15T06:30:06Z</time>
      </trkpt>
      <trkpt lat="42.97604" lon="17.18379">
        <ele>16</ele>
        <time>2016-07-15T06:32:06Z</time>
      </trkpt>
      <trkpt lat="42.97607" lon="17.18394">
        <ele>16</ele>
        <time>2016-07-15T06:34:06Z</time>
      </trkpt>
      <trkpt lat="42.97609" lon="17.18404">
        <ele>16</ele>
        <time>2016-07-15T06:36:06Z</time>
      </trkpt>
      <trkpt lat="42.97612" lon="17.18415">
        <ele>16</ele>
        <time>2016-07-15T06:38:06Z</time>
      </trkpt>
      <trkpt lat="42.97617" lon="17.18434">
        <ele>17</ele>
        <time>2016-07-15T06:40:06Z</time>
      </trkpt>
      <trkpt lat="42.97627" lon="17.18468">
        <ele>17</ele>
        <time>2016-07-15T06:42:06Z</time>
      </trkpt>
      <trkpt lat="42.97637" lon="17.18507">
        <ele>18</ele>
        <time>2016-07-15T06:44:06Z</time>
      </trkpt>
      <trkpt lat="42.9764" lon="17.18517">
        <ele>18</ele>
        <time>2016-07-15T06:46:06Z</time>
      </trkpt>
      <trkpt lat="42.97648" lon="17.18546">
        <ele>17</ele>
        <time>2016-07-15T06:48:06Z</time>
      </trkpt>
      <trkpt lat="42.97659" lon="17.18585">
        <ele>17</ele>
        <time>2016-07-15T06:50:06Z</time>
      </trkpt>
      <trkpt lat="42.97662" lon="17.18594">
        <ele>17</ele>
        <time>2016-07-15T06:52:06Z</time>
      </trkpt>
      <trkpt lat="42.97676" lon="17.18644">
        <ele>17</ele>
        <time>2016-07-15T06:54:06Z</time>
      </trkpt>
      <trkpt lat="42.97687" lon="17.18689">
        <ele>16</ele>
        <time>2016-07-15T06:56:06Z</time>
      </trkpt>
      <trkpt lat="42.97699" lon="17.1873">
        <ele>16</ele>
        <time>2016-07-15T06:58:06Z</time>
      </trkpt>
      <trkpt lat="42.97724" lon="17.18822">
        <ele>16</ele>
        <time>2016-07-15T07:00:06Z</time>
      </trkpt>
      <trkpt lat="42.97754" lon="17.18928">
        <ele>15</ele>
        <time>2016-07-15T07:02:06Z</time>
      </trkpt>
      <trkpt lat="42.97769" lon="17.18982">
        <ele>13</ele>
        <time>2016-07-15T07:04:06Z</time>
      </trkpt>
      <trkpt lat="42.97771" lon="17.1899">
        <ele>13</ele>
        <time>2016-07-15T07:06:06Z</time>
      </trkpt>
      <trkpt lat="42.9778" lon="17.1902">
        <ele>12</ele>
        <time>2016-07-15T07:08:06Z</time>
      </trkpt>
      <trkpt lat="42.97783" lon="17.19028">
        <ele>12</ele>
        <time>2016-07-15T07:10:06Z</time>
      </trkpt>
      <trkpt lat="42.97785" lon="17.19036">
        <ele>12</ele>
        <time>2016-07-15T07:12:06Z</time>
      </trkpt>
      <trkpt lat="42.97789" lon="17.19045">
        <ele>12</ele>
        <time>2016-07-15T07:14:06Z</time>
      </trkpt>
      <trkpt lat="42.97791" lon="17.1905">
        <ele>12</ele>
        <time>2016-07-15T07:16:06Z</time>
      </trkpt>
      <trkpt lat="42.97794" lon="17.19056">
        <ele>12</ele>
        <time>2016-07-15T07:18:06Z</time>
      </trkpt>
      <trkpt lat="42.97797" lon="17.1906">
        <ele>12</ele>
        <time>2016-07-15T07:20:06Z</time>
      </trkpt>
      <trkpt lat="42.97801" lon="17.19069">
        <ele>11</ele>
        <time>2016-07-15T07:22:06Z</time>
      </trkpt>
      <trkpt lat="42.97801" lon="17.19069">
        <ele>11</ele>
        <time>2016-07-15T07:24:06Z</time>
      </trkpt>
      <trkpt lat="42.97805" lon="17.19075">
        <ele>11</ele>
        <time>2016-07-15T07:26:06Z</time>
      </trkpt>
      <trkpt lat="42.97825" lon="17.19114">
        <ele>10</ele>
        <time>2016-07-15T07:28:06Z</time>
      </trkpt>
      <trkpt lat="42.97833" lon="17.19128">
        <ele>10</ele>
        <time>2016-07-15T07:30:06Z</time>
      </trkpt>
      <trkpt lat="42.9787" lon="17.19189">
        <ele>11</ele>
        <time>2016-07-15T07:32:06Z</time>
      </trkpt>
      <trkpt lat="42.97874" lon="17.19196">
        <ele>11</ele>
        <time>2016-07-15T07:34:06Z</time>
      </trkpt>
      <trkpt lat="42.97902" lon="17.19238">
        <ele>10</ele>
        <time>2016-07-15T07:36:06Z</time>
      </trkpt>
      <trkpt lat="42.97915" lon="17.19256">
        <ele>10</ele>
        <time>2016-07-15T07:38:06Z</time>
      </trkpt>
      <trkpt lat="42.97921" lon="17.19263">
        <ele>10</ele>
        <time>2016-07-15T07:40:06Z</time>
      </trkpt>
      <trkpt lat="42.97953" lon="17.19298">
        <ele>12</ele>
        <time>2016-07-15T07:42:06Z</time>
      </trkpt>
      <trkpt lat="42.97968" lon="17.19314">
        <ele>13</ele>
        <time>2016-07-15T07:44:06Z</time>
      </trkpt>
      <trkpt lat="42.97971" lon="17.19317">
        <ele>13</ele>
        <time>2016-07-15T07:46:06Z</time>
      </trkpt>
      <trkpt lat="42.97989" lon="17.19335">
        <ele>14</ele>
        <time>2016-07-15T07:48:06Z</time>
      </trkpt>
      <trkpt lat="42.98026" lon="17.19366">
        <ele>18</ele>
        <time>2016-07-15T07:50:06Z</time>
      </trkpt>
      <trkpt lat="42.9803" lon="17.1937">
        <ele>18</ele>
        <time>2016-07-15T07:52:06Z</time>
      </trkpt>
      <trkpt lat="42.9806" lon="17.19398">
        <ele>22</ele>
        <time>2016-07-15T07:54:06Z</time>
      </trkpt>
      <trkpt lat="42.98079" lon="17.19416">
        <ele>25</ele>
        <time>2016-07-15T07:56:06Z</time>
      </trkpt>
      <trkpt lat="42.98088" lon="17.19422">
        <ele>26</ele>
        <time>2016-07-15T07:58:06Z</time>
      </trkpt>
      <trkpt lat="42.98097" lon="17.19426">
        <ele>27</ele>
        <time>2016-07-15T08:00:06Z</time>
      </trkpt>
      <trkpt lat="42.98105" lon="17.19428">
        <ele>28</ele>
        <time>2016-07-15T08:02:06Z</time>
      </trkpt>
      <trkpt lat="42.98112" lon="17.19429">
        <ele>28</ele>
        <time>2016-07-15T08:04:06Z</time>
      </trkpt>
      <trkpt lat="42.9812" lon="17.19431">
        <ele>29</ele>
        <time>2016-07-15T08:06:06Z</time>
      </trkpt>
      <trkpt lat="42.98141" lon="17.19432">
        <ele>30</ele>
        <time>2016-07-15T08:08:06Z</time>
      </trkpt>
      <trkpt lat="42.98186" lon="17.19438">
        <ele>33</ele>
        <time>2016-07-15T08:10:06Z</time>
      </trkpt>
      <trkpt lat="42.98214" lon="17.19442">
        <ele>35</ele>
        <time>2016-07-15T08:12:06Z</time>
      </trkpt>
      <trkpt lat="42.98224" lon="17.19444">
        <ele>35</ele>
        <time>2016-07-15T08:14:06Z</time>
      </trkpt>
      <trkpt lat="42.98244" lon="17.19451">
        <ele>37</ele>
        <time>2016-07-15T08:16:06Z</time>
      </trkpt>
      <trkpt lat="42.98249" lon="17.19453">
        <ele>37</ele>
        <time>2016-07-15T08:18:06Z</time>
      </trkpt>
      <trkpt lat="42.98251" lon="17.19455">
        <ele>37</ele>
        <time>2016-07-15T08:20:06Z</time>
      </trkpt>
      <trkpt lat="42.98253" lon="17.19456">
        <ele>38</ele>
        <time>2016-07-15T08:22:06Z</time>
      </trkpt>
      <trkpt lat="42.98257" lon="17.1946">
        <ele>38</ele>
        <time>2016-07-15T08:24:06Z</time>
      </trkpt>
      <trkpt lat="42.98275" lon="17.19478">
        <ele>41</ele>
        <time>2016-07-15T08:26:06Z</time>
      </trkpt>
      <trkpt lat="42.9828" lon="17.19485">
        <ele>41</ele>
        <time>2016-07-15T08:28:06Z</time>
      </trkpt>
      <trkpt lat="42.98285" lon="17.19493">
        <ele>42</ele>
        <time>2016-07-15T08:30:06Z</time>
      </trkpt>
      <trkpt lat="42.98289" lon="17.195">
        <ele>43</ele>
        <time>2016-07-15T08:32:06Z</time>
      </trkpt>
      <trkpt lat="42.98293" lon="17.19506">
        <ele>43</ele>
        <time>2016-07-15T08:34:06Z</time>
      </trkpt>
      <trkpt lat="42.98297" lon="17.19517">
        <ele>44</ele>
        <time>2016-07-15T08:36:06Z</time>
      </trkpt>
      <trkpt lat="42.98301" lon="17.19532">
        <ele>44</ele>
        <time>2016-07-15T08:38:06Z</time>
      </trkpt>
      <trkpt lat="42.98305" lon="17.19548">
        <ele>45</ele>
        <time>2016-07-15T08:40:06Z</time>
      </trkpt>
      <trkpt lat="42.98309" lon="17.1957">
        <ele>45</ele>
        <time>2016-07-15T08:42:06Z</time>
      </trkpt>
      <trkpt lat="42.98312" lon="17.19591">
        <ele>45</ele>
        <time>2016-07-15T08:44:06Z</time>
      </trkpt>
      <trkpt lat="42.98315" lon="17.19623">
        <ele>46</ele>
        <time>2016-07-15T08:46:06Z</time>
      </trkpt>
      <trkpt lat="42.98317" lon="17.19644">
        <ele>46</ele>
        <time>2016-07-15T08:48:06Z</time>
      </trkpt>
      <trkpt lat="42.98323" lon="17.19701">
        <ele>46</ele>
        <time>2016-07-15T08:50:06Z</time>
      </trkpt>
      <trkpt lat="42.98333" lon="17.19806">
        <ele>46</ele>
        <time>2016-07-15T08:52:06Z</time>
      </trkpt>
      <trkpt lat="42.98344" lon="17.19899">
        <ele>45</ele>
        <time>2016-07-15T08:54:06Z</time>
      </trkpt>
      <trkpt lat="42.98352" lon="17.19959">
        <ele>43</ele>
        <time>2016-07-15T08:56:06Z</time>
      </trkpt>
      <trkpt lat="42.98357" lon="17.19996">
        <ele>41</ele>
        <time>2016-07-15T08:58:06Z</time>
      </trkpt>
      <trkpt lat="42.98367" lon="17.2006">
        <ele>41</ele>
        <time>2016-07-15T09:00:06Z</time>
      </trkpt>
      <trkpt lat="42.98372" lon="17.20089">
        <ele>40</ele>
        <time>2016-07-15T09:02:06Z</time>
      </trkpt>
      <trkpt lat="42.98377" lon="17.20119">
        <ele>39</ele>
        <time>2016-07-15T09:04:06Z</time>
      </trkpt>
      <trkpt lat="42.98381" lon="17.20148">
        <ele>39</ele>
        <time>2016-07-15T09:06:06Z</time>
      </trkpt>
      <trkpt lat="42.98383" lon="17.20186">
        <ele>38</ele>
        <time>2016-07-15T09:08:06Z</time>
      </trkpt>
      <trkpt lat="42.98384" lon="17.20203">
        <ele>38</ele>
        <time>2016-07-15T09:10:06Z</time>
      </trkpt>
      <trkpt lat="42.98383" lon="17.20218">
        <ele>38</ele>
        <time>2016-07-15T09:12:06Z</time>
      </trkpt>
      <trkpt lat="42.98382" lon="17.20243">
        <ele>38</ele>
        <time>2016-07-15T09:14:06Z</time>
      </trkpt>
      <trkpt lat="42.9838" lon="17.20261">
        <ele>37</ele>
        <time>2016-07-15T09:16:06Z</time>
      </trkpt>
      <trkpt lat="42.98374" lon="17.20301">
        <ele>36</ele>
        <time>2016-07-15T09:18:06Z</time>
      </trkpt>
      <trkpt lat="42.98368" lon="17.20328">
        <ele>36</ele>
        <time>2016-07-15T09:20:06Z</time>
      </trkpt>
      <trkpt lat="42.98359" lon="17.20365">
        <ele>34</ele>
        <time>2016-07-15T09:22:06Z</time>
      </trkpt>
      <trkpt lat="42.98341" lon="17.20443">
        <ele>32</ele>
        <time>2016-07-15T09:24:06Z</time>
      </trkpt>
      <trkpt lat="42.98338" lon="17.20468">
        <ele>31</ele>
        <time>2016-07-15T09:26:06Z</time>
      </trkpt>
      <trkpt lat="42.98337" lon="17.20487">
        <ele>31</ele>
        <time>2016-07-15T09:28:06Z</time>
      </trkpt>
      <trkpt lat="42.98338" lon="17.20505">
        <ele>30</ele>
        <time>2016-07-15T09:30:06Z</time>
      </trkpt>
      <trkpt lat="42.9834" lon="17.2054">
        <ele>31</ele>
        <time>2016-07-15T09:32:06Z</time>
      </trkpt>
      <trkpt lat="42.98342" lon="17.20558">
        <ele>31</ele>
        <time>2016-07-15T09:34:06Z</time>
      </trkpt>
      <trkpt lat="42.98342" lon="17.20565">
        <ele>31</ele>
        <time>2016-07-15T09:36:06Z</time>
      </trkpt>
      <trkpt lat="42.98344" lon="17.20598">
        <ele>31</ele>
        <time>2016-07-15T09:38:06Z</time>
      </trkpt>
      <trkpt lat="42.98345" lon="17.20625">
        <ele>31</ele>
        <time>2016-07-15T09:40:06Z</time>
      </trkpt>
      <trkpt lat="42.98345" lon="17.20661">
        <ele>31</ele>
        <time>2016-07-15T09:42:06Z</time>
      </trkpt>
      <trkpt lat="42.98345" lon="17.20687">
        <ele>30</ele>
        <time>2016-07-15T09:44:06Z</time>
      </trkpt>
      <trkpt lat="42.98344" lon="17.20701">
        <ele>30</ele>
        <time>2016-07-15T09:46:06Z</time>
      </trkpt>
      <trkpt lat="42.98345" lon="17.20713">
        <ele>30</ele>
        <time>2016-07-15T09:48:06Z</time>
      </trkpt>
      <trkpt lat="42.98347" lon="17.20742">
        <ele>29</ele>
        <time>2016-07-15T09:50:06Z</time>
      </trkpt>
      <trkpt lat="42.98353" lon="17.20782">
        <ele>28</ele>
        <time>2016-07-15T09:52:06Z</time>
      </trkpt>
      <trkpt lat="42.98359" lon="17.20821">
        <ele>28</ele>
        <time>2016-07-15T09:54:06Z</time>
      </trkpt>
      <trkpt lat="42.9836" lon="17.20835">
        <ele>27</ele>
        <time>2016-07-15T09:56:06Z</time>
      </trkpt>
      <trkpt lat="42.98361" lon="17.20844">
        <ele>27</ele>
        <time>2016-07-15T09:58:06Z</time>
      </trkpt>
      <trkpt lat="42.98361" lon="17.20854">
        <ele>27</ele>
        <time>2016-07-15T10:00:06Z</time>
      </trkpt>
      <trkpt lat="42.9836" lon="17.20863">
        <ele>27</ele>
        <time>2016-07-15T10:02:06Z</time>
      </trkpt>
      <trkpt lat="42.98358" lon="17.20878">
        <ele>26</ele>
        <time>2016-07-15T10:04:06Z</time>
      </trkpt>
      <trkpt lat="42.98353" lon="17.20898">
        <ele>25</ele>
        <time>2016-07-15T10:06:06Z</time>
      </trkpt>
      <trkpt lat="42.98347" lon="17.20917">
        <ele>25</ele>
        <time>2016-07-15T10:08:06Z</time>
      </trkpt>
      <trkpt lat="42.98341" lon="17.2094">
        <ele>24</ele>
        <time>2016-07-15T10:10:06Z</time>
      </trkpt>
      <trkpt lat="42.98326" lon="17.20997">
        <ele>23</ele>
        <time>2016-07-15T10:12:06Z</time>
      </trkpt>
      <trkpt lat="42.98318" lon="17.21026">
        <ele>23</ele>
        <time>2016-07-15T10:14:06Z</time>
      </trkpt>
      <trkpt lat="42.98283" lon="17.21151">
        <ele>24</ele>
        <time>2016-07-15T10:16:06Z</time>
      </trkpt>
      <trkpt lat="42.98277" lon="17.21175">
        <ele>24</ele>
        <time>2016-07-15T10:18:06Z</time>
      </trkpt>
      <trkpt lat="42.98265" lon="17.21223">
        <ele>25</ele>
        <time>2016-07-15T10:20:06Z</time>
      </trkpt>
      <trkpt lat="42.98258" lon="17.21252">
        <ele>25</ele>
        <time>2016-07-15T10:22:06Z</time>
      </trkpt>
      <trkpt lat="42.98254" lon="17.21271">
        <ele>25</ele>
        <time>2016-07-15T10:24:06Z</time>
      </trkpt>
      <trkpt lat="42.98248" lon="17.21298">
        <ele>24</ele>
        <time>2016-07-15T10:26:06Z</time>
      </trkpt>
      <trkpt lat="42.98242" lon="17.2134">
        <ele>25</ele>
        <time>2016-07-15T10:28:06Z</time>
      </trkpt>
      <trkpt lat="42.98238" lon="17.21367">
        <ele>25</ele>
        <time>2016-07-15T10:30:06Z</time>
      </trkpt>
      <trkpt lat="42.98236" lon="17.21397">
        <ele>26</ele>
        <time>2016-07-15T10:32:06Z</time>
      </trkpt>
      <trkpt lat="42.98234" lon="17.21445">
        <ele>27</ele>
        <time>2016-07-15T10:34:06Z</time>
      </trkpt>
      <trkpt lat="42.98234" lon="17.2147">
        <ele>28</ele>
        <time>2016-07-15T10:36:06Z</time>
      </trkpt>
      <trkpt lat="42.98235" lon="17.21503">
        <ele>29</ele>
        <time>2016-07-15T10:38:06Z</time>
      </trkpt>
      <trkpt lat="42.98236" lon="17.21537">
        <ele>30</ele>
        <time>2016-07-15T10:40:06Z</time>
      </trkpt>
      <trkpt lat="42.98239" lon="17.21564">
        <ele>31</ele>
        <time>2016-07-15T10:42:06Z</time>
      </trkpt>
      <trkpt lat="42.98241" lon="17.21593">
        <ele>33</ele>
        <time>2016-07-15T10:44:06Z</time>
      </trkpt>
      <trkpt lat="42.98242" lon="17.21617">
        <ele>35</ele>
        <time>2016-07-15T10:46:06Z</time>
      </trkpt>
      <trkpt lat="42.98242" lon="17.21638">
        <ele>36</ele>
        <time>2016-07-15T10:48:06Z</time>
      </trkpt>
      <trkpt lat="42.9824" lon="17.21653">
        <ele>36</ele>
        <time>2016-07-15T10:50:06Z</time>
      </trkpt>
      <trkpt lat="42.98237" lon="17.21672">
        <ele>37</ele>
        <time>2016-07-15T10:52:06Z</time>
      </trkpt>
      <trkpt lat="42.98232" lon="17.21687">
        <ele>37</ele>
        <time>2016-07-15T10:54:06Z</time>
      </trkpt>
      <trkpt lat="42.98227" lon="17.21701">
        <ele>37</ele>
        <time>2016-07-15T10:56:06Z</time>
      </trkpt>
      <trkpt lat="42.98221" lon="17.21713">
        <ele>37</ele>
        <time>2016-07-15T10:58:06Z</time>
      </trkpt>
      <trkpt lat="42.98201" lon="17.21746">
        <ele>35</ele>
        <time>2016-07-15T11:00:06Z</time>
      </trkpt>
      <trkpt lat="42.98183" lon="17.21774">
        <ele>34</ele>
        <time>2016-07-15T11:02:06Z</time>
      </trkpt>
      <trkpt lat="42.98173" lon="17.2179">
        <ele>33</ele>
        <time>2016-07-15T11:04:06Z</time>
      </trkpt>
      <trkpt lat="42.98159" lon="17.21814">
        <ele>33</ele>
        <time>2016-07-15T11:06:06Z</time>
      </trkpt>
      <trkpt lat="42.98148" lon="17.21836">
        <ele>32</ele>
        <time>2016-07-15T11:08:06Z</time>
      </trkpt>
      <trkpt lat="42.98138" lon="17.21858">
        <ele>33</ele>
        <time>2016-07-15T11:10:06Z</time>
      </trkpt>
      <trkpt lat="42.98124" lon="17.21892">
        <ele>35</ele>
        <time>2016-07-15T11:12:06Z</time>
      </trkpt>
      <trkpt lat="42.98117" lon="17.21912">
        <ele>37</ele>
        <time>2016-07-15T11:14:06Z</time>
      </trkpt>
      <trkpt lat="42.98103" lon="17.21943">
        <ele>41</ele>
        <time>2016-07-15T11:16:06Z</time>
      </trkpt>
      <trkpt lat="42.98092" lon="17.21965">
        <ele>43</ele>
        <time>2016-07-15T11:18:06Z</time>
      </trkpt>
      <trkpt lat="42.98081" lon="17.21985">
        <ele>46</ele>
        <time>2016-07-15T11:20:06Z</time>
      </trkpt>
      <trkpt lat="42.98071" lon="17.21999">
        <ele>49</ele>
        <time>2016-07-15T11:22:06Z</time>
      </trkpt>
      <trkpt lat="42.98063" lon="17.22012">
        <ele>50</ele>
        <time>2016-07-15T11:24:06Z</time>
      </trkpt>
      <trkpt lat="42.98047" lon="17.22033">
        <ele>52</ele>
        <time>2016-07-15T11:26:06Z</time>
      </trkpt>
      <trkpt lat="42.98028" lon="17.22059">
        <ele>56</ele>
        <time>2016-07-15T11:28:06Z</time>
      </trkpt>
      <trkpt lat="42.98018" lon="17.22072">
        <ele>58</ele>
        <time>2016-07-15T11:30:06Z</time>
      </trkpt>
      <trkpt lat="42.98011" lon="17.22082">
        <ele>60</ele>
        <time>2016-07-15T11:32:06Z</time>
      </trkpt>
      <trkpt lat="42.98002" lon="17.22093">
        <ele>61</ele>
        <time>2016-07-15T11:34:06Z</time>
      </trkpt>
      <trkpt lat="42.97989" lon="17.22113">
        <ele>62</ele>
        <time>2016-07-15T11:36:06Z</time>
      </trkpt>
      <trkpt lat="42.97978" lon="17.22133">
        <ele>62</ele>
        <time>2016-07-15T11:38:06Z</time>
      </trkpt>
      <trkpt lat="42.97966" lon="17.22155">
        <ele>63</ele>
        <time>2016-07-15T11:40:06Z</time>
      </trkpt>
      <trkpt lat="42.97957" lon="17.22176">
        <ele>64</ele>
        <time>2016-07-15T11:42:06Z</time>
      </trkpt>
      <trkpt lat="42.97947" lon="17.22202">
        <ele>65</ele>
        <time>2016-07-15T11:44:06Z</time>
      </trkpt>
      <trkpt lat="42.97937" lon="17.22232">
        <ele>65</ele>
        <time>2016-07-15T11:46:06Z</time>
      </trkpt>
      <trkpt lat="42.97929" lon="17.22259">
        <ele>66</ele>
        <time>2016-07-15T11:48:06Z</time>
      </trkpt>
      <trkpt lat="42.97924" lon="17.22278">
        <ele>66</ele>
        <time>2016-07-15T11:50:06Z</time>
      </trkpt>
      <trkpt lat="42.9792" lon="17.22298">
        <ele>67</ele>
        <time>2016-07-15T11:52:06Z</time>
      </trkpt>
      <trkpt lat="42.97918" lon="17.22305">
        <ele>67</ele>
        <time>2016-07-15T11:54:06Z</time>
      </trkpt>
      <trkpt lat="42.97917" lon="17.22309">
        <ele>67</ele>
        <time>2016-07-15T11:56:06Z</time>
      </trkpt>
      <trkpt lat="42.97917" lon="17.22311">
        <ele>67</ele>
        <time>2016-07-15T11:58:06Z</time>
      </trkpt>
      <trkpt lat="42.97916" lon="17.22316">
        <ele>67</ele>
        <time>2016-07-15T12:00:06Z</time>
      </trkpt>
      <trkpt lat="42.97913" lon="17.22358">
        <ele>67</ele>
        <time>2016-07-15T12:02:06Z</time>
      </trkpt>
      <trkpt lat="42.97913" lon="17.22384">
        <ele>67</ele>
        <time>2016-07-15T12:04:06Z</time>
      </trkpt>
      <trkpt lat="42.97913" lon="17.22414">
        <ele>66</ele>
        <time>2016-07-15T12:06:06Z</time>
      </trkpt>
      <trkpt lat="42.97912" lon="17.22436">
        <ele>65</ele>
        <time>2016-07-15T12:08:06Z</time>
      </trkpt>
      <trkpt lat="42.9791" lon="17.22451">
        <ele>65</ele>
        <time>2016-07-15T12:10:06Z</time>
      </trkpt>
      <trkpt lat="42.97907" lon="17.22474">
        <ele>63</ele>
        <time>2016-07-15T12:12:06Z</time>
      </trkpt>
      <trkpt lat="42.97905" lon="17.22488">
        <ele>63</ele>
        <time>2016-07-15T12:14:06Z</time>
      </trkpt>
      <trkpt lat="42.97904" lon="17.22496">
        <ele>62</ele>
        <time>2016-07-15T12:16:06Z</time>
      </trkpt>
      <trkpt lat="42.97903" lon="17.225">
        <ele>62</ele>
        <time>2016-07-15T12:18:06Z</time>
      </trkpt>
      <trkpt lat="42.97902" lon="17.22505">
        <ele>62</ele>
        <time>2016-07-15T12:20:06Z</time>
      </trkpt>
      <trkpt lat="42.979" lon="17.22518">
        <ele>62</ele>
        <time>2016-07-15T12:22:06Z</time>
      </trkpt>
      <trkpt lat="42.979" lon="17.22519">
        <ele>62</ele>
        <time>2016-07-15T12:24:06Z</time>
      </trkpt>
      <trkpt lat="42.97898" lon="17.22536">
        <ele>62</ele>
        <time>2016-07-15T12:26:06Z</time>
      </trkpt>
      <trkpt lat="42.97898" lon="17.22555">
        <ele>63</ele>
        <time>2016-07-15T12:28:06Z</time>
      </trkpt>
      <trkpt lat="42.979" lon="17.22587">
        <ele>65</ele>
        <time>2016-07-15T12:30:06Z</time>
      </trkpt>
      <trkpt lat="42.97901" lon="17.22626">
        <ele>68</ele>
        <time>2016-07-15T12:32:06Z</time>
      </trkpt>
      <trkpt lat="42.97901" lon="17.22635">
        <ele>68</ele>
        <time>2016-07-15T12:34:06Z</time>
      </trkpt>
      <trkpt lat="42.97899" lon="17.22647">
        <ele>68</ele>
        <time>2016-07-15T12:36:06Z</time>
      </trkpt>
      <trkpt lat="42.97897" lon="17.22659">
        <ele>68</ele>
        <time>2016-07-15T12:38:06Z</time>
      </trkpt>
      <trkpt lat="42.97893" lon="17.22676">
        <ele>68</ele>
        <time>2016-07-15T12:40:06Z</time>
      </trkpt>
      <trkpt lat="42.97892" lon="17.22681">
        <ele>69</ele>
        <time>2016-07-15T12:42:06Z</time>
      </trkpt>
      <trkpt lat="42.9789" lon="17.22686">
        <ele>69</ele>
        <time>2016-07-15T12:44:06Z</time>
      </trkpt>
      <trkpt lat="42.97883" lon="17.22701">
        <ele>68</ele>
        <time>2016-07-15T12:46:06Z</time>
      </trkpt>
      <trkpt lat="42.97876" lon="17.22714">
        <ele>68</ele>
        <time>2016-07-15T12:48:06Z</time>
      </trkpt>
      <trkpt lat="42.97871" lon="17.22721">
        <ele>67</ele>
        <time>2016-07-15T12:50:06Z</time>
      </trkpt>
      <trkpt lat="42.97867" lon="17.22727">
        <ele>67</ele>
        <time>2016-07-15T12:52:06Z</time>
      </trkpt>
      <trkpt lat="42.97857" lon="17.22739">
        <ele>66</ele>
        <time>2016-07-15T12:54:06Z</time>
      </trkpt>
      <trkpt lat="42.97849" lon="17.22746">
        <ele>65</ele>
        <time>2016-07-15T12:56:06Z</time>
      </trkpt>
      <trkpt lat="42.97845" lon="17.2275">
        <ele>64</ele>
        <time>2016-07-15T12:58:06Z</time>
      </trkpt>
      <trkpt lat="42.97841" lon="17.22752">
        <ele>63</ele>
        <time>2016-07-15T13:00:06Z</time>
      </trkpt>
      <trkpt lat="42.97827" lon="17.2276">
        <ele>62</ele>
        <time>2016-07-15T13:02:06Z</time>
      </trkpt>
      <trkpt lat="42.97809" lon="17.22768">
        <ele>61</ele>
        <time>2016-07-15T13:04:06Z</time>
      </trkpt>
      <trkpt lat="42.97792" lon="17.22777">
        <ele>61</ele>
        <time>2016-07-15T13:06:06Z</time>
      </trkpt>
      <trkpt lat="42.97788" lon="17.22778">
        <ele>60</ele>
        <time>2016-07-15T13:08:06Z</time>
      </trkpt>
      <trkpt lat="42.97785" lon="17.2278">
        <ele>60</ele>
        <time>2016-07-15T13:10:06Z</time>
      </trkpt>
      <trkpt lat="42.97777" lon="17.22784">
        <ele>60</ele>
        <time>2016-07-15T13:12:06Z</time>
      </trkpt>
      <trkpt lat="42.97755" lon="17.22796">
        <ele>58</ele>
        <time>2016-07-15T13:14:06Z</time>
      </trkpt>
      <trkpt lat="42.97741" lon="17.22809">
        <ele>58</ele>
        <time>2016-07-15T13:16:06Z</time>
      </trkpt>
      <trkpt lat="42.97731" lon="17.22819">
        <ele>58</ele>
        <time>2016-07-15T13:18:06Z</time>
      </trkpt>
      <trkpt lat="42.97724" lon="17.2283">
        <ele>58</ele>
        <time>2016-07-15T13:20:06Z</time>
      </trkpt>
      <trkpt lat="42.97716" lon="17.22844">
        <ele>58</ele>
        <time>2016-07-15T13:22:06Z</time>
      </trkpt>
      <trkpt lat="42.9771" lon="17.22858">
        <ele>59</ele>
        <time>2016-07-15T13:24:06Z</time>
      </trkpt>
      <trkpt lat="42.97706" lon="17.22869">
        <ele>59</ele>
        <time>2016-07-15T13:26:06Z</time>
      </trkpt>
      <trkpt lat="42.97702" lon="17.22881">
        <ele>59</ele>
        <time>2016-07-15T13:28:06Z</time>
      </trkpt>
      <trkpt lat="42.97697" lon="17.22903">
        <ele>60</ele>
        <time>2016-07-15T13:30:06Z</time>
      </trkpt>
      <trkpt lat="42.97684" lon="17.22969">
        <ele>65</ele>
        <time>2016-07-15T13:32:06Z</time>
      </trkpt>
      <trkpt lat="42.9768" lon="17.22981">
        <ele>65</ele>
        <time>2016-07-15T13:34:06Z</time>
      </trkpt>
      <trkpt lat="42.97677" lon="17.22987">
        <ele>65</ele>
        <time>2016-07-15T13:36:06Z</time>
      </trkpt>
      <trkpt lat="42.97671" lon="17.22996">
        <ele>65</ele>
        <time>2016-07-15T13:38:06Z</time>
      </trkpt>
      <trkpt lat="42.97671" lon="17.22997">
        <ele>65</ele>
        <time>2016-07-15T13:40:06Z</time>
      </trkpt>
      <trkpt lat="42.97665" lon="17.23003">
        <ele>65</ele>
        <time>2016-07-15T13:42:06Z</time>
      </trkpt>
      <trkpt lat="42.97659" lon="17.2301">
        <ele>66</ele>
        <time>2016-07-15T13:44:06Z</time>
      </trkpt>
      <trkpt lat="42.97654" lon="17.23014">
        <ele>67</ele>
        <time>2016-07-15T13:46:06Z</time>
      </trkpt>
      <trkpt lat="42.97646" lon="17.23018">
        <ele>67</ele>
        <time>2016-07-15T13:48:06Z</time>
      </trkpt>
      <trkpt lat="42.9763" lon="17.23027">
        <ele>67</ele>
        <time>2016-07-15T13:50:06Z</time>
      </trkpt>
      <trkpt lat="42.97608" lon="17.23038">
        <ele>67</ele>
        <time>2016-07-15T13:52:06Z</time>
      </trkpt>
      <trkpt lat="42.97594" lon="17.23049">
        <ele>67</ele>
        <time>2016-07-15T13:54:06Z</time>
      </trkpt>
      <trkpt lat="42.97586" lon="17.23057">
        <ele>67</ele>
        <time>2016-07-15T13:56:06Z</time>
      </trkpt>
      <trkpt lat="42.97575" lon="17.23067">
        <ele>68</ele>
        <time>2016-07-15T13:58:06Z</time>
      </trkpt>
      <trkpt lat="42.97565" lon="17.23078">
        <ele>68</ele>
        <time>2016-07-15T14:00:06Z</time>
      </trkpt>
      <trkpt lat="42.97557" lon="17.23089">
        <ele>69</ele>
        <time>2016-07-15T14:02:06Z</time>
      </trkpt>
      <trkpt lat="42.97548" lon="17.23104">
        <ele>70</ele>
        <time>2016-07-15T14:04:06Z</time>
      </trkpt>
      <trkpt lat="42.97543" lon="17.23114">
        <ele>71</ele>
        <time>2016-07-15T14:06:06Z</time>
      </trkpt>
      <trkpt lat="42.97541" lon="17.23117">
        <ele>71</ele>
        <time>2016-07-15T14:08:06Z</time>
      </trkpt>
      <trkpt lat="42.97537" lon="17.23126">
        <ele>72</ele>
        <time>2016-07-15T14:10:06Z</time>
      </trkpt>
      <trkpt lat="42.97534" lon="17.23132">
        <ele>72</ele>
        <time>2016-07-15T14:12:06Z</time>
      </trkpt>
      <trkpt lat="42.97532" lon="17.23139">
        <ele>72</ele>
        <time>2016-07-15T14:14:06Z</time>
      </trkpt>
      <trkpt lat="42.97529" lon="17.23147">
        <ele>73</ele>
        <time>2016-07-15T14:16:06Z</time>
      </trkpt>
      <trkpt lat="42.97527" lon="17.23154">
        <ele>74</ele>
        <time>2016-07-15T14:18:06Z</time>
      </trkpt>
      <trkpt lat="42.97512" lon="17.23199">
        <ele>76</ele>
        <time>2016-07-15T14:20:06Z</time>
      </trkpt>
      <trkpt lat="42.97505" lon="17.23221">
        <ele>76</ele>
        <time>2016-07-15T14:22:06Z</time>
      </trkpt>
      <trkpt lat="42.97496" lon="17.23254">
        <ele>78</ele>
        <time>2016-07-15T14:24:06Z</time>
      </trkpt>
      <trkpt lat="42.97491" lon="17.23278">
        <ele>79</ele>
        <time>2016-07-15T14:26:06Z</time>
      </trkpt>
      <trkpt lat="42.97484" lon="17.23314">
        <ele>81</ele>
        <time>2016-07-15T14:28:06Z</time>
      </trkpt>
      <trkpt lat="42.97482" lon="17.23336">
        <ele>83</ele>
        <time>2016-07-15T14:30:06Z</time>
      </trkpt>
      <trkpt lat="42.9748" lon="17.23362">
        <ele>83</ele>
        <time>2016-07-15T14:32:06Z</time>
      </trkpt>
      <trkpt lat="42.97478" lon="17.23411">
        <ele>85</ele>
        <time>2016-07-15T14:34:06Z</time>
      </trkpt>
      <trkpt lat="42.97479" lon="17.23467">
        <ele>89</ele>
        <time>2016-07-15T14:36:06Z</time>
      </trkpt>
      <trkpt lat="42.9748" lon="17.23503">
        <ele>91</ele>
        <time>2016-07-15T14:38:06Z</time>
      </trkpt>
      <trkpt lat="42.9748" lon="17.23507">
        <ele>92</ele>
        <time>2016-07-15T14:40:06Z</time>
      </trkpt>
      <trkpt lat="42.97479" lon="17.23517">
        <ele>93</ele>
        <time>2016-07-15T14:42:06Z</time>
      </trkpt>
      <trkpt lat="42.97478" lon="17.23522">
        <ele>93</ele>
        <time>2016-07-15T14:44:06Z</time>
      </trkpt>
      <trkpt lat="42.97476" lon="17.23532">
        <ele>94</ele>
        <time>2016-07-15T14:46:06Z</time>
      </trkpt>
      <trkpt lat="42.97473" lon="17.23542">
        <ele>95</ele>
        <time>2016-07-15T14:48:06Z</time>
      </trkpt>
      <trkpt lat="42.9747" lon="17.23551">
        <ele>96</ele>
        <time>2016-07-15T14:50:06Z</time>
      </trkpt>
      <trkpt lat="42.97463" lon="17.23563">
        <ele>96</ele>
        <time>2016-07-15T14:52:06Z</time>
      </trkpt>
      <trkpt lat="42.97458" lon="17.2357">
        <ele>96</ele>
        <time>2016-07-15T14:54:06Z</time>
      </trkpt>
      <trkpt lat="42.97452" lon="17.23577">
        <ele>97</ele>
        <time>2016-07-15T14:56:06Z</time>
      </trkpt>
      <trkpt lat="42.97445" lon="17.23583">
        <ele>96</ele>
        <time>2016-07-15T14:58:06Z</time>
      </trkpt>
      <trkpt lat="42.97437" lon="17.2359">
        <ele>96</ele>
        <time>2016-07-15T15:00:06Z</time>
      </trkpt>
      <trkpt lat="42.97429" lon="17.23597">
        <ele>96</ele>
        <time>2016-07-15T15:02:06Z</time>
      </trkpt>
      <trkpt lat="42.97419" lon="17.23609">
        <ele>97</ele>
        <time>2016-07-15T15:04:06Z</time>
      </trkpt>
      <trkpt lat="42.97409" lon="17.23623">
        <ele>97</ele>
        <time>2016-07-15T15:06:06Z</time>
      </trkpt>
      <trkpt lat="42.97401" lon="17.23638">
        <ele>98</ele>
        <time>2016-07-15T15:08:06Z</time>
      </trkpt>
      <trkpt lat="42.97396" lon="17.23649">
        <ele>99</ele>
        <time>2016-07-15T15:10:06Z</time>
      </trkpt>
      <trkpt lat="42.97393" lon="17.23658">
        <ele>100</ele>
        <time>2016-07-15T15:12:06Z</time>
      </trkpt>
      <trkpt lat="42.97389" lon="17.2367">
        <ele>101</ele>
        <time>2016-07-15T15:14:06Z</time>
      </trkpt>
      <trkpt lat="42.97386" lon="17.23681">
        <ele>102</ele>
        <time>2016-07-15T15:16:06Z</time>
      </trkpt>
      <trkpt lat="42.97374" lon="17.23735">
        <ele>108</ele>
        <time>2016-07-15T15:18:06Z</time>
      </trkpt>
      <trkpt lat="42.97371" lon="17.23745">
        <ele>109</ele>
        <time>2016-07-15T15:20:06Z</time>
      </trkpt>
      <trkpt lat="42.97368" lon="17.23758">
        <ele>109</ele>
        <time>2016-07-15T15:22:06Z</time>
      </trkpt>
      <trkpt lat="42.97364" lon="17.23779">
        <ele>111</ele>
        <time>2016-07-15T15:24:06Z</time>
      </trkpt>
      <trkpt lat="42.97355" lon="17.23819">
        <ele>112</ele>
        <time>2016-07-15T15:26:06Z</time>
      </trkpt>
      <trkpt lat="42.97351" lon="17.23841">
        <ele>113</ele>
        <time>2016-07-15T15:28:06Z</time>
      </trkpt>
      <trkpt lat="42.9735" lon="17.23851">
        <ele>113</ele>
        <time>2016-07-15T15:30:06Z</time>
      </trkpt>
      <trkpt lat="42.97348" lon="17.23864">
        <ele>114</ele>
        <time>2016-07-15T15:32:06Z</time>
      </trkpt>
      <trkpt lat="42.97347" lon="17.23876">
        <ele>115</ele>
        <time>2016-07-15T15:34:06Z</time>
      </trkpt>
      <trkpt lat="42.97346" lon="17.23888">
        <ele>116</ele>
        <time>2016-07-15T15:36:06Z</time>
      </trkpt>
      <trkpt lat="42.97346" lon="17.23906">
        <ele>117</ele>
        <time>2016-07-15T15:38:06Z</time>
      </trkpt>
      <trkpt lat="42.97346" lon="17.2392">
        <ele>119</ele>
        <time>2016-07-15T15:40:06Z</time>
      </trkpt>
      <trkpt lat="42.97347" lon="17.23937">
        <ele>120</ele>
        <time>2016-07-15T15:42:06Z</time>
      </trkpt>
      <trkpt lat="42.97348" lon="17.23952">
        <ele>122</ele>
        <time>2016-07-15T15:44:06Z</time>
      </trkpt>
      <trkpt lat="42.97349" lon="17.23971">
        <ele>124</ele>
        <time>2016-07-15T15:46:06Z</time>
      </trkpt>
      <trkpt lat="42.97351" lon="17.23985">
        <ele>125</ele>
        <time>2016-07-15T15:48:06Z</time>
      </trkpt>
      <trkpt lat="42.97354" lon="17.24">
        <ele>127</ele>
        <time>2016-07-15T15:50:06Z</time>
      </trkpt>
      <trkpt lat="42.97356" lon="17.2401">
        <ele>129</ele>
        <time>2016-07-15T15:52:06Z</time>
      </trkpt>
      <trkpt lat="42.97358" lon="17.2402">
        <ele>131</ele>
        <time>2016-07-15T15:54:06Z</time>
      </trkpt>
      <trkpt lat="42.97362" lon="17.24033">
        <ele>133</ele>
        <time>2016-07-15T15:56:06Z</time>
      </trkpt>
      <trkpt lat="42.97366" lon="17.24048">
        <ele>135</ele>
        <time>2016-07-15T15:58:06Z</time>
      </trkpt>
      <trkpt lat="42.97368" lon="17.24058">
        <ele>137</ele>
        <time>2016-07-15T16:00:06Z</time>
      </trkpt>
      <trkpt lat="42.9737" lon="17.24068">
        <ele>138</ele>
        <time>2016-07-15T16:02:06Z</time>
      </trkpt>
      <trkpt lat="42.97372" lon="17.24077">
        <ele>139</ele>
        <time>2016-07-15T16:04:06Z</time>
      </trkpt>
      <trkpt lat="42.97372" lon="17.24081">
        <ele>139</ele>
        <time>2016-07-15T16:06:06Z</time>
      </trkpt>
      <trkpt lat="42.97372" lon="17.24086">
        <ele>140</ele>
        <time>2016-07-15T16:08:06Z</time>
      </trkpt>
      <trkpt lat="42.97371" lon="17.24093">
        <ele>141</ele>
        <time>2016-07-15T16:10:06Z</time>
      </trkpt>
      <trkpt lat="42.9737" lon="17.241">
        <ele>141</ele>
        <time>2016-07-15T16:12:06Z</time>
      </trkpt>
      <trkpt lat="42.97367" lon="17.24105">
        <ele>141</ele>
        <time>2016-07-15T16:14:06Z</time>
      </trkpt>
      <trkpt lat="42.97363" lon="17.24111">
        <ele>142</ele>
        <time>2016-07-15T16:16:06Z</time>
      </trkpt>
      <trkpt lat="42.97355" lon="17.24117">
        <ele>141</ele>
        <time>2016-07-15T16:18:06Z</time>
      </trkpt>
      <trkpt lat="42.97348" lon="17.24119">
        <ele>141</ele>
        <time>2016-07-15T16:20:06Z</time>
      </trkpt>
      <trkpt lat="42.97342" lon="17.2412">
        <ele>140</ele>
        <time>2016-07-15T16:22:06Z</time>
      </trkpt>
      <trkpt lat="42.97336" lon="17.24118">
        <ele>139</ele>
        <time>2016-07-15T16:24:06Z</time>
      </trkpt>
      <trkpt lat="42.9733" lon="17.24113">
        <ele>138</ele>
        <time>2016-07-15T16:26:06Z</time>
      </trkpt>
      <trkpt lat="42.97324" lon="17.24103">
        <ele>137</ele>
        <time>2016-07-15T16:28:06Z</time>
      </trkpt>
      <trkpt lat="42.97317" lon="17.2409">
        <ele>136</ele>
        <time>2016-07-15T16:30:06Z</time>
      </trkpt>
      <trkpt lat="42.97311" lon="17.2408">
        <ele>134</ele>
        <time>2016-07-15T16:32:06Z</time>
      </trkpt>
      <trkpt lat="42.97304" lon="17.24071">
        <ele>134</ele>
        <time>2016-07-15T16:34:06Z</time>
      </trkpt>
      <trkpt lat="42.97296" lon="17.24064">
        <ele>133</ele>
        <time>2016-07-15T16:36:06Z</time>
      </trkpt>
      <trkpt lat="42.97291" lon="17.24061">
        <ele>133</ele>
        <time>2016-07-15T16:38:06Z</time>
      </trkpt>
      <trkpt lat="42.97284" lon="17.24059">
        <ele>133</ele>
        <time>2016-07-15T16:40:06Z</time>
      </trkpt>
      <trkpt lat="42.97275" lon="17.24056">
        <ele>133</ele>
        <time>2016-07-15T16:42:06Z</time>
      </trkpt>
      <trkpt lat="42.97266" lon="17.24055">
        <ele>133</ele>
        <time>2016-07-15T16:44:06Z</time>
      </trkpt>
      <trkpt lat="42.97259" lon="17.24055">
        <ele>134</ele>
        <time>2016-07-15T16:46:06Z</time>
      </trkpt>
      <trkpt lat="42.97253" lon="17.24056">
        <ele>135</ele>
        <time>2016-07-15T16:48:06Z</time>
      </trkpt>
      <trkpt lat="42.97244" lon="17.24059">
        <ele>135</ele>
        <time>2016-07-15T16:50:06Z</time>
      </trkpt>
      <trkpt lat="42.97237" lon="17.24064">
        <ele>135</ele>
        <time>2016-07-15T16:52:06Z</time>
      </trkpt>
      <trkpt lat="42.9723" lon="17.24068">
        <ele>135</ele>
        <time>2016-07-15T16:54:06Z</time>
      </trkpt>
      <trkpt lat="42.97223" lon="17.24074">
        <ele>136</ele>
        <time>2016-07-15T16:56:06Z</time>
      </trkpt>
      <trkpt lat="42.97215" lon="17.24082">
        <ele>138</ele>
        <time>2016-07-15T16:58:06Z</time>
      </trkpt>
      <trkpt lat="42.97203" lon="17.24097">
        <ele>140</ele>
        <time>2016-07-15T17:00:06Z</time>
      </trkpt>
      <trkpt lat="42.97196" lon="17.24105">
        <ele>142</ele>
        <time>2016-07-15T17:02:06Z</time>
      </trkpt>
      <trkpt lat="42.97187" lon="17.24117">
        <ele>144</ele>
        <time>2016-07-15T17:04:06Z</time>
      </trkpt>
      <trkpt lat="42.9718" lon="17.24124">
        <ele>146</ele>
        <time>2016-07-15T17:06:06Z</time>
      </trkpt>
      <trkpt lat="42.97171" lon="17.24133">
        <ele>148</ele>
        <time>2016-07-15T17:08:06Z</time>
      </trkpt>
      <trkpt lat="42.97162" lon="17.24141">
        <ele>149</ele>
        <time>2016-07-15T17:10:06Z</time>
      </trkpt>
      <trkpt lat="42.97148" lon="17.24152">
        <ele>149</ele>
        <time>2016-07-15T17:12:06Z</time>
      </trkpt>
      <trkpt lat="42.97137" lon="17.2416">
        <ele>149</ele>
        <time>2016-07-15T17:14:06Z</time>
      </trkpt>
      <trkpt lat="42.97126" lon="17.24169">
        <ele>149</ele>
        <time>2016-07-15T17:16:06Z</time>
      </trkpt>
      <trkpt lat="42.97112" lon="17.24183">
        <ele>150</ele>
        <time>2016-07-15T17:18:06Z</time>
      </trkpt>
      <trkpt lat="42.97103" lon="17.24192">
        <ele>151</ele>
        <time>2016-07-15T17:20:06Z</time>
      </trkpt>
      <trkpt lat="42.97092" lon="17.24206">
        <ele>153</ele>
        <time>2016-07-15T17:22:06Z</time>
      </trkpt>
      <trkpt lat="42.97065" lon="17.2424">
        <ele>156</ele>
        <time>2016-07-15T17:24:06Z</time>
      </trkpt>
      <trkpt lat="42.97053" lon="17.2426">
        <ele>157</ele>
        <time>2016-07-15T17:26:06Z</time>
      </trkpt>
      <trkpt lat="42.97043" lon="17.24276">
        <ele>157</ele>
        <time>2016-07-15T17:28:06Z</time>
      </trkpt>
      <trkpt lat="42.97036" lon="17.24289">
        <ele>157</ele>
        <time>2016-07-15T17:30:06Z</time>
      </trkpt>
      <trkpt lat="42.97032" lon="17.24296">
        <ele>157</ele>
        <time>2016-07-15T17:32:06Z</time>
      </trkpt>
      <trkpt lat="42.97028" lon="17.24304">
        <ele>158</ele>
        <time>2016-07-15T17:34:06Z</time>
      </trkpt>
      <trkpt lat="42.97025" lon="17.24311">
        <ele>158</ele>
        <time>2016-07-15T17:36:06Z</time>
      </trkpt>
      <trkpt lat="42.97023" lon="17.24319">
        <ele>159</ele>
        <time>2016-07-15T17:38:06Z</time>
      </trkpt>
      <trkpt lat="42.97022" lon="17.24324">
        <ele>160</ele>
        <time>2016-07-15T17:40:06Z</time>
      </trkpt>
      <trkpt lat="42.97022" lon="17.24329">
        <ele>161</ele>
        <time>2016-07-15T17:42:06Z</time>
      </trkpt>
      <trkpt lat="42.97022" lon="17.24335">
        <ele>162</ele>
        <time>2016-07-15T17:44:06Z</time>
      </trkpt>
      <trkpt lat="42.97023" lon="17.24342">
        <ele>162</ele>
        <time>2016-07-15T17:46:06Z</time>
      </trkpt>
      <trkpt lat="42.97025" lon="17.24349">
        <ele>163</ele>
        <time>2016-07-15T17:48:06Z</time>
      </trkpt>
      <trkpt lat="42.97027" lon="17.24356">
        <ele>163</ele>
        <time>2016-07-15T17:50:06Z</time>
      </trkpt>
      <trkpt lat="42.9703" lon="17.24361">
        <ele>164</ele>
        <time>2016-07-15T17:52:06Z</time>
      </trkpt>
      <trkpt lat="42.97033" lon="17.24364">
        <ele>165</ele>
        <time>2016-07-15T17:54:06Z</time>
      </trkpt>
      <trkpt lat="42.97035" lon="17.24367">
        <ele>166</ele>
        <time>2016-07-15T17:56:06Z</time>
      </trkpt>
      <trkpt lat="42.97039" lon="17.2437">
        <ele>167</ele>
        <time>2016-07-15T17:58:06Z</time>
      </trkpt>
      <trkpt lat="42.97048" lon="17.24375">
        <ele>169</ele>
        <time>2016-07-15T18:00:06Z</time>
      </trkpt>
      <trkpt lat="42.97054" lon="17.24378">
        <ele>170</ele>
        <time>2016-07-15T18:02:06Z</time>
      </trkpt>
      <trkpt lat="42.97059" lon="17.24381">
        <ele>171</ele>
        <time>2016-07-15T18:04:06Z</time>
      </trkpt>
      <trkpt lat="42.97062" lon="17.24383">
        <ele>172</ele>
        <time>2016-07-15T18:06:06Z</time>
      </trkpt>
      <trkpt lat="42.97065" lon="17.24385">
        <ele>173</ele>
        <time>2016-07-15T18:08:06Z</time>
      </trkpt>
      <trkpt lat="42.9707" lon="17.24389">
        <ele>174</ele>
        <time>2016-07-15T18:10:06Z</time>
      </trkpt>
      <trkpt lat="42.97076" lon="17.24394">
        <ele>175</ele>
        <time>2016-07-15T18:12:06Z</time>
      </trkpt>
      <trkpt lat="42.97078" lon="17.24397">
        <ele>176</ele>
        <time>2016-07-15T18:14:06Z</time>
      </trkpt>
      <trkpt lat="42.97081" lon="17.24401">
        <ele>176</ele>
        <time>2016-07-15T18:16:06Z</time>
      </trkpt>
      <trkpt lat="42.97084" lon="17.24405">
        <ele>177</ele>
        <time>2016-07-15T18:18:06Z</time>
      </trkpt>
      <trkpt lat="42.97089" lon="17.24412">
        <ele>178</ele>
        <time>2016-07-15T18:20:06Z</time>
      </trkpt>
      <trkpt lat="42.97093" lon="17.24423">
        <ele>180</ele>
        <time>2016-07-15T18:22:06Z</time>
      </trkpt>
      <trkpt lat="42.97096" lon="17.24432">
        <ele>181</ele>
        <time>2016-07-15T18:24:06Z</time>
      </trkpt>
      <trkpt lat="42.97098" lon="17.24437">
        <ele>182</ele>
        <time>2016-07-15T18:26:06Z</time>
      </trkpt>
      <trkpt lat="42.97099" lon="17.24442">
        <ele>182</ele>
        <time>2016-07-15T18:28:06Z</time>
      </trkpt>
      <trkpt lat="42.971" lon="17.24451">
        <ele>183</ele>
        <time>2016-07-15T18:30:06Z</time>
      </trkpt>
      <trkpt lat="42.97101" lon="17.24459">
        <ele>184</ele>
        <time>2016-07-15T18:32:06Z</time>
      </trkpt>
      <trkpt lat="42.97101" lon="17.24467">
        <ele>184</ele>
        <time>2016-07-15T18:34:06Z</time>
      </trkpt>
      <trkpt lat="42.97101" lon="17.24476">
        <ele>185</ele>
        <time>2016-07-15T18:36:06Z</time>
      </trkpt>
      <trkpt lat="42.971" lon="17.24485">
        <ele>185</ele>
        <time>2016-07-15T18:38:06Z</time>
      </trkpt>
      <trkpt lat="42.97099" lon="17.24492">
        <ele>185</ele>
        <time>2016-07-15T18:40:06Z</time>
      </trkpt>
      <trkpt lat="42.97097" lon="17.24501">
        <ele>185</ele>
        <time>2016-07-15T18:42:06Z</time>
      </trkpt>
      <trkpt lat="42.97094" lon="17.24514">
        <ele>186</ele>
        <time>2016-07-15T18:44:06Z</time>
      </trkpt>
      <trkpt lat="42.9709" lon="17.24532">
        <ele>187</ele>
        <time>2016-07-15T18:46:06Z</time>
      </trkpt>
      <trkpt lat="42.97087" lon="17.24545">
        <ele>188</ele>
        <time>2016-07-15T18:48:06Z</time>
      </trkpt>
      <trkpt lat="42.97085" lon="17.24552">
        <ele>189</ele>
        <time>2016-07-15T18:50:06Z</time>
      </trkpt>
      <trkpt lat="42.97063" lon="17.24639">
        <ele>194</ele>
        <time>2016-07-15T18:52:06Z</time>
      </trkpt>
      <trkpt lat="42.97025" lon="17.24799">
        <ele>205</ele>
        <time>2016-07-15T18:54:06Z</time>
      </trkpt>
      <trkpt lat="42.97019" lon="17.24824">
        <ele>206</ele>
        <time>2016-07-15T18:56:06Z</time>
      </trkpt>
      <trkpt lat="42.97016" lon="17.24841">
        <ele>207</ele>
        <time>2016-07-15T18:58:06Z</time>
      </trkpt>
      <trkpt lat="42.97012" lon="17.24859">
        <ele>208</ele>
        <time>2016-07-15T19:00:06Z</time>
      </trkpt>
      <trkpt lat="42.9701" lon="17.24879">
        <ele>209</ele>
        <time>2016-07-15T19:02:06Z</time>
      </trkpt>
      <trkpt lat="42.97009" lon="17.24896">
        <ele>211</ele>
        <time>2016-07-15T19:04:06Z</time>
      </trkpt>
      <trkpt lat="42.97008" lon="17.24928">
        <ele>215</ele>
        <time>2016-07-15T19:06:06Z</time>
      </trkpt>
      <trkpt lat="42.97006" lon="17.24943">
        <ele>217</ele>
        <time>2016-07-15T19:08:06Z</time>
      </trkpt>
      <trkpt lat="42.97004" lon="17.24955">
        <ele>217</ele>
        <time>2016-07-15T19:10:06Z</time>
      </trkpt>
      <trkpt lat="42.97001" lon="17.24967">
        <ele>218</ele>
        <time>2016-07-15T19:12:06Z</time>
      </trkpt>
      <trkpt lat="42.96997" lon="17.24982">
        <ele>218</ele>
        <time>2016-07-15T19:14:06Z</time>
      </trkpt>
      <trkpt lat="42.96986" lon="17.25018">
        <ele>219</ele>
        <time>2016-07-15T19:16:06Z</time>
      </trkpt>
      <trkpt lat="42.96982" lon="17.25034">
        <ele>220</ele>
        <time>2016-07-15T19:18:06Z</time>
      </trkpt>
      <trkpt lat="42.96979" lon="17.2505">
        <ele>221</ele>
        <time>2016-07-15T19:20:06Z</time>
      </trkpt>
      <trkpt lat="42.96976" lon="17.2507">
        <ele>223</ele>
        <time>2016-07-15T19:22:06Z</time>
      </trkpt>
      <trkpt lat="42.96975" lon="17.25091">
        <ele>225</ele>
        <time>2016-07-15T19:24:06Z</time>
      </trkpt>
      <trkpt lat="42.96975" lon="17.25118">
        <ele>227</ele>
        <time>2016-07-15T19:26:06Z</time>
      </trkpt>
      <trkpt lat="42.96976" lon="17.25152">
        <ele>231</ele>
        <time>2016-07-15T19:28:06Z</time>
      </trkpt>
      <trkpt lat="42.96977" lon="17.25201">
        <ele>237</ele>
        <time>2016-07-15T19:30:06Z</time>
      </trkpt>
      <trkpt lat="42.96977" lon="17.25207">
        <ele>238</ele>
        <time>2016-07-15T19:32:06Z</time>
      </trkpt>
      <trkpt lat="42.96976" lon="17.25212">
        <ele>238</ele>
        <time>2016-07-15T19:34:06Z</time>
      </trkpt>
      <trkpt lat="42.96976" lon="17.25216">
        <ele>239</ele>
        <time>2016-07-15T19:36:06Z</time>
      </trkpt>
      <trkpt lat="42.96975" lon="17.25219">
        <ele>239</ele>
        <time>2016-07-15T19:38:06Z</time>
      </trkpt>
      <trkpt lat="42.96974" lon="17.25225">
        <ele>240</ele>
        <time>2016-07-15T19:40:06Z</time>
      </trkpt>
      <trkpt lat="42.96972" lon="17.25231">
        <ele>240</ele>
        <time>2016-07-15T19:42:06Z</time>
      </trkpt>
      <trkpt lat="42.9697" lon="17.25236">
        <ele>240</ele>
        <time>2016-07-15T19:44:06Z</time>
      </trkpt>
      <trkpt lat="42.96968" lon="17.25242">
        <ele>240</ele>
        <time>2016-07-15T19:46:06Z</time>
      </trkpt>
      <trkpt lat="42.96964" lon="17.25249">
        <ele>240</ele>
        <time>2016-07-15T19:48:06Z</time>
      </trkpt>
      <trkpt lat="42.9696" lon="17.25255">
        <ele>240</ele>
        <time>2016-07-15T19:50:06Z</time>
      </trkpt>
      <trkpt lat="42.96953" lon="17.25262">
        <ele>240</ele>
        <time>2016-07-15T19:52:06Z</time>
      </trkpt>
      <trkpt lat="42.96939" lon="17.25274">
        <ele>240</ele>
        <time>2016-07-15T19:54:06Z</time>
      </trkpt>
      <trkpt lat="42.9692" lon="17.25289">
        <ele>239</ele>
        <time>2016-07-15T19:56:06Z</time>
      </trkpt>
      <trkpt lat="42.96913" lon="17.25294">
        <ele>240</ele>
        <time>2016-07-15T19:58:06Z</time>
      </trkpt>
      <trkpt lat="42.96906" lon="17.25301">
        <ele>240</ele>
        <time>2016-07-15T20:00:06Z</time>
      </trkpt>
      <trkpt lat="42.96892" lon="17.25314">
        <ele>241</ele>
        <time>2016-07-15T20:02:06Z</time>
      </trkpt>
      <trkpt lat="42.96868" lon="17.25339">
        <ele>243</ele>
        <time>2016-07-15T20:04:06Z</time>
      </trkpt>
      <trkpt lat="42.96856" lon="17.25353">
        <ele>244</ele>
        <time>2016-07-15T20:06:06Z</time>
      </trkpt>
      <trkpt lat="42.96848" lon="17.25364">
        <ele>244</ele>
        <time>2016-07-15T20:08:06Z</time>
      </trkpt>
      <trkpt lat="42.96844" lon="17.2537">
        <ele>245</ele>
        <time>2016-07-15T20:10:06Z</time>
      </trkpt>
      <trkpt lat="42.96841" lon="17.25376">
        <ele>245</ele>
        <time>2016-07-15T20:12:06Z</time>
      </trkpt>
      <trkpt lat="42.96838" lon="17.25383">
        <ele>246</ele>
        <time>2016-07-15T20:14:06Z</time>
      </trkpt>
      <trkpt lat="42.96834" lon="17.25394">
        <ele>247</ele>
        <time>2016-07-15T20:16:06Z</time>
      </trkpt>
      <trkpt lat="42.96832" lon="17.25403">
        <ele>248</ele>
        <time>2016-07-15T20:18:06Z</time>
      </trkpt>
      <trkpt lat="42.96831" lon="17.25412">
        <ele>250</ele>
        <time>2016-07-15T20:20:06Z</time>
      </trkpt>
      <trkpt lat="42.9683" lon="17.2542">
        <ele>250</ele>
        <time>2016-07-15T20:22:06Z</time>
      </trkpt>
      <trkpt lat="42.9683" lon="17.2543">
        <ele>250</ele>
        <time>2016-07-15T20:24:06Z</time>
      </trkpt>
      <trkpt lat="42.9683" lon="17.2544">
        <ele>251</ele>
        <time>2016-07-15T20:26:06Z</time>
      </trkpt>
      <trkpt lat="42.96832" lon="17.25451">
        <ele>252</ele>
        <time>2016-07-15T20:28:06Z</time>
      </trkpt>
      <trkpt lat="42.96835" lon="17.25463">
        <ele>254</ele>
        <time>2016-07-15T20:30:06Z</time>
      </trkpt>
      <trkpt lat="42.96836" lon="17.25469">
        <ele>255</ele>
        <time>2016-07-15T20:32:06Z</time>
      </trkpt>
      <trkpt lat="42.96837" lon="17.25477">
        <ele>256</ele>
        <time>2016-07-15T20:34:06Z</time>
      </trkpt>
      <trkpt lat="42.96839" lon="17.25488">
        <ele>258</ele>
        <time>2016-07-15T20:36:06Z</time>
      </trkpt>
      <trkpt lat="42.9684" lon="17.25497">
        <ele>259</ele>
        <time>2016-07-15T20:38:06Z</time>
      </trkpt>
      <trkpt lat="42.96841" lon="17.2551">
        <ele>259</ele>
        <time>2016-07-15T20:40:06Z</time>
      </trkpt>
      <trkpt lat="42.96843" lon="17.25536">
        <ele>261</ele>
        <time>2016-07-15T20:42:06Z</time>
      </trkpt>
      <trkpt lat="42.96846" lon="17.25566">
        <ele>264</ele>
        <time>2016-07-15T20:44:06Z</time>
      </trkpt>
      <trkpt lat="42.96847" lon="17.25585">
        <ele>265</ele>
        <time>2016-07-15T20:46:06Z</time>
      </trkpt>
      <trkpt lat="42.96848" lon="17.25597">
        <ele>265</ele>
        <time>2016-07-15T20:48:06Z</time>
      </trkpt>
      <trkpt lat="42.96849" lon="17.25616">
        <ele>264</ele>
        <time>2016-07-15T20:50:06Z</time>
      </trkpt>
      <trkpt lat="42.96851" lon="17.25634">
        <ele>265</ele>
        <time>2016-07-15T20:52:06Z</time>
      </trkpt>
      <trkpt lat="42.96853" lon="17.2565">
        <ele>266</ele>
        <time>2016-07-15T20:54:06Z</time>
      </trkpt>
      <trkpt lat="42.9686" lon="17.25678">
        <ele>269</ele>
        <time>2016-07-15T20:56:06Z</time>
      </trkpt>
      <trkpt lat="42.96866" lon="17.257">
        <ele>273</ele>
        <time>2016-07-15T20:58:06Z</time>
      </trkpt>
      <trkpt lat="42.96868" lon="17.2571">
        <ele>274</ele>
        <time>2016-07-15T21:00:06Z</time>
      </trkpt>
      <trkpt lat="42.96869" lon="17.25716">
        <ele>274</ele>
        <time>2016-07-15T21:02:06Z</time>
      </trkpt>
      <trkpt lat="42.96869" lon="17.25721">
        <ele>274</ele>
        <time>2016-07-15T21:04:06Z</time>
      </trkpt>
      <trkpt lat="42.96866" lon="17.25743">
        <ele>270</ele>
        <time>2016-07-15T21:06:06Z</time>
      </trkpt>
      <trkpt lat="42.96865" lon="17.25758">
        <ele>269</ele>
        <time>2016-07-15T21:08:06Z</time>
      </trkpt>
      <trkpt lat="42.96865" lon="17.25774">
        <ele>268</ele>
        <time>2016-07-15T21:10:06Z</time>
      </trkpt>
      <trkpt lat="42.96866" lon="17.25788">
        <ele>268</ele>
        <time>2016-07-15T21:12:06Z</time>
      </trkpt>
      <trkpt lat="42.96867" lon="17.25803">
        <ele>269</ele>
        <time>2016-07-15T21:14:06Z</time>
      </trkpt>
      <trkpt lat="42.96869" lon="17.25812">
        <ele>270</ele>
        <time>2016-07-15T21:16:06Z</time>
      </trkpt>
      <trkpt lat="42.96872" lon="17.25822">
        <ele>272</ele>
        <time>2016-07-15T21:18:06Z</time>
      </trkpt>
      <trkpt lat="42.96877" lon="17.25831">
        <ele>275</ele>
        <time>2016-07-15T21:20:06Z</time>
      </trkpt>
      <trkpt lat="42.96881" lon="17.25838">
        <ele>277</ele>
        <time>2016-07-15T21:22:06Z</time>
      </trkpt>
      <trkpt lat="42.96882" lon="17.2584">
        <ele>277</ele>
        <time>2016-07-15T21:24:06Z</time>
      </trkpt>
      <trkpt lat="42.96884" lon="17.25844">
        <ele>278</ele>
        <time>2016-07-15T21:26:06Z</time>
      </trkpt>
      <trkpt lat="42.96885" lon="17.25846">
        <ele>278</ele>
        <time>2016-07-15T21:28:06Z</time>
      </trkpt>
      <trkpt lat="42.96887" lon="17.2585">
        <ele>278</ele>
        <time>2016-07-15T21:30:06Z</time>
      </trkpt>
      <trkpt lat="42.96889" lon="17.25857">
        <ele>278</ele>
        <time>2016-07-15T21:32:06Z</time>
      </trkpt>
      <trkpt lat="42.9689" lon="17.25861">
        <ele>278</ele>
        <time>2016-07-15T21:34:06Z</time>
      </trkpt>
      <trkpt lat="42.96891" lon="17.25865">
        <ele>278</ele>
        <time>2016-07-15T21:36:06Z</time>
      </trkpt>
      <trkpt lat="42.96891" lon="17.25868">
        <ele>277</ele>
        <time>2016-07-15T21:38:06Z</time>
      </trkpt>
      <trkpt lat="42.96893" lon="17.25877">
        <ele>276</ele>
        <time>2016-07-15T21:40:06Z</time>
      </trkpt>
      <trkpt lat="42.96894" lon="17.25883">
        <ele>276</ele>
        <time>2016-07-15T21:42:06Z</time>
      </trkpt>
      <trkpt lat="42.96895" lon="17.25886">
        <ele>276</ele>
        <time>2016-07-15T21:44:06Z</time>
      </trkpt>
      <trkpt lat="42.96896" lon="17.2589">
        <ele>275</ele>
        <time>2016-07-15T21:46:06Z</time>
      </trkpt>
      <trkpt lat="42.96898" lon="17.25893">
        <ele>276</ele>
        <time>2016-07-15T21:48:06Z</time>
      </trkpt>
      <trkpt lat="42.969" lon="17.25897">
        <ele>277</ele>
        <time>2016-07-15T21:50:06Z</time>
      </trkpt>
      <trkpt lat="42.96904" lon="17.25904">
        <ele>278</ele>
        <time>2016-07-15T21:52:06Z</time>
      </trkpt>
      <trkpt lat="42.96911" lon="17.25913">
        <ele>281</ele>
        <time>2016-07-15T21:54:06Z</time>
      </trkpt>
      <trkpt lat="42.96913" lon="17.25917">
        <ele>281</ele>
        <time>2016-07-15T21:56:06Z</time>
      </trkpt>
      <trkpt lat="42.96916" lon="17.25922">
        <ele>282</ele>
        <time>2016-07-15T21:58:06Z</time>
      </trkpt>
      <trkpt lat="42.96919" lon="17.25929">
        <ele>280</ele>
        <time>2016-07-15T22:00:06Z</time>
      </trkpt>
      <trkpt lat="42.96922" lon="17.25938">
        <ele>278</ele>
        <time>2016-07-15T22:02:06Z</time>
      </trkpt>
      <trkpt lat="42.96925" lon="17.25946">
        <ele>276</ele>
        <time>2016-07-15T22:04:06Z</time>
      </trkpt>
      <trkpt lat="42.96927" lon="17.25953">
        <ele>274</ele>
        <time>2016-07-15T22:06:06Z</time>
      </trkpt>
      <trkpt lat="42.96929" lon="17.25957">
        <ele>273</ele>
        <time>2016-07-15T22:08:06Z</time>
      </trkpt>
      <trkpt lat="42.96931" lon="17.2596">
        <ele>273</ele>
        <time>2016-07-15T22:10:06Z</time>
      </trkpt>
      <trkpt lat="42.96934" lon="17.25964">
        <ele>272</ele>
        <time>2016-07-15T22:12:06Z</time>
      </trkpt>
      <trkpt lat="42.96942" lon="17.25972">
        <ele>272</ele>
        <time>2016-07-15T22:14:06Z</time>
      </trkpt>
      <trkpt lat="42.96958" lon="17.25987">
        <ele>271</ele>
        <time>2016-07-15T22:16:06Z</time>
      </trkpt>
      <trkpt lat="42.96968" lon="17.25993">
        <ele>271</ele>
        <time>2016-07-15T22:18:06Z</time>
      </trkpt>
      <trkpt lat="42.96975" lon="17.25993">
        <ele>273</ele>
        <time>2016-07-15T22:20:06Z</time>
      </trkpt>
      <trkpt lat="42.96983" lon="17.25992">
        <ele>276</ele>
        <time>2016-07-15T22:22:06Z</time>
      </trkpt>
      <trkpt lat="42.9699" lon="17.25989">
        <ele>279</ele>
        <time>2016-07-15T22:24:06Z</time>
      </trkpt>
      <trkpt lat="42.97003" lon="17.25981">
        <ele>286</ele>
        <time>2016-07-15T22:26:06Z</time>
      </trkpt>
      <trkpt lat="42.97009" lon="17.25979">
        <ele>287</ele>
        <time>2016-07-15T22:28:06Z</time>
      </trkpt>
      <trkpt lat="42.97014" lon="17.25978">
        <ele>288</ele>
        <time>2016-07-15T22:30:06Z</time>
      </trkpt>
      <trkpt lat="42.97018" lon="17.25978">
        <ele>288</ele>
        <time>2016-07-15T22:32:06Z</time>
      </trkpt>
      <trkpt lat="42.97023" lon="17.25977">
        <ele>289</ele>
        <time>2016-07-15T22:34:06Z</time>
      </trkpt>
      <trkpt lat="42.97028" lon="17.25977">
        <ele>290</ele>
        <time>2016-07-15T22:36:06Z</time>
      </trkpt>
      <trkpt lat="42.97036" lon="17.25977">
        <ele>290</ele>
        <time>2016-07-15T22:38:06Z</time>
      </trkpt>
      <trkpt lat="42.97041" lon="17.25977">
        <ele>291</ele>
        <time>2016-07-15T22:40:06Z</time>
      </trkpt>
      <trkpt lat="42.97045" lon="17.25977">
        <ele>291</ele>
        <time>2016-07-15T22:42:06Z</time>
      </trkpt>
      <trkpt lat="42.97051" lon="17.25976">
        <ele>292</ele>
        <time>2016-07-15T22:44:06Z</time>
      </trkpt>
      <trkpt lat="42.97065" lon="17.25971">
        <ele>295</ele>
        <time>2016-07-15T22:46:06Z</time>
      </trkpt>
      <trkpt lat="42.97075" lon="17.25968">
        <ele>296</ele>
        <time>2016-07-15T22:48:06Z</time>
      </trkpt>
      <trkpt lat="42.9708" lon="17.25966">
        <ele>297</ele>
        <time>2016-07-15T22:50:06Z</time>
      </trkpt>
      <trkpt lat="42.97085" lon="17.25965">
        <ele>298</ele>
        <time>2016-07-15T22:52:06Z</time>
      </trkpt>
      <trkpt lat="42.97099" lon="17.25968">
        <ele>299</ele>
        <time>2016-07-15T22:54:06Z</time>
      </trkpt>
      <trkpt lat="42.97107" lon="17.25974">
        <ele>300</ele>
        <time>2016-07-15T22:56:06Z</time>
      </trkpt>
      <trkpt lat="42.97115" lon="17.25983">
        <ele>300</ele>
        <time>2016-07-15T22:58:06Z</time>
      </trkpt>
      <trkpt lat="42.97121" lon="17.25996">
        <ele>300</ele>
        <time>2016-07-15T23:00:06Z</time>
      </trkpt>
      <trkpt lat="42.97128" lon="17.26019">
        <ele>302</ele>
        <time>2016-07-15T23:02:06Z</time>
      </trkpt>
      <trkpt lat="42.97133" lon="17.26043">
        <ele>304</ele>
        <time>2016-07-15T23:04:06Z</time>
      </trkpt>
      <trkpt lat="42.97136" lon="17.26052">
        <ele>305</ele>
        <time>2016-07-15T23:06:06Z</time>
      </trkpt>
      <trkpt lat="42.97139" lon="17.26061">
        <ele>305</ele>
        <time>2016-07-15T23:08:06Z</time>
      </trkpt>
      <trkpt lat="42.97143" lon="17.26067">
        <ele>306</ele>
        <time>2016-07-15T23:10:06Z</time>
      </trkpt>
      <trkpt lat="42.97147" lon="17.26072">
        <ele>307</ele>
        <time>2016-07-15T23:12:06Z</time>
      </trkpt>
      <trkpt lat="42.97152" lon="17.26076">
        <ele>308</ele>
        <time>2016-07-15T23:14:06Z</time>
      </trkpt>
      <trkpt lat="42.97159" lon="17.26079">
        <ele>309</ele>
        <time>2016-07-15T23:16:06Z</time>
      </trkpt>
      <trkpt lat="42.97166" lon="17.2608">
        <ele>310</ele>
        <time>2016-07-15T23:18:06Z</time>
      </trkpt>
      <trkpt lat="42.97171" lon="17.26079">
        <ele>311</ele>
        <time>2016-07-15T23:20:06Z</time>
      </trkpt>
      <trkpt lat="42.97177" lon="17.26078">
        <ele>311</ele>
        <time>2016-07-15T23:22:06Z</time>
      </trkpt>
      <trkpt lat="42.97182" lon="17.26076">
        <ele>312</ele>
        <time>2016-07-15T23:24:06Z</time>
      </trkpt>
      <trkpt lat="42.97186" lon="17.26073">
        <ele>313</ele>
        <time>2016-07-15T23:26:06Z</time>
      </trkpt>
      <trkpt lat="42.9719" lon="17.26069">
        <ele>313</ele>
        <time>2016-07-15T23:28:06Z</time>
      </trkpt>
      <trkpt lat="42.97193" lon="17.26064">
        <ele>314</ele>
        <time>2016-07-15T23:30:06Z</time>
      </trkpt>
      <trkpt lat="42.97198" lon="17.26056">
        <ele>315</ele>
        <time>2016-07-15T23:32:06Z</time>
      </trkpt>
      <trkpt lat="42.97204" lon="17.26041">
        <ele>316</ele>
        <time>2016-07-15T23:34:06Z</time>
      </trkpt>
      <trkpt lat="42.97209" lon="17.26025">
        <ele>316</ele>
        <time>2016-07-15T23:36:06Z</time>
      </trkpt>
      <trkpt lat="42.97224" lon="17.2598">
        <ele>319</ele>
        <time>2016-07-15T23:38:06Z</time>
      </trkpt>
      <trkpt lat="42.97229" lon="17.25963">
        <ele>320</ele>
        <time>2016-07-15T23:40:06Z</time>
      </trkpt>
      <trkpt lat="42.97239" lon="17.25931">
        <ele>321</ele>
        <time>2016-07-15T23:42:06Z</time>
      </trkpt>
      <trkpt lat="42.97247" lon="17.25913">
        <ele>322</ele>
        <time>2016-07-15T23:44:06Z</time>
      </trkpt>
      <trkpt lat="42.97254" lon="17.25899">
        <ele>323</ele>
        <time>2016-07-15T23:46:06Z</time>
      </trkpt>
      <trkpt lat="42.97265" lon="17.25885">
        <ele>325</ele>
        <time>2016-07-15T23:48:06Z</time>
      </trkpt>
      <trkpt lat="42.97272" lon="17.25876">
        <ele>326</ele>
        <time>2016-07-15T23:50:06Z</time>
      </trkpt>
      <trkpt lat="42.9728" lon="17.25868">
        <ele>327</ele>
        <time>2016-07-15T23:52:06Z</time>
      </trkpt>
      <trkpt lat="42.97289" lon="17.25864">
        <ele>328</ele>
        <time>2016-07-15T23:54:06Z</time>
      </trkpt>
      <trkpt lat="42.97297" lon="17.25862">
        <ele>329</ele>
        <time>2016-07-15T23:56:06Z</time>
      </trkpt>
      <trkpt lat="42.97306" lon="17.25864">
        <ele>329</ele>
        <time>2016-07-15T23:58:06Z</time>
      </trkpt>
      <trkpt lat="42.97313" lon="17.25866">
        <ele>330</ele>
        <time>2016-07-16T00:00:06Z</time>
      </trkpt>
      <trkpt lat="42.97316" lon="17.25869">
        <ele>330</ele>
        <time>2016-07-16T00:02:06Z</time>
      </trkpt>
      <trkpt lat="42.9732" lon="17.25872">
        <ele>330</ele>
        <time>2016-07-16T00:04:06Z</time>
      </trkpt>
      <trkpt lat="42.97326" lon="17.25881">
        <ele>330</ele>
        <time>2016-07-16T00:06:06Z</time>
      </trkpt>
      <trkpt lat="42.97329" lon="17.25885">
        <ele>330</ele>
        <time>2016-07-16T00:08:06Z</time>
      </trkpt>
      <trkpt lat="42.97333" lon="17.25894">
        <ele>330</ele>
        <time>2016-07-16T00:10:06Z</time>
      </trkpt>
      <trkpt lat="42.97334" lon="17.25899">
        <ele>330</ele>
        <time>2016-07-16T00:12:06Z</time>
      </trkpt>
      <trkpt lat="42.97335" lon="17.25905">
        <ele>330</ele>
        <time>2016-07-16T00:14:06Z</time>
      </trkpt>
      <trkpt lat="42.97336" lon="17.2591">
        <ele>330</ele>
        <time>2016-07-16T00:16:06Z</time>
      </trkpt>
      <trkpt lat="42.97336" lon="17.25916">
        <ele>330</ele>
        <time>2016-07-16T00:18:06Z</time>
      </trkpt>
      <trkpt lat="42.97336" lon="17.25921">
        <ele>330</ele>
        <time>2016-07-16T00:20:06Z</time>
      </trkpt>
      <trkpt lat="42.97335" lon="17.25928">
        <ele>330</ele>
        <time>2016-07-16T00:22:06Z</time>
      </trkpt>
      <trkpt lat="42.97333" lon="17.25934">
        <ele>330</ele>
        <time>2016-07-16T00:24:06Z</time>
      </trkpt>
      <trkpt lat="42.9733" lon="17.25943">
        <ele>331</ele>
        <time>2016-07-16T00:26:06Z</time>
      </trkpt>
      <trkpt lat="42.97328" lon="17.25948">
        <ele>331</ele>
        <time>2016-07-16T00:28:06Z</time>
      </trkpt>
      <trkpt lat="42.9732" lon="17.25963">
        <ele>331</ele>
        <time>2016-07-16T00:30:06Z</time>
      </trkpt>
      <trkpt lat="42.97315" lon="17.25975">
        <ele>331</ele>
        <time>2016-07-16T00:32:06Z</time>
      </trkpt>
      <trkpt lat="42.97311" lon="17.25989">
        <ele>331</ele>
        <time>2016-07-16T00:34:06Z</time>
      </trkpt>
      <trkpt lat="42.9731" lon="17.25999">
        <ele>332</ele>
        <time>2016-07-16T00:36:06Z</time>
      </trkpt>
      <trkpt lat="42.97309" lon="17.2601">
        <ele>332</ele>
        <time>2016-07-16T00:38:06Z</time>
      </trkpt>
      <trkpt lat="42.97311" lon="17.2602">
        <ele>332</ele>
        <time>2016-07-16T00:40:06Z</time>
      </trkpt>
      <trkpt lat="42.97314" lon="17.26036">
        <ele>333</ele>
        <time>2016-07-16T00:42:06Z</time>
      </trkpt>
      <trkpt lat="42.97317" lon="17.26047">
        <ele>333</ele>
        <time>2016-07-16T00:44:06Z</time>
      </trkpt>
      <trkpt lat="42.9732" lon="17.26056">
        <ele>334</ele>
        <time>2016-07-16T00:46:06Z</time>
      </trkpt>
      <trkpt lat="42.97335" lon="17.26103">
        <ele>338</ele>
        <time>2016-07-16T00:48:06Z</time>
      </trkpt>
      <trkpt lat="42.97338" lon="17.26119">
        <ele>339</ele>
        <time>2016-07-16T00:50:06Z</time>
      </trkpt>
      <trkpt lat="42.9734" lon="17.26137">
        <ele>341</ele>
        <time>2016-07-16T00:52:06Z</time>
      </trkpt>
      <trkpt lat="42.9734" lon="17.26155">
        <ele>341</ele>
        <time>2016-07-16T00:54:06Z</time>
      </trkpt>
      <trkpt lat="42.97338" lon="17.26174">
        <ele>342</ele>
        <time>2016-07-16T00:56:06Z</time>
      </trkpt>
      <trkpt lat="42.97335" lon="17.2619">
        <ele>343</ele>
        <time>2016-07-16T00:58:06Z</time>
      </trkpt>
      <trkpt lat="42.97331" lon="17.26204">
        <ele>344</ele>
        <time>2016-07-16T01:00:06Z</time>
      </trkpt>
      <trkpt lat="42.97313" lon="17.26266">
        <ele>347</ele>
        <time>2016-07-16T01:02:06Z</time>
      </trkpt>
      <trkpt lat="42.97299" lon="17.2631">
        <ele>350</ele>
        <time>2016-07-16T01:04:06Z</time>
      </trkpt>
      <trkpt lat="42.97293" lon="17.26328">
        <ele>351</ele>
        <time>2016-07-16T01:06:06Z</time>
      </trkpt>
      <trkpt lat="42.97288" lon="17.2634">
        <ele>352</ele>
        <time>2016-07-16T01:08:06Z</time>
      </trkpt>
      <trkpt lat="42.97272" lon="17.26373">
        <ele>353</ele>
        <time>2016-07-16T01:10:06Z</time>
      </trkpt>
      <trkpt lat="42.97259" lon="17.26401">
        <ele>353</ele>
        <time>2016-07-16T01:12:06Z</time>
      </trkpt>
      <trkpt lat="42.97253" lon="17.26415">
        <ele>354</ele>
        <time>2016-07-16T01:14:06Z</time>
      </trkpt>
      <trkpt lat="42.97248" lon="17.26426">
        <ele>353</ele>
        <time>2016-07-16T01:16:06Z</time>
      </trkpt>
      <trkpt lat="42.97246" lon="17.26431">
        <ele>353</ele>
        <time>2016-07-16T01:18:06Z</time>
      </trkpt>
      <trkpt lat="42.97244" lon="17.26437">
        <ele>353</ele>
        <time>2016-07-16T01:20:06Z</time>
      </trkpt>
      <trkpt lat="42.97241" lon="17.26447">
        <ele>353</ele>
        <time>2016-07-16T01:22:06Z</time>
      </trkpt>
      <trkpt lat="42.97239" lon="17.26459">
        <ele>354</ele>
        <time>2016-07-16T01:24:06Z</time>
      </trkpt>
      <trkpt lat="42.97237" lon="17.26469">
        <ele>354</ele>
        <time>2016-07-16T01:26:06Z</time>
      </trkpt>
      <trkpt lat="42.97236" lon="17.26476">
        <ele>354</ele>
        <time>2016-07-16T01:28:06Z</time>
      </trkpt>
      <trkpt lat="42.97236" lon="17.26482">
        <ele>355</ele>
        <time>2016-07-16T01:30:06Z</time>
      </trkpt>
      <trkpt lat="42.97236" lon="17.26487">
        <ele>355</ele>
        <time>2016-07-16T01:32:06Z</time>
      </trkpt>
      <trkpt lat="42.97236" lon="17.26494">
        <ele>355</ele>
        <time>2016-07-16T01:34:06Z</time>
      </trkpt>
      <trkpt lat="42.97236" lon="17.26502">
        <ele>356</ele>
        <time>2016-07-16T01:36:06Z</time>
      </trkpt>
      <trkpt lat="42.97237" lon="17.26511">
        <ele>356</ele>
        <time>2016-07-16T01:38:06Z</time>
      </trkpt>
      <trkpt lat="42.9724" lon="17.26523">
        <ele>356</ele>
        <time>2016-07-16T01:40:06Z</time>
      </trkpt>
      <trkpt lat="42.97243" lon="17.26535">
        <ele>356</ele>
        <time>2016-07-16T01:42:06Z</time>
      </trkpt>
      <trkpt lat="42.97246" lon="17.26544">
        <ele>356</ele>
        <time>2016-07-16T01:44:06Z</time>
      </trkpt>
      <trkpt lat="42.97248" lon="17.26552">
        <ele>357</ele>
        <time>2016-07-16T01:46:06Z</time>
      </trkpt>
      <trkpt lat="42.97253" lon="17.2656">
        <ele>358</ele>
        <time>2016-07-16T01:48:06Z</time>
      </trkpt>
      <trkpt lat="42.97257" lon="17.26566">
        <ele>359</ele>
        <time>2016-07-16T01:50:06Z</time>
      </trkpt>
      <trkpt lat="42.97261" lon="17.26572">
        <ele>360</ele>
        <time>2016-07-16T01:52:06Z</time>
      </trkpt>
      <trkpt lat="42.97269" lon="17.26583">
        <ele>362</ele>
        <time>2016-07-16T01:54:06Z</time>
      </trkpt>
      <trkpt lat="42.97281" lon="17.26596">
        <ele>365</ele>
        <time>2016-07-16T01:56:06Z</time>
      </trkpt>
      <trkpt lat="42.9729" lon="17.26606">
        <ele>366</ele>
        <time>2016-07-16T01:58:06Z</time>
      </trkpt>
      <trkpt lat="42.97375" lon="17.26696">
        <ele>371</ele>
        <time>2016-07-16T02:00:06Z</time>
      </trkpt>
      <trkpt lat="42.97388" lon="17.26707">
        <ele>371</ele>
        <time>2016-07-16T02:02:06Z</time>
      </trkpt>
      <trkpt lat="42.97395" lon="17.26712">
        <ele>372</ele>
        <time>2016-07-16T02:04:06Z</time>
      </trkpt>
      <trkpt lat="42.97403" lon="17.26717">
        <ele>372</ele>
        <time>2016-07-16T02:06:06Z</time>
      </trkpt>
      <trkpt lat="42.97411" lon="17.2672">
        <ele>372</ele>
        <time>2016-07-16T02:08:06Z</time>
      </trkpt>
      <trkpt lat="42.97424" lon="17.26725">
        <ele>372</ele>
        <time>2016-07-16T02:10:06Z</time>
      </trkpt>
      <trkpt lat="42.97437" lon="17.26728">
        <ele>373</ele>
        <time>2016-07-16T02:12:06Z</time>
      </trkpt>
      <trkpt lat="42.97448" lon="17.26729">
        <ele>374</ele>
        <time>2016-07-16T02:14:06Z</time>
      </trkpt>
      <trkpt lat="42.97466" lon="17.26728">
        <ele>376</ele>
        <time>2016-07-16T02:16:06Z</time>
      </trkpt>
      <trkpt lat="42.97479" lon="17.26725">
        <ele>377</ele>
        <time>2016-07-16T02:18:06Z</time>
      </trkpt>
      <trkpt lat="42.97491" lon="17.2672">
        <ele>380</ele>
        <time>2016-07-16T02:20:06Z</time>
      </trkpt>
      <trkpt lat="42.97499" lon="17.26716">
        <ele>381</ele>
        <time>2016-07-16T02:22:06Z</time>
      </trkpt>
      <trkpt lat="42.97506" lon="17.26712">
        <ele>383</ele>
        <time>2016-07-16T02:24:06Z</time>
      </trkpt>
      <trkpt lat="42.97514" lon="17.26707">
        <ele>384</ele>
        <time>2016-07-16T02:26:06Z</time>
      </trkpt>
      <trkpt lat="42.97522" lon="17.26699">
        <ele>386</ele>
        <time>2016-07-16T02:28:06Z</time>
      </trkpt>
      <trkpt lat="42.97526" lon="17.26697">
        <ele>386</ele>
        <time>2016-07-16T02:30:06Z</time>
      </trkpt>
      <trkpt lat="42.97533" lon="17.26693">
        <ele>387</ele>
        <time>2016-07-16T02:32:06Z</time>
      </trkpt>
      <trkpt lat="42.97539" lon="17.26691">
        <ele>387</ele>
        <time>2016-07-16T02:34:06Z</time>
      </trkpt>
      <trkpt lat="42.97544" lon="17.2669">
        <ele>388</ele>
        <time>2016-07-16T02:36:06Z</time>
      </trkpt>
      <trkpt lat="42.97549" lon="17.2669">
        <ele>388</ele>
        <time>2016-07-16T02:38:06Z</time>
      </trkpt>
      <trkpt lat="42.97554" lon="17.2669">
        <ele>388</ele>
        <time>2016-07-16T02:40:06Z</time>
      </trkpt>
      <trkpt lat="42.97559" lon="17.26692">
        <ele>388</ele>
        <time>2016-07-16T02:42:06Z</time>
      </trkpt>
      <trkpt lat="42.97562" lon="17.26694">
        <ele>388</ele>
        <time>2016-07-16T02:44:06Z</time>
      </trkpt>
      <trkpt lat="42.97566" lon="17.26696">
        <ele>387</ele>
        <time>2016-07-16T02:46:06Z</time>
      </trkpt>
      <trkpt lat="42.97569" lon="17.26699">
        <ele>387</ele>
        <time>2016-07-16T02:48:06Z</time>
      </trkpt>
      <trkpt lat="42.97572" lon="17.26703">
        <ele>387</ele>
        <time>2016-07-16T02:50:06Z</time>
      </trkpt>
      <trkpt lat="42.97574" lon="17.26706">
        <ele>387</ele>
        <time>2016-07-16T02:52:06Z</time>
      </trkpt>
      <trkpt lat="42.97575" lon="17.26707">
        <ele>387</ele>
        <time>2016-07-16T02:54:06Z</time>
      </trkpt>
      <trkpt lat="42.97577" lon="17.26713">
        <ele>386</ele>
        <time>2016-07-16T02:56:06Z</time>
      </trkpt>
      <trkpt lat="42.97578" lon="17.26719">
        <ele>386</ele>
        <time>2016-07-16T02:58:06Z</time>
      </trkpt>
      <trkpt lat="42.97579" lon="17.26726">
        <ele>385</ele>
        <time>2016-07-16T03:00:06Z</time>
      </trkpt>
      <trkpt lat="42.97579" lon="17.26731">
        <ele>385</ele>
        <time>2016-07-16T03:02:06Z</time>
      </trkpt>
      <trkpt lat="42.97579" lon="17.26738">
        <ele>384</ele>
        <time>2016-07-16T03:04:06Z</time>
      </trkpt>
      <trkpt lat="42.97578" lon="17.26745">
        <ele>384</ele>
        <time>2016-07-16T03:06:06Z</time>
      </trkpt>
      <trkpt lat="42.97576" lon="17.26751">
        <ele>383</ele>
        <time>2016-07-16T03:08:06Z</time>
      </trkpt>
      <trkpt lat="42.97573" lon="17.26758">
        <ele>384</ele>
        <time>2016-07-16T03:10:06Z</time>
      </trkpt>
      <trkpt lat="42.97567" lon="17.26769">
        <ele>384</ele>
        <time>2016-07-16T03:12:06Z</time>
      </trkpt>
      <trkpt lat="42.9755" lon="17.26798">
        <ele>385</ele>
        <time>2016-07-16T03:14:06Z</time>
      </trkpt>
      <trkpt lat="42.97541" lon="17.26811">
        <ele>384</ele>
        <time>2016-07-16T03:16:06Z</time>
      </trkpt>
      <trkpt lat="42.97533" lon="17.26824">
        <ele>384</ele>
        <time>2016-07-16T03:18:06Z</time>
      </trkpt>
      <trkpt lat="42.97524" lon="17.26841">
        <ele>384</ele>
        <time>2016-07-16T03:20:06Z</time>
      </trkpt>
      <trkpt lat="42.97514" lon="17.26857">
        <ele>385</ele>
        <time>2016-07-16T03:22:06Z</time>
      </trkpt>
      <trkpt lat="42.97508" lon="17.26868">
        <ele>385</ele>
        <time>2016-07-16T03:24:06Z</time>
      </trkpt>
      <trkpt lat="42.97504" lon="17.26877">
        <ele>386</ele>
        <time>2016-07-16T03:26:06Z</time>
      </trkpt>
      <trkpt lat="42.97499" lon="17.26888">
        <ele>386</ele>
        <time>2016-07-16T03:28:06Z</time>
      </trkpt>
      <trkpt lat="42.97495" lon="17.26895">
        <ele>387</ele>
        <time>2016-07-16T03:30:06Z</time>
      </trkpt>
      <trkpt lat="42.97492" lon="17.26905">
        <ele>388</ele>
        <time>2016-07-16T03:32:06Z</time>
      </trkpt>
      <trkpt lat="42.97488" lon="17.26914">
        <ele>388</ele>
        <time>2016-07-16T03:34:06Z</time>
      </trkpt>
      <trkpt lat="42.97485" lon="17.26922">
        <ele>389</ele>
        <time>2016-07-16T03:36:06Z</time>
      </trkpt>
      <trkpt lat="42.97482" lon="17.26931">
        <ele>390</ele>
        <time>2016-07-16T03:38:06Z</time>
      </trkpt>
      <trkpt lat="42.97479" lon="17.26939">
        <ele>390</ele>
        <time>2016-07-16T03:40:06Z</time>
      </trkpt>
      <trkpt lat="42.97476" lon="17.2695">
        <ele>391</ele>
        <time>2016-07-16T03:42:06Z</time>
      </trkpt>
      <trkpt lat="42.97474" lon="17.26957">
        <ele>392</ele>
        <time>2016-07-16T03:44:06Z</time>
      </trkpt>
      <trkpt lat="42.97473" lon="17.26965">
        <ele>393</ele>
        <time>2016-07-16T03:46:06Z</time>
      </trkpt>
      <trkpt lat="42.97471" lon="17.26973">
        <ele>393</ele>
        <time>2016-07-16T03:48:06Z</time>
      </trkpt>
      <trkpt lat="42.97468" lon="17.26984">
        <ele>394</ele>
        <time>2016-07-16T03:50:06Z</time>
      </trkpt>
      <trkpt lat="42.97466" lon="17.26993">
        <ele>395</ele>
        <time>2016-07-16T03:52:06Z</time>
      </trkpt>
      <trkpt lat="42.97464" lon="17.27008">
        <ele>396</ele>
        <time>2016-07-16T03:54:06Z</time>
      </trkpt>
      <trkpt lat="42.9746" lon="17.2703">
        <ele>398</ele>
        <time>2016-07-16T03:56:06Z</time>
      </trkpt>
      <trkpt lat="42.97457" lon="17.2705">
        <ele>399</ele>
        <time>2016-07-16T03:58:06Z</time>
      </trkpt>
      <trkpt lat="42.97454" lon="17.27069">
        <ele>401</ele>
        <time>2016-07-16T04:00:06Z</time>
      </trkpt>
      <trkpt lat="42.97451" lon="17.27085">
        <ele>401</ele>
        <time>2016-07-16T04:02:06Z</time>
      </trkpt>
      <trkpt lat="42.97448" lon="17.27102">
        <ele>403</ele>
        <time>2016-07-16T04:04:06Z</time>
      </trkpt>
      <trkpt lat="42.97445" lon="17.2712">
        <ele>404</ele>
        <time>2016-07-16T04:06:06Z</time>
      </trkpt>
      <trkpt lat="42.97442" lon="17.27138">
        <ele>405</ele>
        <time>2016-07-16T04:08:06Z</time>
      </trkpt>
      <trkpt lat="42.97439" lon="17.2715">
        <ele>405</ele>
        <time>2016-07-16T04:10:06Z</time>
      </trkpt>
      <trkpt lat="42.97435" lon="17.27164">
        <ele>405</ele>
        <time>2016-07-16T04:12:06Z</time>
      </trkpt>
      <trkpt lat="42.97432" lon="17.27179">
        <ele>406</ele>
        <time>2016-07-16T04:14:06Z</time>
      </trkpt>
      <trkpt lat="42.97429" lon="17.27187">
        <ele>406</ele>
        <time>2016-07-16T04:16:06Z</time>
      </trkpt>
      <trkpt lat="42.97426" lon="17.27196">
        <ele>406</ele>
        <time>2016-07-16T04:18:06Z</time>
      </trkpt>
      <trkpt lat="42.97422" lon="17.27207">
        <ele>406</ele>
        <time>2016-07-16T04:20:06Z</time>
      </trkpt>
      <trkpt lat="42.97418" lon="17.27219">
        <ele>406</ele>
        <time>2016-07-16T04:22:06Z</time>
      </trkpt>
      <trkpt lat="42.97414" lon="17.2723">
        <ele>407</ele>
        <time>2016-07-16T04:24:06Z</time>
      </trkpt>
      <trkpt lat="42.97408" lon="17.27243">
        <ele>408</ele>
        <time>2016-07-16T04:26:06Z</time>
      </trkpt>
      <trkpt lat="42.97403" lon="17.27254">
        <ele>409</ele>
        <time>2016-07-16T04:28:06Z</time>
      </trkpt>
      <trkpt lat="42.97396" lon="17.27268">
        <ele>411</ele>
        <time>2016-07-16T04:30:06Z</time>
      </trkpt>
      <trkpt lat="42.97392" lon="17.27276">
        <ele>411</ele>
        <time>2016-07-16T04:32:06Z</time>
      </trkpt>
      <trkpt lat="42.97387" lon="17.27285">
        <ele>412</ele>
        <time>2016-07-16T04:34:06Z</time>
      </trkpt>
      <trkpt lat="42.97379" lon="17.27299">
        <ele>413</ele>
        <time>2016-07-16T04:36:06Z</time>
      </trkpt>
      <trkpt lat="42.97374" lon="17.27308">
        <ele>413</ele>
        <time>2016-07-16T04:38:06Z</time>
      </trkpt>
      <trkpt lat="42.97367" lon="17.27318">
        <ele>413</ele>
        <time>2016-07-16T04:40:06Z</time>
      </trkpt>
      <trkpt lat="42.97356" lon="17.27336">
        <ele>413</ele>
        <time>2016-07-16T04:42:06Z</time>
      </trkpt>
      <trkpt lat="42.97351" lon="17.27345">
        <ele>413</ele>
        <time>2016-07-16T04:44:06Z</time>
      </trkpt>
      <trkpt lat="42.97346" lon="17.27355">
        <ele>412</ele>
        <time>2016-07-16T04:46:06Z</time>
      </trkpt>
      <trkpt lat="42.9734" lon="17.27367">
        <ele>411</ele>
        <time>2016-07-16T04:48:06Z</time>
      </trkpt>
      <trkpt lat="42.97333" lon="17.27384">
        <ele>411</ele>
        <time>2016-07-16T04:50:06Z</time>
      </trkpt>
      <trkpt lat="42.97326" lon="17.27405">
        <ele>411</ele>
        <time>2016-07-16T04:52:06Z</time>
      </trkpt>
      <trkpt lat="42.97319" lon="17.27428">
        <ele>411</ele>
        <time>2016-07-16T04:54:06Z</time>
      </trkpt>
      <trkpt lat="42.97305" lon="17.27469">
        <ele>409</ele>
        <time>2016-07-16T04:56:06Z</time>
      </trkpt>
      <trkpt lat="42.97299" lon="17.27489">
        <ele>408</ele>
        <time>2016-07-16T04:58:06Z</time>
      </trkpt>
      <trkpt lat="42.9729" lon="17.27522">
        <ele>407</ele>
        <time>2016-07-16T05:00:06Z</time>
      </trkpt>
      <trkpt lat="42.97285" lon="17.27542">
        <ele>406</ele>
        <time>2016-07-16T05:02:06Z</time>
      </trkpt>
      <trkpt lat="42.97281" lon="17.27559">
        <ele>404</ele>
        <time>2016-07-16T05:04:06Z</time>
      </trkpt>
      <trkpt lat="42.9728" lon="17.27568">
        <ele>404</ele>
        <time>2016-07-16T05:06:06Z</time>
      </trkpt>
      <trkpt lat="42.97279" lon="17.27574">
        <ele>404</ele>
        <time>2016-07-16T05:08:06Z</time>
      </trkpt>
      <trkpt lat="42.97276" lon="17.27587">
        <ele>403</ele>
        <time>2016-07-16T05:10:06Z</time>
      </trkpt>
      <trkpt lat="42.97273" lon="17.276">
        <ele>403</ele>
        <time>2016-07-16T05:12:06Z</time>
      </trkpt>
      <trkpt lat="42.9727" lon="17.2761">
        <ele>402</ele>
        <time>2016-07-16T05:14:06Z</time>
      </trkpt>
      <trkpt lat="42.97267" lon="17.27618">
        <ele>402</ele>
        <time>2016-07-16T05:16:06Z</time>
      </trkpt>
      <trkpt lat="42.97264" lon="17.27627">
        <ele>401</ele>
        <time>2016-07-16T05:18:06Z</time>
      </trkpt>
      <trkpt lat="42.97259" lon="17.27636">
        <ele>400</ele>
        <time>2016-07-16T05:20:06Z</time>
      </trkpt>
      <trkpt lat="42.97254" lon="17.27644">
        <ele>399</ele>
        <time>2016-07-16T05:22:06Z</time>
      </trkpt>
      <trkpt lat="42.97238" lon="17.27664">
        <ele>398</ele>
        <time>2016-07-16T05:24:06Z</time>
      </trkpt>
      <trkpt lat="42.97219" lon="17.2768">
        <ele>399</ele>
        <time>2016-07-16T05:26:06Z</time>
      </trkpt>
      <trkpt lat="42.97188" lon="17.27706">
        <ele>398</ele>
        <time>2016-07-16T05:28:06Z</time>
      </trkpt>
      <trkpt lat="42.97165" lon="17.2773">
        <ele>395</ele>
        <time>2016-07-16T05:30:06Z</time>
      </trkpt>
      <trkpt lat="42.97145" lon="17.2775">
        <ele>395</ele>
        <time>2016-07-16T05:32:06Z</time>
      </trkpt>
      <trkpt lat="42.97126" lon="17.27774">
        <ele>397</ele>
        <time>2016-07-16T05:34:06Z</time>
      </trkpt>
      <trkpt lat="42.97091" lon="17.27828">
        <ele>391</ele>
        <time>2016-07-16T05:36:06Z</time>
      </trkpt>
      <trkpt lat="42.96996" lon="17.27981">
        <ele>382</ele>
        <time>2016-07-16T05:38:06Z</time>
      </trkpt>
      <trkpt lat="42.96984" lon="17.28004">
        <ele>381</ele>
        <time>2016-07-16T05:40:06Z</time>
      </trkpt>
      <trkpt lat="42.96977" lon="17.28019">
        <ele>382</ele>
        <time>2016-07-16T05:42:06Z</time>
      </trkpt>
      <trkpt lat="42.9697" lon="17.2804">
        <ele>381</ele>
        <time>2016-07-16T05:44:06Z</time>
      </trkpt>
      <trkpt lat="42.96964" lon="17.28058">
        <ele>380</ele>
        <time>2016-07-16T05:46:06Z</time>
      </trkpt>
      <trkpt lat="42.96957" lon="17.28087">
        <ele>378</ele>
        <time>2016-07-16T05:48:06Z</time>
      </trkpt>
      <trkpt lat="42.96954" lon="17.28105">
        <ele>377</ele>
        <time>2016-07-16T05:50:06Z</time>
      </trkpt>
      <trkpt lat="42.96952" lon="17.28134">
        <ele>375</ele>
        <time>2016-07-16T05:52:06Z</time>
      </trkpt>
      <trkpt lat="42.9695" lon="17.28176">
        <ele>373</ele>
        <time>2016-07-16T05:54:06Z</time>
      </trkpt>
      <trkpt lat="42.96949" lon="17.2821">
        <ele>370</ele>
        <time>2016-07-16T05:56:06Z</time>
      </trkpt>
      <trkpt lat="42.96948" lon="17.28224">
        <ele>369</ele>
        <time>2016-07-16T05:58:06Z</time>
      </trkpt>
      <trkpt lat="42.96947" lon="17.28234">
        <ele>368</ele>
        <time>2016-07-16T06:00:06Z</time>
      </trkpt>
      <trkpt lat="42.96944" lon="17.28251">
        <ele>367</ele>
        <time>2016-07-16T06:02:06Z</time>
      </trkpt>
      <trkpt lat="42.96942" lon="17.28265">
        <ele>366</ele>
        <time>2016-07-16T06:04:06Z</time>
      </trkpt>
      <trkpt lat="42.96936" lon="17.28284">
        <ele>363</ele>
        <time>2016-07-16T06:06:06Z</time>
      </trkpt>
      <trkpt lat="42.96929" lon="17.28309">
        <ele>360</ele>
        <time>2016-07-16T06:08:06Z</time>
      </trkpt>
      <trkpt lat="42.96923" lon="17.28329">
        <ele>357</ele>
        <time>2016-07-16T06:10:06Z</time>
      </trkpt>
      <trkpt lat="42.96907" lon="17.28384">
        <ele>352</ele>
        <time>2016-07-16T06:12:06Z</time>
      </trkpt>
      <trkpt lat="42.96896" lon="17.28435">
        <ele>350</ele>
        <time>2016-07-16T06:14:06Z</time>
      </trkpt>
      <trkpt lat="42.96891" lon="17.2846">
        <ele>349</ele>
        <time>2016-07-16T06:16:06Z</time>
      </trkpt>
      <trkpt lat="42.96885" lon="17.28491">
        <ele>348</ele>
        <time>2016-07-16T06:18:06Z</time>
      </trkpt>
      <trkpt lat="42.9688" lon="17.28516">
        <ele>347</ele>
        <time>2016-07-16T06:20:06Z</time>
      </trkpt>
      <trkpt lat="42.96877" lon="17.28542">
        <ele>346</ele>
        <time>2016-07-16T06:22:06Z</time>
      </trkpt>
      <trkpt lat="42.96873" lon="17.28566">
        <ele>345</ele>
        <time>2016-07-16T06:24:06Z</time>
      </trkpt>
      <trkpt lat="42.9687" lon="17.28598">
        <ele>344</ele>
        <time>2016-07-16T06:26:06Z</time>
      </trkpt>
      <trkpt lat="42.96868" lon="17.28623">
        <ele>344</ele>
        <time>2016-07-16T06:28:06Z</time>
      </trkpt>
      <trkpt lat="42.96863" lon="17.2867">
        <ele>343</ele>
        <time>2016-07-16T06:30:06Z</time>
      </trkpt>
      <trkpt lat="42.96861" lon="17.28703">
        <ele>341</ele>
        <time>2016-07-16T06:32:06Z</time>
      </trkpt>
      <trkpt lat="42.96858" lon="17.2873">
        <ele>339</ele>
        <time>2016-07-16T06:34:06Z</time>
      </trkpt>
      <trkpt lat="42.96857" lon="17.28748">
        <ele>337</ele>
        <time>2016-07-16T06:36:06Z</time>
      </trkpt>
      <trkpt lat="42.96857" lon="17.28764">
        <ele>336</ele>
        <time>2016-07-16T06:38:06Z</time>
      </trkpt>
      <trkpt lat="42.96857" lon="17.28784">
        <ele>335</ele>
        <time>2016-07-16T06:40:06Z</time>
      </trkpt>
      <trkpt lat="42.96859" lon="17.28814">
        <ele>334</ele>
        <time>2016-07-16T06:42:06Z</time>
      </trkpt>
      <trkpt lat="42.96861" lon="17.28843">
        <ele>333</ele>
        <time>2016-07-16T06:44:06Z</time>
      </trkpt>
      <trkpt lat="42.96869" lon="17.28888">
        <ele>331</ele>
        <time>2016-07-16T06:46:06Z</time>
      </trkpt>
      <trkpt lat="42.96876" lon="17.2891">
        <ele>330</ele>
        <time>2016-07-16T06:48:06Z</time>
      </trkpt>
      <trkpt lat="42.96882" lon="17.28927">
        <ele>329</ele>
        <time>2016-07-16T06:50:06Z</time>
      </trkpt>
      <trkpt lat="42.9689" lon="17.28947">
        <ele>327</ele>
        <time>2016-07-16T06:52:06Z</time>
      </trkpt>
      <trkpt lat="42.96895" lon="17.2896">
        <ele>325</ele>
        <time>2016-07-16T06:54:06Z</time>
      </trkpt>
      <trkpt lat="42.96911" lon="17.2899">
        <ele>321</ele>
        <time>2016-07-16T06:56:06Z</time>
      </trkpt>
      <trkpt lat="42.96912" lon="17.28991">
        <ele>321</ele>
        <time>2016-07-16T06:58:06Z</time>
      </trkpt>
      <trkpt lat="42.96935" lon="17.29025">
        <ele>320</ele>
        <time>2016-07-16T07:00:06Z</time>
      </trkpt>
      <trkpt lat="42.9694" lon="17.29032">
        <ele>320</ele>
        <time>2016-07-16T07:02:06Z</time>
      </trkpt>
      <trkpt lat="42.96947" lon="17.29043">
        <ele>320</ele>
        <time>2016-07-16T07:04:06Z</time>
      </trkpt>
      <trkpt lat="42.9699" lon="17.29108">
        <ele>317</ele>
        <time>2016-07-16T07:06:06Z</time>
      </trkpt>
      <trkpt lat="42.96996" lon="17.29116">
        <ele>318</ele>
        <time>2016-07-16T07:08:06Z</time>
      </trkpt>
      <trkpt lat="42.96996" lon="17.29117">
        <ele>318</ele>
        <time>2016-07-16T07:10:06Z</time>
      </trkpt>
      <trkpt lat="42.97" lon="17.29123">
        <ele>318</ele>
        <time>2016-07-16T07:12:06Z</time>
      </trkpt>
      <trkpt lat="42.97004" lon="17.29133">
        <ele>318</ele>
        <time>2016-07-16T07:14:06Z</time>
      </trkpt>
      <trkpt lat="42.97006" lon="17.29138">
        <ele>318</ele>
        <time>2016-07-16T07:16:06Z</time>
      </trkpt>
      <trkpt lat="42.97008" lon="17.29144">
        <ele>318</ele>
        <time>2016-07-16T07:18:06Z</time>
      </trkpt>
      <trkpt lat="42.97009" lon="17.29148">
        <ele>318</ele>
        <time>2016-07-16T07:20:06Z</time>
      </trkpt>
      <trkpt lat="42.9701" lon="17.29153">
        <ele>317</ele>
        <time>2016-07-16T07:22:06Z</time>
      </trkpt>
      <trkpt lat="42.9701" lon="17.2916">
        <ele>317</ele>
        <time>2016-07-16T07:24:06Z</time>
      </trkpt>
      <trkpt lat="42.9701" lon="17.29163">
        <ele>316</ele>
        <time>2016-07-16T07:26:06Z</time>
      </trkpt>
      <trkpt lat="42.97011" lon="17.29166">
        <ele>316</ele>
        <time>2016-07-16T07:28:06Z</time>
      </trkpt>
      <trkpt lat="42.9701" lon="17.29172">
        <ele>316</ele>
        <time>2016-07-16T07:30:06Z</time>
      </trkpt>
      <trkpt lat="42.97006" lon="17.29202">
        <ele>313</ele>
        <time>2016-07-16T07:32:06Z</time>
      </trkpt>
      <trkpt lat="42.97004" lon="17.29217">
        <ele>312</ele>
        <time>2016-07-16T07:34:06Z</time>
      </trkpt>
      <trkpt lat="42.97003" lon="17.29234">
        <ele>311</ele>
        <time>2016-07-16T07:36:06Z</time>
      </trkpt>
      <trkpt lat="42.97003" lon="17.29242">
        <ele>311</ele>
        <time>2016-07-16T07:38:06Z</time>
      </trkpt>
      <trkpt lat="42.97003" lon="17.29253">
        <ele>310</ele>
        <time>2016-07-16T07:40:06Z</time>
      </trkpt>
      <trkpt lat="42.97003" lon="17.29262">
        <ele>310</ele>
        <time>2016-07-16T07:42:06Z</time>
      </trkpt>
      <trkpt lat="42.97004" lon="17.29272">
        <ele>310</ele>
        <time>2016-07-16T07:44:06Z</time>
      </trkpt>
      <trkpt lat="42.97007" lon="17.29284">
        <ele>309</ele>
        <time>2016-07-16T07:46:06Z</time>
      </trkpt>
      <trkpt lat="42.9701" lon="17.29302">
        <ele>309</ele>
        <time>2016-07-16T07:48:06Z</time>
      </trkpt>
      <trkpt lat="42.97042" lon="17.29418">
        <ele>305</ele>
        <time>2016-07-16T07:50:06Z</time>
      </trkpt>
      <trkpt lat="42.97062" lon="17.29494">
        <ele>301</ele>
        <time>2016-07-16T07:52:06Z</time>
      </trkpt>
      <trkpt lat="42.97063" lon="17.29499">
        <ele>301</ele>
        <time>2016-07-16T07:54:06Z</time>
      </trkpt>
      <trkpt lat="42.97067" lon="17.29515">
        <ele>300</ele>
        <time>2016-07-16T07:56:06Z</time>
      </trkpt>
      <trkpt lat="42.97071" lon="17.29534">
        <ele>299</ele>
        <time>2016-07-16T07:58:06Z</time>
      </trkpt>
      <trkpt lat="42.97071" lon="17.29539">
        <ele>299</ele>
        <time>2016-07-16T08:00:06Z</time>
      </trkpt>
      <trkpt lat="42.97071" lon="17.29543">
        <ele>299</ele>
        <time>2016-07-16T08:02:06Z</time>
      </trkpt>
      <trkpt lat="42.97071" lon="17.29548">
        <ele>299</ele>
        <time>2016-07-16T08:04:06Z</time>
      </trkpt>
      <trkpt lat="42.97071" lon="17.29553">
        <ele>298</ele>
        <time>2016-07-16T08:06:06Z</time>
      </trkpt>
      <trkpt lat="42.97071" lon="17.29557">
        <ele>298</ele>
        <time>2016-07-16T08:08:06Z</time>
      </trkpt>
      <trkpt lat="42.97071" lon="17.29562">
        <ele>298</ele>
        <time>2016-07-16T08:10:06Z</time>
      </trkpt>
      <trkpt lat="42.97071" lon="17.29567">
        <ele>298</ele>
        <time>2016-07-16T08:12:06Z</time>
      </trkpt>
      <trkpt lat="42.9707" lon="17.29571">
        <ele>298</ele>
        <time>2016-07-16T08:14:06Z</time>
      </trkpt>
      <trkpt lat="42.9707" lon="17.29576">
        <ele>297</ele>
        <time>2016-07-16T08:16:06Z</time>
      </trkpt>
      <trkpt lat="42.97069" lon="17.29581">
        <ele>297</ele>
        <time>2016-07-16T08:18:06Z</time>
      </trkpt>
      <trkpt lat="42.97069" lon="17.29585">
        <ele>297</ele>
        <time>2016-07-16T08:20:06Z</time>
      </trkpt>
      <trkpt lat="42.97068" lon="17.2959">
        <ele>297</ele>
        <time>2016-07-16T08:22:06Z</time>
      </trkpt>
      <trkpt lat="42.97067" lon="17.29594">
        <ele>297</ele>
        <time>2016-07-16T08:24:06Z</time>
      </trkpt>
      <trkpt lat="42.97066" lon="17.29599">
        <ele>297</ele>
        <time>2016-07-16T08:26:06Z</time>
      </trkpt>
      <trkpt lat="42.97066" lon="17.29603">
        <ele>297</ele>
        <time>2016-07-16T08:28:06Z</time>
      </trkpt>
      <trkpt lat="42.97046" lon="17.29689">
        <ele>295</ele>
        <time>2016-07-16T08:30:06Z</time>
      </trkpt>
      <trkpt lat="42.9704" lon="17.29711">
        <ele>294</ele>
        <time>2016-07-16T08:32:06Z</time>
      </trkpt>
      <trkpt lat="42.97026" lon="17.29767">
        <ele>291</ele>
        <time>2016-07-16T08:34:06Z</time>
      </trkpt>
      <trkpt lat="42.97023" lon="17.29777">
        <ele>290</ele>
        <time>2016-07-16T08:36:06Z</time>
      </trkpt>
      <trkpt lat="42.97017" lon="17.29798">
        <ele>289</ele>
        <time>2016-07-16T08:38:06Z</time>
      </trkpt>
      <trkpt lat="42.97013" lon="17.29808">
        <ele>289</ele>
        <time>2016-07-16T08:40:06Z</time>
      </trkpt>
      <trkpt lat="42.97004" lon="17.29828">
        <ele>288</ele>
        <time>2016-07-16T08:42:06Z</time>
      </trkpt>
      <trkpt lat="42.96995" lon="17.29847">
        <ele>287</ele>
        <time>2016-07-16T08:44:06Z</time>
      </trkpt>
      <trkpt lat="42.9699" lon="17.29856">
        <ele>287</ele>
        <time>2016-07-16T08:46:06Z</time>
      </trkpt>
      <trkpt lat="42.96961" lon="17.29919">
        <ele>284</ele>
        <time>2016-07-16T08:48:06Z</time>
      </trkpt>
      <trkpt lat="42.96934" lon="17.29973">
        <ele>281</ele>
        <time>2016-07-16T08:50:06Z</time>
      </trkpt>
      <trkpt lat="42.96855" lon="17.30141">
        <ele>274</ele>
        <time>2016-07-16T08:52:06Z</time>
      </trkpt>
      <trkpt lat="42.96793" lon="17.30275">
        <ele>274</ele>
        <time>2016-07-16T08:54:06Z</time>
      </trkpt>
      <trkpt lat="42.96789" lon="17.30284">
        <ele>274</ele>
        <time>2016-07-16T08:56:06Z</time>
      </trkpt>
      <trkpt lat="42.96783" lon="17.30301">
        <ele>274</ele>
        <time>2016-07-16T08:58:06Z</time>
      </trkpt>
      <trkpt lat="42.96778" lon="17.30316">
        <ele>274</ele>
        <time>2016-07-16T09:00:06Z</time>
      </trkpt>
      <trkpt lat="42.96767" lon="17.3036">
        <ele>273</ele>
        <time>2016-07-16T09:02:06Z</time>
      </trkpt>
      <trkpt lat="42.96756" lon="17.30404">
        <ele>272</ele>
        <time>2016-07-16T09:04:06Z</time>
      </trkpt>
      <trkpt lat="42.96741" lon="17.30462">
        <ele>273</ele>
        <time>2016-07-16T09:06:06Z</time>
      </trkpt>
      <trkpt lat="42.96731" lon="17.30492">
        <ele>275</ele>
        <time>2016-07-16T09:08:06Z</time>
      </trkpt>
      <trkpt lat="42.96721" lon="17.30521">
        <ele>276</ele>
        <time>2016-07-16T09:10:06Z</time>
      </trkpt>
      <trkpt lat="42.96711" lon="17.30543">
        <ele>277</ele>
        <time>2016-07-16T09:12:06Z</time>
      </trkpt>
      <trkpt lat="42.96695" lon="17.30576">
        <ele>277</ele>
        <time>2016-07-16T09:14:06Z</time>
      </trkpt>
      <trkpt lat="42.96668" lon="17.30624">
        <ele>276</ele>
        <time>2016-07-16T09:16:06Z</time>
      </trkpt>
      <trkpt lat="42.96652" lon="17.30645">
        <ele>276</ele>
        <time>2016-07-16T09:18:06Z</time>
      </trkpt>
      <trkpt lat="42.96635" lon="17.30663">
        <ele>276</ele>
        <time>2016-07-16T09:20:06Z</time>
      </trkpt>
      <trkpt lat="42.96617" lon="17.30682">
        <ele>277</ele>
        <time>2016-07-16T09:22:06Z</time>
      </trkpt>
      <trkpt lat="42.96567" lon="17.30733">
        <ele>275</ele>
        <time>2016-07-16T09:24:06Z</time>
      </trkpt>
      <trkpt lat="42.96553" lon="17.30749">
        <ele>274</ele>
        <time>2016-07-16T09:26:06Z</time>
      </trkpt>
      <trkpt lat="42.96503" lon="17.308">
        <ele>270</ele>
        <time>2016-07-16T09:28:06Z</time>
      </trkpt>
      <trkpt lat="42.96485" lon="17.30819">
        <ele>269</ele>
        <time>2016-07-16T09:30:06Z</time>
      </trkpt>
      <trkpt lat="42.96469" lon="17.30841">
        <ele>269</ele>
        <time>2016-07-16T09:32:06Z</time>
      </trkpt>
      <trkpt lat="42.96461" lon="17.30853">
        <ele>270</ele>
        <time>2016-07-16T09:34:06Z</time>
      </trkpt>
      <trkpt lat="42.96456" lon="17.30864">
        <ele>270</ele>
        <time>2016-07-16T09:36:06Z</time>
      </trkpt>
      <trkpt lat="42.96445" lon="17.30887">
        <ele>269</ele>
        <time>2016-07-16T09:38:06Z</time>
      </trkpt>
      <trkpt lat="42.96435" lon="17.30906">
        <ele>269</ele>
        <time>2016-07-16T09:40:06Z</time>
      </trkpt>
      <trkpt lat="42.9643" lon="17.30915">
        <ele>269</ele>
        <time>2016-07-16T09:42:06Z</time>
      </trkpt>
      <trkpt lat="42.96419" lon="17.3093">
        <ele>269</ele>
        <time>2016-07-16T09:44:06Z</time>
      </trkpt>
      <trkpt lat="42.96412" lon="17.3094">
        <ele>269</ele>
        <time>2016-07-16T09:46:06Z</time>
      </trkpt>
      <trkpt lat="42.96404" lon="17.30952">
        <ele>270</ele>
        <time>2016-07-16T09:48:06Z</time>
      </trkpt>
      <trkpt lat="42.96399" lon="17.30959">
        <ele>271</ele>
        <time>2016-07-16T09:50:06Z</time>
      </trkpt>
      <trkpt lat="42.9639" lon="17.30975">
        <ele>272</ele>
        <time>2016-07-16T09:52:06Z</time>
      </trkpt>
      <trkpt lat="42.9638" lon="17.30995">
        <ele>273</ele>
        <time>2016-07-16T09:54:06Z</time>
      </trkpt>
      <trkpt lat="42.96362" lon="17.31034">
        <ele>276</ele>
        <time>2016-07-16T09:56:06Z</time>
      </trkpt>
      <trkpt lat="42.96341" lon="17.31078">
        <ele>277</ele>
        <time>2016-07-16T09:58:06Z</time>
      </trkpt>
      <trkpt lat="42.96325" lon="17.31111">
        <ele>281</ele>
        <time>2016-07-16T10:00:06Z</time>
      </trkpt>
      <trkpt lat="42.96316" lon="17.31131">
        <ele>283</ele>
        <time>2016-07-16T10:02:06Z</time>
      </trkpt>
      <trkpt lat="42.96304" lon="17.31158">
        <ele>285</ele>
        <time>2016-07-16T10:04:06Z</time>
      </trkpt>
      <trkpt lat="42.96295" lon="17.31181">
        <ele>287</ele>
        <time>2016-07-16T10:06:06Z</time>
      </trkpt>
      <trkpt lat="42.96286" lon="17.31207">
        <ele>288</ele>
        <time>2016-07-16T10:08:06Z</time>
      </trkpt>
      <trkpt lat="42.9628" lon="17.31224">
        <ele>288</ele>
        <time>2016-07-16T10:10:06Z</time>
      </trkpt>
      <trkpt lat="42.96277" lon="17.31237">
        <ele>288</ele>
        <time>2016-07-16T10:12:06Z</time>
      </trkpt>
      <trkpt lat="42.96274" lon="17.3125">
        <ele>287</ele>
        <time>2016-07-16T10:14:06Z</time>
      </trkpt>
      <trkpt lat="42.96268" lon="17.31273">
        <ele>289</ele>
        <time>2016-07-16T10:16:06Z</time>
      </trkpt>
      <trkpt lat="42.96258" lon="17.31314">
        <ele>290</ele>
        <time>2016-07-16T10:18:06Z</time>
      </trkpt>
      <trkpt lat="42.96251" lon="17.31339">
        <ele>291</ele>
        <time>2016-07-16T10:20:06Z</time>
      </trkpt>
      <trkpt lat="42.96245" lon="17.31355">
        <ele>292</ele>
        <time>2016-07-16T10:22:06Z</time>
      </trkpt>
      <trkpt lat="42.96237" lon="17.31373">
        <ele>292</ele>
        <time>2016-07-16T10:24:06Z</time>
      </trkpt>
      <trkpt lat="42.96208" lon="17.31435">
        <ele>292</ele>
        <time>2016-07-16T10:26:06Z</time>
      </trkpt>
      <trkpt lat="42.96177" lon="17.3149">
        <ele>290</ele>
        <time>2016-07-16T10:28:06Z</time>
      </trkpt>
      <trkpt lat="42.96168" lon="17.31507">
        <ele>290</ele>
        <time>2016-07-16T10:30:06Z</time>
      </trkpt>
      <trkpt lat="42.9616" lon="17.31523">
        <ele>290</ele>
        <time>2016-07-16T10:32:06Z</time>
      </trkpt>
      <trkpt lat="42.96154" lon="17.31537">
        <ele>290</ele>
        <time>2016-07-16T10:34:06Z</time>
      </trkpt>
      <trkpt lat="42.9615" lon="17.31549">
        <ele>290</ele>
        <time>2016-07-16T10:36:06Z</time>
      </trkpt>
      <trkpt lat="42.96139" lon="17.31576">
        <ele>290</ele>
        <time>2016-07-16T10:38:06Z</time>
      </trkpt>
      <trkpt lat="42.96133" lon="17.3159">
        <ele>290</ele>
        <time>2016-07-16T10:40:06Z</time>
      </trkpt>
      <trkpt lat="42.96119" lon="17.31613">
        <ele>290</ele>
        <time>2016-07-16T10:42:06Z</time>
      </trkpt>
      <trkpt lat="42.96095" lon="17.31651">
        <ele>290</ele>
        <time>2016-07-16T10:44:06Z</time>
      </trkpt>
      <trkpt lat="42.96078" lon="17.31677">
        <ele>290</ele>
        <time>2016-07-16T10:46:06Z</time>
      </trkpt>
      <trkpt lat="42.96062" lon="17.31702">
        <ele>291</ele>
        <time>2016-07-16T10:48:06Z</time>
      </trkpt>
      <trkpt lat="42.96045" lon="17.31727">
        <ele>292</ele>
        <time>2016-07-16T10:50:06Z</time>
      </trkpt>
      <trkpt lat="42.96" lon="17.31787">
        <ele>295</ele>
        <time>2016-07-16T10:52:06Z</time>
      </trkpt>
      <trkpt lat="42.95986" lon="17.31808">
        <ele>297</ele>
        <time>2016-07-16T10:54:06Z</time>
      </trkpt>
      <trkpt lat="42.95974" lon="17.31825">
        <ele>299</ele>
        <time>2016-07-16T10:56:06Z</time>
      </trkpt>
      <trkpt lat="42.95953" lon="17.31856">
        <ele>300</ele>
        <time>2016-07-16T10:58:06Z</time>
      </trkpt>
      <trkpt lat="42.95924" lon="17.31903">
        <ele>299</ele>
        <time>2016-07-16T11:00:06Z</time>
      </trkpt>
      <trkpt lat="42.95915" lon="17.31918">
        <ele>299</ele>
        <time>2016-07-16T11:02:06Z</time>
      </trkpt>
      <trkpt lat="42.95911" lon="17.31927">
        <ele>299</ele>
        <time>2016-07-16T11:04:06Z</time>
      </trkpt>
      <trkpt lat="42.95907" lon="17.3194">
        <ele>299</ele>
        <time>2016-07-16T11:06:06Z</time>
      </trkpt>
      <trkpt lat="42.95904" lon="17.31949">
        <ele>299</ele>
        <time>2016-07-16T11:08:06Z</time>
      </trkpt>
      <trkpt lat="42.95903" lon="17.31957">
        <ele>299</ele>
        <time>2016-07-16T11:10:06Z</time>
      </trkpt>
      <trkpt lat="42.95899" lon="17.31994">
        <ele>299</ele>
        <time>2016-07-16T11:12:06Z</time>
      </trkpt>
      <trkpt lat="42.95893" lon="17.32062">
        <ele>300</ele>
        <time>2016-07-16T11:14:06Z</time>
      </trkpt>
      <trkpt lat="42.95892" lon="17.32066">
        <ele>300</ele>
        <time>2016-07-16T11:16:06Z</time>
      </trkpt>
      <trkpt lat="42.9589" lon="17.32081">
        <ele>300</ele>
        <time>2016-07-16T11:18:06Z</time>
      </trkpt>
      <trkpt lat="42.9589" lon="17.32083">
        <ele>300</ele>
        <time>2016-07-16T11:20:06Z</time>
      </trkpt>
      <trkpt lat="42.95887" lon="17.32098">
        <ele>301</ele>
        <time>2016-07-16T11:22:06Z</time>
      </trkpt>
      <trkpt lat="42.95886" lon="17.32105">
        <ele>301</ele>
        <time>2016-07-16T11:24:06Z</time>
      </trkpt>
      <trkpt lat="42.95884" lon="17.32111">
        <ele>301</ele>
        <time>2016-07-16T11:26:06Z</time>
      </trkpt>
      <trkpt lat="42.95881" lon="17.32117">
        <ele>301</ele>
        <time>2016-07-16T11:28:06Z</time>
      </trkpt>
      <trkpt lat="42.95878" lon="17.32124">
        <ele>301</ele>
        <time>2016-07-16T11:30:06Z</time>
      </trkpt>
      <trkpt lat="42.95874" lon="17.32132">
        <ele>302</ele>
        <time>2016-07-16T11:32:06Z</time>
      </trkpt>
      <trkpt lat="42.95869" lon="17.32141">
        <ele>302</ele>
        <time>2016-07-16T11:34:06Z</time>
      </trkpt>
      <trkpt lat="42.95854" lon="17.32163">
        <ele>302</ele>
        <time>2016-07-16T11:36:06Z</time>
      </trkpt>
      <trkpt lat="42.95844" lon="17.32177">
        <ele>302</ele>
        <time>2016-07-16T11:38:06Z</time>
      </trkpt>
      <trkpt lat="42.9583" lon="17.32197">
        <ele>302</ele>
        <time>2016-07-16T11:40:06Z</time>
      </trkpt>
      <trkpt lat="42.95771" lon="17.32276">
        <ele>305</ele>
        <time>2016-07-16T11:42:06Z</time>
      </trkpt>
      <trkpt lat="42.9576" lon="17.32293">
        <ele>305</ele>
        <time>2016-07-16T11:44:06Z</time>
      </trkpt>
      <trkpt lat="42.95748" lon="17.32311">
        <ele>304</ele>
        <time>2016-07-16T11:46:06Z</time>
      </trkpt>
      <trkpt lat="42.95702" lon="17.32393">
        <ele>304</ele>
        <time>2016-07-16T11:48:06Z</time>
      </trkpt>
      <trkpt lat="42.95682" lon="17.32424">
        <ele>300</ele>
        <time>2016-07-16T11:50:06Z</time>
      </trkpt>
      <trkpt lat="42.95669" lon="17.32443">
        <ele>299</ele>
        <time>2016-07-16T11:52:06Z</time>
      </trkpt>
      <trkpt lat="42.95662" lon="17.32452">
        <ele>298</ele>
        <time>2016-07-16T11:54:06Z</time>
      </trkpt>
      <trkpt lat="42.95656" lon="17.3246">
        <ele>298</ele>
        <time>2016-07-16T11:56:06Z</time>
      </trkpt>
      <trkpt lat="42.95648" lon="17.3247">
        <ele>297</ele>
        <time>2016-07-16T11:58:06Z</time>
      </trkpt>
      <trkpt lat="42.95634" lon="17.32488">
        <ele>296</ele>
        <time>2016-07-16T12:00:06Z</time>
      </trkpt>
      <trkpt lat="42.95627" lon="17.32497">
        <ele>294</ele>
        <time>2016-07-16T12:02:06Z</time>
      </trkpt>
      <trkpt lat="42.95613" lon="17.32512">
        <ele>293</ele>
        <time>2016-07-16T12:04:06Z</time>
      </trkpt>
      <trkpt lat="42.95599" lon="17.32527">
        <ele>292</ele>
        <time>2016-07-16T12:06:06Z</time>
      </trkpt>
      <trkpt lat="42.95586" lon="17.32538">
        <ele>290</ele>
        <time>2016-07-16T12:08:06Z</time>
      </trkpt>
      <trkpt lat="42.9556" lon="17.3256">
        <ele>288</ele>
        <time>2016-07-16T12:10:06Z</time>
      </trkpt>
      <trkpt lat="42.95534" lon="17.3258">
        <ele>285</ele>
        <time>2016-07-16T12:12:06Z</time>
      </trkpt>
      <trkpt lat="42.95525" lon="17.32588">
        <ele>284</ele>
        <time>2016-07-16T12:14:06Z</time>
      </trkpt>
      <trkpt lat="42.95508" lon="17.32599">
        <ele>284</ele>
        <time>2016-07-16T12:16:06Z</time>
      </trkpt>
      <trkpt lat="42.95481" lon="17.32617">
        <ele>284</ele>
        <time>2016-07-16T12:18:06Z</time>
      </trkpt>
      <trkpt lat="42.95468" lon="17.32625">
        <ele>283</ele>
        <time>2016-07-16T12:20:06Z</time>
      </trkpt>
      <trkpt lat="42.95454" lon="17.32633">
        <ele>283</ele>
        <time>2016-07-16T12:22:06Z</time>
      </trkpt>
      <trkpt lat="42.95426" lon="17.32648">
        <ele>280</ele>
        <time>2016-07-16T12:24:06Z</time>
      </trkpt>
      <trkpt lat="42.95397" lon="17.32662">
        <ele>279</ele>
        <time>2016-07-16T12:26:06Z</time>
      </trkpt>
      <trkpt lat="42.95383" lon="17.32669">
        <ele>278</ele>
        <time>2016-07-16T12:28:06Z</time>
      </trkpt>
      <trkpt lat="42.95355" lon="17.32681">
        <ele>279</ele>
        <time>2016-07-16T12:30:06Z</time>
      </trkpt>
      <trkpt lat="42.95322" lon="17.32693">
        <ele>280</ele>
        <time>2016-07-16T12:32:06Z</time>
      </trkpt>
      <trkpt lat="42.95294" lon="17.32706">
        <ele>281</ele>
        <time>2016-07-16T12:34:06Z</time>
      </trkpt>
      <trkpt lat="42.95284" lon="17.32711">
        <ele>282</ele>
        <time>2016-07-16T12:36:06Z</time>
      </trkpt>
      <trkpt lat="42.95273" lon="17.32718">
        <ele>281</ele>
        <time>2016-07-16T12:38:06Z</time>
      </trkpt>
      <trkpt lat="42.95255" lon="17.32732">
        <ele>279</ele>
        <time>2016-07-16T12:40:06Z</time>
      </trkpt>
      <trkpt lat="42.95234" lon="17.32749">
        <ele>275</ele>
        <time>2016-07-16T12:42:06Z</time>
      </trkpt>
      <trkpt lat="42.95217" lon="17.32759">
        <ele>275</ele>
        <time>2016-07-16T12:44:06Z</time>
      </trkpt>
      <trkpt lat="42.95203" lon="17.32767">
        <ele>275</ele>
        <time>2016-07-16T12:46:06Z</time>
      </trkpt>
      <trkpt lat="42.95124" lon="17.32805">
        <ele>272</ele>
        <time>2016-07-16T12:48:06Z</time>
      </trkpt>
      <trkpt lat="42.95069" lon="17.3283">
        <ele>269</ele>
        <time>2016-07-16T12:50:06Z</time>
      </trkpt>
      <trkpt lat="42.95012" lon="17.32857">
        <ele>268</ele>
        <time>2016-07-16T12:52:06Z</time>
      </trkpt>
      <trkpt lat="42.94982" lon="17.32869">
        <ele>267</ele>
        <time>2016-07-16T12:54:06Z</time>
      </trkpt>
      <trkpt lat="42.94971" lon="17.32871">
        <ele>266</ele>
        <time>2016-07-16T12:56:06Z</time>
      </trkpt>
      <trkpt lat="42.94961" lon="17.32872">
        <ele>266</ele>
        <time>2016-07-16T12:58:06Z</time>
      </trkpt>
      <trkpt lat="42.94941" lon="17.32872">
        <ele>265</ele>
        <time>2016-07-16T13:00:06Z</time>
      </trkpt>
      <trkpt lat="42.94917" lon="17.32868">
        <ele>264</ele>
        <time>2016-07-16T13:02:06Z</time>
      </trkpt>
      <trkpt lat="42.94889" lon="17.3286">
        <ele>265</ele>
        <time>2016-07-16T13:04:06Z</time>
      </trkpt>
      <trkpt lat="42.94838" lon="17.32844">
        <ele>266</ele>
        <time>2016-07-16T13:06:06Z</time>
      </trkpt>
      <trkpt lat="42.9482" lon="17.32842">
        <ele>266</ele>
        <time>2016-07-16T13:08:06Z</time>
      </trkpt>
      <trkpt lat="42.94803" lon="17.32842">
        <ele>266</ele>
        <time>2016-07-16T13:10:06Z</time>
      </trkpt>
      <trkpt lat="42.94784" lon="17.32844">
        <ele>266</ele>
        <time>2016-07-16T13:12:06Z</time>
      </trkpt>
      <trkpt lat="42.94766" lon="17.32849">
        <ele>266</ele>
        <time>2016-07-16T13:14:06Z</time>
      </trkpt>
      <trkpt lat="42.94745" lon="17.32858">
        <ele>266</ele>
        <time>2016-07-16T13:16:06Z</time>
      </trkpt>
      <trkpt lat="42.94732" lon="17.32864">
        <ele>266</ele>
        <time>2016-07-16T13:18:06Z</time>
      </trkpt>
      <trkpt lat="42.94711" lon="17.32875">
        <ele>266</ele>
        <time>2016-07-16T13:20:06Z</time>
      </trkpt>
      <trkpt lat="42.94692" lon="17.32884">
        <ele>266</ele>
        <time>2016-07-16T13:22:06Z</time>
      </trkpt>
      <trkpt lat="42.94675" lon="17.32894">
        <ele>266</ele>
        <time>2016-07-16T13:24:06Z</time>
      </trkpt>
      <trkpt lat="42.94655" lon="17.32907">
        <ele>266</ele>
        <time>2016-07-16T13:26:06Z</time>
      </trkpt>
      <trkpt lat="42.94638" lon="17.32922">
        <ele>265</ele>
        <time>2016-07-16T13:28:06Z</time>
      </trkpt>
      <trkpt lat="42.94623" lon="17.32936">
        <ele>264</ele>
        <time>2016-07-16T13:30:06Z</time>
      </trkpt>
      <trkpt lat="42.94569" lon="17.33004">
        <ele>262</ele>
        <time>2016-07-16T13:32:06Z</time>
      </trkpt>
      <trkpt lat="42.94547" lon="17.33033">
        <ele>262</ele>
        <time>2016-07-16T13:34:06Z</time>
      </trkpt>
      <trkpt lat="42.94532" lon="17.33048">
        <ele>262</ele>
        <time>2016-07-16T13:36:06Z</time>
      </trkpt>
      <trkpt lat="42.94518" lon="17.33061">
        <ele>262</ele>
        <time>2016-07-16T13:38:06Z</time>
      </trkpt>
      <trkpt lat="42.94496" lon="17.33081">
        <ele>262</ele>
        <time>2016-07-16T13:40:06Z</time>
      </trkpt>
      <trkpt lat="42.9446" lon="17.33112">
        <ele>264</ele>
        <time>2016-07-16T13:42:06Z</time>
      </trkpt>
      <trkpt lat="42.9444" lon="17.33129">
        <ele>264</ele>
        <time>2016-07-16T13:44:06Z</time>
      </trkpt>
      <trkpt lat="42.94385" lon="17.33173">
        <ele>265</ele>
        <time>2016-07-16T13:46:06Z</time>
      </trkpt>
      <trkpt lat="42.94373" lon="17.33182">
        <ele>265</ele>
        <time>2016-07-16T13:48:06Z</time>
      </trkpt>
      <trkpt lat="42.9435" lon="17.33202">
        <ele>264</ele>
        <time>2016-07-16T13:50:06Z</time>
      </trkpt>
      <trkpt lat="42.94337" lon="17.33214">
        <ele>264</ele>
        <time>2016-07-16T13:52:06Z</time>
      </trkpt>
      <trkpt lat="42.94311" lon="17.33237">
        <ele>264</ele>
        <time>2016-07-16T13:54:06Z</time>
      </trkpt>
      <trkpt lat="42.94309" lon="17.33239">
        <ele>264</ele>
        <time>2016-07-16T13:56:06Z</time>
      </trkpt>
      <trkpt lat="42.94295" lon="17.33255">
        <ele>264</ele>
        <time>2016-07-16T13:58:06Z</time>
      </trkpt>
      <trkpt lat="42.94286" lon="17.33266">
        <ele>264</ele>
        <time>2016-07-16T14:00:06Z</time>
      </trkpt>
      <trkpt lat="42.94269" lon="17.33291">
        <ele>264</ele>
        <time>2016-07-16T14:02:06Z</time>
      </trkpt>
      <trkpt lat="42.94245" lon="17.33333">
        <ele>263</ele>
        <time>2016-07-16T14:04:06Z</time>
      </trkpt>
      <trkpt lat="42.94234" lon="17.33353">
        <ele>263</ele>
        <time>2016-07-16T14:06:06Z</time>
      </trkpt>
      <trkpt lat="42.94205" lon="17.33407">
        <ele>263</ele>
        <time>2016-07-16T14:08:06Z</time>
      </trkpt>
      <trkpt lat="42.94197" lon="17.33421">
        <ele>263</ele>
        <time>2016-07-16T14:10:06Z</time>
      </trkpt>
      <trkpt lat="42.94167" lon="17.33479">
        <ele>262</ele>
        <time>2016-07-16T14:12:06Z</time>
      </trkpt>
      <trkpt lat="42.94151" lon="17.33508">
        <ele>262</ele>
        <time>2016-07-16T14:14:06Z</time>
      </trkpt>
      <trkpt lat="42.94145" lon="17.33533">
        <ele>262</ele>
        <time>2016-07-16T14:16:06Z</time>
      </trkpt>
      <trkpt lat="42.94142" lon="17.33553">
        <ele>262</ele>
        <time>2016-07-16T14:18:06Z</time>
      </trkpt>
      <trkpt lat="42.94141" lon="17.33573">
        <ele>262</ele>
        <time>2016-07-16T14:20:06Z</time>
      </trkpt>
      <trkpt lat="42.9414" lon="17.33594">
        <ele>262</ele>
        <time>2016-07-16T14:22:06Z</time>
      </trkpt>
      <trkpt lat="42.94141" lon="17.33615">
        <ele>262</ele>
        <time>2016-07-16T14:24:06Z</time>
      </trkpt>
      <trkpt lat="42.94142" lon="17.33638">
        <ele>261</ele>
        <time>2016-07-16T14:26:06Z</time>
      </trkpt>
      <trkpt lat="42.94144" lon="17.3366">
        <ele>261</ele>
        <time>2016-07-16T14:28:06Z</time>
      </trkpt>
      <trkpt lat="42.94145" lon="17.3367">
        <ele>261</ele>
        <time>2016-07-16T14:30:06Z</time>
      </trkpt>
      <trkpt lat="42.94147" lon="17.33682">
        <ele>261</ele>
        <time>2016-07-16T14:32:06Z</time>
      </trkpt>
      <trkpt lat="42.94155" lon="17.33713">
        <ele>260</ele>
        <time>2016-07-16T14:34:06Z</time>
      </trkpt>
      <trkpt lat="42.9417" lon="17.3377">
        <ele>260</ele>
        <time>2016-07-16T14:36:06Z</time>
      </trkpt>
      <trkpt lat="42.94185" lon="17.33818">
        <ele>261</ele>
        <time>2016-07-16T14:38:06Z</time>
      </trkpt>
      <trkpt lat="42.94199" lon="17.33866">
        <ele>262</ele>
        <time>2016-07-16T14:40:06Z</time>
      </trkpt>
      <trkpt lat="42.94216" lon="17.33921">
        <ele>263</ele>
        <time>2016-07-16T14:42:06Z</time>
      </trkpt>
      <trkpt lat="42.94227" lon="17.33959">
        <ele>264</ele>
        <time>2016-07-16T14:44:06Z</time>
      </trkpt>
      <trkpt lat="42.94249" lon="17.34036">
        <ele>266</ele>
        <time>2016-07-16T14:46:06Z</time>
      </trkpt>
      <trkpt lat="42.94279" lon="17.34139">
        <ele>265</ele>
        <time>2016-07-16T14:48:06Z</time>
      </trkpt>
      <trkpt lat="42.94305" lon="17.3423">
        <ele>267</ele>
        <time>2016-07-16T14:50:06Z</time>
      </trkpt>
      <trkpt lat="42.94332" lon="17.34321">
        <ele>268</ele>
        <time>2016-07-16T14:52:06Z</time>
      </trkpt>
      <trkpt lat="42.94346" lon="17.34371">
        <ele>269</ele>
        <time>2016-07-16T14:54:06Z</time>
      </trkpt>
      <trkpt lat="42.94367" lon="17.34447">
        <ele>271</ele>
        <time>2016-07-16T14:56:06Z</time>
      </trkpt>
      <trkpt lat="42.94377" lon="17.34483">
        <ele>272</ele>
        <time>2016-07-16T14:58:06Z</time>
      </trkpt>
      <trkpt lat="42.94391" lon="17.34535">
        <ele>274</ele>
        <time>2016-07-16T15:00:06Z</time>
      </trkpt>
      <trkpt lat="42.944" lon="17.34578">
        <ele>275</ele>
        <time>2016-07-16T15:02:06Z</time>
      </trkpt>
      <trkpt lat="42.9441" lon="17.3462">
        <ele>276</ele>
        <time>2016-07-16T15:04:06Z</time>
      </trkpt>
      <trkpt lat="42.94415" lon="17.34645">
        <ele>276</ele>
        <time>2016-07-16T15:06:06Z</time>
      </trkpt>
      <trkpt lat="42.94419" lon="17.34663">
        <ele>276</ele>
        <time>2016-07-16T15:08:06Z</time>
      </trkpt>
      <trkpt lat="42.94423" lon="17.34688">
        <ele>277</ele>
        <time>2016-07-16T15:10:06Z</time>
      </trkpt>
      <trkpt lat="42.94429" lon="17.34734">
        <ele>278</ele>
        <time>2016-07-16T15:12:06Z</time>
      </trkpt>
      <trkpt lat="42.94433" lon="17.34772">
        <ele>279</ele>
        <time>2016-07-16T15:14:06Z</time>
      </trkpt>
      <trkpt lat="42.94439" lon="17.3483">
        <ele>281</ele>
        <time>2016-07-16T15:16:06Z</time>
      </trkpt>
      <trkpt lat="42.94444" lon="17.3489">
        <ele>280</ele>
        <time>2016-07-16T15:18:06Z</time>
      </trkpt>
      <trkpt lat="42.94449" lon="17.34944">
        <ele>280</ele>
        <time>2016-07-16T15:20:06Z</time>
      </trkpt>
      <trkpt lat="42.9445" lon="17.3497">
        <ele>281</ele>
        <time>2016-07-16T15:22:06Z</time>
      </trkpt>
      <trkpt lat="42.94452" lon="17.35012">
        <ele>281</ele>
        <time>2016-07-16T15:24:06Z</time>
      </trkpt>
      <trkpt lat="42.94455" lon="17.35069">
        <ele>282</ele>
        <time>2016-07-16T15:26:06Z</time>
      </trkpt>
      <trkpt lat="42.9446" lon="17.35162">
        <ele>284</ele>
        <time>2016-07-16T15:28:06Z</time>
      </trkpt>
      <trkpt lat="42.94465" lon="17.35243">
        <ele>285</ele>
        <time>2016-07-16T15:30:06Z</time>
      </trkpt>
      <trkpt lat="42.9447" lon="17.35282">
        <ele>285</ele>
        <time>2016-07-16T15:32:06Z</time>
      </trkpt>
      <trkpt lat="42.94477" lon="17.35318">
        <ele>285</ele>
        <time>2016-07-16T15:34:06Z</time>
      </trkpt>
      <trkpt lat="42.94491" lon="17.35389">
        <ele>286</ele>
        <time>2016-07-16T15:36:06Z</time>
      </trkpt>
      <trkpt lat="42.94502" lon="17.35441">
        <ele>287</ele>
        <time>2016-07-16T15:38:06Z</time>
      </trkpt>
      <trkpt lat="42.94509" lon="17.35483">
        <ele>288</ele>
        <time>2016-07-16T15:40:06Z</time>
      </trkpt>
      <trkpt lat="42.94511" lon="17.35501">
        <ele>288</ele>
        <time>2016-07-16T15:42:06Z</time>
      </trkpt>
      <trkpt lat="42.94514" lon="17.35528">
        <ele>289</ele>
        <time>2016-07-16T15:44:06Z</time>
      </trkpt>
      <trkpt lat="42.94516" lon="17.35563">
        <ele>290</ele>
        <time>2016-07-16T15:46:06Z</time>
      </trkpt>
      <trkpt lat="42.94515" lon="17.35597">
        <ele>292</ele>
        <time>2016-07-16T15:48:06Z</time>
      </trkpt>
      <trkpt lat="42.94513" lon="17.35636">
        <ele>294</ele>
        <time>2016-07-16T15:50:06Z</time>
      </trkpt>
      <trkpt lat="42.94508" lon="17.35677">
        <ele>296</ele>
        <time>2016-07-16T15:52:06Z</time>
      </trkpt>
      <trkpt lat="42.94471" lon="17.35873">
        <ele>306</ele>
        <time>2016-07-16T15:54:06Z</time>
      </trkpt>
      <trkpt lat="42.94458" lon="17.35943">
        <ele>309</ele>
        <time>2016-07-16T15:56:06Z</time>
      </trkpt>
      <trkpt lat="42.94445" lon="17.36016">
        <ele>313</ele>
        <time>2016-07-16T15:58:06Z</time>
      </trkpt>
      <trkpt lat="42.94437" lon="17.36061">
        <ele>315</ele>
        <time>2016-07-16T16:00:06Z</time>
      </trkpt>
      <trkpt lat="42.94432" lon="17.36081">
        <ele>316</ele>
        <time>2016-07-16T16:02:06Z</time>
      </trkpt>
      <trkpt lat="42.9443" lon="17.36089">
        <ele>316</ele>
        <time>2016-07-16T16:04:06Z</time>
      </trkpt>
      <trkpt lat="42.94426" lon="17.36099">
        <ele>317</ele>
        <time>2016-07-16T16:06:06Z</time>
      </trkpt>
      <trkpt lat="42.94422" lon="17.36107">
        <ele>317</ele>
        <time>2016-07-16T16:08:06Z</time>
      </trkpt>
      <trkpt lat="42.94415" lon="17.36118">
        <ele>318</ele>
        <time>2016-07-16T16:10:06Z</time>
      </trkpt>
      <trkpt lat="42.94409" lon="17.36125">
        <ele>319</ele>
        <time>2016-07-16T16:12:06Z</time>
      </trkpt>
      <trkpt lat="42.94407" lon="17.36128">
        <ele>319</ele>
        <time>2016-07-16T16:14:06Z</time>
      </trkpt>
      <trkpt lat="42.94403" lon="17.36131">
        <ele>319</ele>
        <time>2016-07-16T16:16:06Z</time>
      </trkpt>
      <trkpt lat="42.94399" lon="17.36135">
        <ele>320</ele>
        <time>2016-07-16T16:18:06Z</time>
      </trkpt>
      <trkpt lat="42.94395" lon="17.36138">
        <ele>320</ele>
        <time>2016-07-16T16:20:06Z</time>
      </trkpt>
      <trkpt lat="42.94392" lon="17.36141">
        <ele>320</ele>
        <time>2016-07-16T16:22:06Z</time>
      </trkpt>
      <trkpt lat="42.94388" lon="17.36144">
        <ele>320</ele>
        <time>2016-07-16T16:24:06Z</time>
      </trkpt>
      <trkpt lat="42.94384" lon="17.36147">
        <ele>321</ele>
        <time>2016-07-16T16:26:06Z</time>
      </trkpt>
      <trkpt lat="42.9438" lon="17.3615">
        <ele>321</ele>
        <time>2016-07-16T16:28:06Z</time>
      </trkpt>
      <trkpt lat="42.94376" lon="17.36153">
        <ele>321</ele>
        <time>2016-07-16T16:30:06Z</time>
      </trkpt>
      <trkpt lat="42.94372" lon="17.36155">
        <ele>322</ele>
        <time>2016-07-16T16:32:06Z</time>
      </trkpt>
      <trkpt lat="42.94348" lon="17.3617">
        <ele>324</ele>
        <time>2016-07-16T16:34:06Z</time>
      </trkpt>
      <trkpt lat="42.94341" lon="17.36175">
        <ele>325</ele>
        <time>2016-07-16T16:36:06Z</time>
      </trkpt>
      <trkpt lat="42.94309" lon="17.36196">
        <ele>327</ele>
        <time>2016-07-16T16:38:06Z</time>
      </trkpt>
      <trkpt lat="42.94287" lon="17.3621">
        <ele>330</ele>
        <time>2016-07-16T16:40:06Z</time>
      </trkpt>
      <trkpt lat="42.94283" lon="17.36214">
        <ele>330</ele>
        <time>2016-07-16T16:42:06Z</time>
      </trkpt>
      <trkpt lat="42.94256" lon="17.36239">
        <ele>334</ele>
        <time>2016-07-16T16:44:06Z</time>
      </trkpt>
      <trkpt lat="42.94242" lon="17.3625">
        <ele>336</ele>
        <time>2016-07-16T16:46:06Z</time>
      </trkpt>
      <trkpt lat="42.94237" lon="17.36254">
        <ele>337</ele>
        <time>2016-07-16T16:48:06Z</time>
      </trkpt>
      <trkpt lat="42.94234" lon="17.36256">
        <ele>337</ele>
        <time>2016-07-16T16:50:06Z</time>
      </trkpt>
      <trkpt lat="42.94232" lon="17.36258">
        <ele>337</ele>
        <time>2016-07-16T16:52:06Z</time>
      </trkpt>
      <trkpt lat="42.94229" lon="17.36259">
        <ele>337</ele>
        <time>2016-07-16T16:54:06Z</time>
      </trkpt>
      <trkpt lat="42.94219" lon="17.36262">
        <ele>338</ele>
        <time>2016-07-16T16:56:06Z</time>
      </trkpt>
      <trkpt lat="42.94204" lon="17.36269">
        <ele>339</ele>
        <time>2016-07-16T16:58:06Z</time>
      </trkpt>
      <trkpt lat="42.94185" lon="17.36279">
        <ele>340</ele>
        <time>2016-07-16T17:00:06Z</time>
      </trkpt>
      <trkpt lat="42.94177" lon="17.36284">
        <ele>341</ele>
        <time>2016-07-16T17:02:06Z</time>
      </trkpt>
      <trkpt lat="42.94176" lon="17.36285">
        <ele>341</ele>
        <time>2016-07-16T17:04:06Z</time>
      </trkpt>
      <trkpt lat="42.94168" lon="17.36295">
        <ele>342</ele>
        <time>2016-07-16T17:06:06Z</time>
      </trkpt>
      <trkpt lat="42.9416" lon="17.36306">
        <ele>343</ele>
        <time>2016-07-16T17:08:06Z</time>
      </trkpt>
      <trkpt lat="42.94149" lon="17.36328">
        <ele>345</ele>
        <time>2016-07-16T17:10:06Z</time>
      </trkpt>
      <trkpt lat="42.94136" lon="17.36356">
        <ele>346</ele>
        <time>2016-07-16T17:12:06Z</time>
      </trkpt>
      <trkpt lat="42.94126" lon="17.36379">
        <ele>347</ele>
        <time>2016-07-16T17:14:06Z</time>
      </trkpt>
      <trkpt lat="42.94117" lon="17.364">
        <ele>347</ele>
        <time>2016-07-16T17:16:06Z</time>
      </trkpt>
      <trkpt lat="42.94109" lon="17.36421">
        <ele>348</ele>
        <time>2016-07-16T17:18:06Z</time>
      </trkpt>
      <trkpt lat="42.94104" lon="17.36438">
        <ele>348</ele>
        <time>2016-07-16T17:20:06Z</time>
      </trkpt>
      <trkpt lat="42.94103" lon="17.36444">
        <ele>348</ele>
        <time>2016-07-16T17:22:06Z</time>
      </trkpt>
      <trkpt lat="42.94102" lon="17.36449">
        <ele>348</ele>
        <time>2016-07-16T17:24:06Z</time>
      </trkpt>
      <trkpt lat="42.94101" lon="17.36452">
        <ele>348</ele>
        <time>2016-07-16T17:26:06Z</time>
      </trkpt>
      <trkpt lat="42.941" lon="17.36456">
        <ele>348</ele>
        <time>2016-07-16T17:28:06Z</time>
      </trkpt>
      <trkpt lat="42.94099" lon="17.36464">
        <ele>349</ele>
        <time>2016-07-16T17:30:06Z</time>
      </trkpt>
      <trkpt lat="42.94096" lon="17.36487">
        <ele>350</ele>
        <time>2016-07-16T17:32:06Z</time>
      </trkpt>
      <trkpt lat="42.94094" lon="17.36515">
        <ele>350</ele>
        <time>2016-07-16T17:34:06Z</time>
      </trkpt>
      <trkpt lat="42.94094" lon="17.36537">
        <ele>351</ele>
        <time>2016-07-16T17:36:06Z</time>
      </trkpt>
      <trkpt lat="42.94093" lon="17.36557">
        <ele>351</ele>
        <time>2016-07-16T17:38:06Z</time>
      </trkpt>
      <trkpt lat="42.94095" lon="17.3657">
        <ele>352</ele>
        <time>2016-07-16T17:40:06Z</time>
      </trkpt>
      <trkpt lat="42.94097" lon="17.36583">
        <ele>352</ele>
        <time>2016-07-16T17:42:06Z</time>
      </trkpt>
      <trkpt lat="42.94101" lon="17.36596">
        <ele>353</ele>
        <time>2016-07-16T17:44:06Z</time>
      </trkpt>
      <trkpt lat="42.94106" lon="17.3661">
        <ele>353</ele>
        <time>2016-07-16T17:46:06Z</time>
      </trkpt>
      <trkpt lat="42.94108" lon="17.36614">
        <ele>353</ele>
        <time>2016-07-16T17:48:06Z</time>
      </trkpt>
      <trkpt lat="42.94112" lon="17.36623">
        <ele>353</ele>
        <time>2016-07-16T17:50:06Z</time>
      </trkpt>
      <trkpt lat="42.9412" lon="17.36636">
        <ele>354</ele>
        <time>2016-07-16T17:52:06Z</time>
      </trkpt>
      <trkpt lat="42.94132" lon="17.36651">
        <ele>355</ele>
        <time>2016-07-16T17:54:06Z</time>
      </trkpt>
      <trkpt lat="42.94145" lon="17.36666">
        <ele>356</ele>
        <time>2016-07-16T17:56:06Z</time>
      </trkpt>
      <trkpt lat="42.94154" lon="17.36677">
        <ele>357</ele>
        <time>2016-07-16T17:58:06Z</time>
      </trkpt>
      <trkpt lat="42.94164" lon="17.36691">
        <ele>358</ele>
        <time>2016-07-16T18:00:06Z</time>
      </trkpt>
      <trkpt lat="42.94172" lon="17.36707">
        <ele>358</ele>
        <time>2016-07-16T18:02:06Z</time>
      </trkpt>
      <trkpt lat="42.94179" lon="17.36723">
        <ele>359</ele>
        <time>2016-07-16T18:04:06Z</time>
      </trkpt>
      <trkpt lat="42.94185" lon="17.36739">
        <ele>359</ele>
        <time>2016-07-16T18:06:06Z</time>
      </trkpt>
      <trkpt lat="42.9419" lon="17.36757">
        <ele>360</ele>
        <time>2016-07-16T18:08:06Z</time>
      </trkpt>
      <trkpt lat="42.94194" lon="17.36775">
        <ele>360</ele>
        <time>2016-07-16T18:10:06Z</time>
      </trkpt>
      <trkpt lat="42.94196" lon="17.36785">
        <ele>361</ele>
        <time>2016-07-16T18:12:06Z</time>
      </trkpt>
      <trkpt lat="42.94198" lon="17.36802">
        <ele>361</ele>
        <time>2016-07-16T18:14:06Z</time>
      </trkpt>
      <trkpt lat="42.94198" lon="17.36811">
        <ele>361</ele>
        <time>2016-07-16T18:16:06Z</time>
      </trkpt>
      <trkpt lat="42.94198" lon="17.36825">
        <ele>361</ele>
        <time>2016-07-16T18:18:06Z</time>
      </trkpt>
      <trkpt lat="42.94195" lon="17.36849">
        <ele>362</ele>
        <time>2016-07-16T18:20:06Z</time>
      </trkpt>
      <trkpt lat="42.9419" lon="17.36874">
        <ele>363</ele>
        <time>2016-07-16T18:22:06Z</time>
      </trkpt>
      <trkpt lat="42.94184" lon="17.36894">
        <ele>364</ele>
        <time>2016-07-16T18:24:06Z</time>
      </trkpt>
      <trkpt lat="42.94177" lon="17.36914">
        <ele>365</ele>
        <time>2016-07-16T18:26:06Z</time>
      </trkpt>
      <trkpt lat="42.94162" lon="17.36958">
        <ele>367</ele>
        <time>2016-07-16T18:28:06Z</time>
      </trkpt>
      <trkpt lat="42.94156" lon="17.36974">
        <ele>367</ele>
        <time>2016-07-16T18:30:06Z</time>
      </trkpt>
      <trkpt lat="42.9414" lon="17.37025">
        <ele>370</ele>
        <time>2016-07-16T18:32:06Z</time>
      </trkpt>
      <trkpt lat="42.94131" lon="17.37059">
        <ele>371</ele>
        <time>2016-07-16T18:34:06Z</time>
      </trkpt>
      <trkpt lat="42.94123" lon="17.37088">
        <ele>373</ele>
        <time>2016-07-16T18:36:06Z</time>
      </trkpt>
      <trkpt lat="42.94092" lon="17.37199">
        <ele>379</ele>
        <time>2016-07-16T18:38:06Z</time>
      </trkpt>
      <trkpt lat="42.94074" lon="17.37266">
        <ele>386</ele>
        <time>2016-07-16T18:40:06Z</time>
      </trkpt>
      <trkpt lat="42.94055" lon="17.37331">
        <ele>396</ele>
        <time>2016-07-16T18:42:06Z</time>
      </trkpt>
      <trkpt lat="42.94037" lon="17.37398">
        <ele>399</ele>
        <time>2016-07-16T18:44:06Z</time>
      </trkpt>
      <trkpt lat="42.94026" lon="17.37446">
        <ele>398</ele>
        <time>2016-07-16T18:46:06Z</time>
      </trkpt>
      <trkpt lat="42.94021" lon="17.37466">
        <ele>396</ele>
        <time>2016-07-16T18:48:06Z</time>
      </trkpt>
      <trkpt lat="42.94011" lon="17.37509">
        <ele>392</ele>
        <time>2016-07-16T18:50:06Z</time>
      </trkpt>
      <trkpt lat="42.93999" lon="17.3756">
        <ele>389</ele>
        <time>2016-07-16T18:52:06Z</time>
      </trkpt>
      <trkpt lat="42.93991" lon="17.37597">
        <ele>386</ele>
        <time>2016-07-16T18:54:06Z</time>
      </trkpt>
      <trkpt lat="42.93988" lon="17.37622">
        <ele>385</ele>
        <time>2016-07-16T18:56:06Z</time>
      </trkpt>
      <trkpt lat="42.93986" lon="17.37662">
        <ele>383</ele>
        <time>2016-07-16T18:58:06Z</time>
      </trkpt>
      <trkpt lat="42.93985" lon="17.3768">
        <ele>382</ele>
        <time>2016-07-16T19:00:06Z</time>
      </trkpt>
      <trkpt lat="42.93985" lon="17.37691">
        <ele>382</ele>
        <time>2016-07-16T19:02:06Z</time>
      </trkpt>
      <trkpt lat="42.93984" lon="17.37706">
        <ele>382</ele>
        <time>2016-07-16T19:04:06Z</time>
      </trkpt>
      <trkpt lat="42.93983" lon="17.37713">
        <ele>381</ele>
        <time>2016-07-16T19:06:06Z</time>
      </trkpt>
      <trkpt lat="42.93982" lon="17.37719">
        <ele>381</ele>
        <time>2016-07-16T19:08:06Z</time>
      </trkpt>
      <trkpt lat="42.93981" lon="17.37725">
        <ele>380</ele>
        <time>2016-07-16T19:10:06Z</time>
      </trkpt>
      <trkpt lat="42.93979" lon="17.37732">
        <ele>379</ele>
        <time>2016-07-16T19:12:06Z</time>
      </trkpt>
      <trkpt lat="42.93975" lon="17.37744">
        <ele>378</ele>
        <time>2016-07-16T19:14:06Z</time>
      </trkpt>
      <trkpt lat="42.93969" lon="17.3776">
        <ele>376</ele>
        <time>2016-07-16T19:16:06Z</time>
      </trkpt>
      <trkpt lat="42.93965" lon="17.37771">
        <ele>375</ele>
        <time>2016-07-16T19:18:06Z</time>
      </trkpt>
      <trkpt lat="42.93963" lon="17.37782">
        <ele>375</ele>
        <time>2016-07-16T19:20:06Z</time>
      </trkpt>
      <trkpt lat="42.9396" lon="17.37801">
        <ele>375</ele>
        <time>2016-07-16T19:22:06Z</time>
      </trkpt>
      <trkpt lat="42.93957" lon="17.37823">
        <ele>375</ele>
        <time>2016-07-16T19:24:06Z</time>
      </trkpt>
      <trkpt lat="42.93957" lon="17.37832">
        <ele>376</ele>
        <time>2016-07-16T19:26:06Z</time>
      </trkpt>
      <trkpt lat="42.93956" lon="17.3784">
        <ele>376</ele>
        <time>2016-07-16T19:28:06Z</time>
      </trkpt>
      <trkpt lat="42.93955" lon="17.37844">
        <ele>377</ele>
        <time>2016-07-16T19:30:06Z</time>
      </trkpt>
      <trkpt lat="42.93953" lon="17.37853">
        <ele>377</ele>
        <time>2016-07-16T19:32:06Z</time>
      </trkpt>
      <trkpt lat="42.93947" lon="17.37867">
        <ele>376</ele>
        <time>2016-07-16T19:34:06Z</time>
      </trkpt>
      <trkpt lat="42.93938" lon="17.37885">
        <ele>373</ele>
        <time>2016-07-16T19:36:06Z</time>
      </trkpt>
      <trkpt lat="42.93917" lon="17.37927">
        <ele>366</ele>
        <time>2016-07-16T19:38:06Z</time>
      </trkpt>
      <trkpt lat="42.93902" lon="17.37956">
        <ele>362</ele>
        <time>2016-07-16T19:40:06Z</time>
      </trkpt>
      <trkpt lat="42.93897" lon="17.37966">
        <ele>361</ele>
        <time>2016-07-16T19:42:06Z</time>
      </trkpt>
      <trkpt lat="42.93893" lon="17.37975">
        <ele>359</ele>
        <time>2016-07-16T19:44:06Z</time>
      </trkpt>
      <trkpt lat="42.9389" lon="17.3799">
        <ele>359</ele>
        <time>2016-07-16T19:46:06Z</time>
      </trkpt>
      <trkpt lat="42.93887" lon="17.38004">
        <ele>359</ele>
        <time>2016-07-16T19:48:06Z</time>
      </trkpt>
      <trkpt lat="42.93886" lon="17.3802">
        <ele>360</ele>
        <time>2016-07-16T19:50:06Z</time>
      </trkpt>
      <trkpt lat="42.93882" lon="17.3805">
        <ele>361</ele>
        <time>2016-07-16T19:52:06Z</time>
      </trkpt>
      <trkpt lat="42.93879" lon="17.38063">
        <ele>360</ele>
        <time>2016-07-16T19:54:06Z</time>
      </trkpt>
      <trkpt lat="42.93876" lon="17.38074">
        <ele>360</ele>
        <time>2016-07-16T19:56:06Z</time>
      </trkpt>
      <trkpt lat="42.93869" lon="17.38093">
        <ele>358</ele>
        <time>2016-07-16T19:58:06Z</time>
      </trkpt>
      <trkpt lat="42.93861" lon="17.38114">
        <ele>355</ele>
        <time>2016-07-16T20:00:06Z</time>
      </trkpt>
      <trkpt lat="42.9385" lon="17.38137">
        <ele>351</ele>
        <time>2016-07-16T20:02:06Z</time>
      </trkpt>
      <trkpt lat="42.93846" lon="17.38147">
        <ele>349</ele>
        <time>2016-07-16T20:04:06Z</time>
      </trkpt>
      <trkpt lat="42.93842" lon="17.38161">
        <ele>348</ele>
        <time>2016-07-16T20:06:06Z</time>
      </trkpt>
      <trkpt lat="42.9384" lon="17.38175">
        <ele>347</ele>
        <time>2016-07-16T20:08:06Z</time>
      </trkpt>
      <trkpt lat="42.93839" lon="17.38194">
        <ele>347</ele>
        <time>2016-07-16T20:10:06Z</time>
      </trkpt>
      <trkpt lat="42.93838" lon="17.38207">
        <ele>347</ele>
        <time>2016-07-16T20:12:06Z</time>
      </trkpt>
      <trkpt lat="42.93837" lon="17.38221">
        <ele>347</ele>
        <time>2016-07-16T20:14:06Z</time>
      </trkpt>
      <trkpt lat="42.93835" lon="17.38238">
        <ele>346</ele>
        <time>2016-07-16T20:16:06Z</time>
      </trkpt>
      <trkpt lat="42.93831" lon="17.38258">
        <ele>345</ele>
        <time>2016-07-16T20:18:06Z</time>
      </trkpt>
      <trkpt lat="42.93828" lon="17.38276">
        <ele>345</ele>
        <time>2016-07-16T20:20:06Z</time>
      </trkpt>
      <trkpt lat="42.93823" lon="17.38292">
        <ele>345</ele>
        <time>2016-07-16T20:22:06Z</time>
      </trkpt>
      <trkpt lat="42.9382" lon="17.38303">
        <ele>344</ele>
        <time>2016-07-16T20:24:06Z</time>
      </trkpt>
      <trkpt lat="42.93815" lon="17.38315">
        <ele>343</ele>
        <time>2016-07-16T20:26:06Z</time>
      </trkpt>
      <trkpt lat="42.93795" lon="17.38359">
        <ele>338</ele>
        <time>2016-07-16T20:28:06Z</time>
      </trkpt>
      <trkpt lat="42.93787" lon="17.38377">
        <ele>336</ele>
        <time>2016-07-16T20:30:06Z</time>
      </trkpt>
      <trkpt lat="42.93772" lon="17.3841">
        <ele>331</ele>
        <time>2016-07-16T20:32:06Z</time>
      </trkpt>
      <trkpt lat="42.93751" lon="17.38475">
        <ele>324</ele>
        <time>2016-07-16T20:34:06Z</time>
      </trkpt>
      <trkpt lat="42.93736" lon="17.3853">
        <ele>323</ele>
        <time>2016-07-16T20:36:06Z</time>
      </trkpt>
      <trkpt lat="42.93712" lon="17.38612">
        <ele>318</ele>
        <time>2016-07-16T20:38:06Z</time>
      </trkpt>
      <trkpt lat="42.93692" lon="17.38697">
        <ele>316</ele>
        <time>2016-07-16T20:40:06Z</time>
      </trkpt>
      <trkpt lat="42.93686" lon="17.38714">
        <ele>315</ele>
        <time>2016-07-16T20:42:06Z</time>
      </trkpt>
      <trkpt lat="42.93684" lon="17.38718">
        <ele>315</ele>
        <time>2016-07-16T20:44:06Z</time>
      </trkpt>
      <trkpt lat="42.93679" lon="17.38729">
        <ele>313</ele>
        <time>2016-07-16T20:46:06Z</time>
      </trkpt>
      <trkpt lat="42.93674" lon="17.38737">
        <ele>311</ele>
        <time>2016-07-16T20:48:06Z</time>
      </trkpt>
      <trkpt lat="42.93663" lon="17.38754">
        <ele>307</ele>
        <time>2016-07-16T20:50:06Z</time>
      </trkpt>
      <trkpt lat="42.93658" lon="17.38762">
        <ele>307</ele>
        <time>2016-07-16T20:52:06Z</time>
      </trkpt>
      <trkpt lat="42.93646" lon="17.38777">
        <ele>306</ele>
        <time>2016-07-16T20:54:06Z</time>
      </trkpt>
      <trkpt lat="42.93634" lon="17.38791">
        <ele>304</ele>
        <time>2016-07-16T20:56:06Z</time>
      </trkpt>
      <trkpt lat="42.93602" lon="17.38826">
        <ele>298</ele>
        <time>2016-07-16T20:58:06Z</time>
      </trkpt>
      <trkpt lat="42.93584" lon="17.38844">
        <ele>294</ele>
        <time>2016-07-16T21:00:06Z</time>
      </trkpt>
      <trkpt lat="42.93562" lon="17.38863">
        <ele>291</ele>
        <time>2016-07-16T21:02:06Z</time>
      </trkpt>
      <trkpt lat="42.93557" lon="17.38867">
        <ele>290</ele>
        <time>2016-07-16T21:04:06Z</time>
      </trkpt>
      <trkpt lat="42.93549" lon="17.38877">
        <ele>290</ele>
        <time>2016-07-16T21:06:06Z</time>
      </trkpt>
      <trkpt lat="42.9354" lon="17.38887">
        <ele>288</ele>
        <time>2016-07-16T21:08:06Z</time>
      </trkpt>
      <trkpt lat="42.93533" lon="17.38898">
        <ele>288</ele>
        <time>2016-07-16T21:10:06Z</time>
      </trkpt>
      <trkpt lat="42.93533" lon="17.38899">
        <ele>288</ele>
        <time>2016-07-16T21:12:06Z</time>
      </trkpt>
      <trkpt lat="42.93527" lon="17.3891">
        <ele>288</ele>
        <time>2016-07-16T21:14:06Z</time>
      </trkpt>
      <trkpt lat="42.93521" lon="17.38921">
        <ele>287</ele>
        <time>2016-07-16T21:16:06Z</time>
      </trkpt>
      <trkpt lat="42.93517" lon="17.38933">
        <ele>288</ele>
        <time>2016-07-16T21:18:06Z</time>
      </trkpt>
      <trkpt lat="42.93482" lon="17.39003">
        <ele>283</ele>
        <time>2016-07-16T21:20:06Z</time>
      </trkpt>
      <trkpt lat="42.93453" lon="17.39061">
        <ele>280</ele>
        <time>2016-07-16T21:22:06Z</time>
      </trkpt>
      <trkpt lat="42.93451" lon="17.39065">
        <ele>280</ele>
        <time>2016-07-16T21:24:06Z</time>
      </trkpt>
      <trkpt lat="42.93423" lon="17.39121">
        <ele>278</ele>
        <time>2016-07-16T21:26:06Z</time>
      </trkpt>
      <trkpt lat="42.93409" lon="17.39143">
        <ele>276</ele>
        <time>2016-07-16T21:28:06Z</time>
      </trkpt>
      <trkpt lat="42.9339" lon="17.39168">
        <ele>273</ele>
        <time>2016-07-16T21:30:06Z</time>
      </trkpt>
      <trkpt lat="42.93329" lon="17.39239">
        <ele>262</ele>
        <time>2016-07-16T21:32:06Z</time>
      </trkpt>
      <trkpt lat="42.93318" lon="17.39253">
        <ele>261</ele>
        <time>2016-07-16T21:34:06Z</time>
      </trkpt>
      <trkpt lat="42.93313" lon="17.3926">
        <ele>261</ele>
        <time>2016-07-16T21:36:06Z</time>
      </trkpt>
      <trkpt lat="42.93307" lon="17.39269">
        <ele>261</ele>
        <time>2016-07-16T21:38:06Z</time>
      </trkpt>
      <trkpt lat="42.93288" lon="17.393">
        <ele>261</ele>
        <time>2016-07-16T21:40:06Z</time>
      </trkpt>
      <trkpt lat="42.93272" lon="17.39324">
        <ele>259</ele>
        <time>2016-07-16T21:42:06Z</time>
      </trkpt>
      <trkpt lat="42.93262" lon="17.3934">
        <ele>258</ele>
        <time>2016-07-16T21:44:06Z</time>
      </trkpt>
      <trkpt lat="42.93254" lon="17.39352">
        <ele>258</ele>
        <time>2016-07-16T21:46:06Z</time>
      </trkpt>
      <trkpt lat="42.93247" lon="17.39361">
        <ele>258</ele>
        <time>2016-07-16T21:48:06Z</time>
      </trkpt>
      <trkpt lat="42.93243" lon="17.39364">
        <ele>257</ele>
        <time>2016-07-16T21:50:06Z</time>
      </trkpt>
      <trkpt lat="42.93238" lon="17.3937">
        <ele>258</ele>
        <time>2016-07-16T21:52:06Z</time>
      </trkpt>
      <trkpt lat="42.93233" lon="17.39375">
        <ele>258</ele>
        <time>2016-07-16T21:54:06Z</time>
      </trkpt>
      <trkpt lat="42.93223" lon="17.39383">
        <ele>257</ele>
        <time>2016-07-16T21:56:06Z</time>
      </trkpt>
      <trkpt lat="42.93198" lon="17.394">
        <ele>254</ele>
        <time>2016-07-16T21:58:06Z</time>
      </trkpt>
      <trkpt lat="42.93171" lon="17.39416">
        <ele>250</ele>
        <time>2016-07-16T22:00:06Z</time>
      </trkpt>
      <trkpt lat="42.93133" lon="17.3944">
        <ele>246</ele>
        <time>2016-07-16T22:02:06Z</time>
      </trkpt>
      <trkpt lat="42.93094" lon="17.39465">
        <ele>241</ele>
        <time>2016-07-16T22:04:06Z</time>
      </trkpt>
      <trkpt lat="42.93064" lon="17.39485">
        <ele>237</ele>
        <time>2016-07-16T22:06:06Z</time>
      </trkpt>
      <trkpt lat="42.93052" lon="17.39493">
        <ele>235</ele>
        <time>2016-07-16T22:08:06Z</time>
      </trkpt>
      <trkpt lat="42.93033" lon="17.3951">
        <ele>233</ele>
        <time>2016-07-16T22:10:06Z</time>
      </trkpt>
      <trkpt lat="42.93008" lon="17.39535">
        <ele>232</ele>
        <time>2016-07-16T22:12:06Z</time>
      </trkpt>
      <trkpt lat="42.92983" lon="17.39559">
        <ele>230</ele>
        <time>2016-07-16T22:14:06Z</time>
      </trkpt>
      <trkpt lat="42.92953" lon="17.39588">
        <ele>227</ele>
        <time>2016-07-16T22:16:06Z</time>
      </trkpt>
      <trkpt lat="42.92918" lon="17.39629">
        <ele>224</ele>
        <time>2016-07-16T22:18:06Z</time>
      </trkpt>
      <trkpt lat="42.92911" lon="17.39636">
        <ele>223</ele>
        <time>2016-07-16T22:20:06Z</time>
      </trkpt>
      <trkpt lat="42.92893" lon="17.39659">
        <ele>221</ele>
        <time>2016-07-16T22:22:06Z</time>
      </trkpt>
      <trkpt lat="42.9287" lon="17.39695">
        <ele>220</ele>
        <time>2016-07-16T22:24:06Z</time>
      </trkpt>
      <trkpt lat="42.92853" lon="17.39721">
        <ele>219</ele>
        <time>2016-07-16T22:26:06Z</time>
      </trkpt>
      <trkpt lat="42.92845" lon="17.39733">
        <ele>219</ele>
        <time>2016-07-16T22:28:06Z</time>
      </trkpt>
      <trkpt lat="42.92841" lon="17.39738">
        <ele>218</ele>
        <time>2016-07-16T22:30:06Z</time>
      </trkpt>
      <trkpt lat="42.92832" lon="17.39747">
        <ele>217</ele>
        <time>2016-07-16T22:32:06Z</time>
      </trkpt>
      <trkpt lat="42.92826" lon="17.39751">
        <ele>216</ele>
        <time>2016-07-16T22:34:06Z</time>
      </trkpt>
      <trkpt lat="42.92822" lon="17.39753">
        <ele>216</ele>
        <time>2016-07-16T22:36:06Z</time>
      </trkpt>
      <trkpt lat="42.92813" lon="17.39758">
        <ele>215</ele>
        <time>2016-07-16T22:38:06Z</time>
      </trkpt>
      <trkpt lat="42.92792" lon="17.39768">
        <ele>212</ele>
        <time>2016-07-16T22:40:06Z</time>
      </trkpt>
      <trkpt lat="42.92754" lon="17.39784">
        <ele>207</ele>
        <time>2016-07-16T22:42:06Z</time>
      </trkpt>
      <trkpt lat="42.92707" lon="17.39804">
        <ele>201</ele>
        <time>2016-07-16T22:44:06Z</time>
      </trkpt>
      <trkpt lat="42.92678" lon="17.39818">
        <ele>196</ele>
        <time>2016-07-16T22:46:06Z</time>
      </trkpt>
      <trkpt lat="42.92645" lon="17.39843">
        <ele>194</ele>
        <time>2016-07-16T22:48:06Z</time>
      </trkpt>
      <trkpt lat="42.92615" lon="17.39869">
        <ele>190</ele>
        <time>2016-07-16T22:50:06Z</time>
      </trkpt>
      <trkpt lat="42.92603" lon="17.39883">
        <ele>189</ele>
        <time>2016-07-16T22:52:06Z</time>
      </trkpt>
      <trkpt lat="42.92588" lon="17.39907">
        <ele>187</ele>
        <time>2016-07-16T22:54:06Z</time>
      </trkpt>
      <trkpt lat="42.92577" lon="17.39928">
        <ele>186</ele>
        <time>2016-07-16T22:56:06Z</time>
      </trkpt>
      <trkpt lat="42.92559" lon="17.39973">
        <ele>187</ele>
        <time>2016-07-16T22:58:06Z</time>
      </trkpt>
      <trkpt lat="42.92547" lon="17.40012">
        <ele>186</ele>
        <time>2016-07-16T23:00:06Z</time>
      </trkpt>
      <trkpt lat="42.92527" lon="17.40073">
        <ele>181</ele>
        <time>2016-07-16T23:02:06Z</time>
      </trkpt>
      <trkpt lat="42.92517" lon="17.40105">
        <ele>177</ele>
        <time>2016-07-16T23:04:06Z</time>
      </trkpt>
      <trkpt lat="42.92511" lon="17.40131">
        <ele>176</ele>
        <time>2016-07-16T23:06:06Z</time>
      </trkpt>
      <trkpt lat="42.92508" lon="17.40143">
        <ele>175</ele>
        <time>2016-07-16T23:08:06Z</time>
      </trkpt>
      <trkpt lat="42.92507" lon="17.40152">
        <ele>175</ele>
        <time>2016-07-16T23:10:06Z</time>
      </trkpt>
      <trkpt lat="42.92505" lon="17.40171">
        <ele>175</ele>
        <time>2016-07-16T23:12:06Z</time>
      </trkpt>
      <trkpt lat="42.92505" lon="17.4019">
        <ele>177</ele>
        <time>2016-07-16T23:14:06Z</time>
      </trkpt>
      <trkpt lat="42.92504" lon="17.40199">
        <ele>177</ele>
        <time>2016-07-16T23:16:06Z</time>
      </trkpt>
      <trkpt lat="42.92503" lon="17.40207">
        <ele>177</ele>
        <time>2016-07-16T23:18:06Z</time>
      </trkpt>
      <trkpt lat="42.92501" lon="17.40213">
        <ele>177</ele>
        <time>2016-07-16T23:20:06Z</time>
      </trkpt>
      <trkpt lat="42.92498" lon="17.40219">
        <ele>176</ele>
        <time>2016-07-16T23:22:06Z</time>
      </trkpt>
      <trkpt lat="42.92494" lon="17.40228">
        <ele>175</ele>
        <time>2016-07-16T23:24:06Z</time>
      </trkpt>
      <trkpt lat="42.92487" lon="17.40239">
        <ele>173</ele>
        <time>2016-07-16T23:26:06Z</time>
      </trkpt>
      <trkpt lat="42.9247" lon="17.40265">
        <ele>170</ele>
        <time>2016-07-16T23:28:06Z</time>
      </trkpt>
      <trkpt lat="42.92446" lon="17.40303">
        <ele>167</ele>
        <time>2016-07-16T23:30:06Z</time>
      </trkpt>
      <trkpt lat="42.92431" lon="17.40328">
        <ele>165</ele>
        <time>2016-07-16T23:32:06Z</time>
      </trkpt>
      <trkpt lat="42.92414" lon="17.4036">
        <ele>163</ele>
        <time>2016-07-16T23:34:06Z</time>
      </trkpt>
      <trkpt lat="42.92403" lon="17.40382">
        <ele>162</ele>
        <time>2016-07-16T23:36:06Z</time>
      </trkpt>
      <trkpt lat="42.92391" lon="17.40403">
        <ele>160</ele>
        <time>2016-07-16T23:38:06Z</time>
      </trkpt>
      <trkpt lat="42.92373" lon="17.40431">
        <ele>157</ele>
        <time>2016-07-16T23:40:06Z</time>
      </trkpt>
      <trkpt lat="42.92368" lon="17.40439">
        <ele>156</ele>
        <time>2016-07-16T23:42:06Z</time>
      </trkpt>
      <trkpt lat="42.92363" lon="17.40447">
        <ele>156</ele>
        <time>2016-07-16T23:44:06Z</time>
      </trkpt>
      <trkpt lat="42.92361" lon="17.40454">
        <ele>156</ele>
        <time>2016-07-16T23:46:06Z</time>
      </trkpt>
      <trkpt lat="42.92355" lon="17.40468">
        <ele>156</ele>
        <time>2016-07-16T23:48:06Z</time>
      </trkpt>
      <trkpt lat="42.92349" lon="17.40484">
        <ele>156</ele>
        <time>2016-07-16T23:50:06Z</time>
      </trkpt>
      <trkpt lat="42.92345" lon="17.40492">
        <ele>155</ele>
        <time>2016-07-16T23:52:06Z</time>
      </trkpt>
      <trkpt lat="42.9234" lon="17.40504">
        <ele>155</ele>
        <time>2016-07-16T23:54:06Z</time>
      </trkpt>
      <trkpt lat="42.92336" lon="17.40512">
        <ele>155</ele>
        <time>2016-07-16T23:56:06Z</time>
      </trkpt>
      <trkpt lat="42.92331" lon="17.40518">
        <ele>155</ele>
        <time>2016-07-16T23:58:06Z</time>
      </trkpt>
      <trkpt lat="42.92321" lon="17.4053">
        <ele>154</ele>
        <time>2016-07-17T00:00:06Z</time>
      </trkpt>
      <trkpt lat="42.92308" lon="17.4054">
        <ele>152</ele>
        <time>2016-07-17T00:02:06Z</time>
      </trkpt>
      <trkpt lat="42.92299" lon="17.40546">
        <ele>151</ele>
        <time>2016-07-17T00:04:06Z</time>
      </trkpt>
      <trkpt lat="42.9229" lon="17.40552">
        <ele>149</ele>
        <time>2016-07-17T00:06:06Z</time>
      </trkpt>
      <trkpt lat="42.92281" lon="17.40563">
        <ele>148</ele>
        <time>2016-07-17T00:08:06Z</time>
      </trkpt>
      <trkpt lat="42.92273" lon="17.40573">
        <ele>148</ele>
        <time>2016-07-17T00:10:06Z</time>
      </trkpt>
      <trkpt lat="42.92265" lon="17.40589">
        <ele>149</ele>
        <time>2016-07-17T00:12:06Z</time>
      </trkpt>
      <trkpt lat="42.92255" lon="17.40605">
        <ele>149</ele>
        <time>2016-07-17T00:14:06Z</time>
      </trkpt>
      <trkpt lat="42.92236" lon="17.40627">
        <ele>148</ele>
        <time>2016-07-17T00:16:06Z</time>
      </trkpt>
      <trkpt lat="42.92218" lon="17.40646">
        <ele>146</ele>
        <time>2016-07-17T00:18:06Z</time>
      </trkpt>
      <trkpt lat="42.92199" lon="17.40664">
        <ele>143</ele>
        <time>2016-07-17T00:20:06Z</time>
      </trkpt>
      <trkpt lat="42.9219" lon="17.40673">
        <ele>143</ele>
        <time>2016-07-17T00:22:06Z</time>
      </trkpt>
      <trkpt lat="42.9217" lon="17.4069">
        <ele>141</ele>
        <time>2016-07-17T00:24:06Z</time>
      </trkpt>
      <trkpt lat="42.92142" lon="17.40711">
        <ele>139</ele>
        <time>2016-07-17T00:26:06Z</time>
      </trkpt>
      <trkpt lat="42.92109" lon="17.40737">
        <ele>135</ele>
        <time>2016-07-17T00:28:06Z</time>
      </trkpt>
      <trkpt lat="42.92089" lon="17.40755">
        <ele>133</ele>
        <time>2016-07-17T00:30:06Z</time>
      </trkpt>
      <trkpt lat="42.92069" lon="17.40776">
        <ele>131</ele>
        <time>2016-07-17T00:32:06Z</time>
      </trkpt>
      <trkpt lat="42.92036" lon="17.40815">
        <ele>129</ele>
        <time>2016-07-17T00:34:06Z</time>
      </trkpt>
      <trkpt lat="42.92011" lon="17.40844">
        <ele>125</ele>
        <time>2016-07-17T00:36:06Z</time>
      </trkpt>
      <trkpt lat="42.91987" lon="17.40874">
        <ele>122</ele>
        <time>2016-07-17T00:38:06Z</time>
      </trkpt>
      <trkpt lat="42.91974" lon="17.40891">
        <ele>121</ele>
        <time>2016-07-17T00:40:06Z</time>
      </trkpt>
      <trkpt lat="42.9195" lon="17.40929">
        <ele>119</ele>
        <time>2016-07-17T00:42:06Z</time>
      </trkpt>
      <trkpt lat="42.9194" lon="17.40945">
        <ele>118</ele>
        <time>2016-07-17T00:44:06Z</time>
      </trkpt>
      <trkpt lat="42.91929" lon="17.40965">
        <ele>118</ele>
        <time>2016-07-17T00:46:06Z</time>
      </trkpt>
      <trkpt lat="42.9192" lon="17.4098">
        <ele>117</ele>
        <time>2016-07-17T00:48:06Z</time>
      </trkpt>
      <trkpt lat="42.91909" lon="17.40997">
        <ele>117</ele>
        <time>2016-07-17T00:50:06Z</time>
      </trkpt>
      <trkpt lat="42.91901" lon="17.41006">
        <ele>116</ele>
        <time>2016-07-17T00:52:06Z</time>
      </trkpt>
      <trkpt lat="42.91888" lon="17.41019">
        <ele>115</ele>
        <time>2016-07-17T00:54:06Z</time>
      </trkpt>
      <trkpt lat="42.91876" lon="17.41029">
        <ele>114</ele>
        <time>2016-07-17T00:56:06Z</time>
      </trkpt>
      <trkpt lat="42.91857" lon="17.41041">
        <ele>111</ele>
        <time>2016-07-17T00:58:06Z</time>
      </trkpt>
      <trkpt lat="42.91857" lon="17.41041">
        <ele>111</ele>
        <time>2016-07-17T01:00:06Z</time>
      </trkpt>
      <trkpt lat="42.91856" lon="17.4104">
        <ele>111</ele>
        <time>2016-07-17T01:02:06Z</time>
      </trkpt>
      <trkpt lat="42.91856" lon="17.41039">
        <ele>110</ele>
        <time>2016-07-17T01:04:06Z</time>
      </trkpt>
      <trkpt lat="42.91855" lon="17.41038">
        <ele>110</ele>
        <time>2016-07-17T01:06:06Z</time>
      </trkpt>
      <trkpt lat="42.91854" lon="17.41037">
        <ele>109</ele>
        <time>2016-07-17T01:08:06Z</time>
      </trkpt>
      <trkpt lat="42.91853" lon="17.41036">
        <ele>108</ele>
        <time>2016-07-17T01:10:06Z</time>
      </trkpt>
      <trkpt lat="42.91852" lon="17.41035">
        <ele>108</ele>
        <time>2016-07-17T01:12:06Z</time>
      </trkpt>
      <trkpt lat="42.91851" lon="17.41034">
        <ele>107</ele>
        <time>2016-07-17T01:14:06Z</time>
      </trkpt>
      <trkpt lat="42.9185" lon="17.41034">
        <ele>107</ele>
        <time>2016-07-17T01:16:06Z</time>
      </trkpt>
      <trkpt lat="42.91849" lon="17.41033">
        <ele>106</ele>
        <time>2016-07-17T01:18:06Z</time>
      </trkpt>
      <trkpt lat="42.91848" lon="17.41033">
        <ele>106</ele>
        <time>2016-07-17T01:20:06Z</time>
      </trkpt>
      <trkpt lat="42.91847" lon="17.41032">
        <ele>105</ele>
        <time>2016-07-17T01:22:06Z</time>
      </trkpt>
      <trkpt lat="42.91845" lon="17.41032">
        <ele>105</ele>
        <time>2016-07-17T01:24:06Z</time>
      </trkpt>
      <trkpt lat="42.91844" lon="17.41032">
        <ele>104</ele>
        <time>2016-07-17T01:26:06Z</time>
      </trkpt>
      <trkpt lat="42.91843" lon="17.41032">
        <ele>104</ele>
        <time>2016-07-17T01:28:06Z</time>
      </trkpt>
      <trkpt lat="42.91842" lon="17.41032">
        <ele>104</ele>
        <time>2016-07-17T01:30:06Z</time>
      </trkpt>
      <trkpt lat="42.91841" lon="17.41032">
        <ele>103</ele>
        <time>2016-07-17T01:32:06Z</time>
      </trkpt>
      <trkpt lat="42.9184" lon="17.41033">
        <ele>103</ele>
        <time>2016-07-17T01:34:06Z</time>
      </trkpt>
      <trkpt lat="42.91839" lon="17.41033">
        <ele>103</ele>
        <time>2016-07-17T01:36:06Z</time>
      </trkpt>
      <trkpt lat="42.91837" lon="17.41034">
        <ele>103</ele>
        <time>2016-07-17T01:38:06Z</time>
      </trkpt>
      <trkpt lat="42.91836" lon="17.41034">
        <ele>102</ele>
        <time>2016-07-17T01:40:06Z</time>
      </trkpt>
      <trkpt lat="42.91835" lon="17.41035">
        <ele>102</ele>
        <time>2016-07-17T01:42:06Z</time>
      </trkpt>
      <trkpt lat="42.91834" lon="17.41036">
        <ele>102</ele>
        <time>2016-07-17T01:44:06Z</time>
      </trkpt>
      <trkpt lat="42.91833" lon="17.41037">
        <ele>102</ele>
        <time>2016-07-17T01:46:06Z</time>
      </trkpt>
      <trkpt lat="42.91832" lon="17.41038">
        <ele>102</ele>
        <time>2016-07-17T01:48:06Z</time>
      </trkpt>
      <trkpt lat="42.91812" lon="17.41055">
        <ele>103</ele>
        <time>2016-07-17T01:50:06Z</time>
      </trkpt>
      <trkpt lat="42.91733" lon="17.41107">
        <ele>98</ele>
        <time>2016-07-17T01:52:06Z</time>
      </trkpt>
      <trkpt lat="42.91727" lon="17.41111">
        <ele>98</ele>
        <time>2016-07-17T01:54:06Z</time>
      </trkpt>
      <trkpt lat="42.91722" lon="17.41116">
        <ele>98</ele>
        <time>2016-07-17T01:56:06Z</time>
      </trkpt>
      <trkpt lat="42.91717" lon="17.4112">
        <ele>98</ele>
        <time>2016-07-17T01:58:06Z</time>
      </trkpt>
      <trkpt lat="42.91717" lon="17.41121">
        <ele>98</ele>
        <time>2016-07-17T02:00:06Z</time>
      </trkpt>
      <trkpt lat="42.91712" lon="17.41125">
        <ele>98</ele>
        <time>2016-07-17T02:02:06Z</time>
      </trkpt>
      <trkpt lat="42.91707" lon="17.41129">
        <ele>98</ele>
        <time>2016-07-17T02:04:06Z</time>
      </trkpt>
      <trkpt lat="42.91702" lon="17.41134">
        <ele>98</ele>
        <time>2016-07-17T02:06:06Z</time>
      </trkpt>
      <trkpt lat="42.91698" lon="17.41139">
        <ele>98</ele>
        <time>2016-07-17T02:08:06Z</time>
      </trkpt>
      <trkpt lat="42.91693" lon="17.41144">
        <ele>98</ele>
        <time>2016-07-17T02:10:06Z</time>
      </trkpt>
      <trkpt lat="42.91688" lon="17.41149">
        <ele>98</ele>
        <time>2016-07-17T02:12:06Z</time>
      </trkpt>
      <trkpt lat="42.91684" lon="17.41155">
        <ele>98</ele>
        <time>2016-07-17T02:14:06Z</time>
      </trkpt>
      <trkpt lat="42.91679" lon="17.41161">
        <ele>98</ele>
        <time>2016-07-17T02:16:06Z</time>
      </trkpt>
      <trkpt lat="42.91674" lon="17.41167">
        <ele>98</ele>
        <time>2016-07-17T02:18:06Z</time>
      </trkpt>
      <trkpt lat="42.9167" lon="17.41173">
        <ele>99</ele>
        <time>2016-07-17T02:20:06Z</time>
      </trkpt>
      <trkpt lat="42.91666" lon="17.41179">
        <ele>99</ele>
        <time>2016-07-17T02:22:06Z</time>
      </trkpt>
      <trkpt lat="42.91661" lon="17.41185">
        <ele>99</ele>
        <time>2016-07-17T02:24:06Z</time>
      </trkpt>
      <trkpt lat="42.91658" lon="17.41191">
        <ele>99</ele>
        <time>2016-07-17T02:26:06Z</time>
      </trkpt>
      <trkpt lat="42.91657" lon="17.41192">
        <ele>99</ele>
        <time>2016-07-17T02:28:06Z</time>
      </trkpt>
      <trkpt lat="42.91657" lon="17.41193">
        <ele>99</ele>
        <time>2016-07-17T02:30:06Z</time>
      </trkpt>
      <trkpt lat="42.91656" lon="17.41193">
        <ele>99</ele>
        <time>2016-07-17T02:32:06Z</time>
      </trkpt>
      <trkpt lat="42.91656" lon="17.41194">
        <ele>99</ele>
        <time>2016-07-17T02:34:06Z</time>
      </trkpt>
      <trkpt lat="42.91655" lon="17.41194">
        <ele>99</ele>
        <time>2016-07-17T02:36:06Z</time>
      </trkpt>
      <trkpt lat="42.91654" lon="17.41194">
        <ele>99</ele>
        <time>2016-07-17T02:38:06Z</time>
      </trkpt>
      <trkpt lat="42.91653" lon="17.41194">
        <ele>99</ele>
        <time>2016-07-17T02:40:06Z</time>
      </trkpt>
      <trkpt lat="42.91652" lon="17.41194">
        <ele>98</ele>
        <time>2016-07-17T02:42:06Z</time>
      </trkpt>
      <trkpt lat="42.91651" lon="17.41194">
        <ele>98</ele>
        <time>2016-07-17T02:44:06Z</time>
      </trkpt>
      <trkpt lat="42.9165" lon="17.41193">
        <ele>97</ele>
        <time>2016-07-17T02:46:06Z</time>
      </trkpt>
      <trkpt lat="42.91649" lon="17.41192">
        <ele>97</ele>
        <time>2016-07-17T02:48:06Z</time>
      </trkpt>
      <trkpt lat="42.91649" lon="17.41191">
        <ele>97</ele>
        <time>2016-07-17T02:50:06Z</time>
      </trkpt>
      <trkpt lat="42.91648" lon="17.4119">
        <ele>96</ele>
        <time>2016-07-17T02:52:06Z</time>
      </trkpt>
      <trkpt lat="42.91648" lon="17.41189">
        <ele>96</ele>
        <time>2016-07-17T02:54:06Z</time>
      </trkpt>
      <trkpt lat="42.91648" lon="17.41188">
        <ele>96</ele>
        <time>2016-07-17T02:56:06Z</time>
      </trkpt>
      <trkpt lat="42.91648" lon="17.41187">
        <ele>95</ele>
        <time>2016-07-17T02:58:06Z</time>
      </trkpt>
      <trkpt lat="42.91648" lon="17.41186">
        <ele>95</ele>
        <time>2016-07-17T03:00:06Z</time>
      </trkpt>
      <trkpt lat="42.91648" lon="17.41185">
        <ele>95</ele>
        <time>2016-07-17T03:02:06Z</time>
      </trkpt>
      <trkpt lat="42.91648" lon="17.41184">
        <ele>95</ele>
        <time>2016-07-17T03:04:06Z</time>
      </trkpt>
      <trkpt lat="42.91649" lon="17.41184">
        <ele>95</ele>
        <time>2016-07-17T03:06:06Z</time>
      </trkpt>
      <trkpt lat="42.91649" lon="17.41183">
        <ele>95</ele>
        <time>2016-07-17T03:08:06Z</time>
      </trkpt>
      <trkpt lat="42.91649" lon="17.41182">
        <ele>95</ele>
        <time>2016-07-17T03:10:06Z</time>
      </trkpt>
      <trkpt lat="42.9165" lon="17.41182">
        <ele>95</ele>
        <time>2016-07-17T03:12:06Z</time>
      </trkpt>
      <trkpt lat="42.91704" lon="17.41104">
        <ele>90</ele>
        <time>2016-07-17T03:14:06Z</time>
      </trkpt>
      <trkpt lat="42.91768" lon="17.4104">
        <ele>87</ele>
        <time>2016-07-17T03:16:06Z</time>
      </trkpt>
      <trkpt lat="42.91777" lon="17.41032">
        <ele>87</ele>
        <time>2016-07-17T03:18:06Z</time>
      </trkpt>
      <trkpt lat="42.91786" lon="17.41018">
        <ele>85</ele>
        <time>2016-07-17T03:20:06Z</time>
      </trkpt>
      <trkpt lat="42.91806" lon="17.40986">
        <ele>81</ele>
        <time>2016-07-17T03:22:06Z</time>
      </trkpt>
      <trkpt lat="42.91825" lon="17.40963">
        <ele>81</ele>
        <time>2016-07-17T03:24:06Z</time>
      </trkpt>
      <trkpt lat="42.91837" lon="17.40947">
        <ele>80</ele>
        <time>2016-07-17T03:26:06Z</time>
      </trkpt>
      <trkpt lat="42.91843" lon="17.40936">
        <ele>80</ele>
        <time>2016-07-17T03:28:06Z</time>
      </trkpt>
      <trkpt lat="42.91848" lon="17.40925">
        <ele>80</ele>
        <time>2016-07-17T03:30:06Z</time>
      </trkpt>
      <trkpt lat="42.91853" lon="17.40911">
        <ele>79</ele>
        <time>2016-07-17T03:32:06Z</time>
      </trkpt>
      <trkpt lat="42.91856" lon="17.409">
        <ele>79</ele>
        <time>2016-07-17T03:34:06Z</time>
      </trkpt>
      <trkpt lat="42.91857" lon="17.4089">
        <ele>78</ele>
        <time>2016-07-17T03:36:06Z</time>
      </trkpt>
      <trkpt lat="42.91857" lon="17.40877">
        <ele>76</ele>
        <time>2016-07-17T03:38:06Z</time>
      </trkpt>
      <trkpt lat="42.91857" lon="17.40857">
        <ele>73</ele>
        <time>2016-07-17T03:40:06Z</time>
      </trkpt>
      <trkpt lat="42.91857" lon="17.40817">
        <ele>68</ele>
        <time>2016-07-17T03:42:06Z</time>
      </trkpt>
      <trkpt lat="42.9186" lon="17.40768">
        <ele>64</ele>
        <time>2016-07-17T03:44:06Z</time>
      </trkpt>
      <trkpt lat="42.91863" lon="17.40736">
        <ele>62</ele>
        <time>2016-07-17T03:46:06Z</time>
      </trkpt>
      <trkpt lat="42.91867" lon="17.40706">
        <ele>60</ele>
        <time>2016-07-17T03:48:06Z</time>
      </trkpt>
      <trkpt lat="42.91871" lon="17.40683">
        <ele>58</ele>
        <time>2016-07-17T03:50:06Z</time>
      </trkpt>
      <trkpt lat="42.91877" lon="17.40658">
        <ele>57</ele>
        <time>2016-07-17T03:52:06Z</time>
      </trkpt>
      <trkpt lat="42.91883" lon="17.40632">
        <ele>56</ele>
        <time>2016-07-17T03:54:06Z</time>
      </trkpt>
      <trkpt lat="42.91887" lon="17.40605">
        <ele>54</ele>
        <time>2016-07-17T03:56:06Z</time>
      </trkpt>
      <trkpt lat="42.91888" lon="17.4059">
        <ele>53</ele>
        <time>2016-07-17T03:58:06Z</time>
      </trkpt>
      <trkpt lat="42.91888" lon="17.40574">
        <ele>52</ele>
        <time>2016-07-17T04:00:06Z</time>
      </trkpt>
      <trkpt lat="42.91888" lon="17.40558">
        <ele>51</ele>
        <time>2016-07-17T04:02:06Z</time>
      </trkpt>
      <trkpt lat="42.91887" lon="17.40536">
        <ele>50</ele>
        <time>2016-07-17T04:04:06Z</time>
      </trkpt>
      <trkpt lat="42.91887" lon="17.40536">
        <ele>50</ele>
        <time>2016-07-17T04:06:06Z</time>
      </trkpt>
      <trkpt lat="42.91883" lon="17.40537">
        <ele>49</ele>
        <time>2016-07-17T04:08:06Z</time>
      </trkpt>
      <trkpt lat="42.91881" lon="17.4054">
        <ele>49</ele>
        <time>2016-07-17T04:10:06Z</time>
      </trkpt>
      <trkpt lat="42.91878" lon="17.40546">
        <ele>49</ele>
        <time>2016-07-17T04:12:06Z</time>
      </trkpt>
      <trkpt lat="42.91872" lon="17.40561">
        <ele>49</ele>
        <time>2016-07-17T04:14:06Z</time>
      </trkpt>
      <trkpt lat="42.91861" lon="17.40584">
        <ele>48</ele>
        <time>2016-07-17T04:16:06Z</time>
      </trkpt>
      <trkpt lat="42.91857" lon="17.40591">
        <ele>48</ele>
        <time>2016-07-17T04:18:06Z</time>
      </trkpt>
      <trkpt lat="42.91846" lon="17.40604">
        <ele>48</ele>
        <time>2016-07-17T04:20:06Z</time>
      </trkpt>
      <trkpt lat="42.91839" lon="17.40613">
        <ele>47</ele>
        <time>2016-07-17T04:22:06Z</time>
      </trkpt>
      <trkpt lat="42.91833" lon="17.40622">
        <ele>47</ele>
        <time>2016-07-17T04:24:06Z</time>
      </trkpt>
      <trkpt lat="42.91827" lon="17.40635">
        <ele>47</ele>
        <time>2016-07-17T04:26:06Z</time>
      </trkpt>
      <trkpt lat="42.9182" lon="17.40654">
        <ele>47</ele>
        <time>2016-07-17T04:28:06Z</time>
      </trkpt>
      <trkpt lat="42.91814" lon="17.40671">
        <ele>48</ele>
        <time>2016-07-17T04:30:06Z</time>
      </trkpt>
      <trkpt lat="42.9181" lon="17.40686">
        <ele>48</ele>
        <time>2016-07-17T04:32:06Z</time>
      </trkpt>
      <trkpt lat="42.91806" lon="17.40701">
        <ele>48</ele>
        <time>2016-07-17T04:34:06Z</time>
      </trkpt>
      <trkpt lat="42.91803" lon="17.40713">
        <ele>48</ele>
        <time>2016-07-17T04:36:06Z</time>
      </trkpt>
      <trkpt lat="42.91801" lon="17.40719">
        <ele>48</ele>
        <time>2016-07-17T04:38:06Z</time>
      </trkpt>
      <trkpt lat="42.91799" lon="17.40726">
        <ele>48</ele>
        <time>2016-07-17T04:40:06Z</time>
      </trkpt>
      <trkpt lat="42.91796" lon="17.40735">
        <ele>48</ele>
        <time>2016-07-17T04:42:06Z</time>
      </trkpt>
      <trkpt lat="42.91788" lon="17.40754">
        <ele>47</ele>
        <time>2016-07-17T04:44:06Z</time>
      </trkpt>
      <trkpt lat="42.9178" lon="17.40772">
        <ele>46</ele>
        <time>2016-07-17T04:46:06Z</time>
      </trkpt>
      <trkpt lat="42.91774" lon="17.4079">
        <ele>46</ele>
        <time>2016-07-17T04:48:06Z</time>
      </trkpt>
      <trkpt lat="42.91767" lon="17.40808">
        <ele>46</ele>
        <time>2016-07-17T04:50:06Z</time>
      </trkpt>
      <trkpt lat="42.9176" lon="17.4082">
        <ele>45</ele>
        <time>2016-07-17T04:52:06Z</time>
      </trkpt>
      <trkpt lat="42.91755" lon="17.40829">
        <ele>44</ele>
        <time>2016-07-17T04:54:06Z</time>
      </trkpt>
      <trkpt lat="42.91748" lon="17.40839">
        <ele>43</ele>
        <time>2016-07-17T04:56:06Z</time>
      </trkpt>
      <trkpt lat="42.91738" lon="17.40853">
        <ele>44</ele>
        <time>2016-07-17T04:58:06Z</time>
      </trkpt>
      <trkpt lat="42.91733" lon="17.4086">
        <ele>44</ele>
        <time>2016-07-17T05:00:06Z</time>
      </trkpt>
      <trkpt lat="42.91727" lon="17.40875">
        <ele>45</ele>
        <time>2016-07-17T05:02:06Z</time>
      </trkpt>
      <trkpt lat="42.91724" lon="17.40886">
        <ele>46</ele>
        <time>2016-07-17T05:04:06Z</time>
      </trkpt>
      <trkpt lat="42.91721" lon="17.40892">
        <ele>46</ele>
        <time>2016-07-17T05:06:06Z</time>
      </trkpt>
      <trkpt lat="42.91719" lon="17.40897">
        <ele>47</ele>
        <time>2016-07-17T05:08:06Z</time>
      </trkpt>
      <trkpt lat="42.91713" lon="17.40905">
        <ele>47</ele>
        <time>2016-07-17T05:10:06Z</time>
      </trkpt>
      <trkpt lat="42.91705" lon="17.40912">
        <ele>47</ele>
        <time>2016-07-17T05:12:06Z</time>
      </trkpt>
      <trkpt lat="42.91689" lon="17.40928">
        <ele>48</ele>
        <time>2016-07-17T05:14:06Z</time>
      </trkpt>
      <trkpt lat="42.9168" lon="17.40936">
        <ele>48</ele>
        <time>2016-07-17T05:16:06Z</time>
      </trkpt>
      <trkpt lat="42.91669" lon="17.40943">
        <ele>48</ele>
        <time>2016-07-17T05:18:06Z</time>
      </trkpt>
      <trkpt lat="42.91658" lon="17.40954">
        <ele>48</ele>
        <time>2016-07-17T05:20:06Z</time>
      </trkpt>
      <trkpt lat="42.91647" lon="17.40968">
        <ele>49</ele>
        <time>2016-07-17T05:22:06Z</time>
      </trkpt>
      <trkpt lat="42.91638" lon="17.4098">
        <ele>50</ele>
        <time>2016-07-17T05:24:06Z</time>
      </trkpt>
      <trkpt lat="42.91611" lon="17.41036">
        <ele>55</ele>
        <time>2016-07-17T05:26:06Z</time>
      </trkpt>
      <trkpt lat="42.91602" lon="17.41056">
        <ele>56</ele>
        <time>2016-07-17T05:28:06Z</time>
      </trkpt>
      <trkpt lat="42.91594" lon="17.41066">
        <ele>56</ele>
        <time>2016-07-17T05:30:06Z</time>
      </trkpt>
      <trkpt lat="42.91585" lon="17.41077">
        <ele>55</ele>
        <time>2016-07-17T05:32:06Z</time>
      </trkpt>
      <trkpt lat="42.91576" lon="17.41086">
        <ele>55</ele>
        <time>2016-07-17T05:34:06Z</time>
      </trkpt>
      <trkpt lat="42.91567" lon="17.41096">
        <ele>56</ele>
        <time>2016-07-17T05:36:06Z</time>
      </trkpt>
      <trkpt lat="42.9156" lon="17.41103">
        <ele>56</ele>
        <time>2016-07-17T05:38:06Z</time>
      </trkpt>
      <trkpt lat="42.91556" lon="17.41106">
        <ele>56</ele>
        <time>2016-07-17T05:40:06Z</time>
      </trkpt>
      <trkpt lat="42.91551" lon="17.41107">
        <ele>55</ele>
        <time>2016-07-17T05:42:06Z</time>
      </trkpt>
      <trkpt lat="42.91544" lon="17.41109">
        <ele>54</ele>
        <time>2016-07-17T05:44:06Z</time>
      </trkpt>
      <trkpt lat="42.9154" lon="17.41112">
        <ele>54</ele>
        <time>2016-07-17T05:46:06Z</time>
      </trkpt>
      <trkpt lat="42.91536" lon="17.41117">
        <ele>54</ele>
        <time>2016-07-17T05:48:06Z</time>
      </trkpt>
      <trkpt lat="42.91526" lon="17.41132">
        <ele>55</ele>
        <time>2016-07-17T05:50:06Z</time>
      </trkpt>
      <trkpt lat="42.91514" lon="17.4115">
        <ele>55</ele>
        <time>2016-07-17T05:52:06Z</time>
      </trkpt>
      <trkpt lat="42.91501" lon="17.41166">
        <ele>55</ele>
        <time>2016-07-17T05:54:06Z</time>
      </trkpt>
      <trkpt lat="42.91492" lon="17.41173">
        <ele>54</ele>
        <time>2016-07-17T05:56:06Z</time>
      </trkpt>
      <trkpt lat="42.9147" lon="17.41199">
        <ele>53</ele>
        <time>2016-07-17T05:58:06Z</time>
      </trkpt>
      <trkpt lat="42.91444" lon="17.41232">
        <ele>50</ele>
        <time>2016-07-17T06:00:06Z</time>
      </trkpt>
      <trkpt lat="42.91438" lon="17.4124">
        <ele>49</ele>
        <time>2016-07-17T06:02:06Z</time>
      </trkpt>
      <trkpt lat="42.9143" lon="17.41248">
        <ele>48</ele>
        <time>2016-07-17T06:04:06Z</time>
      </trkpt>
      <trkpt lat="42.91425" lon="17.41256">
        <ele>47</ele>
        <time>2016-07-17T06:06:06Z</time>
      </trkpt>
      <trkpt lat="42.91422" lon="17.41265">
        <ele>47</ele>
        <time>2016-07-17T06:08:06Z</time>
      </trkpt>
      <trkpt lat="42.91418" lon="17.41277">
        <ele>47</ele>
        <time>2016-07-17T06:10:06Z</time>
      </trkpt>
      <trkpt lat="42.9141" lon="17.41292">
        <ele>47</ele>
        <time>2016-07-17T06:12:06Z</time>
      </trkpt>
      <trkpt lat="42.91403" lon="17.41308">
        <ele>47</ele>
        <time>2016-07-17T06:14:06Z</time>
      </trkpt>
      <trkpt lat="42.91389" lon="17.41332">
        <ele>47</ele>
        <time>2016-07-17T06:16:06Z</time>
      </trkpt>
      <trkpt lat="42.91378" lon="17.41352">
        <ele>47</ele>
        <time>2016-07-17T06:18:06Z</time>
      </trkpt>
      <trkpt lat="42.91368" lon="17.41368">
        <ele>47</ele>
        <time>2016-07-17T06:20:06Z</time>
      </trkpt>
      <trkpt lat="42.91352" lon="17.414">
        <ele>46</ele>
        <time>2016-07-17T06:22:06Z</time>
      </trkpt>
      <trkpt lat="42.9134" lon="17.41425">
        <ele>46</ele>
        <time>2016-07-17T06:24:06Z</time>
      </trkpt>
      <trkpt lat="42.91332" lon="17.41447">
        <ele>47</ele>
        <time>2016-07-17T06:26:06Z</time>
      </trkpt>
      <trkpt lat="42.91315" lon="17.41498">
        <ele>48</ele>
        <time>2016-07-17T06:28:06Z</time>
      </trkpt>
      <trkpt lat="42.91306" lon="17.41528">
        <ele>49</ele>
        <time>2016-07-17T06:30:06Z</time>
      </trkpt>
      <trkpt lat="42.91291" lon="17.41595">
        <ele>52</ele>
        <time>2016-07-17T06:32:06Z</time>
      </trkpt>
      <trkpt lat="42.9128" lon="17.41633">
        <ele>52</ele>
        <time>2016-07-17T06:34:06Z</time>
      </trkpt>
      <trkpt lat="42.91263" lon="17.41678">
        <ele>50</ele>
        <time>2016-07-17T06:36:06Z</time>
      </trkpt>
      <trkpt lat="42.91258" lon="17.41694">
        <ele>49</ele>
        <time>2016-07-17T06:38:06Z</time>
      </trkpt>
      <trkpt lat="42.91254" lon="17.41709">
        <ele>48</ele>
        <time>2016-07-17T06:40:06Z</time>
      </trkpt>
      <trkpt lat="42.91244" lon="17.41759">
        <ele>48</ele>
        <time>2016-07-17T06:42:06Z</time>
      </trkpt>
      <trkpt lat="42.91236" lon="17.41813">
        <ele>49</ele>
        <time>2016-07-17T06:44:06Z</time>
      </trkpt>
      <trkpt lat="42.91233" lon="17.41831">
        <ele>48</ele>
        <time>2016-07-17T06:46:06Z</time>
      </trkpt>
      <trkpt lat="42.91227" lon="17.41855">
        <ele>48</ele>
        <time>2016-07-17T06:48:06Z</time>
      </trkpt>
      <trkpt lat="42.91216" lon="17.41906">
        <ele>48</ele>
        <time>2016-07-17T06:50:06Z</time>
      </trkpt>
      <trkpt lat="42.91212" lon="17.41921">
        <ele>48</ele>
        <time>2016-07-17T06:52:06Z</time>
      </trkpt>
      <trkpt lat="42.91205" lon="17.41942">
        <ele>49</ele>
        <time>2016-07-17T06:54:06Z</time>
      </trkpt>
      <trkpt lat="42.91191" lon="17.41971">
        <ele>48</ele>
        <time>2016-07-17T06:56:06Z</time>
      </trkpt>
      <trkpt lat="42.91168" lon="17.42017">
        <ele>46</ele>
        <time>2016-07-17T06:58:06Z</time>
      </trkpt>
      <trkpt lat="42.91141" lon="17.42068">
        <ele>47</ele>
        <time>2016-07-17T07:00:06Z</time>
      </trkpt>
      <trkpt lat="42.91124" lon="17.42098">
        <ele>48</ele>
        <time>2016-07-17T07:02:06Z</time>
      </trkpt>
      <trkpt lat="42.91106" lon="17.42126">
        <ele>48</ele>
        <time>2016-07-17T07:04:06Z</time>
      </trkpt>
      <trkpt lat="42.91075" lon="17.42174">
        <ele>49</ele>
        <time>2016-07-17T07:06:06Z</time>
      </trkpt>
      <trkpt lat="42.91054" lon="17.42205">
        <ele>51</ele>
        <time>2016-07-17T07:08:06Z</time>
      </trkpt>
      <trkpt lat="42.91031" lon="17.42234">
        <ele>53</ele>
        <time>2016-07-17T07:10:06Z</time>
      </trkpt>
      <trkpt lat="42.91018" lon="17.42243">
        <ele>53</ele>
        <time>2016-07-17T07:12:06Z</time>
      </trkpt>
      <trkpt lat="42.91013" lon="17.42247">
        <ele>53</ele>
        <time>2016-07-17T07:14:06Z</time>
      </trkpt>
      <trkpt lat="42.91009" lon="17.42249">
        <ele>53</ele>
        <time>2016-07-17T07:16:06Z</time>
      </trkpt>
      <trkpt lat="42.91002" lon="17.42251">
        <ele>52</ele>
        <time>2016-07-17T07:18:06Z</time>
      </trkpt>
      <trkpt lat="42.90993" lon="17.42253">
        <ele>53</ele>
        <time>2016-07-17T07:20:06Z</time>
      </trkpt>
      <trkpt lat="42.90984" lon="17.42252">
        <ele>54</ele>
        <time>2016-07-17T07:22:06Z</time>
      </trkpt>
      <trkpt lat="42.90979" lon="17.42251">
        <ele>55</ele>
        <time>2016-07-17T07:24:06Z</time>
      </trkpt>
      <trkpt lat="42.90975" lon="17.4225">
        <ele>55</ele>
        <time>2016-07-17T07:26:06Z</time>
      </trkpt>
      <trkpt lat="42.90973" lon="17.42248">
        <ele>55</ele>
        <time>2016-07-17T07:28:06Z</time>
      </trkpt>
      <trkpt lat="42.90971" lon="17.42246">
        <ele>55</ele>
        <time>2016-07-17T07:30:06Z</time>
      </trkpt>
      <trkpt lat="42.9097" lon="17.42243">
        <ele>54</ele>
        <time>2016-07-17T07:32:06Z</time>
      </trkpt>
      <trkpt lat="42.90969" lon="17.4224">
        <ele>53</ele>
        <time>2016-07-17T07:34:06Z</time>
      </trkpt>
      <trkpt lat="42.90965" lon="17.42227">
        <ele>50</ele>
        <time>2016-07-17T07:36:06Z</time>
      </trkpt>
      <trkpt lat="42.9096" lon="17.42204">
        <ele>44</ele>
        <time>2016-07-17T07:38:06Z</time>
      </trkpt>
      <trkpt lat="42.90955" lon="17.42192">
        <ele>41</ele>
        <time>2016-07-17T07:40:06Z</time>
      </trkpt>
      <trkpt lat="42.90949" lon="17.42182">
        <ele>39</ele>
        <time>2016-07-17T07:42:06Z</time>
      </trkpt>
      <trkpt lat="42.90944" lon="17.42175">
        <ele>37</ele>
        <time>2016-07-17T07:44:06Z</time>
      </trkpt>
      <trkpt lat="42.90938" lon="17.42169">
        <ele>36</ele>
        <time>2016-07-17T07:46:06Z</time>
      </trkpt>
      <trkpt lat="42.9093" lon="17.42165">
        <ele>36</ele>
        <time>2016-07-17T07:48:06Z</time>
      </trkpt>
      <trkpt lat="42.90922" lon="17.42163">
        <ele>36</ele>
        <time>2016-07-17T07:50:06Z</time>
      </trkpt>
      <trkpt lat="42.90913" lon="17.42162">
        <ele>36</ele>
        <time>2016-07-17T07:52:06Z</time>
      </trkpt>
      <trkpt lat="42.90903" lon="17.42161">
        <ele>34</ele>
        <time>2016-07-17T07:54:06Z</time>
      </trkpt>
      <trkpt lat="42.90887" lon="17.42166">
        <ele>35</ele>
        <time>2016-07-17T07:56:06Z</time>
      </trkpt>
      <trkpt lat="42.90857" lon="17.42179">
        <ele>35</ele>
        <time>2016-07-17T07:58:06Z</time>
      </trkpt>
      <trkpt lat="42.90851" lon="17.42182">
        <ele>36</ele>
        <time>2016-07-17T08:00:06Z</time>
      </trkpt>
      <trkpt lat="42.90843" lon="17.42188">
        <ele>37</ele>
        <time>2016-07-17T08:02:06Z</time>
      </trkpt>
      <trkpt lat="42.90837" lon="17.42195">
        <ele>38</ele>
        <time>2016-07-17T08:04:06Z</time>
      </trkpt>
      <trkpt lat="42.90828" lon="17.42208">
        <ele>40</ele>
        <time>2016-07-17T08:06:06Z</time>
      </trkpt>
      <trkpt lat="42.90824" lon="17.42213">
        <ele>40</ele>
        <time>2016-07-17T08:08:06Z</time>
      </trkpt>
      <trkpt lat="42.90821" lon="17.4222">
        <ele>41</ele>
        <time>2016-07-17T08:10:06Z</time>
      </trkpt>
      <trkpt lat="42.90817" lon="17.42226">
        <ele>42</ele>
        <time>2016-07-17T08:12:06Z</time>
      </trkpt>
      <trkpt lat="42.90813" lon="17.42233">
        <ele>43</ele>
        <time>2016-07-17T08:14:06Z</time>
      </trkpt>
      <trkpt lat="42.90809" lon="17.42239">
        <ele>43</ele>
        <time>2016-07-17T08:16:06Z</time>
      </trkpt>
      <trkpt lat="42.90805" lon="17.42245">
        <ele>43</ele>
        <time>2016-07-17T08:18:06Z</time>
      </trkpt>
      <trkpt lat="42.90801" lon="17.42249">
        <ele>43</ele>
        <time>2016-07-17T08:20:06Z</time>
      </trkpt>
      <trkpt lat="42.90797" lon="17.42254">
        <ele>43</ele>
        <time>2016-07-17T08:22:06Z</time>
      </trkpt>
      <trkpt lat="42.90793" lon="17.42258">
        <ele>42</ele>
        <time>2016-07-17T08:24:06Z</time>
      </trkpt>
      <trkpt lat="42.90789" lon="17.42262">
        <ele>42</ele>
        <time>2016-07-17T08:26:06Z</time>
      </trkpt>
      <trkpt lat="42.90781" lon="17.42268">
        <ele>41</ele>
        <time>2016-07-17T08:28:06Z</time>
      </trkpt>
      <trkpt lat="42.90777" lon="17.42273">
        <ele>41</ele>
        <time>2016-07-17T08:30:06Z</time>
      </trkpt>
      <trkpt lat="42.90771" lon="17.4228">
        <ele>41</ele>
        <time>2016-07-17T08:32:06Z</time>
      </trkpt>
      <trkpt lat="42.90765" lon="17.4229">
        <ele>42</ele>
        <time>2016-07-17T08:34:06Z</time>
      </trkpt>
      <trkpt lat="42.90759" lon="17.42301">
        <ele>43</ele>
        <time>2016-07-17T08:36:06Z</time>
      </trkpt>
      <trkpt lat="42.90754" lon="17.42307">
        <ele>43</ele>
        <time>2016-07-17T08:38:06Z</time>
      </trkpt>
      <trkpt lat="42.90741" lon="17.42321">
        <ele>43</ele>
        <time>2016-07-17T08:40:06Z</time>
      </trkpt>
      <trkpt lat="42.90731" lon="17.42332">
        <ele>43</ele>
        <time>2016-07-17T08:42:06Z</time>
      </trkpt>
      <trkpt lat="42.90722" lon="17.42345">
        <ele>43</ele>
        <time>2016-07-17T08:44:06Z</time>
      </trkpt>
      <trkpt lat="42.9071" lon="17.42365">
        <ele>45</ele>
        <time>2016-07-17T08:46:06Z</time>
      </trkpt>
      <trkpt lat="42.90704" lon="17.42378">
        <ele>47</ele>
        <time>2016-07-17T08:48:06Z</time>
      </trkpt>
      <trkpt lat="42.907" lon="17.42386">
        <ele>48</ele>
        <time>2016-07-17T08:50:06Z</time>
      </trkpt>
      <trkpt lat="42.90698" lon="17.42389">
        <ele>48</ele>
        <time>2016-07-17T08:52:06Z</time>
      </trkpt>
      <trkpt lat="42.90696" lon="17.42392">
        <ele>48</ele>
        <time>2016-07-17T08:54:06Z</time>
      </trkpt>
      <trkpt lat="42.90692" lon="17.42396">
        <ele>48</ele>
        <time>2016-07-17T08:56:06Z</time>
      </trkpt>
      <trkpt lat="42.90689" lon="17.42397">
        <ele>47</ele>
        <time>2016-07-17T08:58:06Z</time>
      </trkpt>
      <trkpt lat="42.90685" lon="17.42398">
        <ele>46</ele>
        <time>2016-07-17T09:00:06Z</time>
      </trkpt>
      <trkpt lat="42.90681" lon="17.42399">
        <ele>45</ele>
        <time>2016-07-17T09:02:06Z</time>
      </trkpt>
      <trkpt lat="42.90672" lon="17.42399">
        <ele>42</ele>
        <time>2016-07-17T09:04:06Z</time>
      </trkpt>
      <trkpt lat="42.90666" lon="17.42399">
        <ele>40</ele>
        <time>2016-07-17T09:06:06Z</time>
      </trkpt>
      <trkpt lat="42.90659" lon="17.42401">
        <ele>39</ele>
        <time>2016-07-17T09:08:06Z</time>
      </trkpt>
      <trkpt lat="42.90653" lon="17.42404">
        <ele>38</ele>
        <time>2016-07-17T09:10:06Z</time>
      </trkpt>
      <trkpt lat="42.90642" lon="17.42411">
        <ele>38</ele>
        <time>2016-07-17T09:12:06Z</time>
      </trkpt>
      <trkpt lat="42.90632" lon="17.42418">
        <ele>37</ele>
        <time>2016-07-17T09:14:06Z</time>
      </trkpt>
      <trkpt lat="42.90627" lon="17.42423">
        <ele>36</ele>
        <time>2016-07-17T09:16:06Z</time>
      </trkpt>
      <trkpt lat="42.90621" lon="17.42432">
        <ele>37</ele>
        <time>2016-07-17T09:18:06Z</time>
      </trkpt>
      <trkpt lat="42.9061" lon="17.42456">
        <ele>38</ele>
        <time>2016-07-17T09:20:06Z</time>
      </trkpt>
      <trkpt lat="42.906" lon="17.42483">
        <ele>40</ele>
        <time>2016-07-17T09:22:06Z</time>
      </trkpt>
      <trkpt lat="42.90599" lon="17.42487">
        <ele>41</ele>
        <time>2016-07-17T09:24:06Z</time>
      </trkpt>
      <trkpt lat="42.90598" lon="17.42492">
        <ele>42</ele>
        <time>2016-07-17T09:26:06Z</time>
      </trkpt>
      <trkpt lat="42.90598" lon="17.42497">
        <ele>43</ele>
        <time>2016-07-17T09:28:06Z</time>
      </trkpt>
      <trkpt lat="42.90598" lon="17.425">
        <ele>43</ele>
        <time>2016-07-17T09:30:06Z</time>
      </trkpt>
      <trkpt lat="42.90597" lon="17.42504">
        <ele>44</ele>
        <time>2016-07-17T09:32:06Z</time>
      </trkpt>
      <trkpt lat="42.90595" lon="17.42507">
        <ele>44</ele>
        <time>2016-07-17T09:34:06Z</time>
      </trkpt>
      <trkpt lat="42.90594" lon="17.4251">
        <ele>45</ele>
        <time>2016-07-17T09:36:06Z</time>
      </trkpt>
      <trkpt lat="42.90592" lon="17.42513">
        <ele>45</ele>
        <time>2016-07-17T09:38:06Z</time>
      </trkpt>
      <trkpt lat="42.9059" lon="17.42516">
        <ele>45</ele>
        <time>2016-07-17T09:40:06Z</time>
      </trkpt>
      <trkpt lat="42.9059" lon="17.42517">
        <ele>46</ele>
        <time>2016-07-17T09:42:06Z</time>
      </trkpt>
      <trkpt lat="42.90588" lon="17.42518">
        <ele>45</ele>
        <time>2016-07-17T09:44:06Z</time>
      </trkpt>
      <trkpt lat="42.90586" lon="17.4252">
        <ele>45</ele>
        <time>2016-07-17T09:46:06Z</time>
      </trkpt>
      <trkpt lat="42.90583" lon="17.42522">
        <ele>45</ele>
        <time>2016-07-17T09:48:06Z</time>
      </trkpt>
      <trkpt lat="42.90581" lon="17.42524">
        <ele>45</ele>
        <time>2016-07-17T09:50:06Z</time>
      </trkpt>
      <trkpt lat="42.90578" lon="17.42525">
        <ele>45</ele>
        <time>2016-07-17T09:52:06Z</time>
      </trkpt>
      <trkpt lat="42.90576" lon="17.42526">
        <ele>44</ele>
        <time>2016-07-17T09:54:06Z</time>
      </trkpt>
      <trkpt lat="42.90572" lon="17.42526">
        <ele>44</ele>
        <time>2016-07-17T09:56:06Z</time>
      </trkpt>
      <trkpt lat="42.90568" lon="17.42527">
        <ele>43</ele>
        <time>2016-07-17T09:58:06Z</time>
      </trkpt>
      <trkpt lat="42.90563" lon="17.42526">
        <ele>41</ele>
        <time>2016-07-17T10:00:06Z</time>
      </trkpt>
      <trkpt lat="42.90552" lon="17.42525">
        <ele>39</ele>
        <time>2016-07-17T10:02:06Z</time>
      </trkpt>
      <trkpt lat="42.90546" lon="17.42525">
        <ele>37</ele>
        <time>2016-07-17T10:04:06Z</time>
      </trkpt>
      <trkpt lat="42.90539" lon="17.42527">
        <ele>36</ele>
        <time>2016-07-17T10:06:06Z</time>
      </trkpt>
      <trkpt lat="42.90534" lon="17.4253">
        <ele>36</ele>
        <time>2016-07-17T10:08:06Z</time>
      </trkpt>
      <trkpt lat="42.9053" lon="17.42533">
        <ele>36</ele>
        <time>2016-07-17T10:10:06Z</time>
      </trkpt>
      <trkpt lat="42.90526" lon="17.42537">
        <ele>36</ele>
        <time>2016-07-17T10:12:06Z</time>
      </trkpt>
      <trkpt lat="42.90518" lon="17.42546">
        <ele>37</ele>
        <time>2016-07-17T10:14:06Z</time>
      </trkpt>
      <trkpt lat="42.9051" lon="17.42554">
        <ele>37</ele>
        <time>2016-07-17T10:16:06Z</time>
      </trkpt>
      <trkpt lat="42.90502" lon="17.42563">
        <ele>38</ele>
        <time>2016-07-17T10:18:06Z</time>
      </trkpt>
      <trkpt lat="42.90492" lon="17.42572">
        <ele>37</ele>
        <time>2016-07-17T10:20:06Z</time>
      </trkpt>
      <trkpt lat="42.90482" lon="17.42581">
        <ele>37</ele>
        <time>2016-07-17T10:22:06Z</time>
      </trkpt>
      <trkpt lat="42.90472" lon="17.4259">
        <ele>36</ele>
        <time>2016-07-17T10:24:06Z</time>
      </trkpt>
      <trkpt lat="42.90465" lon="17.42595">
        <ele>36</ele>
        <time>2016-07-17T10:26:06Z</time>
      </trkpt>
      <trkpt lat="42.90459" lon="17.42601">
        <ele>35</ele>
        <time>2016-07-17T10:28:06Z</time>
      </trkpt>
      <trkpt lat="42.90449" lon="17.42614">
        <ele>36</ele>
        <time>2016-07-17T10:30:06Z</time>
      </trkpt>
      <trkpt lat="42.90443" lon="17.42623">
        <ele>36</ele>
        <time>2016-07-17T10:32:06Z</time>
      </trkpt>
      <trkpt lat="42.90437" lon="17.42637">
        <ele>38</ele>
        <time>2016-07-17T10:34:06Z</time>
      </trkpt>
      <trkpt lat="42.90423" lon="17.42657">
        <ele>37</ele>
        <time>2016-07-17T10:36:06Z</time>
      </trkpt>
      <trkpt lat="42.90414" lon="17.4267">
        <ele>37</ele>
        <time>2016-07-17T10:38:06Z</time>
      </trkpt>
      <trkpt lat="42.90408" lon="17.4268">
        <ele>37</ele>
        <time>2016-07-17T10:40:06Z</time>
      </trkpt>
      <trkpt lat="42.90403" lon="17.42689">
        <ele>37</ele>
        <time>2016-07-17T10:42:06Z</time>
      </trkpt>
      <trkpt lat="42.90392" lon="17.42712">
        <ele>38</ele>
        <time>2016-07-17T10:44:06Z</time>
      </trkpt>
      <trkpt lat="42.90379" lon="17.42736">
        <ele>37</ele>
        <time>2016-07-17T10:46:06Z</time>
      </trkpt>
      <trkpt lat="42.90362" lon="17.42776">
        <ele>38</ele>
        <time>2016-07-17T10:48:06Z</time>
      </trkpt>
      <trkpt lat="42.9034" lon="17.42834">
        <ele>38</ele>
        <time>2016-07-17T10:50:06Z</time>
      </trkpt>
      <trkpt lat="42.90334" lon="17.42857">
        <ele>38</ele>
        <time>2016-07-17T10:52:06Z</time>
      </trkpt>
      <trkpt lat="42.90309" lon="17.42979">
        <ele>38</ele>
        <time>2016-07-17T10:54:06Z</time>
      </trkpt>
      <trkpt lat="42.90294" lon="17.4303">
        <ele>38</ele>
        <time>2016-07-17T10:56:06Z</time>
      </trkpt>
      <trkpt lat="42.90293" lon="17.43032">
        <ele>37</ele>
        <time>2016-07-17T10:58:06Z</time>
      </trkpt>
      <trkpt lat="42.90292" lon="17.43036">
        <ele>38</ele>
        <time>2016-07-17T11:00:06Z</time>
      </trkpt>
      <trkpt lat="42.90292" lon="17.43041">
        <ele>38</ele>
        <time>2016-07-17T11:02:06Z</time>
      </trkpt>
      <trkpt lat="42.90292" lon="17.43047">
        <ele>39</ele>
        <time>2016-07-17T11:04:06Z</time>
      </trkpt>
      <trkpt lat="42.90293" lon="17.43055">
        <ele>40</ele>
        <time>2016-07-17T11:06:06Z</time>
      </trkpt>
      <trkpt lat="42.90294" lon="17.43073">
        <ele>42</ele>
        <time>2016-07-17T11:08:06Z</time>
      </trkpt>
      <trkpt lat="42.90294" lon="17.43075">
        <ele>42</ele>
        <time>2016-07-17T11:10:06Z</time>
      </trkpt>
      <trkpt lat="42.90294" lon="17.43077">
        <ele>42</ele>
        <time>2016-07-17T11:12:06Z</time>
      </trkpt>
      <trkpt lat="42.90294" lon="17.4308">
        <ele>42</ele>
        <time>2016-07-17T11:14:06Z</time>
      </trkpt>
      <trkpt lat="42.90294" lon="17.43082">
        <ele>42</ele>
        <time>2016-07-17T11:16:06Z</time>
      </trkpt>
      <trkpt lat="42.90293" lon="17.43084">
        <ele>42</ele>
        <time>2016-07-17T11:18:06Z</time>
      </trkpt>
      <trkpt lat="42.90293" lon="17.43086">
        <ele>43</ele>
        <time>2016-07-17T11:20:06Z</time>
      </trkpt>
      <trkpt lat="42.90292" lon="17.43088">
        <ele>43</ele>
        <time>2016-07-17T11:22:06Z</time>
      </trkpt>
      <trkpt lat="42.90291" lon="17.4309">
        <ele>43</ele>
        <time>2016-07-17T11:24:06Z</time>
      </trkpt>
      <trkpt lat="42.90289" lon="17.43091">
        <ele>43</ele>
        <time>2016-07-17T11:26:06Z</time>
      </trkpt>
      <trkpt lat="42.90288" lon="17.43092">
        <ele>43</ele>
        <time>2016-07-17T11:28:06Z</time>
      </trkpt>
      <trkpt lat="42.90287" lon="17.43093">
        <ele>43</ele>
        <time>2016-07-17T11:30:06Z</time>
      </trkpt>
      <trkpt lat="42.90275" lon="17.43095">
        <ele>40</ele>
        <time>2016-07-17T11:32:06Z</time>
      </trkpt>
      <trkpt lat="42.90269" lon="17.43097">
        <ele>39</ele>
        <time>2016-07-17T11:34:06Z</time>
      </trkpt>
      <trkpt lat="42.90263" lon="17.43098">
        <ele>38</ele>
        <time>2016-07-17T11:36:06Z</time>
      </trkpt>
      <trkpt lat="42.90259" lon="17.431">
        <ele>37</ele>
        <time>2016-07-17T11:38:06Z</time>
      </trkpt>
      <trkpt lat="42.90252" lon="17.43104">
        <ele>36</ele>
        <time>2016-07-17T11:40:06Z</time>
      </trkpt>
      <trkpt lat="42.9024" lon="17.43109">
        <ele>34</ele>
        <time>2016-07-17T11:42:06Z</time>
      </trkpt>
      <trkpt lat="42.90229" lon="17.43115">
        <ele>32</ele>
        <time>2016-07-17T11:44:06Z</time>
      </trkpt>
      <trkpt lat="42.90225" lon="17.43119">
        <ele>32</ele>
        <time>2016-07-17T11:46:06Z</time>
      </trkpt>
      <trkpt lat="42.90224" lon="17.43122">
        <ele>32</ele>
        <time>2016-07-17T11:48:06Z</time>
      </trkpt>
      <trkpt lat="42.9022" lon="17.43131">
        <ele>33</ele>
        <time>2016-07-17T11:50:06Z</time>
      </trkpt>
      <trkpt lat="42.90218" lon="17.43138">
        <ele>33</ele>
        <time>2016-07-17T11:52:06Z</time>
      </trkpt>
      <trkpt lat="42.90215" lon="17.43149">
        <ele>35</ele>
        <time>2016-07-17T11:54:06Z</time>
      </trkpt>
      <trkpt lat="42.90212" lon="17.43157">
        <ele>35</ele>
        <time>2016-07-17T11:56:06Z</time>
      </trkpt>
      <trkpt lat="42.90207" lon="17.4317">
        <ele>36</ele>
        <time>2016-07-17T11:58:06Z</time>
      </trkpt>
      <trkpt lat="42.90205" lon="17.43175">
        <ele>37</ele>
        <time>2016-07-17T12:00:06Z</time>
      </trkpt>
      <trkpt lat="42.90203" lon="17.4318">
        <ele>37</ele>
        <time>2016-07-17T12:02:06Z</time>
      </trkpt>
      <trkpt lat="42.902" lon="17.43187">
        <ele>38</ele>
        <time>2016-07-17T12:04:06Z</time>
      </trkpt>
      <trkpt lat="42.90196" lon="17.43193">
        <ele>38</ele>
        <time>2016-07-17T12:06:06Z</time>
      </trkpt>
      <trkpt lat="42.90193" lon="17.43199">
        <ele>38</ele>
        <time>2016-07-17T12:08:06Z</time>
      </trkpt>
      <trkpt lat="42.90189" lon="17.43204">
        <ele>38</ele>
        <time>2016-07-17T12:10:06Z</time>
      </trkpt>
      <trkpt lat="42.90185" lon="17.43209">
        <ele>38</ele>
        <time>2016-07-17T12:12:06Z</time>
      </trkpt>
      <trkpt lat="42.90154" lon="17.43244">
        <ele>36</ele>
        <time>2016-07-17T12:14:06Z</time>
      </trkpt>
      <trkpt lat="42.90153" lon="17.43245">
        <ele>36</ele>
        <time>2016-07-17T12:16:06Z</time>
      </trkpt>
      <trkpt lat="42.90152" lon="17.43247">
        <ele>36</ele>
        <time>2016-07-17T12:18:06Z</time>
      </trkpt>
      <trkpt lat="42.90151" lon="17.43249">
        <ele>36</ele>
        <time>2016-07-17T12:20:06Z</time>
      </trkpt>
      <trkpt lat="42.9015" lon="17.43251">
        <ele>36</ele>
        <time>2016-07-17T12:22:06Z</time>
      </trkpt>
      <trkpt lat="42.90148" lon="17.43256">
        <ele>37</ele>
        <time>2016-07-17T12:24:06Z</time>
      </trkpt>
      <trkpt lat="42.90147" lon="17.4326">
        <ele>38</ele>
        <time>2016-07-17T12:26:06Z</time>
      </trkpt>
      <trkpt lat="42.90145" lon="17.43265">
        <ele>38</ele>
        <time>2016-07-17T12:28:06Z</time>
      </trkpt>
      <trkpt lat="42.90143" lon="17.43269">
        <ele>39</ele>
        <time>2016-07-17T12:30:06Z</time>
      </trkpt>
      <trkpt lat="42.90141" lon="17.43273">
        <ele>39</ele>
        <time>2016-07-17T12:32:06Z</time>
      </trkpt>
      <trkpt lat="42.90139" lon="17.43277">
        <ele>40</ele>
        <time>2016-07-17T12:34:06Z</time>
      </trkpt>
      <trkpt lat="42.90136" lon="17.43281">
        <ele>40</ele>
        <time>2016-07-17T12:36:06Z</time>
      </trkpt>
      <trkpt lat="42.90133" lon="17.43284">
        <ele>40</ele>
        <time>2016-07-17T12:38:06Z</time>
      </trkpt>
      <trkpt lat="42.90131" lon="17.43286">
        <ele>40</ele>
        <time>2016-07-17T12:40:06Z</time>
      </trkpt>
      <trkpt lat="42.90129" lon="17.43288">
        <ele>40</ele>
        <time>2016-07-17T12:42:06Z</time>
      </trkpt>
      <trkpt lat="42.90127" lon="17.43288">
        <ele>39</ele>
        <time>2016-07-17T12:44:06Z</time>
      </trkpt>
      <trkpt lat="42.90124" lon="17.43289">
        <ele>38</ele>
        <time>2016-07-17T12:46:06Z</time>
      </trkpt>
      <trkpt lat="42.9012" lon="17.4329">
        <ele>37</ele>
        <time>2016-07-17T12:48:06Z</time>
      </trkpt>
      <trkpt lat="42.90116" lon="17.43291">
        <ele>36</ele>
        <time>2016-07-17T12:50:06Z</time>
      </trkpt>
      <trkpt lat="42.90112" lon="17.43292">
        <ele>35</ele>
        <time>2016-07-17T12:52:06Z</time>
      </trkpt>
      <trkpt lat="42.90109" lon="17.43294">
        <ele>35</ele>
        <time>2016-07-17T12:54:06Z</time>
      </trkpt>
      <trkpt lat="42.90105" lon="17.43299">
        <ele>35</ele>
        <time>2016-07-17T12:56:06Z</time>
      </trkpt>
      <trkpt lat="42.90094" lon="17.43314">
        <ele>35</ele>
        <time>2016-07-17T12:58:06Z</time>
      </trkpt>
      <trkpt lat="42.90087" lon="17.43329">
        <ele>37</ele>
        <time>2016-07-17T13:00:06Z</time>
      </trkpt>
      <trkpt lat="42.90082" lon="17.43336">
        <ele>37</ele>
        <time>2016-07-17T13:02:06Z</time>
      </trkpt>
      <trkpt lat="42.90078" lon="17.43342">
        <ele>38</ele>
        <time>2016-07-17T13:04:06Z</time>
      </trkpt>
      <trkpt lat="42.90074" lon="17.43346">
        <ele>37</ele>
        <time>2016-07-17T13:06:06Z</time>
      </trkpt>
      <trkpt lat="42.90068" lon="17.43352">
        <ele>37</ele>
        <time>2016-07-17T13:08:06Z</time>
      </trkpt>
      <trkpt lat="42.90058" lon="17.43362">
        <ele>36</ele>
        <time>2016-07-17T13:10:06Z</time>
      </trkpt>
      <trkpt lat="42.90052" lon="17.43367">
        <ele>35</ele>
        <time>2016-07-17T13:12:06Z</time>
      </trkpt>
      <trkpt lat="42.90049" lon="17.43371">
        <ele>35</ele>
        <time>2016-07-17T13:14:06Z</time>
      </trkpt>
      <trkpt lat="42.90046" lon="17.43375">
        <ele>35</ele>
        <time>2016-07-17T13:16:06Z</time>
      </trkpt>
      <trkpt lat="42.90035" lon="17.43394">
        <ele>36</ele>
        <time>2016-07-17T13:18:06Z</time>
      </trkpt>
      <trkpt lat="42.90031" lon="17.43399">
        <ele>35</ele>
        <time>2016-07-17T13:20:06Z</time>
      </trkpt>
      <trkpt lat="42.9001" lon="17.43428">
        <ele>34</ele>
        <time>2016-07-17T13:22:06Z</time>
      </trkpt>
      <trkpt lat="42.89996" lon="17.43452">
        <ele>35</ele>
        <time>2016-07-17T13:24:06Z</time>
      </trkpt>
      <trkpt lat="42.89985" lon="17.43468">
        <ele>35</ele>
        <time>2016-07-17T13:26:06Z</time>
      </trkpt>
      <trkpt lat="42.89975" lon="17.43483">
        <ele>35</ele>
        <time>2016-07-17T13:28:06Z</time>
      </trkpt>
      <trkpt lat="42.89963" lon="17.43499">
        <ele>34</ele>
        <time>2016-07-17T13:30:06Z</time>
      </trkpt>
      <trkpt lat="42.89957" lon="17.43505">
        <ele>33</ele>
        <time>2016-07-17T13:32:06Z</time>
      </trkpt>
      <trkpt lat="42.89954" lon="17.43508">
        <ele>32</ele>
        <time>2016-07-17T13:34:06Z</time>
      </trkpt>
      <trkpt lat="42.8995" lon="17.43513">
        <ele>32</ele>
        <time>2016-07-17T13:36:06Z</time>
      </trkpt>
      <trkpt lat="42.89946" lon="17.4352">
        <ele>32</ele>
        <time>2016-07-17T13:38:06Z</time>
      </trkpt>
      <trkpt lat="42.89942" lon="17.43527">
        <ele>31</ele>
        <time>2016-07-17T13:40:06Z</time>
      </trkpt>
      <trkpt lat="42.8993" lon="17.43555">
        <ele>33</ele>
        <time>2016-07-17T13:42:06Z</time>
      </trkpt>
      <trkpt lat="42.89898" lon="17.43622">
        <ele>35</ele>
        <time>2016-07-17T13:44:06Z</time>
      </trkpt>
      <trkpt lat="42.89892" lon="17.43632">
        <ele>34</ele>
        <time>2016-07-17T13:46:06Z</time>
      </trkpt>
      <trkpt lat="42.89887" lon="17.43648">
        <ele>35</ele>
        <time>2016-07-17T13:48:06Z</time>
      </trkpt>
      <trkpt lat="42.89882" lon="17.43675">
        <ele>38</ele>
        <time>2016-07-17T13:50:06Z</time>
      </trkpt>
      <trkpt lat="42.8988" lon="17.43694">
        <ele>39</ele>
        <time>2016-07-17T13:52:06Z</time>
      </trkpt>
      <trkpt lat="42.8988" lon="17.43711">
        <ele>41</ele>
        <time>2016-07-17T13:54:06Z</time>
      </trkpt>
      <trkpt lat="42.89879" lon="17.43715">
        <ele>41</ele>
        <time>2016-07-17T13:56:06Z</time>
      </trkpt>
      <trkpt lat="42.89879" lon="17.4372">
        <ele>42</ele>
        <time>2016-07-17T13:58:06Z</time>
      </trkpt>
      <trkpt lat="42.89878" lon="17.43722">
        <ele>42</ele>
        <time>2016-07-17T14:00:06Z</time>
      </trkpt>
      <trkpt lat="42.89877" lon="17.43724">
        <ele>41</ele>
        <time>2016-07-17T14:02:06Z</time>
      </trkpt>
      <trkpt lat="42.89877" lon="17.43726">
        <ele>42</ele>
        <time>2016-07-17T14:04:06Z</time>
      </trkpt>
      <trkpt lat="42.89876" lon="17.43728">
        <ele>41</ele>
        <time>2016-07-17T14:06:06Z</time>
      </trkpt>
      <trkpt lat="42.89874" lon="17.43731">
        <ele>41</ele>
        <time>2016-07-17T14:08:06Z</time>
      </trkpt>
      <trkpt lat="42.8987" lon="17.43735">
        <ele>39</ele>
        <time>2016-07-17T14:10:06Z</time>
      </trkpt>
      <trkpt lat="42.89863" lon="17.43744">
        <ele>37</ele>
        <time>2016-07-17T14:12:06Z</time>
      </trkpt>
      <trkpt lat="42.89857" lon="17.43753">
        <ele>36</ele>
        <time>2016-07-17T14:14:06Z</time>
      </trkpt>
      <trkpt lat="42.89849" lon="17.43768">
        <ele>34</ele>
        <time>2016-07-17T14:16:06Z</time>
      </trkpt>
      <trkpt lat="42.89838" lon="17.438">
        <ele>33</ele>
        <time>2016-07-17T14:18:06Z</time>
      </trkpt>
      <trkpt lat="42.89821" lon="17.43843">
        <ele>33</ele>
        <time>2016-07-17T14:20:06Z</time>
      </trkpt>
      <trkpt lat="42.8982" lon="17.43847">
        <ele>33</ele>
        <time>2016-07-17T14:22:06Z</time>
      </trkpt>
      <trkpt lat="42.89819" lon="17.43854">
        <ele>34</ele>
        <time>2016-07-17T14:24:06Z</time>
      </trkpt>
      <trkpt lat="42.89812" lon="17.43884">
        <ele>34</ele>
        <time>2016-07-17T14:26:06Z</time>
      </trkpt>
      <trkpt lat="42.89804" lon="17.43938">
        <ele>34</ele>
        <time>2016-07-17T14:28:06Z</time>
      </trkpt>
      <trkpt lat="42.89802" lon="17.4399">
        <ele>34</ele>
        <time>2016-07-17T14:30:06Z</time>
      </trkpt>
      <trkpt lat="42.89798" lon="17.44075">
        <ele>31</ele>
        <time>2016-07-17T14:32:06Z</time>
      </trkpt>
      <trkpt lat="42.89798" lon="17.44082">
        <ele>31</ele>
        <time>2016-07-17T14:34:06Z</time>
      </trkpt>
      <trkpt lat="42.89799" lon="17.4409">
        <ele>31</ele>
        <time>2016-07-17T14:36:06Z</time>
      </trkpt>
      <trkpt lat="42.898" lon="17.44097">
        <ele>31</ele>
        <time>2016-07-17T14:38:06Z</time>
      </trkpt>
      <trkpt lat="42.89801" lon="17.44105">
        <ele>31</ele>
        <time>2016-07-17T14:40:06Z</time>
      </trkpt>
      <trkpt lat="42.89802" lon="17.44112">
        <ele>32</ele>
        <time>2016-07-17T14:42:06Z</time>
      </trkpt>
      <trkpt lat="42.89803" lon="17.44118">
        <ele>32</ele>
        <time>2016-07-17T14:44:06Z</time>
      </trkpt>
      <trkpt lat="42.89805" lon="17.44124">
        <ele>32</ele>
        <time>2016-07-17T14:46:06Z</time>
      </trkpt>
      <trkpt lat="42.89807" lon="17.44129">
        <ele>33</ele>
        <time>2016-07-17T14:48:06Z</time>
      </trkpt>
      <trkpt lat="42.89809" lon="17.44135">
        <ele>33</ele>
        <time>2016-07-17T14:50:06Z</time>
      </trkpt>
      <trkpt lat="42.89809" lon="17.44137">
        <ele>33</ele>
        <time>2016-07-17T14:52:06Z</time>
      </trkpt>
      <trkpt lat="42.8981" lon="17.44139">
        <ele>34</ele>
        <time>2016-07-17T14:54:06Z</time>
      </trkpt>
      <trkpt lat="42.8981" lon="17.44146">
        <ele>33</ele>
        <time>2016-07-17T14:56:06Z</time>
      </trkpt>
      <trkpt lat="42.89809" lon="17.44175">
        <ele>32</ele>
        <time>2016-07-17T14:58:06Z</time>
      </trkpt>
      <trkpt lat="42.89807" lon="17.44218">
        <ele>30</ele>
        <time>2016-07-17T15:00:06Z</time>
      </trkpt>
      <trkpt lat="42.89804" lon="17.44251">
        <ele>29</ele>
        <time>2016-07-17T15:02:06Z</time>
      </trkpt>
      <trkpt lat="42.89801" lon="17.44273">
        <ele>29</ele>
        <time>2016-07-17T15:04:06Z</time>
      </trkpt>
      <trkpt lat="42.89795" lon="17.44294">
        <ele>29</ele>
        <time>2016-07-17T15:06:06Z</time>
      </trkpt>
      <trkpt lat="42.8979" lon="17.4431">
        <ele>28</ele>
        <time>2016-07-17T15:08:06Z</time>
      </trkpt>
      <trkpt lat="42.89786" lon="17.44327">
        <ele>28</ele>
        <time>2016-07-17T15:10:06Z</time>
      </trkpt>
      <trkpt lat="42.89784" lon="17.44333">
        <ele>28</ele>
        <time>2016-07-17T15:12:06Z</time>
      </trkpt>
      <trkpt lat="42.89782" lon="17.44337">
        <ele>28</ele>
        <time>2016-07-17T15:14:06Z</time>
      </trkpt>
      <trkpt lat="42.8978" lon="17.44341">
        <ele>29</ele>
        <time>2016-07-17T15:16:06Z</time>
      </trkpt>
      <trkpt lat="42.89778" lon="17.44343">
        <ele>29</ele>
        <time>2016-07-17T15:18:06Z</time>
      </trkpt>
      <trkpt lat="42.89773" lon="17.44349">
        <ele>29</ele>
        <time>2016-07-17T15:20:06Z</time>
      </trkpt>
      <trkpt lat="42.89768" lon="17.44354">
        <ele>29</ele>
        <time>2016-07-17T15:22:06Z</time>
      </trkpt>
      <trkpt lat="42.89757" lon="17.4436">
        <ele>27</ele>
        <time>2016-07-17T15:24:06Z</time>
      </trkpt>
      <trkpt lat="42.89749" lon="17.44364">
        <ele>22</ele>
        <time>2016-07-17T15:26:06Z</time>
      </trkpt>
      <trkpt lat="42.89743" lon="17.44368">
        <ele>22</ele>
        <time>2016-07-17T15:28:06Z</time>
      </trkpt>
      <trkpt lat="42.89739" lon="17.44371">
        <ele>22</ele>
        <time>2016-07-17T15:30:06Z</time>
      </trkpt>
      <trkpt lat="42.89736" lon="17.44373">
        <ele>22</ele>
        <time>2016-07-17T15:32:06Z</time>
      </trkpt>
      <trkpt lat="42.89734" lon="17.44376">
        <ele>22</ele>
        <time>2016-07-17T15:34:06Z</time>
      </trkpt>
      <trkpt lat="42.89727" lon="17.44386">
        <ele>22</ele>
        <time>2016-07-17T15:36:06Z</time>
      </trkpt>
      <trkpt lat="42.89717" lon="17.44403">
        <ele>22</ele>
        <time>2016-07-17T15:38:06Z</time>
      </trkpt>
      <trkpt lat="42.89683" lon="17.44471">
        <ele>27</ele>
        <time>2016-07-17T15:40:06Z</time>
      </trkpt>
      <trkpt lat="42.8967" lon="17.44498">
        <ele>27</ele>
        <time>2016-07-17T15:42:06Z</time>
      </trkpt>
      <trkpt lat="42.89667" lon="17.44506">
        <ele>27</ele>
        <time>2016-07-17T15:44:06Z</time>
      </trkpt>
      <trkpt lat="42.89664" lon="17.44514">
        <ele>28</ele>
        <time>2016-07-17T15:46:06Z</time>
      </trkpt>
      <trkpt lat="42.89654" lon="17.44555">
        <ele>31</ele>
        <time>2016-07-17T15:48:06Z</time>
      </trkpt>
      <trkpt lat="42.89648" lon="17.44581">
        <ele>33</ele>
        <time>2016-07-17T15:50:06Z</time>
      </trkpt>
      <trkpt lat="42.89646" lon="17.44589">
        <ele>34</ele>
        <time>2016-07-17T15:52:06Z</time>
      </trkpt>
      <trkpt lat="42.89643" lon="17.446">
        <ele>34</ele>
        <time>2016-07-17T15:54:06Z</time>
      </trkpt>
      <trkpt lat="42.8964" lon="17.44609">
        <ele>34</ele>
        <time>2016-07-17T15:56:06Z</time>
      </trkpt>
      <trkpt lat="42.89635" lon="17.4462">
        <ele>33</ele>
        <time>2016-07-17T15:58:06Z</time>
      </trkpt>
      <trkpt lat="42.89628" lon="17.44633">
        <ele>32</ele>
        <time>2016-07-17T16:00:06Z</time>
      </trkpt>
      <trkpt lat="42.89624" lon="17.4464">
        <ele>32</ele>
        <time>2016-07-17T16:02:06Z</time>
      </trkpt>
      <trkpt lat="42.89619" lon="17.44647">
        <ele>31</ele>
        <time>2016-07-17T16:04:06Z</time>
      </trkpt>
      <trkpt lat="42.89614" lon="17.44652">
        <ele>29</ele>
        <time>2016-07-17T16:06:06Z</time>
      </trkpt>
      <trkpt lat="42.89599" lon="17.4467">
        <ele>26</ele>
        <time>2016-07-17T16:08:06Z</time>
      </trkpt>
      <trkpt lat="42.89572" lon="17.44714">
        <ele>19</ele>
        <time>2016-07-17T16:10:06Z</time>
      </trkpt>
      <trkpt lat="42.89564" lon="17.44729">
        <ele>19</ele>
        <time>2016-07-17T16:12:06Z</time>
      </trkpt>
      <trkpt lat="42.89564" lon="17.4473">
        <ele>19</ele>
        <time>2016-07-17T16:14:06Z</time>
      </trkpt>
      <trkpt lat="42.89544" lon="17.44786">
        <ele>25</ele>
        <time>2016-07-17T16:16:06Z</time>
      </trkpt>
      <trkpt lat="42.89534" lon="17.44812">
        <ele>25</ele>
        <time>2016-07-17T16:18:06Z</time>
      </trkpt>
      <trkpt lat="42.89525" lon="17.44832">
        <ele>25</ele>
        <time>2016-07-17T16:20:06Z</time>
      </trkpt>
      <trkpt lat="42.89521" lon="17.4484">
        <ele>25</ele>
        <time>2016-07-17T16:22:06Z</time>
      </trkpt>
      <trkpt lat="42.89516" lon="17.4485">
        <ele>25</ele>
        <time>2016-07-17T16:24:06Z</time>
      </trkpt>
      <trkpt lat="42.89511" lon="17.44858">
        <ele>24</ele>
        <time>2016-07-17T16:26:06Z</time>
      </trkpt>
      <trkpt lat="42.89502" lon="17.44871">
        <ele>24</ele>
        <time>2016-07-17T16:28:06Z</time>
      </trkpt>
      <trkpt lat="42.89496" lon="17.44882">
        <ele>24</ele>
        <time>2016-07-17T16:30:06Z</time>
      </trkpt>
      <trkpt lat="42.89492" lon="17.44892">
        <ele>24</ele>
        <time>2016-07-17T16:32:06Z</time>
      </trkpt>
      <trkpt lat="42.89489" lon="17.44903">
        <ele>25</ele>
        <time>2016-07-17T16:34:06Z</time>
      </trkpt>
      <trkpt lat="42.89462" lon="17.44985">
        <ele>25</ele>
        <time>2016-07-17T16:36:06Z</time>
      </trkpt>
      <trkpt lat="42.89459" lon="17.44996">
        <ele>25</ele>
        <time>2016-07-17T16:38:06Z</time>
      </trkpt>
      <trkpt lat="42.89456" lon="17.45008">
        <ele>25</ele>
        <time>2016-07-17T16:40:06Z</time>
      </trkpt>
      <trkpt lat="42.89454" lon="17.45021">
        <ele>24</ele>
        <time>2016-07-17T16:42:06Z</time>
      </trkpt>
      <trkpt lat="42.89452" lon="17.45033">
        <ele>24</ele>
        <time>2016-07-17T16:44:06Z</time>
      </trkpt>
      <trkpt lat="42.89449" lon="17.45057">
        <ele>24</ele>
        <time>2016-07-17T16:46:06Z</time>
      </trkpt>
      <trkpt lat="42.89447" lon="17.45078">
        <ele>23</ele>
        <time>2016-07-17T16:48:06Z</time>
      </trkpt>
      <trkpt lat="42.89445" lon="17.45096">
        <ele>24</ele>
        <time>2016-07-17T16:50:06Z</time>
      </trkpt>
      <trkpt lat="42.89443" lon="17.45112">
        <ele>24</ele>
        <time>2016-07-17T16:52:06Z</time>
      </trkpt>
      <trkpt lat="42.89441" lon="17.45118">
        <ele>24</ele>
        <time>2016-07-17T16:54:06Z</time>
      </trkpt>
      <trkpt lat="42.89438" lon="17.45129">
        <ele>24</ele>
        <time>2016-07-17T16:56:06Z</time>
      </trkpt>
      <trkpt lat="42.89434" lon="17.45144">
        <ele>23</ele>
        <time>2016-07-17T16:58:06Z</time>
      </trkpt>
      <trkpt lat="42.89425" lon="17.45169">
        <ele>21</ele>
        <time>2016-07-17T17:00:06Z</time>
      </trkpt>
      <trkpt lat="42.89422" lon="17.45176">
        <ele>20</ele>
        <time>2016-07-17T17:02:06Z</time>
      </trkpt>
      <trkpt lat="42.8942" lon="17.45185">
        <ele>20</ele>
        <time>2016-07-17T17:04:06Z</time>
      </trkpt>
      <trkpt lat="42.89418" lon="17.45192">
        <ele>19</ele>
        <time>2016-07-17T17:06:06Z</time>
      </trkpt>
      <trkpt lat="42.89416" lon="17.45199">
        <ele>15</ele>
        <time>2016-07-17T17:08:06Z</time>
      </trkpt>
      <trkpt lat="42.89415" lon="17.45206">
        <ele>15</ele>
        <time>2016-07-17T17:10:06Z</time>
      </trkpt>
      <trkpt lat="42.89415" lon="17.45218">
        <ele>15</ele>
        <time>2016-07-17T17:12:06Z</time>
      </trkpt>
      <trkpt lat="42.89414" lon="17.45242">
        <ele>15</ele>
        <time>2016-07-17T17:14:06Z</time>
      </trkpt>
      <trkpt lat="42.89413" lon="17.45264">
        <ele>21</ele>
        <time>2016-07-17T17:16:06Z</time>
      </trkpt>
      <trkpt lat="42.89412" lon="17.45301">
        <ele>21</ele>
        <time>2016-07-17T17:18:06Z</time>
      </trkpt>
      <trkpt lat="42.8941" lon="17.45356">
        <ele>22</ele>
        <time>2016-07-17T17:20:06Z</time>
      </trkpt>
      <trkpt lat="42.89409" lon="17.45375">
        <ele>23</ele>
        <time>2016-07-17T17:22:06Z</time>
      </trkpt>
      <trkpt lat="42.89408" lon="17.45383">
        <ele>23</ele>
        <time>2016-07-17T17:24:06Z</time>
      </trkpt>
      <trkpt lat="42.89406" lon="17.45391">
        <ele>23</ele>
        <time>2016-07-17T17:26:06Z</time>
      </trkpt>
      <trkpt lat="42.89405" lon="17.45399">
        <ele>23</ele>
        <time>2016-07-17T17:28:06Z</time>
      </trkpt>
      <trkpt lat="42.89403" lon="17.45406">
        <ele>23</ele>
        <time>2016-07-17T17:30:06Z</time>
      </trkpt>
      <trkpt lat="42.89401" lon="17.45414">
        <ele>23</ele>
        <time>2016-07-17T17:32:06Z</time>
      </trkpt>
      <trkpt lat="42.89398" lon="17.45422">
        <ele>23</ele>
        <time>2016-07-17T17:34:06Z</time>
      </trkpt>
      <trkpt lat="42.89396" lon="17.45429">
        <ele>23</ele>
        <time>2016-07-17T17:36:06Z</time>
      </trkpt>
      <trkpt lat="42.89396" lon="17.4543">
        <ele>23</ele>
        <time>2016-07-17T17:38:06Z</time>
      </trkpt>
      <trkpt lat="42.89392" lon="17.45436">
        <ele>23</ele>
        <time>2016-07-17T17:40:06Z</time>
      </trkpt>
      <trkpt lat="42.8939" lon="17.4544">
        <ele>23</ele>
        <time>2016-07-17T17:42:06Z</time>
      </trkpt>
      <trkpt lat="42.8938" lon="17.45452">
        <ele>22</ele>
        <time>2016-07-17T17:44:06Z</time>
      </trkpt>
      <trkpt lat="42.8936" lon="17.45477">
        <ele>20</ele>
        <time>2016-07-17T17:46:06Z</time>
      </trkpt>
      <trkpt lat="42.89359" lon="17.45483">
        <ele>20</ele>
        <time>2016-07-17T17:48:06Z</time>
      </trkpt>
      <trkpt lat="42.89358" lon="17.45492">
        <ele>20</ele>
        <time>2016-07-17T17:50:06Z</time>
      </trkpt>
      <trkpt lat="42.89358" lon="17.45497">
        <ele>20</ele>
        <time>2016-07-17T17:52:06Z</time>
      </trkpt>
      <trkpt lat="42.89357" lon="17.45512">
        <ele>21</ele>
        <time>2016-07-17T17:54:06Z</time>
      </trkpt>
      <trkpt lat="42.89357" lon="17.45516">
        <ele>21</ele>
        <time>2016-07-17T17:56:06Z</time>
      </trkpt>
      <trkpt lat="42.89354" lon="17.45544">
        <ele>23</ele>
        <time>2016-07-17T17:58:06Z</time>
      </trkpt>
      <trkpt lat="42.89352" lon="17.45565">
        <ele>24</ele>
        <time>2016-07-17T18:00:06Z</time>
      </trkpt>
      <trkpt lat="42.89351" lon="17.45566">
        <ele>24</ele>
        <time>2016-07-17T18:02:06Z</time>
      </trkpt>
      <trkpt lat="42.89349" lon="17.45578">
        <ele>25</ele>
        <time>2016-07-17T18:04:06Z</time>
      </trkpt>
      <trkpt lat="42.89349" lon="17.4558">
        <ele>25</ele>
        <time>2016-07-17T18:06:06Z</time>
      </trkpt>
      <trkpt lat="42.8933" lon="17.45617">
        <ele>29</ele>
        <time>2016-07-17T18:08:06Z</time>
      </trkpt>
      <trkpt lat="42.89322" lon="17.45633">
        <ele>30</ele>
        <time>2016-07-17T18:10:06Z</time>
      </trkpt>
      <trkpt lat="42.89315" lon="17.45642">
        <ele>31</ele>
        <time>2016-07-17T18:12:06Z</time>
      </trkpt>
      <trkpt lat="42.89295" lon="17.45663">
        <ele>32</ele>
        <time>2016-07-17T18:14:06Z</time>
      </trkpt>
      <trkpt lat="42.89285" lon="17.4567">
        <ele>33</ele>
        <time>2016-07-17T18:16:06Z</time>
      </trkpt>
      <trkpt lat="42.89273" lon="17.4568">
        <ele>34</ele>
        <time>2016-07-17T18:18:06Z</time>
      </trkpt>
      <trkpt lat="42.89256" lon="17.45699">
        <ele>36</ele>
        <time>2016-07-17T18:20:06Z</time>
      </trkpt>
      <trkpt lat="42.89248" lon="17.45709">
        <ele>37</ele>
        <time>2016-07-17T18:22:06Z</time>
      </trkpt>
      <trkpt lat="42.8924" lon="17.45724">
        <ele>38</ele>
        <time>2016-07-17T18:24:06Z</time>
      </trkpt>
      <trkpt lat="42.89231" lon="17.45738">
        <ele>39</ele>
        <time>2016-07-17T18:26:06Z</time>
      </trkpt>
      <trkpt lat="42.8922" lon="17.45756">
        <ele>39</ele>
        <time>2016-07-17T18:28:06Z</time>
      </trkpt>
      <trkpt lat="42.89208" lon="17.45782">
        <ele>42</ele>
        <time>2016-07-17T18:30:06Z</time>
      </trkpt>
      <trkpt lat="42.89198" lon="17.45806">
        <ele>44</ele>
        <time>2016-07-17T18:32:06Z</time>
      </trkpt>
      <trkpt lat="42.89189" lon="17.45828">
        <ele>45</ele>
        <time>2016-07-17T18:34:06Z</time>
      </trkpt>
      <trkpt lat="42.8918" lon="17.45854">
        <ele>47</ele>
        <time>2016-07-17T18:36:06Z</time>
      </trkpt>
      <trkpt lat="42.89174" lon="17.45875">
        <ele>48</ele>
        <time>2016-07-17T18:38:06Z</time>
      </trkpt>
      <trkpt lat="42.89171" lon="17.45894">
        <ele>51</ele>
        <time>2016-07-17T18:40:06Z</time>
      </trkpt>
      <trkpt lat="42.89169" lon="17.45912">
        <ele>53</ele>
        <time>2016-07-17T18:42:06Z</time>
      </trkpt>
      <trkpt lat="42.89168" lon="17.45918">
        <ele>54</ele>
        <time>2016-07-17T18:44:06Z</time>
      </trkpt>
      <trkpt lat="42.89166" lon="17.45939">
        <ele>55</ele>
        <time>2016-07-17T18:46:06Z</time>
      </trkpt>
      <trkpt lat="42.89165" lon="17.45942">
        <ele>56</ele>
        <time>2016-07-17T18:48:06Z</time>
      </trkpt>
      <trkpt lat="42.89162" lon="17.45972">
        <ele>58</ele>
        <time>2016-07-17T18:50:06Z</time>
      </trkpt>
      <trkpt lat="42.89158" lon="17.46">
        <ele>61</ele>
        <time>2016-07-17T18:52:06Z</time>
      </trkpt>
      <trkpt lat="42.89153" lon="17.46041">
        <ele>63</ele>
        <time>2016-07-17T18:54:06Z</time>
      </trkpt>
      <trkpt lat="42.89149" lon="17.46076">
        <ele>66</ele>
        <time>2016-07-17T18:56:06Z</time>
      </trkpt>
      <trkpt lat="42.89143" lon="17.46119">
        <ele>70</ele>
        <time>2016-07-17T18:58:06Z</time>
      </trkpt>
      <trkpt lat="42.89143" lon="17.46121">
        <ele>70</ele>
        <time>2016-07-17T19:00:06Z</time>
      </trkpt>
      <trkpt lat="42.89138" lon="17.46155">
        <ele>74</ele>
        <time>2016-07-17T19:02:06Z</time>
      </trkpt>
      <trkpt lat="42.89135" lon="17.46176">
        <ele>77</ele>
        <time>2016-07-17T19:04:06Z</time>
      </trkpt>
      <trkpt lat="42.89132" lon="17.46189">
        <ele>80</ele>
        <time>2016-07-17T19:06:06Z</time>
      </trkpt>
      <trkpt lat="42.89127" lon="17.46195">
        <ele>80</ele>
        <time>2016-07-17T19:08:06Z</time>
      </trkpt>
      <trkpt lat="42.89121" lon="17.46199">
        <ele>80</ele>
        <time>2016-07-17T19:10:06Z</time>
      </trkpt>
      <trkpt lat="42.89116" lon="17.462">
        <ele>80</ele>
        <time>2016-07-17T19:12:06Z</time>
      </trkpt>
      <trkpt lat="42.8911" lon="17.46199">
        <ele>78</ele>
        <time>2016-07-17T19:14:06Z</time>
      </trkpt>
      <trkpt lat="42.89101" lon="17.46196">
        <ele>76</ele>
        <time>2016-07-17T19:16:06Z</time>
      </trkpt>
      <trkpt lat="42.89091" lon="17.46194">
        <ele>74</ele>
        <time>2016-07-17T19:18:06Z</time>
      </trkpt>
      <trkpt lat="42.89081" lon="17.46197">
        <ele>73</ele>
        <time>2016-07-17T19:20:06Z</time>
      </trkpt>
      <trkpt lat="42.89071" lon="17.46202">
        <ele>73</ele>
        <time>2016-07-17T19:22:06Z</time>
      </trkpt>
      <trkpt lat="42.8906" lon="17.4621">
        <ele>74</ele>
        <time>2016-07-17T19:24:06Z</time>
      </trkpt>
      <trkpt lat="42.89048" lon="17.4622">
        <ele>75</ele>
        <time>2016-07-17T19:26:06Z</time>
      </trkpt>
      <trkpt lat="42.89033" lon="17.46234">
        <ele>77</ele>
        <time>2016-07-17T19:28:06Z</time>
      </trkpt>
      <trkpt lat="42.89024" lon="17.46242">
        <ele>78</ele>
        <time>2016-07-17T19:30:06Z</time>
      </trkpt>
      <trkpt lat="42.89009" lon="17.46258">
        <ele>81</ele>
        <time>2016-07-17T19:32:06Z</time>
      </trkpt>
      <trkpt lat="42.88993" lon="17.46273">
        <ele>83</ele>
        <time>2016-07-17T19:34:06Z</time>
      </trkpt>
      <trkpt lat="42.88968" lon="17.46301">
        <ele>84</ele>
        <time>2016-07-17T19:36:06Z</time>
      </trkpt>
      <trkpt lat="42.88954" lon="17.4632">
        <ele>86</ele>
        <time>2016-07-17T19:38:06Z</time>
      </trkpt>
      <trkpt lat="42.88942" lon="17.46341">
        <ele>88</ele>
        <time>2016-07-17T19:40:06Z</time>
      </trkpt>
      <trkpt lat="42.88925" lon="17.46374">
        <ele>90</ele>
        <time>2016-07-17T19:42:06Z</time>
      </trkpt>
      <trkpt lat="42.889" lon="17.46421">
        <ele>93</ele>
        <time>2016-07-17T19:44:06Z</time>
      </trkpt>
      <trkpt lat="42.88885" lon="17.4645">
        <ele>96</ele>
        <time>2016-07-17T19:46:06Z</time>
      </trkpt>
      <trkpt lat="42.88868" lon="17.46482">
        <ele>99</ele>
        <time>2016-07-17T19:48:06Z</time>
      </trkpt>
      <trkpt lat="42.88843" lon="17.46525">
        <ele>100</ele>
        <time>2016-07-17T19:50:06Z</time>
      </trkpt>
      <trkpt lat="42.88817" lon="17.46571">
        <ele>102</ele>
        <time>2016-07-17T19:52:06Z</time>
      </trkpt>
      <trkpt lat="42.88786" lon="17.4663">
        <ele>104</ele>
        <time>2016-07-17T19:54:06Z</time>
      </trkpt>
      <trkpt lat="42.88752" lon="17.46692">
        <ele>107</ele>
        <time>2016-07-17T19:56:06Z</time>
      </trkpt>
      <trkpt lat="42.88745" lon="17.46706">
        <ele>108</ele>
        <time>2016-07-17T19:58:06Z</time>
      </trkpt>
      <trkpt lat="42.88739" lon="17.46721">
        <ele>109</ele>
        <time>2016-07-17T20:00:06Z</time>
      </trkpt>
      <trkpt lat="42.88731" lon="17.46745">
        <ele>111</ele>
        <time>2016-07-17T20:02:06Z</time>
      </trkpt>
      <trkpt lat="42.88728" lon="17.46756">
        <ele>112</ele>
        <time>2016-07-17T20:04:06Z</time>
      </trkpt>
      <trkpt lat="42.88724" lon="17.46775">
        <ele>113</ele>
        <time>2016-07-17T20:06:06Z</time>
      </trkpt>
      <trkpt lat="42.88718" lon="17.468">
        <ele>114</ele>
        <time>2016-07-17T20:08:06Z</time>
      </trkpt>
      <trkpt lat="42.88714" lon="17.46824">
        <ele>116</ele>
        <time>2016-07-17T20:10:06Z</time>
      </trkpt>
      <trkpt lat="42.88711" lon="17.46846">
        <ele>117</ele>
        <time>2016-07-17T20:12:06Z</time>
      </trkpt>
      <trkpt lat="42.88709" lon="17.46865">
        <ele>117</ele>
        <time>2016-07-17T20:14:06Z</time>
      </trkpt>
      <trkpt lat="42.88708" lon="17.46879">
        <ele>117</ele>
        <time>2016-07-17T20:16:06Z</time>
      </trkpt>
      <trkpt lat="42.88708" lon="17.46892">
        <ele>118</ele>
        <time>2016-07-17T20:18:06Z</time>
      </trkpt>
      <trkpt lat="42.8871" lon="17.4691">
        <ele>120</ele>
        <time>2016-07-17T20:20:06Z</time>
      </trkpt>
      <trkpt lat="42.88714" lon="17.46931">
        <ele>121</ele>
        <time>2016-07-17T20:22:06Z</time>
      </trkpt>
      <trkpt lat="42.88722" lon="17.46959">
        <ele>123</ele>
        <time>2016-07-17T20:24:06Z</time>
      </trkpt>
      <trkpt lat="42.88728" lon="17.46989">
        <ele>125</ele>
        <time>2016-07-17T20:26:06Z</time>
      </trkpt>
      <trkpt lat="42.88734" lon="17.47009">
        <ele>128</ele>
        <time>2016-07-17T20:28:06Z</time>
      </trkpt>
      <trkpt lat="42.88737" lon="17.47021">
        <ele>131</ele>
        <time>2016-07-17T20:30:06Z</time>
      </trkpt>
      <trkpt lat="42.88738" lon="17.47027">
        <ele>133</ele>
        <time>2016-07-17T20:32:06Z</time>
      </trkpt>
      <trkpt lat="42.88739" lon="17.47033">
        <ele>134</ele>
        <time>2016-07-17T20:34:06Z</time>
      </trkpt>
      <trkpt lat="42.88737" lon="17.4704">
        <ele>134</ele>
        <time>2016-07-17T20:36:06Z</time>
      </trkpt>
      <trkpt lat="42.88734" lon="17.4705">
        <ele>133</ele>
        <time>2016-07-17T20:38:06Z</time>
      </trkpt>
      <trkpt lat="42.88729" lon="17.47059">
        <ele>131</ele>
        <time>2016-07-17T20:40:06Z</time>
      </trkpt>
      <trkpt lat="42.88717" lon="17.4708">
        <ele>127</ele>
        <time>2016-07-17T20:42:06Z</time>
      </trkpt>
      <trkpt lat="42.88705" lon="17.47102">
        <ele>124</ele>
        <time>2016-07-17T20:44:06Z</time>
      </trkpt>
      <trkpt lat="42.88701" lon="17.47111">
        <ele>123</ele>
        <time>2016-07-17T20:46:06Z</time>
      </trkpt>
      <trkpt lat="42.88699" lon="17.47118">
        <ele>123</ele>
        <time>2016-07-17T20:48:06Z</time>
      </trkpt>
      <trkpt lat="42.88698" lon="17.47125">
        <ele>124</ele>
        <time>2016-07-17T20:50:06Z</time>
      </trkpt>
      <trkpt lat="42.88696" lon="17.47153">
        <ele>127</ele>
        <time>2016-07-17T20:52:06Z</time>
      </trkpt>
      <trkpt lat="42.88696" lon="17.47186">
        <ele>131</ele>
        <time>2016-07-17T20:54:06Z</time>
      </trkpt>
      <trkpt lat="42.88697" lon="17.47199">
        <ele>133</ele>
        <time>2016-07-17T20:56:06Z</time>
      </trkpt>
      <trkpt lat="42.887" lon="17.4721">
        <ele>135</ele>
        <time>2016-07-17T20:58:06Z</time>
      </trkpt>
      <trkpt lat="42.88702" lon="17.47219">
        <ele>137</ele>
        <time>2016-07-17T21:00:06Z</time>
      </trkpt>
      <trkpt lat="42.88702" lon="17.47232">
        <ele>138</ele>
        <time>2016-07-17T21:02:06Z</time>
      </trkpt>
      <trkpt lat="42.887" lon="17.47253">
        <ele>139</ele>
        <time>2016-07-17T21:04:06Z</time>
      </trkpt>
      <trkpt lat="42.88698" lon="17.47272">
        <ele>139</ele>
        <time>2016-07-17T21:06:06Z</time>
      </trkpt>
      <trkpt lat="42.88696" lon="17.47292">
        <ele>139</ele>
        <time>2016-07-17T21:08:06Z</time>
      </trkpt>
      <trkpt lat="42.88696" lon="17.47312">
        <ele>140</ele>
        <time>2016-07-17T21:10:06Z</time>
      </trkpt>
      <trkpt lat="42.88698" lon="17.47325">
        <ele>142</ele>
        <time>2016-07-17T21:12:06Z</time>
      </trkpt>
      <trkpt lat="42.88702" lon="17.47345">
        <ele>145</ele>
        <time>2016-07-17T21:14:06Z</time>
      </trkpt>
      <trkpt lat="42.88704" lon="17.47361">
        <ele>146</ele>
        <time>2016-07-17T21:16:06Z</time>
      </trkpt>
      <trkpt lat="42.88705" lon="17.47371">
        <ele>147</ele>
        <time>2016-07-17T21:18:06Z</time>
      </trkpt>
      <trkpt lat="42.88704" lon="17.47389">
        <ele>147</ele>
        <time>2016-07-17T21:20:06Z</time>
      </trkpt>
      <trkpt lat="42.88702" lon="17.47422">
        <ele>147</ele>
        <time>2016-07-17T21:22:06Z</time>
      </trkpt>
      <trkpt lat="42.88702" lon="17.47444">
        <ele>146</ele>
        <time>2016-07-17T21:24:06Z</time>
      </trkpt>
      <trkpt lat="42.88704" lon="17.47462">
        <ele>147</ele>
        <time>2016-07-17T21:26:06Z</time>
      </trkpt>
      <trkpt lat="42.8871" lon="17.47489">
        <ele>150</ele>
        <time>2016-07-17T21:28:06Z</time>
      </trkpt>
      <trkpt lat="42.88719" lon="17.47517">
        <ele>153</ele>
        <time>2016-07-17T21:30:06Z</time>
      </trkpt>
      <trkpt lat="42.88729" lon="17.47545">
        <ele>154</ele>
        <time>2016-07-17T21:32:06Z</time>
      </trkpt>
      <trkpt lat="42.88742" lon="17.47568">
        <ele>157</ele>
        <time>2016-07-17T21:34:06Z</time>
      </trkpt>
      <trkpt lat="42.88756" lon="17.47588">
        <ele>162</ele>
        <time>2016-07-17T21:36:06Z</time>
      </trkpt>
      <trkpt lat="42.88764" lon="17.47605">
        <ele>166</ele>
        <time>2016-07-17T21:38:06Z</time>
      </trkpt>
      <trkpt lat="42.88768" lon="17.47618">
        <ele>168</ele>
        <time>2016-07-17T21:40:06Z</time>
      </trkpt>
      <trkpt lat="42.88769" lon="17.47633">
        <ele>168</ele>
        <time>2016-07-17T21:42:06Z</time>
      </trkpt>
      <trkpt lat="42.88769" lon="17.47648">
        <ele>169</ele>
        <time>2016-07-17T21:44:06Z</time>
      </trkpt>
      <trkpt lat="42.88765" lon="17.47658">
        <ele>167</ele>
        <time>2016-07-17T21:46:06Z</time>
      </trkpt>
      <trkpt lat="42.88759" lon="17.47671">
        <ele>165</ele>
        <time>2016-07-17T21:48:06Z</time>
      </trkpt>
      <trkpt lat="42.88753" lon="17.4768">
        <ele>165</ele>
        <time>2016-07-17T21:50:06Z</time>
      </trkpt>
      <trkpt lat="42.8874" lon="17.47696">
        <ele>165</ele>
        <time>2016-07-17T21:52:06Z</time>
      </trkpt>
      <trkpt lat="42.8873" lon="17.4771">
        <ele>166</ele>
        <time>2016-07-17T21:54:06Z</time>
      </trkpt>
      <trkpt lat="42.88723" lon="17.47724">
        <ele>168</ele>
        <time>2016-07-17T21:56:06Z</time>
      </trkpt>
      <trkpt lat="42.88717" lon="17.47735">
        <ele>169</ele>
        <time>2016-07-17T21:58:06Z</time>
      </trkpt>
      <trkpt lat="42.88709" lon="17.47744">
        <ele>169</ele>
        <time>2016-07-17T22:00:06Z</time>
      </trkpt>
      <trkpt lat="42.88698" lon="17.47751">
        <ele>167</ele>
        <time>2016-07-17T22:02:06Z</time>
      </trkpt>
      <trkpt lat="42.88689" lon="17.47752">
        <ele>164</ele>
        <time>2016-07-17T22:04:06Z</time>
      </trkpt>
      <trkpt lat="42.88679" lon="17.47751">
        <ele>160</ele>
        <time>2016-07-17T22:06:06Z</time>
      </trkpt>
      <trkpt lat="42.88669" lon="17.47752">
        <ele>157</ele>
        <time>2016-07-17T22:08:06Z</time>
      </trkpt>
      <trkpt lat="42.88665" lon="17.47754">
        <ele>156</ele>
        <time>2016-07-17T22:10:06Z</time>
      </trkpt>
      <trkpt lat="42.88661" lon="17.47758">
        <ele>155</ele>
        <time>2016-07-17T22:12:06Z</time>
      </trkpt>
      <trkpt lat="42.88658" lon="17.47763">
        <ele>155</ele>
        <time>2016-07-17T22:14:06Z</time>
      </trkpt>
      <trkpt lat="42.88657" lon="17.47769">
        <ele>155</ele>
        <time>2016-07-17T22:16:06Z</time>
      </trkpt>
      <trkpt lat="42.88657" lon="17.47775">
        <ele>156</ele>
        <time>2016-07-17T22:18:06Z</time>
      </trkpt>
      <trkpt lat="42.88662" lon="17.47798">
        <ele>162</ele>
        <time>2016-07-17T22:20:06Z</time>
      </trkpt>
      <trkpt lat="42.88667" lon="17.47823">
        <ele>168</ele>
        <time>2016-07-17T22:22:06Z</time>
      </trkpt>
      <trkpt lat="42.88669" lon="17.47839">
        <ele>171</ele>
        <time>2016-07-17T22:24:06Z</time>
      </trkpt>
      <trkpt lat="42.88671" lon="17.47847">
        <ele>173</ele>
        <time>2016-07-17T22:26:06Z</time>
      </trkpt>
      <trkpt lat="42.88671" lon="17.47854">
        <ele>173</ele>
        <time>2016-07-17T22:28:06Z</time>
      </trkpt>
      <trkpt lat="42.8867" lon="17.4786">
        <ele>174</ele>
        <time>2016-07-17T22:30:06Z</time>
      </trkpt>
      <trkpt lat="42.88666" lon="17.47867">
        <ele>173</ele>
        <time>2016-07-17T22:32:06Z</time>
      </trkpt>
      <trkpt lat="42.88658" lon="17.47873">
        <ele>171</ele>
        <time>2016-07-17T22:34:06Z</time>
      </trkpt>
      <trkpt lat="42.88651" lon="17.47882">
        <ele>170</ele>
        <time>2016-07-17T22:36:06Z</time>
      </trkpt>
      <trkpt lat="42.88637" lon="17.47892">
        <ele>168</ele>
        <time>2016-07-17T22:38:06Z</time>
      </trkpt>
      <trkpt lat="42.88622" lon="17.47903">
        <ele>165</ele>
        <time>2016-07-17T22:40:06Z</time>
      </trkpt>
      <trkpt lat="42.8861" lon="17.47913">
        <ele>164</ele>
        <time>2016-07-17T22:42:06Z</time>
      </trkpt>
      <trkpt lat="42.88607" lon="17.47918">
        <ele>164</ele>
        <time>2016-07-17T22:44:06Z</time>
      </trkpt>
      <trkpt lat="42.88604" lon="17.47924">
        <ele>164</ele>
        <time>2016-07-17T22:46:06Z</time>
      </trkpt>
      <trkpt lat="42.88603" lon="17.47931">
        <ele>165</ele>
        <time>2016-07-17T22:48:06Z</time>
      </trkpt>
      <trkpt lat="42.88602" lon="17.47939">
        <ele>167</ele>
        <time>2016-07-17T22:50:06Z</time>
      </trkpt>
      <trkpt lat="42.88602" lon="17.47949">
        <ele>168</ele>
        <time>2016-07-17T22:52:06Z</time>
      </trkpt>
      <trkpt lat="42.88603" lon="17.47954">
        <ele>169</ele>
        <time>2016-07-17T22:54:06Z</time>
      </trkpt>
      <trkpt lat="42.88619" lon="17.48029">
        <ele>182</ele>
        <time>2016-07-17T22:56:06Z</time>
      </trkpt>
      <trkpt lat="42.88649" lon="17.48153">
        <ele>186</ele>
        <time>2016-07-17T22:58:06Z</time>
      </trkpt>
      <trkpt lat="42.88676" lon="17.48256">
        <ele>184</ele>
        <time>2016-07-17T23:00:06Z</time>
      </trkpt>
      <trkpt lat="42.88687" lon="17.48301">
        <ele>185</ele>
        <time>2016-07-17T23:02:06Z</time>
      </trkpt>
      <trkpt lat="42.88693" lon="17.48328">
        <ele>185</ele>
        <time>2016-07-17T23:04:06Z</time>
      </trkpt>
      <trkpt lat="42.88699" lon="17.48371">
        <ele>186</ele>
        <time>2016-07-17T23:06:06Z</time>
      </trkpt>
      <trkpt lat="42.88706" lon="17.48422">
        <ele>186</ele>
        <time>2016-07-17T23:08:06Z</time>
      </trkpt>
      <trkpt lat="42.88713" lon="17.48478">
        <ele>186</ele>
        <time>2016-07-17T23:10:06Z</time>
      </trkpt>
      <trkpt lat="42.88719" lon="17.48523">
        <ele>186</ele>
        <time>2016-07-17T23:12:06Z</time>
      </trkpt>
      <trkpt lat="42.88721" lon="17.48546">
        <ele>187</ele>
        <time>2016-07-17T23:14:06Z</time>
      </trkpt>
      <trkpt lat="42.88722" lon="17.48559">
        <ele>187</ele>
        <time>2016-07-17T23:16:06Z</time>
      </trkpt>
      <trkpt lat="42.88722" lon="17.48572">
        <ele>187</ele>
        <time>2016-07-17T23:18:06Z</time>
      </trkpt>
      <trkpt lat="42.88722" lon="17.48591">
        <ele>187</ele>
        <time>2016-07-17T23:20:06Z</time>
      </trkpt>
      <trkpt lat="42.88718" lon="17.48622">
        <ele>186</ele>
        <time>2016-07-17T23:22:06Z</time>
      </trkpt>
      <trkpt lat="42.88717" lon="17.48632">
        <ele>186</ele>
        <time>2016-07-17T23:24:06Z</time>
      </trkpt>
      <trkpt lat="42.88715" lon="17.48643">
        <ele>185</ele>
        <time>2016-07-17T23:26:06Z</time>
      </trkpt>
      <trkpt lat="42.88713" lon="17.48653">
        <ele>185</ele>
        <time>2016-07-17T23:28:06Z</time>
      </trkpt>
      <trkpt lat="42.88711" lon="17.48663">
        <ele>184</ele>
        <time>2016-07-17T23:30:06Z</time>
      </trkpt>
      <trkpt lat="42.88709" lon="17.48675">
        <ele>184</ele>
        <time>2016-07-17T23:32:06Z</time>
      </trkpt>
      <trkpt lat="42.88707" lon="17.48687">
        <ele>184</ele>
        <time>2016-07-17T23:34:06Z</time>
      </trkpt>
      <trkpt lat="42.88705" lon="17.487">
        <ele>183</ele>
        <time>2016-07-17T23:36:06Z</time>
      </trkpt>
      <trkpt lat="42.88703" lon="17.48711">
        <ele>183</ele>
        <time>2016-07-17T23:38:06Z</time>
      </trkpt>
      <trkpt lat="42.88701" lon="17.48723">
        <ele>182</ele>
        <time>2016-07-17T23:40:06Z</time>
      </trkpt>
      <trkpt lat="42.887" lon="17.48734">
        <ele>182</ele>
        <time>2016-07-17T23:42:06Z</time>
      </trkpt>
      <trkpt lat="42.88699" lon="17.48745">
        <ele>182</ele>
        <time>2016-07-17T23:44:06Z</time>
      </trkpt>
      <trkpt lat="42.887" lon="17.48757">
        <ele>181</ele>
        <time>2016-07-17T23:46:06Z</time>
      </trkpt>
      <trkpt lat="42.887" lon="17.4877">
        <ele>181</ele>
        <time>2016-07-17T23:48:06Z</time>
      </trkpt>
      <trkpt lat="42.88703" lon="17.48787">
        <ele>181</ele>
        <time>2016-07-17T23:50:06Z</time>
      </trkpt>
      <trkpt lat="42.88712" lon="17.48812">
        <ele>180</ele>
        <time>2016-07-17T23:52:06Z</time>
      </trkpt>
      <trkpt lat="42.88724" lon="17.48834">
        <ele>181</ele>
        <time>2016-07-17T23:54:06Z</time>
      </trkpt>
      <trkpt lat="42.88741" lon="17.48858">
        <ele>182</ele>
        <time>2016-07-17T23:56:06Z</time>
      </trkpt>
      <trkpt lat="42.88752" lon="17.48871">
        <ele>182</ele>
        <time>2016-07-17T23:58:06Z</time>
      </trkpt>
      <trkpt lat="42.88758" lon="17.48877">
        <ele>182</ele>
        <time>2016-07-18T00:00:06Z</time>
      </trkpt>
      <trkpt lat="42.88775" lon="17.48896">
        <ele>183</ele>
        <time>2016-07-18T00:02:06Z</time>
      </trkpt>
      <trkpt lat="42.88792" lon="17.48914">
        <ele>184</ele>
        <time>2016-07-18T00:04:06Z</time>
      </trkpt>
      <trkpt lat="42.88802" lon="17.48927">
        <ele>185</ele>
        <time>2016-07-18T00:06:06Z</time>
      </trkpt>
      <trkpt lat="42.88809" lon="17.48937">
        <ele>185</ele>
        <time>2016-07-18T00:08:06Z</time>
      </trkpt>
      <trkpt lat="42.88812" lon="17.48942">
        <ele>185</ele>
        <time>2016-07-18T00:10:06Z</time>
      </trkpt>
      <trkpt lat="42.88815" lon="17.48947">
        <ele>186</ele>
        <time>2016-07-18T00:12:06Z</time>
      </trkpt>
      <trkpt lat="42.88817" lon="17.48953">
        <ele>186</ele>
        <time>2016-07-18T00:14:06Z</time>
      </trkpt>
      <trkpt lat="42.8882" lon="17.48962">
        <ele>186</ele>
        <time>2016-07-18T00:16:06Z</time>
      </trkpt>
      <trkpt lat="42.88822" lon="17.48968">
        <ele>186</ele>
        <time>2016-07-18T00:18:06Z</time>
      </trkpt>
      <trkpt lat="42.88824" lon="17.48977">
        <ele>186</ele>
        <time>2016-07-18T00:20:06Z</time>
      </trkpt>
      <trkpt lat="42.88826" lon="17.48987">
        <ele>186</ele>
        <time>2016-07-18T00:22:06Z</time>
      </trkpt>
      <trkpt lat="42.88827" lon="17.49">
        <ele>185</ele>
        <time>2016-07-18T00:24:06Z</time>
      </trkpt>
      <trkpt lat="42.88828" lon="17.49028">
        <ele>185</ele>
        <time>2016-07-18T00:26:06Z</time>
      </trkpt>
      <trkpt lat="42.8883" lon="17.49055">
        <ele>184</ele>
        <time>2016-07-18T00:28:06Z</time>
      </trkpt>
      <trkpt lat="42.8883" lon="17.49097">
        <ele>183</ele>
        <time>2016-07-18T00:30:06Z</time>
      </trkpt>
      <trkpt lat="42.88831" lon="17.49126">
        <ele>182</ele>
        <time>2016-07-18T00:32:06Z</time>
      </trkpt>
      <trkpt lat="42.88832" lon="17.4914">
        <ele>182</ele>
        <time>2016-07-18T00:34:06Z</time>
      </trkpt>
      <trkpt lat="42.88834" lon="17.49152">
        <ele>182</ele>
        <time>2016-07-18T00:36:06Z</time>
      </trkpt>
      <trkpt lat="42.88837" lon="17.49167">
        <ele>182</ele>
        <time>2016-07-18T00:38:06Z</time>
      </trkpt>
      <trkpt lat="42.88841" lon="17.49181">
        <ele>181</ele>
        <time>2016-07-18T00:40:06Z</time>
      </trkpt>
      <trkpt lat="42.88847" lon="17.49194">
        <ele>181</ele>
        <time>2016-07-18T00:42:06Z</time>
      </trkpt>
      <trkpt lat="42.88854" lon="17.49215">
        <ele>181</ele>
        <time>2016-07-18T00:44:06Z</time>
      </trkpt>
      <trkpt lat="42.88863" lon="17.49241">
        <ele>181</ele>
        <time>2016-07-18T00:46:06Z</time>
      </trkpt>
      <trkpt lat="42.88869" lon="17.49261">
        <ele>181</ele>
        <time>2016-07-18T00:48:06Z</time>
      </trkpt>
      <trkpt lat="42.88869" lon="17.49264">
        <ele>181</ele>
        <time>2016-07-18T00:50:06Z</time>
      </trkpt>
      <trkpt lat="42.88875" lon="17.49287">
        <ele>181</ele>
        <time>2016-07-18T00:52:06Z</time>
      </trkpt>
      <trkpt lat="42.88878" lon="17.49298">
        <ele>180</ele>
        <time>2016-07-18T00:54:06Z</time>
      </trkpt>
      <trkpt lat="42.8888" lon="17.49309">
        <ele>180</ele>
        <time>2016-07-18T00:56:06Z</time>
      </trkpt>
      <trkpt lat="42.88883" lon="17.49323">
        <ele>180</ele>
        <time>2016-07-18T00:58:06Z</time>
      </trkpt>
      <trkpt lat="42.88884" lon="17.49337">
        <ele>179</ele>
        <time>2016-07-18T01:00:06Z</time>
      </trkpt>
      <trkpt lat="42.88886" lon="17.49355">
        <ele>179</ele>
        <time>2016-07-18T01:02:06Z</time>
      </trkpt>
      <trkpt lat="42.88887" lon="17.49368">
        <ele>179</ele>
        <time>2016-07-18T01:04:06Z</time>
      </trkpt>
      <trkpt lat="42.88887" lon="17.49382">
        <ele>179</ele>
        <time>2016-07-18T01:06:06Z</time>
      </trkpt>
      <trkpt lat="42.88888" lon="17.49395">
        <ele>179</ele>
        <time>2016-07-18T01:08:06Z</time>
      </trkpt>
      <trkpt lat="42.88887" lon="17.49424">
        <ele>179</ele>
        <time>2016-07-18T01:10:06Z</time>
      </trkpt>
      <trkpt lat="42.88887" lon="17.49425">
        <ele>179</ele>
        <time>2016-07-18T01:12:06Z</time>
      </trkpt>
      <trkpt lat="42.88887" lon="17.49454">
        <ele>178</ele>
        <time>2016-07-18T01:14:06Z</time>
      </trkpt>
      <trkpt lat="42.88888" lon="17.49478">
        <ele>178</ele>
        <time>2016-07-18T01:16:06Z</time>
      </trkpt>
      <trkpt lat="42.88885" lon="17.49493">
        <ele>178</ele>
        <time>2016-07-18T01:18:06Z</time>
      </trkpt>
      <trkpt lat="42.88884" lon="17.49496">
        <ele>178</ele>
        <time>2016-07-18T01:20:06Z</time>
      </trkpt>
      <trkpt lat="42.88881" lon="17.49522">
        <ele>177</ele>
        <time>2016-07-18T01:22:06Z</time>
      </trkpt>
      <trkpt lat="42.88879" lon="17.49541">
        <ele>177</ele>
        <time>2016-07-18T01:24:06Z</time>
      </trkpt>
      <trkpt lat="42.88874" lon="17.49591">
        <ele>176</ele>
        <time>2016-07-18T01:26:06Z</time>
      </trkpt>
      <trkpt lat="42.88871" lon="17.49656">
        <ele>174</ele>
        <time>2016-07-18T01:28:06Z</time>
      </trkpt>
      <trkpt lat="42.88871" lon="17.49661">
        <ele>174</ele>
        <time>2016-07-18T01:30:06Z</time>
      </trkpt>
      <trkpt lat="42.8887" lon="17.49666">
        <ele>174</ele>
        <time>2016-07-18T01:32:06Z</time>
      </trkpt>
      <trkpt lat="42.88869" lon="17.49711">
        <ele>173</ele>
        <time>2016-07-18T01:34:06Z</time>
      </trkpt>
      <trkpt lat="42.88871" lon="17.4975">
        <ele>172</ele>
        <time>2016-07-18T01:36:06Z</time>
      </trkpt>
      <trkpt lat="42.88876" lon="17.49782">
        <ele>172</ele>
        <time>2016-07-18T01:38:06Z</time>
      </trkpt>
      <trkpt lat="42.88879" lon="17.49797">
        <ele>173</ele>
        <time>2016-07-18T01:40:06Z</time>
      </trkpt>
      <trkpt lat="42.8888" lon="17.49805">
        <ele>172</ele>
        <time>2016-07-18T01:42:06Z</time>
      </trkpt>
      <trkpt lat="42.8888" lon="17.49811">
        <ele>172</ele>
        <time>2016-07-18T01:44:06Z</time>
      </trkpt>
      <trkpt lat="42.88879" lon="17.49817">
        <ele>172</ele>
        <time>2016-07-18T01:46:06Z</time>
      </trkpt>
      <trkpt lat="42.88878" lon="17.49822">
        <ele>172</ele>
        <time>2016-07-18T01:48:06Z</time>
      </trkpt>
      <trkpt lat="42.88877" lon="17.49825">
        <ele>172</ele>
        <time>2016-07-18T01:50:06Z</time>
      </trkpt>
      <trkpt lat="42.88876" lon="17.49827">
        <ele>171</ele>
        <time>2016-07-18T01:52:06Z</time>
      </trkpt>
      <trkpt lat="42.8887" lon="17.49835">
        <ele>170</ele>
        <time>2016-07-18T01:54:06Z</time>
      </trkpt>
      <trkpt lat="42.88863" lon="17.49844">
        <ele>170</ele>
        <time>2016-07-18T01:56:06Z</time>
      </trkpt>
      <trkpt lat="42.88834" lon="17.49874">
        <ele>168</ele>
        <time>2016-07-18T01:58:06Z</time>
      </trkpt>
      <trkpt lat="42.88822" lon="17.49888">
        <ele>167</ele>
        <time>2016-07-18T02:00:06Z</time>
      </trkpt>
      <trkpt lat="42.88814" lon="17.499">
        <ele>167</ele>
        <time>2016-07-18T02:02:06Z</time>
      </trkpt>
      <trkpt lat="42.8881" lon="17.49906">
        <ele>166</ele>
        <time>2016-07-18T02:04:06Z</time>
      </trkpt>
      <trkpt lat="42.88807" lon="17.49913">
        <ele>166</ele>
        <time>2016-07-18T02:06:06Z</time>
      </trkpt>
      <trkpt lat="42.88804" lon="17.4992">
        <ele>166</ele>
        <time>2016-07-18T02:08:06Z</time>
      </trkpt>
      <trkpt lat="42.88801" lon="17.49928">
        <ele>166</ele>
        <time>2016-07-18T02:10:06Z</time>
      </trkpt>
      <trkpt lat="42.88799" lon="17.49935">
        <ele>166</ele>
        <time>2016-07-18T02:12:06Z</time>
      </trkpt>
      <trkpt lat="42.88771" lon="17.50021">
        <ele>164</ele>
        <time>2016-07-18T02:14:06Z</time>
      </trkpt>
      <trkpt lat="42.88753" lon="17.50073">
        <ele>161</ele>
        <time>2016-07-18T02:16:06Z</time>
      </trkpt>
      <trkpt lat="42.8874" lon="17.50114">
        <ele>161</ele>
        <time>2016-07-18T02:18:06Z</time>
      </trkpt>
      <trkpt lat="42.88729" lon="17.50149">
        <ele>162</ele>
        <time>2016-07-18T02:20:06Z</time>
      </trkpt>
      <trkpt lat="42.88723" lon="17.50164">
        <ele>162</ele>
        <time>2016-07-18T02:22:06Z</time>
      </trkpt>
      <trkpt lat="42.88719" lon="17.50177">
        <ele>162</ele>
        <time>2016-07-18T02:24:06Z</time>
      </trkpt>
      <trkpt lat="42.88711" lon="17.50206">
        <ele>164</ele>
        <time>2016-07-18T02:26:06Z</time>
      </trkpt>
      <trkpt lat="42.88706" lon="17.50227">
        <ele>165</ele>
        <time>2016-07-18T02:28:06Z</time>
      </trkpt>
      <trkpt lat="42.88705" lon="17.5023">
        <ele>165</ele>
        <time>2016-07-18T02:30:06Z</time>
      </trkpt>
      <trkpt lat="42.88704" lon="17.50239">
        <ele>165</ele>
        <time>2016-07-18T02:32:06Z</time>
      </trkpt>
      <trkpt lat="42.88696" lon="17.50275">
        <ele>167</ele>
        <time>2016-07-18T02:34:06Z</time>
      </trkpt>
      <trkpt lat="42.88695" lon="17.50281">
        <ele>168</ele>
        <time>2016-07-18T02:36:06Z</time>
      </trkpt>
      <trkpt lat="42.88688" lon="17.50299">
        <ele>168</ele>
        <time>2016-07-18T02:38:06Z</time>
      </trkpt>
      <trkpt lat="42.88684" lon="17.50309">
        <ele>168</ele>
        <time>2016-07-18T02:40:06Z</time>
      </trkpt>
      <trkpt lat="42.88678" lon="17.50319">
        <ele>168</ele>
        <time>2016-07-18T02:42:06Z</time>
      </trkpt>
      <trkpt lat="42.88673" lon="17.50327">
        <ele>167</ele>
        <time>2016-07-18T02:44:06Z</time>
      </trkpt>
      <trkpt lat="42.88666" lon="17.50336">
        <ele>166</ele>
        <time>2016-07-18T02:46:06Z</time>
      </trkpt>
      <trkpt lat="42.88653" lon="17.50353">
        <ele>167</ele>
        <time>2016-07-18T02:48:06Z</time>
      </trkpt>
      <trkpt lat="42.8865" lon="17.50358">
        <ele>167</ele>
        <time>2016-07-18T02:50:06Z</time>
      </trkpt>
      <trkpt lat="42.88648" lon="17.50362">
        <ele>167</ele>
        <time>2016-07-18T02:52:06Z</time>
      </trkpt>
      <trkpt lat="42.88647" lon="17.50365">
        <ele>168</ele>
        <time>2016-07-18T02:54:06Z</time>
      </trkpt>
      <trkpt lat="42.88646" lon="17.50369">
        <ele>168</ele>
        <time>2016-07-18T02:56:06Z</time>
      </trkpt>
      <trkpt lat="42.88644" lon="17.50379">
        <ele>169</ele>
        <time>2016-07-18T02:58:06Z</time>
      </trkpt>
      <trkpt lat="42.88644" lon="17.50379">
        <ele>169</ele>
        <time>2016-07-18T03:00:06Z</time>
      </trkpt>
      <trkpt lat="42.88634" lon="17.50388">
        <ele>168</ele>
        <time>2016-07-18T03:02:06Z</time>
      </trkpt>
      <trkpt lat="42.88614" lon="17.50407">
        <ele>166</ele>
        <time>2016-07-18T03:04:06Z</time>
      </trkpt>
      <trkpt lat="42.88594" lon="17.50428">
        <ele>163</ele>
        <time>2016-07-18T03:06:06Z</time>
      </trkpt>
      <trkpt lat="42.88565" lon="17.50459">
        <ele>162</ele>
        <time>2016-07-18T03:08:06Z</time>
      </trkpt>
      <trkpt lat="42.88554" lon="17.50472">
        <ele>162</ele>
        <time>2016-07-18T03:10:06Z</time>
      </trkpt>
      <trkpt lat="42.88547" lon="17.50481">
        <ele>162</ele>
        <time>2016-07-18T03:12:06Z</time>
      </trkpt>
      <trkpt lat="42.8853" lon="17.50505">
        <ele>162</ele>
        <time>2016-07-18T03:14:06Z</time>
      </trkpt>
      <trkpt lat="42.88511" lon="17.50531">
        <ele>162</ele>
        <time>2016-07-18T03:16:06Z</time>
      </trkpt>
      <trkpt lat="42.88503" lon="17.50542">
        <ele>161</ele>
        <time>2016-07-18T03:18:06Z</time>
      </trkpt>
      <trkpt lat="42.88482" lon="17.50569">
        <ele>161</ele>
        <time>2016-07-18T03:20:06Z</time>
      </trkpt>
      <trkpt lat="42.88481" lon="17.5057">
        <ele>161</ele>
        <time>2016-07-18T03:22:06Z</time>
      </trkpt>
      <trkpt lat="42.8847" lon="17.50586">
        <ele>161</ele>
        <time>2016-07-18T03:24:06Z</time>
      </trkpt>
      <trkpt lat="42.88456" lon="17.50606">
        <ele>162</ele>
        <time>2016-07-18T03:26:06Z</time>
      </trkpt>
      <trkpt lat="42.88443" lon="17.50624">
        <ele>163</ele>
        <time>2016-07-18T03:28:06Z</time>
      </trkpt>
      <trkpt lat="42.88428" lon="17.50646">
        <ele>162</ele>
        <time>2016-07-18T03:30:06Z</time>
      </trkpt>
      <trkpt lat="42.88409" lon="17.50671">
        <ele>162</ele>
        <time>2016-07-18T03:32:06Z</time>
      </trkpt>
      <trkpt lat="42.88397" lon="17.50687">
        <ele>163</ele>
        <time>2016-07-18T03:34:06Z</time>
      </trkpt>
      <trkpt lat="42.88381" lon="17.5071">
        <ele>165</ele>
        <time>2016-07-18T03:36:06Z</time>
      </trkpt>
      <trkpt lat="42.88366" lon="17.5073">
        <ele>165</ele>
        <time>2016-07-18T03:38:06Z</time>
      </trkpt>
      <trkpt lat="42.88357" lon="17.50743">
        <ele>165</ele>
        <time>2016-07-18T03:40:06Z</time>
      </trkpt>
      <trkpt lat="42.88343" lon="17.50762">
        <ele>164</ele>
        <time>2016-07-18T03:42:06Z</time>
      </trkpt>
      <trkpt lat="42.88338" lon="17.50769">
        <ele>163</ele>
        <time>2016-07-18T03:44:06Z</time>
      </trkpt>
      <trkpt lat="42.88337" lon="17.5077">
        <ele>163</ele>
        <time>2016-07-18T03:46:06Z</time>
      </trkpt>
      <trkpt lat="42.88324" lon="17.50788">
        <ele>163</ele>
        <time>2016-07-18T03:48:06Z</time>
      </trkpt>
      <trkpt lat="42.88322" lon="17.50791">
        <ele>163</ele>
        <time>2016-07-18T03:50:06Z</time>
      </trkpt>
      <trkpt lat="42.88308" lon="17.50812">
        <ele>162</ele>
        <time>2016-07-18T03:52:06Z</time>
      </trkpt>
      <trkpt lat="42.88297" lon="17.50828">
        <ele>161</ele>
        <time>2016-07-18T03:54:06Z</time>
      </trkpt>
      <trkpt lat="42.88296" lon="17.50829">
        <ele>161</ele>
        <time>2016-07-18T03:56:06Z</time>
      </trkpt>
      <trkpt lat="42.88282" lon="17.50847">
        <ele>161</ele>
        <time>2016-07-18T03:58:06Z</time>
      </trkpt>
      <trkpt lat="42.88274" lon="17.50856">
        <ele>161</ele>
        <time>2016-07-18T04:00:06Z</time>
      </trkpt>
      <trkpt lat="42.88258" lon="17.50874">
        <ele>161</ele>
        <time>2016-07-18T04:02:06Z</time>
      </trkpt>
      <trkpt lat="42.88255" lon="17.50877">
        <ele>160</ele>
        <time>2016-07-18T04:04:06Z</time>
      </trkpt>
      <trkpt lat="42.88252" lon="17.50879">
        <ele>160</ele>
        <time>2016-07-18T04:06:06Z</time>
      </trkpt>
      <trkpt lat="42.88246" lon="17.50887">
        <ele>160</ele>
        <time>2016-07-18T04:08:06Z</time>
      </trkpt>
      <trkpt lat="42.88242" lon="17.5089">
        <ele>160</ele>
        <time>2016-07-18T04:10:06Z</time>
      </trkpt>
      <trkpt lat="42.88224" lon="17.50906">
        <ele>160</ele>
        <time>2016-07-18T04:12:06Z</time>
      </trkpt>
      <trkpt lat="42.88214" lon="17.50914">
        <ele>159</ele>
        <time>2016-07-18T04:14:06Z</time>
      </trkpt>
      <trkpt lat="42.88202" lon="17.50924">
        <ele>160</ele>
        <time>2016-07-18T04:16:06Z</time>
      </trkpt>
      <trkpt lat="42.88196" lon="17.5093">
        <ele>160</ele>
        <time>2016-07-18T04:18:06Z</time>
      </trkpt>
      <trkpt lat="42.88186" lon="17.50938">
        <ele>160</ele>
        <time>2016-07-18T04:20:06Z</time>
      </trkpt>
      <trkpt lat="42.88167" lon="17.50953">
        <ele>160</ele>
        <time>2016-07-18T04:22:06Z</time>
      </trkpt>
      <trkpt lat="42.88154" lon="17.50963">
        <ele>160</ele>
        <time>2016-07-18T04:24:06Z</time>
      </trkpt>
      <trkpt lat="42.88133" lon="17.50981">
        <ele>161</ele>
        <time>2016-07-18T04:26:06Z</time>
      </trkpt>
      <trkpt lat="42.88118" lon="17.50993">
        <ele>160</ele>
        <time>2016-07-18T04:28:06Z</time>
      </trkpt>
      <trkpt lat="42.881" lon="17.51008">
        <ele>160</ele>
        <time>2016-07-18T04:30:06Z</time>
      </trkpt>
      <trkpt lat="42.88091" lon="17.51016">
        <ele>159</ele>
        <time>2016-07-18T04:32:06Z</time>
      </trkpt>
      <trkpt lat="42.8808" lon="17.51026">
        <ele>159</ele>
        <time>2016-07-18T04:34:06Z</time>
      </trkpt>
      <trkpt lat="42.88072" lon="17.51033">
        <ele>159</ele>
        <time>2016-07-18T04:36:06Z</time>
      </trkpt>
      <trkpt lat="42.88061" lon="17.51044">
        <ele>159</ele>
        <time>2016-07-18T04:38:06Z</time>
      </trkpt>
      <trkpt lat="42.8805" lon="17.51055">
        <ele>158</ele>
        <time>2016-07-18T04:40:06Z</time>
      </trkpt>
      <trkpt lat="42.88033" lon="17.51073">
        <ele>157</ele>
        <time>2016-07-18T04:42:06Z</time>
      </trkpt>
      <trkpt lat="42.87998" lon="17.51112">
        <ele>156</ele>
        <time>2016-07-18T04:44:06Z</time>
      </trkpt>
      <trkpt lat="42.87989" lon="17.51124">
        <ele>156</ele>
        <time>2016-07-18T04:46:06Z</time>
      </trkpt>
      <trkpt lat="42.87977" lon="17.51141">
        <ele>157</ele>
        <time>2016-07-18T04:48:06Z</time>
      </trkpt>
      <trkpt lat="42.8796" lon="17.51165">
        <ele>157</ele>
        <time>2016-07-18T04:50:06Z</time>
      </trkpt>
      <trkpt lat="42.87941" lon="17.51195">
        <ele>157</ele>
        <time>2016-07-18T04:52:06Z</time>
      </trkpt>
      <trkpt lat="42.87928" lon="17.51219">
        <ele>157</ele>
        <time>2016-07-18T04:54:06Z</time>
      </trkpt>
      <trkpt lat="42.87915" lon="17.51244">
        <ele>155</ele>
        <time>2016-07-18T04:56:06Z</time>
      </trkpt>
      <trkpt lat="42.87905" lon="17.51265">
        <ele>157</ele>
        <time>2016-07-18T04:58:06Z</time>
      </trkpt>
      <trkpt lat="42.87897" lon="17.51281">
        <ele>158</ele>
        <time>2016-07-18T05:00:06Z</time>
      </trkpt>
      <trkpt lat="42.87886" lon="17.51306">
        <ele>159</ele>
        <time>2016-07-18T05:02:06Z</time>
      </trkpt>
      <trkpt lat="42.87873" lon="17.51337">
        <ele>160</ele>
        <time>2016-07-18T05:04:06Z</time>
      </trkpt>
      <trkpt lat="42.87858" lon="17.51376">
        <ele>159</ele>
        <time>2016-07-18T05:06:06Z</time>
      </trkpt>
      <trkpt lat="42.87844" lon="17.51414">
        <ele>157</ele>
        <time>2016-07-18T05:08:06Z</time>
      </trkpt>
      <trkpt lat="42.8783" lon="17.51454">
        <ele>158</ele>
        <time>2016-07-18T05:10:06Z</time>
      </trkpt>
      <trkpt lat="42.87822" lon="17.51473">
        <ele>159</ele>
        <time>2016-07-18T05:12:06Z</time>
      </trkpt>
      <trkpt lat="42.87815" lon="17.51493">
        <ele>160</ele>
        <time>2016-07-18T05:14:06Z</time>
      </trkpt>
      <trkpt lat="42.87788" lon="17.5156">
        <ele>161</ele>
        <time>2016-07-18T05:16:06Z</time>
      </trkpt>
      <trkpt lat="42.87779" lon="17.51583">
        <ele>161</ele>
        <time>2016-07-18T05:18:06Z</time>
      </trkpt>
      <trkpt lat="42.87761" lon="17.51628">
        <ele>161</ele>
        <time>2016-07-18T05:20:06Z</time>
      </trkpt>
      <trkpt lat="42.87742" lon="17.51674">
        <ele>162</ele>
        <time>2016-07-18T05:22:06Z</time>
      </trkpt>
      <trkpt lat="42.87734" lon="17.51692">
        <ele>161</ele>
        <time>2016-07-18T05:24:06Z</time>
      </trkpt>
      <trkpt lat="42.87715" lon="17.51739">
        <ele>161</ele>
        <time>2016-07-18T05:26:06Z</time>
      </trkpt>
      <trkpt lat="42.87697" lon="17.51783">
        <ele>160</ele>
        <time>2016-07-18T05:28:06Z</time>
      </trkpt>
      <trkpt lat="42.87686" lon="17.51808">
        <ele>159</ele>
        <time>2016-07-18T05:30:06Z</time>
      </trkpt>
      <trkpt lat="42.87679" lon="17.51828">
        <ele>159</ele>
        <time>2016-07-18T05:32:06Z</time>
      </trkpt>
      <trkpt lat="42.8767" lon="17.51845">
        <ele>159</ele>
        <time>2016-07-18T05:34:06Z</time>
      </trkpt>
      <trkpt lat="42.87665" lon="17.51857">
        <ele>159</ele>
        <time>2016-07-18T05:36:06Z</time>
      </trkpt>
      <trkpt lat="42.87663" lon="17.5186">
        <ele>159</ele>
        <time>2016-07-18T05:38:06Z</time>
      </trkpt>
      <trkpt lat="42.8766" lon="17.51867">
        <ele>160</ele>
        <time>2016-07-18T05:40:06Z</time>
      </trkpt>
      <trkpt lat="42.87654" lon="17.51876">
        <ele>160</ele>
        <time>2016-07-18T05:42:06Z</time>
      </trkpt>
      <trkpt lat="42.87649" lon="17.51884">
        <ele>160</ele>
        <time>2016-07-18T05:44:06Z</time>
      </trkpt>
      <trkpt lat="42.87644" lon="17.51892">
        <ele>160</ele>
        <time>2016-07-18T05:46:06Z</time>
      </trkpt>
      <trkpt lat="42.87637" lon="17.51901">
        <ele>160</ele>
        <time>2016-07-18T05:48:06Z</time>
      </trkpt>
      <trkpt lat="42.87632" lon="17.51907">
        <ele>160</ele>
        <time>2016-07-18T05:50:06Z</time>
      </trkpt>
      <trkpt lat="42.87624" lon="17.51916">
        <ele>159</ele>
        <time>2016-07-18T05:52:06Z</time>
      </trkpt>
      <trkpt lat="42.87617" lon="17.51922">
        <ele>159</ele>
        <time>2016-07-18T05:54:06Z</time>
      </trkpt>
      <trkpt lat="42.8761" lon="17.51928">
        <ele>159</ele>
        <time>2016-07-18T05:56:06Z</time>
      </trkpt>
      <trkpt lat="42.87601" lon="17.51935">
        <ele>159</ele>
        <time>2016-07-18T05:58:06Z</time>
      </trkpt>
      <trkpt lat="42.87586" lon="17.51944">
        <ele>158</ele>
        <time>2016-07-18T06:00:06Z</time>
      </trkpt>
      <trkpt lat="42.87569" lon="17.51955">
        <ele>159</ele>
        <time>2016-07-18T06:02:06Z</time>
      </trkpt>
      <trkpt lat="42.87537" lon="17.51974">
        <ele>159</ele>
        <time>2016-07-18T06:04:06Z</time>
      </trkpt>
      <trkpt lat="42.87528" lon="17.51981">
        <ele>159</ele>
        <time>2016-07-18T06:06:06Z</time>
      </trkpt>
      <trkpt lat="42.87519" lon="17.51989">
        <ele>159</ele>
        <time>2016-07-18T06:08:06Z</time>
      </trkpt>
      <trkpt lat="42.87515" lon="17.51993">
        <ele>159</ele>
        <time>2016-07-18T06:10:06Z</time>
      </trkpt>
      <trkpt lat="42.87506" lon="17.52002">
        <ele>159</ele>
        <time>2016-07-18T06:12:06Z</time>
      </trkpt>
      <trkpt lat="42.87502" lon="17.52007">
        <ele>159</ele>
        <time>2016-07-18T06:14:06Z</time>
      </trkpt>
      <trkpt lat="42.87498" lon="17.52013">
        <ele>159</ele>
        <time>2016-07-18T06:16:06Z</time>
      </trkpt>
      <trkpt lat="42.87495" lon="17.52018">
        <ele>160</ele>
        <time>2016-07-18T06:18:06Z</time>
      </trkpt>
      <trkpt lat="42.87488" lon="17.52029">
        <ele>161</ele>
        <time>2016-07-18T06:20:06Z</time>
      </trkpt>
      <trkpt lat="42.87484" lon="17.52035">
        <ele>161</ele>
        <time>2016-07-18T06:22:06Z</time>
      </trkpt>
      <trkpt lat="42.87478" lon="17.52048">
        <ele>162</ele>
        <time>2016-07-18T06:24:06Z</time>
      </trkpt>
      <trkpt lat="42.87473" lon="17.5206">
        <ele>162</ele>
        <time>2016-07-18T06:26:06Z</time>
      </trkpt>
      <trkpt lat="42.87468" lon="17.52074">
        <ele>163</ele>
        <time>2016-07-18T06:28:06Z</time>
      </trkpt>
      <trkpt lat="42.87467" lon="17.52079">
        <ele>163</ele>
        <time>2016-07-18T06:30:06Z</time>
      </trkpt>
      <trkpt lat="42.87465" lon="17.52085">
        <ele>164</ele>
        <time>2016-07-18T06:32:06Z</time>
      </trkpt>
      <trkpt lat="42.87459" lon="17.52124">
        <ele>165</ele>
        <time>2016-07-18T06:34:06Z</time>
      </trkpt>
      <trkpt lat="42.87457" lon="17.5215">
        <ele>165</ele>
        <time>2016-07-18T06:36:06Z</time>
      </trkpt>
      <trkpt lat="42.87454" lon="17.52186">
        <ele>165</ele>
        <time>2016-07-18T06:38:06Z</time>
      </trkpt>
      <trkpt lat="42.8745" lon="17.52232">
        <ele>165</ele>
        <time>2016-07-18T06:40:06Z</time>
      </trkpt>
      <trkpt lat="42.87447" lon="17.52256">
        <ele>164</ele>
        <time>2016-07-18T06:42:06Z</time>
      </trkpt>
      <trkpt lat="42.87443" lon="17.52276">
        <ele>164</ele>
        <time>2016-07-18T06:44:06Z</time>
      </trkpt>
      <trkpt lat="42.8744" lon="17.52288">
        <ele>164</ele>
        <time>2016-07-18T06:46:06Z</time>
      </trkpt>
      <trkpt lat="42.87437" lon="17.52296">
        <ele>164</ele>
        <time>2016-07-18T06:48:06Z</time>
      </trkpt>
      <trkpt lat="42.87431" lon="17.52312">
        <ele>164</ele>
        <time>2016-07-18T06:50:06Z</time>
      </trkpt>
      <trkpt lat="42.87426" lon="17.52322">
        <ele>164</ele>
        <time>2016-07-18T06:52:06Z</time>
      </trkpt>
      <trkpt lat="42.87424" lon="17.52328">
        <ele>164</ele>
        <time>2016-07-18T06:54:06Z</time>
      </trkpt>
      <trkpt lat="42.87419" lon="17.52335">
        <ele>164</ele>
        <time>2016-07-18T06:56:06Z</time>
      </trkpt>
      <trkpt lat="42.87411" lon="17.52348">
        <ele>164</ele>
        <time>2016-07-18T06:58:06Z</time>
      </trkpt>
      <trkpt lat="42.874" lon="17.52362">
        <ele>164</ele>
        <time>2016-07-18T07:00:06Z</time>
      </trkpt>
      <trkpt lat="42.87398" lon="17.52365">
        <ele>164</ele>
        <time>2016-07-18T07:02:06Z</time>
      </trkpt>
      <trkpt lat="42.87381" lon="17.52385">
        <ele>165</ele>
        <time>2016-07-18T07:04:06Z</time>
      </trkpt>
      <trkpt lat="42.87372" lon="17.52394">
        <ele>165</ele>
        <time>2016-07-18T07:06:06Z</time>
      </trkpt>
      <trkpt lat="42.87354" lon="17.52412">
        <ele>166</ele>
        <time>2016-07-18T07:08:06Z</time>
      </trkpt>
      <trkpt lat="42.8734" lon="17.52426">
        <ele>167</ele>
        <time>2016-07-18T07:10:06Z</time>
      </trkpt>
      <trkpt lat="42.87332" lon="17.52434">
        <ele>167</ele>
        <time>2016-07-18T07:12:06Z</time>
      </trkpt>
      <trkpt lat="42.87324" lon="17.52443">
        <ele>168</ele>
        <time>2016-07-18T07:14:06Z</time>
      </trkpt>
      <trkpt lat="42.87315" lon="17.52453">
        <ele>169</ele>
        <time>2016-07-18T07:16:06Z</time>
      </trkpt>
      <trkpt lat="42.87308" lon="17.5246">
        <ele>169</ele>
        <time>2016-07-18T07:18:06Z</time>
      </trkpt>
      <trkpt lat="42.87295" lon="17.52477">
        <ele>170</ele>
        <time>2016-07-18T07:20:06Z</time>
      </trkpt>
      <trkpt lat="42.8729" lon="17.52483">
        <ele>170</ele>
        <time>2016-07-18T07:22:06Z</time>
      </trkpt>
      <trkpt lat="42.87286" lon="17.52488">
        <ele>171</ele>
        <time>2016-07-18T07:24:06Z</time>
      </trkpt>
      <trkpt lat="42.87273" lon="17.52507">
        <ele>171</ele>
        <time>2016-07-18T07:26:06Z</time>
      </trkpt>
      <trkpt lat="42.87263" lon="17.52523">
        <ele>172</ele>
        <time>2016-07-18T07:28:06Z</time>
      </trkpt>
      <trkpt lat="42.87262" lon="17.52524">
        <ele>172</ele>
        <time>2016-07-18T07:30:06Z</time>
      </trkpt>
      <trkpt lat="42.87246" lon="17.52552">
        <ele>172</ele>
        <time>2016-07-18T07:32:06Z</time>
      </trkpt>
      <trkpt lat="42.87228" lon="17.52584">
        <ele>173</ele>
        <time>2016-07-18T07:34:06Z</time>
      </trkpt>
      <trkpt lat="42.87226" lon="17.52593">
        <ele>173</ele>
        <time>2016-07-18T07:36:06Z</time>
      </trkpt>
      <trkpt lat="42.87219" lon="17.5261">
        <ele>172</ele>
        <time>2016-07-18T07:38:06Z</time>
      </trkpt>
      <trkpt lat="42.87201" lon="17.52646">
        <ele>171</ele>
        <time>2016-07-18T07:40:06Z</time>
      </trkpt>
      <trkpt lat="42.87187" lon="17.5267">
        <ele>171</ele>
        <time>2016-07-18T07:42:06Z</time>
      </trkpt>
      <trkpt lat="42.87173" lon="17.52692">
        <ele>170</ele>
        <time>2016-07-18T07:44:06Z</time>
      </trkpt>
      <trkpt lat="42.87166" lon="17.52704">
        <ele>170</ele>
        <time>2016-07-18T07:46:06Z</time>
      </trkpt>
      <trkpt lat="42.87157" lon="17.5272">
        <ele>170</ele>
        <time>2016-07-18T07:48:06Z</time>
      </trkpt>
      <trkpt lat="42.87147" lon="17.52738">
        <ele>169</ele>
        <time>2016-07-18T07:50:06Z</time>
      </trkpt>
      <trkpt lat="42.87142" lon="17.52751">
        <ele>169</ele>
        <time>2016-07-18T07:52:06Z</time>
      </trkpt>
      <trkpt lat="42.87136" lon="17.52764">
        <ele>169</ele>
        <time>2016-07-18T07:54:06Z</time>
      </trkpt>
      <trkpt lat="42.87134" lon="17.52769">
        <ele>170</ele>
        <time>2016-07-18T07:56:06Z</time>
      </trkpt>
      <trkpt lat="42.87129" lon="17.52782">
        <ele>170</ele>
        <time>2016-07-18T07:58:06Z</time>
      </trkpt>
      <trkpt lat="42.8712" lon="17.52811">
        <ele>170</ele>
        <time>2016-07-18T08:00:06Z</time>
      </trkpt>
      <trkpt lat="42.87118" lon="17.52821">
        <ele>170</ele>
        <time>2016-07-18T08:02:06Z</time>
      </trkpt>
      <trkpt lat="42.87113" lon="17.52841">
        <ele>170</ele>
        <time>2016-07-18T08:04:06Z</time>
      </trkpt>
      <trkpt lat="42.87109" lon="17.52862">
        <ele>170</ele>
        <time>2016-07-18T08:06:06Z</time>
      </trkpt>
      <trkpt lat="42.87102" lon="17.52901">
        <ele>170</ele>
        <time>2016-07-18T08:08:06Z</time>
      </trkpt>
      <trkpt lat="42.87102" lon="17.52904">
        <ele>170</ele>
        <time>2016-07-18T08:10:06Z</time>
      </trkpt>
      <trkpt lat="42.871" lon="17.52915">
        <ele>170</ele>
        <time>2016-07-18T08:12:06Z</time>
      </trkpt>
      <trkpt lat="42.87095" lon="17.5294">
        <ele>171</ele>
        <time>2016-07-18T08:14:06Z</time>
      </trkpt>
      <trkpt lat="42.87092" lon="17.5296">
        <ele>172</ele>
        <time>2016-07-18T08:16:06Z</time>
      </trkpt>
      <trkpt lat="42.87083" lon="17.52997">
        <ele>175</ele>
        <time>2016-07-18T08:18:06Z</time>
      </trkpt>
      <trkpt lat="42.87079" lon="17.53012">
        <ele>176</ele>
        <time>2016-07-18T08:20:06Z</time>
      </trkpt>
      <trkpt lat="42.87073" lon="17.53031">
        <ele>176</ele>
        <time>2016-07-18T08:22:06Z</time>
      </trkpt>
      <trkpt lat="42.87063" lon="17.5306">
        <ele>177</ele>
        <time>2016-07-18T08:24:06Z</time>
      </trkpt>
      <trkpt lat="42.87057" lon="17.53073">
        <ele>178</ele>
        <time>2016-07-18T08:26:06Z</time>
      </trkpt>
      <trkpt lat="42.87041" lon="17.53116">
        <ele>179</ele>
        <time>2016-07-18T08:28:06Z</time>
      </trkpt>
      <trkpt lat="42.87032" lon="17.53141">
        <ele>179</ele>
        <time>2016-07-18T08:30:06Z</time>
      </trkpt>
      <trkpt lat="42.87023" lon="17.53169">
        <ele>179</ele>
        <time>2016-07-18T08:32:06Z</time>
      </trkpt>
      <trkpt lat="42.87015" lon="17.53198">
        <ele>180</ele>
        <time>2016-07-18T08:34:06Z</time>
      </trkpt>
      <trkpt lat="42.87005" lon="17.53236">
        <ele>180</ele>
        <time>2016-07-18T08:36:06Z</time>
      </trkpt>
      <trkpt lat="42.86995" lon="17.53274">
        <ele>180</ele>
        <time>2016-07-18T08:38:06Z</time>
      </trkpt>
      <trkpt lat="42.86978" lon="17.53345">
        <ele>179</ele>
        <time>2016-07-18T08:40:06Z</time>
      </trkpt>
      <trkpt lat="42.8696" lon="17.53409">
        <ele>179</ele>
        <time>2016-07-18T08:42:06Z</time>
      </trkpt>
      <trkpt lat="42.86955" lon="17.53429">
        <ele>179</ele>
        <time>2016-07-18T08:44:06Z</time>
      </trkpt>
      <trkpt lat="42.8695" lon="17.53448">
        <ele>179</ele>
        <time>2016-07-18T08:46:06Z</time>
      </trkpt>
      <trkpt lat="42.86944" lon="17.53466">
        <ele>179</ele>
        <time>2016-07-18T08:48:06Z</time>
      </trkpt>
      <trkpt lat="42.86938" lon="17.53484">
        <ele>179</ele>
        <time>2016-07-18T08:50:06Z</time>
      </trkpt>
      <trkpt lat="42.8693" lon="17.53502">
        <ele>179</ele>
        <time>2016-07-18T08:52:06Z</time>
      </trkpt>
      <trkpt lat="42.86924" lon="17.53513">
        <ele>179</ele>
        <time>2016-07-18T08:54:06Z</time>
      </trkpt>
      <trkpt lat="42.86918" lon="17.53521">
        <ele>178</ele>
        <time>2016-07-18T08:56:06Z</time>
      </trkpt>
      <trkpt lat="42.86907" lon="17.53537">
        <ele>179</ele>
        <time>2016-07-18T08:58:06Z</time>
      </trkpt>
      <trkpt lat="42.869" lon="17.53545">
        <ele>179</ele>
        <time>2016-07-18T09:00:06Z</time>
      </trkpt>
      <trkpt lat="42.86887" lon="17.5356">
        <ele>179</ele>
        <time>2016-07-18T09:02:06Z</time>
      </trkpt>
      <trkpt lat="42.86874" lon="17.53575">
        <ele>179</ele>
        <time>2016-07-18T09:04:06Z</time>
      </trkpt>
      <trkpt lat="42.8685" lon="17.53604">
        <ele>179</ele>
        <time>2016-07-18T09:06:06Z</time>
      </trkpt>
      <trkpt lat="42.86814" lon="17.53645">
        <ele>181</ele>
        <time>2016-07-18T09:08:06Z</time>
      </trkpt>
      <trkpt lat="42.86778" lon="17.53687">
        <ele>183</ele>
        <time>2016-07-18T09:10:06Z</time>
      </trkpt>
      <trkpt lat="42.86765" lon="17.53702">
        <ele>183</ele>
        <time>2016-07-18T09:12:06Z</time>
      </trkpt>
      <trkpt lat="42.86752" lon="17.53721">
        <ele>184</ele>
        <time>2016-07-18T09:14:06Z</time>
      </trkpt>
      <trkpt lat="42.86744" lon="17.53736">
        <ele>184</ele>
        <time>2016-07-18T09:16:06Z</time>
      </trkpt>
      <trkpt lat="42.86738" lon="17.53747">
        <ele>185</ele>
        <time>2016-07-18T09:18:06Z</time>
      </trkpt>
      <trkpt lat="42.86738" lon="17.53748">
        <ele>185</ele>
        <time>2016-07-18T09:20:06Z</time>
      </trkpt>
      <trkpt lat="42.86736" lon="17.53754">
        <ele>185</ele>
        <time>2016-07-18T09:22:06Z</time>
      </trkpt>
      <trkpt lat="42.86734" lon="17.53758">
        <ele>185</ele>
        <time>2016-07-18T09:24:06Z</time>
      </trkpt>
      <trkpt lat="42.86731" lon="17.53769">
        <ele>185</ele>
        <time>2016-07-18T09:26:06Z</time>
      </trkpt>
      <trkpt lat="42.86725" lon="17.53787">
        <ele>185</ele>
        <time>2016-07-18T09:28:06Z</time>
      </trkpt>
      <trkpt lat="42.86719" lon="17.53806">
        <ele>185</ele>
        <time>2016-07-18T09:30:06Z</time>
      </trkpt>
      <trkpt lat="42.86717" lon="17.53816">
        <ele>185</ele>
        <time>2016-07-18T09:32:06Z</time>
      </trkpt>
      <trkpt lat="42.86714" lon="17.53825">
        <ele>186</ele>
        <time>2016-07-18T09:34:06Z</time>
      </trkpt>
      <trkpt lat="42.86706" lon="17.5385">
        <ele>186</ele>
        <time>2016-07-18T09:36:06Z</time>
      </trkpt>
      <trkpt lat="42.867" lon="17.53867">
        <ele>187</ele>
        <time>2016-07-18T09:38:06Z</time>
      </trkpt>
      <trkpt lat="42.86697" lon="17.53874">
        <ele>187</ele>
        <time>2016-07-18T09:40:06Z</time>
      </trkpt>
      <trkpt lat="42.86695" lon="17.53878">
        <ele>187</ele>
        <time>2016-07-18T09:42:06Z</time>
      </trkpt>
      <trkpt lat="42.86688" lon="17.53894">
        <ele>188</ele>
        <time>2016-07-18T09:44:06Z</time>
      </trkpt>
      <trkpt lat="42.86686" lon="17.53899">
        <ele>188</ele>
        <time>2016-07-18T09:46:06Z</time>
      </trkpt>
      <trkpt lat="42.86683" lon="17.53906">
        <ele>188</ele>
        <time>2016-07-18T09:48:06Z</time>
      </trkpt>
      <trkpt lat="42.8667" lon="17.53934">
        <ele>188</ele>
        <time>2016-07-18T09:50:06Z</time>
      </trkpt>
      <trkpt lat="42.86662" lon="17.53949">
        <ele>188</ele>
        <time>2016-07-18T09:52:06Z</time>
      </trkpt>
      <trkpt lat="42.86652" lon="17.5397">
        <ele>189</ele>
        <time>2016-07-18T09:54:06Z</time>
      </trkpt>
      <trkpt lat="42.86641" lon="17.53994">
        <ele>189</ele>
        <time>2016-07-18T09:56:06Z</time>
      </trkpt>
      <trkpt lat="42.86623" lon="17.54036">
        <ele>189</ele>
        <time>2016-07-18T09:58:06Z</time>
      </trkpt>
      <trkpt lat="42.86609" lon="17.54072">
        <ele>189</ele>
        <time>2016-07-18T10:00:06Z</time>
      </trkpt>
      <trkpt lat="42.86602" lon="17.54092">
        <ele>189</ele>
        <time>2016-07-18T10:02:06Z</time>
      </trkpt>
      <trkpt lat="42.86586" lon="17.5413">
        <ele>189</ele>
        <time>2016-07-18T10:04:06Z</time>
      </trkpt>
      <trkpt lat="42.86574" lon="17.54161">
        <ele>190</ele>
        <time>2016-07-18T10:06:06Z</time>
      </trkpt>
      <trkpt lat="42.86564" lon="17.5418">
        <ele>191</ele>
        <time>2016-07-18T10:08:06Z</time>
      </trkpt>
      <trkpt lat="42.86532" lon="17.54246">
        <ele>192</ele>
        <time>2016-07-18T10:10:06Z</time>
      </trkpt>
      <trkpt lat="42.86516" lon="17.54279">
        <ele>192</ele>
        <time>2016-07-18T10:12:06Z</time>
      </trkpt>
      <trkpt lat="42.86505" lon="17.54306">
        <ele>192</ele>
        <time>2016-07-18T10:14:06Z</time>
      </trkpt>
      <trkpt lat="42.86501" lon="17.54314">
        <ele>192</ele>
        <time>2016-07-18T10:16:06Z</time>
      </trkpt>
      <trkpt lat="42.8649" lon="17.54346">
        <ele>192</ele>
        <time>2016-07-18T10:18:06Z</time>
      </trkpt>
      <trkpt lat="42.86479" lon="17.54379">
        <ele>193</ele>
        <time>2016-07-18T10:20:06Z</time>
      </trkpt>
      <trkpt lat="42.8647" lon="17.54407">
        <ele>193</ele>
        <time>2016-07-18T10:22:06Z</time>
      </trkpt>
      <trkpt lat="42.86464" lon="17.54426">
        <ele>193</ele>
        <time>2016-07-18T10:24:06Z</time>
      </trkpt>
      <trkpt lat="42.86456" lon="17.54451">
        <ele>193</ele>
        <time>2016-07-18T10:26:06Z</time>
      </trkpt>
      <trkpt lat="42.86452" lon="17.54462">
        <ele>193</ele>
        <time>2016-07-18T10:28:06Z</time>
      </trkpt>
      <trkpt lat="42.86449" lon="17.54471">
        <ele>193</ele>
        <time>2016-07-18T10:30:06Z</time>
      </trkpt>
      <trkpt lat="42.86443" lon="17.54485">
        <ele>193</ele>
        <time>2016-07-18T10:32:06Z</time>
      </trkpt>
      <trkpt lat="42.86436" lon="17.54498">
        <ele>193</ele>
        <time>2016-07-18T10:34:06Z</time>
      </trkpt>
      <trkpt lat="42.86429" lon="17.54512">
        <ele>194</ele>
        <time>2016-07-18T10:36:06Z</time>
      </trkpt>
      <trkpt lat="42.86419" lon="17.54531">
        <ele>195</ele>
        <time>2016-07-18T10:38:06Z</time>
      </trkpt>
      <trkpt lat="42.86414" lon="17.54539">
        <ele>195</ele>
        <time>2016-07-18T10:40:06Z</time>
      </trkpt>
      <trkpt lat="42.86399" lon="17.54566">
        <ele>197</ele>
        <time>2016-07-18T10:42:06Z</time>
      </trkpt>
      <trkpt lat="42.86388" lon="17.54585">
        <ele>197</ele>
        <time>2016-07-18T10:44:06Z</time>
      </trkpt>
      <trkpt lat="42.86377" lon="17.54605">
        <ele>198</ele>
        <time>2016-07-18T10:46:06Z</time>
      </trkpt>
      <trkpt lat="42.8637" lon="17.54621">
        <ele>199</ele>
        <time>2016-07-18T10:48:06Z</time>
      </trkpt>
      <trkpt lat="42.86366" lon="17.54631">
        <ele>199</ele>
        <time>2016-07-18T10:50:06Z</time>
      </trkpt>
      <trkpt lat="42.86364" lon="17.54637">
        <ele>199</ele>
        <time>2016-07-18T10:52:06Z</time>
      </trkpt>
      <trkpt lat="42.8636" lon="17.5465">
        <ele>199</ele>
        <time>2016-07-18T10:54:06Z</time>
      </trkpt>
      <trkpt lat="42.86358" lon="17.54662">
        <ele>199</ele>
        <time>2016-07-18T10:56:06Z</time>
      </trkpt>
      <trkpt lat="42.86352" lon="17.54688">
        <ele>199</ele>
        <time>2016-07-18T10:58:06Z</time>
      </trkpt>
      <trkpt lat="42.86347" lon="17.54713">
        <ele>200</ele>
        <time>2016-07-18T11:00:06Z</time>
      </trkpt>
      <trkpt lat="42.86343" lon="17.54739">
        <ele>201</ele>
        <time>2016-07-18T11:02:06Z</time>
      </trkpt>
      <trkpt lat="42.86333" lon="17.5479">
        <ele>201</ele>
        <time>2016-07-18T11:04:06Z</time>
      </trkpt>
      <trkpt lat="42.86327" lon="17.54826">
        <ele>201</ele>
        <time>2016-07-18T11:06:06Z</time>
      </trkpt>
      <trkpt lat="42.86319" lon="17.5487">
        <ele>202</ele>
        <time>2016-07-18T11:08:06Z</time>
      </trkpt>
      <trkpt lat="42.8631" lon="17.54918">
        <ele>203</ele>
        <time>2016-07-18T11:10:06Z</time>
      </trkpt>
      <trkpt lat="42.863" lon="17.54968">
        <ele>204</ele>
        <time>2016-07-18T11:12:06Z</time>
      </trkpt>
      <trkpt lat="42.86285" lon="17.55052">
        <ele>205</ele>
        <time>2016-07-18T11:14:06Z</time>
      </trkpt>
      <trkpt lat="42.86284" lon="17.55056">
        <ele>205</ele>
        <time>2016-07-18T11:16:06Z</time>
      </trkpt>
      <trkpt lat="42.86273" lon="17.55112">
        <ele>205</ele>
        <time>2016-07-18T11:18:06Z</time>
      </trkpt>
      <trkpt lat="42.86273" lon="17.55115">
        <ele>205</ele>
        <time>2016-07-18T11:20:06Z</time>
      </trkpt>
      <trkpt lat="42.86258" lon="17.55191">
        <ele>207</ele>
        <time>2016-07-18T11:22:06Z</time>
      </trkpt>
      <trkpt lat="42.86247" lon="17.55245">
        <ele>208</ele>
        <time>2016-07-18T11:24:06Z</time>
      </trkpt>
      <trkpt lat="42.86242" lon="17.55269">
        <ele>209</ele>
        <time>2016-07-18T11:26:06Z</time>
      </trkpt>
      <trkpt lat="42.86241" lon="17.55277">
        <ele>209</ele>
        <time>2016-07-18T11:28:06Z</time>
      </trkpt>
      <trkpt lat="42.86235" lon="17.55309">
        <ele>210</ele>
        <time>2016-07-18T11:30:06Z</time>
      </trkpt>
      <trkpt lat="42.86232" lon="17.55328">
        <ele>211</ele>
        <time>2016-07-18T11:32:06Z</time>
      </trkpt>
      <trkpt lat="42.86229" lon="17.55347">
        <ele>211</ele>
        <time>2016-07-18T11:34:06Z</time>
      </trkpt>
      <trkpt lat="42.86227" lon="17.55366">
        <ele>210</ele>
        <time>2016-07-18T11:36:06Z</time>
      </trkpt>
      <trkpt lat="42.86226" lon="17.55385">
        <ele>210</ele>
        <time>2016-07-18T11:38:06Z</time>
      </trkpt>
      <trkpt lat="42.86226" lon="17.55404">
        <ele>210</ele>
        <time>2016-07-18T11:40:06Z</time>
      </trkpt>
      <trkpt lat="42.86227" lon="17.55419">
        <ele>211</ele>
        <time>2016-07-18T11:42:06Z</time>
      </trkpt>
      <trkpt lat="42.86229" lon="17.55432">
        <ele>211</ele>
        <time>2016-07-18T11:44:06Z</time>
      </trkpt>
      <trkpt lat="42.86231" lon="17.55441">
        <ele>211</ele>
        <time>2016-07-18T11:46:06Z</time>
      </trkpt>
      <trkpt lat="42.86234" lon="17.55458">
        <ele>212</ele>
        <time>2016-07-18T11:48:06Z</time>
      </trkpt>
      <trkpt lat="42.86238" lon="17.55475">
        <ele>212</ele>
        <time>2016-07-18T11:50:06Z</time>
      </trkpt>
      <trkpt lat="42.86247" lon="17.55496">
        <ele>213</ele>
        <time>2016-07-18T11:52:06Z</time>
      </trkpt>
      <trkpt lat="42.86272" lon="17.5555">
        <ele>212</ele>
        <time>2016-07-18T11:54:06Z</time>
      </trkpt>
      <trkpt lat="42.86276" lon="17.55558">
        <ele>212</ele>
        <time>2016-07-18T11:56:06Z</time>
      </trkpt>
      <trkpt lat="42.86284" lon="17.55573">
        <ele>212</ele>
        <time>2016-07-18T11:58:06Z</time>
      </trkpt>
      <trkpt lat="42.86292" lon="17.55589">
        <ele>212</ele>
        <time>2016-07-18T12:00:06Z</time>
      </trkpt>
      <trkpt lat="42.86299" lon="17.55607">
        <ele>213</ele>
        <time>2016-07-18T12:02:06Z</time>
      </trkpt>
      <trkpt lat="42.86304" lon="17.55621">
        <ele>213</ele>
        <time>2016-07-18T12:04:06Z</time>
      </trkpt>
      <trkpt lat="42.8631" lon="17.55642">
        <ele>214</ele>
        <time>2016-07-18T12:06:06Z</time>
      </trkpt>
      <trkpt lat="42.86313" lon="17.55657">
        <ele>214</ele>
        <time>2016-07-18T12:08:06Z</time>
      </trkpt>
      <trkpt lat="42.86314" lon="17.55673">
        <ele>214</ele>
        <time>2016-07-18T12:10:06Z</time>
      </trkpt>
      <trkpt lat="42.86314" lon="17.55687">
        <ele>214</ele>
        <time>2016-07-18T12:12:06Z</time>
      </trkpt>
      <trkpt lat="42.86313" lon="17.55703">
        <ele>213</ele>
        <time>2016-07-18T12:14:06Z</time>
      </trkpt>
      <trkpt lat="42.86311" lon="17.55718">
        <ele>213</ele>
        <time>2016-07-18T12:16:06Z</time>
      </trkpt>
      <trkpt lat="42.86309" lon="17.55734">
        <ele>212</ele>
        <time>2016-07-18T12:18:06Z</time>
      </trkpt>
      <trkpt lat="42.86306" lon="17.55749">
        <ele>211</ele>
        <time>2016-07-18T12:20:06Z</time>
      </trkpt>
      <trkpt lat="42.86303" lon="17.55765">
        <ele>211</ele>
        <time>2016-07-18T12:22:06Z</time>
      </trkpt>
      <trkpt lat="42.863" lon="17.5578">
        <ele>210</ele>
        <time>2016-07-18T12:24:06Z</time>
      </trkpt>
      <trkpt lat="42.86296" lon="17.55802">
        <ele>209</ele>
        <time>2016-07-18T12:26:06Z</time>
      </trkpt>
      <trkpt lat="42.86295" lon="17.55813">
        <ele>208</ele>
        <time>2016-07-18T12:28:06Z</time>
      </trkpt>
      <trkpt lat="42.86292" lon="17.55834">
        <ele>208</ele>
        <time>2016-07-18T12:30:06Z</time>
      </trkpt>
      <trkpt lat="42.8629" lon="17.55856">
        <ele>208</ele>
        <time>2016-07-18T12:32:06Z</time>
      </trkpt>
      <trkpt lat="42.86289" lon="17.55878">
        <ele>208</ele>
        <time>2016-07-18T12:34:06Z</time>
      </trkpt>
      <trkpt lat="42.8629" lon="17.55899">
        <ele>209</ele>
        <time>2016-07-18T12:36:06Z</time>
      </trkpt>
      <trkpt lat="42.86291" lon="17.55919">
        <ele>210</ele>
        <time>2016-07-18T12:38:06Z</time>
      </trkpt>
      <trkpt lat="42.86292" lon="17.5594">
        <ele>210</ele>
        <time>2016-07-18T12:40:06Z</time>
      </trkpt>
      <trkpt lat="42.86295" lon="17.55979">
        <ele>211</ele>
        <time>2016-07-18T12:42:06Z</time>
      </trkpt>
      <trkpt lat="42.86299" lon="17.56027">
        <ele>212</ele>
        <time>2016-07-18T12:44:06Z</time>
      </trkpt>
      <trkpt lat="42.86307" lon="17.56144">
        <ele>212</ele>
        <time>2016-07-18T12:46:06Z</time>
      </trkpt>
      <trkpt lat="42.86312" lon="17.56215">
        <ele>212</ele>
        <time>2016-07-18T12:48:06Z</time>
      </trkpt>
      <trkpt lat="42.86316" lon="17.56287">
        <ele>213</ele>
        <time>2016-07-18T12:50:06Z</time>
      </trkpt>
      <trkpt lat="42.86318" lon="17.56316">
        <ele>214</ele>
        <time>2016-07-18T12:52:06Z</time>
      </trkpt>
      <trkpt lat="42.86319" lon="17.56322">
        <ele>214</ele>
        <time>2016-07-18T12:54:06Z</time>
      </trkpt>
      <trkpt lat="42.8632" lon="17.56334">
        <ele>215</ele>
        <time>2016-07-18T12:56:06Z</time>
      </trkpt>
      <trkpt lat="42.86321" lon="17.56346">
        <ele>214</ele>
        <time>2016-07-18T12:58:06Z</time>
      </trkpt>
      <trkpt lat="42.86321" lon="17.56397">
        <ele>214</ele>
        <time>2016-07-18T13:00:06Z</time>
      </trkpt>
      <trkpt lat="42.86319" lon="17.56443">
        <ele>214</ele>
        <time>2016-07-18T13:02:06Z</time>
      </trkpt>
      <trkpt lat="42.86315" lon="17.56505">
        <ele>214</ele>
        <time>2016-07-18T13:04:06Z</time>
      </trkpt>
      <trkpt lat="42.86314" lon="17.56517">
        <ele>214</ele>
        <time>2016-07-18T13:06:06Z</time>
      </trkpt>
      <trkpt lat="42.86312" lon="17.5655">
        <ele>214</ele>
        <time>2016-07-18T13:08:06Z</time>
      </trkpt>
      <trkpt lat="42.8631" lon="17.56594">
        <ele>213</ele>
        <time>2016-07-18T13:10:06Z</time>
      </trkpt>
      <trkpt lat="42.86308" lon="17.56622">
        <ele>213</ele>
        <time>2016-07-18T13:12:06Z</time>
      </trkpt>
      <trkpt lat="42.86306" lon="17.5665">
        <ele>213</ele>
        <time>2016-07-18T13:14:06Z</time>
      </trkpt>
      <trkpt lat="42.86303" lon="17.56678">
        <ele>213</ele>
        <time>2016-07-18T13:16:06Z</time>
      </trkpt>
      <trkpt lat="42.86299" lon="17.56706">
        <ele>213</ele>
        <time>2016-07-18T13:18:06Z</time>
      </trkpt>
      <trkpt lat="42.86297" lon="17.56717">
        <ele>213</ele>
        <time>2016-07-18T13:20:06Z</time>
      </trkpt>
      <trkpt lat="42.86293" lon="17.5673">
        <ele>213</ele>
        <time>2016-07-18T13:22:06Z</time>
      </trkpt>
      <trkpt lat="42.86287" lon="17.5675">
        <ele>212</ele>
        <time>2016-07-18T13:24:06Z</time>
      </trkpt>
      <trkpt lat="42.86282" lon="17.56768">
        <ele>212</ele>
        <time>2016-07-18T13:26:06Z</time>
      </trkpt>
      <trkpt lat="42.86275" lon="17.56786">
        <ele>212</ele>
        <time>2016-07-18T13:28:06Z</time>
      </trkpt>
      <trkpt lat="42.86268" lon="17.56804">
        <ele>212</ele>
        <time>2016-07-18T13:30:06Z</time>
      </trkpt>
      <trkpt lat="42.86255" lon="17.56831">
        <ele>212</ele>
        <time>2016-07-18T13:32:06Z</time>
      </trkpt>
      <trkpt lat="42.86244" lon="17.5685">
        <ele>212</ele>
        <time>2016-07-18T13:34:06Z</time>
      </trkpt>
      <trkpt lat="42.86233" lon="17.56868">
        <ele>212</ele>
        <time>2016-07-18T13:36:06Z</time>
      </trkpt>
      <trkpt lat="42.86217" lon="17.56896">
        <ele>211</ele>
        <time>2016-07-18T13:38:06Z</time>
      </trkpt>
      <trkpt lat="42.862" lon="17.56926">
        <ele>210</ele>
        <time>2016-07-18T13:40:06Z</time>
      </trkpt>
      <trkpt lat="42.86178" lon="17.56962">
        <ele>208</ele>
        <time>2016-07-18T13:42:06Z</time>
      </trkpt>
      <trkpt lat="42.86153" lon="17.57006">
        <ele>207</ele>
        <time>2016-07-18T13:44:06Z</time>
      </trkpt>
      <trkpt lat="42.86133" lon="17.5704">
        <ele>207</ele>
        <time>2016-07-18T13:46:06Z</time>
      </trkpt>
      <trkpt lat="42.86105" lon="17.57088">
        <ele>206</ele>
        <time>2016-07-18T13:48:06Z</time>
      </trkpt>
      <trkpt lat="42.8608" lon="17.5713">
        <ele>207</ele>
        <time>2016-07-18T13:50:06Z</time>
      </trkpt>
      <trkpt lat="42.86062" lon="17.57161">
        <ele>207</ele>
        <time>2016-07-18T13:52:06Z</time>
      </trkpt>
      <trkpt lat="42.86048" lon="17.57186">
        <ele>209</ele>
        <time>2016-07-18T13:54:06Z</time>
      </trkpt>
      <trkpt lat="42.86026" lon="17.57224">
        <ele>209</ele>
        <time>2016-07-18T13:56:06Z</time>
      </trkpt>
      <trkpt lat="42.86019" lon="17.57236">
        <ele>209</ele>
        <time>2016-07-18T13:58:06Z</time>
      </trkpt>
      <trkpt lat="42.86004" lon="17.57261">
        <ele>208</ele>
        <time>2016-07-18T14:00:06Z</time>
      </trkpt>
      <trkpt lat="42.85975" lon="17.5731">
        <ele>209</ele>
        <time>2016-07-18T14:02:06Z</time>
      </trkpt>
      <trkpt lat="42.85946" lon="17.57361">
        <ele>210</ele>
        <time>2016-07-18T14:04:06Z</time>
      </trkpt>
      <trkpt lat="42.8592" lon="17.57407">
        <ele>209</ele>
        <time>2016-07-18T14:06:06Z</time>
      </trkpt>
      <trkpt lat="42.85903" lon="17.57431">
        <ele>209</ele>
        <time>2016-07-18T14:08:06Z</time>
      </trkpt>
      <trkpt lat="42.85878" lon="17.57467">
        <ele>208</ele>
        <time>2016-07-18T14:10:06Z</time>
      </trkpt>
      <trkpt lat="42.85857" lon="17.57492">
        <ele>207</ele>
        <time>2016-07-18T14:12:06Z</time>
      </trkpt>
      <trkpt lat="42.85836" lon="17.57517">
        <ele>208</ele>
        <time>2016-07-18T14:14:06Z</time>
      </trkpt>
      <trkpt lat="42.85815" lon="17.57542">
        <ele>207</ele>
        <time>2016-07-18T14:16:06Z</time>
      </trkpt>
      <trkpt lat="42.85806" lon="17.57554">
        <ele>207</ele>
        <time>2016-07-18T14:18:06Z</time>
      </trkpt>
      <trkpt lat="42.85797" lon="17.57567">
        <ele>206</ele>
        <time>2016-07-18T14:20:06Z</time>
      </trkpt>
      <trkpt lat="42.85791" lon="17.57578">
        <ele>206</ele>
        <time>2016-07-18T14:22:06Z</time>
      </trkpt>
      <trkpt lat="42.85782" lon="17.57594">
        <ele>205</ele>
        <time>2016-07-18T14:24:06Z</time>
      </trkpt>
      <trkpt lat="42.85775" lon="17.57614">
        <ele>204</ele>
        <time>2016-07-18T14:26:06Z</time>
      </trkpt>
      <trkpt lat="42.85769" lon="17.57635">
        <ele>203</ele>
        <time>2016-07-18T14:28:06Z</time>
      </trkpt>
      <trkpt lat="42.85764" lon="17.57658">
        <ele>202</ele>
        <time>2016-07-18T14:30:06Z</time>
      </trkpt>
      <trkpt lat="42.8576" lon="17.57681">
        <ele>201</ele>
        <time>2016-07-18T14:32:06Z</time>
      </trkpt>
      <trkpt lat="42.85758" lon="17.57695">
        <ele>200</ele>
        <time>2016-07-18T14:34:06Z</time>
      </trkpt>
      <trkpt lat="42.8575" lon="17.57744">
        <ele>199</ele>
        <time>2016-07-18T14:36:06Z</time>
      </trkpt>
      <trkpt lat="42.85741" lon="17.57794">
        <ele>198</ele>
        <time>2016-07-18T14:38:06Z</time>
      </trkpt>
      <trkpt lat="42.85735" lon="17.5783">
        <ele>197</ele>
        <time>2016-07-18T14:40:06Z</time>
      </trkpt>
      <trkpt lat="42.85731" lon="17.57862">
        <ele>196</ele>
        <time>2016-07-18T14:42:06Z</time>
      </trkpt>
      <trkpt lat="42.85727" lon="17.57887">
        <ele>195</ele>
        <time>2016-07-18T14:44:06Z</time>
      </trkpt>
      <trkpt lat="42.85722" lon="17.57918">
        <ele>194</ele>
        <time>2016-07-18T14:46:06Z</time>
      </trkpt>
      <trkpt lat="42.85718" lon="17.57948">
        <ele>194</ele>
        <time>2016-07-18T14:48:06Z</time>
      </trkpt>
      <trkpt lat="42.85713" lon="17.57979">
        <ele>194</ele>
        <time>2016-07-18T14:50:06Z</time>
      </trkpt>
      <trkpt lat="42.8571" lon="17.57999">
        <ele>195</ele>
        <time>2016-07-18T14:52:06Z</time>
      </trkpt>
      <trkpt lat="42.85705" lon="17.58028">
        <ele>195</ele>
        <time>2016-07-18T14:54:06Z</time>
      </trkpt>
      <trkpt lat="42.857" lon="17.58064">
        <ele>195</ele>
        <time>2016-07-18T14:56:06Z</time>
      </trkpt>
      <trkpt lat="42.85698" lon="17.58082">
        <ele>195</ele>
        <time>2016-07-18T14:58:06Z</time>
      </trkpt>
      <trkpt lat="42.85696" lon="17.58101">
        <ele>195</ele>
        <time>2016-07-18T15:00:06Z</time>
      </trkpt>
      <trkpt lat="42.85693" lon="17.58122">
        <ele>195</ele>
        <time>2016-07-18T15:02:06Z</time>
      </trkpt>
      <trkpt lat="42.85692" lon="17.5814">
        <ele>195</ele>
        <time>2016-07-18T15:04:06Z</time>
      </trkpt>
      <trkpt lat="42.85689" lon="17.58161">
        <ele>195</ele>
        <time>2016-07-18T15:06:06Z</time>
      </trkpt>
      <trkpt lat="42.85688" lon="17.5818">
        <ele>194</ele>
        <time>2016-07-18T15:08:06Z</time>
      </trkpt>
      <trkpt lat="42.85686" lon="17.58213">
        <ele>194</ele>
        <time>2016-07-18T15:10:06Z</time>
      </trkpt>
      <trkpt lat="42.85683" lon="17.58241">
        <ele>193</ele>
        <time>2016-07-18T15:12:06Z</time>
      </trkpt>
      <trkpt lat="42.85679" lon="17.58278">
        <ele>193</ele>
        <time>2016-07-18T15:14:06Z</time>
      </trkpt>
      <trkpt lat="42.85677" lon="17.58305">
        <ele>193</ele>
        <time>2016-07-18T15:16:06Z</time>
      </trkpt>
      <trkpt lat="42.85674" lon="17.5834">
        <ele>193</ele>
        <time>2016-07-18T15:18:06Z</time>
      </trkpt>
      <trkpt lat="42.85671" lon="17.58375">
        <ele>193</ele>
        <time>2016-07-18T15:20:06Z</time>
      </trkpt>
      <trkpt lat="42.85668" lon="17.58412">
        <ele>192</ele>
        <time>2016-07-18T15:22:06Z</time>
      </trkpt>
      <trkpt lat="42.85666" lon="17.58441">
        <ele>191</ele>
        <time>2016-07-18T15:24:06Z</time>
      </trkpt>
      <trkpt lat="42.85663" lon="17.5847">
        <ele>191</ele>
        <time>2016-07-18T15:26:06Z</time>
      </trkpt>
      <trkpt lat="42.8566" lon="17.5851">
        <ele>190</ele>
        <time>2016-07-18T15:28:06Z</time>
      </trkpt>
      <trkpt lat="42.85656" lon="17.58548">
        <ele>190</ele>
        <time>2016-07-18T15:30:06Z</time>
      </trkpt>
      <trkpt lat="42.85651" lon="17.5859">
        <ele>190</ele>
        <time>2016-07-18T15:32:06Z</time>
      </trkpt>
      <trkpt lat="42.85649" lon="17.5862">
        <ele>190</ele>
        <time>2016-07-18T15:34:06Z</time>
      </trkpt>
      <trkpt lat="42.8564" lon="17.5872">
        <ele>190</ele>
        <time>2016-07-18T15:36:06Z</time>
      </trkpt>
      <trkpt lat="42.85635" lon="17.58768">
        <ele>190</ele>
        <time>2016-07-18T15:38:06Z</time>
      </trkpt>
      <trkpt lat="42.85632" lon="17.58805">
        <ele>189</ele>
        <time>2016-07-18T15:40:06Z</time>
      </trkpt>
      <trkpt lat="42.85629" lon="17.58843">
        <ele>188</ele>
        <time>2016-07-18T15:42:06Z</time>
      </trkpt>
      <trkpt lat="42.85627" lon="17.58875">
        <ele>188</ele>
        <time>2016-07-18T15:44:06Z</time>
      </trkpt>
      <trkpt lat="42.85623" lon="17.58911">
        <ele>187</ele>
        <time>2016-07-18T15:46:06Z</time>
      </trkpt>
      <trkpt lat="42.85621" lon="17.58937">
        <ele>187</ele>
        <time>2016-07-18T15:48:06Z</time>
      </trkpt>
      <trkpt lat="42.8562" lon="17.58955">
        <ele>187</ele>
        <time>2016-07-18T15:50:06Z</time>
      </trkpt>
      <trkpt lat="42.8562" lon="17.58967">
        <ele>187</ele>
        <time>2016-07-18T15:52:06Z</time>
      </trkpt>
      <trkpt lat="42.8562" lon="17.58999">
        <ele>187</ele>
        <time>2016-07-18T15:54:06Z</time>
      </trkpt>
      <trkpt lat="42.85623" lon="17.59021">
        <ele>187</ele>
        <time>2016-07-18T15:56:06Z</time>
      </trkpt>
      <trkpt lat="42.85626" lon="17.59043">
        <ele>186</ele>
        <time>2016-07-18T15:58:06Z</time>
      </trkpt>
      <trkpt lat="42.85631" lon="17.59071">
        <ele>186</ele>
        <time>2016-07-18T16:00:06Z</time>
      </trkpt>
      <trkpt lat="42.85638" lon="17.59099">
        <ele>186</ele>
        <time>2016-07-18T16:02:06Z</time>
      </trkpt>
      <trkpt lat="42.85645" lon="17.59125">
        <ele>185</ele>
        <time>2016-07-18T16:04:06Z</time>
      </trkpt>
      <trkpt lat="42.85655" lon="17.59162">
        <ele>186</ele>
        <time>2016-07-18T16:06:06Z</time>
      </trkpt>
      <trkpt lat="42.85666" lon="17.59202">
        <ele>185</ele>
        <time>2016-07-18T16:08:06Z</time>
      </trkpt>
      <trkpt lat="42.85676" lon="17.59234">
        <ele>186</ele>
        <time>2016-07-18T16:10:06Z</time>
      </trkpt>
      <trkpt lat="42.85686" lon="17.59261">
        <ele>186</ele>
        <time>2016-07-18T16:12:06Z</time>
      </trkpt>
      <trkpt lat="42.85691" lon="17.59273">
        <ele>186</ele>
        <time>2016-07-18T16:14:06Z</time>
      </trkpt>
      <trkpt lat="42.85701" lon="17.59288">
        <ele>186</ele>
        <time>2016-07-18T16:16:06Z</time>
      </trkpt>
      <trkpt lat="42.85714" lon="17.593">
        <ele>187</ele>
        <time>2016-07-18T16:18:06Z</time>
      </trkpt>
      <trkpt lat="42.85724" lon="17.59307">
        <ele>187</ele>
        <time>2016-07-18T16:20:06Z</time>
      </trkpt>
      <trkpt lat="42.8573" lon="17.59311">
        <ele>187</ele>
        <time>2016-07-18T16:22:06Z</time>
      </trkpt>
      <trkpt lat="42.85741" lon="17.59317">
        <ele>188</ele>
        <time>2016-07-18T16:24:06Z</time>
      </trkpt>
      <trkpt lat="42.85752" lon="17.59324">
        <ele>188</ele>
        <time>2016-07-18T16:26:06Z</time>
      </trkpt>
      <trkpt lat="42.85764" lon="17.59335">
        <ele>189</ele>
        <time>2016-07-18T16:28:06Z</time>
      </trkpt>
      <trkpt lat="42.85767" lon="17.5934">
        <ele>190</ele>
        <time>2016-07-18T16:30:06Z</time>
      </trkpt>
      <trkpt lat="42.85775" lon="17.59352">
        <ele>191</ele>
        <time>2016-07-18T16:32:06Z</time>
      </trkpt>
      <trkpt lat="42.85779" lon="17.59361">
        <ele>192</ele>
        <time>2016-07-18T16:34:06Z</time>
      </trkpt>
      <trkpt lat="42.85785" lon="17.59378">
        <ele>193</ele>
        <time>2016-07-18T16:36:06Z</time>
      </trkpt>
      <trkpt lat="42.85787" lon="17.59391">
        <ele>193</ele>
        <time>2016-07-18T16:38:06Z</time>
      </trkpt>
      <trkpt lat="42.85788" lon="17.59402">
        <ele>193</ele>
        <time>2016-07-18T16:40:06Z</time>
      </trkpt>
      <trkpt lat="42.85788" lon="17.59414">
        <ele>193</ele>
        <time>2016-07-18T16:42:06Z</time>
      </trkpt>
      <trkpt lat="42.85786" lon="17.59461">
        <ele>193</ele>
        <time>2016-07-18T16:44:06Z</time>
      </trkpt>
      <trkpt lat="42.85786" lon="17.59475">
        <ele>193</ele>
        <time>2016-07-18T16:46:06Z</time>
      </trkpt>
      <trkpt lat="42.85784" lon="17.59493">
        <ele>193</ele>
        <time>2016-07-18T16:48:06Z</time>
      </trkpt>
      <trkpt lat="42.8578" lon="17.59511">
        <ele>194</ele>
        <time>2016-07-18T16:50:06Z</time>
      </trkpt>
      <trkpt lat="42.85777" lon="17.59522">
        <ele>194</ele>
        <time>2016-07-18T16:52:06Z</time>
      </trkpt>
      <trkpt lat="42.85771" lon="17.59543">
        <ele>194</ele>
        <time>2016-07-18T16:54:06Z</time>
      </trkpt>
      <trkpt lat="42.85756" lon="17.59575">
        <ele>193</ele>
        <time>2016-07-18T16:56:06Z</time>
      </trkpt>
      <trkpt lat="42.85739" lon="17.59605">
        <ele>194</ele>
        <time>2016-07-18T16:58:06Z</time>
      </trkpt>
      <trkpt lat="42.85729" lon="17.59621">
        <ele>194</ele>
        <time>2016-07-18T17:00:06Z</time>
      </trkpt>
      <trkpt lat="42.85712" lon="17.59649">
        <ele>194</ele>
        <time>2016-07-18T17:02:06Z</time>
      </trkpt>
      <trkpt lat="42.8569" lon="17.59685">
        <ele>195</ele>
        <time>2016-07-18T17:04:06Z</time>
      </trkpt>
      <trkpt lat="42.85666" lon="17.59723">
        <ele>195</ele>
        <time>2016-07-18T17:06:06Z</time>
      </trkpt>
      <trkpt lat="42.85636" lon="17.59772">
        <ele>197</ele>
        <time>2016-07-18T17:08:06Z</time>
      </trkpt>
      <trkpt lat="42.85605" lon="17.59822">
        <ele>200</ele>
        <time>2016-07-18T17:10:06Z</time>
      </trkpt>
      <trkpt lat="42.85575" lon="17.59869">
        <ele>205</ele>
        <time>2016-07-18T17:12:06Z</time>
      </trkpt>
      <trkpt lat="42.85552" lon="17.59902">
        <ele>206</ele>
        <time>2016-07-18T17:14:06Z</time>
      </trkpt>
      <trkpt lat="42.85541" lon="17.59916">
        <ele>206</ele>
        <time>2016-07-18T17:16:06Z</time>
      </trkpt>
      <trkpt lat="42.85531" lon="17.59929">
        <ele>206</ele>
        <time>2016-07-18T17:18:06Z</time>
      </trkpt>
      <trkpt lat="42.85499" lon="17.59967">
        <ele>205</ele>
        <time>2016-07-18T17:20:06Z</time>
      </trkpt>
      <trkpt lat="42.85482" lon="17.59986">
        <ele>205</ele>
        <time>2016-07-18T17:22:06Z</time>
      </trkpt>
      <trkpt lat="42.85472" lon="17.59996">
        <ele>205</ele>
        <time>2016-07-18T17:24:06Z</time>
      </trkpt>
      <trkpt lat="42.85467" lon="17.60005">
        <ele>205</ele>
        <time>2016-07-18T17:26:06Z</time>
      </trkpt>
      <trkpt lat="42.85464" lon="17.6001">
        <ele>205</ele>
        <time>2016-07-18T17:28:06Z</time>
      </trkpt>
      <trkpt lat="42.85461" lon="17.60016">
        <ele>204</ele>
        <time>2016-07-18T17:30:06Z</time>
      </trkpt>
      <trkpt lat="42.85458" lon="17.60027">
        <ele>205</ele>
        <time>2016-07-18T17:32:06Z</time>
      </trkpt>
      <trkpt lat="42.85458" lon="17.60034">
        <ele>205</ele>
        <time>2016-07-18T17:34:06Z</time>
      </trkpt>
      <trkpt lat="42.85457" lon="17.60047">
        <ele>206</ele>
        <time>2016-07-18T17:36:06Z</time>
      </trkpt>
      <trkpt lat="42.8546" lon="17.60059">
        <ele>208</ele>
        <time>2016-07-18T17:38:06Z</time>
      </trkpt>
      <trkpt lat="42.85464" lon="17.60071">
        <ele>210</ele>
        <time>2016-07-18T17:40:06Z</time>
      </trkpt>
      <trkpt lat="42.8547" lon="17.6008">
        <ele>212</ele>
        <time>2016-07-18T17:42:06Z</time>
      </trkpt>
      <trkpt lat="42.8548" lon="17.60096">
        <ele>213</ele>
        <time>2016-07-18T17:44:06Z</time>
      </trkpt>
      <trkpt lat="42.85518" lon="17.6015">
        <ele>217</ele>
        <time>2016-07-18T17:46:06Z</time>
      </trkpt>
      <trkpt lat="42.8554" lon="17.60181">
        <ele>220</ele>
        <time>2016-07-18T17:48:06Z</time>
      </trkpt>
      <trkpt lat="42.85567" lon="17.60218">
        <ele>224</ele>
        <time>2016-07-18T17:50:06Z</time>
      </trkpt>
      <trkpt lat="42.85583" lon="17.60242">
        <ele>225</ele>
        <time>2016-07-18T17:52:06Z</time>
      </trkpt>
      <trkpt lat="42.85591" lon="17.60254">
        <ele>225</ele>
        <time>2016-07-18T17:54:06Z</time>
      </trkpt>
      <trkpt lat="42.85598" lon="17.60266">
        <ele>226</ele>
        <time>2016-07-18T17:56:06Z</time>
      </trkpt>
      <trkpt lat="42.85602" lon="17.60276">
        <ele>227</ele>
        <time>2016-07-18T17:58:06Z</time>
      </trkpt>
      <trkpt lat="42.85607" lon="17.60294">
        <ele>227</ele>
        <time>2016-07-18T18:00:06Z</time>
      </trkpt>
      <trkpt lat="42.85609" lon="17.60306">
        <ele>227</ele>
        <time>2016-07-18T18:02:06Z</time>
      </trkpt>
      <trkpt lat="42.8561" lon="17.60324">
        <ele>226</ele>
        <time>2016-07-18T18:04:06Z</time>
      </trkpt>
      <trkpt lat="42.8561" lon="17.60338">
        <ele>226</ele>
        <time>2016-07-18T18:06:06Z</time>
      </trkpt>
      <trkpt lat="42.85609" lon="17.60353">
        <ele>226</ele>
        <time>2016-07-18T18:08:06Z</time>
      </trkpt>
      <trkpt lat="42.85607" lon="17.6037">
        <ele>226</ele>
        <time>2016-07-18T18:10:06Z</time>
      </trkpt>
      <trkpt lat="42.85604" lon="17.60393">
        <ele>226</ele>
        <time>2016-07-18T18:12:06Z</time>
      </trkpt>
      <trkpt lat="42.85603" lon="17.60398">
        <ele>226</ele>
        <time>2016-07-18T18:14:06Z</time>
      </trkpt>
      <trkpt lat="42.856" lon="17.60419">
        <ele>226</ele>
        <time>2016-07-18T18:16:06Z</time>
      </trkpt>
      <trkpt lat="42.85594" lon="17.6046">
        <ele>228</ele>
        <time>2016-07-18T18:18:06Z</time>
      </trkpt>
      <trkpt lat="42.8559" lon="17.60488">
        <ele>230</ele>
        <time>2016-07-18T18:20:06Z</time>
      </trkpt>
      <trkpt lat="42.85579" lon="17.60544">
        <ele>232</ele>
        <time>2016-07-18T18:22:06Z</time>
      </trkpt>
      <trkpt lat="42.85567" lon="17.60599">
        <ele>235</ele>
        <time>2016-07-18T18:24:06Z</time>
      </trkpt>
      <trkpt lat="42.85546" lon="17.60696">
        <ele>237</ele>
        <time>2016-07-18T18:26:06Z</time>
      </trkpt>
      <trkpt lat="42.85542" lon="17.60717">
        <ele>238</ele>
        <time>2016-07-18T18:28:06Z</time>
      </trkpt>
      <trkpt lat="42.85511" lon="17.6086">
        <ele>240</ele>
        <time>2016-07-18T18:30:06Z</time>
      </trkpt>
      <trkpt lat="42.85504" lon="17.6091">
        <ele>240</ele>
        <time>2016-07-18T18:32:06Z</time>
      </trkpt>
      <trkpt lat="42.85501" lon="17.60931">
        <ele>240</ele>
        <time>2016-07-18T18:34:06Z</time>
      </trkpt>
      <trkpt lat="42.855" lon="17.60938">
        <ele>240</ele>
        <time>2016-07-18T18:36:06Z</time>
      </trkpt>
      <trkpt lat="42.85494" lon="17.60984">
        <ele>242</ele>
        <time>2016-07-18T18:38:06Z</time>
      </trkpt>
      <trkpt lat="42.85488" lon="17.61037">
        <ele>247</ele>
        <time>2016-07-18T18:40:06Z</time>
      </trkpt>
      <trkpt lat="42.85483" lon="17.61083">
        <ele>252</ele>
        <time>2016-07-18T18:42:06Z</time>
      </trkpt>
      <trkpt lat="42.85477" lon="17.61145">
        <ele>252</ele>
        <time>2016-07-18T18:44:06Z</time>
      </trkpt>
      <trkpt lat="42.85472" lon="17.61176">
        <ele>251</ele>
        <time>2016-07-18T18:46:06Z</time>
      </trkpt>
      <trkpt lat="42.85451" lon="17.61288">
        <ele>249</ele>
        <time>2016-07-18T18:48:06Z</time>
      </trkpt>
      <trkpt lat="42.85422" lon="17.61442">
        <ele>246</ele>
        <time>2016-07-18T18:50:06Z</time>
      </trkpt>
      <trkpt lat="42.85421" lon="17.61447">
        <ele>246</ele>
        <time>2016-07-18T18:52:06Z</time>
      </trkpt>
      <trkpt lat="42.85414" lon="17.6147">
        <ele>246</ele>
        <time>2016-07-18T18:54:06Z</time>
      </trkpt>
      <trkpt lat="42.85405" lon="17.6149">
        <ele>245</ele>
        <time>2016-07-18T18:56:06Z</time>
      </trkpt>
      <trkpt lat="42.85394" lon="17.61509">
        <ele>246</ele>
        <time>2016-07-18T18:58:06Z</time>
      </trkpt>
      <trkpt lat="42.85385" lon="17.61522">
        <ele>246</ele>
        <time>2016-07-18T19:00:06Z</time>
      </trkpt>
      <trkpt lat="42.85358" lon="17.6155">
        <ele>243</ele>
        <time>2016-07-18T19:02:06Z</time>
      </trkpt>
      <trkpt lat="42.853" lon="17.61605">
        <ele>240</ele>
        <time>2016-07-18T19:04:06Z</time>
      </trkpt>
      <trkpt lat="42.85295" lon="17.61611">
        <ele>240</ele>
        <time>2016-07-18T19:06:06Z</time>
      </trkpt>
      <trkpt lat="42.85231" lon="17.61683">
        <ele>240</ele>
        <time>2016-07-18T19:08:06Z</time>
      </trkpt>
      <trkpt lat="42.85209" lon="17.61709">
        <ele>242</ele>
        <time>2016-07-18T19:10:06Z</time>
      </trkpt>
      <trkpt lat="42.85206" lon="17.61713">
        <ele>243</ele>
        <time>2016-07-18T19:12:06Z</time>
      </trkpt>
      <trkpt lat="42.85188" lon="17.61732">
        <ele>243</ele>
        <time>2016-07-18T19:14:06Z</time>
      </trkpt>
      <trkpt lat="42.85161" lon="17.61761">
        <ele>243</ele>
        <time>2016-07-18T19:16:06Z</time>
      </trkpt>
      <trkpt lat="42.85143" lon="17.61785">
        <ele>243</ele>
        <time>2016-07-18T19:18:06Z</time>
      </trkpt>
      <trkpt lat="42.85141" lon="17.61788">
        <ele>243</ele>
        <time>2016-07-18T19:20:06Z</time>
      </trkpt>
      <trkpt lat="42.85138" lon="17.61792">
        <ele>243</ele>
        <time>2016-07-18T19:22:06Z</time>
      </trkpt>
      <trkpt lat="42.85135" lon="17.61796">
        <ele>243</ele>
        <time>2016-07-18T19:24:06Z</time>
      </trkpt>
      <trkpt lat="42.85124" lon="17.61812">
        <ele>243</ele>
        <time>2016-07-18T19:26:06Z</time>
      </trkpt>
      <trkpt lat="42.85119" lon="17.6182">
        <ele>242</ele>
        <time>2016-07-18T19:28:06Z</time>
      </trkpt>
      <trkpt lat="42.85106" lon="17.61843">
        <ele>241</ele>
        <time>2016-07-18T19:30:06Z</time>
      </trkpt>
      <trkpt lat="42.85093" lon="17.61873">
        <ele>240</ele>
        <time>2016-07-18T19:32:06Z</time>
      </trkpt>
      <trkpt lat="42.85081" lon="17.61901">
        <ele>238</ele>
        <time>2016-07-18T19:34:06Z</time>
      </trkpt>
      <trkpt lat="42.85073" lon="17.61923">
        <ele>237</ele>
        <time>2016-07-18T19:36:06Z</time>
      </trkpt>
      <trkpt lat="42.85068" lon="17.61935">
        <ele>236</ele>
        <time>2016-07-18T19:38:06Z</time>
      </trkpt>
      <trkpt lat="42.8506" lon="17.61952">
        <ele>235</ele>
        <time>2016-07-18T19:40:06Z</time>
      </trkpt>
      <trkpt lat="42.85055" lon="17.61967">
        <ele>234</ele>
        <time>2016-07-18T19:42:06Z</time>
      </trkpt>
      <trkpt lat="42.85051" lon="17.61989">
        <ele>234</ele>
        <time>2016-07-18T19:44:06Z</time>
      </trkpt>
      <trkpt lat="42.85046" lon="17.62016">
        <ele>235</ele>
        <time>2016-07-18T19:46:06Z</time>
      </trkpt>
      <trkpt lat="42.85039" lon="17.62042">
        <ele>234</ele>
        <time>2016-07-18T19:48:06Z</time>
      </trkpt>
      <trkpt lat="42.85036" lon="17.62051">
        <ele>234</ele>
        <time>2016-07-18T19:50:06Z</time>
      </trkpt>
      <trkpt lat="42.85034" lon="17.62055">
        <ele>234</ele>
        <time>2016-07-18T19:52:06Z</time>
      </trkpt>
      <trkpt lat="42.85032" lon="17.62061">
        <ele>234</ele>
        <time>2016-07-18T19:54:06Z</time>
      </trkpt>
      <trkpt lat="42.85026" lon="17.62072">
        <ele>233</ele>
        <time>2016-07-18T19:56:06Z</time>
      </trkpt>
      <trkpt lat="42.85015" lon="17.62087">
        <ele>231</ele>
        <time>2016-07-18T19:58:06Z</time>
      </trkpt>
      <trkpt lat="42.85006" lon="17.62095">
        <ele>230</ele>
        <time>2016-07-18T20:00:06Z</time>
      </trkpt>
      <trkpt lat="42.84987" lon="17.62109">
        <ele>228</ele>
        <time>2016-07-18T20:02:06Z</time>
      </trkpt>
      <trkpt lat="42.84968" lon="17.6212">
        <ele>226</ele>
        <time>2016-07-18T20:04:06Z</time>
      </trkpt>
      <trkpt lat="42.84949" lon="17.6213">
        <ele>223</ele>
        <time>2016-07-18T20:06:06Z</time>
      </trkpt>
      <trkpt lat="42.8493" lon="17.62141">
        <ele>220</ele>
        <time>2016-07-18T20:08:06Z</time>
      </trkpt>
      <trkpt lat="42.84925" lon="17.62144">
        <ele>219</ele>
        <time>2016-07-18T20:10:06Z</time>
      </trkpt>
      <trkpt lat="42.84919" lon="17.62149">
        <ele>218</ele>
        <time>2016-07-18T20:12:06Z</time>
      </trkpt>
      <trkpt lat="42.84912" lon="17.62156">
        <ele>217</ele>
        <time>2016-07-18T20:14:06Z</time>
      </trkpt>
      <trkpt lat="42.84907" lon="17.62161">
        <ele>216</ele>
        <time>2016-07-18T20:16:06Z</time>
      </trkpt>
      <trkpt lat="42.849" lon="17.62172">
        <ele>216</ele>
        <time>2016-07-18T20:18:06Z</time>
      </trkpt>
      <trkpt lat="42.84898" lon="17.62175">
        <ele>215</ele>
        <time>2016-07-18T20:20:06Z</time>
      </trkpt>
      <trkpt lat="42.84895" lon="17.62181">
        <ele>215</ele>
        <time>2016-07-18T20:22:06Z</time>
      </trkpt>
      <trkpt lat="42.84894" lon="17.62184">
        <ele>215</ele>
        <time>2016-07-18T20:24:06Z</time>
      </trkpt>
      <trkpt lat="42.84891" lon="17.6219">
        <ele>215</ele>
        <time>2016-07-18T20:26:06Z</time>
      </trkpt>
      <trkpt lat="42.84884" lon="17.6221">
        <ele>215</ele>
        <time>2016-07-18T20:28:06Z</time>
      </trkpt>
      <trkpt lat="42.84874" lon="17.62236">
        <ele>214</ele>
        <time>2016-07-18T20:30:06Z</time>
      </trkpt>
      <trkpt lat="42.84866" lon="17.62257">
        <ele>213</ele>
        <time>2016-07-18T20:32:06Z</time>
      </trkpt>
      <trkpt lat="42.8486" lon="17.62272">
        <ele>212</ele>
        <time>2016-07-18T20:34:06Z</time>
      </trkpt>
      <trkpt lat="42.84854" lon="17.62287">
        <ele>212</ele>
        <time>2016-07-18T20:36:06Z</time>
      </trkpt>
      <trkpt lat="42.84848" lon="17.62304">
        <ele>211</ele>
        <time>2016-07-18T20:38:06Z</time>
      </trkpt>
      <trkpt lat="42.84843" lon="17.62321">
        <ele>211</ele>
        <time>2016-07-18T20:40:06Z</time>
      </trkpt>
      <trkpt lat="42.84838" lon="17.62342">
        <ele>211</ele>
        <time>2016-07-18T20:42:06Z</time>
      </trkpt>
      <trkpt lat="42.84837" lon="17.6236">
        <ele>211</ele>
        <time>2016-07-18T20:44:06Z</time>
      </trkpt>
      <trkpt lat="42.84836" lon="17.62365">
        <ele>211</ele>
        <time>2016-07-18T20:46:06Z</time>
      </trkpt>
      <trkpt lat="42.84836" lon="17.62376">
        <ele>211</ele>
        <time>2016-07-18T20:48:06Z</time>
      </trkpt>
      <trkpt lat="42.84837" lon="17.62409">
        <ele>212</ele>
        <time>2016-07-18T20:50:06Z</time>
      </trkpt>
      <trkpt lat="42.84837" lon="17.62418">
        <ele>212</ele>
        <time>2016-07-18T20:52:06Z</time>
      </trkpt>
      <trkpt lat="42.84838" lon="17.6243">
        <ele>213</ele>
        <time>2016-07-18T20:54:06Z</time>
      </trkpt>
      <trkpt lat="42.84841" lon="17.62483">
        <ele>214</ele>
        <time>2016-07-18T20:56:06Z</time>
      </trkpt>
      <trkpt lat="42.84842" lon="17.62502">
        <ele>214</ele>
        <time>2016-07-18T20:58:06Z</time>
      </trkpt>
      <trkpt lat="42.84842" lon="17.62513">
        <ele>214</ele>
        <time>2016-07-18T21:00:06Z</time>
      </trkpt>
      <trkpt lat="42.84843" lon="17.62518">
        <ele>214</ele>
        <time>2016-07-18T21:02:06Z</time>
      </trkpt>
      <trkpt lat="42.84843" lon="17.62523">
        <ele>214</ele>
        <time>2016-07-18T21:04:06Z</time>
      </trkpt>
      <trkpt lat="42.84843" lon="17.62531">
        <ele>214</ele>
        <time>2016-07-18T21:06:06Z</time>
      </trkpt>
      <trkpt lat="42.84843" lon="17.62539">
        <ele>214</ele>
        <time>2016-07-18T21:08:06Z</time>
      </trkpt>
      <trkpt lat="42.84843" lon="17.62555">
        <ele>214</ele>
        <time>2016-07-18T21:10:06Z</time>
      </trkpt>
      <trkpt lat="42.8484" lon="17.6259">
        <ele>213</ele>
        <time>2016-07-18T21:12:06Z</time>
      </trkpt>
      <trkpt lat="42.84839" lon="17.62594">
        <ele>212</ele>
        <time>2016-07-18T21:14:06Z</time>
      </trkpt>
      <trkpt lat="42.84837" lon="17.62608">
        <ele>212</ele>
        <time>2016-07-18T21:16:06Z</time>
      </trkpt>
      <trkpt lat="42.84835" lon="17.62619">
        <ele>211</ele>
        <time>2016-07-18T21:18:06Z</time>
      </trkpt>
      <trkpt lat="42.84822" lon="17.62674">
        <ele>208</ele>
        <time>2016-07-18T21:20:06Z</time>
      </trkpt>
      <trkpt lat="42.848" lon="17.62763">
        <ele>207</ele>
        <time>2016-07-18T21:22:06Z</time>
      </trkpt>
      <trkpt lat="42.84789" lon="17.62804">
        <ele>206</ele>
        <time>2016-07-18T21:24:06Z</time>
      </trkpt>
      <trkpt lat="42.84772" lon="17.6286">
        <ele>204</ele>
        <time>2016-07-18T21:26:06Z</time>
      </trkpt>
      <trkpt lat="42.84771" lon="17.62863">
        <ele>204</ele>
        <time>2016-07-18T21:28:06Z</time>
      </trkpt>
      <trkpt lat="42.84763" lon="17.62881">
        <ele>203</ele>
        <time>2016-07-18T21:30:06Z</time>
      </trkpt>
      <trkpt lat="42.84758" lon="17.62892">
        <ele>202</ele>
        <time>2016-07-18T21:32:06Z</time>
      </trkpt>
      <trkpt lat="42.84741" lon="17.62923">
        <ele>202</ele>
        <time>2016-07-18T21:34:06Z</time>
      </trkpt>
      <trkpt lat="42.8472" lon="17.62954">
        <ele>205</ele>
        <time>2016-07-18T21:36:06Z</time>
      </trkpt>
      <trkpt lat="42.84693" lon="17.62985">
        <ele>208</ele>
        <time>2016-07-18T21:38:06Z</time>
      </trkpt>
      <trkpt lat="42.84684" lon="17.62995">
        <ele>209</ele>
        <time>2016-07-18T21:40:06Z</time>
      </trkpt>
      <trkpt lat="42.84661" lon="17.63013">
        <ele>210</ele>
        <time>2016-07-18T21:42:06Z</time>
      </trkpt>
      <trkpt lat="42.84637" lon="17.63029">
        <ele>212</ele>
        <time>2016-07-18T21:44:06Z</time>
      </trkpt>
      <trkpt lat="42.84612" lon="17.63042">
        <ele>213</ele>
        <time>2016-07-18T21:46:06Z</time>
      </trkpt>
      <trkpt lat="42.84609" lon="17.63043">
        <ele>213</ele>
        <time>2016-07-18T21:48:06Z</time>
      </trkpt>
      <trkpt lat="42.84595" lon="17.63049">
        <ele>214</ele>
        <time>2016-07-18T21:50:06Z</time>
      </trkpt>
      <trkpt lat="42.8457" lon="17.63061">
        <ele>215</ele>
        <time>2016-07-18T21:52:06Z</time>
      </trkpt>
      <trkpt lat="42.84551" lon="17.63069">
        <ele>216</ele>
        <time>2016-07-18T21:54:06Z</time>
      </trkpt>
      <trkpt lat="42.84538" lon="17.63074">
        <ele>216</ele>
        <time>2016-07-18T21:56:06Z</time>
      </trkpt>
      <trkpt lat="42.84527" lon="17.63078">
        <ele>216</ele>
        <time>2016-07-18T21:58:06Z</time>
      </trkpt>
      <trkpt lat="42.84509" lon="17.63085">
        <ele>216</ele>
        <time>2016-07-18T22:00:06Z</time>
      </trkpt>
      <trkpt lat="42.84496" lon="17.63091">
        <ele>216</ele>
        <time>2016-07-18T22:02:06Z</time>
      </trkpt>
      <trkpt lat="42.84481" lon="17.63098">
        <ele>216</ele>
        <time>2016-07-18T22:04:06Z</time>
      </trkpt>
      <trkpt lat="42.84458" lon="17.63104">
        <ele>215</ele>
        <time>2016-07-18T22:06:06Z</time>
      </trkpt>
      <trkpt lat="42.84456" lon="17.63104">
        <ele>215</ele>
        <time>2016-07-18T22:08:06Z</time>
      </trkpt>
      <trkpt lat="42.84429" lon="17.63107">
        <ele>214</ele>
        <time>2016-07-18T22:10:06Z</time>
      </trkpt>
      <trkpt lat="42.84406" lon="17.63109">
        <ele>213</ele>
        <time>2016-07-18T22:12:06Z</time>
      </trkpt>
      <trkpt lat="42.84365" lon="17.63109">
        <ele>213</ele>
        <time>2016-07-18T22:14:06Z</time>
      </trkpt>
      <trkpt lat="42.84349" lon="17.63109">
        <ele>213</ele>
        <time>2016-07-18T22:16:06Z</time>
      </trkpt>
      <trkpt lat="42.84324" lon="17.63111">
        <ele>212</ele>
        <time>2016-07-18T22:18:06Z</time>
      </trkpt>
      <trkpt lat="42.84296" lon="17.63117">
        <ele>212</ele>
        <time>2016-07-18T22:20:06Z</time>
      </trkpt>
      <trkpt lat="42.84272" lon="17.63128">
        <ele>212</ele>
        <time>2016-07-18T22:22:06Z</time>
      </trkpt>
      <trkpt lat="42.84248" lon="17.63146">
        <ele>212</ele>
        <time>2016-07-18T22:24:06Z</time>
      </trkpt>
      <trkpt lat="42.84227" lon="17.63163">
        <ele>212</ele>
        <time>2016-07-18T22:26:06Z</time>
      </trkpt>
      <trkpt lat="42.8422" lon="17.63169">
        <ele>212</ele>
        <time>2016-07-18T22:28:06Z</time>
      </trkpt>
      <trkpt lat="42.84207" lon="17.6318">
        <ele>212</ele>
        <time>2016-07-18T22:30:06Z</time>
      </trkpt>
      <trkpt lat="42.842" lon="17.63187">
        <ele>213</ele>
        <time>2016-07-18T22:32:06Z</time>
      </trkpt>
      <trkpt lat="42.84189" lon="17.63198">
        <ele>213</ele>
        <time>2016-07-18T22:34:06Z</time>
      </trkpt>
      <trkpt lat="42.84169" lon="17.63212">
        <ele>213</ele>
        <time>2016-07-18T22:36:06Z</time>
      </trkpt>
      <trkpt lat="42.84151" lon="17.63228">
        <ele>214</ele>
        <time>2016-07-18T22:38:06Z</time>
      </trkpt>
      <trkpt lat="42.8415" lon="17.63229">
        <ele>214</ele>
        <time>2016-07-18T22:40:06Z</time>
      </trkpt>
      <trkpt lat="42.84126" lon="17.63249">
        <ele>213</ele>
        <time>2016-07-18T22:42:06Z</time>
      </trkpt>
      <trkpt lat="42.84105" lon="17.63266">
        <ele>213</ele>
        <time>2016-07-18T22:44:06Z</time>
      </trkpt>
      <trkpt lat="42.84105" lon="17.63267">
        <ele>213</ele>
        <time>2016-07-18T22:46:06Z</time>
      </trkpt>
      <trkpt lat="42.84086" lon="17.63284">
        <ele>213</ele>
        <time>2016-07-18T22:48:06Z</time>
      </trkpt>
      <trkpt lat="42.84071" lon="17.63295">
        <ele>213</ele>
        <time>2016-07-18T22:50:06Z</time>
      </trkpt>
      <trkpt lat="42.84061" lon="17.63302">
        <ele>213</ele>
        <time>2016-07-18T22:52:06Z</time>
      </trkpt>
      <trkpt lat="42.84054" lon="17.63307">
        <ele>213</ele>
        <time>2016-07-18T22:54:06Z</time>
      </trkpt>
      <trkpt lat="42.84047" lon="17.63311">
        <ele>213</ele>
        <time>2016-07-18T22:56:06Z</time>
      </trkpt>
      <trkpt lat="42.84037" lon="17.63317">
        <ele>213</ele>
        <time>2016-07-18T22:58:06Z</time>
      </trkpt>
      <trkpt lat="42.84012" lon="17.63327">
        <ele>212</ele>
        <time>2016-07-18T23:00:06Z</time>
      </trkpt>
      <trkpt lat="42.83995" lon="17.63333">
        <ele>212</ele>
        <time>2016-07-18T23:02:06Z</time>
      </trkpt>
      <trkpt lat="42.83989" lon="17.63335">
        <ele>212</ele>
        <time>2016-07-18T23:04:06Z</time>
      </trkpt>
      <trkpt lat="42.83979" lon="17.63337">
        <ele>211</ele>
        <time>2016-07-18T23:06:06Z</time>
      </trkpt>
      <trkpt lat="42.83879" lon="17.6337">
        <ele>210</ele>
        <time>2016-07-18T23:08:06Z</time>
      </trkpt>
      <trkpt lat="42.83792" lon="17.63398">
        <ele>207</ele>
        <time>2016-07-18T23:10:06Z</time>
      </trkpt>
      <trkpt lat="42.83726" lon="17.63417">
        <ele>203</ele>
        <time>2016-07-18T23:12:06Z</time>
      </trkpt>
      <trkpt lat="42.83715" lon="17.63422">
        <ele>202</ele>
        <time>2016-07-18T23:14:06Z</time>
      </trkpt>
      <trkpt lat="42.83702" lon="17.63432">
        <ele>201</ele>
        <time>2016-07-18T23:16:06Z</time>
      </trkpt>
      <trkpt lat="42.83688" lon="17.63445">
        <ele>200</ele>
        <time>2016-07-18T23:18:06Z</time>
      </trkpt>
      <trkpt lat="42.83672" lon="17.63462">
        <ele>198</ele>
        <time>2016-07-18T23:20:06Z</time>
      </trkpt>
      <trkpt lat="42.83654" lon="17.63483">
        <ele>197</ele>
        <time>2016-07-18T23:22:06Z</time>
      </trkpt>
      <trkpt lat="42.83632" lon="17.63507">
        <ele>195</ele>
        <time>2016-07-18T23:24:06Z</time>
      </trkpt>
      <trkpt lat="42.83625" lon="17.63516">
        <ele>194</ele>
        <time>2016-07-18T23:26:06Z</time>
      </trkpt>
      <trkpt lat="42.83604" lon="17.63543">
        <ele>191</ele>
        <time>2016-07-18T23:28:06Z</time>
      </trkpt>
      <trkpt lat="42.83598" lon="17.63551">
        <ele>190</ele>
        <time>2016-07-18T23:30:06Z</time>
      </trkpt>
      <trkpt lat="42.83594" lon="17.63561">
        <ele>189</ele>
        <time>2016-07-18T23:32:06Z</time>
      </trkpt>
      <trkpt lat="42.83589" lon="17.63575">
        <ele>188</ele>
        <time>2016-07-18T23:34:06Z</time>
      </trkpt>
      <trkpt lat="42.83586" lon="17.63586">
        <ele>187</ele>
        <time>2016-07-18T23:36:06Z</time>
      </trkpt>
      <trkpt lat="42.83582" lon="17.63604">
        <ele>187</ele>
        <time>2016-07-18T23:38:06Z</time>
      </trkpt>
      <trkpt lat="42.83581" lon="17.63627">
        <ele>186</ele>
        <time>2016-07-18T23:40:06Z</time>
      </trkpt>
      <trkpt lat="42.83583" lon="17.63662">
        <ele>186</ele>
        <time>2016-07-18T23:42:06Z</time>
      </trkpt>
      <trkpt lat="42.83585" lon="17.6369">
        <ele>185</ele>
        <time>2016-07-18T23:44:06Z</time>
      </trkpt>
      <trkpt lat="42.83588" lon="17.6371">
        <ele>184</ele>
        <time>2016-07-18T23:46:06Z</time>
      </trkpt>
      <trkpt lat="42.83593" lon="17.6375">
        <ele>183</ele>
        <time>2016-07-18T23:48:06Z</time>
      </trkpt>
      <trkpt lat="42.83594" lon="17.63765">
        <ele>183</ele>
        <time>2016-07-18T23:50:06Z</time>
      </trkpt>
      <trkpt lat="42.83593" lon="17.63777">
        <ele>182</ele>
        <time>2016-07-18T23:52:06Z</time>
      </trkpt>
      <trkpt lat="42.83591" lon="17.63789">
        <ele>182</ele>
        <time>2016-07-18T23:54:06Z</time>
      </trkpt>
      <trkpt lat="42.83587" lon="17.63804">
        <ele>181</ele>
        <time>2016-07-18T23:56:06Z</time>
      </trkpt>
      <trkpt lat="42.83582" lon="17.63816">
        <ele>180</ele>
        <time>2016-07-18T23:58:06Z</time>
      </trkpt>
      <trkpt lat="42.83573" lon="17.63831">
        <ele>178</ele>
        <time>2016-07-19T00:00:06Z</time>
      </trkpt>
      <trkpt lat="42.83561" lon="17.63846">
        <ele>179</ele>
        <time>2016-07-19T00:02:06Z</time>
      </trkpt>
      <trkpt lat="42.83549" lon="17.63854">
        <ele>179</ele>
        <time>2016-07-19T00:04:06Z</time>
      </trkpt>
      <trkpt lat="42.83529" lon="17.63866">
        <ele>178</ele>
        <time>2016-07-19T00:06:06Z</time>
      </trkpt>
      <trkpt lat="42.83505" lon="17.63878">
        <ele>178</ele>
        <time>2016-07-19T00:08:06Z</time>
      </trkpt>
      <trkpt lat="42.83491" lon="17.63884">
        <ele>177</ele>
        <time>2016-07-19T00:10:06Z</time>
      </trkpt>
      <trkpt lat="42.83468" lon="17.63895">
        <ele>175</ele>
        <time>2016-07-19T00:12:06Z</time>
      </trkpt>
      <trkpt lat="42.83452" lon="17.63902">
        <ele>173</ele>
        <time>2016-07-19T00:14:06Z</time>
      </trkpt>
      <trkpt lat="42.83441" lon="17.63911">
        <ele>172</ele>
        <time>2016-07-19T00:16:06Z</time>
      </trkpt>
      <trkpt lat="42.83431" lon="17.63921">
        <ele>170</ele>
        <time>2016-07-19T00:18:06Z</time>
      </trkpt>
      <trkpt lat="42.83424" lon="17.6393">
        <ele>169</ele>
        <time>2016-07-19T00:20:06Z</time>
      </trkpt>
      <trkpt lat="42.83415" lon="17.63946">
        <ele>167</ele>
        <time>2016-07-19T00:22:06Z</time>
      </trkpt>
      <trkpt lat="42.83409" lon="17.6396">
        <ele>168</ele>
        <time>2016-07-19T00:24:06Z</time>
      </trkpt>
      <trkpt lat="42.83407" lon="17.63973">
        <ele>167</ele>
        <time>2016-07-19T00:26:06Z</time>
      </trkpt>
      <trkpt lat="42.83403" lon="17.64001">
        <ele>166</ele>
        <time>2016-07-19T00:28:06Z</time>
      </trkpt>
      <trkpt lat="42.83402" lon="17.64029">
        <ele>165</ele>
        <time>2016-07-19T00:30:06Z</time>
      </trkpt>
      <trkpt lat="42.83401" lon="17.64065">
        <ele>163</ele>
        <time>2016-07-19T00:32:06Z</time>
      </trkpt>
      <trkpt lat="42.83399" lon="17.64082">
        <ele>162</ele>
        <time>2016-07-19T00:34:06Z</time>
      </trkpt>
      <trkpt lat="42.83395" lon="17.64105">
        <ele>163</ele>
        <time>2016-07-19T00:36:06Z</time>
      </trkpt>
      <trkpt lat="42.8339" lon="17.64125">
        <ele>163</ele>
        <time>2016-07-19T00:38:06Z</time>
      </trkpt>
      <trkpt lat="42.83383" lon="17.64139">
        <ele>163</ele>
        <time>2016-07-19T00:40:06Z</time>
      </trkpt>
      <trkpt lat="42.83368" lon="17.64167">
        <ele>161</ele>
        <time>2016-07-19T00:42:06Z</time>
      </trkpt>
      <trkpt lat="42.83351" lon="17.64202">
        <ele>162</ele>
        <time>2016-07-19T00:44:06Z</time>
      </trkpt>
      <trkpt lat="42.83329" lon="17.64244">
        <ele>162</ele>
        <time>2016-07-19T00:46:06Z</time>
      </trkpt>
      <trkpt lat="42.83308" lon="17.64289">
        <ele>165</ele>
        <time>2016-07-19T00:48:06Z</time>
      </trkpt>
      <trkpt lat="42.83278" lon="17.64348">
        <ele>162</ele>
        <time>2016-07-19T00:50:06Z</time>
      </trkpt>
      <trkpt lat="42.83251" lon="17.64404">
        <ele>155</ele>
        <time>2016-07-19T00:52:06Z</time>
      </trkpt>
      <trkpt lat="42.83232" lon="17.64449">
        <ele>157</ele>
        <time>2016-07-19T00:54:06Z</time>
      </trkpt>
      <trkpt lat="42.83213" lon="17.64499">
        <ele>156</ele>
        <time>2016-07-19T00:56:06Z</time>
      </trkpt>
      <trkpt lat="42.8319" lon="17.64567">
        <ele>154</ele>
        <time>2016-07-19T00:58:06Z</time>
      </trkpt>
      <trkpt lat="42.83169" lon="17.64628">
        <ele>147</ele>
        <time>2016-07-19T01:00:06Z</time>
      </trkpt>
      <trkpt lat="42.83151" lon="17.64684">
        <ele>146</ele>
        <time>2016-07-19T01:02:06Z</time>
      </trkpt>
      <trkpt lat="42.83129" lon="17.64748">
        <ele>142</ele>
        <time>2016-07-19T01:04:06Z</time>
      </trkpt>
      <trkpt lat="42.83108" lon="17.64807">
        <ele>140</ele>
        <time>2016-07-19T01:06:06Z</time>
      </trkpt>
      <trkpt lat="42.83083" lon="17.64876">
        <ele>138</ele>
        <time>2016-07-19T01:08:06Z</time>
      </trkpt>
      <trkpt lat="42.83065" lon="17.64928">
        <ele>138</ele>
        <time>2016-07-19T01:10:06Z</time>
      </trkpt>
      <trkpt lat="42.83044" lon="17.64989">
        <ele>135</ele>
        <time>2016-07-19T01:12:06Z</time>
      </trkpt>
      <trkpt lat="42.83026" lon="17.65041">
        <ele>133</ele>
        <time>2016-07-19T01:14:06Z</time>
      </trkpt>
      <trkpt lat="42.83012" lon="17.65081">
        <ele>130</ele>
        <time>2016-07-19T01:16:06Z</time>
      </trkpt>
      <trkpt lat="42.83007" lon="17.65093">
        <ele>129</ele>
        <time>2016-07-19T01:18:06Z</time>
      </trkpt>
      <trkpt lat="42.83002" lon="17.65105">
        <ele>128</ele>
        <time>2016-07-19T01:20:06Z</time>
      </trkpt>
      <trkpt lat="42.8299" lon="17.65127">
        <ele>129</ele>
        <time>2016-07-19T01:22:06Z</time>
      </trkpt>
      <trkpt lat="42.82956" lon="17.65182">
        <ele>131</ele>
        <time>2016-07-19T01:24:06Z</time>
      </trkpt>
      <trkpt lat="42.82945" lon="17.65201">
        <ele>130</ele>
        <time>2016-07-19T01:26:06Z</time>
      </trkpt>
      <trkpt lat="42.82936" lon="17.65216">
        <ele>129</ele>
        <time>2016-07-19T01:28:06Z</time>
      </trkpt>
      <trkpt lat="42.82929" lon="17.65233">
        <ele>127</ele>
        <time>2016-07-19T01:30:06Z</time>
      </trkpt>
      <trkpt lat="42.8292" lon="17.65259">
        <ele>124</ele>
        <time>2016-07-19T01:32:06Z</time>
      </trkpt>
      <trkpt lat="42.82909" lon="17.65295">
        <ele>125</ele>
        <time>2016-07-19T01:34:06Z</time>
      </trkpt>
      <trkpt lat="42.82896" lon="17.6534">
        <ele>127</ele>
        <time>2016-07-19T01:36:06Z</time>
      </trkpt>
      <trkpt lat="42.82886" lon="17.65378">
        <ele>128</ele>
        <time>2016-07-19T01:38:06Z</time>
      </trkpt>
      <trkpt lat="42.82871" lon="17.65438">
        <ele>127</ele>
        <time>2016-07-19T01:40:06Z</time>
      </trkpt>
      <trkpt lat="42.82862" lon="17.65482">
        <ele>127</ele>
        <time>2016-07-19T01:42:06Z</time>
      </trkpt>
      <trkpt lat="42.82854" lon="17.6552">
        <ele>124</ele>
        <time>2016-07-19T01:44:06Z</time>
      </trkpt>
      <trkpt lat="42.82842" lon="17.65558">
        <ele>118</ele>
        <time>2016-07-19T01:46:06Z</time>
      </trkpt>
      <trkpt lat="42.82833" lon="17.65578">
        <ele>115</ele>
        <time>2016-07-19T01:48:06Z</time>
      </trkpt>
      <trkpt lat="42.82828" lon="17.65592">
        <ele>116</ele>
        <time>2016-07-19T01:50:06Z</time>
      </trkpt>
      <trkpt lat="42.82825" lon="17.65601">
        <ele>116</ele>
        <time>2016-07-19T01:52:06Z</time>
      </trkpt>
      <trkpt lat="42.82822" lon="17.65613">
        <ele>117</ele>
        <time>2016-07-19T01:54:06Z</time>
      </trkpt>
      <trkpt lat="42.82819" lon="17.65627">
        <ele>117</ele>
        <time>2016-07-19T01:56:06Z</time>
      </trkpt>
      <trkpt lat="42.82817" lon="17.65641">
        <ele>117</ele>
        <time>2016-07-19T01:58:06Z</time>
      </trkpt>
      <trkpt lat="42.82814" lon="17.65667">
        <ele>117</ele>
        <time>2016-07-19T02:00:06Z</time>
      </trkpt>
      <trkpt lat="42.82811" lon="17.65689">
        <ele>118</ele>
        <time>2016-07-19T02:02:06Z</time>
      </trkpt>
      <trkpt lat="42.8281" lon="17.65699">
        <ele>119</ele>
        <time>2016-07-19T02:04:06Z</time>
      </trkpt>
      <trkpt lat="42.82808" lon="17.65705">
        <ele>119</ele>
        <time>2016-07-19T02:06:06Z</time>
      </trkpt>
      <trkpt lat="42.82804" lon="17.65714">
        <ele>119</ele>
        <time>2016-07-19T02:08:06Z</time>
      </trkpt>
      <trkpt lat="42.82797" lon="17.65725">
        <ele>119</ele>
        <time>2016-07-19T02:10:06Z</time>
      </trkpt>
      <trkpt lat="42.82786" lon="17.65737">
        <ele>118</ele>
        <time>2016-07-19T02:12:06Z</time>
      </trkpt>
      <trkpt lat="42.82759" lon="17.6576">
        <ele>113</ele>
        <time>2016-07-19T02:14:06Z</time>
      </trkpt>
      <trkpt lat="42.82736" lon="17.65782">
        <ele>114</ele>
        <time>2016-07-19T02:16:06Z</time>
      </trkpt>
      <trkpt lat="42.82731" lon="17.6579">
        <ele>114</ele>
        <time>2016-07-19T02:18:06Z</time>
      </trkpt>
      <trkpt lat="42.82725" lon="17.658">
        <ele>115</ele>
        <time>2016-07-19T02:20:06Z</time>
      </trkpt>
      <trkpt lat="42.82721" lon="17.6581">
        <ele>114</ele>
        <time>2016-07-19T02:22:06Z</time>
      </trkpt>
      <trkpt lat="42.82718" lon="17.65823">
        <ele>113</ele>
        <time>2016-07-19T02:24:06Z</time>
      </trkpt>
      <trkpt lat="42.82716" lon="17.65833">
        <ele>113</ele>
        <time>2016-07-19T02:26:06Z</time>
      </trkpt>
      <trkpt lat="42.82714" lon="17.65847">
        <ele>111</ele>
        <time>2016-07-19T02:28:06Z</time>
      </trkpt>
      <trkpt lat="42.82714" lon="17.65876">
        <ele>109</ele>
        <time>2016-07-19T02:30:06Z</time>
      </trkpt>
      <trkpt lat="42.82714" lon="17.65913">
        <ele>105</ele>
        <time>2016-07-19T02:32:06Z</time>
      </trkpt>
      <trkpt lat="42.82713" lon="17.65945">
        <ele>104</ele>
        <time>2016-07-19T02:34:06Z</time>
      </trkpt>
      <trkpt lat="42.82712" lon="17.65959">
        <ele>103</ele>
        <time>2016-07-19T02:36:06Z</time>
      </trkpt>
      <trkpt lat="42.8271" lon="17.65974">
        <ele>103</ele>
        <time>2016-07-19T02:38:06Z</time>
      </trkpt>
      <trkpt lat="42.82708" lon="17.65985">
        <ele>102</ele>
        <time>2016-07-19T02:40:06Z</time>
      </trkpt>
      <trkpt lat="42.82704" lon="17.66001">
        <ele>101</ele>
        <time>2016-07-19T02:42:06Z</time>
      </trkpt>
      <trkpt lat="42.82694" lon="17.6603">
        <ele>102</ele>
        <time>2016-07-19T02:44:06Z</time>
      </trkpt>
      <trkpt lat="42.82676" lon="17.66075">
        <ele>100</ele>
        <time>2016-07-19T02:46:06Z</time>
      </trkpt>
      <trkpt lat="42.8266" lon="17.66112">
        <ele>102</ele>
        <time>2016-07-19T02:48:06Z</time>
      </trkpt>
      <trkpt lat="42.82644" lon="17.66154">
        <ele>105</ele>
        <time>2016-07-19T02:50:06Z</time>
      </trkpt>
      <trkpt lat="42.82636" lon="17.6618">
        <ele>105</ele>
        <time>2016-07-19T02:52:06Z</time>
      </trkpt>
      <trkpt lat="42.82631" lon="17.662">
        <ele>104</ele>
        <time>2016-07-19T02:54:06Z</time>
      </trkpt>
      <trkpt lat="42.82626" lon="17.66231">
        <ele>101</ele>
        <time>2016-07-19T02:56:06Z</time>
      </trkpt>
      <trkpt lat="42.82621" lon="17.66274">
        <ele>98</ele>
        <time>2016-07-19T02:58:06Z</time>
      </trkpt>
      <trkpt lat="42.82615" lon="17.66313">
        <ele>94</ele>
        <time>2016-07-19T03:00:06Z</time>
      </trkpt>
      <trkpt lat="42.82608" lon="17.66355">
        <ele>89</ele>
        <time>2016-07-19T03:02:06Z</time>
      </trkpt>
      <trkpt lat="42.82597" lon="17.66404">
        <ele>84</ele>
        <time>2016-07-19T03:04:06Z</time>
      </trkpt>
      <trkpt lat="42.82584" lon="17.66458">
        <ele>80</ele>
        <time>2016-07-19T03:06:06Z</time>
      </trkpt>
      <trkpt lat="42.8257" lon="17.66518">
        <ele>80</ele>
        <time>2016-07-19T03:08:06Z</time>
      </trkpt>
      <trkpt lat="42.82557" lon="17.66578">
        <ele>78</ele>
        <time>2016-07-19T03:10:06Z</time>
      </trkpt>
      <trkpt lat="42.82547" lon="17.66631">
        <ele>77</ele>
        <time>2016-07-19T03:12:06Z</time>
      </trkpt>
      <trkpt lat="42.8254" lon="17.66692">
        <ele>75</ele>
        <time>2016-07-19T03:14:06Z</time>
      </trkpt>
      <trkpt lat="42.8253" lon="17.66778">
        <ele>75</ele>
        <time>2016-07-19T03:16:06Z</time>
      </trkpt>
      <trkpt lat="42.82525" lon="17.66823">
        <ele>76</ele>
        <time>2016-07-19T03:18:06Z</time>
      </trkpt>
      <trkpt lat="42.82521" lon="17.66839">
        <ele>76</ele>
        <time>2016-07-19T03:20:06Z</time>
      </trkpt>
      <trkpt lat="42.82516" lon="17.66853">
        <ele>77</ele>
        <time>2016-07-19T03:22:06Z</time>
      </trkpt>
      <trkpt lat="42.82513" lon="17.66863">
        <ele>78</ele>
        <time>2016-07-19T03:24:06Z</time>
      </trkpt>
      <trkpt lat="42.82506" lon="17.66878">
        <ele>78</ele>
        <time>2016-07-19T03:26:06Z</time>
      </trkpt>
      <trkpt lat="42.825" lon="17.6689">
        <ele>78</ele>
        <time>2016-07-19T03:28:06Z</time>
      </trkpt>
      <trkpt lat="42.82493" lon="17.669">
        <ele>78</ele>
        <time>2016-07-19T03:30:06Z</time>
      </trkpt>
      <trkpt lat="42.82482" lon="17.66917">
        <ele>78</ele>
        <time>2016-07-19T03:32:06Z</time>
      </trkpt>
      <trkpt lat="42.82471" lon="17.66934">
        <ele>78</ele>
        <time>2016-07-19T03:34:06Z</time>
      </trkpt>
      <trkpt lat="42.82463" lon="17.66947">
        <ele>78</ele>
        <time>2016-07-19T03:36:06Z</time>
      </trkpt>
      <trkpt lat="42.82452" lon="17.66964">
        <ele>77</ele>
        <time>2016-07-19T03:38:06Z</time>
      </trkpt>
      <trkpt lat="42.82441" lon="17.66987">
        <ele>76</ele>
        <time>2016-07-19T03:40:06Z</time>
      </trkpt>
      <trkpt lat="42.82434" lon="17.67006">
        <ele>76</ele>
        <time>2016-07-19T03:42:06Z</time>
      </trkpt>
      <trkpt lat="42.82432" lon="17.67015">
        <ele>76</ele>
        <time>2016-07-19T03:44:06Z</time>
      </trkpt>
      <trkpt lat="42.82431" lon="17.67023">
        <ele>76</ele>
        <time>2016-07-19T03:46:06Z</time>
      </trkpt>
      <trkpt lat="42.8243" lon="17.67031">
        <ele>77</ele>
        <time>2016-07-19T03:48:06Z</time>
      </trkpt>
      <trkpt lat="42.82428" lon="17.67042">
        <ele>77</ele>
        <time>2016-07-19T03:50:06Z</time>
      </trkpt>
      <trkpt lat="42.82428" lon="17.67059">
        <ele>79</ele>
        <time>2016-07-19T03:52:06Z</time>
      </trkpt>
      <trkpt lat="42.8243" lon="17.67077">
        <ele>81</ele>
        <time>2016-07-19T03:54:06Z</time>
      </trkpt>
      <trkpt lat="42.8243" lon="17.67096">
        <ele>83</ele>
        <time>2016-07-19T03:56:06Z</time>
      </trkpt>
      <trkpt lat="42.8243" lon="17.67116">
        <ele>85</ele>
        <time>2016-07-19T03:58:06Z</time>
      </trkpt>
      <trkpt lat="42.82426" lon="17.67128">
        <ele>85</ele>
        <time>2016-07-19T04:00:06Z</time>
      </trkpt>
      <trkpt lat="42.82422" lon="17.67138">
        <ele>84</ele>
        <time>2016-07-19T04:02:06Z</time>
      </trkpt>
      <trkpt lat="42.82417" lon="17.67148">
        <ele>83</ele>
        <time>2016-07-19T04:04:06Z</time>
      </trkpt>
      <trkpt lat="42.82412" lon="17.67158">
        <ele>83</ele>
        <time>2016-07-19T04:06:06Z</time>
      </trkpt>
      <trkpt lat="42.82402" lon="17.67167">
        <ele>83</ele>
        <time>2016-07-19T04:08:06Z</time>
      </trkpt>
      <trkpt lat="42.82391" lon="17.67172">
        <ele>82</ele>
        <time>2016-07-19T04:10:06Z</time>
      </trkpt>
      <trkpt lat="42.82378" lon="17.67177">
        <ele>81</ele>
        <time>2016-07-19T04:12:06Z</time>
      </trkpt>
      <trkpt lat="42.82365" lon="17.6718">
        <ele>80</ele>
        <time>2016-07-19T04:14:06Z</time>
      </trkpt>
      <trkpt lat="42.82355" lon="17.67182">
        <ele>79</ele>
        <time>2016-07-19T04:16:06Z</time>
      </trkpt>
      <trkpt lat="42.82346" lon="17.67186">
        <ele>78</ele>
        <time>2016-07-19T04:18:06Z</time>
      </trkpt>
      <trkpt lat="42.82334" lon="17.67193">
        <ele>78</ele>
        <time>2016-07-19T04:20:06Z</time>
      </trkpt>
      <trkpt lat="42.8232" lon="17.67203">
        <ele>79</ele>
        <time>2016-07-19T04:22:06Z</time>
      </trkpt>
      <trkpt lat="42.82313" lon="17.67211">
        <ele>81</ele>
        <time>2016-07-19T04:24:06Z</time>
      </trkpt>
      <trkpt lat="42.82302" lon="17.67223">
        <ele>83</ele>
        <time>2016-07-19T04:26:06Z</time>
      </trkpt>
      <trkpt lat="42.82291" lon="17.67235">
        <ele>84</ele>
        <time>2016-07-19T04:28:06Z</time>
      </trkpt>
      <trkpt lat="42.8228" lon="17.67245">
        <ele>85</ele>
        <time>2016-07-19T04:30:06Z</time>
      </trkpt>
      <trkpt lat="42.82268" lon="17.67254">
        <ele>86</ele>
        <time>2016-07-19T04:32:06Z</time>
      </trkpt>
      <trkpt lat="42.82257" lon="17.67257">
        <ele>86</ele>
        <time>2016-07-19T04:34:06Z</time>
      </trkpt>
      <trkpt lat="42.82243" lon="17.67261">
        <ele>86</ele>
        <time>2016-07-19T04:36:06Z</time>
      </trkpt>
      <trkpt lat="42.82229" lon="17.67264">
        <ele>86</ele>
        <time>2016-07-19T04:38:06Z</time>
      </trkpt>
      <trkpt lat="42.82212" lon="17.67268">
        <ele>87</ele>
        <time>2016-07-19T04:40:06Z</time>
      </trkpt>
      <trkpt lat="42.82197" lon="17.6727">
        <ele>87</ele>
        <time>2016-07-19T04:42:06Z</time>
      </trkpt>
      <trkpt lat="42.82186" lon="17.67273">
        <ele>88</ele>
        <time>2016-07-19T04:44:06Z</time>
      </trkpt>
      <trkpt lat="42.82174" lon="17.67274">
        <ele>87</ele>
        <time>2016-07-19T04:46:06Z</time>
      </trkpt>
      <trkpt lat="42.82161" lon="17.6728">
        <ele>88</ele>
        <time>2016-07-19T04:48:06Z</time>
      </trkpt>
      <trkpt lat="42.82152" lon="17.67283">
        <ele>87</ele>
        <time>2016-07-19T04:50:06Z</time>
      </trkpt>
      <trkpt lat="42.8214" lon="17.67291">
        <ele>87</ele>
        <time>2016-07-19T04:52:06Z</time>
      </trkpt>
      <trkpt lat="42.82126" lon="17.67299">
        <ele>86</ele>
        <time>2016-07-19T04:54:06Z</time>
      </trkpt>
      <trkpt lat="42.82105" lon="17.67321">
        <ele>86</ele>
        <time>2016-07-19T04:56:06Z</time>
      </trkpt>
      <trkpt lat="42.82092" lon="17.67338">
        <ele>85</ele>
        <time>2016-07-19T04:58:06Z</time>
      </trkpt>
      <trkpt lat="42.82081" lon="17.67357">
        <ele>86</ele>
        <time>2016-07-19T05:00:06Z</time>
      </trkpt>
      <trkpt lat="42.82059" lon="17.67396">
        <ele>82</ele>
        <time>2016-07-19T05:02:06Z</time>
      </trkpt>
      <trkpt lat="42.82031" lon="17.67452">
        <ele>78</ele>
        <time>2016-07-19T05:04:06Z</time>
      </trkpt>
      <trkpt lat="42.82017" lon="17.67482">
        <ele>77</ele>
        <time>2016-07-19T05:06:06Z</time>
      </trkpt>
      <trkpt lat="42.82005" lon="17.67505">
        <ele>76</ele>
        <time>2016-07-19T05:08:06Z</time>
      </trkpt>
      <trkpt lat="42.81976" lon="17.67564">
        <ele>72</ele>
        <time>2016-07-19T05:10:06Z</time>
      </trkpt>
      <trkpt lat="42.81971" lon="17.6757">
        <ele>71</ele>
        <time>2016-07-19T05:12:06Z</time>
      </trkpt>
      <trkpt lat="42.81964" lon="17.67594">
        <ele>71</ele>
        <time>2016-07-19T05:14:06Z</time>
      </trkpt>
      <trkpt lat="42.81956" lon="17.67616">
        <ele>71</ele>
        <time>2016-07-19T05:16:06Z</time>
      </trkpt>
      <trkpt lat="42.81954" lon="17.67624">
        <ele>71</ele>
        <time>2016-07-19T05:18:06Z</time>
      </trkpt>
      <trkpt lat="42.81951" lon="17.67634">
        <ele>71</ele>
        <time>2016-07-19T05:20:06Z</time>
      </trkpt>
      <trkpt lat="42.81947" lon="17.67657">
        <ele>73</ele>
        <time>2016-07-19T05:22:06Z</time>
      </trkpt>
      <trkpt lat="42.81945" lon="17.67677">
        <ele>74</ele>
        <time>2016-07-19T05:24:06Z</time>
      </trkpt>
      <trkpt lat="42.8195" lon="17.67707">
        <ele>74</ele>
        <time>2016-07-19T05:26:06Z</time>
      </trkpt>
      <trkpt lat="42.81955" lon="17.67724">
        <ele>74</ele>
        <time>2016-07-19T05:28:06Z</time>
      </trkpt>
      <trkpt lat="42.81964" lon="17.67743">
        <ele>74</ele>
        <time>2016-07-19T05:30:06Z</time>
      </trkpt>
      <trkpt lat="42.8198" lon="17.67766">
        <ele>74</ele>
        <time>2016-07-19T05:32:06Z</time>
      </trkpt>
      <trkpt lat="42.81987" lon="17.67774">
        <ele>74</ele>
        <time>2016-07-19T05:34:06Z</time>
      </trkpt>
      <trkpt lat="42.81988" lon="17.67774">
        <ele>74</ele>
        <time>2016-07-19T05:36:06Z</time>
      </trkpt>
      <trkpt lat="42.8199" lon="17.67777">
        <ele>74</ele>
        <time>2016-07-19T05:38:06Z</time>
      </trkpt>
      <trkpt lat="42.8201" lon="17.67805">
        <ele>73</ele>
        <time>2016-07-19T05:40:06Z</time>
      </trkpt>
      <trkpt lat="42.82025" lon="17.67825">
        <ele>72</ele>
        <time>2016-07-19T05:42:06Z</time>
      </trkpt>
      <trkpt lat="42.82038" lon="17.67838">
        <ele>72</ele>
        <time>2016-07-19T05:44:06Z</time>
      </trkpt>
      <trkpt lat="42.82052" lon="17.67847">
        <ele>72</ele>
        <time>2016-07-19T05:46:06Z</time>
      </trkpt>
      <trkpt lat="42.82064" lon="17.67853">
        <ele>72</ele>
        <time>2016-07-19T05:48:06Z</time>
      </trkpt>
      <trkpt lat="42.82074" lon="17.67856">
        <ele>73</ele>
        <time>2016-07-19T05:50:06Z</time>
      </trkpt>
      <trkpt lat="42.82079" lon="17.67857">
        <ele>73</ele>
        <time>2016-07-19T05:52:06Z</time>
      </trkpt>
      <trkpt lat="42.82086" lon="17.67858">
        <ele>73</ele>
        <time>2016-07-19T05:54:06Z</time>
      </trkpt>
      <trkpt lat="42.82096" lon="17.67858">
        <ele>73</ele>
        <time>2016-07-19T05:56:06Z</time>
      </trkpt>
      <trkpt lat="42.82108" lon="17.67854">
        <ele>73</ele>
        <time>2016-07-19T05:58:06Z</time>
      </trkpt>
      <trkpt lat="42.8212" lon="17.67849">
        <ele>72</ele>
        <time>2016-07-19T06:00:06Z</time>
      </trkpt>
      <trkpt lat="42.82131" lon="17.67843">
        <ele>72</ele>
        <time>2016-07-19T06:02:06Z</time>
      </trkpt>
      <trkpt lat="42.82142" lon="17.67836">
        <ele>72</ele>
        <time>2016-07-19T06:04:06Z</time>
      </trkpt>
      <trkpt lat="42.82152" lon="17.67828">
        <ele>72</ele>
        <time>2016-07-19T06:06:06Z</time>
      </trkpt>
      <trkpt lat="42.82162" lon="17.67823">
        <ele>72</ele>
        <time>2016-07-19T06:08:06Z</time>
      </trkpt>
      <trkpt lat="42.8217" lon="17.67822">
        <ele>72</ele>
        <time>2016-07-19T06:10:06Z</time>
      </trkpt>
      <trkpt lat="42.82178" lon="17.67823">
        <ele>72</ele>
        <time>2016-07-19T06:12:06Z</time>
      </trkpt>
      <trkpt lat="42.82182" lon="17.67824">
        <ele>72</ele>
        <time>2016-07-19T06:14:06Z</time>
      </trkpt>
      <trkpt lat="42.82187" lon="17.67826">
        <ele>72</ele>
        <time>2016-07-19T06:16:06Z</time>
      </trkpt>
      <trkpt lat="42.82194" lon="17.67829">
        <ele>72</ele>
        <time>2016-07-19T06:18:06Z</time>
      </trkpt>
      <trkpt lat="42.82203" lon="17.67836">
        <ele>71</ele>
        <time>2016-07-19T06:20:06Z</time>
      </trkpt>
      <trkpt lat="42.8221" lon="17.67843">
        <ele>71</ele>
        <time>2016-07-19T06:22:06Z</time>
      </trkpt>
      <trkpt lat="42.82218" lon="17.67856">
        <ele>70</ele>
        <time>2016-07-19T06:24:06Z</time>
      </trkpt>
      <trkpt lat="42.82226" lon="17.67868">
        <ele>68</ele>
        <time>2016-07-19T06:26:06Z</time>
      </trkpt>
      <trkpt lat="42.82239" lon="17.6789">
        <ele>66</ele>
        <time>2016-07-19T06:28:06Z</time>
      </trkpt>
      <trkpt lat="42.82262" lon="17.67927">
        <ele>62</ele>
        <time>2016-07-19T06:30:06Z</time>
      </trkpt>
      <trkpt lat="42.82267" lon="17.67935">
        <ele>62</ele>
        <time>2016-07-19T06:32:06Z</time>
      </trkpt>
      <trkpt lat="42.82275" lon="17.67948">
        <ele>61</ele>
        <time>2016-07-19T06:34:06Z</time>
      </trkpt>
      <trkpt lat="42.82325" lon="17.6803">
        <ele>56</ele>
        <time>2016-07-19T06:36:06Z</time>
      </trkpt>
      <trkpt lat="42.82329" lon="17.68036">
        <ele>56</ele>
        <time>2016-07-19T06:38:06Z</time>
      </trkpt>
      <trkpt lat="42.82345" lon="17.68061">
        <ele>55</ele>
        <time>2016-07-19T06:40:06Z</time>
      </trkpt>
      <trkpt lat="42.82356" lon="17.68078">
        <ele>54</ele>
        <time>2016-07-19T06:42:06Z</time>
      </trkpt>
      <trkpt lat="42.82364" lon="17.68085">
        <ele>53</ele>
        <time>2016-07-19T06:44:06Z</time>
      </trkpt>
      <trkpt lat="42.8237" lon="17.68092">
        <ele>53</ele>
        <time>2016-07-19T06:46:06Z</time>
      </trkpt>
      <trkpt lat="42.82425" lon="17.68145">
        <ele>48</ele>
        <time>2016-07-19T06:48:06Z</time>
      </trkpt>
      <trkpt lat="42.82451" lon="17.68171">
        <ele>46</ele>
        <time>2016-07-19T06:50:06Z</time>
      </trkpt>
      <trkpt lat="42.82473" lon="17.68193">
        <ele>43</ele>
        <time>2016-07-19T06:52:06Z</time>
      </trkpt>
      <trkpt lat="42.82482" lon="17.68201">
        <ele>42</ele>
        <time>2016-07-19T06:54:06Z</time>
      </trkpt>
      <trkpt lat="42.8249" lon="17.68208">
        <ele>41</ele>
        <time>2016-07-19T06:56:06Z</time>
      </trkpt>
      <trkpt lat="42.82499" lon="17.68213">
        <ele>41</ele>
        <time>2016-07-19T06:58:06Z</time>
      </trkpt>
      <trkpt lat="42.82507" lon="17.68215">
        <ele>41</ele>
        <time>2016-07-19T07:00:06Z</time>
      </trkpt>
      <trkpt lat="42.82515" lon="17.68214">
        <ele>41</ele>
        <time>2016-07-19T07:02:06Z</time>
      </trkpt>
      <trkpt lat="42.82528" lon="17.68211">
        <ele>41</ele>
        <time>2016-07-19T07:04:06Z</time>
      </trkpt>
      <trkpt lat="42.82545" lon="17.68207">
        <ele>42</ele>
        <time>2016-07-19T07:06:06Z</time>
      </trkpt>
      <trkpt lat="42.82552" lon="17.68207">
        <ele>42</ele>
        <time>2016-07-19T07:08:06Z</time>
      </trkpt>
      <trkpt lat="42.82559" lon="17.6821">
        <ele>42</ele>
        <time>2016-07-19T07:10:06Z</time>
      </trkpt>
      <trkpt lat="42.82567" lon="17.68215">
        <ele>41</ele>
        <time>2016-07-19T07:12:06Z</time>
      </trkpt>
      <trkpt lat="42.82589" lon="17.68234">
        <ele>37</ele>
        <time>2016-07-19T07:14:06Z</time>
      </trkpt>
      <trkpt lat="42.82604" lon="17.68247">
        <ele>34</ele>
        <time>2016-07-19T07:16:06Z</time>
      </trkpt>
      <trkpt lat="42.82614" lon="17.68253">
        <ele>32</ele>
        <time>2016-07-19T07:18:06Z</time>
      </trkpt>
      <trkpt lat="42.82621" lon="17.68257">
        <ele>32</ele>
        <time>2016-07-19T07:20:06Z</time>
      </trkpt>
      <trkpt lat="42.82633" lon="17.68262">
        <ele>31</ele>
        <time>2016-07-19T07:22:06Z</time>
      </trkpt>
      <trkpt lat="42.82653" lon="17.68266">
        <ele>30</ele>
        <time>2016-07-19T07:24:06Z</time>
      </trkpt>
      <trkpt lat="42.82682" lon="17.68271">
        <ele>27</ele>
        <time>2016-07-19T07:26:06Z</time>
      </trkpt>
      <trkpt lat="42.82702" lon="17.68274">
        <ele>25</ele>
        <time>2016-07-19T07:28:06Z</time>
      </trkpt>
      <trkpt lat="42.82713" lon="17.68274">
        <ele>25</ele>
        <time>2016-07-19T07:30:06Z</time>
      </trkpt>
      <trkpt lat="42.82723" lon="17.68273">
        <ele>24</ele>
        <time>2016-07-19T07:32:06Z</time>
      </trkpt>
      <trkpt lat="42.82734" lon="17.6827">
        <ele>23</ele>
        <time>2016-07-19T07:34:06Z</time>
      </trkpt>
      <trkpt lat="42.82747" lon="17.68264">
        <ele>23</ele>
        <time>2016-07-19T07:36:06Z</time>
      </trkpt>
      <trkpt lat="42.82779" lon="17.68251">
        <ele>20</ele>
        <time>2016-07-19T07:38:06Z</time>
      </trkpt>
      <trkpt lat="42.82804" lon="17.68241">
        <ele>18</ele>
        <time>2016-07-19T07:40:06Z</time>
      </trkpt>
      <trkpt lat="42.82815" lon="17.68239">
        <ele>17</ele>
        <time>2016-07-19T07:42:06Z</time>
      </trkpt>
      <trkpt lat="42.82822" lon="17.68239">
        <ele>16</ele>
        <time>2016-07-19T07:44:06Z</time>
      </trkpt>
      <trkpt lat="42.82833" lon="17.68241">
        <ele>14</ele>
        <time>2016-07-19T07:46:06Z</time>
      </trkpt>
      <trkpt lat="42.82844" lon="17.68244">
        <ele>13</ele>
        <time>2016-07-19T07:48:06Z</time>
      </trkpt>
      <trkpt lat="42.82854" lon="17.68248">
        <ele>12</ele>
        <time>2016-07-19T07:50:06Z</time>
      </trkpt>
      <trkpt lat="42.82864" lon="17.68254">
        <ele>12</ele>
        <time>2016-07-19T07:52:06Z</time>
      </trkpt>
      <trkpt lat="42.82874" lon="17.6826">
        <ele>11</ele>
        <time>2016-07-19T07:54:06Z</time>
      </trkpt>
      <trkpt lat="42.82883" lon="17.68268">
        <ele>11</ele>
        <time>2016-07-19T07:56:06Z</time>
      </trkpt>
      <trkpt lat="42.82892" lon="17.68276">
        <ele>11</ele>
        <time>2016-07-19T07:58:06Z</time>
      </trkpt>
      <trkpt lat="42.82892" lon="17.68277">
        <ele>11</ele>
        <time>2016-07-19T08:00:06Z</time>
      </trkpt>
      <trkpt lat="42.8291" lon="17.68297">
        <ele>10</ele>
        <time>2016-07-19T08:02:06Z</time>
      </trkpt>
      <trkpt lat="42.82932" lon="17.68319">
        <ele>9</ele>
        <time>2016-07-19T08:04:06Z</time>
      </trkpt>
      <trkpt lat="42.82947" lon="17.68334">
        <ele>9</ele>
        <time>2016-07-19T08:06:06Z</time>
      </trkpt>
      <trkpt lat="42.82997" lon="17.68385">
        <ele>13</ele>
        <time>2016-07-19T08:08:06Z</time>
      </trkpt>
      <trkpt lat="42.83015" lon="17.68404">
        <ele>13</ele>
        <time>2016-07-19T08:10:06Z</time>
      </trkpt>
      <trkpt lat="42.83041" lon="17.68435">
        <ele>11</ele>
        <time>2016-07-19T08:12:06Z</time>
      </trkpt>
      <trkpt lat="42.83047" lon="17.68442">
        <ele>10</ele>
        <time>2016-07-19T08:14:06Z</time>
      </trkpt>
      <trkpt lat="42.83051" lon="17.68449">
        <ele>9</ele>
        <time>2016-07-19T08:16:06Z</time>
      </trkpt>
      <trkpt lat="42.83052" lon="17.68453">
        <ele>9</ele>
        <time>2016-07-19T08:18:06Z</time>
      </trkpt>
      <trkpt lat="42.83055" lon="17.68462">
        <ele>8</ele>
        <time>2016-07-19T08:20:06Z</time>
      </trkpt>
      <trkpt lat="42.83055" lon="17.68463">
        <ele>8</ele>
        <time>2016-07-19T08:22:06Z</time>
      </trkpt>
      <trkpt lat="42.83058" lon="17.68474">
        <ele>8</ele>
        <time>2016-07-19T08:24:06Z</time>
      </trkpt>
      <trkpt lat="42.83059" lon="17.68487">
        <ele>8</ele>
        <time>2016-07-19T08:26:06Z</time>
      </trkpt>
      <trkpt lat="42.83059" lon="17.68497">
        <ele>7</ele>
        <time>2016-07-19T08:28:06Z</time>
      </trkpt>
      <trkpt lat="42.83058" lon="17.68503">
        <ele>12</ele>
        <time>2016-07-19T08:30:06Z</time>
      </trkpt>
      <trkpt lat="42.83056" lon="17.68511">
        <ele>12</ele>
        <time>2016-07-19T08:32:06Z</time>
      </trkpt>
      <trkpt lat="42.8305" lon="17.6853">
        <ele>12</ele>
        <time>2016-07-19T08:34:06Z</time>
      </trkpt>
      <trkpt lat="42.83045" lon="17.68542">
        <ele>12</ele>
        <time>2016-07-19T08:36:06Z</time>
      </trkpt>
      <trkpt lat="42.83033" lon="17.68566">
        <ele>12</ele>
        <time>2016-07-19T08:38:06Z</time>
      </trkpt>
      <trkpt lat="42.83018" lon="17.6859">
        <ele>8</ele>
        <time>2016-07-19T08:40:06Z</time>
      </trkpt>
      <trkpt lat="42.83004" lon="17.68611">
        <ele>8</ele>
        <time>2016-07-19T08:42:06Z</time>
      </trkpt>
      <trkpt lat="42.82981" lon="17.68643">
        <ele>10</ele>
        <time>2016-07-19T08:44:06Z</time>
      </trkpt>
      <trkpt lat="42.82975" lon="17.68653">
        <ele>10</ele>
        <time>2016-07-19T08:46:06Z</time>
      </trkpt>
      <trkpt lat="42.82971" lon="17.68659">
        <ele>10</ele>
        <time>2016-07-19T08:48:06Z</time>
      </trkpt>
      <trkpt lat="42.82969" lon="17.68665">
        <ele>9</ele>
        <time>2016-07-19T08:50:06Z</time>
      </trkpt>
      <trkpt lat="42.82968" lon="17.68669">
        <ele>9</ele>
        <time>2016-07-19T08:52:06Z</time>
      </trkpt>
      <trkpt lat="42.82967" lon="17.68671">
        <ele>9</ele>
        <time>2016-07-19T08:54:06Z</time>
      </trkpt>
      <trkpt lat="42.82965" lon="17.6868">
        <ele>9</ele>
        <time>2016-07-19T08:56:06Z</time>
      </trkpt>
      <trkpt lat="42.82964" lon="17.68693">
        <ele>9</ele>
        <time>2016-07-19T08:58:06Z</time>
      </trkpt>
      <trkpt lat="42.82965" lon="17.68703">
        <ele>9</ele>
        <time>2016-07-19T09:00:06Z</time>
      </trkpt>
      <trkpt lat="42.82965" lon="17.6871">
        <ele>9</ele>
        <time>2016-07-19T09:02:06Z</time>
      </trkpt>
      <trkpt lat="42.82967" lon="17.68724">
        <ele>9</ele>
        <time>2016-07-19T09:04:06Z</time>
      </trkpt>
      <trkpt lat="42.82971" lon="17.68737">
        <ele>9</ele>
        <time>2016-07-19T09:06:06Z</time>
      </trkpt>
      <trkpt lat="42.82978" lon="17.68751">
        <ele>9</ele>
        <time>2016-07-19T09:08:06Z</time>
      </trkpt>
      <trkpt lat="42.82984" lon="17.68759">
        <ele>9</ele>
        <time>2016-07-19T09:10:06Z</time>
      </trkpt>
      <trkpt lat="42.82997" lon="17.68771">
        <ele>9</ele>
        <time>2016-07-19T09:12:06Z</time>
      </trkpt>
      <trkpt lat="42.82998" lon="17.68772">
        <ele>9</ele>
        <time>2016-07-19T09:14:06Z</time>
      </trkpt>
      <trkpt lat="42.83002" lon="17.68775">
        <time>2016-07-19T09:16:06Z</time>
      </trkpt>
      <trkpt lat="42.83003" lon="17.68776">
        <time>2016-07-19T09:18:06Z</time>
      </trkpt>
      <trkpt lat="42.83041" lon="17.68796">
        <time>2016-07-19T09:20:06Z</time>
      </trkpt>
      <trkpt lat="42.83077" lon="17.68819">
        <time>2016-07-19T09:22:06Z</time>
      </trkpt>
      <trkpt lat="42.83099" lon="17.68831">
        <time>2016-07-19T09:24:06Z</time>
      </trkpt>
      <trkpt lat="42.83117" lon="17.68839">
        <time>2016-07-19T09:26:06Z</time>
      </trkpt>
      <trkpt lat="42.83144" lon="17.68847">
        <time>2016-07-19T09:28:06Z</time>
      </trkpt>
      <trkpt lat="42.83168" lon="17.68855">
        <time>2016-07-19T09:30:06Z</time>
      </trkpt>
      <trkpt lat="42.83191" lon="17.68859">
        <time>2016-07-19T09:32:06Z</time>
      </trkpt>
      <trkpt lat="42.83209" lon="17.68866">
        <time>2016-07-19T09:34:06Z</time>
      </trkpt>
      <trkpt lat="42.8322" lon="17.68872">
        <time>2016-07-19T09:36:06Z</time>
      </trkpt>
      <trkpt lat="42.83235" lon="17.68885">
        <time>2016-07-19T09:38:06Z</time>
      </trkpt>
      <trkpt lat="42.8325" lon="17.68898">
        <time>2016-07-19T09:40:06Z</time>
      </trkpt>
      <trkpt lat="42.83262" lon="17.68908">
        <time>2016-07-19T09:42:06Z</time>
      </trkpt>
      <trkpt lat="42.83272" lon="17.68919">
        <time>2016-07-19T09:44:06Z</time>
      </trkpt>
      <trkpt lat="42.83281" lon="17.68928">
        <time>2016-07-19T09:46:06Z</time>
      </trkpt>
      <trkpt lat="42.83292" lon="17.68943">
        <time>2016-07-19T09:48:06Z</time>
      </trkpt>
      <trkpt lat="42.83306" lon="17.68964">
        <time>2016-07-19T09:50:06Z</time>
      </trkpt>
      <trkpt lat="42.83322" lon="17.68984">
        <time>2016-07-19T09:52:06Z</time>
      </trkpt>
      <trkpt lat="42.83331" lon="17.68995">
        <time>2016-07-19T09:54:06Z</time>
      </trkpt>
      <trkpt lat="42.83336" lon="17.69002">
        <time>2016-07-19T09:56:06Z</time>
      </trkpt>
      <trkpt lat="42.83377" lon="17.69036">
        <time>2016-07-19T09:58:06Z</time>
      </trkpt>
      <trkpt lat="42.83427" lon="17.69081">
        <time>2016-07-19T10:00:06Z</time>
      </trkpt>
      <trkpt lat="42.83432" lon="17.69086">
        <ele>1</ele>
        <time>2016-07-19T10:02:06Z</time>
      </trkpt>
      <trkpt lat="42.83439" lon="17.69091">
        <ele>1</ele>
        <time>2016-07-19T10:04:06Z</time>
      </trkpt>
      <trkpt lat="42.83447" lon="17.69098">
        <ele>1</ele>
        <time>2016-07-19T10:06:06Z</time>
      </trkpt>
      <trkpt lat="42.83464" lon="17.69114">
        <ele>1</ele>
        <time>2016-07-19T10:08:06Z</time>
      </trkpt>
      <trkpt lat="42.83491" lon="17.69135">
        <ele>1</ele>
        <time>2016-07-19T10:10:06Z</time>
      </trkpt>
      <trkpt lat="42.83505" lon="17.69149">
        <ele>1</ele>
        <time>2016-07-19T10:12:06Z</time>
      </trkpt>
      <trkpt lat="42.83513" lon="17.69158">
        <ele>1</ele>
        <time>2016-07-19T10:14:06Z</time>
      </trkpt>
      <trkpt lat="42.83522" lon="17.6917">
        <ele>1</ele>
        <time>2016-07-19T10:16:06Z</time>
      </trkpt>
      <trkpt lat="42.83535" lon="17.69194">
        <ele>1</ele>
        <time>2016-07-19T10:18:06Z</time>
      </trkpt>
      <trkpt lat="42.83561" lon="17.69239">
        <ele>1</ele>
        <time>2016-07-19T10:20:06Z</time>
      </trkpt>
      <trkpt lat="42.83587" lon="17.69285">
        <ele>1</ele>
        <time>2016-07-19T10:22:06Z</time>
      </trkpt>
      <trkpt lat="42.83625" lon="17.69355">
        <ele>1</ele>
        <time>2016-07-19T10:24:06Z</time>
      </trkpt>
      <trkpt lat="42.83691" lon="17.69472">
        <ele>1</ele>
        <time>2016-07-19T10:26:06Z</time>
      </trkpt>
      <trkpt lat="42.83705" lon="17.69498">
        <ele>1</ele>
        <time>2016-07-19T10:28:06Z</time>
      </trkpt>
      <trkpt lat="42.83719" lon="17.69526">
        <ele>1</ele>
        <time>2016-07-19T10:30:06Z</time>
      </trkpt>
      <trkpt lat="42.83719" lon="17.6953">
        <ele>1</ele>
        <time>2016-07-19T10:32:06Z</time>
      </trkpt>
      <trkpt lat="42.8372" lon="17.69535">
        <ele>1</ele>
        <time>2016-07-19T10:34:06Z</time>
      </trkpt>
      <trkpt lat="42.8372" lon="17.69539">
        <ele>1</ele>
        <time>2016-07-19T10:36:06Z</time>
      </trkpt>
      <trkpt lat="42.83719" lon="17.69543">
        <ele>1</ele>
        <time>2016-07-19T10:38:06Z</time>
      </trkpt>
      <trkpt lat="42.83719" lon="17.69548">
        <ele>1</ele>
        <time>2016-07-19T10:40:06Z</time>
      </trkpt>
      <trkpt lat="42.83718" lon="17.69552">
        <ele>1</ele>
        <time>2016-07-19T10:42:06Z</time>
      </trkpt>
      <trkpt lat="42.83717" lon="17.69556">
        <ele>1</ele>
        <time>2016-07-19T10:44:06Z</time>
      </trkpt>
      <trkpt lat="42.83715" lon="17.6956">
        <ele>1</ele>
        <time>2016-07-19T10:46:06Z</time>
      </trkpt>
      <trkpt lat="42.83714" lon="17.69563">
        <ele>1</ele>
        <time>2016-07-19T10:48:06Z</time>
      </trkpt>
      <trkpt lat="42.83712" lon="17.69567">
        <ele>1</ele>
        <time>2016-07-19T10:50:06Z</time>
      </trkpt>
      <trkpt lat="42.8371" lon="17.6957">
        <ele>1</ele>
        <time>2016-07-19T10:52:06Z</time>
      </trkpt>
      <trkpt lat="42.83708" lon="17.69572">
        <ele>1</ele>
        <time>2016-07-19T10:54:06Z</time>
      </trkpt>
      <trkpt lat="42.83706" lon="17.69575">
        <ele>1</ele>
        <time>2016-07-19T10:56:06Z</time>
      </trkpt>
      <trkpt lat="42.83705" lon="17.69576">
        <ele>1</ele>
        <time>2016-07-19T10:58:06Z</time>
      </trkpt>
      <trkpt lat="42.83701" lon="17.69581">
        <ele>1</ele>
        <time>2016-07-19T11:00:06Z</time>
      </trkpt>
      <trkpt lat="42.83696" lon="17.69587">
        <ele>1</ele>
        <time>2016-07-19T11:02:06Z</time>
      </trkpt>
      <trkpt lat="42.83691" lon="17.69593">
        <ele>1</ele>
        <time>2016-07-19T11:04:06Z</time>
      </trkpt>
      <trkpt lat="42.83687" lon="17.69599">
        <ele>1</ele>
        <time>2016-07-19T11:06:06Z</time>
      </trkpt>
      <trkpt lat="42.83682" lon="17.69605">
        <time>2016-07-19T11:08:06Z</time>
      </trkpt>
      <trkpt lat="42.83676" lon="17.69611">
        <time>2016-07-19T11:10:06Z</time>
      </trkpt>
      <trkpt lat="42.83671" lon="17.69617">
        <time>2016-07-19T11:12:06Z</time>
      </trkpt>
      <trkpt lat="42.83666" lon="17.69622">
        <time>2016-07-19T11:14:06Z</time>
      </trkpt>
      <trkpt lat="42.8366" lon="17.69628">
        <time>2016-07-19T11:16:06Z</time>
      </trkpt>
      <trkpt lat="42.83654" lon="17.69634">
        <time>2016-07-19T11:18:06Z</time>
      </trkpt>
      <trkpt lat="42.83648" lon="17.69639">
        <time>2016-07-19T11:20:06Z</time>
      </trkpt>
      <trkpt lat="42.83642" lon="17.69645">
        <time>2016-07-19T11:22:06Z</time>
      </trkpt>
      <trkpt lat="42.83636" lon="17.6965">
        <time>2016-07-19T11:24:06Z</time>
      </trkpt>
      <trkpt lat="42.8363" lon="17.69655">
        <time>2016-07-19T11:26:06Z</time>
      </trkpt>
      <trkpt lat="42.83629" lon="17.69656">
        <time>2016-07-19T11:28:06Z</time>
      </trkpt>
      <trkpt lat="42.83627" lon="17.69657">
        <time>2016-07-19T11:30:06Z</time>
      </trkpt>
      <trkpt lat="42.83626" lon="17.69658">
        <time>2016-07-19T11:32:06Z</time>
      </trkpt>
      <trkpt lat="42.83625" lon="17.69659">
        <time>2016-07-19T11:34:06Z</time>
      </trkpt>
      <trkpt lat="42.83623" lon="17.69661">
        <time>2016-07-19T11:36:06Z</time>
      </trkpt>
      <trkpt lat="42.83622" lon="17.69662">
        <time>2016-07-19T11:38:06Z</time>
      </trkpt>
      <trkpt lat="42.83621" lon="17.69664">
        <time>2016-07-19T11:40:06Z</time>
      </trkpt>
      <trkpt lat="42.8362" lon="17.69666">
        <time>2016-07-19T11:42:06Z</time>
      </trkpt>
      <trkpt lat="42.83619" lon="17.69668">
        <time>2016-07-19T11:44:06Z</time>
      </trkpt>
      <trkpt lat="42.83618" lon="17.6967">
        <time>2016-07-19T11:46:06Z</time>
      </trkpt>
      <trkpt lat="42.83618" lon="17.69671">
        <time>2016-07-19T11:48:06Z</time>
      </trkpt>
      <trkpt lat="42.83618" lon="17.69672">
        <time>2016-07-19T11:50:06Z</time>
      </trkpt>
      <trkpt lat="42.83617" lon="17.69674">
        <time>2016-07-19T11:52:06Z</time>
      </trkpt>
      <trkpt lat="42.83617" lon="17.69676">
        <time>2016-07-19T11:54:06Z</time>
      </trkpt>
      <trkpt lat="42.83617" lon="17.69678">
        <time>2016-07-19T11:56:06Z</time>
      </trkpt>
      <trkpt lat="42.83617" lon="17.6968">
        <time>2016-07-19T11:58:06Z</time>
      </trkpt>
      <trkpt lat="42.83617" lon="17.69683">
        <time>2016-07-19T12:00:06Z</time>
      </trkpt>
      <trkpt lat="42.83617" lon="17.69685">
        <time>2016-07-19T12:02:06Z</time>
      </trkpt>
      <trkpt lat="42.83617" lon="17.69687">
        <time>2016-07-19T12:04:06Z</time>
      </trkpt>
      <trkpt lat="42.83617" lon="17.69689">
        <time>2016-07-19T12:06:06Z</time>
      </trkpt>
      <trkpt lat="42.83618" lon="17.69691">
        <time>2016-07-19T12:08:06Z</time>
      </trkpt>
      <trkpt lat="42.83618" lon="17.69693">
        <time>2016-07-19T12:10:06Z</time>
      </trkpt>
      <trkpt lat="42.83619" lon="17.69695">
        <time>2016-07-19T12:12:06Z</time>
      </trkpt>
      <trkpt lat="42.8362" lon="17.69697">
        <time>2016-07-19T12:14:06Z</time>
      </trkpt>
      <trkpt lat="42.83621" lon="17.69699">
        <time>2016-07-19T12:16:06Z</time>
      </trkpt>
      <trkpt lat="42.83622" lon="17.69701">
        <time>2016-07-19T12:18:06Z</time>
      </trkpt>
      <trkpt lat="42.83623" lon="17.69702">
        <time>2016-07-19T12:20:06Z</time>
      </trkpt>
      <trkpt lat="42.83624" lon="17.69704">
        <time>2016-07-19T12:22:06Z</time>
      </trkpt>
      <trkpt lat="42.83626" lon="17.69705">
        <time>2016-07-19T12:24:06Z</time>
      </trkpt>
      <trkpt lat="42.83627" lon="17.69706">
        <time>2016-07-19T12:26:06Z</time>
      </trkpt>
      <trkpt lat="42.837" lon="17.6972">
        <ele>1</ele>
        <time>2016-07-19T12:28:06Z</time>
      </trkpt>
      <trkpt lat="42.8371" lon="17.69722">
        <ele>1</ele>
        <time>2016-07-19T12:30:06Z</time>
      </trkpt>
      <trkpt lat="42.83724" lon="17.69723">
        <ele>1</ele>
        <time>2016-07-19T12:32:06Z</time>
      </trkpt>
      <trkpt lat="42.83731" lon="17.69723">
        <ele>1</ele>
        <time>2016-07-19T12:34:06Z</time>
      </trkpt>
      <trkpt lat="42.83753" lon="17.69723">
        <ele>1</ele>
        <time>2016-07-19T12:36:06Z</time>
      </trkpt>
      <trkpt lat="42.83763" lon="17.69723">
        <ele>1</ele>
        <time>2016-07-19T12:38:06Z</time>
      </trkpt>
      <trkpt lat="42.83766" lon="17.69723">
        <ele>1</ele>
        <time>2016-07-19T12:40:06Z</time>
      </trkpt>
      <trkpt lat="42.83785" lon="17.69722">
        <ele>1</ele>
        <time>2016-07-19T12:42:06Z</time>
      </trkpt>
      <trkpt lat="42.83797" lon="17.69719">
        <ele>2</ele>
        <time>2016-07-19T12:44:06Z</time>
      </trkpt>
      <trkpt lat="42.83801" lon="17.69719">
        <ele>2</ele>
        <time>2016-07-19T12:46:06Z</time>
      </trkpt>
      <trkpt lat="42.83808" lon="17.69718">
        <ele>2</ele>
        <time>2016-07-19T12:48:06Z</time>
      </trkpt>
      <trkpt lat="42.83812" lon="17.69718">
        <ele>2</ele>
        <time>2016-07-19T12:50:06Z</time>
      </trkpt>
      <trkpt lat="42.83818" lon="17.69717">
        <ele>2</ele>
        <time>2016-07-19T12:52:06Z</time>
      </trkpt>
      <trkpt lat="42.8383" lon="17.69718">
        <ele>2</ele>
        <time>2016-07-19T12:54:06Z</time>
      </trkpt>
      <trkpt lat="42.83849" lon="17.69721">
        <ele>3</ele>
        <time>2016-07-19T12:56:06Z</time>
      </trkpt>
      <trkpt lat="42.83863" lon="17.69724">
        <ele>4</ele>
        <time>2016-07-19T12:58:06Z</time>
      </trkpt>
      <trkpt lat="42.83876" lon="17.69728">
        <ele>5</ele>
        <time>2016-07-19T13:00:06Z</time>
      </trkpt>
      <trkpt lat="42.83889" lon="17.69733">
        <ele>5</ele>
        <time>2016-07-19T13:02:06Z</time>
      </trkpt>
      <trkpt lat="42.83899" lon="17.69742">
        <ele>5</ele>
        <time>2016-07-19T13:04:06Z</time>
      </trkpt>
      <trkpt lat="42.83912" lon="17.69754">
        <ele>6</ele>
        <time>2016-07-19T13:06:06Z</time>
      </trkpt>
      <trkpt lat="42.83914" lon="17.69756">
        <ele>6</ele>
        <time>2016-07-19T13:08:06Z</time>
      </trkpt>
      <trkpt lat="42.83919" lon="17.69762">
        <ele>7</ele>
        <time>2016-07-19T13:10:06Z</time>
      </trkpt>
      <trkpt lat="42.83929" lon="17.69775">
        <ele>10</ele>
        <time>2016-07-19T13:12:06Z</time>
      </trkpt>
      <trkpt lat="42.83938" lon="17.69788">
        <ele>12</ele>
        <time>2016-07-19T13:14:06Z</time>
      </trkpt>
      <trkpt lat="42.83947" lon="17.69802">
        <ele>13</ele>
        <time>2016-07-19T13:16:06Z</time>
      </trkpt>
      <trkpt lat="42.83959" lon="17.69823">
        <ele>14</ele>
        <time>2016-07-19T13:18:06Z</time>
      </trkpt>
      <trkpt lat="42.8397" lon="17.69843">
        <ele>15</ele>
        <time>2016-07-19T13:20:06Z</time>
      </trkpt>
      <trkpt lat="42.83985" lon="17.6987">
        <ele>16</ele>
        <time>2016-07-19T13:22:06Z</time>
      </trkpt>
      <trkpt lat="42.84" lon="17.69898">
        <ele>15</ele>
        <time>2016-07-19T13:24:06Z</time>
      </trkpt>
      <trkpt lat="42.84008" lon="17.69911">
        <ele>17</ele>
        <time>2016-07-19T13:26:06Z</time>
      </trkpt>
      <trkpt lat="42.84016" lon="17.69924">
        <ele>19</ele>
        <time>2016-07-19T13:28:06Z</time>
      </trkpt>
      <trkpt lat="42.84026" lon="17.69939">
        <ele>21</ele>
        <time>2016-07-19T13:30:06Z</time>
      </trkpt>
      <trkpt lat="42.84043" lon="17.69965">
        <ele>23</ele>
        <time>2016-07-19T13:32:06Z</time>
      </trkpt>
      <trkpt lat="42.8406" lon="17.69989">
        <ele>22</ele>
        <time>2016-07-19T13:34:06Z</time>
      </trkpt>
      <trkpt lat="42.84087" lon="17.70022">
        <ele>21</ele>
        <time>2016-07-19T13:36:06Z</time>
      </trkpt>
      <trkpt lat="42.8411" lon="17.70048">
        <ele>24</ele>
        <time>2016-07-19T13:38:06Z</time>
      </trkpt>
      <trkpt lat="42.84112" lon="17.70051">
        <ele>24</ele>
        <time>2016-07-19T13:40:06Z</time>
      </trkpt>
      <trkpt lat="42.84138" lon="17.7008">
        <ele>23</ele>
        <time>2016-07-19T13:42:06Z</time>
      </trkpt>
      <trkpt lat="42.84177" lon="17.70126">
        <ele>22</ele>
        <time>2016-07-19T13:44:06Z</time>
      </trkpt>
      <trkpt lat="42.84182" lon="17.70131">
        <ele>22</ele>
        <time>2016-07-19T13:46:06Z</time>
      </trkpt>
      <trkpt lat="42.84193" lon="17.70142">
        <ele>22</ele>
        <time>2016-07-19T13:48:06Z</time>
      </trkpt>
      <trkpt lat="42.84207" lon="17.70154">
        <ele>21</ele>
        <time>2016-07-19T13:50:06Z</time>
      </trkpt>
      <trkpt lat="42.84217" lon="17.70162">
        <ele>21</ele>
        <time>2016-07-19T13:52:06Z</time>
      </trkpt>
      <trkpt lat="42.84243" lon="17.70178">
        <ele>21</ele>
        <time>2016-07-19T13:54:06Z</time>
      </trkpt>
      <trkpt lat="42.84266" lon="17.70192">
        <ele>21</ele>
        <time>2016-07-19T13:56:06Z</time>
      </trkpt>
      <trkpt lat="42.84293" lon="17.70206">
        <ele>21</ele>
        <time>2016-07-19T13:58:06Z</time>
      </trkpt>
      <trkpt lat="42.84312" lon="17.70213">
        <ele>20</ele>
        <time>2016-07-19T14:00:06Z</time>
      </trkpt>
      <trkpt lat="42.84317" lon="17.70215">
        <ele>20</ele>
        <time>2016-07-19T14:02:06Z</time>
      </trkpt>
      <trkpt lat="42.84326" lon="17.70218">
        <ele>19</ele>
        <time>2016-07-19T14:04:06Z</time>
      </trkpt>
      <trkpt lat="42.84336" lon="17.70222">
        <ele>18</ele>
        <time>2016-07-19T14:06:06Z</time>
      </trkpt>
      <trkpt lat="42.84345" lon="17.70227">
        <ele>19</ele>
        <time>2016-07-19T14:08:06Z</time>
      </trkpt>
      <trkpt lat="42.84353" lon="17.70234">
        <ele>19</ele>
        <time>2016-07-19T14:10:06Z</time>
      </trkpt>
      <trkpt lat="42.84361" lon="17.70241">
        <ele>19</ele>
        <time>2016-07-19T14:12:06Z</time>
      </trkpt>
      <trkpt lat="42.84365" lon="17.70244">
        <ele>19</ele>
        <time>2016-07-19T14:14:06Z</time>
      </trkpt>
      <trkpt lat="42.84372" lon="17.70253">
        <ele>18</ele>
        <time>2016-07-19T14:16:06Z</time>
      </trkpt>
      <trkpt lat="42.84375" lon="17.70257">
        <ele>18</ele>
        <time>2016-07-19T14:18:06Z</time>
      </trkpt>
      <trkpt lat="42.84381" lon="17.70266">
        <ele>18</ele>
        <time>2016-07-19T14:20:06Z</time>
      </trkpt>
      <trkpt lat="42.84403" lon="17.70316">
        <ele>13</ele>
        <time>2016-07-19T14:22:06Z</time>
      </trkpt>
      <trkpt lat="42.84413" lon="17.70334">
        <ele>10</ele>
        <time>2016-07-19T14:24:06Z</time>
      </trkpt>
      <trkpt lat="42.84421" lon="17.70347">
        <ele>10</ele>
        <time>2016-07-19T14:26:06Z</time>
      </trkpt>
      <trkpt lat="42.84433" lon="17.70362">
        <ele>12</ele>
        <time>2016-07-19T14:28:06Z</time>
      </trkpt>
      <trkpt lat="42.84449" lon="17.70383">
        <ele>13</ele>
        <time>2016-07-19T14:30:06Z</time>
      </trkpt>
      <trkpt lat="42.84458" lon="17.70395">
        <ele>13</ele>
        <time>2016-07-19T14:32:06Z</time>
      </trkpt>
      <trkpt lat="42.84464" lon="17.70406">
        <ele>13</ele>
        <time>2016-07-19T14:34:06Z</time>
      </trkpt>
      <trkpt lat="42.84469" lon="17.70419">
        <ele>12</ele>
        <time>2016-07-19T14:36:06Z</time>
      </trkpt>
      <trkpt lat="42.84472" lon="17.70429">
        <ele>12</ele>
        <time>2016-07-19T14:38:06Z</time>
      </trkpt>
      <trkpt lat="42.84477" lon="17.70452">
        <ele>10</ele>
        <time>2016-07-19T14:40:06Z</time>
      </trkpt>
      <trkpt lat="42.84478" lon="17.70457">
        <ele>10</ele>
        <time>2016-07-19T14:42:06Z</time>
      </trkpt>
      <trkpt lat="42.84479" lon="17.70459">
        <ele>10</ele>
        <time>2016-07-19T14:44:06Z</time>
      </trkpt>
      <trkpt lat="42.84485" lon="17.70487">
        <ele>7</ele>
        <time>2016-07-19T14:46:06Z</time>
      </trkpt>
      <trkpt lat="42.84491" lon="17.7051">
        <ele>5</ele>
        <time>2016-07-19T14:48:06Z</time>
      </trkpt>
      <trkpt lat="42.84496" lon="17.70527">
        <ele>4</ele>
        <time>2016-07-19T14:50:06Z</time>
      </trkpt>
      <trkpt lat="42.84501" lon="17.70544">
        <ele>3</ele>
        <time>2016-07-19T14:52:06Z</time>
      </trkpt>
      <trkpt lat="42.84504" lon="17.70556">
        <ele>2</ele>
        <time>2016-07-19T14:54:06Z</time>
      </trkpt>
      <trkpt lat="42.84507" lon="17.70565">
        <ele>2</ele>
        <time>2016-07-19T14:56:06Z</time>
      </trkpt>
      <trkpt lat="42.84509" lon="17.70571">
        <ele>2</ele>
        <time>2016-07-19T14:58:06Z</time>
      </trkpt>
      <trkpt lat="42.84512" lon="17.70582">
        <ele>1</ele>
        <time>2016-07-19T15:00:06Z</time>
      </trkpt>
      <trkpt lat="42.84514" lon="17.70592">
        <ele>1</ele>
        <time>2016-07-19T15:02:06Z</time>
      </trkpt>
      <trkpt lat="42.84514" lon="17.70599">
        <ele>2</ele>
        <time>2016-07-19T15:04:06Z</time>
      </trkpt>
      <trkpt lat="42.84515" lon="17.70613">
        <ele>2</ele>
        <time>2016-07-19T15:06:06Z</time>
      </trkpt>
      <trkpt lat="42.84516" lon="17.70636">
        <ele>3</ele>
        <time>2016-07-19T15:08:06Z</time>
      </trkpt>
      <trkpt lat="42.84516" lon="17.70636">
        <ele>3</ele>
        <time>2016-07-19T15:10:06Z</time>
      </trkpt>
      <trkpt lat="42.84516" lon="17.70641">
        <ele>3</ele>
        <time>2016-07-19T15:12:06Z</time>
      </trkpt>
      <trkpt lat="42.84517" lon="17.70653">
        <ele>4</ele>
        <time>2016-07-19T15:14:06Z</time>
      </trkpt>
      <trkpt lat="42.84517" lon="17.70657">
        <ele>4</ele>
        <time>2016-07-19T15:16:06Z</time>
      </trkpt>
      <trkpt lat="42.84517" lon="17.70662">
        <ele>4</ele>
        <time>2016-07-19T15:18:06Z</time>
      </trkpt>
      <trkpt lat="42.84516" lon="17.70685">
        <ele>5</ele>
        <time>2016-07-19T15:20:06Z</time>
      </trkpt>
      <trkpt lat="42.84514" lon="17.70712">
        <ele>6</ele>
        <time>2016-07-19T15:22:06Z</time>
      </trkpt>
      <trkpt lat="42.84511" lon="17.70735">
        <ele>6</ele>
        <time>2016-07-19T15:24:06Z</time>
      </trkpt>
      <trkpt lat="42.84504" lon="17.70762">
        <ele>6</ele>
        <time>2016-07-19T15:26:06Z</time>
      </trkpt>
      <trkpt lat="42.84501" lon="17.7077">
        <ele>6</ele>
        <time>2016-07-19T15:28:06Z</time>
      </trkpt>
      <trkpt lat="42.84498" lon="17.70777">
        <ele>6</ele>
        <time>2016-07-19T15:30:06Z</time>
      </trkpt>
      <trkpt lat="42.84483" lon="17.7081">
        <ele>7</ele>
        <time>2016-07-19T15:32:06Z</time>
      </trkpt>
      <trkpt lat="42.84453" lon="17.70872">
        <ele>6</ele>
        <time>2016-07-19T15:34:06Z</time>
      </trkpt>
      <trkpt lat="42.84441" lon="17.70899">
        <ele>6</ele>
        <time>2016-07-19T15:36:06Z</time>
      </trkpt>
      <trkpt lat="42.84429" lon="17.70926">
        <ele>5</ele>
        <time>2016-07-19T15:38:06Z</time>
      </trkpt>
      <trkpt lat="42.84413" lon="17.70959">
        <ele>4</ele>
        <time>2016-07-19T15:40:06Z</time>
      </trkpt>
      <trkpt lat="42.84391" lon="17.71004">
        <ele>7</ele>
        <time>2016-07-19T15:42:06Z</time>
      </trkpt>
      <trkpt lat="42.84381" lon="17.71023">
        <ele>8</ele>
        <time>2016-07-19T15:44:06Z</time>
      </trkpt>
      <trkpt lat="42.84355" lon="17.71072">
        <ele>11</ele>
        <time>2016-07-19T15:46:06Z</time>
      </trkpt>
      <trkpt lat="42.84329" lon="17.71121">
        <ele>10</ele>
        <time>2016-07-19T15:48:06Z</time>
      </trkpt>
      <trkpt lat="42.84309" lon="17.7115">
        <ele>10</ele>
        <time>2016-07-19T15:50:06Z</time>
      </trkpt>
      <trkpt lat="42.84306" lon="17.71155">
        <ele>10</ele>
        <time>2016-07-19T15:52:06Z</time>
      </trkpt>
      <trkpt lat="42.84283" lon="17.71189">
        <ele>11</ele>
        <time>2016-07-19T15:54:06Z</time>
      </trkpt>
      <trkpt lat="42.84269" lon="17.71209">
        <ele>12</ele>
        <time>2016-07-19T15:56:06Z</time>
      </trkpt>
      <trkpt lat="42.84178" lon="17.71326">
        <ele>14</ele>
        <time>2016-07-19T15:58:06Z</time>
      </trkpt>
      <trkpt lat="42.8417" lon="17.71335">
        <ele>13</ele>
        <time>2016-07-19T16:00:06Z</time>
      </trkpt>
      <trkpt lat="42.84154" lon="17.71354">
        <ele>15</ele>
        <time>2016-07-19T16:02:06Z</time>
      </trkpt>
      <trkpt lat="42.8413" lon="17.71383">
        <ele>16</ele>
        <time>2016-07-19T16:04:06Z</time>
      </trkpt>
      <trkpt lat="42.84098" lon="17.71423">
        <ele>17</ele>
        <time>2016-07-19T16:06:06Z</time>
      </trkpt>
      <trkpt lat="42.84095" lon="17.71427">
        <ele>17</ele>
        <time>2016-07-19T16:08:06Z</time>
      </trkpt>
      <trkpt lat="42.84073" lon="17.71458">
        <ele>17</ele>
        <time>2016-07-19T16:10:06Z</time>
      </trkpt>
      <trkpt lat="42.84051" lon="17.7149">
        <ele>17</ele>
        <time>2016-07-19T16:12:06Z</time>
      </trkpt>
      <trkpt lat="42.84012" lon="17.71549">
        <ele>16</ele>
        <time>2016-07-19T16:14:06Z</time>
      </trkpt>
      <trkpt lat="42.84005" lon="17.71561">
        <ele>15</ele>
        <time>2016-07-19T16:16:06Z</time>
      </trkpt>
      <trkpt lat="42.83973" lon="17.71607">
        <ele>16</ele>
        <time>2016-07-19T16:18:06Z</time>
      </trkpt>
      <trkpt lat="42.83945" lon="17.71648">
        <ele>17</ele>
        <time>2016-07-19T16:20:06Z</time>
      </trkpt>
      <trkpt lat="42.83925" lon="17.71677">
        <ele>16</ele>
        <time>2016-07-19T16:22:06Z</time>
      </trkpt>
      <trkpt lat="42.83907" lon="17.717">
        <ele>16</ele>
        <time>2016-07-19T16:24:06Z</time>
      </trkpt>
      <trkpt lat="42.83884" lon="17.71727">
        <ele>16</ele>
        <time>2016-07-19T16:26:06Z</time>
      </trkpt>
      <trkpt lat="42.83872" lon="17.7174">
        <ele>16</ele>
        <time>2016-07-19T16:28:06Z</time>
      </trkpt>
      <trkpt lat="42.83859" lon="17.71753">
        <ele>12</ele>
        <time>2016-07-19T16:30:06Z</time>
      </trkpt>
      <trkpt lat="42.83809" lon="17.71802">
        <ele>17</ele>
        <time>2016-07-19T16:32:06Z</time>
      </trkpt>
      <trkpt lat="42.83798" lon="17.71812">
        <ele>18</ele>
        <time>2016-07-19T16:34:06Z</time>
      </trkpt>
      <trkpt lat="42.83759" lon="17.71848">
        <ele>21</ele>
        <time>2016-07-19T16:36:06Z</time>
      </trkpt>
      <trkpt lat="42.8375" lon="17.71858">
        <ele>21</ele>
        <time>2016-07-19T16:38:06Z</time>
      </trkpt>
      <trkpt lat="42.83746" lon="17.71863">
        <ele>21</ele>
        <time>2016-07-19T16:40:06Z</time>
      </trkpt>
      <trkpt lat="42.83743" lon="17.71867">
        <ele>22</ele>
        <time>2016-07-19T16:42:06Z</time>
      </trkpt>
      <trkpt lat="42.83742" lon="17.71869">
        <ele>22</ele>
        <time>2016-07-19T16:44:06Z</time>
      </trkpt>
      <trkpt lat="42.83734" lon="17.7188">
        <ele>22</ele>
        <time>2016-07-19T16:46:06Z</time>
      </trkpt>
      <trkpt lat="42.83727" lon="17.71892">
        <ele>22</ele>
        <time>2016-07-19T16:48:06Z</time>
      </trkpt>
      <trkpt lat="42.83721" lon="17.71905">
        <ele>22</ele>
        <time>2016-07-19T16:50:06Z</time>
      </trkpt>
      <trkpt lat="42.83716" lon="17.71918">
        <ele>21</ele>
        <time>2016-07-19T16:52:06Z</time>
      </trkpt>
      <trkpt lat="42.83711" lon="17.71932">
        <ele>21</ele>
        <time>2016-07-19T16:54:06Z</time>
      </trkpt>
      <trkpt lat="42.83704" lon="17.7196">
        <ele>19</ele>
        <time>2016-07-19T16:56:06Z</time>
      </trkpt>
      <trkpt lat="42.83699" lon="17.71973">
        <ele>19</ele>
        <time>2016-07-19T16:58:06Z</time>
      </trkpt>
      <trkpt lat="42.83694" lon="17.71985">
        <ele>18</ele>
        <time>2016-07-19T17:00:06Z</time>
      </trkpt>
      <trkpt lat="42.83687" lon="17.71997">
        <ele>18</ele>
        <time>2016-07-19T17:02:06Z</time>
      </trkpt>
      <trkpt lat="42.83684" lon="17.72002">
        <ele>18</ele>
        <time>2016-07-19T17:04:06Z</time>
      </trkpt>
      <trkpt lat="42.83681" lon="17.72007">
        <ele>18</ele>
        <time>2016-07-19T17:06:06Z</time>
      </trkpt>
      <trkpt lat="42.83673" lon="17.72017">
        <ele>18</ele>
        <time>2016-07-19T17:08:06Z</time>
      </trkpt>
      <trkpt lat="42.83666" lon="17.72026">
        <ele>17</ele>
        <time>2016-07-19T17:10:06Z</time>
      </trkpt>
      <trkpt lat="42.83655" lon="17.72037">
        <ele>18</ele>
        <time>2016-07-19T17:12:06Z</time>
      </trkpt>
      <trkpt lat="42.83646" lon="17.72044">
        <ele>18</ele>
        <time>2016-07-19T17:14:06Z</time>
      </trkpt>
      <trkpt lat="42.83628" lon="17.72056">
        <ele>19</ele>
        <time>2016-07-19T17:16:06Z</time>
      </trkpt>
      <trkpt lat="42.8361" lon="17.72069">
        <ele>19</ele>
        <time>2016-07-19T17:18:06Z</time>
      </trkpt>
      <trkpt lat="42.83602" lon="17.72075">
        <ele>19</ele>
        <time>2016-07-19T17:20:06Z</time>
      </trkpt>
      <trkpt lat="42.83593" lon="17.72082">
        <ele>19</ele>
        <time>2016-07-19T17:22:06Z</time>
      </trkpt>
      <trkpt lat="42.83576" lon="17.72097">
        <ele>19</ele>
        <time>2016-07-19T17:24:06Z</time>
      </trkpt>
      <trkpt lat="42.83559" lon="17.72112">
        <ele>20</ele>
        <time>2016-07-19T17:26:06Z</time>
      </trkpt>
      <trkpt lat="42.83551" lon="17.7212">
        <ele>20</ele>
        <time>2016-07-19T17:28:06Z</time>
      </trkpt>
      <trkpt lat="42.83535" lon="17.72137">
        <ele>19</ele>
        <time>2016-07-19T17:30:06Z</time>
      </trkpt>
      <trkpt lat="42.83533" lon="17.7214">
        <ele>19</ele>
        <time>2016-07-19T17:32:06Z</time>
      </trkpt>
      <trkpt lat="42.83514" lon="17.72166">
        <ele>17</ele>
        <time>2016-07-19T17:34:06Z</time>
      </trkpt>
      <trkpt lat="42.83501" lon="17.72187">
        <ele>16</ele>
        <time>2016-07-19T17:36:06Z</time>
      </trkpt>
      <trkpt lat="42.83498" lon="17.72192">
        <ele>16</ele>
        <time>2016-07-19T17:38:06Z</time>
      </trkpt>
      <trkpt lat="42.83489" lon="17.72207">
        <ele>15</ele>
        <time>2016-07-19T17:40:06Z</time>
      </trkpt>
      <trkpt lat="42.83483" lon="17.72217">
        <ele>15</ele>
        <time>2016-07-19T17:42:06Z</time>
      </trkpt>
      <trkpt lat="42.83473" lon="17.72234">
        <ele>14</ele>
        <time>2016-07-19T17:44:06Z</time>
      </trkpt>
      <trkpt lat="42.83471" lon="17.72237">
        <ele>14</ele>
        <time>2016-07-19T17:46:06Z</time>
      </trkpt>
      <trkpt lat="42.8346" lon="17.72257">
        <ele>14</ele>
        <time>2016-07-19T17:48:06Z</time>
      </trkpt>
      <trkpt lat="42.83454" lon="17.72267">
        <ele>14</ele>
        <time>2016-07-19T17:50:06Z</time>
      </trkpt>
      <trkpt lat="42.83449" lon="17.72277">
        <ele>14</ele>
        <time>2016-07-19T17:52:06Z</time>
      </trkpt>
      <trkpt lat="42.83439" lon="17.72297">
        <ele>15</ele>
        <time>2016-07-19T17:54:06Z</time>
      </trkpt>
      <trkpt lat="42.83434" lon="17.72307">
        <ele>15</ele>
        <time>2016-07-19T17:56:06Z</time>
      </trkpt>
      <trkpt lat="42.83429" lon="17.72319">
        <ele>15</ele>
        <time>2016-07-19T17:58:06Z</time>
      </trkpt>
      <trkpt lat="42.83425" lon="17.7233">
        <ele>15</ele>
        <time>2016-07-19T18:00:06Z</time>
      </trkpt>
      <trkpt lat="42.83422" lon="17.7234">
        <ele>15</ele>
        <time>2016-07-19T18:02:06Z</time>
      </trkpt>
      <trkpt lat="42.83419" lon="17.72352">
        <ele>15</ele>
        <time>2016-07-19T18:04:06Z</time>
      </trkpt>
      <trkpt lat="42.83414" lon="17.72383">
        <ele>15</ele>
        <time>2016-07-19T18:06:06Z</time>
      </trkpt>
      <trkpt lat="42.83408" lon="17.72415">
        <ele>16</ele>
        <time>2016-07-19T18:08:06Z</time>
      </trkpt>
      <trkpt lat="42.83406" lon="17.72421">
        <ele>16</ele>
        <time>2016-07-19T18:10:06Z</time>
      </trkpt>
      <trkpt lat="42.83403" lon="17.72435">
        <ele>16</ele>
        <time>2016-07-19T18:12:06Z</time>
      </trkpt>
      <trkpt lat="42.83397" lon="17.72453">
        <ele>17</ele>
        <time>2016-07-19T18:14:06Z</time>
      </trkpt>
      <trkpt lat="42.83388" lon="17.72472">
        <ele>18</ele>
        <time>2016-07-19T18:16:06Z</time>
      </trkpt>
      <trkpt lat="42.83376" lon="17.72493">
        <ele>18</ele>
        <time>2016-07-19T18:18:06Z</time>
      </trkpt>
      <trkpt lat="42.83366" lon="17.72508">
        <ele>19</ele>
        <time>2016-07-19T18:20:06Z</time>
      </trkpt>
      <trkpt lat="42.83354" lon="17.72522">
        <ele>19</ele>
        <time>2016-07-19T18:22:06Z</time>
      </trkpt>
      <trkpt lat="42.83345" lon="17.72531">
        <ele>19</ele>
        <time>2016-07-19T18:24:06Z</time>
      </trkpt>
      <trkpt lat="42.83335" lon="17.72542">
        <ele>18</ele>
        <time>2016-07-19T18:26:06Z</time>
      </trkpt>
      <trkpt lat="42.83316" lon="17.72561">
        <ele>18</ele>
        <time>2016-07-19T18:28:06Z</time>
      </trkpt>
      <trkpt lat="42.83303" lon="17.72573">
        <ele>18</ele>
        <time>2016-07-19T18:30:06Z</time>
      </trkpt>
      <trkpt lat="42.83295" lon="17.72582">
        <ele>18</ele>
        <time>2016-07-19T18:32:06Z</time>
      </trkpt>
      <trkpt lat="42.83288" lon="17.7259">
        <ele>18</ele>
        <time>2016-07-19T18:34:06Z</time>
      </trkpt>
      <trkpt lat="42.83278" lon="17.72602">
        <ele>19</ele>
        <time>2016-07-19T18:36:06Z</time>
      </trkpt>
      <trkpt lat="42.8327" lon="17.72615">
        <ele>19</ele>
        <time>2016-07-19T18:38:06Z</time>
      </trkpt>
      <trkpt lat="42.83265" lon="17.72624">
        <ele>19</ele>
        <time>2016-07-19T18:40:06Z</time>
      </trkpt>
      <trkpt lat="42.83259" lon="17.72638">
        <ele>19</ele>
        <time>2016-07-19T18:42:06Z</time>
      </trkpt>
      <trkpt lat="42.83257" lon="17.72644">
        <ele>19</ele>
        <time>2016-07-19T18:44:06Z</time>
      </trkpt>
      <trkpt lat="42.83253" lon="17.72655">
        <ele>19</ele>
        <time>2016-07-19T18:46:06Z</time>
      </trkpt>
      <trkpt lat="42.83248" lon="17.72673">
        <ele>19</ele>
        <time>2016-07-19T18:48:06Z</time>
      </trkpt>
      <trkpt lat="42.83242" lon="17.72696">
        <ele>21</ele>
        <time>2016-07-19T18:50:06Z</time>
      </trkpt>
      <trkpt lat="42.83235" lon="17.72725">
        <ele>22</ele>
        <time>2016-07-19T18:52:06Z</time>
      </trkpt>
      <trkpt lat="42.83224" lon="17.72763">
        <ele>23</ele>
        <time>2016-07-19T18:54:06Z</time>
      </trkpt>
      <trkpt lat="42.83221" lon="17.72774">
        <ele>23</ele>
        <time>2016-07-19T18:56:06Z</time>
      </trkpt>
      <trkpt lat="42.8321" lon="17.72824">
        <ele>25</ele>
        <time>2016-07-19T18:58:06Z</time>
      </trkpt>
      <trkpt lat="42.83192" lon="17.72897">
        <ele>27</ele>
        <time>2016-07-19T19:00:06Z</time>
      </trkpt>
      <trkpt lat="42.83186" lon="17.72919">
        <ele>27</ele>
        <time>2016-07-19T19:02:06Z</time>
      </trkpt>
      <trkpt lat="42.83181" lon="17.7294">
        <ele>28</ele>
        <time>2016-07-19T19:04:06Z</time>
      </trkpt>
      <trkpt lat="42.83179" lon="17.72949">
        <ele>28</ele>
        <time>2016-07-19T19:06:06Z</time>
      </trkpt>
      <trkpt lat="42.83177" lon="17.72964">
        <ele>29</ele>
        <time>2016-07-19T19:08:06Z</time>
      </trkpt>
      <trkpt lat="42.83176" lon="17.72976">
        <ele>30</ele>
        <time>2016-07-19T19:10:06Z</time>
      </trkpt>
      <trkpt lat="42.83175" lon="17.72996">
        <ele>31</ele>
        <time>2016-07-19T19:12:06Z</time>
      </trkpt>
      <trkpt lat="42.83175" lon="17.73011">
        <ele>31</ele>
        <time>2016-07-19T19:14:06Z</time>
      </trkpt>
      <trkpt lat="42.83175" lon="17.73037">
        <ele>31</ele>
        <time>2016-07-19T19:16:06Z</time>
      </trkpt>
      <trkpt lat="42.83175" lon="17.73055">
        <ele>31</ele>
        <time>2016-07-19T19:18:06Z</time>
      </trkpt>
      <trkpt lat="42.83175" lon="17.73064">
        <ele>31</ele>
        <time>2016-07-19T19:20:06Z</time>
      </trkpt>
      <trkpt lat="42.83175" lon="17.73071">
        <ele>31</ele>
        <time>2016-07-19T19:22:06Z</time>
      </trkpt>
      <trkpt lat="42.83175" lon="17.73083">
        <ele>31</ele>
        <time>2016-07-19T19:24:06Z</time>
      </trkpt>
      <trkpt lat="42.83175" lon="17.73092">
        <ele>31</ele>
        <time>2016-07-19T19:26:06Z</time>
      </trkpt>
      <trkpt lat="42.83174" lon="17.73104">
        <ele>31</ele>
        <time>2016-07-19T19:28:06Z</time>
      </trkpt>
      <trkpt lat="42.83171" lon="17.73114">
        <ele>32</ele>
        <time>2016-07-19T19:30:06Z</time>
      </trkpt>
      <trkpt lat="42.83168" lon="17.73124">
        <ele>32</ele>
        <time>2016-07-19T19:32:06Z</time>
      </trkpt>
      <trkpt lat="42.83163" lon="17.73138">
        <ele>32</ele>
        <time>2016-07-19T19:34:06Z</time>
      </trkpt>
      <trkpt lat="42.83154" lon="17.73156">
        <ele>33</ele>
        <time>2016-07-19T19:36:06Z</time>
      </trkpt>
      <trkpt lat="42.83138" lon="17.73188">
        <ele>35</ele>
        <time>2016-07-19T19:38:06Z</time>
      </trkpt>
      <trkpt lat="42.83134" lon="17.732">
        <ele>36</ele>
        <time>2016-07-19T19:40:06Z</time>
      </trkpt>
      <trkpt lat="42.83127" lon="17.73216">
        <ele>38</ele>
        <time>2016-07-19T19:42:06Z</time>
      </trkpt>
      <trkpt lat="42.83122" lon="17.73234">
        <ele>39</ele>
        <time>2016-07-19T19:44:06Z</time>
      </trkpt>
      <trkpt lat="42.83117" lon="17.73251">
        <ele>40</ele>
        <time>2016-07-19T19:46:06Z</time>
      </trkpt>
      <trkpt lat="42.83112" lon="17.73272">
        <ele>42</ele>
        <time>2016-07-19T19:48:06Z</time>
      </trkpt>
      <trkpt lat="42.83107" lon="17.73314">
        <ele>45</ele>
        <time>2016-07-19T19:50:06Z</time>
      </trkpt>
      <trkpt lat="42.83105" lon="17.73335">
        <ele>46</ele>
        <time>2016-07-19T19:52:06Z</time>
      </trkpt>
      <trkpt lat="42.83106" lon="17.73356">
        <ele>47</ele>
        <time>2016-07-19T19:54:06Z</time>
      </trkpt>
      <trkpt lat="42.83107" lon="17.73376">
        <ele>48</ele>
        <time>2016-07-19T19:56:06Z</time>
      </trkpt>
      <trkpt lat="42.8311" lon="17.73399">
        <ele>48</ele>
        <time>2016-07-19T19:58:06Z</time>
      </trkpt>
      <trkpt lat="42.83122" lon="17.73458">
        <ele>47</ele>
        <time>2016-07-19T20:00:06Z</time>
      </trkpt>
      <trkpt lat="42.83122" lon="17.7346">
        <ele>47</ele>
        <time>2016-07-19T20:02:06Z</time>
      </trkpt>
      <trkpt lat="42.83131" lon="17.73504">
        <ele>45</ele>
        <time>2016-07-19T20:04:06Z</time>
      </trkpt>
      <trkpt lat="42.83138" lon="17.73543">
        <ele>43</ele>
        <time>2016-07-19T20:06:06Z</time>
      </trkpt>
      <trkpt lat="42.83147" lon="17.7358">
        <ele>40</ele>
        <time>2016-07-19T20:08:06Z</time>
      </trkpt>
      <trkpt lat="42.83155" lon="17.73609">
        <ele>40</ele>
        <time>2016-07-19T20:10:06Z</time>
      </trkpt>
      <trkpt lat="42.8316" lon="17.73627">
        <ele>39</ele>
        <time>2016-07-19T20:12:06Z</time>
      </trkpt>
      <trkpt lat="42.83186" lon="17.73697">
        <ele>38</ele>
        <time>2016-07-19T20:14:06Z</time>
      </trkpt>
      <trkpt lat="42.83193" lon="17.73713">
        <ele>37</ele>
        <time>2016-07-19T20:16:06Z</time>
      </trkpt>
      <trkpt lat="42.83198" lon="17.73729">
        <ele>37</ele>
        <time>2016-07-19T20:18:06Z</time>
      </trkpt>
      <trkpt lat="42.83203" lon="17.73746">
        <ele>37</ele>
        <time>2016-07-19T20:20:06Z</time>
      </trkpt>
      <trkpt lat="42.83207" lon="17.73764">
        <ele>37</ele>
        <time>2016-07-19T20:22:06Z</time>
      </trkpt>
      <trkpt lat="42.83211" lon="17.73782">
        <ele>37</ele>
        <time>2016-07-19T20:24:06Z</time>
      </trkpt>
      <trkpt lat="42.83212" lon="17.73791">
        <ele>37</ele>
        <time>2016-07-19T20:26:06Z</time>
      </trkpt>
      <trkpt lat="42.83214" lon="17.73808">
        <ele>38</ele>
        <time>2016-07-19T20:28:06Z</time>
      </trkpt>
      <trkpt lat="42.83215" lon="17.73825">
        <ele>39</ele>
        <time>2016-07-19T20:30:06Z</time>
      </trkpt>
      <trkpt lat="42.83216" lon="17.73834">
        <ele>39</ele>
        <time>2016-07-19T20:32:06Z</time>
      </trkpt>
      <trkpt lat="42.83215" lon="17.73875">
        <ele>39</ele>
        <time>2016-07-19T20:34:06Z</time>
      </trkpt>
      <trkpt lat="42.83214" lon="17.73908">
        <ele>40</ele>
        <time>2016-07-19T20:36:06Z</time>
      </trkpt>
      <trkpt lat="42.83211" lon="17.7395">
        <ele>40</ele>
        <time>2016-07-19T20:38:06Z</time>
      </trkpt>
      <trkpt lat="42.8321" lon="17.73959">
        <ele>41</ele>
        <time>2016-07-19T20:40:06Z</time>
      </trkpt>
      <trkpt lat="42.83207" lon="17.73993">
        <ele>41</ele>
        <time>2016-07-19T20:42:06Z</time>
      </trkpt>
      <trkpt lat="42.83204" lon="17.74014">
        <ele>41</ele>
        <time>2016-07-19T20:44:06Z</time>
      </trkpt>
      <trkpt lat="42.83199" lon="17.74053">
        <ele>41</ele>
        <time>2016-07-19T20:46:06Z</time>
      </trkpt>
      <trkpt lat="42.8319" lon="17.74112">
        <ele>40</ele>
        <time>2016-07-19T20:48:06Z</time>
      </trkpt>
      <trkpt lat="42.83187" lon="17.74131">
        <ele>41</ele>
        <time>2016-07-19T20:50:06Z</time>
      </trkpt>
      <trkpt lat="42.8318" lon="17.74169">
        <ele>41</ele>
        <time>2016-07-19T20:52:06Z</time>
      </trkpt>
      <trkpt lat="42.83177" lon="17.74182">
        <ele>41</ele>
        <time>2016-07-19T20:54:06Z</time>
      </trkpt>
      <trkpt lat="42.83172" lon="17.74204">
        <ele>41</ele>
        <time>2016-07-19T20:56:06Z</time>
      </trkpt>
      <trkpt lat="42.83168" lon="17.74221">
        <ele>41</ele>
        <time>2016-07-19T20:58:06Z</time>
      </trkpt>
      <trkpt lat="42.8316" lon="17.74253">
        <ele>41</ele>
        <time>2016-07-19T21:00:06Z</time>
      </trkpt>
      <trkpt lat="42.83148" lon="17.74304">
        <ele>43</ele>
        <time>2016-07-19T21:02:06Z</time>
      </trkpt>
      <trkpt lat="42.83146" lon="17.74318">
        <ele>43</ele>
        <time>2016-07-19T21:04:06Z</time>
      </trkpt>
      <trkpt lat="42.83145" lon="17.74331">
        <ele>43</ele>
        <time>2016-07-19T21:06:06Z</time>
      </trkpt>
      <trkpt lat="42.83144" lon="17.74343">
        <ele>43</ele>
        <time>2016-07-19T21:08:06Z</time>
      </trkpt>
      <trkpt lat="42.83143" lon="17.74357">
        <ele>43</ele>
        <time>2016-07-19T21:10:06Z</time>
      </trkpt>
      <trkpt lat="42.83143" lon="17.7437">
        <ele>44</ele>
        <time>2016-07-19T21:12:06Z</time>
      </trkpt>
      <trkpt lat="42.83143" lon="17.74384">
        <ele>44</ele>
        <time>2016-07-19T21:14:06Z</time>
      </trkpt>
      <trkpt lat="42.83142" lon="17.74399">
        <ele>44</ele>
        <time>2016-07-19T21:16:06Z</time>
      </trkpt>
      <trkpt lat="42.83142" lon="17.74428">
        <ele>45</ele>
        <time>2016-07-19T21:18:06Z</time>
      </trkpt>
      <trkpt lat="42.83143" lon="17.74515">
        <ele>44</ele>
        <time>2016-07-19T21:20:06Z</time>
      </trkpt>
      <trkpt lat="42.83143" lon="17.74559">
        <ele>43</ele>
        <time>2016-07-19T21:22:06Z</time>
      </trkpt>
      <trkpt lat="42.83143" lon="17.74596">
        <ele>42</ele>
        <time>2016-07-19T21:24:06Z</time>
      </trkpt>
      <trkpt lat="42.83142" lon="17.74631">
        <ele>41</ele>
        <time>2016-07-19T21:26:06Z</time>
      </trkpt>
      <trkpt lat="42.83141" lon="17.74647">
        <ele>41</ele>
        <time>2016-07-19T21:28:06Z</time>
      </trkpt>
      <trkpt lat="42.8314" lon="17.74661">
        <ele>40</ele>
        <time>2016-07-19T21:30:06Z</time>
      </trkpt>
      <trkpt lat="42.83138" lon="17.74673">
        <ele>41</ele>
        <time>2016-07-19T21:32:06Z</time>
      </trkpt>
      <trkpt lat="42.83135" lon="17.74684">
        <ele>41</ele>
        <time>2016-07-19T21:34:06Z</time>
      </trkpt>
      <trkpt lat="42.83132" lon="17.74697">
        <ele>42</ele>
        <time>2016-07-19T21:36:06Z</time>
      </trkpt>
      <trkpt lat="42.83122" lon="17.74737">
        <ele>44</ele>
        <time>2016-07-19T21:38:06Z</time>
      </trkpt>
      <trkpt lat="42.83119" lon="17.74749">
        <ele>44</ele>
        <time>2016-07-19T21:40:06Z</time>
      </trkpt>
      <trkpt lat="42.83117" lon="17.7476">
        <ele>44</ele>
        <time>2016-07-19T21:42:06Z</time>
      </trkpt>
      <trkpt lat="42.83116" lon="17.74769">
        <ele>44</ele>
        <time>2016-07-19T21:44:06Z</time>
      </trkpt>
      <trkpt lat="42.83116" lon="17.74777">
        <ele>44</ele>
        <time>2016-07-19T21:46:06Z</time>
      </trkpt>
      <trkpt lat="42.83116" lon="17.74785">
        <ele>44</ele>
        <time>2016-07-19T21:48:06Z</time>
      </trkpt>
      <trkpt lat="42.83116" lon="17.74794">
        <ele>44</ele>
        <time>2016-07-19T21:50:06Z</time>
      </trkpt>
      <trkpt lat="42.83119" lon="17.74806">
        <ele>44</ele>
        <time>2016-07-19T21:52:06Z</time>
      </trkpt>
      <trkpt lat="42.8312" lon="17.74813">
        <ele>44</ele>
        <time>2016-07-19T21:54:06Z</time>
      </trkpt>
      <trkpt lat="42.83129" lon="17.74834">
        <ele>44</ele>
        <time>2016-07-19T21:56:06Z</time>
      </trkpt>
      <trkpt lat="42.83136" lon="17.74849">
        <ele>45</ele>
        <time>2016-07-19T21:58:06Z</time>
      </trkpt>
      <trkpt lat="42.83147" lon="17.7487">
        <ele>46</ele>
        <time>2016-07-19T22:00:06Z</time>
      </trkpt>
      <trkpt lat="42.83188" lon="17.7494">
        <ele>51</ele>
        <time>2016-07-19T22:02:06Z</time>
      </trkpt>
      <trkpt lat="42.83202" lon="17.74963">
        <ele>53</ele>
        <time>2016-07-19T22:04:06Z</time>
      </trkpt>
      <trkpt lat="42.83202" lon="17.74963">
        <ele>53</ele>
        <time>2016-07-19T22:06:06Z</time>
      </trkpt>
      <trkpt lat="42.83214" lon="17.74981">
        <ele>54</ele>
        <time>2016-07-19T22:08:06Z</time>
      </trkpt>
      <trkpt lat="42.83147" lon="17.75085">
        <ele>53</ele>
        <time>2016-07-19T22:10:06Z</time>
      </trkpt>
      <trkpt lat="42.83144" lon="17.75092">
        <ele>52</ele>
        <time>2016-07-19T22:12:06Z</time>
      </trkpt>
      <trkpt lat="42.83144" lon="17.75093">
        <ele>52</ele>
        <time>2016-07-19T22:14:06Z</time>
      </trkpt>
      <trkpt lat="42.83142" lon="17.75098">
        <ele>52</ele>
        <time>2016-07-19T22:16:06Z</time>
      </trkpt>
      <trkpt lat="42.83137" lon="17.75106">
        <ele>52</ele>
        <time>2016-07-19T22:18:06Z</time>
      </trkpt>
      <trkpt lat="42.83121" lon="17.75127">
        <ele>51</ele>
        <time>2016-07-19T22:20:06Z</time>
      </trkpt>
      <trkpt lat="42.83115" lon="17.75135">
        <ele>51</ele>
        <time>2016-07-19T22:22:06Z</time>
      </trkpt>
      <trkpt lat="42.831" lon="17.75152">
        <ele>50</ele>
        <time>2016-07-19T22:24:06Z</time>
      </trkpt>
      <trkpt lat="42.82949" lon="17.75305">
        <ele>56</ele>
        <time>2016-07-19T22:26:06Z</time>
      </trkpt>
      <trkpt lat="42.82919" lon="17.75336">
        <ele>58</ele>
        <time>2016-07-19T22:28:06Z</time>
      </trkpt>
      <trkpt lat="42.82802" lon="17.75455">
        <ele>66</ele>
        <time>2016-07-19T22:30:06Z</time>
      </trkpt>
      <trkpt lat="42.82793" lon="17.75464">
        <ele>67</ele>
        <time>2016-07-19T22:32:06Z</time>
      </trkpt>
      <trkpt lat="42.82783" lon="17.75474">
        <ele>67</ele>
        <time>2016-07-19T22:34:06Z</time>
      </trkpt>
      <trkpt lat="42.82757" lon="17.755">
        <ele>67</ele>
        <time>2016-07-19T22:36:06Z</time>
      </trkpt>
      <trkpt lat="42.82551" lon="17.75708">
        <ele>84</ele>
        <time>2016-07-19T22:38:06Z</time>
      </trkpt>
      <trkpt lat="42.82531" lon="17.75728">
        <ele>87</ele>
        <time>2016-07-19T22:40:06Z</time>
      </trkpt>
      <trkpt lat="42.82528" lon="17.75728">
        <ele>88</ele>
        <time>2016-07-19T22:42:06Z</time>
      </trkpt>
      <trkpt lat="42.82527" lon="17.75729">
        <ele>88</ele>
        <time>2016-07-19T22:44:06Z</time>
      </trkpt>
      <trkpt lat="42.82523" lon="17.75731">
        <ele>89</ele>
        <time>2016-07-19T22:46:06Z</time>
      </trkpt>
      <trkpt lat="42.82498" lon="17.75759">
        <ele>91</ele>
        <time>2016-07-19T22:48:06Z</time>
      </trkpt>
      <trkpt lat="42.82472" lon="17.75791">
        <ele>90</ele>
        <time>2016-07-19T22:50:06Z</time>
      </trkpt>
      <trkpt lat="42.82466" lon="17.75799">
        <ele>90</ele>
        <time>2016-07-19T22:52:06Z</time>
      </trkpt>
      <trkpt lat="42.82465" lon="17.75801">
        <ele>90</ele>
        <time>2016-07-19T22:54:06Z</time>
      </trkpt>
      <trkpt lat="42.8245" lon="17.75825">
        <ele>90</ele>
        <time>2016-07-19T22:56:06Z</time>
      </trkpt>
      <trkpt lat="42.8244" lon="17.75843">
        <ele>90</ele>
        <time>2016-07-19T22:58:06Z</time>
      </trkpt>
      <trkpt lat="42.82427" lon="17.75873">
        <ele>91</ele>
        <time>2016-07-19T23:00:06Z</time>
      </trkpt>
      <trkpt lat="42.8242" lon="17.75893">
        <ele>91</ele>
        <time>2016-07-19T23:02:06Z</time>
      </trkpt>
      <trkpt lat="42.82418" lon="17.759">
        <ele>91</ele>
        <time>2016-07-19T23:04:06Z</time>
      </trkpt>
      <trkpt lat="42.82413" lon="17.75914">
        <ele>91</ele>
        <time>2016-07-19T23:06:06Z</time>
      </trkpt>
      <trkpt lat="42.82408" lon="17.75936">
        <ele>93</ele>
        <time>2016-07-19T23:08:06Z</time>
      </trkpt>
      <trkpt lat="42.82405" lon="17.75947">
        <ele>94</ele>
        <time>2016-07-19T23:10:06Z</time>
      </trkpt>
      <trkpt lat="42.82401" lon="17.7597">
        <ele>95</ele>
        <time>2016-07-19T23:12:06Z</time>
      </trkpt>
      <trkpt lat="42.82399" lon="17.75981">
        <ele>96</ele>
        <time>2016-07-19T23:14:06Z</time>
      </trkpt>
      <trkpt lat="42.82398" lon="17.75993">
        <ele>97</ele>
        <time>2016-07-19T23:16:06Z</time>
      </trkpt>
      <trkpt lat="42.82301" lon="17.76502">
        <ele>121</ele>
        <time>2016-07-19T23:18:06Z</time>
      </trkpt>
      <trkpt lat="42.82283" lon="17.76557">
        <ele>121</ele>
        <time>2016-07-19T23:20:06Z</time>
      </trkpt>
      <trkpt lat="42.82273" lon="17.76585">
        <ele>120</ele>
        <time>2016-07-19T23:22:06Z</time>
      </trkpt>
      <trkpt lat="42.82255" lon="17.76627">
        <ele>120</ele>
        <time>2016-07-19T23:24:06Z</time>
      </trkpt>
      <trkpt lat="42.82251" lon="17.76638">
        <ele>120</ele>
        <time>2016-07-19T23:26:06Z</time>
      </trkpt>
      <trkpt lat="42.82238" lon="17.76664">
        <ele>120</ele>
        <time>2016-07-19T23:28:06Z</time>
      </trkpt>
      <trkpt lat="42.82226" lon="17.76689">
        <ele>121</ele>
        <time>2016-07-19T23:30:06Z</time>
      </trkpt>
      <trkpt lat="42.82226" lon="17.7669">
        <ele>121</ele>
        <time>2016-07-19T23:32:06Z</time>
      </trkpt>
      <trkpt lat="42.82213" lon="17.76715">
        <ele>120</ele>
        <time>2016-07-19T23:34:06Z</time>
      </trkpt>
      <trkpt lat="42.82199" lon="17.7674">
        <ele>119</ele>
        <time>2016-07-19T23:36:06Z</time>
      </trkpt>
      <trkpt lat="42.82172" lon="17.76788">
        <ele>120</ele>
        <time>2016-07-19T23:38:06Z</time>
      </trkpt>
      <trkpt lat="42.82167" lon="17.76796">
        <ele>120</ele>
        <time>2016-07-19T23:40:06Z</time>
      </trkpt>
      <trkpt lat="42.82166" lon="17.76801">
        <ele>120</ele>
        <time>2016-07-19T23:42:06Z</time>
      </trkpt>
      <trkpt lat="42.82165" lon="17.76802">
        <ele>120</ele>
        <time>2016-07-19T23:44:06Z</time>
      </trkpt>
      <trkpt lat="42.82165" lon="17.76806">
        <ele>121</ele>
        <time>2016-07-19T23:46:06Z</time>
      </trkpt>
      <trkpt lat="42.82159" lon="17.76815">
        <ele>121</ele>
        <time>2016-07-19T23:48:06Z</time>
      </trkpt>
      <trkpt lat="42.82055" lon="17.76988">
        <ele>127</ele>
        <time>2016-07-19T23:50:06Z</time>
      </trkpt>
      <trkpt lat="42.82045" lon="17.77005">
        <ele>126</ele>
        <time>2016-07-19T23:52:06Z</time>
      </trkpt>
      <trkpt lat="42.81841" lon="17.77356">
        <ele>125</ele>
        <time>2016-07-19T23:54:06Z</time>
      </trkpt>
      <trkpt lat="42.81835" lon="17.77364">
        <ele>125</ele>
        <time>2016-07-19T23:56:06Z</time>
      </trkpt>
      <trkpt lat="42.81805" lon="17.77417">
        <ele>125</ele>
        <time>2016-07-19T23:58:06Z</time>
      </trkpt>
      <trkpt lat="42.81775" lon="17.77474">
        <ele>126</ele>
        <time>2016-07-20T00:00:06Z</time>
      </trkpt>
      <trkpt lat="42.81758" lon="17.77514">
        <ele>127</ele>
        <time>2016-07-20T00:02:06Z</time>
      </trkpt>
      <trkpt lat="42.81727" lon="17.77593">
        <ele>128</ele>
        <time>2016-07-20T00:04:06Z</time>
      </trkpt>
      <trkpt lat="42.81712" lon="17.77633">
        <ele>129</ele>
        <time>2016-07-20T00:06:06Z</time>
      </trkpt>
      <trkpt lat="42.81699" lon="17.77675">
        <ele>130</ele>
        <time>2016-07-20T00:08:06Z</time>
      </trkpt>
      <trkpt lat="42.81689" lon="17.77707">
        <ele>130</ele>
        <time>2016-07-20T00:10:06Z</time>
      </trkpt>
      <trkpt lat="42.81687" lon="17.77714">
        <ele>130</ele>
        <time>2016-07-20T00:12:06Z</time>
      </trkpt>
      <trkpt lat="42.81675" lon="17.77752">
        <ele>131</ele>
        <time>2016-07-20T00:14:06Z</time>
      </trkpt>
      <trkpt lat="42.81664" lon="17.7779">
        <ele>132</ele>
        <time>2016-07-20T00:16:06Z</time>
      </trkpt>
      <trkpt lat="42.8165" lon="17.77826">
        <ele>133</ele>
        <time>2016-07-20T00:18:06Z</time>
      </trkpt>
      <trkpt lat="42.81634" lon="17.77865">
        <ele>134</ele>
        <time>2016-07-20T00:20:06Z</time>
      </trkpt>
      <trkpt lat="42.816" lon="17.77924">
        <ele>134</ele>
        <time>2016-07-20T00:22:06Z</time>
      </trkpt>
      <trkpt lat="42.81593" lon="17.77934">
        <ele>134</ele>
        <time>2016-07-20T00:24:06Z</time>
      </trkpt>
      <trkpt lat="42.81568" lon="17.77968">
        <ele>134</ele>
        <time>2016-07-20T00:26:06Z</time>
      </trkpt>
      <trkpt lat="42.81556" lon="17.77982">
        <ele>134</ele>
        <time>2016-07-20T00:28:06Z</time>
      </trkpt>
      <trkpt lat="42.81515" lon="17.78033">
        <ele>132</ele>
        <time>2016-07-20T00:30:06Z</time>
      </trkpt>
      <trkpt lat="42.81503" lon="17.78047">
        <ele>131</ele>
        <time>2016-07-20T00:32:06Z</time>
      </trkpt>
      <trkpt lat="42.81495" lon="17.7806">
        <ele>131</ele>
        <time>2016-07-20T00:34:06Z</time>
      </trkpt>
      <trkpt lat="42.81486" lon="17.78076">
        <ele>131</ele>
        <time>2016-07-20T00:36:06Z</time>
      </trkpt>
      <trkpt lat="42.81475" lon="17.78092">
        <ele>130</ele>
        <time>2016-07-20T00:38:06Z</time>
      </trkpt>
      <trkpt lat="42.81467" lon="17.78109">
        <ele>130</ele>
        <time>2016-07-20T00:40:06Z</time>
      </trkpt>
      <trkpt lat="42.81454" lon="17.78142">
        <ele>129</ele>
        <time>2016-07-20T00:42:06Z</time>
      </trkpt>
      <trkpt lat="42.81448" lon="17.78159">
        <ele>129</ele>
        <time>2016-07-20T00:44:06Z</time>
      </trkpt>
      <trkpt lat="42.81442" lon="17.78177">
        <ele>129</ele>
        <time>2016-07-20T00:46:06Z</time>
      </trkpt>
      <trkpt lat="42.81437" lon="17.78195">
        <ele>129</ele>
        <time>2016-07-20T00:48:06Z</time>
      </trkpt>
      <trkpt lat="42.81436" lon="17.782">
        <ele>129</ele>
        <time>2016-07-20T00:50:06Z</time>
      </trkpt>
      <trkpt lat="42.81433" lon="17.78214">
        <ele>129</ele>
        <time>2016-07-20T00:52:06Z</time>
      </trkpt>
      <trkpt lat="42.81431" lon="17.78229">
        <ele>129</ele>
        <time>2016-07-20T00:54:06Z</time>
      </trkpt>
      <trkpt lat="42.8143" lon="17.78238">
        <ele>130</ele>
        <time>2016-07-20T00:56:06Z</time>
      </trkpt>
      <trkpt lat="42.81428" lon="17.78253">
        <ele>130</ele>
        <time>2016-07-20T00:58:06Z</time>
      </trkpt>
      <trkpt lat="42.81427" lon="17.7829">
        <ele>128</ele>
        <time>2016-07-20T01:00:06Z</time>
      </trkpt>
      <trkpt lat="42.81426" lon="17.78305">
        <ele>128</ele>
        <time>2016-07-20T01:02:06Z</time>
      </trkpt>
      <trkpt lat="42.81428" lon="17.7833">
        <ele>128</ele>
        <time>2016-07-20T01:04:06Z</time>
      </trkpt>
      <trkpt lat="42.81437" lon="17.78403">
        <ele>127</ele>
        <time>2016-07-20T01:06:06Z</time>
      </trkpt>
      <trkpt lat="42.81446" lon="17.78461">
        <ele>127</ele>
        <time>2016-07-20T01:08:06Z</time>
      </trkpt>
      <trkpt lat="42.8145" lon="17.78495">
        <ele>126</ele>
        <time>2016-07-20T01:10:06Z</time>
      </trkpt>
      <trkpt lat="42.81452" lon="17.78529">
        <ele>126</ele>
        <time>2016-07-20T01:12:06Z</time>
      </trkpt>
      <trkpt lat="42.81451" lon="17.78559">
        <ele>126</ele>
        <time>2016-07-20T01:14:06Z</time>
      </trkpt>
      <trkpt lat="42.81448" lon="17.78585">
        <ele>125</ele>
        <time>2016-07-20T01:16:06Z</time>
      </trkpt>
      <trkpt lat="42.81445" lon="17.78606">
        <ele>127</ele>
        <time>2016-07-20T01:18:06Z</time>
      </trkpt>
      <trkpt lat="42.81441" lon="17.78627">
        <ele>128</ele>
        <time>2016-07-20T01:20:06Z</time>
      </trkpt>
      <trkpt lat="42.81438" lon="17.78636">
        <ele>128</ele>
        <time>2016-07-20T01:22:06Z</time>
      </trkpt>
      <trkpt lat="42.81433" lon="17.78655">
        <ele>129</ele>
        <time>2016-07-20T01:24:06Z</time>
      </trkpt>
      <trkpt lat="42.81424" lon="17.7868">
        <ele>129</ele>
        <time>2016-07-20T01:26:06Z</time>
      </trkpt>
      <trkpt lat="42.81411" lon="17.78705">
        <ele>128</ele>
        <time>2016-07-20T01:28:06Z</time>
      </trkpt>
      <trkpt lat="42.81404" lon="17.78717">
        <ele>128</ele>
        <time>2016-07-20T01:30:06Z</time>
      </trkpt>
      <trkpt lat="42.81361" lon="17.78785">
        <ele>123</ele>
        <time>2016-07-20T01:32:06Z</time>
      </trkpt>
      <trkpt lat="42.81354" lon="17.78797">
        <ele>122</ele>
        <time>2016-07-20T01:34:06Z</time>
      </trkpt>
      <trkpt lat="42.81351" lon="17.78802">
        <ele>122</ele>
        <time>2016-07-20T01:36:06Z</time>
      </trkpt>
      <trkpt lat="42.8134" lon="17.78821">
        <ele>121</ele>
        <time>2016-07-20T01:38:06Z</time>
      </trkpt>
      <trkpt lat="42.81334" lon="17.78835">
        <ele>120</ele>
        <time>2016-07-20T01:40:06Z</time>
      </trkpt>
      <trkpt lat="42.81327" lon="17.78852">
        <ele>122</ele>
        <time>2016-07-20T01:42:06Z</time>
      </trkpt>
      <trkpt lat="42.81322" lon="17.78871">
        <ele>124</ele>
        <time>2016-07-20T01:44:06Z</time>
      </trkpt>
      <trkpt lat="42.81322" lon="17.78874">
        <ele>124</ele>
        <time>2016-07-20T01:46:06Z</time>
      </trkpt>
      <trkpt lat="42.81313" lon="17.78923">
        <ele>128</ele>
        <time>2016-07-20T01:48:06Z</time>
      </trkpt>
      <trkpt lat="42.81311" lon="17.78934">
        <ele>127</ele>
        <time>2016-07-20T01:50:06Z</time>
      </trkpt>
      <trkpt lat="42.81309" lon="17.78957">
        <ele>127</ele>
        <time>2016-07-20T01:52:06Z</time>
      </trkpt>
      <trkpt lat="42.81308" lon="17.78968">
        <ele>127</ele>
        <time>2016-07-20T01:54:06Z</time>
      </trkpt>
      <trkpt lat="42.81304" lon="17.79044">
        <ele>129</ele>
        <time>2016-07-20T01:56:06Z</time>
      </trkpt>
      <trkpt lat="42.81302" lon="17.79052">
        <ele>129</ele>
        <time>2016-07-20T01:58:06Z</time>
      </trkpt>
      <trkpt lat="42.81297" lon="17.79085">
        <ele>130</ele>
        <time>2016-07-20T02:00:06Z</time>
      </trkpt>
      <trkpt lat="42.8129" lon="17.79114">
        <ele>131</ele>
        <time>2016-07-20T02:02:06Z</time>
      </trkpt>
      <trkpt lat="42.81284" lon="17.79133">
        <ele>131</ele>
        <time>2016-07-20T02:04:06Z</time>
      </trkpt>
      <trkpt lat="42.81273" lon="17.79162">
        <ele>130</ele>
        <time>2016-07-20T02:06:06Z</time>
      </trkpt>
      <trkpt lat="42.81269" lon="17.79172">
        <ele>131</ele>
        <time>2016-07-20T02:08:06Z</time>
      </trkpt>
      <trkpt lat="42.8126" lon="17.7919">
        <ele>132</ele>
        <time>2016-07-20T02:10:06Z</time>
      </trkpt>
      <trkpt lat="42.8125" lon="17.79208">
        <ele>133</ele>
        <time>2016-07-20T02:12:06Z</time>
      </trkpt>
      <trkpt lat="42.81233" lon="17.79234">
        <ele>134</ele>
        <time>2016-07-20T02:14:06Z</time>
      </trkpt>
      <trkpt lat="42.81226" lon="17.79243">
        <ele>134</ele>
        <time>2016-07-20T02:16:06Z</time>
      </trkpt>
      <trkpt lat="42.81219" lon="17.79251">
        <ele>133</ele>
        <time>2016-07-20T02:18:06Z</time>
      </trkpt>
      <trkpt lat="42.81205" lon="17.79267">
        <ele>133</ele>
        <time>2016-07-20T02:20:06Z</time>
      </trkpt>
      <trkpt lat="42.81194" lon="17.79277">
        <ele>132</ele>
        <time>2016-07-20T02:22:06Z</time>
      </trkpt>
      <trkpt lat="42.81184" lon="17.79287">
        <ele>131</ele>
        <time>2016-07-20T02:24:06Z</time>
      </trkpt>
      <trkpt lat="42.81176" lon="17.79294">
        <ele>130</ele>
        <time>2016-07-20T02:26:06Z</time>
      </trkpt>
      <trkpt lat="42.81173" lon="17.79297">
        <ele>130</ele>
        <time>2016-07-20T02:28:06Z</time>
      </trkpt>
      <trkpt lat="42.81163" lon="17.79309">
        <ele>130</ele>
        <time>2016-07-20T02:30:06Z</time>
      </trkpt>
      <trkpt lat="42.81154" lon="17.79321">
        <ele>129</ele>
        <time>2016-07-20T02:32:06Z</time>
      </trkpt>
      <trkpt lat="42.81145" lon="17.79334">
        <ele>129</ele>
        <time>2016-07-20T02:34:06Z</time>
      </trkpt>
      <trkpt lat="42.81136" lon="17.79347">
        <ele>129</ele>
        <time>2016-07-20T02:36:06Z</time>
      </trkpt>
      <trkpt lat="42.81128" lon="17.79361">
        <ele>128</ele>
        <time>2016-07-20T02:38:06Z</time>
      </trkpt>
      <trkpt lat="42.81121" lon="17.79375">
        <ele>128</ele>
        <time>2016-07-20T02:40:06Z</time>
      </trkpt>
      <trkpt lat="42.81113" lon="17.7939">
        <ele>127</ele>
        <time>2016-07-20T02:42:06Z</time>
      </trkpt>
      <trkpt lat="42.81107" lon="17.79405">
        <ele>127</ele>
        <time>2016-07-20T02:44:06Z</time>
      </trkpt>
      <trkpt lat="42.81102" lon="17.79419">
        <ele>126</ele>
        <time>2016-07-20T02:46:06Z</time>
      </trkpt>
      <trkpt lat="42.81097" lon="17.79433">
        <ele>125</ele>
        <time>2016-07-20T02:48:06Z</time>
      </trkpt>
      <trkpt lat="42.81092" lon="17.79447">
        <ele>124</ele>
        <time>2016-07-20T02:50:06Z</time>
      </trkpt>
      <trkpt lat="42.81088" lon="17.79462">
        <ele>123</ele>
        <time>2016-07-20T02:52:06Z</time>
      </trkpt>
      <trkpt lat="42.81086" lon="17.79468">
        <ele>122</ele>
        <time>2016-07-20T02:54:06Z</time>
      </trkpt>
      <trkpt lat="42.81084" lon="17.79477">
        <ele>122</ele>
        <time>2016-07-20T02:56:06Z</time>
      </trkpt>
      <trkpt lat="42.81081" lon="17.79492">
        <ele>122</ele>
        <time>2016-07-20T02:58:06Z</time>
      </trkpt>
      <trkpt lat="42.81076" lon="17.79522">
        <ele>121</ele>
        <time>2016-07-20T03:00:06Z</time>
      </trkpt>
      <trkpt lat="42.81077" lon="17.79553">
        <ele>123</ele>
        <time>2016-07-20T03:02:06Z</time>
      </trkpt>
      <trkpt lat="42.81078" lon="17.79579">
        <ele>124</ele>
        <time>2016-07-20T03:04:06Z</time>
      </trkpt>
      <trkpt lat="42.81083" lon="17.79636">
        <ele>126</ele>
        <time>2016-07-20T03:06:06Z</time>
      </trkpt>
      <trkpt lat="42.81084" lon="17.79661">
        <ele>125</ele>
        <time>2016-07-20T03:08:06Z</time>
      </trkpt>
      <trkpt lat="42.8109" lon="17.79737">
        <ele>129</ele>
        <time>2016-07-20T03:10:06Z</time>
      </trkpt>
      <trkpt lat="42.81089" lon="17.79762">
        <ele>129</ele>
        <time>2016-07-20T03:12:06Z</time>
      </trkpt>
      <trkpt lat="42.81088" lon="17.79786">
        <ele>130</ele>
        <time>2016-07-20T03:14:06Z</time>
      </trkpt>
      <trkpt lat="42.81087" lon="17.79811">
        <ele>130</ele>
        <time>2016-07-20T03:16:06Z</time>
      </trkpt>
      <trkpt lat="42.81085" lon="17.79836">
        <ele>131</ele>
        <time>2016-07-20T03:18:06Z</time>
      </trkpt>
      <trkpt lat="42.81083" lon="17.7986">
        <ele>132</ele>
        <time>2016-07-20T03:20:06Z</time>
      </trkpt>
      <trkpt lat="42.81062" lon="17.79976">
        <ele>135</ele>
        <time>2016-07-20T03:22:06Z</time>
      </trkpt>
      <trkpt lat="42.8106" lon="17.7999">
        <ele>135</ele>
        <time>2016-07-20T03:24:06Z</time>
      </trkpt>
      <trkpt lat="42.81058" lon="17.80004">
        <ele>135</ele>
        <time>2016-07-20T03:26:06Z</time>
      </trkpt>
      <trkpt lat="42.81058" lon="17.80018">
        <ele>134</ele>
        <time>2016-07-20T03:28:06Z</time>
      </trkpt>
      <trkpt lat="42.81058" lon="17.80032">
        <ele>133</ele>
        <time>2016-07-20T03:30:06Z</time>
      </trkpt>
      <trkpt lat="42.81058" lon="17.80046">
        <ele>132</ele>
        <time>2016-07-20T03:32:06Z</time>
      </trkpt>
      <trkpt lat="42.81059" lon="17.80061">
        <ele>132</ele>
        <time>2016-07-20T03:34:06Z</time>
      </trkpt>
      <trkpt lat="42.81061" lon="17.80078">
        <ele>131</ele>
        <time>2016-07-20T03:36:06Z</time>
      </trkpt>
      <trkpt lat="42.81064" lon="17.80093">
        <ele>131</ele>
        <time>2016-07-20T03:38:06Z</time>
      </trkpt>
      <trkpt lat="42.81068" lon="17.80105">
        <ele>132</ele>
        <time>2016-07-20T03:40:06Z</time>
      </trkpt>
      <trkpt lat="42.81076" lon="17.80134">
        <ele>131</ele>
        <time>2016-07-20T03:42:06Z</time>
      </trkpt>
      <trkpt lat="42.81083" lon="17.80166">
        <ele>130</ele>
        <time>2016-07-20T03:44:06Z</time>
      </trkpt>
      <trkpt lat="42.81085" lon="17.80189">
        <ele>134</ele>
        <time>2016-07-20T03:46:06Z</time>
      </trkpt>
      <trkpt lat="42.81085" lon="17.80204">
        <ele>136</ele>
        <time>2016-07-20T03:48:06Z</time>
      </trkpt>
      <trkpt lat="42.81084" lon="17.80213">
        <ele>136</ele>
        <time>2016-07-20T03:50:06Z</time>
      </trkpt>
      <trkpt lat="42.81083" lon="17.80224">
        <ele>137</ele>
        <time>2016-07-20T03:52:06Z</time>
      </trkpt>
      <trkpt lat="42.81082" lon="17.80235">
        <ele>138</ele>
        <time>2016-07-20T03:54:06Z</time>
      </trkpt>
      <trkpt lat="42.8108" lon="17.80245">
        <ele>139</ele>
        <time>2016-07-20T03:56:06Z</time>
      </trkpt>
      <trkpt lat="42.81078" lon="17.80255">
        <ele>139</ele>
        <time>2016-07-20T03:58:06Z</time>
      </trkpt>
      <trkpt lat="42.81075" lon="17.80265">
        <ele>139</ele>
        <time>2016-07-20T04:00:06Z</time>
      </trkpt>
      <trkpt lat="42.81063" lon="17.80301">
        <ele>138</ele>
        <time>2016-07-20T04:02:06Z</time>
      </trkpt>
      <trkpt lat="42.81017" lon="17.80418">
        <ele>133</ele>
        <time>2016-07-20T04:04:06Z</time>
      </trkpt>
      <trkpt lat="42.81011" lon="17.80433">
        <ele>134</ele>
        <time>2016-07-20T04:06:06Z</time>
      </trkpt>
      <trkpt lat="42.81006" lon="17.80449">
        <ele>134</ele>
        <time>2016-07-20T04:08:06Z</time>
      </trkpt>
      <trkpt lat="42.81002" lon="17.80465">
        <ele>136</ele>
        <time>2016-07-20T04:10:06Z</time>
      </trkpt>
      <trkpt lat="42.80997" lon="17.80482">
        <ele>136</ele>
        <time>2016-07-20T04:12:06Z</time>
      </trkpt>
      <trkpt lat="42.80994" lon="17.80498">
        <ele>137</ele>
        <time>2016-07-20T04:14:06Z</time>
      </trkpt>
      <trkpt lat="42.80988" lon="17.80532">
        <ele>137</ele>
        <time>2016-07-20T04:16:06Z</time>
      </trkpt>
      <trkpt lat="42.80984" lon="17.80566">
        <ele>138</ele>
        <time>2016-07-20T04:18:06Z</time>
      </trkpt>
      <trkpt lat="42.80982" lon="17.8059">
        <ele>138</ele>
        <time>2016-07-20T04:20:06Z</time>
      </trkpt>
      <trkpt lat="42.80982" lon="17.80596">
        <ele>138</ele>
        <time>2016-07-20T04:22:06Z</time>
      </trkpt>
      <trkpt lat="42.8098" lon="17.80611">
        <ele>138</ele>
        <time>2016-07-20T04:24:06Z</time>
      </trkpt>
      <trkpt lat="42.80978" lon="17.80626">
        <ele>137</ele>
        <time>2016-07-20T04:26:06Z</time>
      </trkpt>
      <trkpt lat="42.80975" lon="17.80641">
        <ele>136</ele>
        <time>2016-07-20T04:28:06Z</time>
      </trkpt>
      <trkpt lat="42.80973" lon="17.8066">
        <ele>135</ele>
        <time>2016-07-20T04:30:06Z</time>
      </trkpt>
      <trkpt lat="42.80966" lon="17.8069">
        <ele>134</ele>
        <time>2016-07-20T04:32:06Z</time>
      </trkpt>
      <trkpt lat="42.8096" lon="17.80716">
        <ele>134</ele>
        <time>2016-07-20T04:34:06Z</time>
      </trkpt>
      <trkpt lat="42.80945" lon="17.80761">
        <ele>133</ele>
        <time>2016-07-20T04:36:06Z</time>
      </trkpt>
      <trkpt lat="42.80934" lon="17.80785">
        <ele>134</ele>
        <time>2016-07-20T04:38:06Z</time>
      </trkpt>
      <trkpt lat="42.80926" lon="17.80802">
        <ele>136</ele>
        <time>2016-07-20T04:40:06Z</time>
      </trkpt>
      <trkpt lat="42.80903" lon="17.80843">
        <ele>136</ele>
        <time>2016-07-20T04:42:06Z</time>
      </trkpt>
      <trkpt lat="42.80885" lon="17.80868">
        <ele>133</ele>
        <time>2016-07-20T04:44:06Z</time>
      </trkpt>
      <trkpt lat="42.80862" lon="17.80893">
        <ele>131</ele>
        <time>2016-07-20T04:46:06Z</time>
      </trkpt>
      <trkpt lat="42.80835" lon="17.8092">
        <ele>131</ele>
        <time>2016-07-20T04:48:06Z</time>
      </trkpt>
      <trkpt lat="42.80797" lon="17.80948">
        <ele>127</ele>
        <time>2016-07-20T04:50:06Z</time>
      </trkpt>
      <trkpt lat="42.80725" lon="17.80992">
        <ele>123</ele>
        <time>2016-07-20T04:52:06Z</time>
      </trkpt>
      <trkpt lat="42.80678" lon="17.81024">
        <ele>123</ele>
        <time>2016-07-20T04:54:06Z</time>
      </trkpt>
      <trkpt lat="42.8067" lon="17.81033">
        <ele>124</ele>
        <time>2016-07-20T04:56:06Z</time>
      </trkpt>
      <trkpt lat="42.80662" lon="17.81042">
        <ele>123</ele>
        <time>2016-07-20T04:58:06Z</time>
      </trkpt>
      <trkpt lat="42.80653" lon="17.81055">
        <ele>122</ele>
        <time>2016-07-20T05:00:06Z</time>
      </trkpt>
      <trkpt lat="42.80625" lon="17.8111">
        <ele>119</ele>
        <time>2016-07-20T05:02:06Z</time>
      </trkpt>
      <trkpt lat="42.80618" lon="17.81139">
        <ele>119</ele>
        <time>2016-07-20T05:04:06Z</time>
      </trkpt>
      <trkpt lat="42.80614" lon="17.81157">
        <ele>120</ele>
        <time>2016-07-20T05:06:06Z</time>
      </trkpt>
      <trkpt lat="42.80611" lon="17.81188">
        <ele>120</ele>
        <time>2016-07-20T05:08:06Z</time>
      </trkpt>
      <trkpt lat="42.80612" lon="17.8121">
        <ele>119</ele>
        <time>2016-07-20T05:10:06Z</time>
      </trkpt>
      <trkpt lat="42.80616" lon="17.81245">
        <ele>120</ele>
        <time>2016-07-20T05:12:06Z</time>
      </trkpt>
      <trkpt lat="42.80629" lon="17.8129">
        <ele>119</ele>
        <time>2016-07-20T05:14:06Z</time>
      </trkpt>
      <trkpt lat="42.80645" lon="17.81332">
        <ele>118</ele>
        <time>2016-07-20T05:16:06Z</time>
      </trkpt>
      <trkpt lat="42.80684" lon="17.81405">
        <ele>120</ele>
        <time>2016-07-20T05:18:06Z</time>
      </trkpt>
      <trkpt lat="42.80713" lon="17.81458">
        <ele>121</ele>
        <time>2016-07-20T05:20:06Z</time>
      </trkpt>
      <trkpt lat="42.80724" lon="17.81482">
        <ele>120</ele>
        <time>2016-07-20T05:22:06Z</time>
      </trkpt>
      <trkpt lat="42.8073" lon="17.81502">
        <ele>118</ele>
        <time>2016-07-20T05:24:06Z</time>
      </trkpt>
      <trkpt lat="42.80734" lon="17.81518">
        <ele>116</ele>
        <time>2016-07-20T05:26:06Z</time>
      </trkpt>
      <trkpt lat="42.80736" lon="17.81535">
        <ele>114</ele>
        <time>2016-07-20T05:28:06Z</time>
      </trkpt>
      <trkpt lat="42.80734" lon="17.81557">
        <ele>110</ele>
        <time>2016-07-20T05:30:06Z</time>
      </trkpt>
      <trkpt lat="42.80732" lon="17.81571">
        <ele>107</ele>
        <time>2016-07-20T05:32:06Z</time>
      </trkpt>
      <trkpt lat="42.8073" lon="17.81587">
        <ele>106</ele>
        <time>2016-07-20T05:34:06Z</time>
      </trkpt>
      <trkpt lat="42.80725" lon="17.81608">
        <ele>108</ele>
        <time>2016-07-20T05:36:06Z</time>
      </trkpt>
      <trkpt lat="42.80704" lon="17.81647">
        <ele>109</ele>
        <time>2016-07-20T05:38:06Z</time>
      </trkpt>
      <trkpt lat="42.80687" lon="17.8167">
        <ele>108</ele>
        <time>2016-07-20T05:40:06Z</time>
      </trkpt>
      <trkpt lat="42.80668" lon="17.81689">
        <ele>109</ele>
        <time>2016-07-20T05:42:06Z</time>
      </trkpt>
      <trkpt lat="42.80632" lon="17.81721">
        <ele>105</ele>
        <time>2016-07-20T05:44:06Z</time>
      </trkpt>
      <trkpt lat="42.80609" lon="17.8174">
        <ele>100</ele>
        <time>2016-07-20T05:46:06Z</time>
      </trkpt>
      <trkpt lat="42.80585" lon="17.81765">
        <ele>96</ele>
        <time>2016-07-20T05:48:06Z</time>
      </trkpt>
      <trkpt lat="42.80548" lon="17.8183">
        <ele>98</ele>
        <time>2016-07-20T05:50:06Z</time>
      </trkpt>
      <trkpt lat="42.80517" lon="17.81898">
        <ele>99</ele>
        <time>2016-07-20T05:52:06Z</time>
      </trkpt>
      <trkpt lat="42.80499" lon="17.81934">
        <ele>97</ele>
        <time>2016-07-20T05:54:06Z</time>
      </trkpt>
      <trkpt lat="42.80491" lon="17.81952">
        <ele>97</ele>
        <time>2016-07-20T05:56:06Z</time>
      </trkpt>
      <trkpt lat="42.80483" lon="17.81969">
        <ele>97</ele>
        <time>2016-07-20T05:58:06Z</time>
      </trkpt>
      <trkpt lat="42.80407" lon="17.82128">
        <ele>85</ele>
        <time>2016-07-20T06:00:06Z</time>
      </trkpt>
      <trkpt lat="42.80395" lon="17.82156">
        <ele>84</ele>
        <time>2016-07-20T06:02:06Z</time>
      </trkpt>
      <trkpt lat="42.80384" lon="17.82184">
        <ele>83</ele>
        <time>2016-07-20T06:04:06Z</time>
      </trkpt>
      <trkpt lat="42.80379" lon="17.82198">
        <ele>83</ele>
        <time>2016-07-20T06:06:06Z</time>
      </trkpt>
      <trkpt lat="42.8037" lon="17.82228">
        <ele>84</ele>
        <time>2016-07-20T06:08:06Z</time>
      </trkpt>
      <trkpt lat="42.80366" lon="17.82243">
        <ele>85</ele>
        <time>2016-07-20T06:10:06Z</time>
      </trkpt>
      <trkpt lat="42.80358" lon="17.82273">
        <ele>84</ele>
        <time>2016-07-20T06:12:06Z</time>
      </trkpt>
      <trkpt lat="42.80357" lon="17.82283">
        <ele>84</ele>
        <time>2016-07-20T06:14:06Z</time>
      </trkpt>
      <trkpt lat="42.80352" lon="17.82303">
        <ele>83</ele>
        <time>2016-07-20T06:16:06Z</time>
      </trkpt>
      <trkpt lat="42.80349" lon="17.82319">
        <ele>83</ele>
        <time>2016-07-20T06:18:06Z</time>
      </trkpt>
      <trkpt lat="42.80344" lon="17.82351">
        <ele>81</ele>
        <time>2016-07-20T06:20:06Z</time>
      </trkpt>
      <trkpt lat="42.80341" lon="17.82382">
        <ele>77</ele>
        <time>2016-07-20T06:22:06Z</time>
      </trkpt>
      <trkpt lat="42.80339" lon="17.82392">
        <ele>76</ele>
        <time>2016-07-20T06:24:06Z</time>
      </trkpt>
      <trkpt lat="42.80336" lon="17.82402">
        <ele>74</ele>
        <time>2016-07-20T06:26:06Z</time>
      </trkpt>
      <trkpt lat="42.80333" lon="17.82412">
        <ele>72</ele>
        <time>2016-07-20T06:28:06Z</time>
      </trkpt>
      <trkpt lat="42.80326" lon="17.82431">
        <ele>71</ele>
        <time>2016-07-20T06:30:06Z</time>
      </trkpt>
      <trkpt lat="42.80318" lon="17.82449">
        <ele>71</ele>
        <time>2016-07-20T06:32:06Z</time>
      </trkpt>
      <trkpt lat="42.80309" lon="17.82466">
        <ele>72</ele>
        <time>2016-07-20T06:34:06Z</time>
      </trkpt>
      <trkpt lat="42.803" lon="17.82481">
        <ele>72</ele>
        <time>2016-07-20T06:36:06Z</time>
      </trkpt>
      <trkpt lat="42.8029" lon="17.82496">
        <ele>72</ele>
        <time>2016-07-20T06:38:06Z</time>
      </trkpt>
      <trkpt lat="42.80284" lon="17.82503">
        <ele>72</ele>
        <time>2016-07-20T06:40:06Z</time>
      </trkpt>
      <trkpt lat="42.80268" lon="17.82527">
        <ele>71</ele>
        <time>2016-07-20T06:42:06Z</time>
      </trkpt>
      <trkpt lat="42.8026" lon="17.82539">
        <ele>71</ele>
        <time>2016-07-20T06:44:06Z</time>
      </trkpt>
      <trkpt lat="42.80246" lon="17.82564">
        <ele>70</ele>
        <time>2016-07-20T06:46:06Z</time>
      </trkpt>
      <trkpt lat="42.80239" lon="17.82578">
        <ele>70</ele>
        <time>2016-07-20T06:48:06Z</time>
      </trkpt>
      <trkpt lat="42.80226" lon="17.82605">
        <ele>67</ele>
        <time>2016-07-20T06:50:06Z</time>
      </trkpt>
      <trkpt lat="42.80214" lon="17.82632">
        <ele>65</ele>
        <time>2016-07-20T06:52:06Z</time>
      </trkpt>
      <trkpt lat="42.80208" lon="17.82647">
        <ele>64</ele>
        <time>2016-07-20T06:54:06Z</time>
      </trkpt>
      <trkpt lat="42.80203" lon="17.82661">
        <ele>63</ele>
        <time>2016-07-20T06:56:06Z</time>
      </trkpt>
      <trkpt lat="42.80198" lon="17.82676">
        <ele>62</ele>
        <time>2016-07-20T06:58:06Z</time>
      </trkpt>
      <trkpt lat="42.80189" lon="17.82705">
        <ele>60</ele>
        <time>2016-07-20T07:00:06Z</time>
      </trkpt>
      <trkpt lat="42.8018" lon="17.82735">
        <ele>58</ele>
        <time>2016-07-20T07:02:06Z</time>
      </trkpt>
      <trkpt lat="42.80176" lon="17.82753">
        <ele>57</ele>
        <time>2016-07-20T07:04:06Z</time>
      </trkpt>
      <trkpt lat="42.80174" lon="17.82766">
        <ele>57</ele>
        <time>2016-07-20T07:06:06Z</time>
      </trkpt>
      <trkpt lat="42.80171" lon="17.82781">
        <ele>56</ele>
        <time>2016-07-20T07:08:06Z</time>
      </trkpt>
      <trkpt lat="42.80165" lon="17.82813">
        <ele>53</ele>
        <time>2016-07-20T07:10:06Z</time>
      </trkpt>
      <trkpt lat="42.80165" lon="17.82817">
        <ele>53</ele>
        <time>2016-07-20T07:12:06Z</time>
      </trkpt>
      <trkpt lat="42.80163" lon="17.82835">
        <ele>53</ele>
        <time>2016-07-20T07:14:06Z</time>
      </trkpt>
      <trkpt lat="42.80162" lon="17.8285">
        <ele>52</ele>
        <time>2016-07-20T07:16:06Z</time>
      </trkpt>
      <trkpt lat="42.80157" lon="17.82894">
        <ele>49</ele>
        <time>2016-07-20T07:18:06Z</time>
      </trkpt>
      <trkpt lat="42.80157" lon="17.8305">
        <ele>44</ele>
        <time>2016-07-20T07:20:06Z</time>
      </trkpt>
      <trkpt lat="42.80158" lon="17.83064">
        <ele>44</ele>
        <time>2016-07-20T07:22:06Z</time>
      </trkpt>
      <trkpt lat="42.8016" lon="17.83078">
        <ele>45</ele>
        <time>2016-07-20T07:24:06Z</time>
      </trkpt>
      <trkpt lat="42.80165" lon="17.83106">
        <ele>43</ele>
        <time>2016-07-20T07:26:06Z</time>
      </trkpt>
      <trkpt lat="42.80167" lon="17.8312">
        <ele>42</ele>
        <time>2016-07-20T07:28:06Z</time>
      </trkpt>
      <trkpt lat="42.8017" lon="17.83134">
        <ele>42</ele>
        <time>2016-07-20T07:30:06Z</time>
      </trkpt>
      <trkpt lat="42.80177" lon="17.83161">
        <ele>41</ele>
        <time>2016-07-20T07:32:06Z</time>
      </trkpt>
      <trkpt lat="42.80185" lon="17.83188">
        <ele>41</ele>
        <time>2016-07-20T07:34:06Z</time>
      </trkpt>
      <trkpt lat="42.80198" lon="17.83224">
        <ele>41</ele>
        <time>2016-07-20T07:36:06Z</time>
      </trkpt>
      <trkpt lat="42.80202" lon="17.83235">
        <ele>41</ele>
        <time>2016-07-20T07:38:06Z</time>
      </trkpt>
      <trkpt lat="42.80216" lon="17.83266">
        <ele>40</ele>
        <time>2016-07-20T07:40:06Z</time>
      </trkpt>
      <trkpt lat="42.8022" lon="17.83275">
        <ele>40</ele>
        <time>2016-07-20T07:42:06Z</time>
      </trkpt>
      <trkpt lat="42.80225" lon="17.83284">
        <ele>40</ele>
        <time>2016-07-20T07:44:06Z</time>
      </trkpt>
      <trkpt lat="42.80229" lon="17.83292">
        <ele>40</ele>
        <time>2016-07-20T07:46:06Z</time>
      </trkpt>
      <trkpt lat="42.80238" lon="17.83307">
        <ele>40</ele>
        <time>2016-07-20T07:48:06Z</time>
      </trkpt>
      <trkpt lat="42.80243" lon="17.83313">
        <ele>40</ele>
        <time>2016-07-20T07:50:06Z</time>
      </trkpt>
      <trkpt lat="42.80252" lon="17.83325">
        <ele>40</ele>
        <time>2016-07-20T07:52:06Z</time>
      </trkpt>
      <trkpt lat="42.80257" lon="17.83331">
        <ele>39</ele>
        <time>2016-07-20T07:54:06Z</time>
      </trkpt>
      <trkpt lat="42.80262" lon="17.83336">
        <ele>39</ele>
        <time>2016-07-20T07:56:06Z</time>
      </trkpt>
      <trkpt lat="42.80267" lon="17.83341">
        <ele>39</ele>
        <time>2016-07-20T07:58:06Z</time>
      </trkpt>
      <trkpt lat="42.80276" lon="17.83352">
        <ele>38</ele>
        <time>2016-07-20T08:00:06Z</time>
      </trkpt>
      <trkpt lat="42.80284" lon="17.83364">
        <ele>38</ele>
        <time>2016-07-20T08:02:06Z</time>
      </trkpt>
      <trkpt lat="42.80288" lon="17.8337">
        <ele>37</ele>
        <time>2016-07-20T08:04:06Z</time>
      </trkpt>
      <trkpt lat="42.80295" lon="17.83384">
        <ele>36</ele>
        <time>2016-07-20T08:06:06Z</time>
      </trkpt>
      <trkpt lat="42.80301" lon="17.83398">
        <ele>35</ele>
        <time>2016-07-20T08:08:06Z</time>
      </trkpt>
      <trkpt lat="42.80304" lon="17.83406">
        <ele>34</ele>
        <time>2016-07-20T08:10:06Z</time>
      </trkpt>
      <trkpt lat="42.80308" lon="17.83422">
        <ele>33</ele>
        <time>2016-07-20T08:12:06Z</time>
      </trkpt>
      <trkpt lat="42.8031" lon="17.8343">
        <ele>33</ele>
        <time>2016-07-20T08:14:06Z</time>
      </trkpt>
      <trkpt lat="42.80311" lon="17.83438">
        <ele>33</ele>
        <time>2016-07-20T08:16:06Z</time>
      </trkpt>
      <trkpt lat="42.80312" lon="17.83446">
        <ele>33</ele>
        <time>2016-07-20T08:18:06Z</time>
      </trkpt>
      <trkpt lat="42.80314" lon="17.83463">
        <ele>33</ele>
        <time>2016-07-20T08:20:06Z</time>
      </trkpt>
      <trkpt lat="42.80314" lon="17.83472">
        <ele>32</ele>
        <time>2016-07-20T08:22:06Z</time>
      </trkpt>
      <trkpt lat="42.80324" lon="17.83609">
        <ele>24</ele>
        <time>2016-07-20T08:24:06Z</time>
      </trkpt>
      <trkpt lat="42.80325" lon="17.83619">
        <ele>23</ele>
        <time>2016-07-20T08:26:06Z</time>
      </trkpt>
      <trkpt lat="42.80327" lon="17.83626">
        <ele>23</ele>
        <time>2016-07-20T08:28:06Z</time>
      </trkpt>
      <trkpt lat="42.80332" lon="17.83644">
        <ele>22</ele>
        <time>2016-07-20T08:30:06Z</time>
      </trkpt>
      <trkpt lat="42.80334" lon="17.83652">
        <ele>22</ele>
        <time>2016-07-20T08:32:06Z</time>
      </trkpt>
      <trkpt lat="42.80337" lon="17.8366">
        <ele>22</ele>
        <time>2016-07-20T08:34:06Z</time>
      </trkpt>
      <trkpt lat="42.80344" lon="17.83676">
        <ele>21</ele>
        <time>2016-07-20T08:36:06Z</time>
      </trkpt>
      <trkpt lat="42.80347" lon="17.83684">
        <ele>21</ele>
        <time>2016-07-20T08:38:06Z</time>
      </trkpt>
      <trkpt lat="42.80359" lon="17.83706">
        <ele>21</ele>
        <time>2016-07-20T08:40:06Z</time>
      </trkpt>
      <trkpt lat="42.80367" lon="17.83718">
        <ele>20</ele>
        <time>2016-07-20T08:42:06Z</time>
      </trkpt>
      <trkpt lat="42.80376" lon="17.83729">
        <ele>20</ele>
        <time>2016-07-20T08:44:06Z</time>
      </trkpt>
      <trkpt lat="42.80438" lon="17.83794">
        <ele>20</ele>
        <time>2016-07-20T08:46:06Z</time>
      </trkpt>
      <trkpt lat="42.80443" lon="17.83799">
        <ele>20</ele>
        <time>2016-07-20T08:48:06Z</time>
      </trkpt>
      <trkpt lat="42.80448" lon="17.83805">
        <ele>21</ele>
        <time>2016-07-20T08:50:06Z</time>
      </trkpt>
      <trkpt lat="42.80458" lon="17.83817">
        <ele>21</ele>
        <time>2016-07-20T08:52:06Z</time>
      </trkpt>
      <trkpt lat="42.80461" lon="17.83819">
        <ele>21</ele>
        <time>2016-07-20T08:54:06Z</time>
      </trkpt>
      <trkpt lat="42.80463" lon="17.83823">
        <ele>21</ele>
        <time>2016-07-20T08:56:06Z</time>
      </trkpt>
      <trkpt lat="42.80476" lon="17.83847">
        <ele>19</ele>
        <time>2016-07-20T08:58:06Z</time>
      </trkpt>
      <trkpt lat="42.80489" lon="17.83878">
        <ele>16</ele>
        <time>2016-07-20T09:00:06Z</time>
      </trkpt>
      <trkpt lat="42.80499" lon="17.83916">
        <ele>11</ele>
        <time>2016-07-20T09:02:06Z</time>
      </trkpt>
      <trkpt lat="42.80504" lon="17.83965">
        <ele>9</ele>
        <time>2016-07-20T09:04:06Z</time>
      </trkpt>
      <trkpt lat="42.80504" lon="17.83995">
        <ele>8</ele>
        <time>2016-07-20T09:06:06Z</time>
      </trkpt>
      <trkpt lat="42.80498" lon="17.84068">
        <ele>11</ele>
        <time>2016-07-20T09:08:06Z</time>
      </trkpt>
      <trkpt lat="42.80489" lon="17.84134">
        <ele>14</ele>
        <time>2016-07-20T09:10:06Z</time>
      </trkpt>
      <trkpt lat="42.80476" lon="17.84205">
        <ele>14</ele>
        <time>2016-07-20T09:12:06Z</time>
      </trkpt>
      <trkpt lat="42.80467" lon="17.84242">
        <ele>14</ele>
        <time>2016-07-20T09:14:06Z</time>
      </trkpt>
      <trkpt lat="42.80455" lon="17.8428">
        <ele>13</ele>
        <time>2016-07-20T09:16:06Z</time>
      </trkpt>
      <trkpt lat="42.80442" lon="17.84318">
        <ele>14</ele>
        <time>2016-07-20T09:18:06Z</time>
      </trkpt>
      <trkpt lat="42.80436" lon="17.84332">
        <ele>13</ele>
        <time>2016-07-20T09:20:06Z</time>
      </trkpt>
      <trkpt lat="42.80424" lon="17.8436">
        <ele>11</ele>
        <time>2016-07-20T09:22:06Z</time>
      </trkpt>
      <trkpt lat="42.80403" lon="17.8441">
        <ele>9</ele>
        <time>2016-07-20T09:24:06Z</time>
      </trkpt>
      <trkpt lat="42.80386" lon="17.84448">
        <ele>9</ele>
        <time>2016-07-20T09:26:06Z</time>
      </trkpt>
      <trkpt lat="42.80378" lon="17.84466">
        <ele>9</ele>
        <time>2016-07-20T09:28:06Z</time>
      </trkpt>
      <trkpt lat="42.80374" lon="17.84486">
        <ele>9</ele>
        <time>2016-07-20T09:30:06Z</time>
      </trkpt>
      <trkpt lat="42.80373" lon="17.84512">
        <ele>10</ele>
        <time>2016-07-20T09:32:06Z</time>
      </trkpt>
      <trkpt lat="42.80373" lon="17.84531">
        <ele>10</ele>
        <time>2016-07-20T09:34:06Z</time>
      </trkpt>
      <trkpt lat="42.80375" lon="17.84557">
        <ele>12</ele>
        <time>2016-07-20T09:36:06Z</time>
      </trkpt>
      <trkpt lat="42.80374" lon="17.84566">
        <ele>12</ele>
        <time>2016-07-20T09:38:06Z</time>
      </trkpt>
      <trkpt lat="42.80374" lon="17.84575">
        <ele>12</ele>
        <time>2016-07-20T09:40:06Z</time>
      </trkpt>
      <trkpt lat="42.80371" lon="17.84593">
        <ele>12</ele>
        <time>2016-07-20T09:42:06Z</time>
      </trkpt>
      <trkpt lat="42.80368" lon="17.84611">
        <ele>12</ele>
        <time>2016-07-20T09:44:06Z</time>
      </trkpt>
      <trkpt lat="42.80364" lon="17.84628">
        <ele>12</ele>
        <time>2016-07-20T09:46:06Z</time>
      </trkpt>
      <trkpt lat="42.80357" lon="17.84651">
        <ele>11</ele>
        <time>2016-07-20T09:48:06Z</time>
      </trkpt>
      <trkpt lat="42.80355" lon="17.84657">
        <ele>11</ele>
        <time>2016-07-20T09:50:06Z</time>
      </trkpt>
      <trkpt lat="42.8035" lon="17.84668">
        <ele>10</ele>
        <time>2016-07-20T09:52:06Z</time>
      </trkpt>
      <trkpt lat="42.80344" lon="17.84678">
        <ele>10</ele>
        <time>2016-07-20T09:54:06Z</time>
      </trkpt>
      <trkpt lat="42.80335" lon="17.84688">
        <ele>8</ele>
        <time>2016-07-20T09:56:06Z</time>
      </trkpt>
      <trkpt lat="42.80327" lon="17.84697">
        <ele>8</ele>
        <time>2016-07-20T09:58:06Z</time>
      </trkpt>
      <trkpt lat="42.80322" lon="17.847">
        <ele>9</ele>
        <time>2016-07-20T10:00:06Z</time>
      </trkpt>
      <trkpt lat="42.80315" lon="17.84705">
        <ele>9</ele>
        <time>2016-07-20T10:02:06Z</time>
      </trkpt>
      <trkpt lat="42.80246" lon="17.84735">
        <ele>12</ele>
        <time>2016-07-20T10:04:06Z</time>
      </trkpt>
      <trkpt lat="42.80215" lon="17.84756">
        <ele>14</ele>
        <time>2016-07-20T10:06:06Z</time>
      </trkpt>
      <trkpt lat="42.80208" lon="17.84765">
        <ele>15</ele>
        <time>2016-07-20T10:08:06Z</time>
      </trkpt>
      <trkpt lat="42.80201" lon="17.84773">
        <ele>16</ele>
        <time>2016-07-20T10:10:06Z</time>
      </trkpt>
      <trkpt lat="42.80189" lon="17.84791">
        <ele>18</ele>
        <time>2016-07-20T10:12:06Z</time>
      </trkpt>
      <trkpt lat="42.80178" lon="17.8481">
        <ele>20</ele>
        <time>2016-07-20T10:14:06Z</time>
      </trkpt>
      <trkpt lat="42.80172" lon="17.84819">
        <ele>21</ele>
        <time>2016-07-20T10:16:06Z</time>
      </trkpt>
      <trkpt lat="42.80162" lon="17.84839">
        <ele>23</ele>
        <time>2016-07-20T10:18:06Z</time>
      </trkpt>
      <trkpt lat="42.80154" lon="17.84859">
        <ele>25</ele>
        <time>2016-07-20T10:20:06Z</time>
      </trkpt>
      <trkpt lat="42.80146" lon="17.84879">
        <ele>26</ele>
        <time>2016-07-20T10:22:06Z</time>
      </trkpt>
      <trkpt lat="42.8014" lon="17.84896">
        <ele>27</ele>
        <time>2016-07-20T10:24:06Z</time>
      </trkpt>
      <trkpt lat="42.80134" lon="17.84912">
        <ele>28</ele>
        <time>2016-07-20T10:26:06Z</time>
      </trkpt>
      <trkpt lat="42.80126" lon="17.84927">
        <ele>29</ele>
        <time>2016-07-20T10:28:06Z</time>
      </trkpt>
      <trkpt lat="42.80122" lon="17.84934">
        <ele>29</ele>
        <time>2016-07-20T10:30:06Z</time>
      </trkpt>
      <trkpt lat="42.80117" lon="17.84941">
        <ele>29</ele>
        <time>2016-07-20T10:32:06Z</time>
      </trkpt>
      <trkpt lat="42.80108" lon="17.84954">
        <ele>29</ele>
        <time>2016-07-20T10:34:06Z</time>
      </trkpt>
      <trkpt lat="42.80103" lon="17.8496">
        <ele>29</ele>
        <time>2016-07-20T10:36:06Z</time>
      </trkpt>
      <trkpt lat="42.80098" lon="17.84965">
        <ele>29</ele>
        <time>2016-07-20T10:38:06Z</time>
      </trkpt>
      <trkpt lat="42.80088" lon="17.84975">
        <ele>29</ele>
        <time>2016-07-20T10:40:06Z</time>
      </trkpt>
      <trkpt lat="42.80083" lon="17.8498">
        <ele>29</ele>
        <time>2016-07-20T10:42:06Z</time>
      </trkpt>
      <trkpt lat="42.80072" lon="17.84988">
        <ele>30</ele>
        <time>2016-07-20T10:44:06Z</time>
      </trkpt>
      <trkpt lat="42.80052" lon="17.84999">
        <ele>33</ele>
        <time>2016-07-20T10:46:06Z</time>
      </trkpt>
      <trkpt lat="42.8005" lon="17.84997">
        <ele>33</ele>
        <time>2016-07-20T10:48:06Z</time>
      </trkpt>
      <trkpt lat="42.80049" lon="17.84996">
        <ele>33</ele>
        <time>2016-07-20T10:50:06Z</time>
      </trkpt>
      <trkpt lat="42.80047" lon="17.84996">
        <ele>33</ele>
        <time>2016-07-20T10:52:06Z</time>
      </trkpt>
      <trkpt lat="42.80044" lon="17.84995">
        <ele>33</ele>
        <time>2016-07-20T10:54:06Z</time>
      </trkpt>
      <trkpt lat="42.8004" lon="17.84996">
        <ele>33</ele>
        <time>2016-07-20T10:56:06Z</time>
      </trkpt>
      <trkpt lat="42.8002" lon="17.84997">
        <ele>35</ele>
        <time>2016-07-20T10:58:06Z</time>
      </trkpt>
      <trkpt lat="42.79971" lon="17.84994">
        <ele>38</ele>
        <time>2016-07-20T11:00:06Z</time>
      </trkpt>
      <trkpt lat="42.7994" lon="17.84993">
        <ele>39</ele>
        <time>2016-07-20T11:02:06Z</time>
      </trkpt>
      <trkpt lat="42.79906" lon="17.84997">
        <ele>39</ele>
        <time>2016-07-20T11:04:06Z</time>
      </trkpt>
      <trkpt lat="42.79873" lon="17.85007">
        <ele>37</ele>
        <time>2016-07-20T11:06:06Z</time>
      </trkpt>
      <trkpt lat="42.79844" lon="17.8502">
        <ele>36</ele>
        <time>2016-07-20T11:08:06Z</time>
      </trkpt>
      <trkpt lat="42.79836" lon="17.85025">
        <ele>35</ele>
        <time>2016-07-20T11:10:06Z</time>
      </trkpt>
      <trkpt lat="42.7982" lon="17.85036">
        <ele>35</ele>
        <time>2016-07-20T11:12:06Z</time>
      </trkpt>
      <trkpt lat="42.79813" lon="17.85042">
        <ele>34</ele>
        <time>2016-07-20T11:14:06Z</time>
      </trkpt>
      <trkpt lat="42.79805" lon="17.85048">
        <ele>34</ele>
        <time>2016-07-20T11:16:06Z</time>
      </trkpt>
      <trkpt lat="42.79799" lon="17.85054">
        <ele>34</ele>
        <time>2016-07-20T11:18:06Z</time>
      </trkpt>
      <trkpt lat="42.79798" lon="17.85055">
        <ele>34</ele>
        <time>2016-07-20T11:20:06Z</time>
      </trkpt>
      <trkpt lat="42.79789" lon="17.85069">
        <ele>34</ele>
        <time>2016-07-20T11:22:06Z</time>
      </trkpt>
      <trkpt lat="42.79776" lon="17.85084">
        <ele>35</ele>
        <time>2016-07-20T11:24:06Z</time>
      </trkpt>
      <trkpt lat="42.79761" lon="17.85101">
        <ele>35</ele>
        <time>2016-07-20T11:26:06Z</time>
      </trkpt>
      <trkpt lat="42.79748" lon="17.85119">
        <ele>35</ele>
        <time>2016-07-20T11:28:06Z</time>
      </trkpt>
      <trkpt lat="42.79727" lon="17.85154">
        <ele>37</ele>
        <time>2016-07-20T11:30:06Z</time>
      </trkpt>
      <trkpt lat="42.79723" lon="17.8516">
        <ele>37</ele>
        <time>2016-07-20T11:32:06Z</time>
      </trkpt>
      <trkpt lat="42.79699" lon="17.8521">
        <ele>38</ele>
        <time>2016-07-20T11:34:06Z</time>
      </trkpt>
      <trkpt lat="42.79685" lon="17.85241">
        <ele>38</ele>
        <time>2016-07-20T11:36:06Z</time>
      </trkpt>
      <trkpt lat="42.79673" lon="17.85263">
        <ele>37</ele>
        <time>2016-07-20T11:38:06Z</time>
      </trkpt>
      <trkpt lat="42.79657" lon="17.85294">
        <ele>37</ele>
        <time>2016-07-20T11:40:06Z</time>
      </trkpt>
      <trkpt lat="42.79633" lon="17.8533">
        <ele>37</ele>
        <time>2016-07-20T11:42:06Z</time>
      </trkpt>
      <trkpt lat="42.79626" lon="17.85339">
        <ele>37</ele>
        <time>2016-07-20T11:44:06Z</time>
      </trkpt>
      <trkpt lat="42.79601" lon="17.8537">
        <ele>37</ele>
        <time>2016-07-20T11:46:06Z</time>
      </trkpt>
      <trkpt lat="42.79588" lon="17.85384">
        <ele>36</ele>
        <time>2016-07-20T11:48:06Z</time>
      </trkpt>
      <trkpt lat="42.79575" lon="17.85395">
        <ele>36</ele>
        <time>2016-07-20T11:50:06Z</time>
      </trkpt>
      <trkpt lat="42.7957" lon="17.85399">
        <ele>36</ele>
        <time>2016-07-20T11:52:06Z</time>
      </trkpt>
      <trkpt lat="42.7956" lon="17.85406">
        <ele>37</ele>
        <time>2016-07-20T11:54:06Z</time>
      </trkpt>
      <trkpt lat="42.79553" lon="17.85411">
        <ele>37</ele>
        <time>2016-07-20T11:56:06Z</time>
      </trkpt>
      <trkpt lat="42.79538" lon="17.85419">
        <ele>37</ele>
        <time>2016-07-20T11:58:06Z</time>
      </trkpt>
      <trkpt lat="42.79531" lon="17.85423">
        <ele>37</ele>
        <time>2016-07-20T12:00:06Z</time>
      </trkpt>
      <trkpt lat="42.79516" lon="17.85429">
        <ele>37</ele>
        <time>2016-07-20T12:02:06Z</time>
      </trkpt>
      <trkpt lat="42.79502" lon="17.85434">
        <ele>36</ele>
        <time>2016-07-20T12:04:06Z</time>
      </trkpt>
      <trkpt lat="42.79499" lon="17.85434">
        <ele>36</ele>
        <time>2016-07-20T12:06:06Z</time>
      </trkpt>
      <trkpt lat="42.79487" lon="17.85437">
        <ele>36</ele>
        <time>2016-07-20T12:08:06Z</time>
      </trkpt>
      <trkpt lat="42.7948" lon="17.85438">
        <ele>36</ele>
        <time>2016-07-20T12:10:06Z</time>
      </trkpt>
      <trkpt lat="42.79465" lon="17.85439">
        <ele>36</ele>
        <time>2016-07-20T12:12:06Z</time>
      </trkpt>
      <trkpt lat="42.7945" lon="17.85441">
        <ele>36</ele>
        <time>2016-07-20T12:14:06Z</time>
      </trkpt>
      <trkpt lat="42.79428" lon="17.85443">
        <ele>36</ele>
        <time>2016-07-20T12:16:06Z</time>
      </trkpt>
      <trkpt lat="42.79405" lon="17.85444">
        <ele>36</ele>
        <time>2016-07-20T12:18:06Z</time>
      </trkpt>
      <trkpt lat="42.79385" lon="17.85443">
        <ele>37</ele>
        <time>2016-07-20T12:20:06Z</time>
      </trkpt>
      <trkpt lat="42.79378" lon="17.85443">
        <ele>37</ele>
        <time>2016-07-20T12:22:06Z</time>
      </trkpt>
      <trkpt lat="42.79371" lon="17.85443">
        <ele>37</ele>
        <time>2016-07-20T12:24:06Z</time>
      </trkpt>
      <trkpt lat="42.79227" lon="17.85431">
        <ele>41</ele>
        <time>2016-07-20T12:26:06Z</time>
      </trkpt>
      <trkpt lat="42.79203" lon="17.85429">
        <ele>41</ele>
        <time>2016-07-20T12:28:06Z</time>
      </trkpt>
      <trkpt lat="42.7919" lon="17.85428">
        <ele>41</ele>
        <time>2016-07-20T12:30:06Z</time>
      </trkpt>
      <trkpt lat="42.79184" lon="17.85427">
        <ele>41</ele>
        <time>2016-07-20T12:32:06Z</time>
      </trkpt>
      <trkpt lat="42.79161" lon="17.85426">
        <ele>40</ele>
        <time>2016-07-20T12:34:06Z</time>
      </trkpt>
      <trkpt lat="42.79147" lon="17.85425">
        <ele>40</ele>
        <time>2016-07-20T12:36:06Z</time>
      </trkpt>
      <trkpt lat="42.79139" lon="17.85425">
        <ele>40</ele>
        <time>2016-07-20T12:38:06Z</time>
      </trkpt>
      <trkpt lat="42.79116" lon="17.85424">
        <ele>40</ele>
        <time>2016-07-20T12:40:06Z</time>
      </trkpt>
      <trkpt lat="42.79073" lon="17.85426">
        <ele>41</ele>
        <time>2016-07-20T12:42:06Z</time>
      </trkpt>
      <trkpt lat="42.79051" lon="17.85428">
        <ele>42</ele>
        <time>2016-07-20T12:44:06Z</time>
      </trkpt>
      <trkpt lat="42.7903" lon="17.8543">
        <ele>43</ele>
        <time>2016-07-20T12:46:06Z</time>
      </trkpt>
      <trkpt lat="42.7898" lon="17.85441">
        <ele>47</ele>
        <time>2016-07-20T12:48:06Z</time>
      </trkpt>
      <trkpt lat="42.78949" lon="17.85454">
        <ele>49</ele>
        <time>2016-07-20T12:50:06Z</time>
      </trkpt>
      <trkpt lat="42.7893" lon="17.85464">
        <ele>50</ele>
        <time>2016-07-20T12:52:06Z</time>
      </trkpt>
      <trkpt lat="42.78891" lon="17.85485">
        <ele>51</ele>
        <time>2016-07-20T12:54:06Z</time>
      </trkpt>
      <trkpt lat="42.78854" lon="17.8551">
        <ele>54</ele>
        <time>2016-07-20T12:56:06Z</time>
      </trkpt>
      <trkpt lat="42.78836" lon="17.85523">
        <ele>56</ele>
        <time>2016-07-20T12:58:06Z</time>
      </trkpt>
      <trkpt lat="42.78834" lon="17.85525">
        <ele>56</ele>
        <time>2016-07-20T13:00:06Z</time>
      </trkpt>
      <trkpt lat="42.78819" lon="17.85537">
        <ele>57</ele>
        <time>2016-07-20T13:02:06Z</time>
      </trkpt>
      <trkpt lat="42.78801" lon="17.85551">
        <ele>57</ele>
        <time>2016-07-20T13:04:06Z</time>
      </trkpt>
      <trkpt lat="42.78783" lon="17.85566">
        <ele>57</ele>
        <time>2016-07-20T13:06:06Z</time>
      </trkpt>
      <trkpt lat="42.78767" lon="17.85581">
        <ele>56</ele>
        <time>2016-07-20T13:08:06Z</time>
      </trkpt>
      <trkpt lat="42.78739" lon="17.85614">
        <ele>59</ele>
        <time>2016-07-20T13:10:06Z</time>
      </trkpt>
      <trkpt lat="42.78734" lon="17.85622">
        <ele>60</ele>
        <time>2016-07-20T13:12:06Z</time>
      </trkpt>
      <trkpt lat="42.78715" lon="17.85648">
        <ele>61</ele>
        <time>2016-07-20T13:14:06Z</time>
      </trkpt>
      <trkpt lat="42.78695" lon="17.85681">
        <ele>64</ele>
        <time>2016-07-20T13:16:06Z</time>
      </trkpt>
      <trkpt lat="42.78666" lon="17.8573">
        <ele>65</ele>
        <time>2016-07-20T13:18:06Z</time>
      </trkpt>
      <trkpt lat="42.78649" lon="17.85763">
        <ele>66</ele>
        <time>2016-07-20T13:20:06Z</time>
      </trkpt>
      <trkpt lat="42.78617" lon="17.85833">
        <ele>65</ele>
        <time>2016-07-20T13:22:06Z</time>
      </trkpt>
      <trkpt lat="42.78609" lon="17.8586">
        <ele>64</ele>
        <time>2016-07-20T13:24:06Z</time>
      </trkpt>
      <trkpt lat="42.78603" lon="17.85894">
        <ele>64</ele>
        <time>2016-07-20T13:26:06Z</time>
      </trkpt>
      <trkpt lat="42.78599" lon="17.85936">
        <ele>66</ele>
        <time>2016-07-20T13:28:06Z</time>
      </trkpt>
      <trkpt lat="42.78598" lon="17.85984">
        <ele>69</ele>
        <time>2016-07-20T13:30:06Z</time>
      </trkpt>
      <trkpt lat="42.78601" lon="17.86043">
        <ele>72</ele>
        <time>2016-07-20T13:32:06Z</time>
      </trkpt>
      <trkpt lat="42.78607" lon="17.86076">
        <ele>75</ele>
        <time>2016-07-20T13:34:06Z</time>
      </trkpt>
      <trkpt lat="42.7861" lon="17.86092">
        <ele>76</ele>
        <time>2016-07-20T13:36:06Z</time>
      </trkpt>
      <trkpt lat="42.78611" lon="17.861">
        <ele>76</ele>
        <time>2016-07-20T13:38:06Z</time>
      </trkpt>
      <trkpt lat="42.78611" lon="17.86108">
        <ele>75</ele>
        <time>2016-07-20T13:40:06Z</time>
      </trkpt>
      <trkpt lat="42.78612" lon="17.86112">
        <ele>76</ele>
        <time>2016-07-20T13:42:06Z</time>
      </trkpt>
      <trkpt lat="42.78623" lon="17.86153">
        <ele>77</ele>
        <time>2016-07-20T13:44:06Z</time>
      </trkpt>
      <trkpt lat="42.78629" lon="17.86166">
        <ele>77</ele>
        <time>2016-07-20T13:46:06Z</time>
      </trkpt>
      <trkpt lat="42.7866" lon="17.86237">
        <ele>81</ele>
        <time>2016-07-20T13:48:06Z</time>
      </trkpt>
      <trkpt lat="42.78665" lon="17.86249">
        <ele>81</ele>
        <time>2016-07-20T13:50:06Z</time>
      </trkpt>
      <trkpt lat="42.78703" lon="17.86327">
        <ele>84</ele>
        <time>2016-07-20T13:52:06Z</time>
      </trkpt>
      <trkpt lat="42.78732" lon="17.86395">
        <ele>85</ele>
        <time>2016-07-20T13:54:06Z</time>
      </trkpt>
      <trkpt lat="42.78734" lon="17.86402">
        <ele>85</ele>
        <time>2016-07-20T13:56:06Z</time>
      </trkpt>
      <trkpt lat="42.78738" lon="17.86406">
        <ele>84</ele>
        <time>2016-07-20T13:58:06Z</time>
      </trkpt>
      <trkpt lat="42.78751" lon="17.86439">
        <ele>84</ele>
        <time>2016-07-20T14:00:06Z</time>
      </trkpt>
      <trkpt lat="42.78765" lon="17.8649">
        <ele>84</ele>
        <time>2016-07-20T14:02:06Z</time>
      </trkpt>
      <trkpt lat="42.78775" lon="17.86532">
        <ele>83</ele>
        <time>2016-07-20T14:04:06Z</time>
      </trkpt>
      <trkpt lat="42.78784" lon="17.86584">
        <ele>80</ele>
        <time>2016-07-20T14:06:06Z</time>
      </trkpt>
      <trkpt lat="42.78792" lon="17.86645">
        <ele>76</ele>
        <time>2016-07-20T14:08:06Z</time>
      </trkpt>
      <trkpt lat="42.78795" lon="17.86715">
        <ele>73</ele>
        <time>2016-07-20T14:10:06Z</time>
      </trkpt>
      <trkpt lat="42.78794" lon="17.86792">
        <ele>70</ele>
        <time>2016-07-20T14:12:06Z</time>
      </trkpt>
      <trkpt lat="42.7879" lon="17.8683">
        <ele>69</ele>
        <time>2016-07-20T14:14:06Z</time>
      </trkpt>
      <trkpt lat="42.78786" lon="17.86858">
        <ele>69</ele>
        <time>2016-07-20T14:16:06Z</time>
      </trkpt>
      <trkpt lat="42.78779" lon="17.86913">
        <ele>67</ele>
        <time>2016-07-20T14:18:06Z</time>
      </trkpt>
      <trkpt lat="42.7876" lon="17.86989">
        <ele>61</ele>
        <time>2016-07-20T14:20:06Z</time>
      </trkpt>
      <trkpt lat="42.78745" lon="17.87041">
        <ele>57</ele>
        <time>2016-07-20T14:22:06Z</time>
      </trkpt>
      <trkpt lat="42.78737" lon="17.87065">
        <ele>55</ele>
        <time>2016-07-20T14:24:06Z</time>
      </trkpt>
      <trkpt lat="42.78723" lon="17.871">
        <ele>54</ele>
        <time>2016-07-20T14:26:06Z</time>
      </trkpt>
      <trkpt lat="42.78703" lon="17.8715">
        <ele>53</ele>
        <time>2016-07-20T14:28:06Z</time>
      </trkpt>
      <trkpt lat="42.78689" lon="17.87202">
        <ele>52</ele>
        <time>2016-07-20T14:30:06Z</time>
      </trkpt>
      <trkpt lat="42.78674" lon="17.8726">
        <ele>51</ele>
        <time>2016-07-20T14:32:06Z</time>
      </trkpt>
      <trkpt lat="42.78668" lon="17.87307">
        <ele>50</ele>
        <time>2016-07-20T14:34:06Z</time>
      </trkpt>
      <trkpt lat="42.78665" lon="17.87357">
        <ele>47</ele>
        <time>2016-07-20T14:36:06Z</time>
      </trkpt>
      <trkpt lat="42.78665" lon="17.874">
        <ele>44</ele>
        <time>2016-07-20T14:38:06Z</time>
      </trkpt>
      <trkpt lat="42.78668" lon="17.87455">
        <ele>41</ele>
        <time>2016-07-20T14:40:06Z</time>
      </trkpt>
      <trkpt lat="42.78674" lon="17.87493">
        <ele>39</ele>
        <time>2016-07-20T14:42:06Z</time>
      </trkpt>
      <trkpt lat="42.78675" lon="17.87502">
        <ele>39</ele>
        <time>2016-07-20T14:44:06Z</time>
      </trkpt>
      <trkpt lat="42.78687" lon="17.87554">
        <ele>37</ele>
        <time>2016-07-20T14:46:06Z</time>
      </trkpt>
      <trkpt lat="42.78705" lon="17.87608">
        <ele>34</ele>
        <time>2016-07-20T14:48:06Z</time>
      </trkpt>
      <trkpt lat="42.78718" lon="17.87638">
        <ele>33</ele>
        <time>2016-07-20T14:50:06Z</time>
      </trkpt>
      <trkpt lat="42.78733" lon="17.87669">
        <ele>32</ele>
        <time>2016-07-20T14:52:06Z</time>
      </trkpt>
      <trkpt lat="42.78759" lon="17.87711">
        <ele>31</ele>
        <time>2016-07-20T14:54:06Z</time>
      </trkpt>
      <trkpt lat="42.78788" lon="17.87749">
        <ele>30</ele>
        <time>2016-07-20T14:56:06Z</time>
      </trkpt>
      <trkpt lat="42.78878" lon="17.87852">
        <ele>23</ele>
        <time>2016-07-20T14:58:06Z</time>
      </trkpt>
      <trkpt lat="42.78902" lon="17.87883">
        <ele>20</ele>
        <time>2016-07-20T15:00:06Z</time>
      </trkpt>
      <trkpt lat="42.78909" lon="17.87893">
        <ele>20</ele>
        <time>2016-07-20T15:02:06Z</time>
      </trkpt>
      <trkpt lat="42.7896" lon="17.8797">
        <ele>19</ele>
        <time>2016-07-20T15:04:06Z</time>
      </trkpt>
      <trkpt lat="42.7897" lon="17.87989">
        <ele>20</ele>
        <time>2016-07-20T15:06:06Z</time>
      </trkpt>
      <trkpt lat="42.78977" lon="17.88002">
        <ele>20</ele>
        <time>2016-07-20T15:08:06Z</time>
      </trkpt>
      <trkpt lat="42.79011" lon="17.88074">
        <ele>28</ele>
        <time>2016-07-20T15:10:06Z</time>
      </trkpt>
      <trkpt lat="42.79021" lon="17.88098">
        <ele>29</ele>
        <time>2016-07-20T15:12:06Z</time>
      </trkpt>
      <trkpt lat="42.79028" lon="17.88119">
        <ele>30</ele>
        <time>2016-07-20T15:14:06Z</time>
      </trkpt>
      <trkpt lat="42.79028" lon="17.8812">
        <ele>30</ele>
        <time>2016-07-20T15:16:06Z</time>
      </trkpt>
      <trkpt lat="42.79028" lon="17.88126">
        <ele>30</ele>
        <time>2016-07-20T15:18:06Z</time>
      </trkpt>
      <trkpt lat="42.79029" lon="17.88128">
        <ele>30</ele>
        <time>2016-07-20T15:20:06Z</time>
      </trkpt>
      <trkpt lat="42.79033" lon="17.88144">
        <ele>31</ele>
        <time>2016-07-20T15:22:06Z</time>
      </trkpt>
      <trkpt lat="42.79039" lon="17.8816">
        <ele>31</ele>
        <time>2016-07-20T15:24:06Z</time>
      </trkpt>
      <trkpt lat="42.79044" lon="17.88179">
        <ele>31</ele>
        <time>2016-07-20T15:26:06Z</time>
      </trkpt>
      <trkpt lat="42.79048" lon="17.88194">
        <ele>30</ele>
        <time>2016-07-20T15:28:06Z</time>
      </trkpt>
      <trkpt lat="42.7905" lon="17.88203">
        <ele>30</ele>
        <time>2016-07-20T15:30:06Z</time>
      </trkpt>
      <trkpt lat="42.79054" lon="17.8822">
        <ele>30</ele>
        <time>2016-07-20T15:32:06Z</time>
      </trkpt>
      <trkpt lat="42.79059" lon="17.88248">
        <ele>30</ele>
        <time>2016-07-20T15:34:06Z</time>
      </trkpt>
      <trkpt lat="42.79065" lon="17.88284">
        <ele>32</ele>
        <time>2016-07-20T15:36:06Z</time>
      </trkpt>
      <trkpt lat="42.79069" lon="17.88303">
        <ele>33</ele>
        <time>2016-07-20T15:38:06Z</time>
      </trkpt>
      <trkpt lat="42.79076" lon="17.88355">
        <ele>36</ele>
        <time>2016-07-20T15:40:06Z</time>
      </trkpt>
      <trkpt lat="42.79078" lon="17.88382">
        <ele>37</ele>
        <time>2016-07-20T15:42:06Z</time>
      </trkpt>
      <trkpt lat="42.7908" lon="17.88407">
        <ele>37</ele>
        <time>2016-07-20T15:44:06Z</time>
      </trkpt>
      <trkpt lat="42.79082" lon="17.88451">
        <ele>37</ele>
        <time>2016-07-20T15:46:06Z</time>
      </trkpt>
      <trkpt lat="42.79083" lon="17.8848">
        <ele>37</ele>
        <time>2016-07-20T15:48:06Z</time>
      </trkpt>
      <trkpt lat="42.79083" lon="17.88485">
        <ele>37</ele>
        <time>2016-07-20T15:50:06Z</time>
      </trkpt>
      <trkpt lat="42.79083" lon="17.88512">
        <ele>37</ele>
        <time>2016-07-20T15:52:06Z</time>
      </trkpt>
      <trkpt lat="42.79081" lon="17.88544">
        <ele>36</ele>
        <time>2016-07-20T15:54:06Z</time>
      </trkpt>
      <trkpt lat="42.79077" lon="17.88582">
        <ele>35</ele>
        <time>2016-07-20T15:56:06Z</time>
      </trkpt>
      <trkpt lat="42.7907" lon="17.88614">
        <ele>33</ele>
        <time>2016-07-20T15:58:06Z</time>
      </trkpt>
      <trkpt lat="42.79061" lon="17.88646">
        <ele>32</ele>
        <time>2016-07-20T16:00:06Z</time>
      </trkpt>
      <trkpt lat="42.79051" lon="17.88671">
        <ele>30</ele>
        <time>2016-07-20T16:02:06Z</time>
      </trkpt>
      <trkpt lat="42.79043" lon="17.88688">
        <ele>31</ele>
        <time>2016-07-20T16:04:06Z</time>
      </trkpt>
      <trkpt lat="42.79036" lon="17.88698">
        <ele>31</ele>
        <time>2016-07-20T16:06:06Z</time>
      </trkpt>
      <trkpt lat="42.79028" lon="17.88708">
        <ele>30</ele>
        <time>2016-07-20T16:08:06Z</time>
      </trkpt>
      <trkpt lat="42.79027" lon="17.8871">
        <ele>30</ele>
        <time>2016-07-20T16:10:06Z</time>
      </trkpt>
      <trkpt lat="42.79018" lon="17.88719">
        <ele>30</ele>
        <time>2016-07-20T16:12:06Z</time>
      </trkpt>
      <trkpt lat="42.79002" lon="17.88729">
        <ele>27</ele>
        <time>2016-07-20T16:14:06Z</time>
      </trkpt>
      <trkpt lat="42.78969" lon="17.88746">
        <ele>23</ele>
        <time>2016-07-20T16:16:06Z</time>
      </trkpt>
      <trkpt lat="42.78962" lon="17.88749">
        <ele>22</ele>
        <time>2016-07-20T16:18:06Z</time>
      </trkpt>
      <trkpt lat="42.78952" lon="17.88753">
        <ele>20</ele>
        <time>2016-07-20T16:20:06Z</time>
      </trkpt>
      <trkpt lat="42.78939" lon="17.88761">
        <ele>18</ele>
        <time>2016-07-20T16:22:06Z</time>
      </trkpt>
      <trkpt lat="42.78925" lon="17.88772">
        <ele>17</ele>
        <time>2016-07-20T16:24:06Z</time>
      </trkpt>
      <trkpt lat="42.78911" lon="17.88783">
        <ele>15</ele>
        <time>2016-07-20T16:26:06Z</time>
      </trkpt>
      <trkpt lat="42.789" lon="17.88794">
        <ele>15</ele>
        <time>2016-07-20T16:28:06Z</time>
      </trkpt>
      <trkpt lat="42.78889" lon="17.88808">
        <ele>15</ele>
        <time>2016-07-20T16:30:06Z</time>
      </trkpt>
      <trkpt lat="42.78876" lon="17.88828">
        <ele>14</ele>
        <time>2016-07-20T16:32:06Z</time>
      </trkpt>
      <trkpt lat="42.78869" lon="17.88842">
        <ele>14</ele>
        <time>2016-07-20T16:34:06Z</time>
      </trkpt>
      <trkpt lat="42.7886" lon="17.88865">
        <ele>14</ele>
        <time>2016-07-20T16:36:06Z</time>
      </trkpt>
      <trkpt lat="42.78852" lon="17.88896">
        <ele>14</ele>
        <time>2016-07-20T16:38:06Z</time>
      </trkpt>
      <trkpt lat="42.78846" lon="17.8893">
        <ele>14</ele>
        <time>2016-07-20T16:40:06Z</time>
      </trkpt>
      <trkpt lat="42.78842" lon="17.88964">
        <ele>13</ele>
        <time>2016-07-20T16:42:06Z</time>
      </trkpt>
      <trkpt lat="42.78834" lon="17.89046">
        <ele>10</ele>
        <time>2016-07-20T16:44:06Z</time>
      </trkpt>
      <trkpt lat="42.78833" lon="17.89057">
        <ele>10</ele>
        <time>2016-07-20T16:46:06Z</time>
      </trkpt>
      <trkpt lat="42.78832" lon="17.89065">
        <ele>10</ele>
        <time>2016-07-20T16:48:06Z</time>
      </trkpt>
      <trkpt lat="42.78825" lon="17.89143">
        <ele>13</ele>
        <time>2016-07-20T16:50:06Z</time>
      </trkpt>
      <trkpt lat="42.78815" lon="17.89205">
        <ele>17</ele>
        <time>2016-07-20T16:52:06Z</time>
      </trkpt>
      <trkpt lat="42.78797" lon="17.89279">
        <ele>26</ele>
        <time>2016-07-20T16:54:06Z</time>
      </trkpt>
      <trkpt lat="42.7879" lon="17.89301">
        <ele>30</ele>
        <time>2016-07-20T16:56:06Z</time>
      </trkpt>
      <trkpt lat="42.78778" lon="17.89326">
        <ele>32</ele>
        <time>2016-07-20T16:58:06Z</time>
      </trkpt>
      <trkpt lat="42.78762" lon="17.89349">
        <ele>32</ele>
        <time>2016-07-20T17:00:06Z</time>
      </trkpt>
      <trkpt lat="42.78742" lon="17.89377">
        <ele>31</ele>
        <time>2016-07-20T17:02:06Z</time>
      </trkpt>
      <trkpt lat="42.7872" lon="17.89404">
        <ele>33</ele>
        <time>2016-07-20T17:04:06Z</time>
      </trkpt>
      <trkpt lat="42.78697" lon="17.89428">
        <ele>31</ele>
        <time>2016-07-20T17:06:06Z</time>
      </trkpt>
      <trkpt lat="42.78676" lon="17.89443">
        <ele>29</ele>
        <time>2016-07-20T17:08:06Z</time>
      </trkpt>
      <trkpt lat="42.78669" lon="17.89447">
        <ele>28</ele>
        <time>2016-07-20T17:10:06Z</time>
      </trkpt>
      <trkpt lat="42.78652" lon="17.89457">
        <ele>28</ele>
        <time>2016-07-20T17:12:06Z</time>
      </trkpt>
      <trkpt lat="42.7865" lon="17.89457">
        <ele>28</ele>
        <time>2016-07-20T17:14:06Z</time>
      </trkpt>
      <trkpt lat="42.78639" lon="17.89463">
        <ele>29</ele>
        <time>2016-07-20T17:16:06Z</time>
      </trkpt>
      <trkpt lat="42.78629" lon="17.89467">
        <ele>30</ele>
        <time>2016-07-20T17:18:06Z</time>
      </trkpt>
      <trkpt lat="42.7861" lon="17.8947">
        <ele>31</ele>
        <time>2016-07-20T17:20:06Z</time>
      </trkpt>
      <trkpt lat="42.78587" lon="17.8947">
        <ele>32</ele>
        <time>2016-07-20T17:22:06Z</time>
      </trkpt>
      <trkpt lat="42.78568" lon="17.89465">
        <ele>35</ele>
        <time>2016-07-20T17:24:06Z</time>
      </trkpt>
      <trkpt lat="42.78544" lon="17.89457">
        <ele>37</ele>
        <time>2016-07-20T17:26:06Z</time>
      </trkpt>
      <trkpt lat="42.78508" lon="17.89435">
        <ele>38</ele>
        <time>2016-07-20T17:28:06Z</time>
      </trkpt>
      <trkpt lat="42.78492" lon="17.89423">
        <ele>37</ele>
        <time>2016-07-20T17:30:06Z</time>
      </trkpt>
      <trkpt lat="42.7847" lon="17.89407">
        <ele>37</ele>
        <time>2016-07-20T17:32:06Z</time>
      </trkpt>
      <trkpt lat="42.78468" lon="17.89405">
        <ele>37</ele>
        <time>2016-07-20T17:34:06Z</time>
      </trkpt>
      <trkpt lat="42.78466" lon="17.89403">
        <ele>37</ele>
        <time>2016-07-20T17:36:06Z</time>
      </trkpt>
      <trkpt lat="42.78438" lon="17.89369">
        <ele>36</ele>
        <time>2016-07-20T17:38:06Z</time>
      </trkpt>
      <trkpt lat="42.78411" lon="17.89328">
        <ele>36</ele>
        <time>2016-07-20T17:40:06Z</time>
      </trkpt>
      <trkpt lat="42.78379" lon="17.89262">
        <ele>45</ele>
        <time>2016-07-20T17:42:06Z</time>
      </trkpt>
      <trkpt lat="42.78369" lon="17.89241">
        <ele>46</ele>
        <time>2016-07-20T17:44:06Z</time>
      </trkpt>
      <trkpt lat="42.78355" lon="17.89216">
        <ele>46</ele>
        <time>2016-07-20T17:46:06Z</time>
      </trkpt>
      <trkpt lat="42.78342" lon="17.89192">
        <ele>43</ele>
        <time>2016-07-20T17:48:06Z</time>
      </trkpt>
      <trkpt lat="42.78331" lon="17.89175">
        <ele>42</ele>
        <time>2016-07-20T17:50:06Z</time>
      </trkpt>
      <trkpt lat="42.78324" lon="17.89165">
        <ele>41</ele>
        <time>2016-07-20T17:52:06Z</time>
      </trkpt>
      <trkpt lat="42.78313" lon="17.89151">
        <ele>41</ele>
        <time>2016-07-20T17:54:06Z</time>
      </trkpt>
      <trkpt lat="42.78266" lon="17.89103">
        <ele>42</ele>
        <time>2016-07-20T17:56:06Z</time>
      </trkpt>
      <trkpt lat="42.78261" lon="17.89098">
        <ele>41</ele>
        <time>2016-07-20T17:58:06Z</time>
      </trkpt>
      <trkpt lat="42.7824" lon="17.89084">
        <ele>41</ele>
        <time>2016-07-20T18:00:06Z</time>
      </trkpt>
      <trkpt lat="42.78234" lon="17.89081">
        <ele>41</ele>
        <time>2016-07-20T18:02:06Z</time>
      </trkpt>
      <trkpt lat="42.7823" lon="17.8908">
        <ele>42</ele>
        <time>2016-07-20T18:04:06Z</time>
      </trkpt>
      <trkpt lat="42.78191" lon="17.8906">
        <ele>42</ele>
        <time>2016-07-20T18:06:06Z</time>
      </trkpt>
      <trkpt lat="42.78185" lon="17.89058">
        <ele>43</ele>
        <time>2016-07-20T18:08:06Z</time>
      </trkpt>
      <trkpt lat="42.78178" lon="17.89056">
        <ele>43</ele>
        <time>2016-07-20T18:10:06Z</time>
      </trkpt>
      <trkpt lat="42.7814" lon="17.89049">
        <ele>46</ele>
        <time>2016-07-20T18:12:06Z</time>
      </trkpt>
      <trkpt lat="42.78121" lon="17.89048">
        <ele>47</ele>
        <time>2016-07-20T18:14:06Z</time>
      </trkpt>
      <trkpt lat="42.78086" lon="17.89048">
        <ele>50</ele>
        <time>2016-07-20T18:16:06Z</time>
      </trkpt>
      <trkpt lat="42.78052" lon="17.8905">
        <ele>52</ele>
        <time>2016-07-20T18:18:06Z</time>
      </trkpt>
      <trkpt lat="42.77998" lon="17.89051">
        <ele>53</ele>
        <time>2016-07-20T18:20:06Z</time>
      </trkpt>
      <trkpt lat="42.77979" lon="17.89048">
        <ele>52</ele>
        <time>2016-07-20T18:22:06Z</time>
      </trkpt>
      <trkpt lat="42.77966" lon="17.89042">
        <ele>51</ele>
        <time>2016-07-20T18:24:06Z</time>
      </trkpt>
      <trkpt lat="42.77957" lon="17.89034">
        <ele>49</ele>
        <time>2016-07-20T18:26:06Z</time>
      </trkpt>
      <trkpt lat="42.77947" lon="17.89024">
        <ele>48</ele>
        <time>2016-07-20T18:28:06Z</time>
      </trkpt>
      <trkpt lat="42.77937" lon="17.89009">
        <ele>46</ele>
        <time>2016-07-20T18:30:06Z</time>
      </trkpt>
      <trkpt lat="42.77924" lon="17.88986">
        <ele>48</ele>
        <time>2016-07-20T18:32:06Z</time>
      </trkpt>
      <trkpt lat="42.77911" lon="17.88955">
        <ele>52</ele>
        <time>2016-07-20T18:34:06Z</time>
      </trkpt>
      <trkpt lat="42.77895" lon="17.88896">
        <ele>57</ele>
        <time>2016-07-20T18:36:06Z</time>
      </trkpt>
      <trkpt lat="42.7788" lon="17.88832">
        <ele>54</ele>
        <time>2016-07-20T18:38:06Z</time>
      </trkpt>
      <trkpt lat="42.7787" lon="17.88799">
        <ele>52</ele>
        <time>2016-07-20T18:40:06Z</time>
      </trkpt>
      <trkpt lat="42.77866" lon="17.88788">
        <ele>52</ele>
        <time>2016-07-20T18:42:06Z</time>
      </trkpt>
      <trkpt lat="42.7786" lon="17.88776">
        <ele>51</ele>
        <time>2016-07-20T18:44:06Z</time>
      </trkpt>
      <trkpt lat="42.77838" lon="17.8874">
        <ele>51</ele>
        <time>2016-07-20T18:46:06Z</time>
      </trkpt>
      <trkpt lat="42.77829" lon="17.88727">
        <ele>51</ele>
        <time>2016-07-20T18:48:06Z</time>
      </trkpt>
      <trkpt lat="42.77815" lon="17.88711">
        <ele>52</ele>
        <time>2016-07-20T18:50:06Z</time>
      </trkpt>
      <trkpt lat="42.77812" lon="17.88708">
        <ele>52</ele>
        <time>2016-07-20T18:52:06Z</time>
      </trkpt>
      <trkpt lat="42.77802" lon="17.88699">
        <ele>52</ele>
        <time>2016-07-20T18:54:06Z</time>
      </trkpt>
      <trkpt lat="42.77791" lon="17.88692">
        <ele>53</ele>
        <time>2016-07-20T18:56:06Z</time>
      </trkpt>
      <trkpt lat="42.77787" lon="17.88689">
        <ele>53</ele>
        <time>2016-07-20T18:58:06Z</time>
      </trkpt>
      <trkpt lat="42.7778" lon="17.88686">
        <ele>53</ele>
        <time>2016-07-20T19:00:06Z</time>
      </trkpt>
      <trkpt lat="42.77773" lon="17.88683">
        <ele>53</ele>
        <time>2016-07-20T19:02:06Z</time>
      </trkpt>
      <trkpt lat="42.77761" lon="17.88679">
        <ele>54</ele>
        <time>2016-07-20T19:04:06Z</time>
      </trkpt>
      <trkpt lat="42.77754" lon="17.88677">
        <ele>55</ele>
        <time>2016-07-20T19:06:06Z</time>
      </trkpt>
      <trkpt lat="42.77742" lon="17.88676">
        <ele>54</ele>
        <time>2016-07-20T19:08:06Z</time>
      </trkpt>
      <trkpt lat="42.7773" lon="17.88676">
        <ele>53</ele>
        <time>2016-07-20T19:10:06Z</time>
      </trkpt>
      <trkpt lat="42.77718" lon="17.88678">
        <ele>53</ele>
        <time>2016-07-20T19:12:06Z</time>
      </trkpt>
      <trkpt lat="42.77706" lon="17.88681">
        <ele>53</ele>
        <time>2016-07-20T19:14:06Z</time>
      </trkpt>
      <trkpt lat="42.77698" lon="17.88684">
        <ele>53</ele>
        <time>2016-07-20T19:16:06Z</time>
      </trkpt>
      <trkpt lat="42.77686" lon="17.88689">
        <ele>53</ele>
        <time>2016-07-20T19:18:06Z</time>
      </trkpt>
      <trkpt lat="42.77654" lon="17.8871">
        <ele>56</ele>
        <time>2016-07-20T19:20:06Z</time>
      </trkpt>
      <trkpt lat="42.77606" lon="17.88741">
        <ele>59</ele>
        <time>2016-07-20T19:22:06Z</time>
      </trkpt>
      <trkpt lat="42.77589" lon="17.88751">
        <ele>60</ele>
        <time>2016-07-20T19:24:06Z</time>
      </trkpt>
      <trkpt lat="42.77569" lon="17.88762">
        <ele>62</ele>
        <time>2016-07-20T19:26:06Z</time>
      </trkpt>
      <trkpt lat="42.77562" lon="17.88766">
        <ele>62</ele>
        <time>2016-07-20T19:28:06Z</time>
      </trkpt>
      <trkpt lat="42.77547" lon="17.88771">
        <ele>63</ele>
        <time>2016-07-20T19:30:06Z</time>
      </trkpt>
      <trkpt lat="42.77524" lon="17.88776">
        <ele>62</ele>
        <time>2016-07-20T19:32:06Z</time>
      </trkpt>
      <trkpt lat="42.77506" lon="17.88778">
        <ele>61</ele>
        <time>2016-07-20T19:34:06Z</time>
      </trkpt>
      <trkpt lat="42.77493" lon="17.88779">
        <ele>61</ele>
        <time>2016-07-20T19:36:06Z</time>
      </trkpt>
      <trkpt lat="42.7748" lon="17.88778">
        <ele>60</ele>
        <time>2016-07-20T19:38:06Z</time>
      </trkpt>
      <trkpt lat="42.7746" lon="17.88775">
        <ele>59</ele>
        <time>2016-07-20T19:40:06Z</time>
      </trkpt>
      <trkpt lat="42.77434" lon="17.88769">
        <ele>57</ele>
        <time>2016-07-20T19:42:06Z</time>
      </trkpt>
      <trkpt lat="42.77409" lon="17.88762">
        <ele>55</ele>
        <time>2016-07-20T19:44:06Z</time>
      </trkpt>
      <trkpt lat="42.77401" lon="17.88758">
        <ele>55</ele>
        <time>2016-07-20T19:46:06Z</time>
      </trkpt>
      <trkpt lat="42.77389" lon="17.88752">
        <ele>54</ele>
        <time>2016-07-20T19:48:06Z</time>
      </trkpt>
      <trkpt lat="42.77367" lon="17.88737">
        <ele>53</ele>
        <time>2016-07-20T19:50:06Z</time>
      </trkpt>
      <trkpt lat="42.77364" lon="17.88735">
        <ele>53</ele>
        <time>2016-07-20T19:52:06Z</time>
      </trkpt>
      <trkpt lat="42.77341" lon="17.88713">
        <ele>53</ele>
        <time>2016-07-20T19:54:06Z</time>
      </trkpt>
      <trkpt lat="42.77318" lon="17.88689">
        <ele>56</ele>
        <time>2016-07-20T19:56:06Z</time>
      </trkpt>
      <trkpt lat="42.77297" lon="17.88663">
        <ele>58</ele>
        <time>2016-07-20T19:58:06Z</time>
      </trkpt>
      <trkpt lat="42.77273" lon="17.88629">
        <ele>59</ele>
        <time>2016-07-20T20:00:06Z</time>
      </trkpt>
      <trkpt lat="42.77255" lon="17.886">
        <ele>57</ele>
        <time>2016-07-20T20:02:06Z</time>
      </trkpt>
      <trkpt lat="42.77243" lon="17.88579">
        <ele>56</ele>
        <time>2016-07-20T20:04:06Z</time>
      </trkpt>
      <trkpt lat="42.77232" lon="17.88557">
        <ele>55</ele>
        <time>2016-07-20T20:06:06Z</time>
      </trkpt>
      <trkpt lat="42.77231" lon="17.88555">
        <ele>55</ele>
        <time>2016-07-20T20:08:06Z</time>
      </trkpt>
      <trkpt lat="42.77224" lon="17.88538">
        <ele>55</ele>
        <time>2016-07-20T20:10:06Z</time>
      </trkpt>
      <trkpt lat="42.77215" lon="17.88506">
        <ele>55</ele>
        <time>2016-07-20T20:12:06Z</time>
      </trkpt>
      <trkpt lat="42.77207" lon="17.88476">
        <ele>56</ele>
        <time>2016-07-20T20:14:06Z</time>
      </trkpt>
      <trkpt lat="42.77202" lon="17.88441">
        <ele>55</ele>
        <time>2016-07-20T20:16:06Z</time>
      </trkpt>
      <trkpt lat="42.77201" lon="17.88415">
        <ele>54</ele>
        <time>2016-07-20T20:18:06Z</time>
      </trkpt>
      <trkpt lat="42.77201" lon="17.88373">
        <ele>54</ele>
        <time>2016-07-20T20:20:06Z</time>
      </trkpt>
      <trkpt lat="42.77203" lon="17.8832">
        <ele>54</ele>
        <time>2016-07-20T20:22:06Z</time>
      </trkpt>
      <trkpt lat="42.77204" lon="17.88295">
        <ele>55</ele>
        <time>2016-07-20T20:24:06Z</time>
      </trkpt>
      <trkpt lat="42.77201" lon="17.88256">
        <ele>58</ele>
        <time>2016-07-20T20:26:06Z</time>
      </trkpt>
      <trkpt lat="42.77197" lon="17.88239">
        <ele>60</ele>
        <time>2016-07-20T20:28:06Z</time>
      </trkpt>
      <trkpt lat="42.77188" lon="17.88219">
        <ele>62</ele>
        <time>2016-07-20T20:30:06Z</time>
      </trkpt>
      <trkpt lat="42.77177" lon="17.882">
        <ele>65</ele>
        <time>2016-07-20T20:32:06Z</time>
      </trkpt>
      <trkpt lat="42.77166" lon="17.88187">
        <ele>66</ele>
        <time>2016-07-20T20:34:06Z</time>
      </trkpt>
      <trkpt lat="42.77146" lon="17.88173">
        <ele>65</ele>
        <time>2016-07-20T20:36:06Z</time>
      </trkpt>
      <trkpt lat="42.77121" lon="17.88162">
        <ele>64</ele>
        <time>2016-07-20T20:38:06Z</time>
      </trkpt>
      <trkpt lat="42.77098" lon="17.88154">
        <ele>63</ele>
        <time>2016-07-20T20:40:06Z</time>
      </trkpt>
      <trkpt lat="42.7707" lon="17.88141">
        <ele>61</ele>
        <time>2016-07-20T20:42:06Z</time>
      </trkpt>
      <trkpt lat="42.77065" lon="17.88138">
        <ele>60</ele>
        <time>2016-07-20T20:44:06Z</time>
      </trkpt>
      <trkpt lat="42.77061" lon="17.88136">
        <ele>60</ele>
        <time>2016-07-20T20:46:06Z</time>
      </trkpt>
      <trkpt lat="42.77053" lon="17.88132">
        <ele>59</ele>
        <time>2016-07-20T20:48:06Z</time>
      </trkpt>
      <trkpt lat="42.77046" lon="17.88127">
        <ele>59</ele>
        <time>2016-07-20T20:50:06Z</time>
      </trkpt>
      <trkpt lat="42.77038" lon="17.88122">
        <ele>59</ele>
        <time>2016-07-20T20:52:06Z</time>
      </trkpt>
      <trkpt lat="42.77031" lon="17.88116">
        <ele>58</ele>
        <time>2016-07-20T20:54:06Z</time>
      </trkpt>
      <trkpt lat="42.77021" lon="17.88106">
        <ele>58</ele>
        <time>2016-07-20T20:56:06Z</time>
      </trkpt>
      <trkpt lat="42.77018" lon="17.88103">
        <ele>57</ele>
        <time>2016-07-20T20:58:06Z</time>
      </trkpt>
      <trkpt lat="42.77015" lon="17.88098">
        <ele>57</ele>
        <time>2016-07-20T21:00:06Z</time>
      </trkpt>
      <trkpt lat="42.77008" lon="17.88086">
        <ele>57</ele>
        <time>2016-07-20T21:02:06Z</time>
      </trkpt>
      <trkpt lat="42.77004" lon="17.88079">
        <ele>57</ele>
        <time>2016-07-20T21:04:06Z</time>
      </trkpt>
      <trkpt lat="42.77003" lon="17.88075">
        <ele>57</ele>
        <time>2016-07-20T21:06:06Z</time>
      </trkpt>
      <trkpt lat="42.77001" lon="17.8807">
        <ele>57</ele>
        <time>2016-07-20T21:08:06Z</time>
      </trkpt>
      <trkpt lat="42.76997" lon="17.88056">
        <ele>58</ele>
        <time>2016-07-20T21:10:06Z</time>
      </trkpt>
      <trkpt lat="42.76995" lon="17.88047">
        <ele>59</ele>
        <time>2016-07-20T21:12:06Z</time>
      </trkpt>
      <trkpt lat="42.76993" lon="17.88038">
        <ele>59</ele>
        <time>2016-07-20T21:14:06Z</time>
      </trkpt>
      <trkpt lat="42.76992" lon="17.8803">
        <ele>60</ele>
        <time>2016-07-20T21:16:06Z</time>
      </trkpt>
      <trkpt lat="42.76991" lon="17.88021">
        <ele>60</ele>
        <time>2016-07-20T21:18:06Z</time>
      </trkpt>
      <trkpt lat="42.76991" lon="17.88012">
        <ele>61</ele>
        <time>2016-07-20T21:20:06Z</time>
      </trkpt>
      <trkpt lat="42.76992" lon="17.88002">
        <ele>61</ele>
        <time>2016-07-20T21:22:06Z</time>
      </trkpt>
      <trkpt lat="42.76993" lon="17.87988">
        <ele>62</ele>
        <time>2016-07-20T21:24:06Z</time>
      </trkpt>
      <trkpt lat="42.76995" lon="17.87979">
        <ele>62</ele>
        <time>2016-07-20T21:26:06Z</time>
      </trkpt>
      <trkpt lat="42.76997" lon="17.87971">
        <ele>62</ele>
        <time>2016-07-20T21:28:06Z</time>
      </trkpt>
      <trkpt lat="42.77007" lon="17.87936">
        <ele>63</ele>
        <time>2016-07-20T21:30:06Z</time>
      </trkpt>
      <trkpt lat="42.77021" lon="17.879">
        <ele>63</ele>
        <time>2016-07-20T21:32:06Z</time>
      </trkpt>
      <trkpt lat="42.77025" lon="17.87893">
        <ele>63</ele>
        <time>2016-07-20T21:34:06Z</time>
      </trkpt>
      <trkpt lat="42.77052" lon="17.87836">
        <ele>68</ele>
        <time>2016-07-20T21:36:06Z</time>
      </trkpt>
      <trkpt lat="42.77055" lon="17.87827">
        <ele>68</ele>
        <time>2016-07-20T21:38:06Z</time>
      </trkpt>
      <trkpt lat="42.7706" lon="17.87811">
        <ele>69</ele>
        <time>2016-07-20T21:40:06Z</time>
      </trkpt>
      <trkpt lat="42.77063" lon="17.87801">
        <ele>70</ele>
        <time>2016-07-20T21:42:06Z</time>
      </trkpt>
      <trkpt lat="42.77065" lon="17.87792">
        <ele>70</ele>
        <time>2016-07-20T21:44:06Z</time>
      </trkpt>
      <trkpt lat="42.77067" lon="17.87781">
        <ele>71</ele>
        <time>2016-07-20T21:46:06Z</time>
      </trkpt>
      <trkpt lat="42.77068" lon="17.8777">
        <ele>72</ele>
        <time>2016-07-20T21:48:06Z</time>
      </trkpt>
      <trkpt lat="42.77069" lon="17.87753">
        <ele>74</ele>
        <time>2016-07-20T21:50:06Z</time>
      </trkpt>
      <trkpt lat="42.77068" lon="17.87738">
        <ele>75</ele>
        <time>2016-07-20T21:52:06Z</time>
      </trkpt>
      <trkpt lat="42.77067" lon="17.87725">
        <ele>75</ele>
        <time>2016-07-20T21:54:06Z</time>
      </trkpt>
      <trkpt lat="42.77066" lon="17.87716">
        <ele>75</ele>
        <time>2016-07-20T21:56:06Z</time>
      </trkpt>
      <trkpt lat="42.77061" lon="17.877">
        <ele>75</ele>
        <time>2016-07-20T21:58:06Z</time>
      </trkpt>
      <trkpt lat="42.77055" lon="17.87683">
        <ele>76</ele>
        <time>2016-07-20T22:00:06Z</time>
      </trkpt>
      <trkpt lat="42.77047" lon="17.87666">
        <ele>77</ele>
        <time>2016-07-20T22:02:06Z</time>
      </trkpt>
      <trkpt lat="42.77041" lon="17.87656">
        <ele>76</ele>
        <time>2016-07-20T22:04:06Z</time>
      </trkpt>
      <trkpt lat="42.77034" lon="17.87647">
        <ele>76</ele>
        <time>2016-07-20T22:06:06Z</time>
      </trkpt>
      <trkpt lat="42.77027" lon="17.87639">
        <ele>76</ele>
        <time>2016-07-20T22:08:06Z</time>
      </trkpt>
      <trkpt lat="42.77018" lon="17.8763">
        <ele>75</ele>
        <time>2016-07-20T22:10:06Z</time>
      </trkpt>
      <trkpt lat="42.77012" lon="17.87625">
        <ele>75</ele>
        <time>2016-07-20T22:12:06Z</time>
      </trkpt>
      <trkpt lat="42.76998" lon="17.87618">
        <ele>75</ele>
        <time>2016-07-20T22:14:06Z</time>
      </trkpt>
      <trkpt lat="42.76983" lon="17.87611">
        <ele>74</ele>
        <time>2016-07-20T22:16:06Z</time>
      </trkpt>
      <trkpt lat="42.76978" lon="17.8761">
        <ele>74</ele>
        <time>2016-07-20T22:18:06Z</time>
      </trkpt>
      <trkpt lat="42.76968" lon="17.87608">
        <ele>73</ele>
        <time>2016-07-20T22:20:06Z</time>
      </trkpt>
      <trkpt lat="42.76955" lon="17.87606">
        <ele>73</ele>
        <time>2016-07-20T22:22:06Z</time>
      </trkpt>
      <trkpt lat="42.76932" lon="17.87604">
        <ele>72</ele>
        <time>2016-07-20T22:24:06Z</time>
      </trkpt>
      <trkpt lat="42.76909" lon="17.87604">
        <ele>71</ele>
        <time>2016-07-20T22:26:06Z</time>
      </trkpt>
      <trkpt lat="42.76897" lon="17.87602">
        <ele>71</ele>
        <time>2016-07-20T22:28:06Z</time>
      </trkpt>
      <trkpt lat="42.76887" lon="17.876">
        <ele>71</ele>
        <time>2016-07-20T22:30:06Z</time>
      </trkpt>
      <trkpt lat="42.76877" lon="17.87597">
        <ele>71</ele>
        <time>2016-07-20T22:32:06Z</time>
      </trkpt>
      <trkpt lat="42.76865" lon="17.87592">
        <ele>71</ele>
        <time>2016-07-20T22:34:06Z</time>
      </trkpt>
      <trkpt lat="42.76854" lon="17.87585">
        <ele>70</ele>
        <time>2016-07-20T22:36:06Z</time>
      </trkpt>
      <trkpt lat="42.76844" lon="17.8758">
        <ele>70</ele>
        <time>2016-07-20T22:38:06Z</time>
      </trkpt>
      <trkpt lat="42.76794" lon="17.87548">
        <ele>65</ele>
        <time>2016-07-20T22:40:06Z</time>
      </trkpt>
      <trkpt lat="42.76784" lon="17.87544">
        <ele>65</ele>
        <time>2016-07-20T22:42:06Z</time>
      </trkpt>
      <trkpt lat="42.76773" lon="17.8754">
        <ele>64</ele>
        <time>2016-07-20T22:44:06Z</time>
      </trkpt>
      <trkpt lat="42.76762" lon="17.87539">
        <ele>64</ele>
        <time>2016-07-20T22:46:06Z</time>
      </trkpt>
      <trkpt lat="42.7675" lon="17.87539">
        <ele>65</ele>
        <time>2016-07-20T22:48:06Z</time>
      </trkpt>
      <trkpt lat="42.76739" lon="17.8754">
        <ele>63</ele>
        <time>2016-07-20T22:50:06Z</time>
      </trkpt>
      <trkpt lat="42.76715" lon="17.87546">
        <ele>60</ele>
        <time>2016-07-20T22:52:06Z</time>
      </trkpt>
      <trkpt lat="42.76707" lon="17.87549">
        <ele>59</ele>
        <time>2016-07-20T22:54:06Z</time>
      </trkpt>
      <trkpt lat="42.76696" lon="17.87556">
        <ele>60</ele>
        <time>2016-07-20T22:56:06Z</time>
      </trkpt>
      <trkpt lat="42.76689" lon="17.8756">
        <ele>60</ele>
        <time>2016-07-20T22:58:06Z</time>
      </trkpt>
      <trkpt lat="42.76683" lon="17.87565">
        <ele>61</ele>
        <time>2016-07-20T23:00:06Z</time>
      </trkpt>
      <trkpt lat="42.76661" lon="17.87579">
        <ele>61</ele>
        <time>2016-07-20T23:02:06Z</time>
      </trkpt>
      <trkpt lat="42.76644" lon="17.87591">
        <ele>61</ele>
        <time>2016-07-20T23:04:06Z</time>
      </trkpt>
      <trkpt lat="42.76602" lon="17.87617">
        <ele>60</ele>
        <time>2016-07-20T23:06:06Z</time>
      </trkpt>
      <trkpt lat="42.76524" lon="17.87667">
        <ele>55</ele>
        <time>2016-07-20T23:08:06Z</time>
      </trkpt>
      <trkpt lat="42.76466" lon="17.87713">
        <ele>54</ele>
        <time>2016-07-20T23:10:06Z</time>
      </trkpt>
      <trkpt lat="42.76416" lon="17.87756">
        <ele>54</ele>
        <time>2016-07-20T23:12:06Z</time>
      </trkpt>
      <trkpt lat="42.76414" lon="17.87759">
        <ele>54</ele>
        <time>2016-07-20T23:14:06Z</time>
      </trkpt>
      <trkpt lat="42.76377" lon="17.87793">
        <ele>53</ele>
        <time>2016-07-20T23:16:06Z</time>
      </trkpt>
      <trkpt lat="42.7632" lon="17.87853">
        <ele>52</ele>
        <time>2016-07-20T23:18:06Z</time>
      </trkpt>
      <trkpt lat="42.76315" lon="17.87858">
        <ele>52</ele>
        <time>2016-07-20T23:20:06Z</time>
      </trkpt>
      <trkpt lat="42.762" lon="17.87981">
        <ele>52</ele>
        <time>2016-07-20T23:22:06Z</time>
      </trkpt>
      <trkpt lat="42.76159" lon="17.88029">
        <ele>50</ele>
        <time>2016-07-20T23:24:06Z</time>
      </trkpt>
      <trkpt lat="42.76102" lon="17.88103">
        <ele>49</ele>
        <time>2016-07-20T23:26:06Z</time>
      </trkpt>
      <trkpt lat="42.7603" lon="17.882">
        <ele>46</ele>
        <time>2016-07-20T23:28:06Z</time>
      </trkpt>
      <trkpt lat="42.75957" lon="17.88304">
        <ele>45</ele>
        <time>2016-07-20T23:30:06Z</time>
      </trkpt>
      <trkpt lat="42.75898" lon="17.88378">
        <ele>42</ele>
        <time>2016-07-20T23:32:06Z</time>
      </trkpt>
      <trkpt lat="42.7585" lon="17.88436">
        <ele>39</ele>
        <time>2016-07-20T23:34:06Z</time>
      </trkpt>
      <trkpt lat="42.75759" lon="17.88559">
        <ele>35</ele>
        <time>2016-07-20T23:36:06Z</time>
      </trkpt>
      <trkpt lat="42.75751" lon="17.88569">
        <ele>33</ele>
        <time>2016-07-20T23:38:06Z</time>
      </trkpt>
      <trkpt lat="42.75696" lon="17.88651">
        <ele>34</ele>
        <time>2016-07-20T23:40:06Z</time>
      </trkpt>
      <trkpt lat="42.7568" lon="17.88676">
        <ele>32</ele>
        <time>2016-07-20T23:42:06Z</time>
      </trkpt>
      <trkpt lat="42.75665" lon="17.887">
        <ele>31</ele>
        <time>2016-07-20T23:44:06Z</time>
      </trkpt>
      <trkpt lat="42.75639" lon="17.88748">
        <ele>33</ele>
        <time>2016-07-20T23:46:06Z</time>
      </trkpt>
      <trkpt lat="42.756" lon="17.88821">
        <ele>33</ele>
        <time>2016-07-20T23:48:06Z</time>
      </trkpt>
      <trkpt lat="42.75587" lon="17.88843">
        <ele>31</ele>
        <time>2016-07-20T23:50:06Z</time>
      </trkpt>
      <trkpt lat="42.75536" lon="17.88942">
        <ele>30</ele>
        <time>2016-07-20T23:52:06Z</time>
      </trkpt>
      <trkpt lat="42.75505" lon="17.89005">
        <ele>28</ele>
        <time>2016-07-20T23:54:06Z</time>
      </trkpt>
      <trkpt lat="42.75454" lon="17.89101">
        <ele>31</ele>
        <time>2016-07-20T23:56:06Z</time>
      </trkpt>
      <trkpt lat="42.75395" lon="17.89201">
        <ele>27</ele>
        <time>2016-07-20T23:58:06Z</time>
      </trkpt>
      <trkpt lat="42.75378" lon="17.89231">
        <ele>27</ele>
        <time>2016-07-21T00:00:06Z</time>
      </trkpt>
      <trkpt lat="42.75365" lon="17.89255">
        <ele>27</ele>
        <time>2016-07-21T00:02:06Z</time>
      </trkpt>
      <trkpt lat="42.75316" lon="17.89339">
        <ele>27</ele>
        <time>2016-07-21T00:04:06Z</time>
      </trkpt>
      <trkpt lat="42.75304" lon="17.89367">
        <ele>28</ele>
        <time>2016-07-21T00:06:06Z</time>
      </trkpt>
      <trkpt lat="42.75275" lon="17.89438">
        <ele>29</ele>
        <time>2016-07-21T00:08:06Z</time>
      </trkpt>
      <trkpt lat="42.75259" lon="17.89475">
        <ele>29</ele>
        <time>2016-07-21T00:10:06Z</time>
      </trkpt>
      <trkpt lat="42.75242" lon="17.89509">
        <ele>28</ele>
        <time>2016-07-21T00:12:06Z</time>
      </trkpt>
      <trkpt lat="42.75225" lon="17.89539">
        <ele>29</ele>
        <time>2016-07-21T00:14:06Z</time>
      </trkpt>
      <trkpt lat="42.752" lon="17.8958">
        <ele>27</ele>
        <time>2016-07-21T00:16:06Z</time>
      </trkpt>
      <trkpt lat="42.75181" lon="17.89608">
        <ele>28</ele>
        <time>2016-07-21T00:18:06Z</time>
      </trkpt>
      <trkpt lat="42.75121" lon="17.89685">
        <ele>30</ele>
        <time>2016-07-21T00:20:06Z</time>
      </trkpt>
      <trkpt lat="42.75069" lon="17.8975">
        <ele>29</ele>
        <time>2016-07-21T00:22:06Z</time>
      </trkpt>
      <trkpt lat="42.75055" lon="17.8977">
        <ele>29</ele>
        <time>2016-07-21T00:24:06Z</time>
      </trkpt>
      <trkpt lat="42.75042" lon="17.89791">
        <ele>29</ele>
        <time>2016-07-21T00:26:06Z</time>
      </trkpt>
      <trkpt lat="42.7503" lon="17.89813">
        <ele>30</ele>
        <time>2016-07-21T00:28:06Z</time>
      </trkpt>
      <trkpt lat="42.75022" lon="17.89829">
        <ele>30</ele>
        <time>2016-07-21T00:30:06Z</time>
      </trkpt>
      <trkpt lat="42.75001" lon="17.89874">
        <ele>27</ele>
        <time>2016-07-21T00:32:06Z</time>
      </trkpt>
      <trkpt lat="42.74995" lon="17.89895">
        <ele>27</ele>
        <time>2016-07-21T00:34:06Z</time>
      </trkpt>
      <trkpt lat="42.74986" lon="17.89926">
        <ele>29</ele>
        <time>2016-07-21T00:36:06Z</time>
      </trkpt>
      <trkpt lat="42.74964" lon="17.89999">
        <ele>33</ele>
        <time>2016-07-21T00:38:06Z</time>
      </trkpt>
      <trkpt lat="42.74957" lon="17.90017">
        <ele>34</ele>
        <time>2016-07-21T00:40:06Z</time>
      </trkpt>
      <trkpt lat="42.7495" lon="17.90034">
        <ele>35</ele>
        <time>2016-07-21T00:42:06Z</time>
      </trkpt>
      <trkpt lat="42.7494" lon="17.90049">
        <ele>33</ele>
        <time>2016-07-21T00:44:06Z</time>
      </trkpt>
      <trkpt lat="42.74929" lon="17.90065">
        <ele>31</ele>
        <time>2016-07-21T00:46:06Z</time>
      </trkpt>
      <trkpt lat="42.74841" lon="17.90169">
        <ele>28</ele>
        <time>2016-07-21T00:48:06Z</time>
      </trkpt>
      <trkpt lat="42.74812" lon="17.90206">
        <ele>28</ele>
        <time>2016-07-21T00:50:06Z</time>
      </trkpt>
      <trkpt lat="42.74796" lon="17.9023">
        <ele>27</ele>
        <time>2016-07-21T00:52:06Z</time>
      </trkpt>
      <trkpt lat="42.74786" lon="17.90246">
        <ele>27</ele>
        <time>2016-07-21T00:54:06Z</time>
      </trkpt>
      <trkpt lat="42.74782" lon="17.90252">
        <ele>27</ele>
        <time>2016-07-21T00:56:06Z</time>
      </trkpt>
      <trkpt lat="42.74778" lon="17.90259">
        <ele>27</ele>
        <time>2016-07-21T00:58:06Z</time>
      </trkpt>
      <trkpt lat="42.74773" lon="17.90268">
        <ele>27</ele>
        <time>2016-07-21T01:00:06Z</time>
      </trkpt>
      <trkpt lat="42.74736" lon="17.90339">
        <ele>28</ele>
        <time>2016-07-21T01:02:06Z</time>
      </trkpt>
      <trkpt lat="42.74722" lon="17.90369">
        <ele>29</ele>
        <time>2016-07-21T01:04:06Z</time>
      </trkpt>
      <trkpt lat="42.74701" lon="17.90409">
        <ele>28</ele>
        <time>2016-07-21T01:06:06Z</time>
      </trkpt>
      <trkpt lat="42.74684" lon="17.90436">
        <ele>27</ele>
        <time>2016-07-21T01:08:06Z</time>
      </trkpt>
      <trkpt lat="42.74655" lon="17.90482">
        <ele>26</ele>
        <time>2016-07-21T01:10:06Z</time>
      </trkpt>
      <trkpt lat="42.74627" lon="17.90526">
        <ele>22</ele>
        <time>2016-07-21T01:12:06Z</time>
      </trkpt>
      <trkpt lat="42.74617" lon="17.90542">
        <ele>20</ele>
        <time>2016-07-21T01:14:06Z</time>
      </trkpt>
      <trkpt lat="42.74612" lon="17.90553">
        <ele>20</ele>
        <time>2016-07-21T01:16:06Z</time>
      </trkpt>
      <trkpt lat="42.74601" lon="17.90574">
        <ele>20</ele>
        <time>2016-07-21T01:18:06Z</time>
      </trkpt>
      <trkpt lat="42.74599" lon="17.90579">
        <ele>20</ele>
        <time>2016-07-21T01:20:06Z</time>
      </trkpt>
      <trkpt lat="42.74594" lon="17.90595">
        <ele>19</ele>
        <time>2016-07-21T01:22:06Z</time>
      </trkpt>
      <trkpt lat="42.74589" lon="17.90615">
        <ele>19</ele>
        <time>2016-07-21T01:24:06Z</time>
      </trkpt>
      <trkpt lat="42.74586" lon="17.90628">
        <ele>19</ele>
        <time>2016-07-21T01:26:06Z</time>
      </trkpt>
      <trkpt lat="42.74584" lon="17.9064">
        <ele>19</ele>
        <time>2016-07-21T01:28:06Z</time>
      </trkpt>
      <trkpt lat="42.74583" lon="17.90652">
        <ele>19</ele>
        <time>2016-07-21T01:30:06Z</time>
      </trkpt>
      <trkpt lat="42.74582" lon="17.90665">
        <ele>20</ele>
        <time>2016-07-21T01:32:06Z</time>
      </trkpt>
      <trkpt lat="42.74582" lon="17.90676">
        <ele>20</ele>
        <time>2016-07-21T01:34:06Z</time>
      </trkpt>
      <trkpt lat="42.74583" lon="17.90693">
        <ele>20</ele>
        <time>2016-07-21T01:36:06Z</time>
      </trkpt>
      <trkpt lat="42.74584" lon="17.90695">
        <ele>20</ele>
        <time>2016-07-21T01:38:06Z</time>
      </trkpt>
      <trkpt lat="42.74585" lon="17.90709">
        <ele>20</ele>
        <time>2016-07-21T01:40:06Z</time>
      </trkpt>
      <trkpt lat="42.74595" lon="17.90758">
        <ele>23</ele>
        <time>2016-07-21T01:42:06Z</time>
      </trkpt>
      <trkpt lat="42.746" lon="17.90792">
        <ele>25</ele>
        <time>2016-07-21T01:44:06Z</time>
      </trkpt>
      <trkpt lat="42.74602" lon="17.90803">
        <ele>26</ele>
        <time>2016-07-21T01:46:06Z</time>
      </trkpt>
      <trkpt lat="42.74603" lon="17.90816">
        <ele>26</ele>
        <time>2016-07-21T01:48:06Z</time>
      </trkpt>
      <trkpt lat="42.74604" lon="17.90833">
        <ele>27</ele>
        <time>2016-07-21T01:50:06Z</time>
      </trkpt>
      <trkpt lat="42.74604" lon="17.90847">
        <ele>27</ele>
        <time>2016-07-21T01:52:06Z</time>
      </trkpt>
      <trkpt lat="42.74604" lon="17.90866">
        <ele>28</ele>
        <time>2016-07-21T01:54:06Z</time>
      </trkpt>
      <trkpt lat="42.74603" lon="17.9088">
        <ele>28</ele>
        <time>2016-07-21T01:56:06Z</time>
      </trkpt>
      <trkpt lat="42.74597" lon="17.90951">
        <ele>27</ele>
        <time>2016-07-21T01:58:06Z</time>
      </trkpt>
      <trkpt lat="42.7459" lon="17.91">
        <ele>27</ele>
        <time>2016-07-21T02:00:06Z</time>
      </trkpt>
      <trkpt lat="42.7458" lon="17.91089">
        <ele>29</ele>
        <time>2016-07-21T02:02:06Z</time>
      </trkpt>
      <trkpt lat="42.74574" lon="17.91149">
        <ele>28</ele>
        <time>2016-07-21T02:04:06Z</time>
      </trkpt>
      <trkpt lat="42.74573" lon="17.91207">
        <ele>30</ele>
        <time>2016-07-21T02:06:06Z</time>
      </trkpt>
      <trkpt lat="42.74573" lon="17.91224">
        <ele>31</ele>
        <time>2016-07-21T02:08:06Z</time>
      </trkpt>
      <trkpt lat="42.74573" lon="17.91236">
        <ele>32</ele>
        <time>2016-07-21T02:10:06Z</time>
      </trkpt>
      <trkpt lat="42.74572" lon="17.91255">
        <ele>32</ele>
        <time>2016-07-21T02:12:06Z</time>
      </trkpt>
      <trkpt lat="42.7457" lon="17.91309">
        <ele>34</ele>
        <time>2016-07-21T02:14:06Z</time>
      </trkpt>
      <trkpt lat="42.74568" lon="17.91326">
        <ele>34</ele>
        <time>2016-07-21T02:16:06Z</time>
      </trkpt>
      <trkpt lat="42.74566" lon="17.91343">
        <ele>34</ele>
        <time>2016-07-21T02:18:06Z</time>
      </trkpt>
      <trkpt lat="42.74564" lon="17.9136">
        <ele>34</ele>
        <time>2016-07-21T02:20:06Z</time>
      </trkpt>
      <trkpt lat="42.74561" lon="17.91378">
        <ele>34</ele>
        <time>2016-07-21T02:22:06Z</time>
      </trkpt>
      <trkpt lat="42.74558" lon="17.91388">
        <ele>33</ele>
        <time>2016-07-21T02:24:06Z</time>
      </trkpt>
      <trkpt lat="42.74554" lon="17.91398">
        <ele>32</ele>
        <time>2016-07-21T02:26:06Z</time>
      </trkpt>
      <trkpt lat="42.7455" lon="17.91408">
        <ele>31</ele>
        <time>2016-07-21T02:28:06Z</time>
      </trkpt>
      <trkpt lat="42.74544" lon="17.91421">
        <ele>31</ele>
        <time>2016-07-21T02:30:06Z</time>
      </trkpt>
      <trkpt lat="42.74517" lon="17.91471">
        <ele>36</ele>
        <time>2016-07-21T02:32:06Z</time>
      </trkpt>
      <trkpt lat="42.74509" lon="17.91484">
        <ele>36</ele>
        <time>2016-07-21T02:34:06Z</time>
      </trkpt>
      <trkpt lat="42.74501" lon="17.91495">
        <ele>36</ele>
        <time>2016-07-21T02:36:06Z</time>
      </trkpt>
      <trkpt lat="42.74487" lon="17.91517">
        <ele>37</ele>
        <time>2016-07-21T02:38:06Z</time>
      </trkpt>
      <trkpt lat="42.74462" lon="17.91562">
        <ele>39</ele>
        <time>2016-07-21T02:40:06Z</time>
      </trkpt>
      <trkpt lat="42.74456" lon="17.91575">
        <ele>40</ele>
        <time>2016-07-21T02:42:06Z</time>
      </trkpt>
      <trkpt lat="42.7445" lon="17.91587">
        <ele>39</ele>
        <time>2016-07-21T02:44:06Z</time>
      </trkpt>
      <trkpt lat="42.74431" lon="17.91633">
        <ele>38</ele>
        <time>2016-07-21T02:46:06Z</time>
      </trkpt>
      <trkpt lat="42.74424" lon="17.91653">
        <ele>37</ele>
        <time>2016-07-21T02:48:06Z</time>
      </trkpt>
      <trkpt lat="42.74418" lon="17.91674">
        <ele>37</ele>
        <time>2016-07-21T02:50:06Z</time>
      </trkpt>
      <trkpt lat="42.74409" lon="17.9171">
        <ele>40</ele>
        <time>2016-07-21T02:52:06Z</time>
      </trkpt>
      <trkpt lat="42.74387" lon="17.91791">
        <ele>44</ele>
        <time>2016-07-21T02:54:06Z</time>
      </trkpt>
      <trkpt lat="42.74381" lon="17.91806">
        <ele>44</ele>
        <time>2016-07-21T02:56:06Z</time>
      </trkpt>
      <trkpt lat="42.74369" lon="17.91834">
        <ele>43</ele>
        <time>2016-07-21T02:58:06Z</time>
      </trkpt>
      <trkpt lat="42.74358" lon="17.91861">
        <ele>41</ele>
        <time>2016-07-21T03:00:06Z</time>
      </trkpt>
      <trkpt lat="42.74341" lon="17.91897">
        <ele>36</ele>
        <time>2016-07-21T03:02:06Z</time>
      </trkpt>
      <trkpt lat="42.74337" lon="17.91908">
        <ele>34</ele>
        <time>2016-07-21T03:04:06Z</time>
      </trkpt>
      <trkpt lat="42.74332" lon="17.9192">
        <ele>33</ele>
        <time>2016-07-21T03:06:06Z</time>
      </trkpt>
      <trkpt lat="42.74328" lon="17.91932">
        <ele>33</ele>
        <time>2016-07-21T03:08:06Z</time>
      </trkpt>
      <trkpt lat="42.74323" lon="17.91951">
        <ele>33</ele>
        <time>2016-07-21T03:10:06Z</time>
      </trkpt>
      <trkpt lat="42.7432" lon="17.91964">
        <ele>33</ele>
        <time>2016-07-21T03:12:06Z</time>
      </trkpt>
      <trkpt lat="42.74317" lon="17.91977">
        <ele>34</ele>
        <time>2016-07-21T03:14:06Z</time>
      </trkpt>
      <trkpt lat="42.74316" lon="17.9199">
        <ele>34</ele>
        <time>2016-07-21T03:16:06Z</time>
      </trkpt>
      <trkpt lat="42.74317" lon="17.92018">
        <ele>34</ele>
        <time>2016-07-21T03:18:06Z</time>
      </trkpt>
      <trkpt lat="42.74319" lon="17.92079">
        <ele>25</ele>
        <time>2016-07-21T03:20:06Z</time>
      </trkpt>
      <trkpt lat="42.74319" lon="17.92102">
        <ele>25</ele>
        <time>2016-07-21T03:22:06Z</time>
      </trkpt>
      <trkpt lat="42.74319" lon="17.92118">
        <ele>26</ele>
        <time>2016-07-21T03:24:06Z</time>
      </trkpt>
      <trkpt lat="42.74318" lon="17.92127">
        <ele>25</ele>
        <time>2016-07-21T03:26:06Z</time>
      </trkpt>
      <trkpt lat="42.74316" lon="17.9214">
        <ele>25</ele>
        <time>2016-07-21T03:28:06Z</time>
      </trkpt>
      <trkpt lat="42.74311" lon="17.92159">
        <ele>23</ele>
        <time>2016-07-21T03:30:06Z</time>
      </trkpt>
      <trkpt lat="42.7431" lon="17.92161">
        <ele>23</ele>
        <time>2016-07-21T03:32:06Z</time>
      </trkpt>
      <trkpt lat="42.74301" lon="17.92185">
        <ele>24</ele>
        <time>2016-07-21T03:34:06Z</time>
      </trkpt>
      <trkpt lat="42.74291" lon="17.92205">
        <ele>25</ele>
        <time>2016-07-21T03:36:06Z</time>
      </trkpt>
      <trkpt lat="42.74274" lon="17.92237">
        <ele>26</ele>
        <time>2016-07-21T03:38:06Z</time>
      </trkpt>
      <trkpt lat="42.74233" lon="17.92309">
        <ele>29</ele>
        <time>2016-07-21T03:40:06Z</time>
      </trkpt>
      <trkpt lat="42.74216" lon="17.92341">
        <ele>30</ele>
        <time>2016-07-21T03:42:06Z</time>
      </trkpt>
      <trkpt lat="42.74199" lon="17.92373">
        <ele>32</ele>
        <time>2016-07-21T03:44:06Z</time>
      </trkpt>
      <trkpt lat="42.74167" lon="17.92428">
        <ele>30</ele>
        <time>2016-07-21T03:46:06Z</time>
      </trkpt>
      <trkpt lat="42.74136" lon="17.92482">
        <ele>27</ele>
        <time>2016-07-21T03:48:06Z</time>
      </trkpt>
      <trkpt lat="42.7412" lon="17.92511">
        <ele>24</ele>
        <time>2016-07-21T03:50:06Z</time>
      </trkpt>
      <trkpt lat="42.74109" lon="17.92534">
        <ele>23</ele>
        <time>2016-07-21T03:52:06Z</time>
      </trkpt>
      <trkpt lat="42.74103" lon="17.92548">
        <ele>24</ele>
        <time>2016-07-21T03:54:06Z</time>
      </trkpt>
      <trkpt lat="42.741" lon="17.92558">
        <ele>25</ele>
        <time>2016-07-21T03:56:06Z</time>
      </trkpt>
      <trkpt lat="42.74097" lon="17.92568">
        <ele>26</ele>
        <time>2016-07-21T03:58:06Z</time>
      </trkpt>
      <trkpt lat="42.74094" lon="17.92578">
        <ele>27</ele>
        <time>2016-07-21T04:00:06Z</time>
      </trkpt>
      <trkpt lat="42.74091" lon="17.92594">
        <ele>26</ele>
        <time>2016-07-21T04:02:06Z</time>
      </trkpt>
      <trkpt lat="42.7409" lon="17.92607">
        <ele>24</ele>
        <time>2016-07-21T04:04:06Z</time>
      </trkpt>
      <trkpt lat="42.7409" lon="17.92616">
        <ele>23</ele>
        <time>2016-07-21T04:06:06Z</time>
      </trkpt>
      <trkpt lat="42.74089" lon="17.92626">
        <ele>22</ele>
        <time>2016-07-21T04:08:06Z</time>
      </trkpt>
      <trkpt lat="42.7409" lon="17.92636">
        <ele>21</ele>
        <time>2016-07-21T04:10:06Z</time>
      </trkpt>
      <trkpt lat="42.74091" lon="17.92651">
        <ele>20</ele>
        <time>2016-07-21T04:12:06Z</time>
      </trkpt>
      <trkpt lat="42.74093" lon="17.92661">
        <ele>20</ele>
        <time>2016-07-21T04:14:06Z</time>
      </trkpt>
      <trkpt lat="42.74097" lon="17.92675">
        <ele>21</ele>
        <time>2016-07-21T04:16:06Z</time>
      </trkpt>
      <trkpt lat="42.74103" lon="17.92692">
        <ele>22</ele>
        <time>2016-07-21T04:18:06Z</time>
      </trkpt>
      <trkpt lat="42.74109" lon="17.9271">
        <ele>23</ele>
        <time>2016-07-21T04:20:06Z</time>
      </trkpt>
      <trkpt lat="42.74115" lon="17.92729">
        <ele>24</ele>
        <time>2016-07-21T04:22:06Z</time>
      </trkpt>
      <trkpt lat="42.7412" lon="17.92749">
        <ele>23</ele>
        <time>2016-07-21T04:24:06Z</time>
      </trkpt>
      <trkpt lat="42.74122" lon="17.92764">
        <ele>23</ele>
        <time>2016-07-21T04:26:06Z</time>
      </trkpt>
      <trkpt lat="42.74123" lon="17.92775">
        <ele>23</ele>
        <time>2016-07-21T04:28:06Z</time>
      </trkpt>
      <trkpt lat="42.74123" lon="17.92786">
        <ele>23</ele>
        <time>2016-07-21T04:30:06Z</time>
      </trkpt>
      <trkpt lat="42.74123" lon="17.92796">
        <ele>22</ele>
        <time>2016-07-21T04:32:06Z</time>
      </trkpt>
      <trkpt lat="42.74123" lon="17.92806">
        <ele>22</ele>
        <time>2016-07-21T04:34:06Z</time>
      </trkpt>
      <trkpt lat="42.74121" lon="17.92815">
        <ele>21</ele>
        <time>2016-07-21T04:36:06Z</time>
      </trkpt>
      <trkpt lat="42.74119" lon="17.92829">
        <ele>20</ele>
        <time>2016-07-21T04:38:06Z</time>
      </trkpt>
      <trkpt lat="42.74118" lon="17.92834">
        <ele>20</ele>
        <time>2016-07-21T04:40:06Z</time>
      </trkpt>
      <trkpt lat="42.74114" lon="17.92844">
        <ele>20</ele>
        <time>2016-07-21T04:42:06Z</time>
      </trkpt>
      <trkpt lat="42.74106" lon="17.92857">
        <ele>20</ele>
        <time>2016-07-21T04:44:06Z</time>
      </trkpt>
      <trkpt lat="42.74102" lon="17.92862">
        <ele>20</ele>
        <time>2016-07-21T04:46:06Z</time>
      </trkpt>
      <trkpt lat="42.74095" lon="17.92869">
        <ele>19</ele>
        <time>2016-07-21T04:48:06Z</time>
      </trkpt>
      <trkpt lat="42.74087" lon="17.92874">
        <ele>19</ele>
        <time>2016-07-21T04:50:06Z</time>
      </trkpt>
      <trkpt lat="42.74069" lon="17.92882">
        <ele>21</ele>
        <time>2016-07-21T04:52:06Z</time>
      </trkpt>
      <trkpt lat="42.7405" lon="17.92886">
        <ele>23</ele>
        <time>2016-07-21T04:54:06Z</time>
      </trkpt>
      <trkpt lat="42.74044" lon="17.92887">
        <ele>23</ele>
        <time>2016-07-21T04:56:06Z</time>
      </trkpt>
      <trkpt lat="42.74019" lon="17.92887">
        <ele>25</ele>
        <time>2016-07-21T04:58:06Z</time>
      </trkpt>
      <trkpt lat="42.73998" lon="17.92888">
        <ele>26</ele>
        <time>2016-07-21T05:00:06Z</time>
      </trkpt>
      <trkpt lat="42.7399" lon="17.92888">
        <ele>26</ele>
        <time>2016-07-21T05:02:06Z</time>
      </trkpt>
      <trkpt lat="42.73974" lon="17.92888">
        <ele>25</ele>
        <time>2016-07-21T05:04:06Z</time>
      </trkpt>
      <trkpt lat="42.73957" lon="17.92891">
        <ele>25</ele>
        <time>2016-07-21T05:06:06Z</time>
      </trkpt>
      <trkpt lat="42.73923" lon="17.929">
        <ele>25</ele>
        <time>2016-07-21T05:08:06Z</time>
      </trkpt>
      <trkpt lat="42.73917" lon="17.92902">
        <ele>25</ele>
        <time>2016-07-21T05:10:06Z</time>
      </trkpt>
      <trkpt lat="42.73888" lon="17.92912">
        <ele>23</ele>
        <time>2016-07-21T05:12:06Z</time>
      </trkpt>
      <trkpt lat="42.73866" lon="17.92918">
        <ele>22</ele>
        <time>2016-07-21T05:14:06Z</time>
      </trkpt>
      <trkpt lat="42.73823" lon="17.92932">
        <ele>23</ele>
        <time>2016-07-21T05:16:06Z</time>
      </trkpt>
      <trkpt lat="42.73796" lon="17.92941">
        <ele>23</ele>
        <time>2016-07-21T05:18:06Z</time>
      </trkpt>
      <trkpt lat="42.73753" lon="17.92958">
        <ele>25</ele>
        <time>2016-07-21T05:20:06Z</time>
      </trkpt>
      <trkpt lat="42.73735" lon="17.92966">
        <ele>25</ele>
        <time>2016-07-21T05:22:06Z</time>
      </trkpt>
      <trkpt lat="42.73716" lon="17.92979">
        <ele>24</ele>
        <time>2016-07-21T05:24:06Z</time>
      </trkpt>
      <trkpt lat="42.73712" lon="17.92981">
        <ele>24</ele>
        <time>2016-07-21T05:26:06Z</time>
      </trkpt>
      <trkpt lat="42.73698" lon="17.92993">
        <ele>23</ele>
        <time>2016-07-21T05:28:06Z</time>
      </trkpt>
      <trkpt lat="42.73684" lon="17.93007">
        <ele>22</ele>
        <time>2016-07-21T05:30:06Z</time>
      </trkpt>
      <trkpt lat="42.73669" lon="17.93026">
        <ele>24</ele>
        <time>2016-07-21T05:32:06Z</time>
      </trkpt>
      <trkpt lat="42.73654" lon="17.93046">
        <ele>26</ele>
        <time>2016-07-21T05:34:06Z</time>
      </trkpt>
      <trkpt lat="42.73641" lon="17.93063">
        <ele>28</ele>
        <time>2016-07-21T05:36:06Z</time>
      </trkpt>
      <trkpt lat="42.73615" lon="17.93104">
        <ele>27</ele>
        <time>2016-07-21T05:38:06Z</time>
      </trkpt>
      <trkpt lat="42.73591" lon="17.93154">
        <ele>26</ele>
        <time>2016-07-21T05:40:06Z</time>
      </trkpt>
      <trkpt lat="42.73585" lon="17.93168">
        <ele>26</ele>
        <time>2016-07-21T05:42:06Z</time>
      </trkpt>
      <trkpt lat="42.73579" lon="17.93185">
        <ele>26</ele>
        <time>2016-07-21T05:44:06Z</time>
      </trkpt>
      <trkpt lat="42.73574" lon="17.93208">
        <ele>27</ele>
        <time>2016-07-21T05:46:06Z</time>
      </trkpt>
      <trkpt lat="42.7357" lon="17.93227">
        <ele>27</ele>
        <time>2016-07-21T05:48:06Z</time>
      </trkpt>
      <trkpt lat="42.73562" lon="17.93273">
        <ele>26</ele>
        <time>2016-07-21T05:50:06Z</time>
      </trkpt>
      <trkpt lat="42.73559" lon="17.93299">
        <ele>25</ele>
        <time>2016-07-21T05:52:06Z</time>
      </trkpt>
      <trkpt lat="42.73557" lon="17.93366">
        <ele>28</ele>
        <time>2016-07-21T05:54:06Z</time>
      </trkpt>
      <trkpt lat="42.73558" lon="17.93399">
        <ele>31</ele>
        <time>2016-07-21T05:56:06Z</time>
      </trkpt>
      <trkpt lat="42.7356" lon="17.93417">
        <ele>33</ele>
        <time>2016-07-21T05:58:06Z</time>
      </trkpt>
      <trkpt lat="42.73561" lon="17.93436">
        <ele>35</ele>
        <time>2016-07-21T06:00:06Z</time>
      </trkpt>
      <trkpt lat="42.73561" lon="17.93525">
        <ele>42</ele>
        <time>2016-07-21T06:02:06Z</time>
      </trkpt>
      <trkpt lat="42.7356" lon="17.93554">
        <ele>43</ele>
        <time>2016-07-21T06:04:06Z</time>
      </trkpt>
      <trkpt lat="42.73559" lon="17.93561">
        <ele>43</ele>
        <time>2016-07-21T06:06:06Z</time>
      </trkpt>
      <trkpt lat="42.73558" lon="17.93569">
        <ele>43</ele>
        <time>2016-07-21T06:08:06Z</time>
      </trkpt>
      <trkpt lat="42.73556" lon="17.93577">
        <ele>43</ele>
        <time>2016-07-21T06:10:06Z</time>
      </trkpt>
      <trkpt lat="42.73554" lon="17.93585">
        <ele>43</ele>
        <time>2016-07-21T06:12:06Z</time>
      </trkpt>
      <trkpt lat="42.73545" lon="17.93614">
        <ele>39</ele>
        <time>2016-07-21T06:14:06Z</time>
      </trkpt>
      <trkpt lat="42.73536" lon="17.9364">
        <ele>36</ele>
        <time>2016-07-21T06:16:06Z</time>
      </trkpt>
      <trkpt lat="42.73533" lon="17.93649">
        <ele>35</ele>
        <time>2016-07-21T06:18:06Z</time>
      </trkpt>
      <trkpt lat="42.73529" lon="17.93654">
        <ele>33</ele>
        <time>2016-07-21T06:20:06Z</time>
      </trkpt>
      <trkpt lat="42.73519" lon="17.9367">
        <ele>30</ele>
        <time>2016-07-21T06:22:06Z</time>
      </trkpt>
      <trkpt lat="42.73507" lon="17.93685">
        <ele>29</ele>
        <time>2016-07-21T06:24:06Z</time>
      </trkpt>
      <trkpt lat="42.73502" lon="17.9369">
        <ele>28</ele>
        <time>2016-07-21T06:26:06Z</time>
      </trkpt>
      <trkpt lat="42.7347" lon="17.93725">
        <ele>31</ele>
        <time>2016-07-21T06:28:06Z</time>
      </trkpt>
      <trkpt lat="42.73454" lon="17.9374">
        <ele>32</ele>
        <time>2016-07-21T06:30:06Z</time>
      </trkpt>
      <trkpt lat="42.7344" lon="17.93751">
        <ele>32</ele>
        <time>2016-07-21T06:32:06Z</time>
      </trkpt>
      <trkpt lat="42.73431" lon="17.93762">
        <ele>33</ele>
        <time>2016-07-21T06:34:06Z</time>
      </trkpt>
      <trkpt lat="42.73424" lon="17.9377">
        <ele>33</ele>
        <time>2016-07-21T06:36:06Z</time>
      </trkpt>
      <trkpt lat="42.73418" lon="17.93778">
        <ele>33</ele>
        <time>2016-07-21T06:38:06Z</time>
      </trkpt>
      <trkpt lat="42.73412" lon="17.93787">
        <ele>33</ele>
        <time>2016-07-21T06:40:06Z</time>
      </trkpt>
      <trkpt lat="42.73406" lon="17.93798">
        <ele>33</ele>
        <time>2016-07-21T06:42:06Z</time>
      </trkpt>
      <trkpt lat="42.734" lon="17.9381">
        <ele>34</ele>
        <time>2016-07-21T06:44:06Z</time>
      </trkpt>
      <trkpt lat="42.73395" lon="17.93822">
        <ele>35</ele>
        <time>2016-07-21T06:46:06Z</time>
      </trkpt>
      <trkpt lat="42.73391" lon="17.93834">
        <ele>36</ele>
        <time>2016-07-21T06:48:06Z</time>
      </trkpt>
      <trkpt lat="42.73386" lon="17.93846">
        <ele>35</ele>
        <time>2016-07-21T06:50:06Z</time>
      </trkpt>
      <trkpt lat="42.73385" lon="17.93853">
        <ele>36</ele>
        <time>2016-07-21T06:52:06Z</time>
      </trkpt>
      <trkpt lat="42.7338" lon="17.93873">
        <ele>36</ele>
        <time>2016-07-21T06:54:06Z</time>
      </trkpt>
      <trkpt lat="42.73375" lon="17.93893">
        <ele>36</ele>
        <time>2016-07-21T06:56:06Z</time>
      </trkpt>
      <trkpt lat="42.73372" lon="17.93907">
        <ele>36</ele>
        <time>2016-07-21T06:58:06Z</time>
      </trkpt>
      <trkpt lat="42.73368" lon="17.9392">
        <ele>36</ele>
        <time>2016-07-21T07:00:06Z</time>
      </trkpt>
      <trkpt lat="42.73363" lon="17.93933">
        <ele>36</ele>
        <time>2016-07-21T07:02:06Z</time>
      </trkpt>
      <trkpt lat="42.73356" lon="17.9395">
        <ele>36</ele>
        <time>2016-07-21T07:04:06Z</time>
      </trkpt>
      <trkpt lat="42.7335" lon="17.93963">
        <ele>36</ele>
        <time>2016-07-21T07:06:06Z</time>
      </trkpt>
      <trkpt lat="42.73346" lon="17.93971">
        <ele>37</ele>
        <time>2016-07-21T07:08:06Z</time>
      </trkpt>
      <trkpt lat="42.73337" lon="17.93983">
        <ele>36</ele>
        <time>2016-07-21T07:10:06Z</time>
      </trkpt>
      <trkpt lat="42.73323" lon="17.93998">
        <ele>37</ele>
        <time>2016-07-21T07:12:06Z</time>
      </trkpt>
      <trkpt lat="42.73306" lon="17.94008">
        <ele>38</ele>
        <time>2016-07-21T07:14:06Z</time>
      </trkpt>
      <trkpt lat="42.73296" lon="17.94013">
        <ele>39</ele>
        <time>2016-07-21T07:16:06Z</time>
      </trkpt>
      <trkpt lat="42.73271" lon="17.9402">
        <ele>38</ele>
        <time>2016-07-21T07:18:06Z</time>
      </trkpt>
      <trkpt lat="42.73264" lon="17.94023">
        <ele>38</ele>
        <time>2016-07-21T07:20:06Z</time>
      </trkpt>
      <trkpt lat="42.7325" lon="17.94029">
        <ele>37</ele>
        <time>2016-07-21T07:22:06Z</time>
      </trkpt>
      <trkpt lat="42.73234" lon="17.94038">
        <ele>35</ele>
        <time>2016-07-21T07:24:06Z</time>
      </trkpt>
      <trkpt lat="42.73224" lon="17.94048">
        <ele>35</ele>
        <time>2016-07-21T07:26:06Z</time>
      </trkpt>
      <trkpt lat="42.73214" lon="17.94059">
        <ele>34</ele>
        <time>2016-07-21T07:28:06Z</time>
      </trkpt>
      <trkpt lat="42.73209" lon="17.94068">
        <ele>34</ele>
        <time>2016-07-21T07:30:06Z</time>
      </trkpt>
      <trkpt lat="42.73206" lon="17.94072">
        <ele>33</ele>
        <time>2016-07-21T07:32:06Z</time>
      </trkpt>
      <trkpt lat="42.732" lon="17.94085">
        <ele>33</ele>
        <time>2016-07-21T07:34:06Z</time>
      </trkpt>
      <trkpt lat="42.73193" lon="17.94102">
        <ele>34</ele>
        <time>2016-07-21T07:36:06Z</time>
      </trkpt>
      <trkpt lat="42.73186" lon="17.94122">
        <ele>34</ele>
        <time>2016-07-21T07:38:06Z</time>
      </trkpt>
      <trkpt lat="42.73177" lon="17.94169">
        <ele>38</ele>
        <time>2016-07-21T07:40:06Z</time>
      </trkpt>
      <trkpt lat="42.73171" lon="17.94226">
        <ele>42</ele>
        <time>2016-07-21T07:42:06Z</time>
      </trkpt>
      <trkpt lat="42.7317" lon="17.9423">
        <ele>42</ele>
        <time>2016-07-21T07:44:06Z</time>
      </trkpt>
      <trkpt lat="42.7316" lon="17.94382">
        <ele>49</ele>
        <time>2016-07-21T07:46:06Z</time>
      </trkpt>
      <trkpt lat="42.73154" lon="17.94442">
        <ele>51</ele>
        <time>2016-07-21T07:48:06Z</time>
      </trkpt>
      <trkpt lat="42.73148" lon="17.94493">
        <ele>54</ele>
        <time>2016-07-21T07:50:06Z</time>
      </trkpt>
      <trkpt lat="42.73137" lon="17.94547">
        <ele>55</ele>
        <time>2016-07-21T07:52:06Z</time>
      </trkpt>
      <trkpt lat="42.73127" lon="17.94583">
        <ele>54</ele>
        <time>2016-07-21T07:54:06Z</time>
      </trkpt>
      <trkpt lat="42.73113" lon="17.94626">
        <ele>56</ele>
        <time>2016-07-21T07:56:06Z</time>
      </trkpt>
      <trkpt lat="42.73093" lon="17.94677">
        <ele>58</ele>
        <time>2016-07-21T07:58:06Z</time>
      </trkpt>
      <trkpt lat="42.73071" lon="17.94725">
        <ele>59</ele>
        <time>2016-07-21T08:00:06Z</time>
      </trkpt>
      <trkpt lat="42.73046" lon="17.94771">
        <ele>60</ele>
        <time>2016-07-21T08:02:06Z</time>
      </trkpt>
      <trkpt lat="42.73008" lon="17.94832">
        <ele>62</ele>
        <time>2016-07-21T08:04:06Z</time>
      </trkpt>
      <trkpt lat="42.73003" lon="17.9484">
        <ele>62</ele>
        <time>2016-07-21T08:06:06Z</time>
      </trkpt>
      <trkpt lat="42.72958" lon="17.94907">
        <ele>66</ele>
        <time>2016-07-21T08:08:06Z</time>
      </trkpt>
      <trkpt lat="42.7295" lon="17.9492">
        <ele>66</ele>
        <time>2016-07-21T08:10:06Z</time>
      </trkpt>
      <trkpt lat="42.7294" lon="17.94937">
        <ele>65</ele>
        <time>2016-07-21T08:12:06Z</time>
      </trkpt>
      <trkpt lat="42.72934" lon="17.94948">
        <ele>65</ele>
        <time>2016-07-21T08:14:06Z</time>
      </trkpt>
      <trkpt lat="42.72926" lon="17.94964">
        <ele>64</ele>
        <time>2016-07-21T08:16:06Z</time>
      </trkpt>
      <trkpt lat="42.7292" lon="17.94976">
        <ele>64</ele>
        <time>2016-07-21T08:18:06Z</time>
      </trkpt>
      <trkpt lat="42.72914" lon="17.94989">
        <ele>64</ele>
        <time>2016-07-21T08:20:06Z</time>
      </trkpt>
      <trkpt lat="42.72908" lon="17.95008">
        <ele>63</ele>
        <time>2016-07-21T08:22:06Z</time>
      </trkpt>
      <trkpt lat="42.72903" lon="17.95031">
        <ele>62</ele>
        <time>2016-07-21T08:24:06Z</time>
      </trkpt>
      <trkpt lat="42.729" lon="17.95048">
        <ele>61</ele>
        <time>2016-07-21T08:26:06Z</time>
      </trkpt>
      <trkpt lat="42.72899" lon="17.95063">
        <ele>60</ele>
        <time>2016-07-21T08:28:06Z</time>
      </trkpt>
      <trkpt lat="42.72899" lon="17.95077">
        <ele>60</ele>
        <time>2016-07-21T08:30:06Z</time>
      </trkpt>
      <trkpt lat="42.72901" lon="17.9509">
        <ele>59</ele>
        <time>2016-07-21T08:32:06Z</time>
      </trkpt>
      <trkpt lat="42.72904" lon="17.95108">
        <ele>58</ele>
        <time>2016-07-21T08:34:06Z</time>
      </trkpt>
      <trkpt lat="42.72911" lon="17.95123">
        <ele>59</ele>
        <time>2016-07-21T08:36:06Z</time>
      </trkpt>
      <trkpt lat="42.72919" lon="17.95138">
        <ele>59</ele>
        <time>2016-07-21T08:38:06Z</time>
      </trkpt>
      <trkpt lat="42.72927" lon="17.95147">
        <ele>59</ele>
        <time>2016-07-21T08:40:06Z</time>
      </trkpt>
      <trkpt lat="42.72934" lon="17.95154">
        <ele>59</ele>
        <time>2016-07-21T08:42:06Z</time>
      </trkpt>
      <trkpt lat="42.7294" lon="17.95158">
        <ele>59</ele>
        <time>2016-07-21T08:44:06Z</time>
      </trkpt>
      <trkpt lat="42.72951" lon="17.95161">
        <ele>60</ele>
        <time>2016-07-21T08:46:06Z</time>
      </trkpt>
      <trkpt lat="42.7296" lon="17.95162">
        <ele>61</ele>
        <time>2016-07-21T08:48:06Z</time>
      </trkpt>
      <trkpt lat="42.72978" lon="17.95161">
        <ele>62</ele>
        <time>2016-07-21T08:50:06Z</time>
      </trkpt>
      <trkpt lat="42.72997" lon="17.95157">
        <ele>65</ele>
        <time>2016-07-21T08:52:06Z</time>
      </trkpt>
      <trkpt lat="42.73025" lon="17.95151">
        <ele>71</ele>
        <time>2016-07-21T08:54:06Z</time>
      </trkpt>
      <trkpt lat="42.73041" lon="17.95149">
        <ele>73</ele>
        <time>2016-07-21T08:56:06Z</time>
      </trkpt>
      <trkpt lat="42.73052" lon="17.95149">
        <ele>75</ele>
        <time>2016-07-21T08:58:06Z</time>
      </trkpt>
      <trkpt lat="42.7306" lon="17.95151">
        <ele>75</ele>
        <time>2016-07-21T09:00:06Z</time>
      </trkpt>
      <trkpt lat="42.7307" lon="17.95154">
        <ele>76</ele>
        <time>2016-07-21T09:02:06Z</time>
      </trkpt>
      <trkpt lat="42.73077" lon="17.9516">
        <ele>75</ele>
        <time>2016-07-21T09:04:06Z</time>
      </trkpt>
      <trkpt lat="42.73083" lon="17.95165">
        <ele>74</ele>
        <time>2016-07-21T09:06:06Z</time>
      </trkpt>
      <trkpt lat="42.73089" lon="17.95172">
        <ele>77</ele>
        <time>2016-07-21T09:08:06Z</time>
      </trkpt>
      <trkpt lat="42.73095" lon="17.95186">
        <ele>80</ele>
        <time>2016-07-21T09:10:06Z</time>
      </trkpt>
      <trkpt lat="42.731" lon="17.95204">
        <ele>83</ele>
        <time>2016-07-21T09:12:06Z</time>
      </trkpt>
      <trkpt lat="42.73103" lon="17.95216">
        <ele>85</ele>
        <time>2016-07-21T09:14:06Z</time>
      </trkpt>
      <trkpt lat="42.73105" lon="17.95232">
        <ele>86</ele>
        <time>2016-07-21T09:16:06Z</time>
      </trkpt>
      <trkpt lat="42.73105" lon="17.95247">
        <ele>86</ele>
        <time>2016-07-21T09:18:06Z</time>
      </trkpt>
      <trkpt lat="42.73104" lon="17.95265">
        <ele>87</ele>
        <time>2016-07-21T09:20:06Z</time>
      </trkpt>
      <trkpt lat="42.73101" lon="17.95284">
        <ele>87</ele>
        <time>2016-07-21T09:22:06Z</time>
      </trkpt>
      <trkpt lat="42.73089" lon="17.95334">
        <ele>85</ele>
        <time>2016-07-21T09:24:06Z</time>
      </trkpt>
      <trkpt lat="42.73081" lon="17.95364">
        <ele>85</ele>
        <time>2016-07-21T09:26:06Z</time>
      </trkpt>
      <trkpt lat="42.7306" lon="17.95417">
        <ele>83</ele>
        <time>2016-07-21T09:28:06Z</time>
      </trkpt>
      <trkpt lat="42.73045" lon="17.95454">
        <ele>80</ele>
        <time>2016-07-21T09:30:06Z</time>
      </trkpt>
      <trkpt lat="42.73024" lon="17.95496">
        <ele>80</ele>
        <time>2016-07-21T09:32:06Z</time>
      </trkpt>
      <trkpt lat="42.73015" lon="17.95514">
        <ele>80</ele>
        <time>2016-07-21T09:34:06Z</time>
      </trkpt>
      <trkpt lat="42.73004" lon="17.95532">
        <ele>80</ele>
        <time>2016-07-21T09:36:06Z</time>
      </trkpt>
      <trkpt lat="42.72955" lon="17.95618">
        <ele>83</ele>
        <time>2016-07-21T09:38:06Z</time>
      </trkpt>
      <trkpt lat="42.72924" lon="17.95672">
        <ele>83</ele>
        <time>2016-07-21T09:40:06Z</time>
      </trkpt>
      <trkpt lat="42.72867" lon="17.95758">
        <ele>84</ele>
        <time>2016-07-21T09:42:06Z</time>
      </trkpt>
      <trkpt lat="42.72865" lon="17.95762">
        <ele>84</ele>
        <time>2016-07-21T09:44:06Z</time>
      </trkpt>
      <trkpt lat="42.72841" lon="17.95794">
        <ele>84</ele>
        <time>2016-07-21T09:46:06Z</time>
      </trkpt>
      <trkpt lat="42.72814" lon="17.95828">
        <ele>84</ele>
        <time>2016-07-21T09:48:06Z</time>
      </trkpt>
      <trkpt lat="42.72772" lon="17.95879">
        <ele>85</ele>
        <time>2016-07-21T09:50:06Z</time>
      </trkpt>
      <trkpt lat="42.72757" lon="17.95895">
        <ele>84</ele>
        <time>2016-07-21T09:52:06Z</time>
      </trkpt>
      <trkpt lat="42.72701" lon="17.95952">
        <ele>83</ele>
        <time>2016-07-21T09:54:06Z</time>
      </trkpt>
      <trkpt lat="42.72668" lon="17.95983">
        <ele>81</ele>
        <time>2016-07-21T09:56:06Z</time>
      </trkpt>
      <trkpt lat="42.72647" lon="17.96003">
        <ele>81</ele>
        <time>2016-07-21T09:58:06Z</time>
      </trkpt>
      <trkpt lat="42.72606" lon="17.96037">
        <ele>81</ele>
        <time>2016-07-21T10:00:06Z</time>
      </trkpt>
      <trkpt lat="42.72588" lon="17.9605">
        <ele>81</ele>
        <time>2016-07-21T10:02:06Z</time>
      </trkpt>
      <trkpt lat="42.72563" lon="17.96069">
        <ele>81</ele>
        <time>2016-07-21T10:04:06Z</time>
      </trkpt>
      <trkpt lat="42.72484" lon="17.96128">
        <ele>82</ele>
        <time>2016-07-21T10:06:06Z</time>
      </trkpt>
      <trkpt lat="42.72436" lon="17.96163">
        <ele>79</ele>
        <time>2016-07-21T10:08:06Z</time>
      </trkpt>
      <trkpt lat="42.72422" lon="17.96172">
        <ele>78</ele>
        <time>2016-07-21T10:10:06Z</time>
      </trkpt>
      <trkpt lat="42.72377" lon="17.96205">
        <ele>78</ele>
        <time>2016-07-21T10:12:06Z</time>
      </trkpt>
      <trkpt lat="42.72352" lon="17.96226">
        <ele>79</ele>
        <time>2016-07-21T10:14:06Z</time>
      </trkpt>
      <trkpt lat="42.72336" lon="17.96242">
        <ele>79</ele>
        <time>2016-07-21T10:16:06Z</time>
      </trkpt>
      <trkpt lat="42.72328" lon="17.9625">
        <ele>79</ele>
        <time>2016-07-21T10:18:06Z</time>
      </trkpt>
      <trkpt lat="42.72321" lon="17.96258">
        <ele>79</ele>
        <time>2016-07-21T10:20:06Z</time>
      </trkpt>
      <trkpt lat="42.72306" lon="17.96277">
        <ele>79</ele>
        <time>2016-07-21T10:22:06Z</time>
      </trkpt>
      <trkpt lat="42.72293" lon="17.96295">
        <ele>79</ele>
        <time>2016-07-21T10:24:06Z</time>
      </trkpt>
      <trkpt lat="42.72284" lon="17.96307">
        <ele>78</ele>
        <time>2016-07-21T10:26:06Z</time>
      </trkpt>
      <trkpt lat="42.72279" lon="17.96316">
        <ele>78</ele>
        <time>2016-07-21T10:28:06Z</time>
      </trkpt>
      <trkpt lat="42.72275" lon="17.96325">
        <ele>78</ele>
        <time>2016-07-21T10:30:06Z</time>
      </trkpt>
      <trkpt lat="42.72264" lon="17.96353">
        <ele>79</ele>
        <time>2016-07-21T10:32:06Z</time>
      </trkpt>
      <trkpt lat="42.72258" lon="17.96367">
        <ele>79</ele>
        <time>2016-07-21T10:34:06Z</time>
      </trkpt>
      <trkpt lat="42.72254" lon="17.96379">
        <ele>79</ele>
        <time>2016-07-21T10:36:06Z</time>
      </trkpt>
      <trkpt lat="42.72252" lon="17.96388">
        <ele>80</ele>
        <time>2016-07-21T10:38:06Z</time>
      </trkpt>
      <trkpt lat="42.72247" lon="17.96413">
        <ele>80</ele>
        <time>2016-07-21T10:40:06Z</time>
      </trkpt>
      <trkpt lat="42.72244" lon="17.96438">
        <ele>81</ele>
        <time>2016-07-21T10:42:06Z</time>
      </trkpt>
      <trkpt lat="42.72242" lon="17.96461">
        <ele>82</ele>
        <time>2016-07-21T10:44:06Z</time>
      </trkpt>
      <trkpt lat="42.72239" lon="17.9649">
        <ele>83</ele>
        <time>2016-07-21T10:46:06Z</time>
      </trkpt>
      <trkpt lat="42.72238" lon="17.96515">
        <ele>85</ele>
        <time>2016-07-21T10:48:06Z</time>
      </trkpt>
      <trkpt lat="42.72237" lon="17.96529">
        <ele>85</ele>
        <time>2016-07-21T10:50:06Z</time>
      </trkpt>
      <trkpt lat="42.72236" lon="17.96553">
        <ele>87</ele>
        <time>2016-07-21T10:52:06Z</time>
      </trkpt>
      <trkpt lat="42.72233" lon="17.96578">
        <ele>87</ele>
        <time>2016-07-21T10:54:06Z</time>
      </trkpt>
      <trkpt lat="42.72231" lon="17.96597">
        <ele>90</ele>
        <time>2016-07-21T10:56:06Z</time>
      </trkpt>
      <trkpt lat="42.72227" lon="17.96617">
        <ele>92</ele>
        <time>2016-07-21T10:58:06Z</time>
      </trkpt>
      <trkpt lat="42.72223" lon="17.96631">
        <ele>93</ele>
        <time>2016-07-21T11:00:06Z</time>
      </trkpt>
      <trkpt lat="42.72216" lon="17.96653">
        <ele>95</ele>
        <time>2016-07-21T11:02:06Z</time>
      </trkpt>
      <trkpt lat="42.72213" lon="17.96661">
        <ele>95</ele>
        <time>2016-07-21T11:04:06Z</time>
      </trkpt>
      <trkpt lat="42.72208" lon="17.96673">
        <ele>96</ele>
        <time>2016-07-21T11:06:06Z</time>
      </trkpt>
      <trkpt lat="42.72201" lon="17.96685">
        <ele>95</ele>
        <time>2016-07-21T11:08:06Z</time>
      </trkpt>
      <trkpt lat="42.72193" lon="17.96697">
        <ele>95</ele>
        <time>2016-07-21T11:10:06Z</time>
      </trkpt>
      <trkpt lat="42.7218" lon="17.96711">
        <ele>93</ele>
        <time>2016-07-21T11:12:06Z</time>
      </trkpt>
      <trkpt lat="42.72166" lon="17.96721">
        <ele>92</ele>
        <time>2016-07-21T11:14:06Z</time>
      </trkpt>
      <trkpt lat="42.72153" lon="17.96728">
        <ele>94</ele>
        <time>2016-07-21T11:16:06Z</time>
      </trkpt>
      <trkpt lat="42.72138" lon="17.96733">
        <ele>97</ele>
        <time>2016-07-21T11:18:06Z</time>
      </trkpt>
      <trkpt lat="42.72123" lon="17.96736">
        <ele>99</ele>
        <time>2016-07-21T11:20:06Z</time>
      </trkpt>
      <trkpt lat="42.7211" lon="17.96736">
        <ele>101</ele>
        <time>2016-07-21T11:22:06Z</time>
      </trkpt>
      <trkpt lat="42.72096" lon="17.96733">
        <ele>102</ele>
        <time>2016-07-21T11:24:06Z</time>
      </trkpt>
      <trkpt lat="42.72086" lon="17.96729">
        <ele>102</ele>
        <time>2016-07-21T11:26:06Z</time>
      </trkpt>
      <trkpt lat="42.72074" lon="17.96725">
        <ele>102</ele>
        <time>2016-07-21T11:28:06Z</time>
      </trkpt>
      <trkpt lat="42.72062" lon="17.96717">
        <ele>100</ele>
        <time>2016-07-21T11:30:06Z</time>
      </trkpt>
      <trkpt lat="42.72049" lon="17.96708">
        <ele>99</ele>
        <time>2016-07-21T11:32:06Z</time>
      </trkpt>
      <trkpt lat="42.72029" lon="17.96693">
        <ele>97</ele>
        <time>2016-07-21T11:34:06Z</time>
      </trkpt>
      <trkpt lat="42.72015" lon="17.96682">
        <ele>95</ele>
        <time>2016-07-21T11:36:06Z</time>
      </trkpt>
      <trkpt lat="42.71999" lon="17.9667">
        <ele>94</ele>
        <time>2016-07-21T11:38:06Z</time>
      </trkpt>
      <trkpt lat="42.7198" lon="17.96658">
        <ele>94</ele>
        <time>2016-07-21T11:40:06Z</time>
      </trkpt>
      <trkpt lat="42.71962" lon="17.96648">
        <ele>94</ele>
        <time>2016-07-21T11:42:06Z</time>
      </trkpt>
      <trkpt lat="42.71945" lon="17.96642">
        <ele>95</ele>
        <time>2016-07-21T11:44:06Z</time>
      </trkpt>
      <trkpt lat="42.7193" lon="17.96638">
        <ele>97</ele>
        <time>2016-07-21T11:46:06Z</time>
      </trkpt>
      <trkpt lat="42.71906" lon="17.96637">
        <ele>99</ele>
        <time>2016-07-21T11:48:06Z</time>
      </trkpt>
      <trkpt lat="42.7189" lon="17.96638">
        <ele>99</ele>
        <time>2016-07-21T11:50:06Z</time>
      </trkpt>
      <trkpt lat="42.71872" lon="17.96642">
        <ele>101</ele>
        <time>2016-07-21T11:52:06Z</time>
      </trkpt>
      <trkpt lat="42.71862" lon="17.96645">
        <ele>102</ele>
        <time>2016-07-21T11:54:06Z</time>
      </trkpt>
      <trkpt lat="42.71841" lon="17.96654">
        <ele>104</ele>
        <time>2016-07-21T11:56:06Z</time>
      </trkpt>
      <trkpt lat="42.71827" lon="17.96662">
        <ele>105</ele>
        <time>2016-07-21T11:58:06Z</time>
      </trkpt>
      <trkpt lat="42.71816" lon="17.9667">
        <ele>104</ele>
        <time>2016-07-21T12:00:06Z</time>
      </trkpt>
      <trkpt lat="42.71805" lon="17.96679">
        <ele>105</ele>
        <time>2016-07-21T12:02:06Z</time>
      </trkpt>
      <trkpt lat="42.71793" lon="17.96689">
        <ele>105</ele>
        <time>2016-07-21T12:04:06Z</time>
      </trkpt>
      <trkpt lat="42.71781" lon="17.967">
        <ele>106</ele>
        <time>2016-07-21T12:06:06Z</time>
      </trkpt>
      <trkpt lat="42.71769" lon="17.96712">
        <ele>108</ele>
        <time>2016-07-21T12:08:06Z</time>
      </trkpt>
      <trkpt lat="42.71757" lon="17.96724">
        <ele>109</ele>
        <time>2016-07-21T12:10:06Z</time>
      </trkpt>
      <trkpt lat="42.71708" lon="17.96779">
        <ele>107</ele>
        <time>2016-07-21T12:12:06Z</time>
      </trkpt>
      <trkpt lat="42.71646" lon="17.9686">
        <ele>105</ele>
        <time>2016-07-21T12:14:06Z</time>
      </trkpt>
      <trkpt lat="42.71631" lon="17.96881">
        <ele>106</ele>
        <time>2016-07-21T12:16:06Z</time>
      </trkpt>
      <trkpt lat="42.71616" lon="17.96903">
        <ele>107</ele>
        <time>2016-07-21T12:18:06Z</time>
      </trkpt>
      <trkpt lat="42.71605" lon="17.9692">
        <ele>107</ele>
        <time>2016-07-21T12:20:06Z</time>
      </trkpt>
      <trkpt lat="42.71596" lon="17.96937">
        <ele>108</ele>
        <time>2016-07-21T12:22:06Z</time>
      </trkpt>
      <trkpt lat="42.71583" lon="17.96956">
        <ele>107</ele>
        <time>2016-07-21T12:24:06Z</time>
      </trkpt>
      <trkpt lat="42.71566" lon="17.96986">
        <ele>106</ele>
        <time>2016-07-21T12:26:06Z</time>
      </trkpt>
      <trkpt lat="42.71536" lon="17.97041">
        <ele>101</ele>
        <time>2016-07-21T12:28:06Z</time>
      </trkpt>
      <trkpt lat="42.71528" lon="17.97059">
        <ele>100</ele>
        <time>2016-07-21T12:30:06Z</time>
      </trkpt>
      <trkpt lat="42.71518" lon="17.97082">
        <ele>99</ele>
        <time>2016-07-21T12:32:06Z</time>
      </trkpt>
      <trkpt lat="42.7151" lon="17.97103">
        <ele>99</ele>
        <time>2016-07-21T12:34:06Z</time>
      </trkpt>
      <trkpt lat="42.71503" lon="17.97125">
        <ele>99</ele>
        <time>2016-07-21T12:36:06Z</time>
      </trkpt>
      <trkpt lat="42.71498" lon="17.97146">
        <ele>101</ele>
        <time>2016-07-21T12:38:06Z</time>
      </trkpt>
      <trkpt lat="42.71495" lon="17.97164">
        <ele>102</ele>
        <time>2016-07-21T12:40:06Z</time>
      </trkpt>
      <trkpt lat="42.71492" lon="17.97188">
        <ele>101</ele>
        <time>2016-07-21T12:42:06Z</time>
      </trkpt>
      <trkpt lat="42.7149" lon="17.97212">
        <ele>101</ele>
        <time>2016-07-21T12:44:06Z</time>
      </trkpt>
      <trkpt lat="42.7149" lon="17.97233">
        <ele>102</ele>
        <time>2016-07-21T12:46:06Z</time>
      </trkpt>
      <trkpt lat="42.71491" lon="17.97246">
        <ele>102</ele>
        <time>2016-07-21T12:48:06Z</time>
      </trkpt>
      <trkpt lat="42.71494" lon="17.97267">
        <ele>102</ele>
        <time>2016-07-21T12:50:06Z</time>
      </trkpt>
      <trkpt lat="42.71497" lon="17.97289">
        <ele>101</ele>
        <time>2016-07-21T12:52:06Z</time>
      </trkpt>
      <trkpt lat="42.71505" lon="17.97321">
        <ele>100</ele>
        <time>2016-07-21T12:54:06Z</time>
      </trkpt>
      <trkpt lat="42.71526" lon="17.9739">
        <ele>99</ele>
        <time>2016-07-21T12:56:06Z</time>
      </trkpt>
      <trkpt lat="42.71534" lon="17.9742">
        <ele>98</ele>
        <time>2016-07-21T12:58:06Z</time>
      </trkpt>
      <trkpt lat="42.71539" lon="17.97442">
        <ele>99</ele>
        <time>2016-07-21T13:00:06Z</time>
      </trkpt>
      <trkpt lat="42.71541" lon="17.9746">
        <ele>99</ele>
        <time>2016-07-21T13:02:06Z</time>
      </trkpt>
      <trkpt lat="42.71542" lon="17.97477">
        <ele>99</ele>
        <time>2016-07-21T13:04:06Z</time>
      </trkpt>
      <trkpt lat="42.71542" lon="17.97499">
        <ele>98</ele>
        <time>2016-07-21T13:06:06Z</time>
      </trkpt>
      <trkpt lat="42.7154" lon="17.97521">
        <ele>98</ele>
        <time>2016-07-21T13:08:06Z</time>
      </trkpt>
      <trkpt lat="42.71535" lon="17.97548">
        <ele>98</ele>
        <time>2016-07-21T13:10:06Z</time>
      </trkpt>
      <trkpt lat="42.7153" lon="17.97576">
        <ele>99</ele>
        <time>2016-07-21T13:12:06Z</time>
      </trkpt>
      <trkpt lat="42.71528" lon="17.97584">
        <ele>98</ele>
        <time>2016-07-21T13:14:06Z</time>
      </trkpt>
      <trkpt lat="42.71526" lon="17.97596">
        <ele>99</ele>
        <time>2016-07-21T13:16:06Z</time>
      </trkpt>
      <trkpt lat="42.71522" lon="17.97608">
        <ele>98</ele>
        <time>2016-07-21T13:18:06Z</time>
      </trkpt>
      <trkpt lat="42.71517" lon="17.97628">
        <ele>98</ele>
        <time>2016-07-21T13:20:06Z</time>
      </trkpt>
      <trkpt lat="42.71512" lon="17.97646">
        <ele>98</ele>
        <time>2016-07-21T13:22:06Z</time>
      </trkpt>
      <trkpt lat="42.71509" lon="17.97656">
        <ele>98</ele>
        <time>2016-07-21T13:24:06Z</time>
      </trkpt>
      <trkpt lat="42.71509" lon="17.97657">
        <ele>98</ele>
        <time>2016-07-21T13:26:06Z</time>
      </trkpt>
      <trkpt lat="42.715" lon="17.97691">
        <ele>97</ele>
        <time>2016-07-21T13:28:06Z</time>
      </trkpt>
      <trkpt lat="42.71489" lon="17.97731">
        <ele>97</ele>
        <time>2016-07-21T13:30:06Z</time>
      </trkpt>
      <trkpt lat="42.71486" lon="17.97738">
        <ele>97</ele>
        <time>2016-07-21T13:32:06Z</time>
      </trkpt>
      <trkpt lat="42.71483" lon="17.97747">
        <ele>97</ele>
        <time>2016-07-21T13:34:06Z</time>
      </trkpt>
      <trkpt lat="42.71479" lon="17.97758">
        <ele>97</ele>
        <time>2016-07-21T13:36:06Z</time>
      </trkpt>
      <trkpt lat="42.71472" lon="17.97773">
        <ele>98</ele>
        <time>2016-07-21T13:38:06Z</time>
      </trkpt>
      <trkpt lat="42.7146" lon="17.97796">
        <ele>99</ele>
        <time>2016-07-21T13:40:06Z</time>
      </trkpt>
      <trkpt lat="42.71454" lon="17.97809">
        <ele>99</ele>
        <time>2016-07-21T13:42:06Z</time>
      </trkpt>
      <trkpt lat="42.71426" lon="17.97865">
        <ele>99</ele>
        <time>2016-07-21T13:44:06Z</time>
      </trkpt>
      <trkpt lat="42.71422" lon="17.97873">
        <ele>98</ele>
        <time>2016-07-21T13:46:06Z</time>
      </trkpt>
      <trkpt lat="42.71419" lon="17.97877">
        <ele>98</ele>
        <time>2016-07-21T13:48:06Z</time>
      </trkpt>
      <trkpt lat="42.71418" lon="17.97879">
        <ele>98</ele>
        <time>2016-07-21T13:50:06Z</time>
      </trkpt>
      <trkpt lat="42.71413" lon="17.97888">
        <ele>98</ele>
        <time>2016-07-21T13:52:06Z</time>
      </trkpt>
      <trkpt lat="42.71408" lon="17.97895">
        <ele>99</ele>
        <time>2016-07-21T13:54:06Z</time>
      </trkpt>
      <trkpt lat="42.71407" lon="17.97897">
        <ele>99</ele>
        <time>2016-07-21T13:56:06Z</time>
      </trkpt>
      <trkpt lat="42.71403" lon="17.97903">
        <ele>99</ele>
        <time>2016-07-21T13:58:06Z</time>
      </trkpt>
      <trkpt lat="42.71401" lon="17.97906">
        <ele>99</ele>
        <time>2016-07-21T14:00:06Z</time>
      </trkpt>
      <trkpt lat="42.714" lon="17.97908">
        <ele>99</ele>
        <time>2016-07-21T14:02:06Z</time>
      </trkpt>
      <trkpt lat="42.71396" lon="17.97915">
        <ele>99</ele>
        <time>2016-07-21T14:04:06Z</time>
      </trkpt>
      <trkpt lat="42.71387" lon="17.97928">
        <ele>100</ele>
        <time>2016-07-21T14:06:06Z</time>
      </trkpt>
      <trkpt lat="42.7138" lon="17.97937">
        <ele>100</ele>
        <time>2016-07-21T14:08:06Z</time>
      </trkpt>
      <trkpt lat="42.71368" lon="17.97948">
        <ele>100</ele>
        <time>2016-07-21T14:10:06Z</time>
      </trkpt>
      <trkpt lat="42.71363" lon="17.97951">
        <ele>100</ele>
        <time>2016-07-21T14:12:06Z</time>
      </trkpt>
      <trkpt lat="42.71358" lon="17.97953">
        <ele>100</ele>
        <time>2016-07-21T14:14:06Z</time>
      </trkpt>
      <trkpt lat="42.71352" lon="17.97955">
        <ele>100</ele>
        <time>2016-07-21T14:16:06Z</time>
      </trkpt>
      <trkpt lat="42.71347" lon="17.97957">
        <ele>100</ele>
        <time>2016-07-21T14:18:06Z</time>
      </trkpt>
      <trkpt lat="42.71341" lon="17.97957">
        <ele>100</ele>
        <time>2016-07-21T14:20:06Z</time>
      </trkpt>
      <trkpt lat="42.71334" lon="17.97957">
        <ele>99</ele>
        <time>2016-07-21T14:22:06Z</time>
      </trkpt>
      <trkpt lat="42.71322" lon="17.97957">
        <ele>100</ele>
        <time>2016-07-21T14:24:06Z</time>
      </trkpt>
      <trkpt lat="42.71278" lon="17.97953">
        <ele>100</ele>
        <time>2016-07-21T14:26:06Z</time>
      </trkpt>
      <trkpt lat="42.71263" lon="17.97952">
        <ele>100</ele>
        <time>2016-07-21T14:28:06Z</time>
      </trkpt>
      <trkpt lat="42.71248" lon="17.97953">
        <ele>100</ele>
        <time>2016-07-21T14:30:06Z</time>
      </trkpt>
      <trkpt lat="42.7124" lon="17.97954">
        <ele>99</ele>
        <time>2016-07-21T14:32:06Z</time>
      </trkpt>
      <trkpt lat="42.71235" lon="17.97956">
        <ele>99</ele>
        <time>2016-07-21T14:34:06Z</time>
      </trkpt>
      <trkpt lat="42.71223" lon="17.9796">
        <ele>98</ele>
        <time>2016-07-21T14:36:06Z</time>
      </trkpt>
      <trkpt lat="42.7121" lon="17.97968">
        <ele>98</ele>
        <time>2016-07-21T14:38:06Z</time>
      </trkpt>
      <trkpt lat="42.71198" lon="17.97977">
        <ele>97</ele>
        <time>2016-07-21T14:40:06Z</time>
      </trkpt>
      <trkpt lat="42.71176" lon="17.97997">
        <ele>96</ele>
        <time>2016-07-21T14:42:06Z</time>
      </trkpt>
      <trkpt lat="42.71103" lon="17.98064">
        <ele>98</ele>
        <time>2016-07-21T14:44:06Z</time>
      </trkpt>
      <trkpt lat="42.71093" lon="17.98073">
        <ele>98</ele>
        <time>2016-07-21T14:46:06Z</time>
      </trkpt>
      <trkpt lat="42.71049" lon="17.98116">
        <ele>98</ele>
        <time>2016-07-21T14:48:06Z</time>
      </trkpt>
      <trkpt lat="42.71002" lon="17.98163">
        <ele>99</ele>
        <time>2016-07-21T14:50:06Z</time>
      </trkpt>
      <trkpt lat="42.70944" lon="17.98224">
        <ele>103</ele>
        <time>2016-07-21T14:52:06Z</time>
      </trkpt>
      <trkpt lat="42.70917" lon="17.98255">
        <ele>105</ele>
        <time>2016-07-21T14:54:06Z</time>
      </trkpt>
      <trkpt lat="42.70888" lon="17.98288">
        <ele>106</ele>
        <time>2016-07-21T14:56:06Z</time>
      </trkpt>
      <trkpt lat="42.70855" lon="17.98333">
        <ele>105</ele>
        <time>2016-07-21T14:58:06Z</time>
      </trkpt>
      <trkpt lat="42.70823" lon="17.98377">
        <ele>103</ele>
        <time>2016-07-21T15:00:06Z</time>
      </trkpt>
      <trkpt lat="42.70727" lon="17.98514">
        <ele>103</ele>
        <time>2016-07-21T15:02:06Z</time>
      </trkpt>
      <trkpt lat="42.7069" lon="17.98572">
        <ele>103</ele>
        <time>2016-07-21T15:04:06Z</time>
      </trkpt>
      <trkpt lat="42.70669" lon="17.98607">
        <ele>103</ele>
        <time>2016-07-21T15:06:06Z</time>
      </trkpt>
      <trkpt lat="42.70656" lon="17.98632">
        <ele>103</ele>
        <time>2016-07-21T15:08:06Z</time>
      </trkpt>
      <trkpt lat="42.70647" lon="17.98653">
        <ele>103</ele>
        <time>2016-07-21T15:10:06Z</time>
      </trkpt>
      <trkpt lat="42.7063" lon="17.98698">
        <ele>103</ele>
        <time>2016-07-21T15:12:06Z</time>
      </trkpt>
      <trkpt lat="42.70623" lon="17.98718">
        <ele>103</ele>
        <time>2016-07-21T15:14:06Z</time>
      </trkpt>
      <trkpt lat="42.70616" lon="17.98741">
        <ele>103</ele>
        <time>2016-07-21T15:16:06Z</time>
      </trkpt>
      <trkpt lat="42.70599" lon="17.98798">
        <ele>103</ele>
        <time>2016-07-21T15:18:06Z</time>
      </trkpt>
      <trkpt lat="42.70589" lon="17.98832">
        <ele>103</ele>
        <time>2016-07-21T15:20:06Z</time>
      </trkpt>
      <trkpt lat="42.70581" lon="17.98855">
        <ele>103</ele>
        <time>2016-07-21T15:22:06Z</time>
      </trkpt>
      <trkpt lat="42.70576" lon="17.98868">
        <ele>103</ele>
        <time>2016-07-21T15:24:06Z</time>
      </trkpt>
      <trkpt lat="42.7056" lon="17.989">
        <ele>103</ele>
        <time>2016-07-21T15:26:06Z</time>
      </trkpt>
      <trkpt lat="42.70555" lon="17.98909">
        <ele>103</ele>
        <time>2016-07-21T15:28:06Z</time>
      </trkpt>
      <trkpt lat="42.7055" lon="17.98916">
        <ele>103</ele>
        <time>2016-07-21T15:30:06Z</time>
      </trkpt>
      <trkpt lat="42.70544" lon="17.98923">
        <ele>103</ele>
        <time>2016-07-21T15:32:06Z</time>
      </trkpt>
      <trkpt lat="42.70533" lon="17.98936">
        <ele>103</ele>
        <time>2016-07-21T15:34:06Z</time>
      </trkpt>
      <trkpt lat="42.70517" lon="17.98951">
        <ele>103</ele>
        <time>2016-07-21T15:36:06Z</time>
      </trkpt>
      <trkpt lat="42.70499" lon="17.98965">
        <ele>103</ele>
        <time>2016-07-21T15:38:06Z</time>
      </trkpt>
      <trkpt lat="42.70489" lon="17.98975">
        <ele>103</ele>
        <time>2016-07-21T15:40:06Z</time>
      </trkpt>
      <trkpt lat="42.70476" lon="17.98987">
        <ele>103</ele>
        <time>2016-07-21T15:42:06Z</time>
      </trkpt>
      <trkpt lat="42.70467" lon="17.98996">
        <ele>103</ele>
        <time>2016-07-21T15:44:06Z</time>
      </trkpt>
      <trkpt lat="42.70455" lon="17.9901">
        <ele>103</ele>
        <time>2016-07-21T15:46:06Z</time>
      </trkpt>
      <trkpt lat="42.70445" lon="17.99024">
        <ele>103</ele>
        <time>2016-07-21T15:48:06Z</time>
      </trkpt>
      <trkpt lat="42.70435" lon="17.99039">
        <ele>103</ele>
        <time>2016-07-21T15:50:06Z</time>
      </trkpt>
      <trkpt lat="42.70423" lon="17.9906">
        <ele>103</ele>
        <time>2016-07-21T15:52:06Z</time>
      </trkpt>
      <trkpt lat="42.70413" lon="17.99079">
        <ele>103</ele>
        <time>2016-07-21T15:54:06Z</time>
      </trkpt>
      <trkpt lat="42.70406" lon="17.99096">
        <ele>103</ele>
        <time>2016-07-21T15:56:06Z</time>
      </trkpt>
      <trkpt lat="42.70396" lon="17.99122">
        <ele>103</ele>
        <time>2016-07-21T15:58:06Z</time>
      </trkpt>
      <trkpt lat="42.70389" lon="17.99148">
        <ele>103</ele>
        <time>2016-07-21T16:00:06Z</time>
      </trkpt>
      <trkpt lat="42.70382" lon="17.99177">
        <ele>103</ele>
        <time>2016-07-21T16:02:06Z</time>
      </trkpt>
      <trkpt lat="42.70373" lon="17.99232">
        <ele>103</ele>
        <time>2016-07-21T16:04:06Z</time>
      </trkpt>
      <trkpt lat="42.70368" lon="17.99268">
        <ele>103</ele>
        <time>2016-07-21T16:06:06Z</time>
      </trkpt>
      <trkpt lat="42.7036" lon="17.99326">
        <ele>103</ele>
        <time>2016-07-21T16:08:06Z</time>
      </trkpt>
      <trkpt lat="42.70347" lon="17.99394">
        <ele>103</ele>
        <time>2016-07-21T16:10:06Z</time>
      </trkpt>
      <trkpt lat="42.70323" lon="17.99495">
        <ele>103</ele>
        <time>2016-07-21T16:12:06Z</time>
      </trkpt>
      <trkpt lat="42.70303" lon="17.99577">
        <ele>103</ele>
        <time>2016-07-21T16:14:06Z</time>
      </trkpt>
      <trkpt lat="42.70293" lon="17.99621">
        <ele>103</ele>
        <time>2016-07-21T16:16:06Z</time>
      </trkpt>
      <trkpt lat="42.70286" lon="17.99654">
        <ele>103</ele>
        <time>2016-07-21T16:18:06Z</time>
      </trkpt>
      <trkpt lat="42.70282" lon="17.99677">
        <ele>103</ele>
        <time>2016-07-21T16:20:06Z</time>
      </trkpt>
      <trkpt lat="42.70277" lon="17.9971">
        <ele>103</ele>
        <time>2016-07-21T16:22:06Z</time>
      </trkpt>
      <trkpt lat="42.70271" lon="17.99748">
        <ele>103</ele>
        <time>2016-07-21T16:24:06Z</time>
      </trkpt>
      <trkpt lat="42.70267" lon="17.99788">
        <ele>103</ele>
        <time>2016-07-21T16:26:06Z</time>
      </trkpt>
      <trkpt lat="42.70264" lon="17.99825">
        <ele>103</ele>
        <time>2016-07-21T16:28:06Z</time>
      </trkpt>
      <trkpt lat="42.70259" lon="17.99873">
        <ele>103</ele>
        <time>2016-07-21T16:30:06Z</time>
      </trkpt>
      <trkpt lat="42.70258" lon="17.99879">
        <ele>103</ele>
        <time>2016-07-21T16:32:06Z</time>
      </trkpt>
      <trkpt lat="42.70256" lon="17.99902">
        <ele>103</ele>
        <time>2016-07-21T16:34:06Z</time>
      </trkpt>
      <trkpt lat="42.7025" lon="17.9995">
        <ele>103</ele>
        <time>2016-07-21T16:36:06Z</time>
      </trkpt>
      <trkpt lat="42.70247" lon="17.99982">
        <ele>103</ele>
        <time>2016-07-21T16:38:06Z</time>
      </trkpt>
      <trkpt lat="42.7024" lon="18.00017">
        <ele>103</ele>
        <time>2016-07-21T16:40:06Z</time>
      </trkpt>
      <trkpt lat="42.70234" lon="18.00043">
        <ele>103</ele>
        <time>2016-07-21T16:42:06Z</time>
      </trkpt>
      <trkpt lat="42.70229" lon="18.00064">
        <ele>103</ele>
        <time>2016-07-21T16:44:06Z</time>
      </trkpt>
      <trkpt lat="42.70223" lon="18.00084">
        <ele>115</ele>
        <time>2016-07-21T16:46:06Z</time>
      </trkpt>
      <trkpt lat="42.70215" lon="18.0011">
        <ele>115</ele>
        <time>2016-07-21T16:48:06Z</time>
      </trkpt>
      <trkpt lat="42.70206" lon="18.00134">
        <ele>115</ele>
        <time>2016-07-21T16:50:06Z</time>
      </trkpt>
      <trkpt lat="42.70196" lon="18.00155">
        <ele>115</ele>
        <time>2016-07-21T16:52:06Z</time>
      </trkpt>
      <trkpt lat="42.70175" lon="18.00199">
        <ele>110</ele>
        <time>2016-07-21T16:54:06Z</time>
      </trkpt>
      <trkpt lat="42.70148" lon="18.00251">
        <ele>100</ele>
        <time>2016-07-21T16:56:06Z</time>
      </trkpt>
      <trkpt lat="42.7013" lon="18.00286">
        <ele>100</ele>
        <time>2016-07-21T16:58:06Z</time>
      </trkpt>
      <trkpt lat="42.701" lon="18.0034">
        <ele>97</ele>
        <time>2016-07-21T17:00:06Z</time>
      </trkpt>
      <trkpt lat="42.70088" lon="18.00364">
        <ele>95</ele>
        <time>2016-07-21T17:02:06Z</time>
      </trkpt>
      <trkpt lat="42.70079" lon="18.0038">
        <ele>91</ele>
        <time>2016-07-21T17:04:06Z</time>
      </trkpt>
      <trkpt lat="42.70057" lon="18.00421">
        <ele>92</ele>
        <time>2016-07-21T17:06:06Z</time>
      </trkpt>
      <trkpt lat="42.70051" lon="18.00433">
        <ele>91</ele>
        <time>2016-07-21T17:08:06Z</time>
      </trkpt>
      <trkpt lat="42.70025" lon="18.00483">
        <ele>88</ele>
        <time>2016-07-21T17:10:06Z</time>
      </trkpt>
      <trkpt lat="42.7" lon="18.0053">
        <ele>84</ele>
        <time>2016-07-21T17:12:06Z</time>
      </trkpt>
      <trkpt lat="42.69999" lon="18.00533">
        <ele>83</ele>
        <time>2016-07-21T17:14:06Z</time>
      </trkpt>
      <trkpt lat="42.69986" lon="18.0056">
        <ele>83</ele>
        <time>2016-07-21T17:16:06Z</time>
      </trkpt>
      <trkpt lat="42.69981" lon="18.00574">
        <ele>83</ele>
        <time>2016-07-21T17:18:06Z</time>
      </trkpt>
      <trkpt lat="42.69976" lon="18.00588">
        <ele>82</ele>
        <time>2016-07-21T17:20:06Z</time>
      </trkpt>
      <trkpt lat="42.6997" lon="18.00609">
        <ele>81</ele>
        <time>2016-07-21T17:22:06Z</time>
      </trkpt>
      <trkpt lat="42.69965" lon="18.00624">
        <ele>81</ele>
        <time>2016-07-21T17:24:06Z</time>
      </trkpt>
      <trkpt lat="42.69962" lon="18.00643">
        <ele>81</ele>
        <time>2016-07-21T17:26:06Z</time>
      </trkpt>
      <trkpt lat="42.69957" lon="18.00673">
        <ele>81</ele>
        <time>2016-07-21T17:28:06Z</time>
      </trkpt>
      <trkpt lat="42.69954" lon="18.00696">
        <ele>81</ele>
        <time>2016-07-21T17:30:06Z</time>
      </trkpt>
      <trkpt lat="42.69952" lon="18.00734">
        <ele>81</ele>
        <time>2016-07-21T17:32:06Z</time>
      </trkpt>
      <trkpt lat="42.69953" lon="18.00769">
        <ele>80</ele>
        <time>2016-07-21T17:34:06Z</time>
      </trkpt>
      <trkpt lat="42.69955" lon="18.00786">
        <ele>79</ele>
        <time>2016-07-21T17:36:06Z</time>
      </trkpt>
      <trkpt lat="42.69955" lon="18.00789">
        <ele>78</ele>
        <time>2016-07-21T17:38:06Z</time>
      </trkpt>
      <trkpt lat="42.69956" lon="18.00793">
        <ele>78</ele>
        <time>2016-07-21T17:40:06Z</time>
      </trkpt>
      <trkpt lat="42.69957" lon="18.00803">
        <ele>78</ele>
        <time>2016-07-21T17:42:06Z</time>
      </trkpt>
      <trkpt lat="42.69959" lon="18.00816">
        <ele>77</ele>
        <time>2016-07-21T17:44:06Z</time>
      </trkpt>
      <trkpt lat="42.69964" lon="18.00843">
        <ele>75</ele>
        <time>2016-07-21T17:46:06Z</time>
      </trkpt>
      <trkpt lat="42.69964" lon="18.00844">
        <ele>75</ele>
        <time>2016-07-21T17:48:06Z</time>
      </trkpt>
      <trkpt lat="42.69972" lon="18.00885">
        <ele>72</ele>
        <time>2016-07-21T17:50:06Z</time>
      </trkpt>
      <trkpt lat="42.6998" lon="18.00925">
        <ele>70</ele>
        <time>2016-07-21T17:52:06Z</time>
      </trkpt>
      <trkpt lat="42.69985" lon="18.00955">
        <ele>69</ele>
        <time>2016-07-21T17:54:06Z</time>
      </trkpt>
      <trkpt lat="42.69991" lon="18.00989">
        <ele>68</ele>
        <time>2016-07-21T17:56:06Z</time>
      </trkpt>
      <trkpt lat="42.69995" lon="18.01017">
        <ele>67</ele>
        <time>2016-07-21T17:58:06Z</time>
      </trkpt>
      <trkpt lat="42.69996" lon="18.01039">
        <ele>67</ele>
        <time>2016-07-21T18:00:06Z</time>
      </trkpt>
      <trkpt lat="42.69997" lon="18.01066">
        <ele>65</ele>
        <time>2016-07-21T18:02:06Z</time>
      </trkpt>
      <trkpt lat="42.69994" lon="18.0109">
        <ele>65</ele>
        <time>2016-07-21T18:04:06Z</time>
      </trkpt>
      <trkpt lat="42.69991" lon="18.0111">
        <ele>65</ele>
        <time>2016-07-21T18:06:06Z</time>
      </trkpt>
      <trkpt lat="42.69986" lon="18.01133">
        <ele>66</ele>
        <time>2016-07-21T18:08:06Z</time>
      </trkpt>
      <trkpt lat="42.69972" lon="18.01172">
        <ele>65</ele>
        <time>2016-07-21T18:10:06Z</time>
      </trkpt>
      <trkpt lat="42.69953" lon="18.01212">
        <ele>63</ele>
        <time>2016-07-21T18:12:06Z</time>
      </trkpt>
      <trkpt lat="42.6993" lon="18.01253">
        <ele>61</ele>
        <time>2016-07-21T18:14:06Z</time>
      </trkpt>
      <trkpt lat="42.69909" lon="18.01284">
        <ele>64</ele>
        <time>2016-07-21T18:16:06Z</time>
      </trkpt>
      <trkpt lat="42.69885" lon="18.01326">
        <ele>65</ele>
        <time>2016-07-21T18:18:06Z</time>
      </trkpt>
      <trkpt lat="42.69862" lon="18.01364">
        <ele>64</ele>
        <time>2016-07-21T18:20:06Z</time>
      </trkpt>
      <trkpt lat="42.69832" lon="18.0142">
        <ele>65</ele>
        <time>2016-07-21T18:22:06Z</time>
      </trkpt>
      <trkpt lat="42.69812" lon="18.0146">
        <ele>66</ele>
        <time>2016-07-21T18:24:06Z</time>
      </trkpt>
      <trkpt lat="42.69794" lon="18.01492">
        <ele>66</ele>
        <time>2016-07-21T18:26:06Z</time>
      </trkpt>
      <trkpt lat="42.69779" lon="18.01515">
        <ele>64</ele>
        <time>2016-07-21T18:28:06Z</time>
      </trkpt>
      <trkpt lat="42.69763" lon="18.01539">
        <ele>62</ele>
        <time>2016-07-21T18:30:06Z</time>
      </trkpt>
      <trkpt lat="42.69747" lon="18.01564">
        <ele>61</ele>
        <time>2016-07-21T18:32:06Z</time>
      </trkpt>
      <trkpt lat="42.69737" lon="18.01584">
        <ele>61</ele>
        <time>2016-07-21T18:34:06Z</time>
      </trkpt>
      <trkpt lat="42.69732" lon="18.01599">
        <ele>60</ele>
        <time>2016-07-21T18:36:06Z</time>
      </trkpt>
      <trkpt lat="42.69728" lon="18.01614">
        <ele>60</ele>
        <time>2016-07-21T18:38:06Z</time>
      </trkpt>
      <trkpt lat="42.69723" lon="18.01634">
        <ele>59</ele>
        <time>2016-07-21T18:40:06Z</time>
      </trkpt>
      <trkpt lat="42.6972" lon="18.0166">
        <ele>60</ele>
        <time>2016-07-21T18:42:06Z</time>
      </trkpt>
      <trkpt lat="42.69718" lon="18.01697">
        <ele>62</ele>
        <time>2016-07-21T18:44:06Z</time>
      </trkpt>
      <trkpt lat="42.69716" lon="18.01728">
        <ele>64</ele>
        <time>2016-07-21T18:46:06Z</time>
      </trkpt>
      <trkpt lat="42.69713" lon="18.01754">
        <ele>64</ele>
        <time>2016-07-21T18:48:06Z</time>
      </trkpt>
      <trkpt lat="42.69703" lon="18.01798">
        <ele>61</ele>
        <time>2016-07-21T18:50:06Z</time>
      </trkpt>
      <trkpt lat="42.69695" lon="18.01832">
        <ele>59</ele>
        <time>2016-07-21T18:52:06Z</time>
      </trkpt>
      <trkpt lat="42.69682" lon="18.01877">
        <ele>59</ele>
        <time>2016-07-21T18:54:06Z</time>
      </trkpt>
      <trkpt lat="42.6968" lon="18.01885">
        <ele>59</ele>
        <time>2016-07-21T18:56:06Z</time>
      </trkpt>
      <trkpt lat="42.69664" lon="18.01934">
        <ele>59</ele>
        <time>2016-07-21T18:58:06Z</time>
      </trkpt>
      <trkpt lat="42.69662" lon="18.01938">
        <ele>59</ele>
        <time>2016-07-21T19:00:06Z</time>
      </trkpt>
      <trkpt lat="42.69649" lon="18.01975">
        <ele>59</ele>
        <time>2016-07-21T19:02:06Z</time>
      </trkpt>
      <trkpt lat="42.69642" lon="18.01996">
        <ele>59</ele>
        <time>2016-07-21T19:04:06Z</time>
      </trkpt>
      <trkpt lat="42.69638" lon="18.02007">
        <ele>60</ele>
        <time>2016-07-21T19:06:06Z</time>
      </trkpt>
      <trkpt lat="42.69634" lon="18.02017">
        <ele>61</ele>
        <time>2016-07-21T19:08:06Z</time>
      </trkpt>
      <trkpt lat="42.69625" lon="18.02031">
        <ele>62</ele>
        <time>2016-07-21T19:10:06Z</time>
      </trkpt>
      <trkpt lat="42.69617" lon="18.02042">
        <ele>62</ele>
        <time>2016-07-21T19:12:06Z</time>
      </trkpt>
      <trkpt lat="42.69612" lon="18.02047">
        <ele>62</ele>
        <time>2016-07-21T19:14:06Z</time>
      </trkpt>
      <trkpt lat="42.69605" lon="18.02051">
        <ele>62</ele>
        <time>2016-07-21T19:16:06Z</time>
      </trkpt>
      <trkpt lat="42.69591" lon="18.02058">
        <ele>61</ele>
        <time>2016-07-21T19:18:06Z</time>
      </trkpt>
      <trkpt lat="42.69564" lon="18.02062">
        <ele>59</ele>
        <time>2016-07-21T19:20:06Z</time>
      </trkpt>
      <trkpt lat="42.69545" lon="18.02061">
        <ele>58</ele>
        <time>2016-07-21T19:22:06Z</time>
      </trkpt>
      <trkpt lat="42.69523" lon="18.0206">
        <ele>57</ele>
        <time>2016-07-21T19:24:06Z</time>
      </trkpt>
      <trkpt lat="42.69506" lon="18.02059">
        <ele>56</ele>
        <time>2016-07-21T19:26:06Z</time>
      </trkpt>
      <trkpt lat="42.69493" lon="18.02061">
        <ele>55</ele>
        <time>2016-07-21T19:28:06Z</time>
      </trkpt>
      <trkpt lat="42.69479" lon="18.02066">
        <ele>54</ele>
        <time>2016-07-21T19:30:06Z</time>
      </trkpt>
      <trkpt lat="42.69467" lon="18.02071">
        <ele>53</ele>
        <time>2016-07-21T19:32:06Z</time>
      </trkpt>
      <trkpt lat="42.6945" lon="18.02083">
        <ele>52</ele>
        <time>2016-07-21T19:34:06Z</time>
      </trkpt>
      <trkpt lat="42.69439" lon="18.02092">
        <ele>52</ele>
        <time>2016-07-21T19:36:06Z</time>
      </trkpt>
      <trkpt lat="42.69414" lon="18.02115">
        <ele>54</ele>
        <time>2016-07-21T19:38:06Z</time>
      </trkpt>
      <trkpt lat="42.69395" lon="18.02138">
        <ele>57</ele>
        <time>2016-07-21T19:40:06Z</time>
      </trkpt>
      <trkpt lat="42.6938" lon="18.02161">
        <ele>60</ele>
        <time>2016-07-21T19:42:06Z</time>
      </trkpt>
      <trkpt lat="42.69378" lon="18.02163">
        <ele>60</ele>
        <time>2016-07-21T19:44:06Z</time>
      </trkpt>
      <trkpt lat="42.69337" lon="18.02226">
        <ele>61</ele>
        <time>2016-07-21T19:46:06Z</time>
      </trkpt>
      <trkpt lat="42.69329" lon="18.02235">
        <ele>61</ele>
        <time>2016-07-21T19:48:06Z</time>
      </trkpt>
      <trkpt lat="42.69321" lon="18.02244">
        <ele>62</ele>
        <time>2016-07-21T19:50:06Z</time>
      </trkpt>
      <trkpt lat="42.69307" lon="18.02259">
        <ele>63</ele>
        <time>2016-07-21T19:52:06Z</time>
      </trkpt>
      <trkpt lat="42.69293" lon="18.02275">
        <ele>63</ele>
        <time>2016-07-21T19:54:06Z</time>
      </trkpt>
      <trkpt lat="42.69291" lon="18.02278">
        <ele>63</ele>
        <time>2016-07-21T19:56:06Z</time>
      </trkpt>
      <trkpt lat="42.69275" lon="18.02296">
        <ele>63</ele>
        <time>2016-07-21T19:58:06Z</time>
      </trkpt>
      <trkpt lat="42.69272" lon="18.023">
        <ele>63</ele>
        <time>2016-07-21T20:00:06Z</time>
      </trkpt>
      <trkpt lat="42.6927" lon="18.02302">
        <ele>63</ele>
        <time>2016-07-21T20:02:06Z</time>
      </trkpt>
      <trkpt lat="42.69263" lon="18.02314">
        <ele>63</ele>
        <time>2016-07-21T20:04:06Z</time>
      </trkpt>
      <trkpt lat="42.69257" lon="18.02327">
        <ele>64</ele>
        <time>2016-07-21T20:06:06Z</time>
      </trkpt>
      <trkpt lat="42.69251" lon="18.02344">
        <ele>64</ele>
        <time>2016-07-21T20:08:06Z</time>
      </trkpt>
      <trkpt lat="42.6924" lon="18.02384">
        <ele>66</ele>
        <time>2016-07-21T20:10:06Z</time>
      </trkpt>
      <trkpt lat="42.69219" lon="18.02466">
        <ele>69</ele>
        <time>2016-07-21T20:12:06Z</time>
      </trkpt>
      <trkpt lat="42.69205" lon="18.02528">
        <ele>70</ele>
        <time>2016-07-21T20:14:06Z</time>
      </trkpt>
      <trkpt lat="42.69198" lon="18.02553">
        <ele>70</ele>
        <time>2016-07-21T20:16:06Z</time>
      </trkpt>
      <trkpt lat="42.6919" lon="18.02591">
        <ele>69</ele>
        <time>2016-07-21T20:18:06Z</time>
      </trkpt>
      <trkpt lat="42.69183" lon="18.02628">
        <ele>67</ele>
        <time>2016-07-21T20:20:06Z</time>
      </trkpt>
      <trkpt lat="42.6918" lon="18.02642">
        <ele>66</ele>
        <time>2016-07-21T20:22:06Z</time>
      </trkpt>
      <trkpt lat="42.6918" lon="18.02651">
        <ele>66</ele>
        <time>2016-07-21T20:24:06Z</time>
      </trkpt>
      <trkpt lat="42.69179" lon="18.02668">
        <ele>65</ele>
        <time>2016-07-21T20:26:06Z</time>
      </trkpt>
      <trkpt lat="42.69178" lon="18.02685">
        <ele>64</ele>
        <time>2016-07-21T20:28:06Z</time>
      </trkpt>
      <trkpt lat="42.69177" lon="18.02743">
        <ele>61</ele>
        <time>2016-07-21T20:30:06Z</time>
      </trkpt>
      <trkpt lat="42.69176" lon="18.02796">
        <ele>59</ele>
        <time>2016-07-21T20:32:06Z</time>
      </trkpt>
      <trkpt lat="42.69175" lon="18.02828">
        <ele>58</ele>
        <time>2016-07-21T20:34:06Z</time>
      </trkpt>
      <trkpt lat="42.69174" lon="18.02842">
        <ele>58</ele>
        <time>2016-07-21T20:36:06Z</time>
      </trkpt>
      <trkpt lat="42.69172" lon="18.02853">
        <ele>57</ele>
        <time>2016-07-21T20:38:06Z</time>
      </trkpt>
      <trkpt lat="42.6917" lon="18.02864">
        <ele>57</ele>
        <time>2016-07-21T20:40:06Z</time>
      </trkpt>
      <trkpt lat="42.69164" lon="18.02882">
        <ele>57</ele>
        <time>2016-07-21T20:42:06Z</time>
      </trkpt>
      <trkpt lat="42.69144" lon="18.02933">
        <ele>56</ele>
        <time>2016-07-21T20:44:06Z</time>
      </trkpt>
      <trkpt lat="42.69113" lon="18.03001">
        <ele>50</ele>
        <time>2016-07-21T20:46:06Z</time>
      </trkpt>
      <trkpt lat="42.69108" lon="18.03012">
        <ele>50</ele>
        <time>2016-07-21T20:48:06Z</time>
      </trkpt>
      <trkpt lat="42.69091" lon="18.0305">
        <ele>49</ele>
        <time>2016-07-21T20:50:06Z</time>
      </trkpt>
      <trkpt lat="42.69076" lon="18.03084">
        <ele>48</ele>
        <time>2016-07-21T20:52:06Z</time>
      </trkpt>
      <trkpt lat="42.69074" lon="18.03088">
        <ele>48</ele>
        <time>2016-07-21T20:54:06Z</time>
      </trkpt>
      <trkpt lat="42.69059" lon="18.03121">
        <ele>45</ele>
        <time>2016-07-21T20:56:06Z</time>
      </trkpt>
      <trkpt lat="42.69044" lon="18.03155">
        <ele>43</ele>
        <time>2016-07-21T20:58:06Z</time>
      </trkpt>
      <trkpt lat="42.69029" lon="18.03195">
        <ele>40</ele>
        <time>2016-07-21T21:00:06Z</time>
      </trkpt>
      <trkpt lat="42.69018" lon="18.03226">
        <ele>37</ele>
        <time>2016-07-21T21:02:06Z</time>
      </trkpt>
      <trkpt lat="42.69015" lon="18.03237">
        <ele>36</ele>
        <time>2016-07-21T21:04:06Z</time>
      </trkpt>
      <trkpt lat="42.69012" lon="18.03249">
        <ele>35</ele>
        <time>2016-07-21T21:06:06Z</time>
      </trkpt>
      <trkpt lat="42.69006" lon="18.03273">
        <ele>34</ele>
        <time>2016-07-21T21:08:06Z</time>
      </trkpt>
      <trkpt lat="42.69002" lon="18.03296">
        <ele>34</ele>
        <time>2016-07-21T21:10:06Z</time>
      </trkpt>
      <trkpt lat="42.69001" lon="18.03319">
        <ele>33</ele>
        <time>2016-07-21T21:12:06Z</time>
      </trkpt>
      <trkpt lat="42.69001" lon="18.03337">
        <ele>33</ele>
        <time>2016-07-21T21:14:06Z</time>
      </trkpt>
      <trkpt lat="42.69003" lon="18.03354">
        <ele>33</ele>
        <time>2016-07-21T21:16:06Z</time>
      </trkpt>
      <trkpt lat="42.69017" lon="18.03405">
        <ele>32</ele>
        <time>2016-07-21T21:18:06Z</time>
      </trkpt>
      <trkpt lat="42.69025" lon="18.03432">
        <ele>32</ele>
        <time>2016-07-21T21:20:06Z</time>
      </trkpt>
      <trkpt lat="42.69028" lon="18.03443">
        <ele>32</ele>
        <time>2016-07-21T21:22:06Z</time>
      </trkpt>
      <trkpt lat="42.69039" lon="18.03481">
        <ele>31</ele>
        <time>2016-07-21T21:24:06Z</time>
      </trkpt>
      <trkpt lat="42.69044" lon="18.035">
        <ele>31</ele>
        <time>2016-07-21T21:26:06Z</time>
      </trkpt>
      <trkpt lat="42.69046" lon="18.03508">
        <ele>30</ele>
        <time>2016-07-21T21:28:06Z</time>
      </trkpt>
      <trkpt lat="42.69046" lon="18.03511">
        <ele>30</ele>
        <time>2016-07-21T21:30:06Z</time>
      </trkpt>
      <trkpt lat="42.69048" lon="18.03535">
        <ele>29</ele>
        <time>2016-07-21T21:32:06Z</time>
      </trkpt>
      <trkpt lat="42.6905" lon="18.03576">
        <ele>26</ele>
        <time>2016-07-21T21:34:06Z</time>
      </trkpt>
      <trkpt lat="42.69048" lon="18.03619">
        <ele>25</ele>
        <time>2016-07-21T21:36:06Z</time>
      </trkpt>
      <trkpt lat="42.69048" lon="18.03665">
        <ele>23</ele>
        <time>2016-07-21T21:38:06Z</time>
      </trkpt>
      <trkpt lat="42.69049" lon="18.03678">
        <ele>23</ele>
        <time>2016-07-21T21:40:06Z</time>
      </trkpt>
      <trkpt lat="42.69051" lon="18.0369">
        <ele>22</ele>
        <time>2016-07-21T21:42:06Z</time>
      </trkpt>
      <trkpt lat="42.69053" lon="18.037">
        <ele>22</ele>
        <time>2016-07-21T21:44:06Z</time>
      </trkpt>
      <trkpt lat="42.69056" lon="18.03711">
        <ele>21</ele>
        <time>2016-07-21T21:46:06Z</time>
      </trkpt>
      <trkpt lat="42.69062" lon="18.03725">
        <ele>20</ele>
        <time>2016-07-21T21:48:06Z</time>
      </trkpt>
      <trkpt lat="42.69067" lon="18.03735">
        <ele>20</ele>
        <time>2016-07-21T21:50:06Z</time>
      </trkpt>
      <trkpt lat="42.69074" lon="18.03747">
        <ele>19</ele>
        <time>2016-07-21T21:52:06Z</time>
      </trkpt>
      <trkpt lat="42.69093" lon="18.0377">
        <ele>18</ele>
        <time>2016-07-21T21:54:06Z</time>
      </trkpt>
      <trkpt lat="42.69096" lon="18.03773">
        <ele>18</ele>
        <time>2016-07-21T21:56:06Z</time>
      </trkpt>
      <trkpt lat="42.69147" lon="18.0383">
        <ele>16</ele>
        <time>2016-07-21T21:58:06Z</time>
      </trkpt>
      <trkpt lat="42.69165" lon="18.03851">
        <ele>15</ele>
        <time>2016-07-21T22:00:06Z</time>
      </trkpt>
      <trkpt lat="42.69173" lon="18.0386">
        <ele>15</ele>
        <time>2016-07-21T22:02:06Z</time>
      </trkpt>
      <trkpt lat="42.69177" lon="18.03865">
        <ele>15</ele>
        <time>2016-07-21T22:04:06Z</time>
      </trkpt>
      <trkpt lat="42.69183" lon="18.03873">
        <ele>16</ele>
        <time>2016-07-21T22:06:06Z</time>
      </trkpt>
      <trkpt lat="42.69189" lon="18.03882">
        <ele>16</ele>
        <time>2016-07-21T22:08:06Z</time>
      </trkpt>
      <trkpt lat="42.69194" lon="18.03891">
        <ele>16</ele>
        <time>2016-07-21T22:10:06Z</time>
      </trkpt>
      <trkpt lat="42.69202" lon="18.03908">
        <ele>16</ele>
        <time>2016-07-21T22:12:06Z</time>
      </trkpt>
      <trkpt lat="42.69205" lon="18.03916">
        <ele>16</ele>
        <time>2016-07-21T22:14:06Z</time>
      </trkpt>
      <trkpt lat="42.69208" lon="18.03924">
        <ele>16</ele>
        <time>2016-07-21T22:16:06Z</time>
      </trkpt>
      <trkpt lat="42.69214" lon="18.03942">
        <ele>16</ele>
        <time>2016-07-21T22:18:06Z</time>
      </trkpt>
      <trkpt lat="42.69219" lon="18.03962">
        <ele>15</ele>
        <time>2016-07-21T22:20:06Z</time>
      </trkpt>
      <trkpt lat="42.69225" lon="18.03994">
        <ele>14</ele>
        <time>2016-07-21T22:22:06Z</time>
      </trkpt>
      <trkpt lat="42.69232" lon="18.04028">
        <ele>13</ele>
        <time>2016-07-21T22:24:06Z</time>
      </trkpt>
      <trkpt lat="42.69238" lon="18.04047">
        <ele>12</ele>
        <time>2016-07-21T22:26:06Z</time>
      </trkpt>
      <trkpt lat="42.6924" lon="18.04053">
        <ele>12</ele>
        <time>2016-07-21T22:28:06Z</time>
      </trkpt>
      <trkpt lat="42.69244" lon="18.04063">
        <ele>11</ele>
        <time>2016-07-21T22:30:06Z</time>
      </trkpt>
      <trkpt lat="42.69252" lon="18.04082">
        <ele>10</ele>
        <time>2016-07-21T22:32:06Z</time>
      </trkpt>
      <trkpt lat="42.6926" lon="18.04095">
        <ele>10</ele>
        <time>2016-07-21T22:34:06Z</time>
      </trkpt>
      <trkpt lat="42.69269" lon="18.04105">
        <ele>10</ele>
        <time>2016-07-21T22:36:06Z</time>
      </trkpt>
      <trkpt lat="42.69274" lon="18.04111">
        <ele>9</ele>
        <time>2016-07-21T22:38:06Z</time>
      </trkpt>
      <trkpt lat="42.69281" lon="18.04117">
        <ele>9</ele>
        <time>2016-07-21T22:40:06Z</time>
      </trkpt>
      <trkpt lat="42.69294" lon="18.04126">
        <ele>8</ele>
        <time>2016-07-21T22:42:06Z</time>
      </trkpt>
      <trkpt lat="42.69308" lon="18.04133">
        <ele>8</ele>
        <time>2016-07-21T22:44:06Z</time>
      </trkpt>
      <trkpt lat="42.69318" lon="18.04136">
        <ele>8</ele>
        <time>2016-07-21T22:46:06Z</time>
      </trkpt>
      <trkpt lat="42.69337" lon="18.04142">
        <ele>8</ele>
        <time>2016-07-21T22:48:06Z</time>
      </trkpt>
      <trkpt lat="42.69341" lon="18.04142">
        <ele>8</ele>
        <time>2016-07-21T22:50:06Z</time>
      </trkpt>
      <trkpt lat="42.69386" lon="18.04146">
        <ele>15</ele>
        <time>2016-07-21T22:52:06Z</time>
      </trkpt>
      <trkpt lat="42.69404" lon="18.04148">
        <ele>18</ele>
        <time>2016-07-21T22:54:06Z</time>
      </trkpt>
      <trkpt lat="42.69446" lon="18.04147">
        <ele>16</ele>
        <time>2016-07-21T22:56:06Z</time>
      </trkpt>
      <trkpt lat="42.69465" lon="18.04142">
        <ele>14</ele>
        <time>2016-07-21T22:58:06Z</time>
      </trkpt>
      <trkpt lat="42.69476" lon="18.04137">
        <ele>13</ele>
        <time>2016-07-21T23:00:06Z</time>
      </trkpt>
      <trkpt lat="42.69486" lon="18.0413">
        <ele>13</ele>
        <time>2016-07-21T23:02:06Z</time>
      </trkpt>
      <trkpt lat="42.69498" lon="18.04118">
        <ele>12</ele>
        <time>2016-07-21T23:04:06Z</time>
      </trkpt>
      <trkpt lat="42.69503" lon="18.04109">
        <ele>12</ele>
        <time>2016-07-21T23:06:06Z</time>
      </trkpt>
      <trkpt lat="42.69508" lon="18.04098">
        <ele>13</ele>
        <time>2016-07-21T23:08:06Z</time>
      </trkpt>
      <trkpt lat="42.69512" lon="18.04087">
        <ele>13</ele>
        <time>2016-07-21T23:10:06Z</time>
      </trkpt>
      <trkpt lat="42.69513" lon="18.0408">
        <ele>14</ele>
        <time>2016-07-21T23:12:06Z</time>
      </trkpt>
      <trkpt lat="42.69515" lon="18.0407">
        <ele>14</ele>
        <time>2016-07-21T23:14:06Z</time>
      </trkpt>
      <trkpt lat="42.69517" lon="18.04054">
        <ele>14</ele>
        <time>2016-07-21T23:16:06Z</time>
      </trkpt>
      <trkpt lat="42.69517" lon="18.04053">
        <ele>14</ele>
        <time>2016-07-21T23:18:06Z</time>
      </trkpt>
      <trkpt lat="42.69519" lon="18.04033">
        <ele>14</ele>
        <time>2016-07-21T23:20:06Z</time>
      </trkpt>
      <trkpt lat="42.69519" lon="18.04022">
        <ele>15</ele>
        <time>2016-07-21T23:22:06Z</time>
      </trkpt>
      <trkpt lat="42.69522" lon="18.0399">
        <ele>15</ele>
        <time>2016-07-21T23:24:06Z</time>
      </trkpt>
      <trkpt lat="42.69527" lon="18.03956">
        <ele>15</ele>
        <time>2016-07-21T23:26:06Z</time>
      </trkpt>
      <trkpt lat="42.69532" lon="18.03931">
        <ele>15</ele>
        <time>2016-07-21T23:28:06Z</time>
      </trkpt>
      <trkpt lat="42.69539" lon="18.03915">
        <ele>14</ele>
        <time>2016-07-21T23:30:06Z</time>
      </trkpt>
      <trkpt lat="42.69544" lon="18.03904">
        <ele>13</ele>
        <time>2016-07-21T23:32:06Z</time>
      </trkpt>
      <trkpt lat="42.6955" lon="18.03896">
        <ele>11</ele>
        <time>2016-07-21T23:34:06Z</time>
      </trkpt>
      <trkpt lat="42.69556" lon="18.03888">
        <ele>10</ele>
        <time>2016-07-21T23:36:06Z</time>
      </trkpt>
      <trkpt lat="42.69564" lon="18.03881">
        <ele>9</ele>
        <time>2016-07-21T23:38:06Z</time>
      </trkpt>
      <trkpt lat="42.69571" lon="18.03876">
        <ele>8</ele>
        <time>2016-07-21T23:40:06Z</time>
      </trkpt>
      <trkpt lat="42.69581" lon="18.03871">
        <ele>7</ele>
        <time>2016-07-21T23:42:06Z</time>
      </trkpt>
      <trkpt lat="42.69592" lon="18.03867">
        <ele>7</ele>
        <time>2016-07-21T23:44:06Z</time>
      </trkpt>
      <trkpt lat="42.69603" lon="18.03867">
        <ele>9</ele>
        <time>2016-07-21T23:46:06Z</time>
      </trkpt>
      <trkpt lat="42.69611" lon="18.03867">
        <ele>10</ele>
        <time>2016-07-21T23:48:06Z</time>
      </trkpt>
      <trkpt lat="42.69616" lon="18.03869">
        <ele>10</ele>
        <time>2016-07-21T23:50:06Z</time>
      </trkpt>
      <trkpt lat="42.69625" lon="18.03871">
        <ele>11</ele>
        <time>2016-07-21T23:52:06Z</time>
      </trkpt>
      <trkpt lat="42.69632" lon="18.03876">
        <ele>11</ele>
        <time>2016-07-21T23:54:06Z</time>
      </trkpt>
      <trkpt lat="42.69637" lon="18.03879">
        <ele>12</ele>
        <time>2016-07-21T23:56:06Z</time>
      </trkpt>
      <trkpt lat="42.69664" lon="18.03908">
        <ele>11</ele>
        <time>2016-07-21T23:58:06Z</time>
      </trkpt>
      <trkpt lat="42.69674" lon="18.0392">
        <ele>10</ele>
        <time>2016-07-22T00:00:06Z</time>
      </trkpt>
      <trkpt lat="42.69684" lon="18.0393">
        <ele>11</ele>
        <time>2016-07-22T00:02:06Z</time>
      </trkpt>
      <trkpt lat="42.69698" lon="18.03942">
        <ele>11</ele>
        <time>2016-07-22T00:04:06Z</time>
      </trkpt>
      <trkpt lat="42.69712" lon="18.03949">
        <ele>12</ele>
        <time>2016-07-22T00:06:06Z</time>
      </trkpt>
      <trkpt lat="42.69722" lon="18.03952">
        <ele>13</ele>
        <time>2016-07-22T00:08:06Z</time>
      </trkpt>
      <trkpt lat="42.69734" lon="18.03952">
        <ele>13</ele>
        <time>2016-07-22T00:10:06Z</time>
      </trkpt>
      <trkpt lat="42.69747" lon="18.03949">
        <ele>15</ele>
        <time>2016-07-22T00:12:06Z</time>
      </trkpt>
      <trkpt lat="42.69756" lon="18.03944">
        <ele>14</ele>
        <time>2016-07-22T00:14:06Z</time>
      </trkpt>
      <trkpt lat="42.69773" lon="18.03933">
        <ele>13</ele>
        <time>2016-07-22T00:16:06Z</time>
      </trkpt>
      <trkpt lat="42.69779" lon="18.03929">
        <ele>13</ele>
        <time>2016-07-22T00:18:06Z</time>
      </trkpt>
      <trkpt lat="42.69798" lon="18.03916">
        <ele>12</ele>
        <time>2016-07-22T00:20:06Z</time>
      </trkpt>
      <trkpt lat="42.6981" lon="18.03908">
        <ele>12</ele>
        <time>2016-07-22T00:22:06Z</time>
      </trkpt>
      <trkpt lat="42.69829" lon="18.03897">
        <ele>12</ele>
        <time>2016-07-22T00:24:06Z</time>
      </trkpt>
      <trkpt lat="42.69832" lon="18.03895">
        <ele>12</ele>
        <time>2016-07-22T00:26:06Z</time>
      </trkpt>
      <trkpt lat="42.6984" lon="18.03891">
        <ele>13</ele>
        <time>2016-07-22T00:28:06Z</time>
      </trkpt>
      <trkpt lat="42.69841" lon="18.03891">
        <ele>13</ele>
        <time>2016-07-22T00:30:06Z</time>
      </trkpt>
      <trkpt lat="42.69848" lon="18.03889">
        <ele>14</ele>
        <time>2016-07-22T00:32:06Z</time>
      </trkpt>
      <trkpt lat="42.69855" lon="18.03888">
        <ele>14</ele>
        <time>2016-07-22T00:34:06Z</time>
      </trkpt>
      <trkpt lat="42.69862" lon="18.03887">
        <ele>14</ele>
        <time>2016-07-22T00:36:06Z</time>
      </trkpt>
      <trkpt lat="42.69873" lon="18.03886">
        <ele>15</ele>
        <time>2016-07-22T00:38:06Z</time>
      </trkpt>
      <trkpt lat="42.69892" lon="18.03888">
        <ele>15</ele>
        <time>2016-07-22T00:40:06Z</time>
      </trkpt>
      <trkpt lat="42.69936" lon="18.03899">
        <ele>14</ele>
        <time>2016-07-22T00:42:06Z</time>
      </trkpt>
      <trkpt lat="42.69967" lon="18.03907">
        <ele>14</ele>
        <time>2016-07-22T00:44:06Z</time>
      </trkpt>
      <trkpt lat="42.6997" lon="18.03908">
        <ele>14</ele>
        <time>2016-07-22T00:46:06Z</time>
      </trkpt>
      <trkpt lat="42.69984" lon="18.03913">
        <ele>14</ele>
        <time>2016-07-22T00:48:06Z</time>
      </trkpt>
      <trkpt lat="42.69985" lon="18.03913">
        <ele>14</ele>
        <time>2016-07-22T00:50:06Z</time>
      </trkpt>
      <trkpt lat="42.70002" lon="18.03921">
        <ele>14</ele>
        <time>2016-07-22T00:52:06Z</time>
      </trkpt>
      <trkpt lat="42.70013" lon="18.03927">
        <ele>14</ele>
        <time>2016-07-22T00:54:06Z</time>
      </trkpt>
      <trkpt lat="42.7003" lon="18.03938">
        <ele>14</ele>
        <time>2016-07-22T00:56:06Z</time>
      </trkpt>
      <trkpt lat="42.70048" lon="18.03952">
        <ele>13</ele>
        <time>2016-07-22T00:58:06Z</time>
      </trkpt>
      <trkpt lat="42.70063" lon="18.03967">
        <ele>12</ele>
        <time>2016-07-22T01:00:06Z</time>
      </trkpt>
      <trkpt lat="42.70067" lon="18.03971">
        <ele>12</ele>
        <time>2016-07-22T01:02:06Z</time>
      </trkpt>
      <trkpt lat="42.70086" lon="18.03991">
        <ele>11</ele>
        <time>2016-07-22T01:04:06Z</time>
      </trkpt>
      <trkpt lat="42.70087" lon="18.03993">
        <ele>10</ele>
        <time>2016-07-22T01:06:06Z</time>
      </trkpt>
      <trkpt lat="42.70098" lon="18.0401">
        <ele>10</ele>
        <time>2016-07-22T01:08:06Z</time>
      </trkpt>
      <trkpt lat="42.70101" lon="18.04014">
        <ele>10</ele>
        <time>2016-07-22T01:10:06Z</time>
      </trkpt>
      <trkpt lat="42.70113" lon="18.04035">
        <ele>10</ele>
        <time>2016-07-22T01:12:06Z</time>
      </trkpt>
      <trkpt lat="42.70124" lon="18.04058">
        <ele>10</ele>
        <time>2016-07-22T01:14:06Z</time>
      </trkpt>
      <trkpt lat="42.70139" lon="18.04101">
        <ele>10</ele>
        <time>2016-07-22T01:16:06Z</time>
      </trkpt>
      <trkpt lat="42.70152" lon="18.04156">
        <ele>12</ele>
        <time>2016-07-22T01:18:06Z</time>
      </trkpt>
      <trkpt lat="42.70157" lon="18.04173">
        <ele>12</ele>
        <time>2016-07-22T01:20:06Z</time>
      </trkpt>
      <trkpt lat="42.70167" lon="18.04213">
        <ele>12</ele>
        <time>2016-07-22T01:22:06Z</time>
      </trkpt>
      <trkpt lat="42.70174" lon="18.04241">
        <ele>13</ele>
        <time>2016-07-22T01:24:06Z</time>
      </trkpt>
      <trkpt lat="42.70179" lon="18.04254">
        <ele>14</ele>
        <time>2016-07-22T01:26:06Z</time>
      </trkpt>
      <trkpt lat="42.70189" lon="18.04272">
        <ele>16</ele>
        <time>2016-07-22T01:28:06Z</time>
      </trkpt>
      <trkpt lat="42.70203" lon="18.04293">
        <ele>18</ele>
        <time>2016-07-22T01:30:06Z</time>
      </trkpt>
      <trkpt lat="42.70204" lon="18.04295">
        <ele>18</ele>
        <time>2016-07-22T01:32:06Z</time>
      </trkpt>
      <trkpt lat="42.70211" lon="18.04306">
        <ele>19</ele>
        <time>2016-07-22T01:34:06Z</time>
      </trkpt>
      <trkpt lat="42.70213" lon="18.0431">
        <ele>19</ele>
        <time>2016-07-22T01:36:06Z</time>
      </trkpt>
      <trkpt lat="42.70228" lon="18.04338">
        <ele>21</ele>
        <time>2016-07-22T01:38:06Z</time>
      </trkpt>
      <trkpt lat="42.70235" lon="18.04353">
        <ele>22</ele>
        <time>2016-07-22T01:40:06Z</time>
      </trkpt>
      <trkpt lat="42.70239" lon="18.04366">
        <ele>22</ele>
        <time>2016-07-22T01:42:06Z</time>
      </trkpt>
      <trkpt lat="42.70242" lon="18.04376">
        <ele>21</ele>
        <time>2016-07-22T01:44:06Z</time>
      </trkpt>
      <trkpt lat="42.70245" lon="18.0439">
        <ele>21</ele>
        <time>2016-07-22T01:46:06Z</time>
      </trkpt>
      <trkpt lat="42.70248" lon="18.04413">
        <ele>19</ele>
        <time>2016-07-22T01:48:06Z</time>
      </trkpt>
      <trkpt lat="42.70247" lon="18.04438">
        <ele>20</ele>
        <time>2016-07-22T01:50:06Z</time>
      </trkpt>
      <trkpt lat="42.70244" lon="18.04467">
        <ele>21</ele>
        <time>2016-07-22T01:52:06Z</time>
      </trkpt>
      <trkpt lat="42.70241" lon="18.04483">
        <ele>22</ele>
        <time>2016-07-22T01:54:06Z</time>
      </trkpt>
      <trkpt lat="42.70237" lon="18.04496">
        <ele>21</ele>
        <time>2016-07-22T01:56:06Z</time>
      </trkpt>
      <trkpt lat="42.70234" lon="18.04504">
        <ele>22</ele>
        <time>2016-07-22T01:58:06Z</time>
      </trkpt>
      <trkpt lat="42.70231" lon="18.0451">
        <ele>23</ele>
        <time>2016-07-22T02:00:06Z</time>
      </trkpt>
      <trkpt lat="42.70226" lon="18.0452">
        <ele>24</ele>
        <time>2016-07-22T02:02:06Z</time>
      </trkpt>
      <trkpt lat="42.7022" lon="18.04532">
        <ele>25</ele>
        <time>2016-07-22T02:04:06Z</time>
      </trkpt>
      <trkpt lat="42.70211" lon="18.04543">
        <ele>25</ele>
        <time>2016-07-22T02:06:06Z</time>
      </trkpt>
      <trkpt lat="42.70203" lon="18.04553">
        <ele>25</ele>
        <time>2016-07-22T02:08:06Z</time>
      </trkpt>
      <trkpt lat="42.7019" lon="18.04565">
        <ele>24</ele>
        <time>2016-07-22T02:10:06Z</time>
      </trkpt>
      <trkpt lat="42.70173" lon="18.04577">
        <ele>22</ele>
        <time>2016-07-22T02:12:06Z</time>
      </trkpt>
      <trkpt lat="42.70147" lon="18.04586">
        <ele>19</ele>
        <time>2016-07-22T02:14:06Z</time>
      </trkpt>
      <trkpt lat="42.70089" lon="18.04598">
        <ele>16</ele>
        <time>2016-07-22T02:16:06Z</time>
      </trkpt>
      <trkpt lat="42.70062" lon="18.04607">
        <ele>16</ele>
        <time>2016-07-22T02:18:06Z</time>
      </trkpt>
      <trkpt lat="42.70034" lon="18.04619">
        <ele>16</ele>
        <time>2016-07-22T02:20:06Z</time>
      </trkpt>
      <trkpt lat="42.7001" lon="18.0463">
        <ele>17</ele>
        <time>2016-07-22T02:22:06Z</time>
      </trkpt>
      <trkpt lat="42.69987" lon="18.04642">
        <ele>17</ele>
        <time>2016-07-22T02:24:06Z</time>
      </trkpt>
      <trkpt lat="42.69971" lon="18.04649">
        <ele>17</ele>
        <time>2016-07-22T02:26:06Z</time>
      </trkpt>
      <trkpt lat="42.69958" lon="18.04652">
        <ele>16</ele>
        <time>2016-07-22T02:28:06Z</time>
      </trkpt>
      <trkpt lat="42.69928" lon="18.04655">
        <ele>12</ele>
        <time>2016-07-22T02:30:06Z</time>
      </trkpt>
      <trkpt lat="42.69909" lon="18.04653">
        <ele>11</ele>
        <time>2016-07-22T02:32:06Z</time>
      </trkpt>
      <trkpt lat="42.69884" lon="18.04645">
        <ele>12</ele>
        <time>2016-07-22T02:34:06Z</time>
      </trkpt>
      <trkpt lat="42.69849" lon="18.04623">
        <ele>10</ele>
        <time>2016-07-22T02:36:06Z</time>
      </trkpt>
      <trkpt lat="42.69814" lon="18.04604">
        <ele>6</ele>
        <time>2016-07-22T02:38:06Z</time>
      </trkpt>
      <trkpt lat="42.698" lon="18.04597">
        <ele>4</ele>
        <time>2016-07-22T02:40:06Z</time>
      </trkpt>
      <trkpt lat="42.69788" lon="18.04595">
        <ele>4</ele>
        <time>2016-07-22T02:42:06Z</time>
      </trkpt>
      <trkpt lat="42.69767" lon="18.04594">
        <ele>3</ele>
        <time>2016-07-22T02:44:06Z</time>
      </trkpt>
      <trkpt lat="42.69752" lon="18.04597">
        <ele>5</ele>
        <time>2016-07-22T02:46:06Z</time>
      </trkpt>
      <trkpt lat="42.69723" lon="18.04609">
        <ele>7</ele>
        <time>2016-07-22T02:48:06Z</time>
      </trkpt>
      <trkpt lat="42.69701" lon="18.04618">
        <ele>7</ele>
        <time>2016-07-22T02:50:06Z</time>
      </trkpt>
      <trkpt lat="42.69685" lon="18.04623">
        <ele>7</ele>
        <time>2016-07-22T02:52:06Z</time>
      </trkpt>
      <trkpt lat="42.69669" lon="18.04626">
        <ele>6</ele>
        <time>2016-07-22T02:54:06Z</time>
      </trkpt>
      <trkpt lat="42.69663" lon="18.04627">
        <ele>6</ele>
        <time>2016-07-22T02:56:06Z</time>
      </trkpt>
      <trkpt lat="42.69651" lon="18.04627">
        <ele>5</ele>
        <time>2016-07-22T02:58:06Z</time>
      </trkpt>
      <trkpt lat="42.69632" lon="18.04624">
        <ele>4</ele>
        <time>2016-07-22T03:00:06Z</time>
      </trkpt>
      <trkpt lat="42.69624" lon="18.0462">
        <ele>3</ele>
        <time>2016-07-22T03:02:06Z</time>
      </trkpt>
      <trkpt lat="42.69615" lon="18.04615">
        <ele>3</ele>
        <time>2016-07-22T03:04:06Z</time>
      </trkpt>
      <trkpt lat="42.696" lon="18.04606">
        <ele>1</ele>
        <time>2016-07-22T03:06:06Z</time>
      </trkpt>
      <trkpt lat="42.69589" lon="18.04596">
        <ele>1</ele>
        <time>2016-07-22T03:08:06Z</time>
      </trkpt>
      <trkpt lat="42.69578" lon="18.04587">
        <ele>2</ele>
        <time>2016-07-22T03:10:06Z</time>
      </trkpt>
      <trkpt lat="42.69575" lon="18.04584">
        <ele>2</ele>
        <time>2016-07-22T03:12:06Z</time>
      </trkpt>
      <trkpt lat="42.69548" lon="18.04556">
        <ele>6</ele>
        <time>2016-07-22T03:14:06Z</time>
      </trkpt>
      <trkpt lat="42.69535" lon="18.04544">
        <ele>6</ele>
        <time>2016-07-22T03:16:06Z</time>
      </trkpt>
      <trkpt lat="42.69524" lon="18.04535">
        <ele>6</ele>
        <time>2016-07-22T03:18:06Z</time>
      </trkpt>
      <trkpt lat="42.69513" lon="18.04529">
        <ele>6</ele>
        <time>2016-07-22T03:20:06Z</time>
      </trkpt>
      <trkpt lat="42.69501" lon="18.04525">
        <ele>6</ele>
        <time>2016-07-22T03:22:06Z</time>
      </trkpt>
      <trkpt lat="42.69489" lon="18.04522">
        <ele>5</ele>
        <time>2016-07-22T03:24:06Z</time>
      </trkpt>
      <trkpt lat="42.69474" lon="18.04523">
        <ele>5</ele>
        <time>2016-07-22T03:26:06Z</time>
      </trkpt>
      <trkpt lat="42.69456" lon="18.04526">
        <ele>6</ele>
        <time>2016-07-22T03:28:06Z</time>
      </trkpt>
      <trkpt lat="42.69431" lon="18.04533">
        <ele>7</ele>
        <time>2016-07-22T03:30:06Z</time>
      </trkpt>
      <trkpt lat="42.69413" lon="18.04541">
        <ele>8</ele>
        <time>2016-07-22T03:32:06Z</time>
      </trkpt>
      <trkpt lat="42.69395" lon="18.04553">
        <ele>8</ele>
        <time>2016-07-22T03:34:06Z</time>
      </trkpt>
      <trkpt lat="42.69385" lon="18.04563">
        <ele>7</ele>
        <time>2016-07-22T03:36:06Z</time>
      </trkpt>
      <trkpt lat="42.69377" lon="18.04574">
        <ele>7</ele>
        <time>2016-07-22T03:38:06Z</time>
      </trkpt>
      <trkpt lat="42.69368" lon="18.04593">
        <ele>8</ele>
        <time>2016-07-22T03:40:06Z</time>
      </trkpt>
      <trkpt lat="42.69357" lon="18.0462">
        <ele>11</ele>
        <time>2016-07-22T03:42:06Z</time>
      </trkpt>
      <trkpt lat="42.69356" lon="18.04623">
        <ele>11</ele>
        <time>2016-07-22T03:44:06Z</time>
      </trkpt>
      <trkpt lat="42.69348" lon="18.04641">
        <ele>12</ele>
        <time>2016-07-22T03:46:06Z</time>
      </trkpt>
      <trkpt lat="42.69342" lon="18.04653">
        <ele>12</ele>
        <time>2016-07-22T03:48:06Z</time>
      </trkpt>
      <trkpt lat="42.69339" lon="18.04658">
        <ele>12</ele>
        <time>2016-07-22T03:50:06Z</time>
      </trkpt>
      <trkpt lat="42.69334" lon="18.04664">
        <ele>11</ele>
        <time>2016-07-22T03:52:06Z</time>
      </trkpt>
      <trkpt lat="42.69327" lon="18.04673">
        <ele>12</ele>
        <time>2016-07-22T03:54:06Z</time>
      </trkpt>
      <trkpt lat="42.6932" lon="18.04681">
        <ele>14</ele>
        <time>2016-07-22T03:56:06Z</time>
      </trkpt>
      <trkpt lat="42.69315" lon="18.04685">
        <ele>14</ele>
        <time>2016-07-22T03:58:06Z</time>
      </trkpt>
      <trkpt lat="42.69308" lon="18.04691">
        <ele>15</ele>
        <time>2016-07-22T04:00:06Z</time>
      </trkpt>
      <trkpt lat="42.69301" lon="18.04695">
        <ele>15</ele>
        <time>2016-07-22T04:02:06Z</time>
      </trkpt>
      <trkpt lat="42.69296" lon="18.04698">
        <ele>15</ele>
        <time>2016-07-22T04:04:06Z</time>
      </trkpt>
      <trkpt lat="42.69292" lon="18.047">
        <ele>15</ele>
        <time>2016-07-22T04:06:06Z</time>
      </trkpt>
      <trkpt lat="42.69284" lon="18.04703">
        <ele>14</ele>
        <time>2016-07-22T04:08:06Z</time>
      </trkpt>
      <trkpt lat="42.69275" lon="18.04705">
        <ele>13</ele>
        <time>2016-07-22T04:10:06Z</time>
      </trkpt>
      <trkpt lat="42.69255" lon="18.04708">
        <ele>11</ele>
        <time>2016-07-22T04:12:06Z</time>
      </trkpt>
      <trkpt lat="42.69227" lon="18.04713">
        <ele>10</ele>
        <time>2016-07-22T04:14:06Z</time>
      </trkpt>
      <trkpt lat="42.69194" lon="18.04719">
        <ele>10</ele>
        <time>2016-07-22T04:16:06Z</time>
      </trkpt>
      <trkpt lat="42.69192" lon="18.04719">
        <ele>10</ele>
        <time>2016-07-22T04:18:06Z</time>
      </trkpt>
      <trkpt lat="42.69173" lon="18.04723">
        <ele>9</ele>
        <time>2016-07-22T04:20:06Z</time>
      </trkpt>
      <trkpt lat="42.69159" lon="18.04725">
        <ele>9</ele>
        <time>2016-07-22T04:22:06Z</time>
      </trkpt>
      <trkpt lat="42.69139" lon="18.04728">
        <ele>9</ele>
        <time>2016-07-22T04:24:06Z</time>
      </trkpt>
      <trkpt lat="42.69127" lon="18.0473">
        <ele>9</ele>
        <time>2016-07-22T04:26:06Z</time>
      </trkpt>
      <trkpt lat="42.69113" lon="18.04733">
        <ele>9</ele>
        <time>2016-07-22T04:28:06Z</time>
      </trkpt>
      <trkpt lat="42.69101" lon="18.04738">
        <ele>9</ele>
        <time>2016-07-22T04:30:06Z</time>
      </trkpt>
      <trkpt lat="42.69092" lon="18.04744">
        <ele>10</ele>
        <time>2016-07-22T04:32:06Z</time>
      </trkpt>
      <trkpt lat="42.69082" lon="18.04754">
        <ele>11</ele>
        <time>2016-07-22T04:34:06Z</time>
      </trkpt>
      <trkpt lat="42.69072" lon="18.04767">
        <ele>12</ele>
        <time>2016-07-22T04:36:06Z</time>
      </trkpt>
      <trkpt lat="42.69061" lon="18.04784">
        <ele>13</ele>
        <time>2016-07-22T04:38:06Z</time>
      </trkpt>
      <trkpt lat="42.69052" lon="18.04805">
        <ele>15</ele>
        <time>2016-07-22T04:40:06Z</time>
      </trkpt>
      <trkpt lat="42.69039" lon="18.04832">
        <ele>15</ele>
        <time>2016-07-22T04:42:06Z</time>
      </trkpt>
      <trkpt lat="42.69028" lon="18.04853">
        <ele>18</ele>
        <time>2016-07-22T04:44:06Z</time>
      </trkpt>
      <trkpt lat="42.69021" lon="18.04864">
        <ele>19</ele>
        <time>2016-07-22T04:46:06Z</time>
      </trkpt>
      <trkpt lat="42.69017" lon="18.04869">
        <ele>19</ele>
        <time>2016-07-22T04:48:06Z</time>
      </trkpt>
      <trkpt lat="42.6901" lon="18.04878">
        <ele>21</ele>
        <time>2016-07-22T04:50:06Z</time>
      </trkpt>
      <trkpt lat="42.68993" lon="18.04896">
        <ele>22</ele>
        <time>2016-07-22T04:52:06Z</time>
      </trkpt>
      <trkpt lat="42.68963" lon="18.04927">
        <ele>20</ele>
        <time>2016-07-22T04:54:06Z</time>
      </trkpt>
      <trkpt lat="42.68937" lon="18.04952">
        <ele>20</ele>
        <time>2016-07-22T04:56:06Z</time>
      </trkpt>
      <trkpt lat="42.68916" lon="18.04972">
        <ele>20</ele>
        <time>2016-07-22T04:58:06Z</time>
      </trkpt>
      <trkpt lat="42.68903" lon="18.04988">
        <ele>23</ele>
        <time>2016-07-22T05:00:06Z</time>
      </trkpt>
      <trkpt lat="42.68894" lon="18.04999">
        <ele>25</ele>
        <time>2016-07-22T05:02:06Z</time>
      </trkpt>
      <trkpt lat="42.68872" lon="18.05026">
        <ele>27</ele>
        <time>2016-07-22T05:04:06Z</time>
      </trkpt>
      <trkpt lat="42.68861" lon="18.05042">
        <ele>29</ele>
        <time>2016-07-22T05:06:06Z</time>
      </trkpt>
      <trkpt lat="42.68854" lon="18.05054">
        <ele>30</ele>
        <time>2016-07-22T05:08:06Z</time>
      </trkpt>
      <trkpt lat="42.68844" lon="18.05069">
        <ele>30</ele>
        <time>2016-07-22T05:10:06Z</time>
      </trkpt>
      <trkpt lat="42.68825" lon="18.05104">
        <ele>32</ele>
        <time>2016-07-22T05:12:06Z</time>
      </trkpt>
      <trkpt lat="42.6882" lon="18.05113">
        <ele>33</ele>
        <time>2016-07-22T05:14:06Z</time>
      </trkpt>
      <trkpt lat="42.68816" lon="18.05122">
        <ele>34</ele>
        <time>2016-07-22T05:16:06Z</time>
      </trkpt>
      <trkpt lat="42.68814" lon="18.05129">
        <ele>35</ele>
        <time>2016-07-22T05:18:06Z</time>
      </trkpt>
      <trkpt lat="42.68813" lon="18.05135">
        <ele>36</ele>
        <time>2016-07-22T05:20:06Z</time>
      </trkpt>
      <trkpt lat="42.68812" lon="18.05144">
        <ele>37</ele>
        <time>2016-07-22T05:22:06Z</time>
      </trkpt>
      <trkpt lat="42.68812" lon="18.05153">
        <ele>38</ele>
        <time>2016-07-22T05:24:06Z</time>
      </trkpt>
      <trkpt lat="42.68814" lon="18.05162">
        <ele>40</ele>
        <time>2016-07-22T05:26:06Z</time>
      </trkpt>
      <trkpt lat="42.68816" lon="18.0517">
        <ele>41</ele>
        <time>2016-07-22T05:28:06Z</time>
      </trkpt>
      <trkpt lat="42.68825" lon="18.05194">
        <ele>43</ele>
        <time>2016-07-22T05:30:06Z</time>
      </trkpt>
      <trkpt lat="42.6883" lon="18.05208">
        <ele>44</ele>
        <time>2016-07-22T05:32:06Z</time>
      </trkpt>
      <trkpt lat="42.68835" lon="18.05221">
        <ele>46</ele>
        <time>2016-07-22T05:34:06Z</time>
      </trkpt>
      <trkpt lat="42.68837" lon="18.05231">
        <ele>47</ele>
        <time>2016-07-22T05:36:06Z</time>
      </trkpt>
      <trkpt lat="42.68838" lon="18.05239">
        <ele>48</ele>
        <time>2016-07-22T05:38:06Z</time>
      </trkpt>
      <trkpt lat="42.68839" lon="18.05248">
        <ele>49</ele>
        <time>2016-07-22T05:40:06Z</time>
      </trkpt>
      <trkpt lat="42.68839" lon="18.05256">
        <ele>50</ele>
        <time>2016-07-22T05:42:06Z</time>
      </trkpt>
      <trkpt lat="42.68837" lon="18.0527">
        <ele>52</ele>
        <time>2016-07-22T05:44:06Z</time>
      </trkpt>
      <trkpt lat="42.68835" lon="18.05282">
        <ele>53</ele>
        <time>2016-07-22T05:46:06Z</time>
      </trkpt>
      <trkpt lat="42.68832" lon="18.0529">
        <ele>54</ele>
        <time>2016-07-22T05:48:06Z</time>
      </trkpt>
      <trkpt lat="42.68828" lon="18.05298">
        <ele>55</ele>
        <time>2016-07-22T05:50:06Z</time>
      </trkpt>
      <trkpt lat="42.68823" lon="18.05306">
        <ele>55</ele>
        <time>2016-07-22T05:52:06Z</time>
      </trkpt>
      <trkpt lat="42.68818" lon="18.05312">
        <ele>56</ele>
        <time>2016-07-22T05:54:06Z</time>
      </trkpt>
      <trkpt lat="42.68811" lon="18.05319">
        <ele>56</ele>
        <time>2016-07-22T05:56:06Z</time>
      </trkpt>
      <trkpt lat="42.68806" lon="18.05323">
        <ele>56</ele>
        <time>2016-07-22T05:58:06Z</time>
      </trkpt>
      <trkpt lat="42.688" lon="18.05325">
        <ele>55</ele>
        <time>2016-07-22T06:00:06Z</time>
      </trkpt>
      <trkpt lat="42.68794" lon="18.05328">
        <ele>54</ele>
        <time>2016-07-22T06:02:06Z</time>
      </trkpt>
      <trkpt lat="42.6879" lon="18.05329">
        <ele>54</ele>
        <time>2016-07-22T06:04:06Z</time>
      </trkpt>
      <trkpt lat="42.68786" lon="18.05329">
        <ele>53</ele>
        <time>2016-07-22T06:06:06Z</time>
      </trkpt>
      <trkpt lat="42.6878" lon="18.05328">
        <ele>52</ele>
        <time>2016-07-22T06:08:06Z</time>
      </trkpt>
      <trkpt lat="42.68775" lon="18.05327">
        <ele>51</ele>
        <time>2016-07-22T06:10:06Z</time>
      </trkpt>
      <trkpt lat="42.68774" lon="18.05327">
        <ele>51</ele>
        <time>2016-07-22T06:12:06Z</time>
      </trkpt>
      <trkpt lat="42.68769" lon="18.05324">
        <ele>49</ele>
        <time>2016-07-22T06:14:06Z</time>
      </trkpt>
      <trkpt lat="42.68768" lon="18.05324">
        <ele>49</ele>
        <time>2016-07-22T06:16:06Z</time>
      </trkpt>
      <trkpt lat="42.68763" lon="18.0532">
        <ele>48</ele>
        <time>2016-07-22T06:18:06Z</time>
      </trkpt>
      <trkpt lat="42.68762" lon="18.0532">
        <ele>48</ele>
        <time>2016-07-22T06:20:06Z</time>
      </trkpt>
      <trkpt lat="42.68757" lon="18.05315">
        <ele>47</ele>
        <time>2016-07-22T06:22:06Z</time>
      </trkpt>
      <trkpt lat="42.68752" lon="18.05309">
        <ele>46</ele>
        <time>2016-07-22T06:24:06Z</time>
      </trkpt>
      <trkpt lat="42.68751" lon="18.05308">
        <ele>45</ele>
        <time>2016-07-22T06:26:06Z</time>
      </trkpt>
      <trkpt lat="42.68748" lon="18.05304">
        <ele>45</ele>
        <time>2016-07-22T06:28:06Z</time>
      </trkpt>
      <trkpt lat="42.68745" lon="18.05299">
        <ele>46</ele>
        <time>2016-07-22T06:30:06Z</time>
      </trkpt>
      <trkpt lat="42.68739" lon="18.05286">
        <ele>46</ele>
        <time>2016-07-22T06:32:06Z</time>
      </trkpt>
      <trkpt lat="42.68733" lon="18.05271">
        <ele>47</ele>
        <time>2016-07-22T06:34:06Z</time>
      </trkpt>
      <trkpt lat="42.6873" lon="18.05262">
        <ele>47</ele>
        <time>2016-07-22T06:36:06Z</time>
      </trkpt>
      <trkpt lat="42.68723" lon="18.05243">
        <ele>48</ele>
        <time>2016-07-22T06:38:06Z</time>
      </trkpt>
      <trkpt lat="42.68715" lon="18.05224">
        <ele>48</ele>
        <time>2016-07-22T06:40:06Z</time>
      </trkpt>
      <trkpt lat="42.68712" lon="18.05215">
        <ele>47</ele>
        <time>2016-07-22T06:42:06Z</time>
      </trkpt>
      <trkpt lat="42.68707" lon="18.05206">
        <ele>47</ele>
        <time>2016-07-22T06:44:06Z</time>
      </trkpt>
      <trkpt lat="42.687" lon="18.05195">
        <ele>47</ele>
        <time>2016-07-22T06:46:06Z</time>
      </trkpt>
      <trkpt lat="42.68694" lon="18.05185">
        <ele>47</ele>
        <time>2016-07-22T06:48:06Z</time>
      </trkpt>
      <trkpt lat="42.68687" lon="18.05177">
        <ele>48</ele>
        <time>2016-07-22T06:50:06Z</time>
      </trkpt>
      <trkpt lat="42.68678" lon="18.05169">
        <ele>49</ele>
        <time>2016-07-22T06:52:06Z</time>
      </trkpt>
      <trkpt lat="42.68668" lon="18.05161">
        <ele>50</ele>
        <time>2016-07-22T06:54:06Z</time>
      </trkpt>
      <trkpt lat="42.68658" lon="18.05154">
        <ele>50</ele>
        <time>2016-07-22T06:56:06Z</time>
      </trkpt>
      <trkpt lat="42.68649" lon="18.0515">
        <ele>51</ele>
        <time>2016-07-22T06:58:06Z</time>
      </trkpt>
      <trkpt lat="42.68647" lon="18.05149">
        <ele>51</ele>
        <time>2016-07-22T07:00:06Z</time>
      </trkpt>
      <trkpt lat="42.68639" lon="18.05146">
        <ele>51</ele>
        <time>2016-07-22T07:02:06Z</time>
      </trkpt>
      <trkpt lat="42.68598" lon="18.05133">
        <ele>54</ele>
        <time>2016-07-22T07:04:06Z</time>
      </trkpt>
      <trkpt lat="42.68589" lon="18.05131">
        <ele>54</ele>
        <time>2016-07-22T07:06:06Z</time>
      </trkpt>
      <trkpt lat="42.68562" lon="18.05124">
        <ele>54</ele>
        <time>2016-07-22T07:08:06Z</time>
      </trkpt>
      <trkpt lat="42.6855" lon="18.05121">
        <ele>54</ele>
        <time>2016-07-22T07:10:06Z</time>
      </trkpt>
      <trkpt lat="42.68536" lon="18.05118">
        <ele>53</ele>
        <time>2016-07-22T07:12:06Z</time>
      </trkpt>
      <trkpt lat="42.68525" lon="18.05116">
        <ele>53</ele>
        <time>2016-07-22T07:14:06Z</time>
      </trkpt>
      <trkpt lat="42.68514" lon="18.05117">
        <ele>53</ele>
        <time>2016-07-22T07:16:06Z</time>
      </trkpt>
      <trkpt lat="42.68505" lon="18.05118">
        <ele>54</ele>
        <time>2016-07-22T07:18:06Z</time>
      </trkpt>
      <trkpt lat="42.68497" lon="18.05121">
        <ele>54</ele>
        <time>2016-07-22T07:20:06Z</time>
      </trkpt>
      <trkpt lat="42.68488" lon="18.05126">
        <ele>53</ele>
        <time>2016-07-22T07:22:06Z</time>
      </trkpt>
      <trkpt lat="42.68478" lon="18.05133">
        <ele>53</ele>
        <time>2016-07-22T07:24:06Z</time>
      </trkpt>
      <trkpt lat="42.68471" lon="18.05139">
        <ele>52</ele>
        <time>2016-07-22T07:26:06Z</time>
      </trkpt>
      <trkpt lat="42.68459" lon="18.05152">
        <ele>52</ele>
        <time>2016-07-22T07:28:06Z</time>
      </trkpt>
      <trkpt lat="42.68425" lon="18.05195">
        <ele>51</ele>
        <time>2016-07-22T07:30:06Z</time>
      </trkpt>
      <trkpt lat="42.68415" lon="18.0521">
        <ele>51</ele>
        <time>2016-07-22T07:32:06Z</time>
      </trkpt>
      <trkpt lat="42.68408" lon="18.05221">
        <ele>50</ele>
        <time>2016-07-22T07:34:06Z</time>
      </trkpt>
      <trkpt lat="42.68404" lon="18.05228">
        <ele>50</ele>
        <time>2016-07-22T07:36:06Z</time>
      </trkpt>
      <trkpt lat="42.684" lon="18.05235">
        <ele>49</ele>
        <time>2016-07-22T07:38:06Z</time>
      </trkpt>
      <trkpt lat="42.68398" lon="18.05243">
        <ele>50</ele>
        <time>2016-07-22T07:40:06Z</time>
      </trkpt>
      <trkpt lat="42.68396" lon="18.05252">
        <ele>51</ele>
        <time>2016-07-22T07:42:06Z</time>
      </trkpt>
      <trkpt lat="42.6839" lon="18.05283">
        <ele>53</ele>
        <time>2016-07-22T07:44:06Z</time>
      </trkpt>
      <trkpt lat="42.68384" lon="18.05309">
        <ele>54</ele>
        <time>2016-07-22T07:46:06Z</time>
      </trkpt>
      <trkpt lat="42.6838" lon="18.0532">
        <ele>54</ele>
        <time>2016-07-22T07:48:06Z</time>
      </trkpt>
      <trkpt lat="42.68378" lon="18.05324">
        <ele>54</ele>
        <time>2016-07-22T07:50:06Z</time>
      </trkpt>
      <trkpt lat="42.68374" lon="18.05333">
        <ele>54</ele>
        <time>2016-07-22T07:52:06Z</time>
      </trkpt>
      <trkpt lat="42.68366" lon="18.0535">
        <ele>55</ele>
        <time>2016-07-22T07:54:06Z</time>
      </trkpt>
      <trkpt lat="42.68353" lon="18.05368">
        <ele>55</ele>
        <time>2016-07-22T07:56:06Z</time>
      </trkpt>
      <trkpt lat="42.68332" lon="18.05392">
        <ele>57</ele>
        <time>2016-07-22T07:58:06Z</time>
      </trkpt>
      <trkpt lat="42.68323" lon="18.05402">
        <ele>57</ele>
        <time>2016-07-22T08:00:06Z</time>
      </trkpt>
      <trkpt lat="42.68321" lon="18.05404">
        <ele>57</ele>
        <time>2016-07-22T08:02:06Z</time>
      </trkpt>
      <trkpt lat="42.68252" lon="18.05476">
        <ele>54</ele>
        <time>2016-07-22T08:04:06Z</time>
      </trkpt>
      <trkpt lat="42.68251" lon="18.05477">
        <ele>54</ele>
        <time>2016-07-22T08:06:06Z</time>
      </trkpt>
      <trkpt lat="42.68221" lon="18.05511">
        <ele>51</ele>
        <time>2016-07-22T08:08:06Z</time>
      </trkpt>
      <trkpt lat="42.68205" lon="18.05534">
        <ele>50</ele>
        <time>2016-07-22T08:10:06Z</time>
      </trkpt>
      <trkpt lat="42.68191" lon="18.05554">
        <ele>50</ele>
        <time>2016-07-22T08:12:06Z</time>
      </trkpt>
      <trkpt lat="42.68183" lon="18.05568">
        <ele>50</ele>
        <time>2016-07-22T08:14:06Z</time>
      </trkpt>
      <trkpt lat="42.68178" lon="18.0558">
        <ele>51</ele>
        <time>2016-07-22T08:16:06Z</time>
      </trkpt>
      <trkpt lat="42.68168" lon="18.05603">
        <ele>52</ele>
        <time>2016-07-22T08:18:06Z</time>
      </trkpt>
      <trkpt lat="42.68151" lon="18.05644">
        <ele>52</ele>
        <time>2016-07-22T08:20:06Z</time>
      </trkpt>
      <trkpt lat="42.68138" lon="18.0568">
        <ele>52</ele>
        <time>2016-07-22T08:22:06Z</time>
      </trkpt>
      <trkpt lat="42.68103" lon="18.05782">
        <ele>50</ele>
        <time>2016-07-22T08:24:06Z</time>
      </trkpt>
      <trkpt lat="42.68095" lon="18.05804">
        <ele>49</ele>
        <time>2016-07-22T08:26:06Z</time>
      </trkpt>
      <trkpt lat="42.6809" lon="18.05819">
        <ele>49</ele>
        <time>2016-07-22T08:28:06Z</time>
      </trkpt>
      <trkpt lat="42.68082" lon="18.05834">
        <ele>48</ele>
        <time>2016-07-22T08:30:06Z</time>
      </trkpt>
      <trkpt lat="42.68077" lon="18.05843">
        <ele>50</ele>
        <time>2016-07-22T08:32:06Z</time>
      </trkpt>
      <trkpt lat="42.68071" lon="18.0585">
        <ele>52</ele>
        <time>2016-07-22T08:34:06Z</time>
      </trkpt>
      <trkpt lat="42.68065" lon="18.05856">
        <ele>54</ele>
        <time>2016-07-22T08:36:06Z</time>
      </trkpt>
      <trkpt lat="42.68059" lon="18.05859">
        <ele>55</ele>
        <time>2016-07-22T08:38:06Z</time>
      </trkpt>
      <trkpt lat="42.68053" lon="18.05861">
        <ele>56</ele>
        <time>2016-07-22T08:40:06Z</time>
      </trkpt>
      <trkpt lat="42.68045" lon="18.05862">
        <ele>57</ele>
        <time>2016-07-22T08:42:06Z</time>
      </trkpt>
      <trkpt lat="42.68038" lon="18.05861">
        <ele>58</ele>
        <time>2016-07-22T08:44:06Z</time>
      </trkpt>
      <trkpt lat="42.68033" lon="18.0586">
        <ele>58</ele>
        <time>2016-07-22T08:46:06Z</time>
      </trkpt>
      <trkpt lat="42.68032" lon="18.0586">
        <ele>58</ele>
        <time>2016-07-22T08:48:06Z</time>
      </trkpt>
      <trkpt lat="42.68025" lon="18.05857">
        <ele>58</ele>
        <time>2016-07-22T08:50:06Z</time>
      </trkpt>
      <trkpt lat="42.68016" lon="18.05851">
        <ele>58</ele>
        <time>2016-07-22T08:52:06Z</time>
      </trkpt>
      <trkpt lat="42.68009" lon="18.05845">
        <ele>57</ele>
        <time>2016-07-22T08:54:06Z</time>
      </trkpt>
      <trkpt lat="42.68005" lon="18.0584">
        <ele>56</ele>
        <time>2016-07-22T08:56:06Z</time>
      </trkpt>
      <trkpt lat="42.67998" lon="18.0583">
        <ele>55</ele>
        <time>2016-07-22T08:58:06Z</time>
      </trkpt>
      <trkpt lat="42.67991" lon="18.05819">
        <ele>54</ele>
        <time>2016-07-22T09:00:06Z</time>
      </trkpt>
      <trkpt lat="42.67985" lon="18.05808">
        <ele>53</ele>
        <time>2016-07-22T09:02:06Z</time>
      </trkpt>
      <trkpt lat="42.67985" lon="18.05808">
        <ele>53</ele>
        <time>2016-07-22T09:04:06Z</time>
      </trkpt>
      <trkpt lat="42.67984" lon="18.05805">
        <ele>53</ele>
        <time>2016-07-22T09:06:06Z</time>
      </trkpt>
      <trkpt lat="42.67977" lon="18.0579">
        <ele>51</ele>
        <time>2016-07-22T09:08:06Z</time>
      </trkpt>
      <trkpt lat="42.67973" lon="18.05777">
        <ele>50</ele>
        <time>2016-07-22T09:10:06Z</time>
      </trkpt>
      <trkpt lat="42.67969" lon="18.05767">
        <ele>49</ele>
        <time>2016-07-22T09:12:06Z</time>
      </trkpt>
      <trkpt lat="42.67955" lon="18.05714">
        <ele>42</ele>
        <time>2016-07-22T09:14:06Z</time>
      </trkpt>
      <trkpt lat="42.67951" lon="18.05697">
        <ele>39</ele>
        <time>2016-07-22T09:16:06Z</time>
      </trkpt>
      <trkpt lat="42.67947" lon="18.05688">
        <ele>39</ele>
        <time>2016-07-22T09:18:06Z</time>
      </trkpt>
      <trkpt lat="42.67944" lon="18.0568">
        <ele>38</ele>
        <time>2016-07-22T09:20:06Z</time>
      </trkpt>
      <trkpt lat="42.6794" lon="18.05672">
        <ele>37</ele>
        <time>2016-07-22T09:22:06Z</time>
      </trkpt>
      <trkpt lat="42.67935" lon="18.05665">
        <ele>37</ele>
        <time>2016-07-22T09:24:06Z</time>
      </trkpt>
      <trkpt lat="42.6793" lon="18.05657">
        <ele>37</ele>
        <time>2016-07-22T09:26:06Z</time>
      </trkpt>
      <trkpt lat="42.67925" lon="18.05652">
        <ele>37</ele>
        <time>2016-07-22T09:28:06Z</time>
      </trkpt>
      <trkpt lat="42.67919" lon="18.05647">
        <ele>37</ele>
        <time>2016-07-22T09:30:06Z</time>
      </trkpt>
      <trkpt lat="42.67912" lon="18.05643">
        <ele>36</ele>
        <time>2016-07-22T09:32:06Z</time>
      </trkpt>
      <trkpt lat="42.67905" lon="18.05641">
        <ele>35</ele>
        <time>2016-07-22T09:34:06Z</time>
      </trkpt>
      <trkpt lat="42.67898" lon="18.05639">
        <ele>34</ele>
        <time>2016-07-22T09:36:06Z</time>
      </trkpt>
      <trkpt lat="42.6789" lon="18.05639">
        <ele>33</ele>
        <time>2016-07-22T09:38:06Z</time>
      </trkpt>
      <trkpt lat="42.67881" lon="18.0564">
        <ele>32</ele>
        <time>2016-07-22T09:40:06Z</time>
      </trkpt>
      <trkpt lat="42.67874" lon="18.05642">
        <ele>32</ele>
        <time>2016-07-22T09:42:06Z</time>
      </trkpt>
      <trkpt lat="42.67868" lon="18.05645">
        <ele>32</ele>
        <time>2016-07-22T09:44:06Z</time>
      </trkpt>
      <trkpt lat="42.67858" lon="18.05652">
        <ele>32</ele>
        <time>2016-07-22T09:46:06Z</time>
      </trkpt>
      <trkpt lat="42.67853" lon="18.05656">
        <ele>33</ele>
        <time>2016-07-22T09:48:06Z</time>
      </trkpt>
      <trkpt lat="42.67851" lon="18.05658">
        <ele>33</ele>
        <time>2016-07-22T09:50:06Z</time>
      </trkpt>
      <trkpt lat="42.67848" lon="18.0566">
        <ele>33</ele>
        <time>2016-07-22T09:52:06Z</time>
      </trkpt>
      <trkpt lat="42.67848" lon="18.0566">
        <ele>33</ele>
        <time>2016-07-22T09:54:06Z</time>
      </trkpt>
      <trkpt lat="42.67843" lon="18.05668">
        <ele>35</ele>
        <time>2016-07-22T09:56:06Z</time>
      </trkpt>
      <trkpt lat="42.6784" lon="18.05672">
        <ele>35</ele>
        <time>2016-07-22T09:58:06Z</time>
      </trkpt>
      <trkpt lat="42.67837" lon="18.05678">
        <ele>36</ele>
        <time>2016-07-22T10:00:06Z</time>
      </trkpt>
      <trkpt lat="42.67827" lon="18.05696">
        <ele>36</ele>
        <time>2016-07-22T10:02:06Z</time>
      </trkpt>
      <trkpt lat="42.67793" lon="18.05771">
        <ele>38</ele>
        <time>2016-07-22T10:04:06Z</time>
      </trkpt>
      <trkpt lat="42.67786" lon="18.05787">
        <ele>37</ele>
        <time>2016-07-22T10:06:06Z</time>
      </trkpt>
      <trkpt lat="42.67768" lon="18.05828">
        <ele>35</ele>
        <time>2016-07-22T10:08:06Z</time>
      </trkpt>
      <trkpt lat="42.67764" lon="18.05838">
        <ele>34</ele>
        <time>2016-07-22T10:10:06Z</time>
      </trkpt>
      <trkpt lat="42.67743" lon="18.05891">
        <ele>35</ele>
        <time>2016-07-22T10:12:06Z</time>
      </trkpt>
      <trkpt lat="42.67726" lon="18.05934">
        <ele>35</ele>
        <time>2016-07-22T10:14:06Z</time>
      </trkpt>
      <trkpt lat="42.67718" lon="18.05955">
        <ele>35</ele>
        <time>2016-07-22T10:16:06Z</time>
      </trkpt>
      <trkpt lat="42.67706" lon="18.05986">
        <ele>35</ele>
        <time>2016-07-22T10:18:06Z</time>
      </trkpt>
      <trkpt lat="42.67666" lon="18.06063">
        <ele>30</ele>
        <time>2016-07-22T10:20:06Z</time>
      </trkpt>
      <trkpt lat="42.67632" lon="18.06126">
        <ele>32</ele>
        <time>2016-07-22T10:22:06Z</time>
      </trkpt>
      <trkpt lat="42.67622" lon="18.06145">
        <ele>32</ele>
        <time>2016-07-22T10:24:06Z</time>
      </trkpt>
      <trkpt lat="42.67615" lon="18.06159">
        <ele>31</ele>
        <time>2016-07-22T10:26:06Z</time>
      </trkpt>
      <trkpt lat="42.67608" lon="18.06174">
        <ele>30</ele>
        <time>2016-07-22T10:28:06Z</time>
      </trkpt>
      <trkpt lat="42.67602" lon="18.06191">
        <ele>30</ele>
        <time>2016-07-22T10:30:06Z</time>
      </trkpt>
      <trkpt lat="42.67595" lon="18.06211">
        <ele>29</ele>
        <time>2016-07-22T10:32:06Z</time>
      </trkpt>
      <trkpt lat="42.6759" lon="18.06229">
        <ele>28</ele>
        <time>2016-07-22T10:34:06Z</time>
      </trkpt>
      <trkpt lat="42.6758" lon="18.06265">
        <ele>30</ele>
        <time>2016-07-22T10:36:06Z</time>
      </trkpt>
      <trkpt lat="42.67572" lon="18.06298">
        <ele>36</ele>
        <time>2016-07-22T10:38:06Z</time>
      </trkpt>
      <trkpt lat="42.67565" lon="18.06319">
        <ele>39</ele>
        <time>2016-07-22T10:40:06Z</time>
      </trkpt>
      <trkpt lat="42.67559" lon="18.06339">
        <ele>42</ele>
        <time>2016-07-22T10:42:06Z</time>
      </trkpt>
      <trkpt lat="42.67551" lon="18.06359">
        <ele>41</ele>
        <time>2016-07-22T10:44:06Z</time>
      </trkpt>
      <trkpt lat="42.6754" lon="18.06386">
        <ele>41</ele>
        <time>2016-07-22T10:46:06Z</time>
      </trkpt>
      <trkpt lat="42.67532" lon="18.06404">
        <ele>40</ele>
        <time>2016-07-22T10:48:06Z</time>
      </trkpt>
      <trkpt lat="42.67522" lon="18.06424">
        <ele>40</ele>
        <time>2016-07-22T10:50:06Z</time>
      </trkpt>
      <trkpt lat="42.6751" lon="18.06444">
        <ele>40</ele>
        <time>2016-07-22T10:52:06Z</time>
      </trkpt>
      <trkpt lat="42.67496" lon="18.06466">
        <ele>41</ele>
        <time>2016-07-22T10:54:06Z</time>
      </trkpt>
      <trkpt lat="42.67451" lon="18.06527">
        <ele>40</ele>
        <time>2016-07-22T10:56:06Z</time>
      </trkpt>
      <trkpt lat="42.67429" lon="18.06557">
        <ele>40</ele>
        <time>2016-07-22T10:58:06Z</time>
      </trkpt>
      <trkpt lat="42.67421" lon="18.0657">
        <ele>40</ele>
        <time>2016-07-22T11:00:06Z</time>
      </trkpt>
      <trkpt lat="42.67416" lon="18.06578">
        <ele>40</ele>
        <time>2016-07-22T11:02:06Z</time>
      </trkpt>
      <trkpt lat="42.67409" lon="18.06591">
        <ele>41</ele>
        <time>2016-07-22T11:04:06Z</time>
      </trkpt>
      <trkpt lat="42.67402" lon="18.06607">
        <ele>41</ele>
        <time>2016-07-22T11:06:06Z</time>
      </trkpt>
      <trkpt lat="42.67396" lon="18.06619">
        <ele>42</ele>
        <time>2016-07-22T11:08:06Z</time>
      </trkpt>
      <trkpt lat="42.6739" lon="18.06636">
        <ele>42</ele>
        <time>2016-07-22T11:10:06Z</time>
      </trkpt>
      <trkpt lat="42.67388" lon="18.06645">
        <ele>42</ele>
        <time>2016-07-22T11:12:06Z</time>
      </trkpt>
      <trkpt lat="42.67384" lon="18.06658">
        <ele>42</ele>
        <time>2016-07-22T11:14:06Z</time>
      </trkpt>
      <trkpt lat="42.67381" lon="18.06676">
        <ele>43</ele>
        <time>2016-07-22T11:16:06Z</time>
      </trkpt>
      <trkpt lat="42.67378" lon="18.06696">
        <ele>42</ele>
        <time>2016-07-22T11:18:06Z</time>
      </trkpt>
      <trkpt lat="42.67378" lon="18.06708">
        <ele>43</ele>
        <time>2016-07-22T11:20:06Z</time>
      </trkpt>
      <trkpt lat="42.67376" lon="18.06729">
        <ele>43</ele>
        <time>2016-07-22T11:22:06Z</time>
      </trkpt>
      <trkpt lat="42.67376" lon="18.06759">
        <ele>44</ele>
        <time>2016-07-22T11:24:06Z</time>
      </trkpt>
      <trkpt lat="42.67378" lon="18.06812">
        <ele>46</ele>
        <time>2016-07-22T11:26:06Z</time>
      </trkpt>
      <trkpt lat="42.67378" lon="18.06835">
        <ele>46</ele>
        <time>2016-07-22T11:28:06Z</time>
      </trkpt>
      <trkpt lat="42.67378" lon="18.06852">
        <ele>47</ele>
        <time>2016-07-22T11:30:06Z</time>
      </trkpt>
      <trkpt lat="42.67376" lon="18.06867">
        <ele>47</ele>
        <time>2016-07-22T11:32:06Z</time>
      </trkpt>
      <trkpt lat="42.67374" lon="18.06881">
        <ele>47</ele>
        <time>2016-07-22T11:34:06Z</time>
      </trkpt>
      <trkpt lat="42.6737" lon="18.06896">
        <ele>46</ele>
        <time>2016-07-22T11:36:06Z</time>
      </trkpt>
      <trkpt lat="42.67367" lon="18.06908">
        <ele>45</ele>
        <time>2016-07-22T11:38:06Z</time>
      </trkpt>
      <trkpt lat="42.67362" lon="18.06922">
        <ele>45</ele>
        <time>2016-07-22T11:40:06Z</time>
      </trkpt>
      <trkpt lat="42.67355" lon="18.06936">
        <ele>46</ele>
        <time>2016-07-22T11:42:06Z</time>
      </trkpt>
      <trkpt lat="42.67347" lon="18.06947">
        <ele>46</ele>
        <time>2016-07-22T11:44:06Z</time>
      </trkpt>
      <trkpt lat="42.67337" lon="18.06958">
        <ele>46</ele>
        <time>2016-07-22T11:46:06Z</time>
      </trkpt>
      <trkpt lat="42.6733" lon="18.06966">
        <ele>47</ele>
        <time>2016-07-22T11:48:06Z</time>
      </trkpt>
      <trkpt lat="42.6732" lon="18.06974">
        <ele>48</ele>
        <time>2016-07-22T11:50:06Z</time>
      </trkpt>
      <trkpt lat="42.67309" lon="18.06981">
        <ele>49</ele>
        <time>2016-07-22T11:52:06Z</time>
      </trkpt>
      <trkpt lat="42.67293" lon="18.06988">
        <ele>49</ele>
        <time>2016-07-22T11:54:06Z</time>
      </trkpt>
      <trkpt lat="42.67282" lon="18.06992">
        <ele>49</ele>
        <time>2016-07-22T11:56:06Z</time>
      </trkpt>
      <trkpt lat="42.67257" lon="18.06997">
        <ele>49</ele>
        <time>2016-07-22T11:58:06Z</time>
      </trkpt>
      <trkpt lat="42.67216" lon="18.07006">
        <ele>48</ele>
        <time>2016-07-22T12:00:06Z</time>
      </trkpt>
      <trkpt lat="42.67191" lon="18.07012">
        <ele>48</ele>
        <time>2016-07-22T12:02:06Z</time>
      </trkpt>
      <trkpt lat="42.67177" lon="18.07015">
        <ele>48</ele>
        <time>2016-07-22T12:04:06Z</time>
      </trkpt>
      <trkpt lat="42.6716" lon="18.07021">
        <ele>47</ele>
        <time>2016-07-22T12:06:06Z</time>
      </trkpt>
      <trkpt lat="42.67149" lon="18.07025">
        <ele>46</ele>
        <time>2016-07-22T12:08:06Z</time>
      </trkpt>
      <trkpt lat="42.67137" lon="18.07032">
        <ele>46</ele>
        <time>2016-07-22T12:10:06Z</time>
      </trkpt>
      <trkpt lat="42.67127" lon="18.07038">
        <ele>46</ele>
        <time>2016-07-22T12:12:06Z</time>
      </trkpt>
      <trkpt lat="42.67113" lon="18.07049">
        <ele>46</ele>
        <time>2016-07-22T12:14:06Z</time>
      </trkpt>
      <trkpt lat="42.67101" lon="18.07059">
        <ele>45</ele>
        <time>2016-07-22T12:16:06Z</time>
      </trkpt>
      <trkpt lat="42.67088" lon="18.07073">
        <ele>46</ele>
        <time>2016-07-22T12:18:06Z</time>
      </trkpt>
      <trkpt lat="42.67077" lon="18.07087">
        <ele>46</ele>
        <time>2016-07-22T12:20:06Z</time>
      </trkpt>
      <trkpt lat="42.67069" lon="18.07099">
        <ele>46</ele>
        <time>2016-07-22T12:22:06Z</time>
      </trkpt>
      <trkpt lat="42.67058" lon="18.07118">
        <ele>46</ele>
        <time>2016-07-22T12:24:06Z</time>
      </trkpt>
      <trkpt lat="42.67047" lon="18.0714">
        <ele>47</ele>
        <time>2016-07-22T12:26:06Z</time>
      </trkpt>
      <trkpt lat="42.67024" lon="18.07195">
        <ele>48</ele>
        <time>2016-07-22T12:28:06Z</time>
      </trkpt>
      <trkpt lat="42.67011" lon="18.0723">
        <ele>49</ele>
        <time>2016-07-22T12:30:06Z</time>
      </trkpt>
      <trkpt lat="42.67001" lon="18.07257">
        <ele>50</ele>
        <time>2016-07-22T12:32:06Z</time>
      </trkpt>
      <trkpt lat="42.66995" lon="18.07275">
        <ele>49</ele>
        <time>2016-07-22T12:34:06Z</time>
      </trkpt>
      <trkpt lat="42.66991" lon="18.07291">
        <ele>50</ele>
        <time>2016-07-22T12:36:06Z</time>
      </trkpt>
      <trkpt lat="42.66988" lon="18.07306">
        <ele>51</ele>
        <time>2016-07-22T12:38:06Z</time>
      </trkpt>
      <trkpt lat="42.66986" lon="18.07318">
        <ele>53</ele>
        <time>2016-07-22T12:40:06Z</time>
      </trkpt>
      <trkpt lat="42.66984" lon="18.07334">
        <ele>55</ele>
        <time>2016-07-22T12:42:06Z</time>
      </trkpt>
      <trkpt lat="42.66983" lon="18.07348">
        <ele>54</ele>
        <time>2016-07-22T12:44:06Z</time>
      </trkpt>
      <trkpt lat="42.66983" lon="18.07364">
        <ele>54</ele>
        <time>2016-07-22T12:46:06Z</time>
      </trkpt>
      <trkpt lat="42.66983" lon="18.07384">
        <ele>53</ele>
        <time>2016-07-22T12:48:06Z</time>
      </trkpt>
      <trkpt lat="42.66985" lon="18.07403">
        <ele>54</ele>
        <time>2016-07-22T12:50:06Z</time>
      </trkpt>
      <trkpt lat="42.66988" lon="18.07422">
        <ele>54</ele>
        <time>2016-07-22T12:52:06Z</time>
      </trkpt>
      <trkpt lat="42.67" lon="18.07493">
        <ele>47</ele>
        <time>2016-07-22T12:54:06Z</time>
      </trkpt>
      <trkpt lat="42.67005" lon="18.07521">
        <ele>48</ele>
        <time>2016-07-22T12:56:06Z</time>
      </trkpt>
      <trkpt lat="42.67009" lon="18.07549">
        <ele>50</ele>
        <time>2016-07-22T12:58:06Z</time>
      </trkpt>
      <trkpt lat="42.67013" lon="18.07577">
        <ele>52</ele>
        <time>2016-07-22T13:00:06Z</time>
      </trkpt>
      <trkpt lat="42.67014" lon="18.07593">
        <ele>53</ele>
        <time>2016-07-22T13:02:06Z</time>
      </trkpt>
      <trkpt lat="42.67015" lon="18.07607">
        <ele>55</ele>
        <time>2016-07-22T13:04:06Z</time>
      </trkpt>
      <trkpt lat="42.67016" lon="18.07611">
        <ele>56</ele>
        <time>2016-07-22T13:06:06Z</time>
      </trkpt>
      <trkpt lat="42.67016" lon="18.07618">
        <ele>57</ele>
        <time>2016-07-22T13:08:06Z</time>
      </trkpt>
      <trkpt lat="42.67015" lon="18.07627">
        <ele>57</ele>
        <time>2016-07-22T13:10:06Z</time>
      </trkpt>
      <trkpt lat="42.67016" lon="18.07645">
        <ele>60</ele>
        <time>2016-07-22T13:12:06Z</time>
      </trkpt>
      <trkpt lat="42.67013" lon="18.07688">
        <ele>61</ele>
        <time>2016-07-22T13:14:06Z</time>
      </trkpt>
      <trkpt lat="42.66997" lon="18.07745">
        <ele>52</ele>
        <time>2016-07-22T13:16:06Z</time>
      </trkpt>
      <trkpt lat="42.66984" lon="18.07779">
        <ele>43</ele>
        <time>2016-07-22T13:18:06Z</time>
      </trkpt>
      <trkpt lat="42.66968" lon="18.07814">
        <ele>33</ele>
        <time>2016-07-22T13:20:06Z</time>
      </trkpt>
      <trkpt lat="42.66956" lon="18.07831">
        <ele>26</ele>
        <time>2016-07-22T13:22:06Z</time>
      </trkpt>
      <trkpt lat="42.66949" lon="18.0784">
        <ele>22</ele>
        <time>2016-07-22T13:24:06Z</time>
      </trkpt>
      <trkpt lat="42.66949" lon="18.0784">
        <ele>22</ele>
        <time>2016-07-22T13:26:06Z</time>
      </trkpt>
      <trkpt lat="42.66935" lon="18.07854">
        <ele>15</ele>
        <time>2016-07-22T13:28:06Z</time>
      </trkpt>
      <trkpt lat="42.66922" lon="18.07868">
        <ele>8</ele>
        <time>2016-07-22T13:30:06Z</time>
      </trkpt>
      <trkpt lat="42.6672" lon="18.08053">
        <ele>4</ele>
        <time>2016-07-22T13:32:06Z</time>
      </trkpt>
      <trkpt lat="42.667" lon="18.08069">
        <ele>9</ele>
        <time>2016-07-22T13:34:06Z</time>
      </trkpt>
      <trkpt lat="42.66692" lon="18.08076">
        <ele>11</ele>
        <time>2016-07-22T13:36:06Z</time>
      </trkpt>
      <trkpt lat="42.66681" lon="18.08085">
        <ele>15</ele>
        <time>2016-07-22T13:38:06Z</time>
      </trkpt>
      <trkpt lat="42.66653" lon="18.08107">
        <ele>26</ele>
        <time>2016-07-22T13:40:06Z</time>
      </trkpt>
      <trkpt lat="42.66634" lon="18.08122">
        <ele>32</ele>
        <time>2016-07-22T13:42:06Z</time>
      </trkpt>
      <trkpt lat="42.66618" lon="18.08137">
        <ele>37</ele>
        <time>2016-07-22T13:44:06Z</time>
      </trkpt>
      <trkpt lat="42.66618" lon="18.08137">
        <ele>37</ele>
        <time>2016-07-22T13:46:06Z</time>
      </trkpt>
      <trkpt lat="42.66631" lon="18.08153">
        <ele>42</ele>
        <time>2016-07-22T13:48:06Z</time>
      </trkpt>
      <trkpt lat="42.66633" lon="18.08154">
        <ele>42</ele>
        <time>2016-07-22T13:50:06Z</time>
      </trkpt>
      <trkpt lat="42.66651" lon="18.08166">
        <ele>45</ele>
        <time>2016-07-22T13:52:06Z</time>
      </trkpt>
      <trkpt lat="42.66657" lon="18.08171">
        <ele>46</ele>
        <time>2016-07-22T13:54:06Z</time>
      </trkpt>
      <trkpt lat="42.66664" lon="18.08179">
        <ele>47</ele>
        <time>2016-07-22T13:56:06Z</time>
      </trkpt>
      <trkpt lat="42.66669" lon="18.08189">
        <ele>48</ele>
        <time>2016-07-22T13:58:06Z</time>
      </trkpt>
      <trkpt lat="42.66676" lon="18.08199">
        <ele>46</ele>
        <time>2016-07-22T14:00:06Z</time>
      </trkpt>
      <trkpt lat="42.6668" lon="18.08209">
        <ele>45</ele>
        <time>2016-07-22T14:02:06Z</time>
      </trkpt>
      <trkpt lat="42.66685" lon="18.08226">
        <ele>46</ele>
        <time>2016-07-22T14:04:06Z</time>
      </trkpt>
      <trkpt lat="42.667" lon="18.08272">
        <ele>45</ele>
        <time>2016-07-22T14:06:06Z</time>
      </trkpt>
      <trkpt lat="42.66714" lon="18.08312">
        <ele>44</ele>
        <time>2016-07-22T14:08:06Z</time>
      </trkpt>
      <trkpt lat="42.6672" lon="18.0833">
        <ele>44</ele>
        <time>2016-07-22T14:10:06Z</time>
      </trkpt>
      <trkpt lat="42.66727" lon="18.08349">
        <ele>41</ele>
        <time>2016-07-22T14:12:06Z</time>
      </trkpt>
      <trkpt lat="42.66739" lon="18.08382">
        <ele>36</ele>
        <time>2016-07-22T14:14:06Z</time>
      </trkpt>
      <trkpt lat="42.66743" lon="18.08398">
        <ele>34</ele>
        <time>2016-07-22T14:16:06Z</time>
      </trkpt>
      <trkpt lat="42.66746" lon="18.08409">
        <ele>34</ele>
        <time>2016-07-22T14:18:06Z</time>
      </trkpt>
      <trkpt lat="42.66748" lon="18.08419">
        <ele>33</ele>
        <time>2016-07-22T14:20:06Z</time>
      </trkpt>
      <trkpt lat="42.66749" lon="18.08427">
        <ele>32</ele>
        <time>2016-07-22T14:22:06Z</time>
      </trkpt>
      <trkpt lat="42.6675" lon="18.08436">
        <ele>32</ele>
        <time>2016-07-22T14:24:06Z</time>
      </trkpt>
      <trkpt lat="42.6675" lon="18.08443">
        <ele>32</ele>
        <time>2016-07-22T14:26:06Z</time>
      </trkpt>
      <trkpt lat="42.6675" lon="18.08454">
        <ele>32</ele>
        <time>2016-07-22T14:28:06Z</time>
      </trkpt>
      <trkpt lat="42.6675" lon="18.08461">
        <ele>31</ele>
        <time>2016-07-22T14:30:06Z</time>
      </trkpt>
      <trkpt lat="42.6675" lon="18.08467">
        <ele>31</ele>
        <time>2016-07-22T14:32:06Z</time>
      </trkpt>
      <trkpt lat="42.66749" lon="18.08475">
        <ele>32</ele>
        <time>2016-07-22T14:34:06Z</time>
      </trkpt>
      <trkpt lat="42.66745" lon="18.08491">
        <ele>34</ele>
        <time>2016-07-22T14:36:06Z</time>
      </trkpt>
      <trkpt lat="42.66734" lon="18.08525">
        <ele>37</ele>
        <time>2016-07-22T14:38:06Z</time>
      </trkpt>
      <trkpt lat="42.6673" lon="18.0854">
        <ele>37</ele>
        <time>2016-07-22T14:40:06Z</time>
      </trkpt>
      <trkpt lat="42.66729" lon="18.08551">
        <ele>36</ele>
        <time>2016-07-22T14:42:06Z</time>
      </trkpt>
      <trkpt lat="42.66728" lon="18.08559">
        <ele>36</ele>
        <time>2016-07-22T14:44:06Z</time>
      </trkpt>
      <trkpt lat="42.66728" lon="18.0857">
        <ele>35</ele>
        <time>2016-07-22T14:46:06Z</time>
      </trkpt>
      <trkpt lat="42.66729" lon="18.08582">
        <ele>33</ele>
        <time>2016-07-22T14:48:06Z</time>
      </trkpt>
      <trkpt lat="42.66731" lon="18.08593">
        <ele>34</ele>
        <time>2016-07-22T14:50:06Z</time>
      </trkpt>
      <trkpt lat="42.66736" lon="18.08607">
        <ele>36</ele>
        <time>2016-07-22T14:52:06Z</time>
      </trkpt>
      <trkpt lat="42.6674" lon="18.08615">
        <ele>36</ele>
        <time>2016-07-22T14:54:06Z</time>
      </trkpt>
      <trkpt lat="42.66743" lon="18.08621">
        <ele>36</ele>
        <time>2016-07-22T14:56:06Z</time>
      </trkpt>
      <trkpt lat="42.6675" lon="18.08628">
        <ele>36</ele>
        <time>2016-07-22T14:58:06Z</time>
      </trkpt>
      <trkpt lat="42.66756" lon="18.08634">
        <ele>36</ele>
        <time>2016-07-22T15:00:06Z</time>
      </trkpt>
      <trkpt lat="42.66765" lon="18.0864">
        <ele>35</ele>
        <time>2016-07-22T15:02:06Z</time>
      </trkpt>
      <trkpt lat="42.66774" lon="18.08643">
        <ele>34</ele>
        <time>2016-07-22T15:04:06Z</time>
      </trkpt>
      <trkpt lat="42.66787" lon="18.08646">
        <ele>32</ele>
        <time>2016-07-22T15:06:06Z</time>
      </trkpt>
      <trkpt lat="42.66801" lon="18.08647">
        <ele>30</ele>
        <time>2016-07-22T15:08:06Z</time>
      </trkpt>
      <trkpt lat="42.66806" lon="18.08647">
        <ele>29</ele>
        <time>2016-07-22T15:10:06Z</time>
      </trkpt>
      <trkpt lat="42.66812" lon="18.08647">
        <ele>28</ele>
        <time>2016-07-22T15:12:06Z</time>
      </trkpt>
      <trkpt lat="42.66819" lon="18.08649">
        <ele>27</ele>
        <time>2016-07-22T15:14:06Z</time>
      </trkpt>
      <trkpt lat="42.66824" lon="18.0865">
        <ele>26</ele>
        <time>2016-07-22T15:16:06Z</time>
      </trkpt>
      <trkpt lat="42.66831" lon="18.08652">
        <ele>25</ele>
        <time>2016-07-22T15:18:06Z</time>
      </trkpt>
      <trkpt lat="42.66838" lon="18.08656">
        <ele>23</ele>
        <time>2016-07-22T15:20:06Z</time>
      </trkpt>
      <trkpt lat="42.66843" lon="18.0866">
        <ele>22</ele>
        <time>2016-07-22T15:22:06Z</time>
      </trkpt>
      <trkpt lat="42.66848" lon="18.08666">
        <ele>21</ele>
        <time>2016-07-22T15:24:06Z</time>
      </trkpt>
      <trkpt lat="42.66853" lon="18.08673">
        <ele>21</ele>
        <time>2016-07-22T15:26:06Z</time>
      </trkpt>
      <trkpt lat="42.66857" lon="18.0868">
        <ele>20</ele>
        <time>2016-07-22T15:28:06Z</time>
      </trkpt>
      <trkpt lat="42.66861" lon="18.08689">
        <ele>20</ele>
        <time>2016-07-22T15:30:06Z</time>
      </trkpt>
      <trkpt lat="42.66864" lon="18.08696">
        <ele>19</ele>
        <time>2016-07-22T15:32:06Z</time>
      </trkpt>
      <trkpt lat="42.66866" lon="18.08706">
        <ele>20</ele>
        <time>2016-07-22T15:34:06Z</time>
      </trkpt>
      <trkpt lat="42.66868" lon="18.08719">
        <ele>20</ele>
        <time>2016-07-22T15:36:06Z</time>
      </trkpt>
      <trkpt lat="42.66873" lon="18.08752">
        <ele>21</ele>
        <time>2016-07-22T15:38:06Z</time>
      </trkpt>
      <trkpt lat="42.66873" lon="18.08758">
        <ele>22</ele>
        <time>2016-07-22T15:40:06Z</time>
      </trkpt>
      <trkpt lat="42.66873" lon="18.08769">
        <ele>23</ele>
        <time>2016-07-22T15:42:06Z</time>
      </trkpt>
      <trkpt lat="42.66874" lon="18.08794">
        <ele>25</ele>
        <time>2016-07-22T15:44:06Z</time>
      </trkpt>
      <trkpt lat="42.66876" lon="18.08816">
        <ele>26</ele>
        <time>2016-07-22T15:46:06Z</time>
      </trkpt>
      <trkpt lat="42.66879" lon="18.0884">
        <ele>27</ele>
        <time>2016-07-22T15:48:06Z</time>
      </trkpt>
      <trkpt lat="42.66887" lon="18.08869">
        <ele>25</ele>
        <time>2016-07-22T15:50:06Z</time>
      </trkpt>
      <trkpt lat="42.66893" lon="18.08896">
        <ele>24</ele>
        <time>2016-07-22T15:52:06Z</time>
      </trkpt>
      <trkpt lat="42.66904" lon="18.08928">
        <ele>21</ele>
        <time>2016-07-22T15:54:06Z</time>
      </trkpt>
      <trkpt lat="42.66913" lon="18.08951">
        <ele>20</ele>
        <time>2016-07-22T15:56:06Z</time>
      </trkpt>
      <trkpt lat="42.66922" lon="18.08976">
        <ele>20</ele>
        <time>2016-07-22T15:58:06Z</time>
      </trkpt>
      <trkpt lat="42.66928" lon="18.08993">
        <ele>21</ele>
        <time>2016-07-22T16:00:06Z</time>
      </trkpt>
      <trkpt lat="42.66934" lon="18.09011">
        <ele>21</ele>
        <time>2016-07-22T16:02:06Z</time>
      </trkpt>
      <trkpt lat="42.66941" lon="18.0904">
        <ele>22</ele>
        <time>2016-07-22T16:04:06Z</time>
      </trkpt>
      <trkpt lat="42.66944" lon="18.09057">
        <ele>23</ele>
        <time>2016-07-22T16:06:06Z</time>
      </trkpt>
      <trkpt lat="42.66948" lon="18.09089">
        <ele>25</ele>
        <time>2016-07-22T16:08:06Z</time>
      </trkpt>
      <trkpt lat="42.66952" lon="18.09115">
        <ele>24</ele>
        <time>2016-07-22T16:10:06Z</time>
      </trkpt>
      <trkpt lat="42.66957" lon="18.09147">
        <ele>23</ele>
        <time>2016-07-22T16:12:06Z</time>
      </trkpt>
      <trkpt lat="42.66957" lon="18.09147">
        <ele>23</ele>
        <time>2016-07-22T16:14:06Z</time>
      </trkpt>
      <trkpt lat="42.66962" lon="18.09143">
        <ele>20</ele>
        <time>2016-07-22T16:16:06Z</time>
      </trkpt>
      <trkpt lat="42.66964" lon="18.09141">
        <ele>19</ele>
        <time>2016-07-22T16:18:06Z</time>
      </trkpt>
      <trkpt lat="42.66966" lon="18.09137">
        <ele>18</ele>
        <time>2016-07-22T16:20:06Z</time>
      </trkpt>
      <trkpt lat="42.66967" lon="18.09134">
        <ele>17</ele>
        <time>2016-07-22T16:22:06Z</time>
      </trkpt>
      <trkpt lat="42.66968" lon="18.0913">
        <ele>17</ele>
        <time>2016-07-22T16:24:06Z</time>
      </trkpt>
      <trkpt lat="42.66969" lon="18.09118">
        <ele>16</ele>
        <time>2016-07-22T16:26:06Z</time>
      </trkpt>
      <trkpt lat="42.66966" lon="18.09099">
        <ele>17</ele>
        <time>2016-07-22T16:28:06Z</time>
      </trkpt>
      <trkpt lat="42.66965" lon="18.09094">
        <ele>17</ele>
        <time>2016-07-22T16:30:06Z</time>
      </trkpt>
      <trkpt lat="42.6695" lon="18.09035">
        <ele>19</ele>
        <time>2016-07-22T16:32:06Z</time>
      </trkpt>
      <trkpt lat="42.6694" lon="18.08995">
        <ele>17</ele>
        <time>2016-07-22T16:34:06Z</time>
      </trkpt>
      <trkpt lat="42.66932" lon="18.08967">
        <ele>17</ele>
        <time>2016-07-22T16:36:06Z</time>
      </trkpt>
      <trkpt lat="42.66919" lon="18.08925">
        <ele>14</ele>
        <time>2016-07-22T16:38:06Z</time>
      </trkpt>
      <trkpt lat="42.66909" lon="18.08888">
        <ele>15</ele>
        <time>2016-07-22T16:40:06Z</time>
      </trkpt>
      <trkpt lat="42.66903" lon="18.08861">
        <ele>16</ele>
        <time>2016-07-22T16:42:06Z</time>
      </trkpt>
      <trkpt lat="42.669" lon="18.08847">
        <ele>17</ele>
        <time>2016-07-22T16:44:06Z</time>
      </trkpt>
      <trkpt lat="42.66899" lon="18.08836">
        <ele>17</ele>
        <time>2016-07-22T16:46:06Z</time>
      </trkpt>
      <trkpt lat="42.66897" lon="18.08826">
        <ele>17</ele>
        <time>2016-07-22T16:48:06Z</time>
      </trkpt>
      <trkpt lat="42.66896" lon="18.08812">
        <ele>16</ele>
        <time>2016-07-22T16:50:06Z</time>
      </trkpt>
      <trkpt lat="42.66895" lon="18.08798">
        <ele>15</ele>
        <time>2016-07-22T16:52:06Z</time>
      </trkpt>
      <trkpt lat="42.66895" lon="18.08785">
        <ele>14</ele>
        <time>2016-07-22T16:54:06Z</time>
      </trkpt>
      <trkpt lat="42.66895" lon="18.08771">
        <ele>13</ele>
        <time>2016-07-22T16:56:06Z</time>
      </trkpt>
      <trkpt lat="42.66897" lon="18.08732">
        <ele>10</ele>
        <time>2016-07-22T16:58:06Z</time>
      </trkpt>
      <trkpt lat="42.66903" lon="18.08663">
        <ele>4</ele>
        <time>2016-07-22T17:00:06Z</time>
      </trkpt>
      <trkpt lat="42.66903" lon="18.08654">
        <ele>4</ele>
        <time>2016-07-22T17:02:06Z</time>
      </trkpt>
      <trkpt lat="42.66903" lon="18.08646">
        <ele>4</ele>
        <time>2016-07-22T17:04:06Z</time>
      </trkpt>
      <trkpt lat="42.66902" lon="18.0864">
        <ele>4</ele>
        <time>2016-07-22T17:06:06Z</time>
      </trkpt>
      <trkpt lat="42.66901" lon="18.08635">
        <ele>4</ele>
        <time>2016-07-22T17:08:06Z</time>
      </trkpt>
      <trkpt lat="42.66899" lon="18.08627">
        <ele>4</ele>
        <time>2016-07-22T17:10:06Z</time>
      </trkpt>
      <trkpt lat="42.66896" lon="18.08621">
        <ele>5</ele>
        <time>2016-07-22T17:12:06Z</time>
      </trkpt>
      <trkpt lat="42.66891" lon="18.08613">
        <ele>6</ele>
        <time>2016-07-22T17:14:06Z</time>
      </trkpt>
      <trkpt lat="42.66884" lon="18.08606">
        <ele>7</ele>
        <time>2016-07-22T17:16:06Z</time>
      </trkpt>
      <trkpt lat="42.66859" lon="18.08587">
        <ele>11</ele>
        <time>2016-07-22T17:18:06Z</time>
      </trkpt>
      <trkpt lat="42.66844" lon="18.08575">
        <ele>12</ele>
        <time>2016-07-22T17:20:06Z</time>
      </trkpt>
      <trkpt lat="42.66835" lon="18.08565">
        <ele>13</ele>
        <time>2016-07-22T17:22:06Z</time>
      </trkpt>
      <trkpt lat="42.66829" lon="18.08557">
        <ele>13</ele>
        <time>2016-07-22T17:24:06Z</time>
      </trkpt>
      <trkpt lat="42.66823" lon="18.08546">
        <ele>13</ele>
        <time>2016-07-22T17:26:06Z</time>
      </trkpt>
      <trkpt lat="42.66816" lon="18.08534">
        <ele>14</ele>
        <time>2016-07-22T17:28:06Z</time>
      </trkpt>
      <trkpt lat="42.66814" lon="18.08529">
        <ele>14</ele>
        <time>2016-07-22T17:30:06Z</time>
      </trkpt>
      <trkpt lat="42.66808" lon="18.0851">
        <ele>14</ele>
        <time>2016-07-22T17:32:06Z</time>
      </trkpt>
      <trkpt lat="42.66803" lon="18.08494">
        <ele>15</ele>
        <time>2016-07-22T17:34:06Z</time>
      </trkpt>
      <trkpt lat="42.66797" lon="18.0847">
        <ele>16</ele>
        <time>2016-07-22T17:36:06Z</time>
      </trkpt>
      <trkpt lat="42.66776" lon="18.08392">
        <ele>21</ele>
        <time>2016-07-22T17:38:06Z</time>
      </trkpt>
      <trkpt lat="42.66763" lon="18.08345">
        <ele>22</ele>
        <time>2016-07-22T17:40:06Z</time>
      </trkpt>
      <trkpt lat="42.66741" lon="18.08262">
        <ele>20</ele>
        <time>2016-07-22T17:42:06Z</time>
      </trkpt>
      <trkpt lat="42.6672" lon="18.08181">
        <ele>20</ele>
        <time>2016-07-22T17:44:06Z</time>
      </trkpt>
      <trkpt lat="42.6672" lon="18.08181">
        <ele>20</ele>
        <time>2016-07-22T17:46:06Z</time>
      </trkpt>
      <trkpt lat="42.66705" lon="18.08123">
        <ele>17</ele>
        <time>2016-07-22T17:48:06Z</time>
      </trkpt>
      <trkpt lat="42.66703" lon="18.08113">
        <ele>16</ele>
        <time>2016-07-22T17:50:06Z</time>
      </trkpt>
      <trkpt lat="42.66697" lon="18.08092">
        <ele>13</ele>
        <time>2016-07-22T17:52:06Z</time>
      </trkpt>
      <trkpt lat="42.66693" lon="18.08078">
        <ele>12</ele>
        <time>2016-07-22T17:54:06Z</time>
      </trkpt>
      <trkpt lat="42.66692" lon="18.08076">
        <ele>11</ele>
        <time>2016-07-22T17:56:06Z</time>
      </trkpt>
      <trkpt lat="42.6669" lon="18.0807">
        <ele>11</ele>
        <time>2016-07-22T17:58:06Z</time>
      </trkpt>
      <trkpt lat="42.66683" lon="18.08057">
        <ele>10</ele>
        <time>2016-07-22T18:00:06Z</time>
      </trkpt>
      <trkpt lat="42.66678" lon="18.0805">
        <ele>10</ele>
        <time>2016-07-22T18:02:06Z</time>
      </trkpt>
      <trkpt lat="42.66674" lon="18.08046">
        <ele>9</ele>
        <time>2016-07-22T18:04:06Z</time>
      </trkpt>
      <trkpt lat="42.6667" lon="18.08044">
        <ele>10</ele>
        <time>2016-07-22T18:06:06Z</time>
      </trkpt>
      <trkpt lat="42.66665" lon="18.08043">
        <ele>10</ele>
        <time>2016-07-22T18:08:06Z</time>
      </trkpt>
      <trkpt lat="42.6666" lon="18.08042">
        <ele>10</ele>
        <time>2016-07-22T18:10:06Z</time>
      </trkpt>
      <trkpt lat="42.66653" lon="18.08044">
        <ele>11</ele>
        <time>2016-07-22T18:12:06Z</time>
      </trkpt>
      <trkpt lat="42.66653" lon="18.08044">
        <ele>11</ele>
        <time>2016-07-22T18:14:06Z</time>
      </trkpt>
      <trkpt lat="42.66627" lon="18.08056">
        <ele>14</ele>
        <time>2016-07-22T18:16:06Z</time>
      </trkpt>
      <trkpt lat="42.66623" lon="18.08058">
        <ele>15</ele>
        <time>2016-07-22T18:18:06Z</time>
      </trkpt>
      <trkpt lat="42.66617" lon="18.08059">
        <ele>16</ele>
        <time>2016-07-22T18:20:06Z</time>
      </trkpt>
      <trkpt lat="42.66611" lon="18.0806">
        <ele>16</ele>
        <time>2016-07-22T18:22:06Z</time>
      </trkpt>
      <trkpt lat="42.66578" lon="18.0806">
        <ele>17</ele>
        <time>2016-07-22T18:24:06Z</time>
      </trkpt>
      <trkpt lat="42.6657" lon="18.0806">
        <ele>16</ele>
        <time>2016-07-22T18:26:06Z</time>
      </trkpt>
      <trkpt lat="42.66563" lon="18.08058">
        <ele>15</ele>
        <time>2016-07-22T18:28:06Z</time>
      </trkpt>
      <trkpt lat="42.66552" lon="18.08053">
        <ele>13</ele>
        <time>2016-07-22T18:30:06Z</time>
      </trkpt>
      <trkpt lat="42.66542" lon="18.08049">
        <ele>12</ele>
        <time>2016-07-22T18:32:06Z</time>
      </trkpt>
      <trkpt lat="42.66538" lon="18.08049">
        <ele>12</ele>
        <time>2016-07-22T18:34:06Z</time>
      </trkpt>
      <trkpt lat="42.66534" lon="18.08049">
        <ele>12</ele>
        <time>2016-07-22T18:36:06Z</time>
      </trkpt>
      <trkpt lat="42.66529" lon="18.08051">
        <ele>11</ele>
        <time>2016-07-22T18:38:06Z</time>
      </trkpt>
      <trkpt lat="42.66523" lon="18.08055">
        <ele>11</ele>
        <time>2016-07-22T18:40:06Z</time>
      </trkpt>
      <trkpt lat="42.66516" lon="18.08061">
        <ele>10</ele>
        <time>2016-07-22T18:42:06Z</time>
      </trkpt>
      <trkpt lat="42.66509" lon="18.08068">
        <ele>10</ele>
        <time>2016-07-22T18:44:06Z</time>
      </trkpt>
      <trkpt lat="42.66498" lon="18.08079">
        <ele>8</ele>
        <time>2016-07-22T18:46:06Z</time>
      </trkpt>
      <trkpt lat="42.66488" lon="18.08093">
        <ele>8</ele>
        <time>2016-07-22T18:48:06Z</time>
      </trkpt>
      <trkpt lat="42.66467" lon="18.08124">
        <ele>8</ele>
        <time>2016-07-22T18:50:06Z</time>
      </trkpt>
      <trkpt lat="42.66431" lon="18.08193">
        <ele>8</ele>
        <time>2016-07-22T18:52:06Z</time>
      </trkpt>
      <trkpt lat="42.66409" lon="18.08232">
        <ele>7</ele>
        <time>2016-07-22T18:54:06Z</time>
      </trkpt>
      <trkpt lat="42.66407" lon="18.08235">
        <ele>7</ele>
        <time>2016-07-22T18:56:06Z</time>
      </trkpt>
      <trkpt lat="42.66384" lon="18.08269">
        <ele>8</ele>
        <time>2016-07-22T18:58:06Z</time>
      </trkpt>
      <trkpt lat="42.66363" lon="18.08302">
        <ele>7</ele>
        <time>2016-07-22T19:00:06Z</time>
      </trkpt>
      <trkpt lat="42.66361" lon="18.08305">
        <ele>7</ele>
        <time>2016-07-22T19:02:06Z</time>
      </trkpt>
      <trkpt lat="42.66351" lon="18.08322">
        <ele>6</ele>
        <time>2016-07-22T19:04:06Z</time>
      </trkpt>
      <trkpt lat="42.66336" lon="18.08345">
        <ele>4</ele>
        <time>2016-07-22T19:06:06Z</time>
      </trkpt>
      <trkpt lat="42.66332" lon="18.08349">
        <ele>4</ele>
        <time>2016-07-22T19:08:06Z</time>
      </trkpt>
      <trkpt lat="42.66318" lon="18.08362">
        <ele>6</ele>
        <time>2016-07-22T19:10:06Z</time>
      </trkpt>
      <trkpt lat="42.66315" lon="18.08365">
        <ele>6</ele>
        <time>2016-07-22T19:12:06Z</time>
      </trkpt>
      <trkpt lat="42.66304" lon="18.08374">
        <ele>7</ele>
        <time>2016-07-22T19:14:06Z</time>
      </trkpt>
      <trkpt lat="42.66289" lon="18.08387">
        <ele>7</ele>
        <time>2016-07-22T19:16:06Z</time>
      </trkpt>
      <trkpt lat="42.66266" lon="18.0841">
        <ele>5</ele>
        <time>2016-07-22T19:18:06Z</time>
      </trkpt>
      <trkpt lat="42.66254" lon="18.08422">
        <ele>4</ele>
        <time>2016-07-22T19:20:06Z</time>
      </trkpt>
      <trkpt lat="42.66242" lon="18.08436">
        <ele>5</ele>
        <time>2016-07-22T19:22:06Z</time>
      </trkpt>
      <trkpt lat="42.66222" lon="18.08465">
        <ele>7</ele>
        <time>2016-07-22T19:24:06Z</time>
      </trkpt>
      <trkpt lat="42.6622" lon="18.08468">
        <ele>7</ele>
        <time>2016-07-22T19:26:06Z</time>
      </trkpt>
      <trkpt lat="42.66195" lon="18.08496">
        <ele>7</ele>
        <time>2016-07-22T19:28:06Z</time>
      </trkpt>
      <trkpt lat="42.66145" lon="18.08535">
        <ele>9</ele>
        <time>2016-07-22T19:30:06Z</time>
      </trkpt>
      <trkpt lat="42.66125" lon="18.08548">
        <ele>10</ele>
        <time>2016-07-22T19:32:06Z</time>
      </trkpt>
      <trkpt lat="42.6612" lon="18.0855">
        <ele>10</ele>
        <time>2016-07-22T19:34:06Z</time>
      </trkpt>
      <trkpt lat="42.66117" lon="18.08551">
        <ele>10</ele>
        <time>2016-07-22T19:36:06Z</time>
      </trkpt>
      <trkpt lat="42.66115" lon="18.08551">
        <ele>10</ele>
        <time>2016-07-22T19:38:06Z</time>
      </trkpt>
      <trkpt lat="42.66108" lon="18.08549">
        <ele>10</ele>
        <time>2016-07-22T19:40:06Z</time>
      </trkpt>
      <trkpt lat="42.66108" lon="18.08548">
        <ele>10</ele>
        <time>2016-07-22T19:42:06Z</time>
      </trkpt>
      <trkpt lat="42.66108" lon="18.08547">
        <ele>10</ele>
        <time>2016-07-22T19:44:06Z</time>
      </trkpt>
      <trkpt lat="42.66107" lon="18.08547">
        <ele>10</ele>
        <time>2016-07-22T19:46:06Z</time>
      </trkpt>
      <trkpt lat="42.66107" lon="18.08546">
        <ele>10</ele>
        <time>2016-07-22T19:48:06Z</time>
      </trkpt>
      <trkpt lat="42.66107" lon="18.08545">
        <ele>10</ele>
        <time>2016-07-22T19:50:06Z</time>
      </trkpt>
      <trkpt lat="42.66107" lon="18.08544">
        <ele>10</ele>
        <time>2016-07-22T19:52:06Z</time>
      </trkpt>
      <trkpt lat="42.66106" lon="18.08543">
        <ele>10</ele>
        <time>2016-07-22T19:54:06Z</time>
      </trkpt>
      <trkpt lat="42.66106" lon="18.08542">
        <ele>9</ele>
        <time>2016-07-22T19:56:06Z</time>
      </trkpt>
      <trkpt lat="42.66106" lon="18.08541">
        <ele>9</ele>
        <time>2016-07-22T19:58:06Z</time>
      </trkpt>
      <trkpt lat="42.66105" lon="18.0854">
        <ele>9</ele>
        <time>2016-07-22T20:00:06Z</time>
      </trkpt>
      <trkpt lat="42.66104" lon="18.08539">
        <ele>9</ele>
        <time>2016-07-22T20:02:06Z</time>
      </trkpt>
      <trkpt lat="42.66104" lon="18.08538">
        <ele>9</ele>
        <time>2016-07-22T20:04:06Z</time>
      </trkpt>
      <trkpt lat="42.66103" lon="18.08538">
        <ele>9</ele>
        <time>2016-07-22T20:06:06Z</time>
      </trkpt>
      <trkpt lat="42.66103" lon="18.08537">
        <ele>9</ele>
        <time>2016-07-22T20:08:06Z</time>
      </trkpt>
      <trkpt lat="42.66102" lon="18.08536">
        <ele>9</ele>
        <time>2016-07-22T20:10:06Z</time>
      </trkpt>
      <trkpt lat="42.66101" lon="18.08536">
        <ele>9</ele>
        <time>2016-07-22T20:12:06Z</time>
      </trkpt>
      <trkpt lat="42.66101" lon="18.08535">
        <ele>9</ele>
        <time>2016-07-22T20:14:06Z</time>
      </trkpt>
      <trkpt lat="42.661" lon="18.08535">
        <ele>9</ele>
        <time>2016-07-22T20:16:06Z</time>
      </trkpt>
      <trkpt lat="42.66099" lon="18.08535">
        <ele>9</ele>
        <time>2016-07-22T20:18:06Z</time>
      </trkpt>
      <trkpt lat="42.66099" lon="18.08534">
        <ele>9</ele>
        <time>2016-07-22T20:20:06Z</time>
      </trkpt>
      <trkpt lat="42.66098" lon="18.08534">
        <ele>9</ele>
        <time>2016-07-22T20:22:06Z</time>
      </trkpt>
      <trkpt lat="42.66097" lon="18.08534">
        <ele>9</ele>
        <time>2016-07-22T20:24:06Z</time>
      </trkpt>
      <trkpt lat="42.66096" lon="18.08534">
        <ele>9</ele>
        <time>2016-07-22T20:26:06Z</time>
      </trkpt>
      <trkpt lat="42.66095" lon="18.08534">
        <ele>9</ele>
        <time>2016-07-22T20:28:06Z</time>
      </trkpt>
      <trkpt lat="42.66094" lon="18.08534">
        <ele>9</ele>
        <time>2016-07-22T20:30:06Z</time>
      </trkpt>
      <trkpt lat="42.66093" lon="18.08534">
        <ele>9</ele>
        <time>2016-07-22T20:32:06Z</time>
      </trkpt>
      <trkpt lat="42.66092" lon="18.08534">
        <ele>9</ele>
        <time>2016-07-22T20:34:06Z</time>
      </trkpt>
      <trkpt lat="42.66091" lon="18.08534">
        <ele>9</ele>
        <time>2016-07-22T20:36:06Z</time>
      </trkpt>
      <trkpt lat="42.66091" lon="18.08535">
        <ele>9</ele>
        <time>2016-07-22T20:38:06Z</time>
      </trkpt>
      <trkpt lat="42.6609" lon="18.08535">
        <ele>9</ele>
        <time>2016-07-22T20:40:06Z</time>
      </trkpt>
      <trkpt lat="42.66089" lon="18.08535">
        <ele>9</ele>
        <time>2016-07-22T20:42:06Z</time>
      </trkpt>
      <trkpt lat="42.66089" lon="18.08536">
        <ele>9</ele>
        <time>2016-07-22T20:44:06Z</time>
      </trkpt>
      <trkpt lat="42.66088" lon="18.08536">
        <ele>9</ele>
        <time>2016-07-22T20:46:06Z</time>
      </trkpt>
      <trkpt lat="42.66087" lon="18.08537">
        <ele>9</ele>
        <time>2016-07-22T20:48:06Z</time>
      </trkpt>
      <trkpt lat="42.66087" lon="18.08538">
        <ele>9</ele>
        <time>2016-07-22T20:50:06Z</time>
      </trkpt>
      <trkpt lat="42.66086" lon="18.08538">
        <ele>9</ele>
        <time>2016-07-22T20:52:06Z</time>
      </trkpt>
      <trkpt lat="42.66086" lon="18.08539">
        <ele>9</ele>
        <time>2016-07-22T20:54:06Z</time>
      </trkpt>
      <trkpt lat="42.66085" lon="18.0854">
        <ele>9</ele>
        <time>2016-07-22T20:56:06Z</time>
      </trkpt>
      <trkpt lat="42.66084" lon="18.08541">
        <ele>9</ele>
        <time>2016-07-22T20:58:06Z</time>
      </trkpt>
      <trkpt lat="42.66084" lon="18.08542">
        <ele>9</ele>
        <time>2016-07-22T21:00:06Z</time>
      </trkpt>
      <trkpt lat="42.66084" lon="18.08543">
        <ele>9</ele>
        <time>2016-07-22T21:02:06Z</time>
      </trkpt>
      <trkpt lat="42.66083" lon="18.08544">
        <ele>9</ele>
        <time>2016-07-22T21:04:06Z</time>
      </trkpt>
      <trkpt lat="42.66083" lon="18.08545">
        <ele>9</ele>
        <time>2016-07-22T21:06:06Z</time>
      </trkpt>
      <trkpt lat="42.66083" lon="18.08546">
        <ele>9</ele>
        <time>2016-07-22T21:08:06Z</time>
      </trkpt>
      <trkpt lat="42.66083" lon="18.08547">
        <ele>9</ele>
        <time>2016-07-22T21:10:06Z</time>
      </trkpt>
      <trkpt lat="42.66082" lon="18.08548">
        <ele>9</ele>
        <time>2016-07-22T21:12:06Z</time>
      </trkpt>
      <trkpt lat="42.66082" lon="18.08549">
        <ele>9</ele>
        <time>2016-07-22T21:14:06Z</time>
      </trkpt>
      <trkpt lat="42.66082" lon="18.0855">
        <ele>9</ele>
        <time>2016-07-22T21:16:06Z</time>
      </trkpt>
      <trkpt lat="42.66082" lon="18.08551">
        <ele>9</ele>
        <time>2016-07-22T21:18:06Z</time>
      </trkpt>
      <trkpt lat="42.66082" lon="18.08552">
        <ele>9</ele>
        <time>2016-07-22T21:20:06Z</time>
      </trkpt>
      <trkpt lat="42.66068" lon="18.08554">
        <ele>9</ele>
        <time>2016-07-22T21:22:06Z</time>
      </trkpt>
      <trkpt lat="42.66064" lon="18.08555">
        <ele>8</ele>
        <time>2016-07-22T21:24:06Z</time>
      </trkpt>
      <trkpt lat="42.66008" lon="18.08583">
        <ele>6</ele>
        <time>2016-07-22T21:26:06Z</time>
      </trkpt>
      <trkpt lat="42.65965" lon="18.08605">
        <ele>5</ele>
        <time>2016-07-22T21:28:06Z</time>
      </trkpt>
      <trkpt lat="42.65902" lon="18.08639">
        <ele>4</ele>
        <time>2016-07-22T21:30:06Z</time>
      </trkpt>
      <trkpt lat="42.65896" lon="18.08638">
        <ele>4</ele>
        <time>2016-07-22T21:32:06Z</time>
      </trkpt>
      <trkpt lat="42.65883" lon="18.08644">
        <ele>4</ele>
        <time>2016-07-22T21:34:06Z</time>
      </trkpt>
      <trkpt lat="42.65883" lon="18.08644">
        <ele>4</ele>
        <time>2016-07-22T21:36:06Z</time>
      </trkpt>
      <trkpt lat="42.65846" lon="18.08661">
        <ele>4</ele>
        <time>2016-07-22T21:38:06Z</time>
      </trkpt>
      <trkpt lat="42.65814" lon="18.08675">
        <ele>3</ele>
        <time>2016-07-22T21:40:06Z</time>
      </trkpt>
      <trkpt lat="42.65778" lon="18.08694">
        <ele>3</ele>
        <time>2016-07-22T21:42:06Z</time>
      </trkpt>
      <trkpt lat="42.6575" lon="18.08709">
        <ele>2</ele>
        <time>2016-07-22T21:44:06Z</time>
      </trkpt>
      <trkpt lat="42.65655" lon="18.0876">
        <ele>2</ele>
        <time>2016-07-22T21:46:06Z</time>
      </trkpt>
      <trkpt lat="42.65637" lon="18.08764">
        <ele>3</ele>
        <time>2016-07-22T21:48:06Z</time>
      </trkpt>
      <trkpt lat="42.65635" lon="18.08764">
        <ele>3</ele>
        <time>2016-07-22T21:50:06Z</time>
      </trkpt>
      <trkpt lat="42.65631" lon="18.08768">
        <ele>4</ele>
        <time>2016-07-22T21:52:06Z</time>
      </trkpt>
      <trkpt lat="42.65627" lon="18.08769">
        <ele>4</ele>
        <time>2016-07-22T21:54:06Z</time>
      </trkpt>
      <trkpt lat="42.6558" lon="18.08774">
        <ele>5</ele>
        <time>2016-07-22T21:56:06Z</time>
      </trkpt>
      <trkpt lat="42.65496" lon="18.08789">
        <ele>3</ele>
        <time>2016-07-22T21:58:06Z</time>
      </trkpt>
      <trkpt lat="42.65493" lon="18.0879">
        <ele>3</ele>
        <time>2016-07-22T22:00:06Z</time>
      </trkpt>
      <trkpt lat="42.65454" lon="18.08803">
        <ele>5</ele>
        <time>2016-07-22T22:02:06Z</time>
      </trkpt>
      <trkpt lat="42.65423" lon="18.08816">
        <ele>5</ele>
        <time>2016-07-22T22:04:06Z</time>
      </trkpt>
      <trkpt lat="42.65377" lon="18.08832">
        <ele>3</ele>
        <time>2016-07-22T22:06:06Z</time>
      </trkpt>
      <trkpt lat="42.6534" lon="18.08837">
        <ele>2</ele>
        <time>2016-07-22T22:08:06Z</time>
      </trkpt>
      <trkpt lat="42.65332" lon="18.08835">
        <ele>1</ele>
        <time>2016-07-22T22:10:06Z</time>
      </trkpt>
      <trkpt lat="42.65323" lon="18.08829">
        <ele>2</ele>
        <time>2016-07-22T22:12:06Z</time>
      </trkpt>
      <trkpt lat="42.6531" lon="18.08812">
        <ele>2</ele>
        <time>2016-07-22T22:14:06Z</time>
      </trkpt>
      <trkpt lat="42.65305" lon="18.08803">
        <ele>2</ele>
        <time>2016-07-22T22:16:06Z</time>
      </trkpt>
      <trkpt lat="42.65305" lon="18.08803">
        <ele>2</ele>
        <time>2016-07-22T22:18:06Z</time>
      </trkpt>
      <trkpt lat="42.65295" lon="18.08754">
        <ele>2</ele>
        <time>2016-07-22T22:20:06Z</time>
      </trkpt>
      <trkpt lat="42.65292" lon="18.08734">
        <ele>4</ele>
        <time>2016-07-22T22:22:06Z</time>
      </trkpt>
      <trkpt lat="42.65292" lon="18.08734">
        <ele>4</ele>
        <time>2016-07-22T22:24:06Z</time>
      </trkpt>
      <trkpt lat="42.65261" lon="18.08749">
        <ele>4</ele>
        <time>2016-07-22T22:26:06Z</time>
      </trkpt>
      <trkpt lat="42.65257" lon="18.08751">
        <ele>2</ele>
        <time>2016-07-22T22:28:06Z</time>
      </trkpt>
      <trkpt lat="42.65243" lon="18.08768">
        <ele>4</ele>
        <time>2016-07-22T22:30:06Z</time>
      </trkpt>
      <trkpt lat="42.65214" lon="18.08819">
        <ele>8</ele>
        <time>2016-07-22T22:32:06Z</time>
      </trkpt>
      <trkpt lat="42.65192" lon="18.0886">
        <ele>10</ele>
        <time>2016-07-22T22:34:06Z</time>
      </trkpt>
      <trkpt lat="42.65177" lon="18.08887">
        <ele>10</ele>
        <time>2016-07-22T22:36:06Z</time>
      </trkpt>
      <trkpt lat="42.65176" lon="18.08891">
        <ele>9</ele>
        <time>2016-07-22T22:38:06Z</time>
      </trkpt>
      <trkpt lat="42.65175" lon="18.08893">
        <ele>9</ele>
        <time>2016-07-22T22:40:06Z</time>
      </trkpt>
      <trkpt lat="42.65175" lon="18.08896">
        <ele>9</ele>
        <time>2016-07-22T22:42:06Z</time>
      </trkpt>
      <trkpt lat="42.65174" lon="18.08898">
        <ele>9</ele>
        <time>2016-07-22T22:44:06Z</time>
      </trkpt>
      <trkpt lat="42.65174" lon="18.08901">
        <ele>9</ele>
        <time>2016-07-22T22:46:06Z</time>
      </trkpt>
      <trkpt lat="42.65174" lon="18.08905">
        <ele>8</ele>
        <time>2016-07-22T22:48:06Z</time>
      </trkpt>
      <trkpt lat="42.65174" lon="18.08909">
        <ele>8</ele>
        <time>2016-07-22T22:50:06Z</time>
      </trkpt>
      <trkpt lat="42.65174" lon="18.08909">
        <ele>8</ele>
        <time>2016-07-22T22:52:06Z</time>
      </trkpt>
      <trkpt lat="42.6516" lon="18.08916">
        <ele>10</ele>
        <time>2016-07-22T22:54:06Z</time>
      </trkpt>
      <trkpt lat="42.65145" lon="18.08931">
        <ele>14</ele>
        <time>2016-07-22T22:56:06Z</time>
      </trkpt>
      <trkpt lat="42.65135" lon="18.08943">
        <ele>16</ele>
        <time>2016-07-22T22:58:06Z</time>
      </trkpt>
      <trkpt lat="42.65123" lon="18.08965">
        <ele>18</ele>
        <time>2016-07-22T23:00:06Z</time>
      </trkpt>
      <trkpt lat="42.65107" lon="18.09001">
        <ele>18</ele>
        <time>2016-07-22T23:02:06Z</time>
      </trkpt>
      <trkpt lat="42.65099" lon="18.09025">
        <ele>19</ele>
        <time>2016-07-22T23:04:06Z</time>
      </trkpt>
      <trkpt lat="42.65086" lon="18.09057">
        <ele>18</ele>
        <time>2016-07-22T23:06:06Z</time>
      </trkpt>
      <trkpt lat="42.65075" lon="18.09086">
        <ele>18</ele>
        <time>2016-07-22T23:08:06Z</time>
      </trkpt>
      <trkpt lat="42.65069" lon="18.09105">
        <ele>19</ele>
        <time>2016-07-22T23:10:06Z</time>
      </trkpt>
      <trkpt lat="42.65058" lon="18.09131">
        <ele>21</ele>
        <time>2016-07-22T23:12:06Z</time>
      </trkpt>
      <trkpt lat="42.65042" lon="18.09172">
        <ele>22</ele>
        <time>2016-07-22T23:14:06Z</time>
      </trkpt>
      <trkpt lat="42.65022" lon="18.09221">
        <ele>23</ele>
        <time>2016-07-22T23:16:06Z</time>
      </trkpt>
      <trkpt lat="42.65009" lon="18.09249">
        <ele>24</ele>
        <time>2016-07-22T23:18:06Z</time>
      </trkpt>
      <trkpt lat="42.65002" lon="18.0926">
        <ele>25</ele>
        <time>2016-07-22T23:20:06Z</time>
      </trkpt>
      <trkpt lat="42.64994" lon="18.09272">
        <ele>26</ele>
        <time>2016-07-22T23:22:06Z</time>
      </trkpt>
      <trkpt lat="42.64976" lon="18.09294">
        <ele>28</ele>
        <time>2016-07-22T23:24:06Z</time>
      </trkpt>
      <trkpt lat="42.64969" lon="18.09298">
        <ele>29</ele>
        <time>2016-07-22T23:26:06Z</time>
      </trkpt>
      <trkpt lat="42.64968" lon="18.093">
        <ele>29</ele>
        <time>2016-07-22T23:28:06Z</time>
      </trkpt>
      <trkpt lat="42.6493" lon="18.09317">
        <ele>33</ele>
        <time>2016-07-22T23:30:06Z</time>
      </trkpt>
      <trkpt lat="42.64914" lon="18.0932">
        <ele>35</ele>
        <time>2016-07-22T23:32:06Z</time>
      </trkpt>
      <trkpt lat="42.649" lon="18.09326">
        <ele>35</ele>
        <time>2016-07-22T23:34:06Z</time>
      </trkpt>
      <trkpt lat="42.64891" lon="18.0933">
        <ele>36</ele>
        <time>2016-07-22T23:36:06Z</time>
      </trkpt>
      <trkpt lat="42.64881" lon="18.09335">
        <ele>36</ele>
        <time>2016-07-22T23:38:06Z</time>
      </trkpt>
      <trkpt lat="42.64863" lon="18.09352">
        <ele>36</ele>
        <time>2016-07-22T23:40:06Z</time>
      </trkpt>
      <trkpt lat="42.64835" lon="18.09382">
        <ele>36</ele>
        <time>2016-07-22T23:42:06Z</time>
      </trkpt>
      <trkpt lat="42.64825" lon="18.09391">
        <ele>36</ele>
        <time>2016-07-22T23:44:06Z</time>
      </trkpt>
      <trkpt lat="42.64814" lon="18.094">
        <ele>37</ele>
        <time>2016-07-22T23:46:06Z</time>
      </trkpt>
      <trkpt lat="42.64785" lon="18.09417">
        <ele>39</ele>
        <time>2016-07-22T23:48:06Z</time>
      </trkpt>
      <trkpt lat="42.6475" lon="18.09437">
        <ele>44</ele>
        <time>2016-07-22T23:50:06Z</time>
      </trkpt>
      <trkpt lat="42.64728" lon="18.09449">
        <ele>42</ele>
        <time>2016-07-22T23:52:06Z</time>
      </trkpt>
      <trkpt lat="42.6472" lon="18.09453">
        <ele>42</ele>
        <time>2016-07-22T23:54:06Z</time>
      </trkpt>
      <trkpt lat="42.6472" lon="18.09453">
        <ele>42</ele>
        <time>2016-07-22T23:56:06Z</time>
      </trkpt>
      <trkpt lat="42.64719" lon="18.09458">
        <ele>42</ele>
        <time>2016-07-22T23:58:06Z</time>
      </trkpt>
      <trkpt lat="42.64719" lon="18.09462">
        <ele>41</ele>
        <time>2016-07-23T00:00:06Z</time>
      </trkpt>
      <trkpt lat="42.64719" lon="18.09465">
        <ele>41</ele>
        <time>2016-07-23T00:02:06Z</time>
      </trkpt>
      <trkpt lat="42.64719" lon="18.09467">
        <ele>41</ele>
        <time>2016-07-23T00:04:06Z</time>
      </trkpt>
      <trkpt lat="42.6472" lon="18.09471">
        <ele>41</ele>
        <time>2016-07-23T00:06:06Z</time>
      </trkpt>
      <trkpt lat="42.64721" lon="18.09474">
        <ele>41</ele>
        <time>2016-07-23T00:08:06Z</time>
      </trkpt>
      <trkpt lat="42.64723" lon="18.09478">
        <ele>42</ele>
        <time>2016-07-23T00:10:06Z</time>
      </trkpt>
      <trkpt lat="42.64726" lon="18.09482">
        <ele>42</ele>
        <time>2016-07-23T00:12:06Z</time>
      </trkpt>
      <trkpt lat="42.64726" lon="18.09482">
        <ele>42</ele>
        <time>2016-07-23T00:14:06Z</time>
      </trkpt>
      <trkpt lat="42.64802" lon="18.09444">
        <ele>36</ele>
        <time>2016-07-23T00:16:06Z</time>
      </trkpt>
      <trkpt lat="42.64825" lon="18.09426">
        <ele>34</ele>
        <time>2016-07-23T00:18:06Z</time>
      </trkpt>
      <trkpt lat="42.64841" lon="18.0941">
        <ele>33</ele>
        <time>2016-07-23T00:20:06Z</time>
      </trkpt>
      <trkpt lat="42.6485" lon="18.09403">
        <ele>33</ele>
        <time>2016-07-23T00:22:06Z</time>
      </trkpt>
      <trkpt lat="42.64856" lon="18.09398">
        <ele>33</ele>
        <time>2016-07-23T00:24:06Z</time>
      </trkpt>
      <trkpt lat="42.64868" lon="18.0939">
        <ele>33</ele>
        <time>2016-07-23T00:26:06Z</time>
      </trkpt>
      <trkpt lat="42.6488" lon="18.09386">
        <ele>32</ele>
        <time>2016-07-23T00:28:06Z</time>
      </trkpt>
      <trkpt lat="42.6488" lon="18.09386">
        <ele>32</ele>
        <time>2016-07-23T00:30:06Z</time>
      </trkpt>
      <trkpt lat="42.64893" lon="18.09389">
        <ele>31</ele>
        <time>2016-07-23T00:32:06Z</time>
      </trkpt>
      <trkpt lat="42.649" lon="18.09394">
        <ele>30</ele>
        <time>2016-07-23T00:34:06Z</time>
      </trkpt>
      <trkpt lat="42.64902" lon="18.09397">
        <ele>30</ele>
        <time>2016-07-23T00:36:06Z</time>
      </trkpt>
      <trkpt lat="42.64904" lon="18.09399">
        <ele>30</ele>
        <time>2016-07-23T00:38:06Z</time>
      </trkpt>
      <trkpt lat="42.64905" lon="18.09403">
        <ele>30</ele>
        <time>2016-07-23T00:40:06Z</time>
      </trkpt>
      <trkpt lat="42.64905" lon="18.09409">
        <ele>29</ele>
        <time>2016-07-23T00:42:06Z</time>
      </trkpt>
      <trkpt lat="42.64904" lon="18.09413">
        <ele>29</ele>
        <time>2016-07-23T00:44:06Z</time>
      </trkpt>
      <trkpt lat="42.64903" lon="18.09417">
        <ele>29</ele>
        <time>2016-07-23T00:46:06Z</time>
      </trkpt>
      <trkpt lat="42.64897" lon="18.09434">
        <ele>29</ele>
        <time>2016-07-23T00:48:06Z</time>
      </trkpt>
      <trkpt lat="42.6489" lon="18.09452">
        <ele>30</ele>
        <time>2016-07-23T00:50:06Z</time>
      </trkpt>
      <trkpt lat="42.64883" lon="18.09472">
        <ele>30</ele>
        <time>2016-07-23T00:52:06Z</time>
      </trkpt>
      <trkpt lat="42.64882" lon="18.0948">
        <ele>30</ele>
        <time>2016-07-23T00:54:06Z</time>
      </trkpt>
      <trkpt lat="42.6488" lon="18.09495">
        <ele>30</ele>
        <time>2016-07-23T00:56:06Z</time>
      </trkpt>
      <trkpt lat="42.6488" lon="18.09499">
        <ele>30</ele>
        <time>2016-07-23T00:58:06Z</time>
      </trkpt>
      <trkpt lat="42.64878" lon="18.09517">
        <ele>31</ele>
        <time>2016-07-23T01:00:06Z</time>
      </trkpt>
      <trkpt lat="42.64876" lon="18.09551">
        <ele>32</ele>
        <time>2016-07-23T01:02:06Z</time>
      </trkpt>
      <trkpt lat="42.64876" lon="18.09557">
        <ele>32</ele>
        <time>2016-07-23T01:04:06Z</time>
      </trkpt>
      <trkpt lat="42.64875" lon="18.09563">
        <ele>32</ele>
        <time>2016-07-23T01:06:06Z</time>
      </trkpt>
      <trkpt lat="42.64874" lon="18.09587">
        <ele>33</ele>
        <time>2016-07-23T01:08:06Z</time>
      </trkpt>
      <trkpt lat="42.6487" lon="18.09618">
        <ele>35</ele>
        <time>2016-07-23T01:10:06Z</time>
      </trkpt>
      <trkpt lat="42.64863" lon="18.09641">
        <ele>37</ele>
        <time>2016-07-23T01:12:06Z</time>
      </trkpt>
      <trkpt lat="42.64856" lon="18.09666">
        <ele>38</ele>
        <time>2016-07-23T01:14:06Z</time>
      </trkpt>
      <trkpt lat="42.6485" lon="18.09683">
        <ele>40</ele>
        <time>2016-07-23T01:16:06Z</time>
      </trkpt>
      <trkpt lat="42.64836" lon="18.09719">
        <ele>42</ele>
        <time>2016-07-23T01:18:06Z</time>
      </trkpt>
      <trkpt lat="42.64832" lon="18.09725">
        <ele>43</ele>
        <time>2016-07-23T01:20:06Z</time>
      </trkpt>
      <trkpt lat="42.64831" lon="18.09726">
        <ele>43</ele>
        <time>2016-07-23T01:22:06Z</time>
      </trkpt>
      <trkpt lat="42.64808" lon="18.09782">
        <ele>46</ele>
        <time>2016-07-23T01:24:06Z</time>
      </trkpt>
      <trkpt lat="42.64804" lon="18.0979">
        <ele>46</ele>
        <time>2016-07-23T01:26:06Z</time>
      </trkpt>
      <trkpt lat="42.64801" lon="18.09796">
        <ele>46</ele>
        <time>2016-07-23T01:28:06Z</time>
      </trkpt>
      <trkpt lat="42.64793" lon="18.09817">
        <ele>47</ele>
        <time>2016-07-23T01:30:06Z</time>
      </trkpt>
      <trkpt lat="42.64772" lon="18.09863">
        <ele>51</ele>
        <time>2016-07-23T01:32:06Z</time>
      </trkpt>
      <trkpt lat="42.64697" lon="18.10013">
        <ele>66</ele>
        <time>2016-07-23T01:34:06Z</time>
      </trkpt>
      <trkpt lat="42.64687" lon="18.10039">
        <ele>68</ele>
        <time>2016-07-23T01:36:06Z</time>
      </trkpt>
      <trkpt lat="42.64678" lon="18.10069">
        <ele>69</ele>
        <time>2016-07-23T01:38:06Z</time>
      </trkpt>
      <trkpt lat="42.6467" lon="18.10089">
        <ele>70</ele>
        <time>2016-07-23T01:40:06Z</time>
      </trkpt>
      <trkpt lat="42.64659" lon="18.10109">
        <ele>71</ele>
        <time>2016-07-23T01:42:06Z</time>
      </trkpt>
      <trkpt lat="42.64659" lon="18.10109">
        <ele>71</ele>
        <time>2016-07-23T01:44:06Z</time>
      </trkpt>
      <trkpt lat="42.64653" lon="18.10125">
        <ele>71</ele>
        <time>2016-07-23T01:46:06Z</time>
      </trkpt>
      <trkpt lat="42.64647" lon="18.1014">
        <ele>72</ele>
        <time>2016-07-23T01:48:06Z</time>
      </trkpt>
      <trkpt lat="42.64645" lon="18.10151">
        <ele>73</ele>
        <time>2016-07-23T01:50:06Z</time>
      </trkpt>
      <trkpt lat="42.64643" lon="18.10165">
        <ele>73</ele>
        <time>2016-07-23T01:52:06Z</time>
      </trkpt>
      <trkpt lat="42.64645" lon="18.10168">
        <ele>74</ele>
        <time>2016-07-23T01:54:06Z</time>
      </trkpt>
      <trkpt lat="42.64647" lon="18.10175">
        <ele>74</ele>
        <time>2016-07-23T01:56:06Z</time>
      </trkpt>
      <trkpt lat="42.64649" lon="18.10184">
        <ele>75</ele>
        <time>2016-07-23T01:58:06Z</time>
      </trkpt>
      <trkpt lat="42.64649" lon="18.10198">
        <ele>76</ele>
        <time>2016-07-23T02:00:06Z</time>
      </trkpt>
      <trkpt lat="42.64648" lon="18.10201">
        <ele>76</ele>
        <time>2016-07-23T02:02:06Z</time>
      </trkpt>
      <trkpt lat="42.64647" lon="18.10212">
        <ele>76</ele>
        <time>2016-07-23T02:04:06Z</time>
      </trkpt>
      <trkpt lat="42.64646" lon="18.10229">
        <ele>77</ele>
        <time>2016-07-23T02:06:06Z</time>
      </trkpt>
      <trkpt lat="42.64645" lon="18.10251">
        <ele>79</ele>
        <time>2016-07-23T02:08:06Z</time>
      </trkpt>
      <trkpt lat="42.64644" lon="18.10264">
        <ele>80</ele>
        <time>2016-07-23T02:10:06Z</time>
      </trkpt>
      <trkpt lat="42.64643" lon="18.10273">
        <ele>81</ele>
        <time>2016-07-23T02:12:06Z</time>
      </trkpt>
      <trkpt lat="42.64647" lon="18.10275">
        <ele>81</ele>
        <time>2016-07-23T02:14:06Z</time>
      </trkpt>
      <trkpt lat="42.64644" lon="18.10294">
        <ele>83</ele>
        <time>2016-07-23T02:16:06Z</time>
      </trkpt>
      <trkpt lat="42.64642" lon="18.10306">
        <ele>84</ele>
        <time>2016-07-23T02:18:06Z</time>
      </trkpt>
      <trkpt lat="42.64639" lon="18.10326">
        <ele>85</ele>
        <time>2016-07-23T02:20:06Z</time>
      </trkpt>
      <trkpt lat="42.64624" lon="18.10395">
        <ele>89</ele>
        <time>2016-07-23T02:22:06Z</time>
      </trkpt>
      <trkpt lat="42.64618" lon="18.10393">
        <ele>88</ele>
        <time>2016-07-23T02:24:06Z</time>
      </trkpt>
      <trkpt lat="42.64623" lon="18.10395">
        <ele>89</ele>
        <time>2016-07-23T02:26:06Z</time>
      </trkpt>
      <trkpt lat="42.64615" lon="18.1043">
        <ele>91</ele>
        <time>2016-07-23T02:28:06Z</time>
      </trkpt>
      <trkpt lat="42.64607" lon="18.10464">
        <ele>92</ele>
        <time>2016-07-23T02:30:06Z</time>
      </trkpt>
      <trkpt lat="42.64603" lon="18.10483">
        <ele>93</ele>
        <time>2016-07-23T02:32:06Z</time>
      </trkpt>
      <trkpt lat="42.64603" lon="18.10484">
        <ele>93</ele>
        <time>2016-07-23T02:34:06Z</time>
      </trkpt>
      <trkpt lat="42.64598" lon="18.10507">
        <ele>95</ele>
        <time>2016-07-23T02:36:06Z</time>
      </trkpt>
      <trkpt lat="42.64595" lon="18.10522">
        <ele>96</ele>
        <time>2016-07-23T02:38:06Z</time>
      </trkpt>
      <trkpt lat="42.64595" lon="18.10522">
        <ele>96</ele>
        <time>2016-07-23T02:40:06Z</time>
      </trkpt>
      <trkpt lat="42.64584" lon="18.10534">
        <ele>95</ele>
        <time>2016-07-23T02:42:06Z</time>
      </trkpt>
      <trkpt lat="42.64584" lon="18.10534">
        <ele>95</ele>
        <time>2016-07-23T02:44:06Z</time>
      </trkpt>
      <trkpt lat="42.64574" lon="18.10562">
        <ele>97</ele>
        <time>2016-07-23T02:46:06Z</time>
      </trkpt>
      <trkpt lat="42.64566" lon="18.106">
        <ele>99</ele>
        <time>2016-07-23T02:48:06Z</time>
      </trkpt>
      <trkpt lat="42.64554" lon="18.1065">
        <ele>101</ele>
        <time>2016-07-23T02:50:06Z</time>
      </trkpt>
      <trkpt lat="42.64542" lon="18.107">
        <ele>100</ele>
        <time>2016-07-23T02:52:06Z</time>
      </trkpt>
      <trkpt lat="42.64533" lon="18.10735">
        <ele>99</ele>
        <time>2016-07-23T02:54:06Z</time>
      </trkpt>
      <trkpt lat="42.64529" lon="18.10758">
        <ele>99</ele>
        <time>2016-07-23T02:56:06Z</time>
      </trkpt>
      <trkpt lat="42.64527" lon="18.10778">
        <ele>101</ele>
        <time>2016-07-23T02:58:06Z</time>
      </trkpt>
      <trkpt lat="42.64525" lon="18.10826">
        <ele>107</ele>
        <time>2016-07-23T03:00:06Z</time>
      </trkpt>
      <trkpt lat="42.64524" lon="18.10882">
        <ele>112</ele>
        <time>2016-07-23T03:02:06Z</time>
      </trkpt>
      <trkpt lat="42.64529" lon="18.10882">
        <ele>115</ele>
        <time>2016-07-23T03:04:06Z</time>
      </trkpt>
      <trkpt lat="42.64525" lon="18.10891">
        <ele>114</ele>
        <time>2016-07-23T03:06:06Z</time>
      </trkpt>
      <trkpt lat="42.64526" lon="18.10913">
        <ele>116</ele>
        <time>2016-07-23T03:08:06Z</time>
      </trkpt>
      <trkpt lat="42.64526" lon="18.10913">
        <ele>116</ele>
        <time>2016-07-23T03:10:06Z</time>
      </trkpt>
      <trkpt lat="42.64524" lon="18.10929">
        <ele>116</ele>
        <time>2016-07-23T03:12:06Z</time>
      </trkpt>
      <trkpt lat="42.64523" lon="18.10945">
        <ele>116</ele>
        <time>2016-07-23T03:14:06Z</time>
      </trkpt>
      <trkpt lat="42.64523" lon="18.10972">
        <ele>116</ele>
        <time>2016-07-23T03:16:06Z</time>
      </trkpt>
      <trkpt lat="42.64524" lon="18.11008">
        <ele>118</ele>
        <time>2016-07-23T03:18:06Z</time>
      </trkpt>
      <trkpt lat="42.64528" lon="18.1102">
        <ele>121</ele>
        <time>2016-07-23T03:20:06Z</time>
      </trkpt>
      <trkpt lat="42.64526" lon="18.11052">
        <ele>121</ele>
        <time>2016-07-23T03:22:06Z</time>
      </trkpt>
      <trkpt lat="42.64525" lon="18.11064">
        <ele>121</ele>
        <time>2016-07-23T03:24:06Z</time>
      </trkpt>
      <trkpt lat="42.6451" lon="18.11187">
        <ele>124</ele>
        <time>2016-07-23T03:26:06Z</time>
      </trkpt>
      <trkpt lat="42.64506" lon="18.11224">
        <ele>125</ele>
        <time>2016-07-23T03:28:06Z</time>
      </trkpt>
      <trkpt lat="42.645" lon="18.1129">
        <ele>127</ele>
        <time>2016-07-23T03:30:06Z</time>
      </trkpt>
      <trkpt lat="42.64493" lon="18.11408">
        <ele>132</ele>
        <time>2016-07-23T03:32:06Z</time>
      </trkpt>
      <trkpt lat="42.64486" lon="18.11491">
        <ele>139</ele>
        <time>2016-07-23T03:34:06Z</time>
      </trkpt>
      <trkpt lat="42.64483" lon="18.1152">
        <ele>141</ele>
        <time>2016-07-23T03:36:06Z</time>
      </trkpt>
      <trkpt lat="42.64482" lon="18.11527">
        <ele>141</ele>
        <time>2016-07-23T03:38:06Z</time>
      </trkpt>
      <trkpt lat="42.64475" lon="18.11573">
        <ele>143</ele>
        <time>2016-07-23T03:40:06Z</time>
      </trkpt>
      <trkpt lat="42.64471" lon="18.11595">
        <ele>144</ele>
        <time>2016-07-23T03:42:06Z</time>
      </trkpt>
      <trkpt lat="42.64466" lon="18.11616">
        <ele>144</ele>
        <time>2016-07-23T03:44:06Z</time>
      </trkpt>
      <trkpt lat="42.64457" lon="18.11651">
        <ele>144</ele>
        <time>2016-07-23T03:46:06Z</time>
      </trkpt>
      <trkpt lat="42.64443" lon="18.11704">
        <ele>145</ele>
        <time>2016-07-23T03:48:06Z</time>
      </trkpt>
      <trkpt lat="42.6442" lon="18.11781">
        <ele>147</ele>
        <time>2016-07-23T03:50:06Z</time>
      </trkpt>
      <trkpt lat="42.644" lon="18.11842">
        <ele>153</ele>
        <time>2016-07-23T03:52:06Z</time>
      </trkpt>
      <trkpt lat="42.6439" lon="18.11867">
        <ele>154</ele>
        <time>2016-07-23T03:54:06Z</time>
      </trkpt>
      <trkpt lat="42.64358" lon="18.11936">
        <ele>154</ele>
        <time>2016-07-23T03:56:06Z</time>
      </trkpt>
      <trkpt lat="42.64333" lon="18.11987">
        <ele>156</ele>
        <time>2016-07-23T03:58:06Z</time>
      </trkpt>
      <trkpt lat="42.64296" lon="18.12062">
        <ele>158</ele>
        <time>2016-07-23T04:00:06Z</time>
      </trkpt>
      <trkpt lat="42.64284" lon="18.12088">
        <ele>157</ele>
        <time>2016-07-23T04:02:06Z</time>
      </trkpt>
      <trkpt lat="42.64268" lon="18.12129">
        <ele>157</ele>
        <time>2016-07-23T04:04:06Z</time>
      </trkpt>
      <trkpt lat="42.64229" lon="18.12237">
        <ele>158</ele>
        <time>2016-07-23T04:06:06Z</time>
      </trkpt>
      <trkpt lat="42.64216" lon="18.12273">
        <ele>159</ele>
        <time>2016-07-23T04:08:06Z</time>
      </trkpt>
      <trkpt lat="42.64205" lon="18.12302">
        <ele>158</ele>
        <time>2016-07-23T04:10:06Z</time>
      </trkpt>
      <trkpt lat="42.64185" lon="18.12369">
        <ele>160</ele>
        <time>2016-07-23T04:12:06Z</time>
      </trkpt>
      <trkpt lat="42.64179" lon="18.12399">
        <ele>164</ele>
        <time>2016-07-23T04:14:06Z</time>
      </trkpt>
      <trkpt lat="42.64171" lon="18.12437">
        <ele>166</ele>
        <time>2016-07-23T04:16:06Z</time>
      </trkpt>
      <trkpt lat="42.6417" lon="18.12442">
        <ele>166</ele>
        <time>2016-07-23T04:18:06Z</time>
      </trkpt>
      <trkpt lat="42.64163" lon="18.1248">
        <ele>168</ele>
        <time>2016-07-23T04:20:06Z</time>
      </trkpt>
      <trkpt lat="42.64158" lon="18.12516">
        <ele>170</ele>
        <time>2016-07-23T04:22:06Z</time>
      </trkpt>
      <trkpt lat="42.64155" lon="18.12546">
        <ele>171</ele>
        <time>2016-07-23T04:24:06Z</time>
      </trkpt>
      <trkpt lat="42.64155" lon="18.12563">
        <ele>173</ele>
        <time>2016-07-23T04:26:06Z</time>
      </trkpt>
      <trkpt lat="42.64155" lon="18.12628">
        <ele>179</ele>
        <time>2016-07-23T04:28:06Z</time>
      </trkpt>
      <trkpt lat="42.64153" lon="18.12655">
        <ele>180</ele>
        <time>2016-07-23T04:30:06Z</time>
      </trkpt>
      <trkpt lat="42.64151" lon="18.12671">
        <ele>180</ele>
        <time>2016-07-23T04:32:06Z</time>
      </trkpt>
      <trkpt lat="42.64149" lon="18.12685">
        <ele>181</ele>
        <time>2016-07-23T04:34:06Z</time>
      </trkpt>
      <trkpt lat="42.64143" lon="18.1271">
        <ele>182</ele>
        <time>2016-07-23T04:36:06Z</time>
      </trkpt>
      <trkpt lat="42.64135" lon="18.1274">
        <ele>182</ele>
        <time>2016-07-23T04:38:06Z</time>
      </trkpt>
      <trkpt lat="42.64123" lon="18.1277">
        <ele>182</ele>
        <time>2016-07-23T04:40:06Z</time>
      </trkpt>
      <trkpt lat="42.64109" lon="18.12799">
        <ele>183</ele>
        <time>2016-07-23T04:42:06Z</time>
      </trkpt>
      <trkpt lat="42.64083" lon="18.1284">
        <ele>184</ele>
        <time>2016-07-23T04:44:06Z</time>
      </trkpt>
      <trkpt lat="42.64069" lon="18.12862">
        <ele>185</ele>
        <time>2016-07-23T04:46:06Z</time>
      </trkpt>
      <trkpt lat="42.64044" lon="18.12894">
        <ele>185</ele>
        <time>2016-07-23T04:48:06Z</time>
      </trkpt>
      <trkpt lat="42.64004" lon="18.12952">
        <ele>189</ele>
        <time>2016-07-23T04:50:06Z</time>
      </trkpt>
      <trkpt lat="42.63968" lon="18.12999">
        <ele>188</ele>
        <time>2016-07-23T04:52:06Z</time>
      </trkpt>
      <trkpt lat="42.63935" lon="18.13038">
        <ele>189</ele>
        <time>2016-07-23T04:54:06Z</time>
      </trkpt>
      <trkpt lat="42.63904" lon="18.13073">
        <ele>191</ele>
        <time>2016-07-23T04:56:06Z</time>
      </trkpt>
      <trkpt lat="42.63894" lon="18.13085">
        <ele>190</ele>
        <time>2016-07-23T04:58:06Z</time>
      </trkpt>
      <trkpt lat="42.63858" lon="18.13127">
        <ele>183</ele>
        <time>2016-07-23T05:00:06Z</time>
      </trkpt>
      <trkpt lat="42.63844" lon="18.13147">
        <ele>184</ele>
        <time>2016-07-23T05:02:06Z</time>
      </trkpt>
      <trkpt lat="42.63833" lon="18.13169">
        <ele>186</ele>
        <time>2016-07-23T05:04:06Z</time>
      </trkpt>
      <trkpt lat="42.63826" lon="18.13188">
        <ele>187</ele>
        <time>2016-07-23T05:06:06Z</time>
      </trkpt>
      <trkpt lat="42.63821" lon="18.13207">
        <ele>188</ele>
        <time>2016-07-23T05:08:06Z</time>
      </trkpt>
      <trkpt lat="42.63816" lon="18.13224">
        <ele>189</ele>
        <time>2016-07-23T05:10:06Z</time>
      </trkpt>
      <trkpt lat="42.63816" lon="18.13224">
        <ele>189</ele>
        <time>2016-07-23T05:12:06Z</time>
      </trkpt>
      <trkpt lat="42.63802" lon="18.13285">
        <ele>195</ele>
        <time>2016-07-23T05:14:06Z</time>
      </trkpt>
      <trkpt lat="42.63793" lon="18.1332">
        <ele>199</ele>
        <time>2016-07-23T05:16:06Z</time>
      </trkpt>
      <trkpt lat="42.63784" lon="18.13343">
        <ele>200</ele>
        <time>2016-07-23T05:18:06Z</time>
      </trkpt>
      <trkpt lat="42.6378" lon="18.1335">
        <ele>200</ele>
        <time>2016-07-23T05:20:06Z</time>
      </trkpt>
      <trkpt lat="42.63769" lon="18.13371">
        <ele>202</ele>
        <time>2016-07-23T05:22:06Z</time>
      </trkpt>
      <trkpt lat="42.63752" lon="18.13395">
        <ele>202</ele>
        <time>2016-07-23T05:24:06Z</time>
      </trkpt>
      <trkpt lat="42.63742" lon="18.13407">
        <ele>202</ele>
        <time>2016-07-23T05:26:06Z</time>
      </trkpt>
      <trkpt lat="42.63728" lon="18.13424">
        <ele>202</ele>
        <time>2016-07-23T05:28:06Z</time>
      </trkpt>
      <trkpt lat="42.63719" lon="18.13432">
        <ele>202</ele>
        <time>2016-07-23T05:30:06Z</time>
      </trkpt>
      <trkpt lat="42.63688" lon="18.13452">
        <ele>196</ele>
        <time>2016-07-23T05:32:06Z</time>
      </trkpt>
      <trkpt lat="42.63655" lon="18.13469">
        <ele>190</ele>
        <time>2016-07-23T05:34:06Z</time>
      </trkpt>
      <trkpt lat="42.63635" lon="18.1348">
        <ele>189</ele>
        <time>2016-07-23T05:36:06Z</time>
      </trkpt>
      <trkpt lat="42.63617" lon="18.13494">
        <ele>192</ele>
        <time>2016-07-23T05:38:06Z</time>
      </trkpt>
      <trkpt lat="42.63606" lon="18.13505">
        <ele>194</ele>
        <time>2016-07-23T05:40:06Z</time>
      </trkpt>
      <trkpt lat="42.63589" lon="18.1352">
        <ele>196</ele>
        <time>2016-07-23T05:42:06Z</time>
      </trkpt>
      <trkpt lat="42.63554" lon="18.13557">
        <ele>203</ele>
        <time>2016-07-23T05:44:06Z</time>
      </trkpt>
      <trkpt lat="42.63533" lon="18.13577">
        <ele>205</ele>
        <time>2016-07-23T05:46:06Z</time>
      </trkpt>
      <trkpt lat="42.63511" lon="18.13594">
        <ele>204</ele>
        <time>2016-07-23T05:48:06Z</time>
      </trkpt>
      <trkpt lat="42.63489" lon="18.1361">
        <ele>203</ele>
        <time>2016-07-23T05:50:06Z</time>
      </trkpt>
      <trkpt lat="42.63447" lon="18.13635">
        <ele>195</ele>
        <time>2016-07-23T05:52:06Z</time>
      </trkpt>
      <trkpt lat="42.63425" lon="18.13648">
        <ele>189</ele>
        <time>2016-07-23T05:54:06Z</time>
      </trkpt>
      <trkpt lat="42.63406" lon="18.13658">
        <ele>185</ele>
        <time>2016-07-23T05:56:06Z</time>
      </trkpt>
      <trkpt lat="42.63394" lon="18.13667">
        <ele>183</ele>
        <time>2016-07-23T05:58:06Z</time>
      </trkpt>
      <trkpt lat="42.6338" lon="18.1368">
        <ele>184</ele>
        <time>2016-07-23T06:00:06Z</time>
      </trkpt>
      <trkpt lat="42.63371" lon="18.1369">
        <ele>185</ele>
        <time>2016-07-23T06:02:06Z</time>
      </trkpt>
      <trkpt lat="42.63357" lon="18.13708">
        <ele>188</ele>
        <time>2016-07-23T06:04:06Z</time>
      </trkpt>
      <trkpt lat="42.63355" lon="18.13711">
        <ele>188</ele>
        <time>2016-07-23T06:06:06Z</time>
      </trkpt>
      <trkpt lat="42.63353" lon="18.13714">
        <ele>189</ele>
        <time>2016-07-23T06:08:06Z</time>
      </trkpt>
      <trkpt lat="42.63337" lon="18.13744">
        <ele>194</ele>
        <time>2016-07-23T06:10:06Z</time>
      </trkpt>
      <trkpt lat="42.63329" lon="18.13773">
        <ele>204</ele>
        <time>2016-07-23T06:12:06Z</time>
      </trkpt>
      <trkpt lat="42.63324" lon="18.1381">
        <ele>204</ele>
        <time>2016-07-23T06:14:06Z</time>
      </trkpt>
      <trkpt lat="42.63322" lon="18.1384">
        <ele>212</ele>
        <time>2016-07-23T06:16:06Z</time>
      </trkpt>
      <trkpt lat="42.63322" lon="18.13865">
        <ele>212</ele>
        <time>2016-07-23T06:18:06Z</time>
      </trkpt>
      <trkpt lat="42.63324" lon="18.13917">
        <ele>212</ele>
        <time>2016-07-23T06:20:06Z</time>
      </trkpt>
      <trkpt lat="42.63324" lon="18.13921">
        <ele>212</ele>
        <time>2016-07-23T06:22:06Z</time>
      </trkpt>
      <trkpt lat="42.63345" lon="18.14025">
        <ele>233</ele>
        <time>2016-07-23T06:24:06Z</time>
      </trkpt>
      <trkpt lat="42.63368" lon="18.14134">
        <ele>203</ele>
        <time>2016-07-23T06:26:06Z</time>
      </trkpt>
      <trkpt lat="42.63364" lon="18.14137">
        <ele>203</ele>
        <time>2016-07-23T06:28:06Z</time>
      </trkpt>
      <trkpt lat="42.63368" lon="18.14135">
        <ele>203</ele>
        <time>2016-07-23T06:30:06Z</time>
      </trkpt>
      <trkpt lat="42.63369" lon="18.14143">
        <ele>203</ele>
        <time>2016-07-23T06:32:06Z</time>
      </trkpt>
      <trkpt lat="42.6337" lon="18.14155">
        <ele>203</ele>
        <time>2016-07-23T06:34:06Z</time>
      </trkpt>
      <trkpt lat="42.63369" lon="18.14167">
        <ele>186</ele>
        <time>2016-07-23T06:36:06Z</time>
      </trkpt>
      <trkpt lat="42.63367" lon="18.14178">
        <ele>185</ele>
        <time>2016-07-23T06:38:06Z</time>
      </trkpt>
      <trkpt lat="42.63363" lon="18.14195">
        <ele>184</ele>
        <time>2016-07-23T06:40:06Z</time>
      </trkpt>
      <trkpt lat="42.63358" lon="18.14208">
        <ele>181</ele>
        <time>2016-07-23T06:42:06Z</time>
      </trkpt>
      <trkpt lat="42.63353" lon="18.14225">
        <ele>179</ele>
        <time>2016-07-23T06:44:06Z</time>
      </trkpt>
      <trkpt lat="42.63344" lon="18.14251">
        <ele>174</ele>
        <time>2016-07-23T06:46:06Z</time>
      </trkpt>
      <trkpt lat="42.6334" lon="18.14263">
        <ele>174</ele>
        <time>2016-07-23T06:48:06Z</time>
      </trkpt>
      <trkpt lat="42.63338" lon="18.14272">
        <ele>175</ele>
        <time>2016-07-23T06:50:06Z</time>
      </trkpt>
      <trkpt lat="42.63335" lon="18.14293">
        <ele>178</ele>
        <time>2016-07-23T06:52:06Z</time>
      </trkpt>
      <trkpt lat="42.63331" lon="18.14309">
        <ele>181</ele>
        <time>2016-07-23T06:54:06Z</time>
      </trkpt>
      <trkpt lat="42.63328" lon="18.14324">
        <ele>183</ele>
        <time>2016-07-23T06:56:06Z</time>
      </trkpt>
      <trkpt lat="42.63323" lon="18.14338">
        <ele>185</ele>
        <time>2016-07-23T06:58:06Z</time>
      </trkpt>
      <trkpt lat="42.63317" lon="18.1435">
        <ele>187</ele>
        <time>2016-07-23T07:00:06Z</time>
      </trkpt>
      <trkpt lat="42.63311" lon="18.14359">
        <ele>187</ele>
        <time>2016-07-23T07:02:06Z</time>
      </trkpt>
      <trkpt lat="42.63303" lon="18.14366">
        <ele>187</ele>
        <time>2016-07-23T07:04:06Z</time>
      </trkpt>
      <trkpt lat="42.63294" lon="18.14373">
        <ele>185</ele>
        <time>2016-07-23T07:06:06Z</time>
      </trkpt>
      <trkpt lat="42.63281" lon="18.1438">
        <ele>183</ele>
        <time>2016-07-23T07:08:06Z</time>
      </trkpt>
      <trkpt lat="42.63274" lon="18.14383">
        <ele>181</ele>
        <time>2016-07-23T07:10:06Z</time>
      </trkpt>
      <trkpt lat="42.6326" lon="18.14389">
        <ele>178</ele>
        <time>2016-07-23T07:12:06Z</time>
      </trkpt>
      <trkpt lat="42.63248" lon="18.14397">
        <ele>170</ele>
        <time>2016-07-23T07:14:06Z</time>
      </trkpt>
      <trkpt lat="42.63232" lon="18.14407">
        <ele>170</ele>
        <time>2016-07-23T07:16:06Z</time>
      </trkpt>
      <trkpt lat="42.63221" lon="18.14419">
        <ele>195</ele>
        <time>2016-07-23T07:18:06Z</time>
      </trkpt>
      <trkpt lat="42.63215" lon="18.1443">
        <ele>195</ele>
        <time>2016-07-23T07:20:06Z</time>
      </trkpt>
      <trkpt lat="42.63208" lon="18.14447">
        <ele>195</ele>
        <time>2016-07-23T07:22:06Z</time>
      </trkpt>
      <trkpt lat="42.632" lon="18.14483">
        <ele>195</ele>
        <time>2016-07-23T07:24:06Z</time>
      </trkpt>
      <trkpt lat="42.63197" lon="18.14496">
        <ele>195</ele>
        <time>2016-07-23T07:26:06Z</time>
      </trkpt>
      <trkpt lat="42.63195" lon="18.14512">
        <ele>218</ele>
        <time>2016-07-23T07:28:06Z</time>
      </trkpt>
      <trkpt lat="42.63191" lon="18.14537">
        <ele>218</ele>
        <time>2016-07-23T07:30:06Z</time>
      </trkpt>
      <trkpt lat="42.63188" lon="18.14558">
        <ele>218</ele>
        <time>2016-07-23T07:32:06Z</time>
      </trkpt>
      <trkpt lat="42.63187" lon="18.14581">
        <ele>218</ele>
        <time>2016-07-23T07:34:06Z</time>
      </trkpt>
      <trkpt lat="42.6318" lon="18.14585">
        <ele>224</ele>
        <time>2016-07-23T07:36:06Z</time>
      </trkpt>
      <trkpt lat="42.63187" lon="18.14586">
        <ele>224</ele>
        <time>2016-07-23T07:38:06Z</time>
      </trkpt>
      <trkpt lat="42.63187" lon="18.14604">
        <ele>224</ele>
        <time>2016-07-23T07:40:06Z</time>
      </trkpt>
      <trkpt lat="42.63186" lon="18.14637">
        <ele>224</ele>
        <time>2016-07-23T07:42:06Z</time>
      </trkpt>
      <trkpt lat="42.63183" lon="18.14664">
        <ele>224</ele>
        <time>2016-07-23T07:44:06Z</time>
      </trkpt>
      <trkpt lat="42.6318" lon="18.14692">
        <ele>202</ele>
        <time>2016-07-23T07:46:06Z</time>
      </trkpt>
      <trkpt lat="42.63176" lon="18.14723">
        <ele>202</ele>
        <time>2016-07-23T07:48:06Z</time>
      </trkpt>
      <trkpt lat="42.63171" lon="18.14748">
        <ele>202</ele>
        <time>2016-07-23T07:50:06Z</time>
      </trkpt>
      <trkpt lat="42.63164" lon="18.14778">
        <ele>175</ele>
        <time>2016-07-23T07:52:06Z</time>
      </trkpt>
      <trkpt lat="42.63142" lon="18.14857">
        <ele>162</ele>
        <time>2016-07-23T07:54:06Z</time>
      </trkpt>
      <trkpt lat="42.63133" lon="18.14885">
        <ele>162</ele>
        <time>2016-07-23T07:56:06Z</time>
      </trkpt>
      <trkpt lat="42.63126" lon="18.14905">
        <ele>162</ele>
        <time>2016-07-23T07:58:06Z</time>
      </trkpt>
      <trkpt lat="42.63118" lon="18.14927">
        <ele>152</ele>
        <time>2016-07-23T08:00:06Z</time>
      </trkpt>
      <trkpt lat="42.6311" lon="18.14947">
        <ele>154</ele>
        <time>2016-07-23T08:02:06Z</time>
      </trkpt>
      <trkpt lat="42.63093" lon="18.14983">
        <ele>153</ele>
        <time>2016-07-23T08:04:06Z</time>
      </trkpt>
      <trkpt lat="42.63079" lon="18.15013">
        <ele>152</ele>
        <time>2016-07-23T08:06:06Z</time>
      </trkpt>
      <trkpt lat="42.63062" lon="18.15048">
        <ele>148</ele>
        <time>2016-07-23T08:08:06Z</time>
      </trkpt>
      <trkpt lat="42.63056" lon="18.15063">
        <ele>148</ele>
        <time>2016-07-23T08:10:06Z</time>
      </trkpt>
      <trkpt lat="42.63048" lon="18.15082">
        <ele>147</ele>
        <time>2016-07-23T08:12:06Z</time>
      </trkpt>
      <trkpt lat="42.63034" lon="18.15128">
        <ele>147</ele>
        <time>2016-07-23T08:14:06Z</time>
      </trkpt>
      <trkpt lat="42.63024" lon="18.15163">
        <ele>149</ele>
        <time>2016-07-23T08:16:06Z</time>
      </trkpt>
      <trkpt lat="42.63013" lon="18.15202">
        <ele>146</ele>
        <time>2016-07-23T08:18:06Z</time>
      </trkpt>
      <trkpt lat="42.63007" lon="18.1523">
        <ele>146</ele>
        <time>2016-07-23T08:20:06Z</time>
      </trkpt>
      <trkpt lat="42.63001" lon="18.15257">
        <ele>146</ele>
        <time>2016-07-23T08:22:06Z</time>
      </trkpt>
      <trkpt lat="42.62996" lon="18.15286">
        <ele>147</ele>
        <time>2016-07-23T08:24:06Z</time>
      </trkpt>
      <trkpt lat="42.62996" lon="18.15306">
        <ele>149</ele>
        <time>2016-07-23T08:26:06Z</time>
      </trkpt>
      <trkpt lat="42.62996" lon="18.15327">
        <ele>151</ele>
        <time>2016-07-23T08:28:06Z</time>
      </trkpt>
      <trkpt lat="42.62996" lon="18.15356">
        <ele>152</ele>
        <time>2016-07-23T08:30:06Z</time>
      </trkpt>
      <trkpt lat="42.62998" lon="18.15403">
        <ele>153</ele>
        <time>2016-07-23T08:32:06Z</time>
      </trkpt>
      <trkpt lat="42.62994" lon="18.15406">
        <ele>154</ele>
        <time>2016-07-23T08:34:06Z</time>
      </trkpt>
      <trkpt lat="42.62993" lon="18.15426">
        <ele>153</ele>
        <time>2016-07-23T08:36:06Z</time>
      </trkpt>
      <trkpt lat="42.62992" lon="18.15457">
        <ele>151</ele>
        <time>2016-07-23T08:38:06Z</time>
      </trkpt>
      <trkpt lat="42.6299" lon="18.15478">
        <ele>149</ele>
        <time>2016-07-23T08:40:06Z</time>
      </trkpt>
      <trkpt lat="42.6299" lon="18.15478">
        <ele>149</ele>
        <time>2016-07-23T08:42:06Z</time>
      </trkpt>
      <trkpt lat="42.63007" lon="18.15483">
        <ele>147</ele>
        <time>2016-07-23T08:44:06Z</time>
      </trkpt>
      <trkpt lat="42.63012" lon="18.15485">
        <ele>148</ele>
        <time>2016-07-23T08:46:06Z</time>
      </trkpt>
      <trkpt lat="42.63016" lon="18.15487">
        <ele>148</ele>
        <time>2016-07-23T08:48:06Z</time>
      </trkpt>
      <trkpt lat="42.63021" lon="18.15489">
        <ele>148</ele>
        <time>2016-07-23T08:50:06Z</time>
      </trkpt>
      <trkpt lat="42.63026" lon="18.15492">
        <ele>149</ele>
        <time>2016-07-23T08:52:06Z</time>
      </trkpt>
      <trkpt lat="42.6303" lon="18.15495">
        <ele>149</ele>
        <time>2016-07-23T08:54:06Z</time>
      </trkpt>
      <trkpt lat="42.63035" lon="18.15499">
        <ele>149</ele>
        <time>2016-07-23T08:56:06Z</time>
      </trkpt>
      <trkpt lat="42.63039" lon="18.15503">
        <ele>149</ele>
        <time>2016-07-23T08:58:06Z</time>
      </trkpt>
      <trkpt lat="42.63044" lon="18.15507">
        <ele>149</ele>
        <time>2016-07-23T09:00:06Z</time>
      </trkpt>
      <trkpt lat="42.63048" lon="18.15512">
        <ele>149</ele>
        <time>2016-07-23T09:02:06Z</time>
      </trkpt>
      <trkpt lat="42.63052" lon="18.15517">
        <ele>149</ele>
        <time>2016-07-23T09:04:06Z</time>
      </trkpt>
      <trkpt lat="42.63065" lon="18.15532">
        <ele>148</ele>
        <time>2016-07-23T09:06:06Z</time>
      </trkpt>
      <trkpt lat="42.63077" lon="18.15551">
        <ele>148</ele>
        <time>2016-07-23T09:08:06Z</time>
      </trkpt>
      <trkpt lat="42.63093" lon="18.15584">
        <ele>149</ele>
        <time>2016-07-23T09:10:06Z</time>
      </trkpt>
      <trkpt lat="42.63106" lon="18.15611">
        <ele>152</ele>
        <time>2016-07-23T09:12:06Z</time>
      </trkpt>
      <trkpt lat="42.63134" lon="18.15677">
        <ele>154</ele>
        <time>2016-07-23T09:14:06Z</time>
      </trkpt>
      <trkpt lat="42.63165" lon="18.15752">
        <ele>158</ele>
        <time>2016-07-23T09:16:06Z</time>
      </trkpt>
      <trkpt lat="42.63179" lon="18.1579">
        <ele>157</ele>
        <time>2016-07-23T09:18:06Z</time>
      </trkpt>
      <trkpt lat="42.63195" lon="18.1583">
        <ele>155</ele>
        <time>2016-07-23T09:20:06Z</time>
      </trkpt>
      <trkpt lat="42.63198" lon="18.15836">
        <ele>155</ele>
        <time>2016-07-23T09:22:06Z</time>
      </trkpt>
      <trkpt lat="42.63202" lon="18.15842">
        <ele>155</ele>
        <time>2016-07-23T09:24:06Z</time>
      </trkpt>
      <trkpt lat="42.63206" lon="18.15849">
        <ele>155</ele>
        <time>2016-07-23T09:26:06Z</time>
      </trkpt>
      <trkpt lat="42.6321" lon="18.15855">
        <ele>155</ele>
        <time>2016-07-23T09:28:06Z</time>
      </trkpt>
      <trkpt lat="42.63221" lon="18.15868">
        <ele>155</ele>
        <time>2016-07-23T09:30:06Z</time>
      </trkpt>
      <trkpt lat="42.63228" lon="18.15877">
        <ele>154</ele>
        <time>2016-07-23T09:32:06Z</time>
      </trkpt>
      <trkpt lat="42.63238" lon="18.15888">
        <ele>154</ele>
        <time>2016-07-23T09:34:06Z</time>
      </trkpt>
      <trkpt lat="42.63267" lon="18.1591">
        <ele>155</ele>
        <time>2016-07-23T09:36:06Z</time>
      </trkpt>
      <trkpt lat="42.63277" lon="18.15919">
        <ele>156</ele>
        <time>2016-07-23T09:38:06Z</time>
      </trkpt>
      <trkpt lat="42.63296" lon="18.15935">
        <ele>158</ele>
        <time>2016-07-23T09:40:06Z</time>
      </trkpt>
      <trkpt lat="42.63301" lon="18.15939">
        <ele>158</ele>
        <time>2016-07-23T09:42:06Z</time>
      </trkpt>
      <trkpt lat="42.63307" lon="18.15944">
        <ele>159</ele>
        <time>2016-07-23T09:44:06Z</time>
      </trkpt>
      <trkpt lat="42.63312" lon="18.1595">
        <ele>159</ele>
        <time>2016-07-23T09:46:06Z</time>
      </trkpt>
      <trkpt lat="42.63318" lon="18.15955">
        <ele>160</ele>
        <time>2016-07-23T09:48:06Z</time>
      </trkpt>
      <trkpt lat="42.63323" lon="18.15961">
        <ele>160</ele>
        <time>2016-07-23T09:50:06Z</time>
      </trkpt>
      <trkpt lat="42.63328" lon="18.15967">
        <ele>160</ele>
        <time>2016-07-23T09:52:06Z</time>
      </trkpt>
      <trkpt lat="42.63333" lon="18.15973">
        <ele>160</ele>
        <time>2016-07-23T09:54:06Z</time>
      </trkpt>
      <trkpt lat="42.63337" lon="18.1598">
        <ele>161</ele>
        <time>2016-07-23T09:56:06Z</time>
      </trkpt>
      <trkpt lat="42.63342" lon="18.15987">
        <ele>162</ele>
        <time>2016-07-23T09:58:06Z</time>
      </trkpt>
      <trkpt lat="42.63346" lon="18.15994">
        <ele>162</ele>
        <time>2016-07-23T10:00:06Z</time>
      </trkpt>
      <trkpt lat="42.6335" lon="18.16001">
        <ele>162</ele>
        <time>2016-07-23T10:02:06Z</time>
      </trkpt>
      <trkpt lat="42.63364" lon="18.16026">
        <ele>164</ele>
        <time>2016-07-23T10:04:06Z</time>
      </trkpt>
      <trkpt lat="42.63376" lon="18.1605">
        <ele>164</ele>
        <time>2016-07-23T10:06:06Z</time>
      </trkpt>
      <trkpt lat="42.63386" lon="18.16074">
        <ele>164</ele>
        <time>2016-07-23T10:08:06Z</time>
      </trkpt>
      <trkpt lat="42.63395" lon="18.16099">
        <ele>163</ele>
        <time>2016-07-23T10:10:06Z</time>
      </trkpt>
      <trkpt lat="42.63407" lon="18.16131">
        <ele>161</ele>
        <time>2016-07-23T10:12:06Z</time>
      </trkpt>
      <trkpt lat="42.63417" lon="18.16153">
        <ele>160</ele>
        <time>2016-07-23T10:14:06Z</time>
      </trkpt>
      <trkpt lat="42.63424" lon="18.16167">
        <ele>157</ele>
        <time>2016-07-23T10:16:06Z</time>
      </trkpt>
      <trkpt lat="42.6343" lon="18.16177">
        <ele>156</ele>
        <time>2016-07-23T10:18:06Z</time>
      </trkpt>
      <trkpt lat="42.63437" lon="18.16186">
        <ele>155</ele>
        <time>2016-07-23T10:20:06Z</time>
      </trkpt>
      <trkpt lat="42.63445" lon="18.16194">
        <ele>153</ele>
        <time>2016-07-23T10:22:06Z</time>
      </trkpt>
      <trkpt lat="42.63448" lon="18.16196">
        <ele>153</ele>
        <time>2016-07-23T10:24:06Z</time>
      </trkpt>
      <trkpt lat="42.63452" lon="18.16199">
        <ele>153</ele>
        <time>2016-07-23T10:26:06Z</time>
      </trkpt>
      <trkpt lat="42.6346" lon="18.16201">
        <ele>153</ele>
        <time>2016-07-23T10:28:06Z</time>
      </trkpt>
      <trkpt lat="42.63467" lon="18.16202">
        <ele>153</ele>
        <time>2016-07-23T10:30:06Z</time>
      </trkpt>
      <trkpt lat="42.63476" lon="18.16202">
        <ele>153</ele>
        <time>2016-07-23T10:32:06Z</time>
      </trkpt>
      <trkpt lat="42.63481" lon="18.162">
        <ele>154</ele>
        <time>2016-07-23T10:34:06Z</time>
      </trkpt>
      <trkpt lat="42.6349" lon="18.16196">
        <ele>157</ele>
        <time>2016-07-23T10:36:06Z</time>
      </trkpt>
      <trkpt lat="42.63499" lon="18.1619">
        <ele>160</ele>
        <time>2016-07-23T10:38:06Z</time>
      </trkpt>
      <trkpt lat="42.63508" lon="18.16183">
        <ele>162</ele>
        <time>2016-07-23T10:40:06Z</time>
      </trkpt>
      <trkpt lat="42.63522" lon="18.16172">
        <ele>166</ele>
        <time>2016-07-23T10:42:06Z</time>
      </trkpt>
      <trkpt lat="42.63539" lon="18.1616">
        <ele>168</ele>
        <time>2016-07-23T10:44:06Z</time>
      </trkpt>
      <trkpt lat="42.63556" lon="18.1615">
        <ele>169</ele>
        <time>2016-07-23T10:46:06Z</time>
      </trkpt>
      <trkpt lat="42.63568" lon="18.16144">
        <ele>169</ele>
        <time>2016-07-23T10:48:06Z</time>
      </trkpt>
      <trkpt lat="42.6359" lon="18.16135">
        <ele>169</ele>
        <time>2016-07-23T10:50:06Z</time>
      </trkpt>
      <trkpt lat="42.63591" lon="18.16135">
        <ele>169</ele>
        <time>2016-07-23T10:52:06Z</time>
      </trkpt>
      <trkpt lat="42.63604" lon="18.1613">
        <ele>170</ele>
        <time>2016-07-23T10:54:06Z</time>
      </trkpt>
      <trkpt lat="42.63616" lon="18.16127">
        <ele>170</ele>
        <time>2016-07-23T10:56:06Z</time>
      </trkpt>
      <trkpt lat="42.63627" lon="18.16125">
        <ele>170</ele>
        <time>2016-07-23T10:58:06Z</time>
      </trkpt>
      <trkpt lat="42.63638" lon="18.16125">
        <ele>170</ele>
        <time>2016-07-23T11:00:06Z</time>
      </trkpt>
      <trkpt lat="42.63649" lon="18.16125">
        <ele>169</ele>
        <time>2016-07-23T11:02:06Z</time>
      </trkpt>
      <trkpt lat="42.63661" lon="18.16126">
        <ele>169</ele>
        <time>2016-07-23T11:04:06Z</time>
      </trkpt>
      <trkpt lat="42.63673" lon="18.16128">
        <ele>169</ele>
        <time>2016-07-23T11:06:06Z</time>
      </trkpt>
      <trkpt lat="42.63701" lon="18.16131">
        <ele>172</ele>
        <time>2016-07-23T11:08:06Z</time>
      </trkpt>
      <trkpt lat="42.63709" lon="18.16133">
        <ele>173</ele>
        <time>2016-07-23T11:10:06Z</time>
      </trkpt>
      <trkpt lat="42.63717" lon="18.16135">
        <ele>174</ele>
        <time>2016-07-23T11:12:06Z</time>
      </trkpt>
      <trkpt lat="42.63726" lon="18.16138">
        <ele>175</ele>
        <time>2016-07-23T11:14:06Z</time>
      </trkpt>
      <trkpt lat="42.63734" lon="18.16141">
        <ele>175</ele>
        <time>2016-07-23T11:16:06Z</time>
      </trkpt>
      <trkpt lat="42.63744" lon="18.16146">
        <ele>176</ele>
        <time>2016-07-23T11:18:06Z</time>
      </trkpt>
      <trkpt lat="42.63759" lon="18.16155">
        <ele>179</ele>
        <time>2016-07-23T11:20:06Z</time>
      </trkpt>
      <trkpt lat="42.63762" lon="18.16157">
        <ele>180</ele>
        <time>2016-07-23T11:22:06Z</time>
      </trkpt>
      <trkpt lat="42.63769" lon="18.16163">
        <ele>181</ele>
        <time>2016-07-23T11:24:06Z</time>
      </trkpt>
      <trkpt lat="42.63778" lon="18.1617">
        <ele>183</ele>
        <time>2016-07-23T11:26:06Z</time>
      </trkpt>
      <trkpt lat="42.63788" lon="18.16181">
        <ele>184</ele>
        <time>2016-07-23T11:28:06Z</time>
      </trkpt>
      <trkpt lat="42.638" lon="18.16195">
        <ele>186</ele>
        <time>2016-07-23T11:30:06Z</time>
      </trkpt>
      <trkpt lat="42.6381" lon="18.16211">
        <ele>186</ele>
        <time>2016-07-23T11:32:06Z</time>
      </trkpt>
      <trkpt lat="42.63816" lon="18.16221">
        <ele>187</ele>
        <time>2016-07-23T11:34:06Z</time>
      </trkpt>
      <trkpt lat="42.63821" lon="18.16233">
        <ele>187</ele>
        <time>2016-07-23T11:36:06Z</time>
      </trkpt>
      <trkpt lat="42.63826" lon="18.16248">
        <ele>186</ele>
        <time>2016-07-23T11:38:06Z</time>
      </trkpt>
      <trkpt lat="42.6383" lon="18.16264">
        <ele>187</ele>
        <time>2016-07-23T11:40:06Z</time>
      </trkpt>
      <trkpt lat="42.63833" lon="18.1628">
        <ele>189</ele>
        <time>2016-07-23T11:42:06Z</time>
      </trkpt>
      <trkpt lat="42.63834" lon="18.16288">
        <ele>190</ele>
        <time>2016-07-23T11:44:06Z</time>
      </trkpt>
      <trkpt lat="42.63836" lon="18.163">
        <ele>191</ele>
        <time>2016-07-23T11:46:06Z</time>
      </trkpt>
      <trkpt lat="42.63837" lon="18.1631">
        <ele>192</ele>
        <time>2016-07-23T11:48:06Z</time>
      </trkpt>
      <trkpt lat="42.63838" lon="18.16322">
        <ele>193</ele>
        <time>2016-07-23T11:50:06Z</time>
      </trkpt>
      <trkpt lat="42.63838" lon="18.16333">
        <ele>194</ele>
        <time>2016-07-23T11:52:06Z</time>
      </trkpt>
      <trkpt lat="42.63837" lon="18.16347">
        <ele>194</ele>
        <time>2016-07-23T11:54:06Z</time>
      </trkpt>
      <trkpt lat="42.63833" lon="18.16378">
        <ele>194</ele>
        <time>2016-07-23T11:56:06Z</time>
      </trkpt>
      <trkpt lat="42.63829" lon="18.16405">
        <ele>194</ele>
        <time>2016-07-23T11:58:06Z</time>
      </trkpt>
      <trkpt lat="42.63826" lon="18.16425">
        <ele>194</ele>
        <time>2016-07-23T12:00:06Z</time>
      </trkpt>
      <trkpt lat="42.63824" lon="18.16442">
        <ele>194</ele>
        <time>2016-07-23T12:02:06Z</time>
      </trkpt>
      <trkpt lat="42.63822" lon="18.1646">
        <ele>195</ele>
        <time>2016-07-23T12:04:06Z</time>
      </trkpt>
      <trkpt lat="42.63821" lon="18.16474">
        <ele>195</ele>
        <time>2016-07-23T12:06:06Z</time>
      </trkpt>
      <trkpt lat="42.63822" lon="18.16492">
        <ele>198</ele>
        <time>2016-07-23T12:08:06Z</time>
      </trkpt>
      <trkpt lat="42.63822" lon="18.16506">
        <ele>198</ele>
        <time>2016-07-23T12:10:06Z</time>
      </trkpt>
      <trkpt lat="42.63824" lon="18.16519">
        <ele>199</ele>
        <time>2016-07-23T12:12:06Z</time>
      </trkpt>
      <trkpt lat="42.63826" lon="18.16532">
        <ele>200</ele>
        <time>2016-07-23T12:14:06Z</time>
      </trkpt>
      <trkpt lat="42.63831" lon="18.16551">
        <ele>202</ele>
        <time>2016-07-23T12:16:06Z</time>
      </trkpt>
      <trkpt lat="42.63836" lon="18.16569">
        <ele>205</ele>
        <time>2016-07-23T12:18:06Z</time>
      </trkpt>
      <trkpt lat="42.63843" lon="18.16587">
        <ele>224</ele>
        <time>2016-07-23T12:20:06Z</time>
      </trkpt>
      <trkpt lat="42.6385" lon="18.16602">
        <ele>224</ele>
        <time>2016-07-23T12:22:06Z</time>
      </trkpt>
      <trkpt lat="42.6386" lon="18.16619">
        <ele>224</ele>
        <time>2016-07-23T12:24:06Z</time>
      </trkpt>
      <trkpt lat="42.6386" lon="18.1662">
        <ele>224</ele>
        <time>2016-07-23T12:26:06Z</time>
      </trkpt>
      <trkpt lat="42.63865" lon="18.1663">
        <ele>224</ele>
        <time>2016-07-23T12:28:06Z</time>
      </trkpt>
      <trkpt lat="42.63879" lon="18.16653">
        <ele>224</ele>
        <time>2016-07-23T12:30:06Z</time>
      </trkpt>
      <trkpt lat="42.63889" lon="18.16667">
        <ele>184</ele>
        <time>2016-07-23T12:32:06Z</time>
      </trkpt>
      <trkpt lat="42.63902" lon="18.16682">
        <ele>184</ele>
        <time>2016-07-23T12:34:06Z</time>
      </trkpt>
      <trkpt lat="42.63917" lon="18.1669">
        <ele>213</ele>
        <time>2016-07-23T12:36:06Z</time>
      </trkpt>
      <trkpt lat="42.63931" lon="18.16699">
        <ele>208</ele>
        <time>2016-07-23T12:38:06Z</time>
      </trkpt>
      <trkpt lat="42.63965" lon="18.16712">
        <ele>205</ele>
        <time>2016-07-23T12:40:06Z</time>
      </trkpt>
      <trkpt lat="42.6399" lon="18.16717">
        <ele>207</ele>
        <time>2016-07-23T12:42:06Z</time>
      </trkpt>
      <trkpt lat="42.64002" lon="18.16724">
        <ele>206</ele>
        <time>2016-07-23T12:44:06Z</time>
      </trkpt>
      <trkpt lat="42.64008" lon="18.16728">
        <ele>205</ele>
        <time>2016-07-23T12:46:06Z</time>
      </trkpt>
      <trkpt lat="42.64028" lon="18.16747">
        <ele>201</ele>
        <time>2016-07-23T12:48:06Z</time>
      </trkpt>
      <trkpt lat="42.64038" lon="18.16758">
        <ele>199</ele>
        <time>2016-07-23T12:50:06Z</time>
      </trkpt>
      <trkpt lat="42.64049" lon="18.16765">
        <ele>198</ele>
        <time>2016-07-23T12:52:06Z</time>
      </trkpt>
      <trkpt lat="42.64057" lon="18.16769">
        <ele>198</ele>
        <time>2016-07-23T12:54:06Z</time>
      </trkpt>
      <trkpt lat="42.64067" lon="18.16768">
        <ele>199</ele>
        <time>2016-07-23T12:56:06Z</time>
      </trkpt>
      <trkpt lat="42.64076" lon="18.16764">
        <ele>202</ele>
        <time>2016-07-23T12:58:06Z</time>
      </trkpt>
      <trkpt lat="42.64089" lon="18.16755">
        <ele>204</ele>
        <time>2016-07-23T13:00:06Z</time>
      </trkpt>
      <trkpt lat="42.64095" lon="18.16745">
        <ele>206</ele>
        <time>2016-07-23T13:02:06Z</time>
      </trkpt>
      <trkpt lat="42.64099" lon="18.16742">
        <ele>206</ele>
        <time>2016-07-23T13:04:06Z</time>
      </trkpt>
      <trkpt lat="42.64102" lon="18.16738">
        <ele>207</ele>
        <time>2016-07-23T13:06:06Z</time>
      </trkpt>
      <trkpt lat="42.64105" lon="18.16733">
        <ele>207</ele>
        <time>2016-07-23T13:08:06Z</time>
      </trkpt>
      <trkpt lat="42.64128" lon="18.16693">
        <ele>212</ele>
        <time>2016-07-23T13:10:06Z</time>
      </trkpt>
      <trkpt lat="42.64148" lon="18.16651">
        <ele>214</ele>
        <time>2016-07-23T13:12:06Z</time>
      </trkpt>
      <trkpt lat="42.64157" lon="18.16628">
        <ele>215</ele>
        <time>2016-07-23T13:14:06Z</time>
      </trkpt>
      <trkpt lat="42.64165" lon="18.16603">
        <ele>217</ele>
        <time>2016-07-23T13:16:06Z</time>
      </trkpt>
      <trkpt lat="42.64176" lon="18.16564">
        <ele>221</ele>
        <time>2016-07-23T13:18:06Z</time>
      </trkpt>
      <trkpt lat="42.64185" lon="18.16534">
        <ele>223</ele>
        <time>2016-07-23T13:20:06Z</time>
      </trkpt>
      <trkpt lat="42.64194" lon="18.165">
        <ele>225</ele>
        <time>2016-07-23T13:22:06Z</time>
      </trkpt>
      <trkpt lat="42.64205" lon="18.16454">
        <ele>226</ele>
        <time>2016-07-23T13:24:06Z</time>
      </trkpt>
      <trkpt lat="42.64211" lon="18.16425">
        <ele>228</ele>
        <time>2016-07-23T13:26:06Z</time>
      </trkpt>
      <trkpt lat="42.6422" lon="18.1637">
        <ele>230</ele>
        <time>2016-07-23T13:28:06Z</time>
      </trkpt>
      <trkpt lat="42.64229" lon="18.16325">
        <ele>231</ele>
        <time>2016-07-23T13:30:06Z</time>
      </trkpt>
      <trkpt lat="42.64236" lon="18.16298">
        <ele>231</ele>
        <time>2016-07-23T13:32:06Z</time>
      </trkpt>
      <trkpt lat="42.64246" lon="18.16269">
        <ele>232</ele>
        <time>2016-07-23T13:34:06Z</time>
      </trkpt>
      <trkpt lat="42.64282" lon="18.16179">
        <ele>235</ele>
        <time>2016-07-23T13:36:06Z</time>
      </trkpt>
      <trkpt lat="42.64296" lon="18.16138">
        <ele>235</ele>
        <time>2016-07-23T13:38:06Z</time>
      </trkpt>
      <trkpt lat="42.64301" lon="18.16121">
        <ele>235</ele>
        <time>2016-07-23T13:40:06Z</time>
      </trkpt>
      <trkpt lat="42.64309" lon="18.16092">
        <ele>235</ele>
        <time>2016-07-23T13:42:06Z</time>
      </trkpt>
      <trkpt lat="42.64335" lon="18.15968">
        <ele>244</ele>
        <time>2016-07-23T13:44:06Z</time>
      </trkpt>
      <trkpt lat="42.64343" lon="18.1593">
        <ele>246</ele>
        <time>2016-07-23T13:46:06Z</time>
      </trkpt>
      <trkpt lat="42.64351" lon="18.15897">
        <ele>248</ele>
        <time>2016-07-23T13:48:06Z</time>
      </trkpt>
      <trkpt lat="42.64359" lon="18.15877">
        <ele>249</ele>
        <time>2016-07-23T13:50:06Z</time>
      </trkpt>
      <trkpt lat="42.64364" lon="18.15867">
        <ele>250</ele>
        <time>2016-07-23T13:52:06Z</time>
      </trkpt>
      <trkpt lat="42.64372" lon="18.15857">
        <ele>250</ele>
        <time>2016-07-23T13:54:06Z</time>
      </trkpt>
      <trkpt lat="42.64401" lon="18.15837">
        <ele>250</ele>
        <time>2016-07-23T13:56:06Z</time>
      </trkpt>
      <trkpt lat="42.64401" lon="18.15837">
        <ele>250</ele>
        <time>2016-07-23T13:58:06Z</time>
      </trkpt>
      <trkpt lat="42.64401" lon="18.15838">
        <ele>250</ele>
        <time>2016-07-23T14:00:06Z</time>
      </trkpt>
      <trkpt lat="42.64402" lon="18.15838">
        <ele>250</ele>
        <time>2016-07-23T14:02:06Z</time>
      </trkpt>
      <trkpt lat="42.64402" lon="18.15839">
        <ele>250</ele>
        <time>2016-07-23T14:04:06Z</time>
      </trkpt>
      <trkpt lat="42.64402" lon="18.1584">
        <ele>250</ele>
        <time>2016-07-23T14:06:06Z</time>
      </trkpt>
      <trkpt lat="42.64403" lon="18.1584">
        <ele>250</ele>
        <time>2016-07-23T14:08:06Z</time>
      </trkpt>
      <trkpt lat="42.64403" lon="18.15841">
        <ele>250</ele>
        <time>2016-07-23T14:10:06Z</time>
      </trkpt>
      <trkpt lat="42.64404" lon="18.15841">
        <ele>250</ele>
        <time>2016-07-23T14:12:06Z</time>
      </trkpt>
      <trkpt lat="42.64404" lon="18.15842">
        <ele>250</ele>
        <time>2016-07-23T14:14:06Z</time>
      </trkpt>
      <trkpt lat="42.64405" lon="18.15842">
        <ele>250</ele>
        <time>2016-07-23T14:16:06Z</time>
      </trkpt>
      <trkpt lat="42.64406" lon="18.15842">
        <ele>250</ele>
        <time>2016-07-23T14:18:06Z</time>
      </trkpt>
      <trkpt lat="42.64406" lon="18.15843">
        <ele>250</ele>
        <time>2016-07-23T14:20:06Z</time>
      </trkpt>
      <trkpt lat="42.64407" lon="18.15843">
        <ele>250</ele>
        <time>2016-07-23T14:22:06Z</time>
      </trkpt>
      <trkpt lat="42.64408" lon="18.15843">
        <ele>250</ele>
        <time>2016-07-23T14:24:06Z</time>
      </trkpt>
      <trkpt lat="42.64409" lon="18.15843">
        <ele>250</ele>
        <time>2016-07-23T14:26:06Z</time>
      </trkpt>
      <trkpt lat="42.6441" lon="18.15843">
        <ele>250</ele>
        <time>2016-07-23T14:28:06Z</time>
      </trkpt>
      <trkpt lat="42.6441" lon="18.15842">
        <ele>250</ele>
        <time>2016-07-23T14:30:06Z</time>
      </trkpt>
      <trkpt lat="42.64411" lon="18.15842">
        <ele>250</ele>
        <time>2016-07-23T14:32:06Z</time>
      </trkpt>
      <trkpt lat="42.64412" lon="18.15842">
        <ele>250</ele>
        <time>2016-07-23T14:34:06Z</time>
      </trkpt>
      <trkpt lat="42.64412" lon="18.15841">
        <ele>250</ele>
        <time>2016-07-23T14:36:06Z</time>
      </trkpt>
      <trkpt lat="42.64413" lon="18.15841">
        <ele>250</ele>
        <time>2016-07-23T14:38:06Z</time>
      </trkpt>
      <trkpt lat="42.64413" lon="18.1584">
        <ele>250</ele>
        <time>2016-07-23T14:40:06Z</time>
      </trkpt>
      <trkpt lat="42.64414" lon="18.1584">
        <ele>250</ele>
        <time>2016-07-23T14:42:06Z</time>
      </trkpt>
      <trkpt lat="42.64414" lon="18.15839">
        <ele>250</ele>
        <time>2016-07-23T14:44:06Z</time>
      </trkpt>
      <trkpt lat="42.64414" lon="18.15838">
        <ele>250</ele>
        <time>2016-07-23T14:46:06Z</time>
      </trkpt>
      <trkpt lat="42.64435" lon="18.15846">
        <ele>249</ele>
        <time>2016-07-23T14:48:06Z</time>
      </trkpt>
      <trkpt lat="42.64455" lon="18.15854">
        <ele>249</ele>
        <time>2016-07-23T14:50:06Z</time>
      </trkpt>
      <trkpt lat="42.64457" lon="18.15855">
        <ele>249</ele>
        <time>2016-07-23T14:52:06Z</time>
      </trkpt>
      <trkpt lat="42.64473" lon="18.15863">
        <ele>249</ele>
        <time>2016-07-23T14:54:06Z</time>
      </trkpt>
      <trkpt lat="42.64483" lon="18.15868">
        <ele>249</ele>
        <time>2016-07-23T14:56:06Z</time>
      </trkpt>
      <trkpt lat="42.64503" lon="18.15873">
        <ele>249</ele>
        <time>2016-07-23T14:58:06Z</time>
      </trkpt>
      <trkpt lat="42.64516" lon="18.15875">
        <ele>250</ele>
        <time>2016-07-23T15:00:06Z</time>
      </trkpt>
      <trkpt lat="42.64523" lon="18.15875">
        <ele>251</ele>
        <time>2016-07-23T15:02:06Z</time>
      </trkpt>
      <trkpt lat="42.64531" lon="18.15875">
        <ele>251</ele>
        <time>2016-07-23T15:04:06Z</time>
      </trkpt>
      <trkpt lat="42.64539" lon="18.15872">
        <ele>252</ele>
        <time>2016-07-23T15:06:06Z</time>
      </trkpt>
      <trkpt lat="42.64567" lon="18.15864">
        <ele>255</ele>
        <time>2016-07-23T15:08:06Z</time>
      </trkpt>
      <trkpt lat="42.64577" lon="18.15862">
        <ele>256</ele>
        <time>2016-07-23T15:10:06Z</time>
      </trkpt>
      <trkpt lat="42.64584" lon="18.15862">
        <ele>257</ele>
        <time>2016-07-23T15:12:06Z</time>
      </trkpt>
      <trkpt lat="42.64592" lon="18.15862">
        <ele>258</ele>
        <time>2016-07-23T15:14:06Z</time>
      </trkpt>
      <trkpt lat="42.64599" lon="18.15865">
        <ele>260</ele>
        <time>2016-07-23T15:16:06Z</time>
      </trkpt>
      <trkpt lat="42.64603" lon="18.15867">
        <ele>260</ele>
        <time>2016-07-23T15:18:06Z</time>
      </trkpt>
      <trkpt lat="42.64607" lon="18.1587">
        <ele>261</ele>
        <time>2016-07-23T15:20:06Z</time>
      </trkpt>
      <trkpt lat="42.64614" lon="18.15875">
        <ele>262</ele>
        <time>2016-07-23T15:22:06Z</time>
      </trkpt>
      <trkpt lat="42.64624" lon="18.15886">
        <ele>262</ele>
        <time>2016-07-23T15:24:06Z</time>
      </trkpt>
      <trkpt lat="42.6463" lon="18.15893">
        <ele>262</ele>
        <time>2016-07-23T15:26:06Z</time>
      </trkpt>
      <trkpt lat="42.64654" lon="18.15916">
        <ele>261</ele>
        <time>2016-07-23T15:28:06Z</time>
      </trkpt>
      <trkpt lat="42.64673" lon="18.15932">
        <ele>260</ele>
        <time>2016-07-23T15:30:06Z</time>
      </trkpt>
      <trkpt lat="42.64684" lon="18.15938">
        <ele>260</ele>
        <time>2016-07-23T15:32:06Z</time>
      </trkpt>
      <trkpt lat="42.64694" lon="18.15942">
        <ele>260</ele>
        <time>2016-07-23T15:34:06Z</time>
      </trkpt>
      <trkpt lat="42.64706" lon="18.15944">
        <ele>261</ele>
        <time>2016-07-23T15:36:06Z</time>
      </trkpt>
      <trkpt lat="42.64717" lon="18.15944">
        <ele>262</ele>
        <time>2016-07-23T15:38:06Z</time>
      </trkpt>
      <trkpt lat="42.64733" lon="18.15942">
        <ele>264</ele>
        <time>2016-07-23T15:40:06Z</time>
      </trkpt>
      <trkpt lat="42.6476" lon="18.15935">
        <ele>268</ele>
        <time>2016-07-23T15:42:06Z</time>
      </trkpt>
      <trkpt lat="42.6477" lon="18.1593">
        <ele>269</ele>
        <time>2016-07-23T15:44:06Z</time>
      </trkpt>
      <trkpt lat="42.64784" lon="18.15925">
        <ele>271</ele>
        <time>2016-07-23T15:46:06Z</time>
      </trkpt>
      <trkpt lat="42.64809" lon="18.1592">
        <ele>274</ele>
        <time>2016-07-23T15:48:06Z</time>
      </trkpt>
      <trkpt lat="42.64823" lon="18.15918">
        <ele>275</ele>
        <time>2016-07-23T15:50:06Z</time>
      </trkpt>
      <trkpt lat="42.64841" lon="18.1592">
        <ele>275</ele>
        <time>2016-07-23T15:52:06Z</time>
      </trkpt>
      <trkpt lat="42.64879" lon="18.1593">
        <ele>273</ele>
        <time>2016-07-23T15:54:06Z</time>
      </trkpt>
      <trkpt lat="42.64931" lon="18.15941">
        <ele>271</ele>
        <time>2016-07-23T15:56:06Z</time>
      </trkpt>
      <trkpt lat="42.64953" lon="18.15945">
        <ele>271</ele>
        <time>2016-07-23T15:58:06Z</time>
      </trkpt>
      <trkpt lat="42.64968" lon="18.15945">
        <ele>272</ele>
        <time>2016-07-23T16:00:06Z</time>
      </trkpt>
      <trkpt lat="42.64986" lon="18.15945">
        <ele>273</ele>
        <time>2016-07-23T16:02:06Z</time>
      </trkpt>
      <trkpt lat="42.65045" lon="18.15939">
        <ele>278</ele>
        <time>2016-07-23T16:04:06Z</time>
      </trkpt>
      <trkpt lat="42.65067" lon="18.15937">
        <ele>281</ele>
        <time>2016-07-23T16:06:06Z</time>
      </trkpt>
      <trkpt lat="42.65076" lon="18.15937">
        <ele>281</ele>
        <time>2016-07-23T16:08:06Z</time>
      </trkpt>
      <trkpt lat="42.65148" lon="18.15941">
        <ele>283</ele>
        <time>2016-07-23T16:10:06Z</time>
      </trkpt>
      <trkpt lat="42.65182" lon="18.15941">
        <ele>284</ele>
        <time>2016-07-23T16:12:06Z</time>
      </trkpt>
      <trkpt lat="42.65194" lon="18.1594">
        <ele>284</ele>
        <time>2016-07-23T16:14:06Z</time>
      </trkpt>
      <trkpt lat="42.65215" lon="18.15935">
        <ele>286</ele>
        <time>2016-07-23T16:16:06Z</time>
      </trkpt>
      <trkpt lat="42.65268" lon="18.15924">
        <ele>292</ele>
        <time>2016-07-23T16:18:06Z</time>
      </trkpt>
      <trkpt lat="42.65288" lon="18.1592">
        <ele>295</ele>
        <time>2016-07-23T16:20:06Z</time>
      </trkpt>
      <trkpt lat="42.65298" lon="18.15918">
        <ele>296</ele>
        <time>2016-07-23T16:22:06Z</time>
      </trkpt>
      <trkpt lat="42.65308" lon="18.15918">
        <ele>297</ele>
        <time>2016-07-23T16:24:06Z</time>
      </trkpt>
      <trkpt lat="42.65329" lon="18.15918">
        <ele>298</ele>
        <time>2016-07-23T16:26:06Z</time>
      </trkpt>
      <trkpt lat="42.65348" lon="18.15921">
        <ele>298</ele>
        <time>2016-07-23T16:28:06Z</time>
      </trkpt>
      <trkpt lat="42.65366" lon="18.15923">
        <ele>299</ele>
        <time>2016-07-23T16:30:06Z</time>
      </trkpt>
      <trkpt lat="42.65385" lon="18.15925">
        <ele>299</ele>
        <time>2016-07-23T16:32:06Z</time>
      </trkpt>
      <trkpt lat="42.65396" lon="18.15924">
        <ele>300</ele>
        <time>2016-07-23T16:34:06Z</time>
      </trkpt>
      <trkpt lat="42.65406" lon="18.15923">
        <ele>301</ele>
        <time>2016-07-23T16:36:06Z</time>
      </trkpt>
      <trkpt lat="42.65425" lon="18.1592">
        <ele>303</ele>
        <time>2016-07-23T16:38:06Z</time>
      </trkpt>
      <trkpt lat="42.65436" lon="18.15917">
        <ele>304</ele>
        <time>2016-07-23T16:40:06Z</time>
      </trkpt>
      <trkpt lat="42.65471" lon="18.15906">
        <ele>309</ele>
        <time>2016-07-23T16:42:06Z</time>
      </trkpt>
      <trkpt lat="42.65482" lon="18.15903">
        <ele>310</ele>
        <time>2016-07-23T16:44:06Z</time>
      </trkpt>
      <trkpt lat="42.65492" lon="18.15902">
        <ele>311</ele>
        <time>2016-07-23T16:46:06Z</time>
      </trkpt>
      <trkpt lat="42.65503" lon="18.15903">
        <ele>312</ele>
        <time>2016-07-23T16:48:06Z</time>
      </trkpt>
      <trkpt lat="42.65511" lon="18.15904">
        <ele>314</ele>
        <time>2016-07-23T16:50:06Z</time>
      </trkpt>
      <trkpt lat="42.65518" lon="18.15907">
        <ele>315</ele>
        <time>2016-07-23T16:52:06Z</time>
      </trkpt>
      <trkpt lat="42.65525" lon="18.1591">
        <ele>317</ele>
        <time>2016-07-23T16:54:06Z</time>
      </trkpt>
      <trkpt lat="42.65532" lon="18.15915">
        <ele>318</ele>
        <time>2016-07-23T16:56:06Z</time>
      </trkpt>
      <trkpt lat="42.65539" lon="18.1592">
        <ele>319</ele>
        <time>2016-07-23T16:58:06Z</time>
      </trkpt>
      <trkpt lat="42.65545" lon="18.15926">
        <ele>319</ele>
        <time>2016-07-23T17:00:06Z</time>
      </trkpt>
      <trkpt lat="42.65562" lon="18.15959">
        <ele>317</ele>
        <time>2016-07-23T17:02:06Z</time>
      </trkpt>
      <trkpt lat="42.6558" lon="18.15994">
        <ele>316</ele>
        <time>2016-07-23T17:04:06Z</time>
      </trkpt>
      <trkpt lat="42.656" lon="18.16028">
        <ele>315</ele>
        <time>2016-07-23T17:06:06Z</time>
      </trkpt>
      <trkpt lat="42.65606" lon="18.16039">
        <ele>315</ele>
        <time>2016-07-23T17:08:06Z</time>
      </trkpt>
      <trkpt lat="42.65615" lon="18.16051">
        <ele>315</ele>
        <time>2016-07-23T17:10:06Z</time>
      </trkpt>
      <trkpt lat="42.65625" lon="18.16065">
        <ele>315</ele>
        <time>2016-07-23T17:12:06Z</time>
      </trkpt>
      <trkpt lat="42.65637" lon="18.16076">
        <ele>316</ele>
        <time>2016-07-23T17:14:06Z</time>
      </trkpt>
      <trkpt lat="42.65649" lon="18.16086">
        <ele>318</ele>
        <time>2016-07-23T17:16:06Z</time>
      </trkpt>
      <trkpt lat="42.65659" lon="18.16096">
        <ele>320</ele>
        <time>2016-07-23T17:18:06Z</time>
      </trkpt>
      <trkpt lat="42.65667" lon="18.16105">
        <ele>323</ele>
        <time>2016-07-23T17:20:06Z</time>
      </trkpt>
      <trkpt lat="42.65673" lon="18.16114">
        <ele>324</ele>
        <time>2016-07-23T17:22:06Z</time>
      </trkpt>
      <trkpt lat="42.65677" lon="18.16121">
        <ele>325</ele>
        <time>2016-07-23T17:24:06Z</time>
      </trkpt>
      <trkpt lat="42.65679" lon="18.16128">
        <ele>326</ele>
        <time>2016-07-23T17:26:06Z</time>
      </trkpt>
      <trkpt lat="42.65681" lon="18.16139">
        <ele>326</ele>
        <time>2016-07-23T17:28:06Z</time>
      </trkpt>
      <trkpt lat="42.65682" lon="18.1615">
        <ele>325</ele>
        <time>2016-07-23T17:30:06Z</time>
      </trkpt>
      <trkpt lat="42.65682" lon="18.16168">
        <ele>324</ele>
        <time>2016-07-23T17:32:06Z</time>
      </trkpt>
      <trkpt lat="42.6568" lon="18.16184">
        <ele>323</ele>
        <time>2016-07-23T17:34:06Z</time>
      </trkpt>
      <trkpt lat="42.65675" lon="18.16211">
        <ele>321</ele>
        <time>2016-07-23T17:36:06Z</time>
      </trkpt>
      <trkpt lat="42.65672" lon="18.16227">
        <ele>320</ele>
        <time>2016-07-23T17:38:06Z</time>
      </trkpt>
      <trkpt lat="42.65671" lon="18.16242">
        <ele>319</ele>
        <time>2016-07-23T17:40:06Z</time>
      </trkpt>
      <trkpt lat="42.65671" lon="18.16249">
        <ele>319</ele>
        <time>2016-07-23T17:42:06Z</time>
      </trkpt>
      <trkpt lat="42.65671" lon="18.16259">
        <ele>317</ele>
        <time>2016-07-23T17:44:06Z</time>
      </trkpt>
      <trkpt lat="42.65673" lon="18.16268">
        <ele>315</ele>
        <time>2016-07-23T17:46:06Z</time>
      </trkpt>
      <trkpt lat="42.65679" lon="18.16279">
        <ele>314</ele>
        <time>2016-07-23T17:48:06Z</time>
      </trkpt>
      <trkpt lat="42.65685" lon="18.16287">
        <ele>314</ele>
        <time>2016-07-23T17:50:06Z</time>
      </trkpt>
      <trkpt lat="42.65692" lon="18.16293">
        <ele>315</ele>
        <time>2016-07-23T17:52:06Z</time>
      </trkpt>
      <trkpt lat="42.65698" lon="18.16297">
        <ele>315</ele>
        <time>2016-07-23T17:54:06Z</time>
      </trkpt>
      <trkpt lat="42.65707" lon="18.16301">
        <ele>316</ele>
        <time>2016-07-23T17:56:06Z</time>
      </trkpt>
      <trkpt lat="42.65716" lon="18.16303">
        <ele>318</ele>
        <time>2016-07-23T17:58:06Z</time>
      </trkpt>
      <trkpt lat="42.65724" lon="18.16304">
        <ele>320</ele>
        <time>2016-07-23T18:00:06Z</time>
      </trkpt>
      <trkpt lat="42.65733" lon="18.16305">
        <ele>322</ele>
        <time>2016-07-23T18:02:06Z</time>
      </trkpt>
      <trkpt lat="42.65741" lon="18.16305">
        <ele>324</ele>
        <time>2016-07-23T18:04:06Z</time>
      </trkpt>
      <trkpt lat="42.65749" lon="18.16304">
        <ele>327</ele>
        <time>2016-07-23T18:06:06Z</time>
      </trkpt>
      <trkpt lat="42.6576" lon="18.16302">
        <ele>328</ele>
        <time>2016-07-23T18:08:06Z</time>
      </trkpt>
      <trkpt lat="42.6577" lon="18.16299">
        <ele>329</ele>
        <time>2016-07-23T18:10:06Z</time>
      </trkpt>
      <trkpt lat="42.6577" lon="18.16299">
        <ele>329</ele>
        <time>2016-07-23T18:12:06Z</time>
      </trkpt>
      <trkpt lat="42.65794" lon="18.16289">
        <ele>332</ele>
        <time>2016-07-23T18:14:06Z</time>
      </trkpt>
      <trkpt lat="42.65807" lon="18.16283">
        <ele>333</ele>
        <time>2016-07-23T18:16:06Z</time>
      </trkpt>
      <trkpt lat="42.65813" lon="18.1628">
        <ele>334</ele>
        <time>2016-07-23T18:18:06Z</time>
      </trkpt>
      <trkpt lat="42.65819" lon="18.16277">
        <ele>335</ele>
        <time>2016-07-23T18:20:06Z</time>
      </trkpt>
      <trkpt lat="42.65828" lon="18.16274">
        <ele>335</ele>
        <time>2016-07-23T18:22:06Z</time>
      </trkpt>
      <trkpt lat="42.65837" lon="18.1627">
        <ele>336</ele>
        <time>2016-07-23T18:24:06Z</time>
      </trkpt>
      <trkpt lat="42.65846" lon="18.16267">
        <ele>338</ele>
        <time>2016-07-23T18:26:06Z</time>
      </trkpt>
      <trkpt lat="42.6585" lon="18.16266">
        <ele>338</ele>
        <time>2016-07-23T18:28:06Z</time>
      </trkpt>
      <trkpt lat="42.65855" lon="18.16265">
        <ele>339</ele>
        <time>2016-07-23T18:30:06Z</time>
      </trkpt>
      <trkpt lat="42.65857" lon="18.16264">
        <ele>339</ele>
        <time>2016-07-23T18:32:06Z</time>
      </trkpt>
      <trkpt lat="42.6586" lon="18.16264">
        <ele>339</ele>
        <time>2016-07-23T18:34:06Z</time>
      </trkpt>
      <trkpt lat="42.65862" lon="18.16264">
        <ele>340</ele>
        <time>2016-07-23T18:36:06Z</time>
      </trkpt>
      <trkpt lat="42.65865" lon="18.16264">
        <ele>340</ele>
        <time>2016-07-23T18:38:06Z</time>
      </trkpt>
      <trkpt lat="42.65868" lon="18.16265">
        <ele>340</ele>
        <time>2016-07-23T18:40:06Z</time>
      </trkpt>
      <trkpt lat="42.65871" lon="18.16266">
        <ele>340</ele>
        <time>2016-07-23T18:42:06Z</time>
      </trkpt>
      <trkpt lat="42.65875" lon="18.16267">
        <ele>340</ele>
        <time>2016-07-23T18:44:06Z</time>
      </trkpt>
      <trkpt lat="42.65879" lon="18.1627">
        <ele>340</ele>
        <time>2016-07-23T18:46:06Z</time>
      </trkpt>
      <trkpt lat="42.65883" lon="18.16272">
        <ele>341</ele>
        <time>2016-07-23T18:48:06Z</time>
      </trkpt>
      <trkpt lat="42.65887" lon="18.16275">
        <ele>341</ele>
        <time>2016-07-23T18:50:06Z</time>
      </trkpt>
      <trkpt lat="42.6589" lon="18.16278">
        <ele>341</ele>
        <time>2016-07-23T18:52:06Z</time>
      </trkpt>
      <trkpt lat="42.65895" lon="18.16282">
        <ele>341</ele>
        <time>2016-07-23T18:54:06Z</time>
      </trkpt>
      <trkpt lat="42.65898" lon="18.16284">
        <ele>341</ele>
        <time>2016-07-23T18:56:06Z</time>
      </trkpt>
      <trkpt lat="42.659" lon="18.16287">
        <ele>341</ele>
        <time>2016-07-23T18:58:06Z</time>
      </trkpt>
      <trkpt lat="42.65902" lon="18.16289">
        <ele>342</ele>
        <time>2016-07-23T19:00:06Z</time>
      </trkpt>
      <trkpt lat="42.65903" lon="18.16292">
        <ele>342</ele>
        <time>2016-07-23T19:02:06Z</time>
      </trkpt>
      <trkpt lat="42.65905" lon="18.16294">
        <ele>342</ele>
        <time>2016-07-23T19:04:06Z</time>
      </trkpt>
      <trkpt lat="42.65906" lon="18.16298">
        <ele>342</ele>
        <time>2016-07-23T19:06:06Z</time>
      </trkpt>
      <trkpt lat="42.65908" lon="18.16303">
        <ele>342</ele>
        <time>2016-07-23T19:08:06Z</time>
      </trkpt>
      <trkpt lat="42.6591" lon="18.16308">
        <ele>342</ele>
        <time>2016-07-23T19:10:06Z</time>
      </trkpt>
      <trkpt lat="42.65911" lon="18.16312">
        <ele>342</ele>
        <time>2016-07-23T19:12:06Z</time>
      </trkpt>
      <trkpt lat="42.65912" lon="18.16317">
        <ele>342</ele>
        <time>2016-07-23T19:14:06Z</time>
      </trkpt>
      <trkpt lat="42.65913" lon="18.16322">
        <ele>342</ele>
        <time>2016-07-23T19:16:06Z</time>
      </trkpt>
      <trkpt lat="42.65914" lon="18.16329">
        <ele>342</ele>
        <time>2016-07-23T19:18:06Z</time>
      </trkpt>
      <trkpt lat="42.65916" lon="18.16338">
        <ele>343</ele>
        <time>2016-07-23T19:20:06Z</time>
      </trkpt>
      <trkpt lat="42.65917" lon="18.16349">
        <ele>343</ele>
        <time>2016-07-23T19:22:06Z</time>
      </trkpt>
      <trkpt lat="42.65917" lon="18.16428">
        <ele>345</ele>
        <time>2016-07-23T19:24:06Z</time>
      </trkpt>
      <trkpt lat="42.65918" lon="18.16473">
        <ele>345</ele>
        <time>2016-07-23T19:26:06Z</time>
      </trkpt>
      <trkpt lat="42.65918" lon="18.16494">
        <ele>345</ele>
        <time>2016-07-23T19:28:06Z</time>
      </trkpt>
      <trkpt lat="42.6592" lon="18.16511">
        <ele>345</ele>
        <time>2016-07-23T19:30:06Z</time>
      </trkpt>
      <trkpt lat="42.65926" lon="18.16551">
        <ele>346</ele>
        <time>2016-07-23T19:32:06Z</time>
      </trkpt>
      <trkpt lat="42.65935" lon="18.16596">
        <ele>347</ele>
        <time>2016-07-23T19:34:06Z</time>
      </trkpt>
      <trkpt lat="42.65943" lon="18.16639">
        <ele>349</ele>
        <time>2016-07-23T19:36:06Z</time>
      </trkpt>
      <trkpt lat="42.65946" lon="18.16662">
        <ele>350</ele>
        <time>2016-07-23T19:38:06Z</time>
      </trkpt>
      <trkpt lat="42.65948" lon="18.16681">
        <ele>350</ele>
        <time>2016-07-23T19:40:06Z</time>
      </trkpt>
      <trkpt lat="42.6595" lon="18.16681">
        <ele>350</ele>
        <time>2016-07-23T19:42:06Z</time>
      </trkpt>
      <trkpt lat="42.65948" lon="18.16685">
        <ele>350</ele>
        <time>2016-07-23T19:44:06Z</time>
      </trkpt>
      <trkpt lat="42.65948" lon="18.16694">
        <ele>350</ele>
        <time>2016-07-23T19:46:06Z</time>
      </trkpt>
      <trkpt lat="42.65949" lon="18.16704">
        <ele>351</ele>
        <time>2016-07-23T19:48:06Z</time>
      </trkpt>
      <trkpt lat="42.65949" lon="18.16716">
        <ele>351</ele>
        <time>2016-07-23T19:50:06Z</time>
      </trkpt>
      <trkpt lat="42.65948" lon="18.16727">
        <ele>351</ele>
        <time>2016-07-23T19:52:06Z</time>
      </trkpt>
      <trkpt lat="42.65948" lon="18.16738">
        <ele>351</ele>
        <time>2016-07-23T19:54:06Z</time>
      </trkpt>
      <trkpt lat="42.65947" lon="18.16749">
        <ele>352</ele>
        <time>2016-07-23T19:56:06Z</time>
      </trkpt>
      <trkpt lat="42.65946" lon="18.16758">
        <ele>351</ele>
        <time>2016-07-23T19:58:06Z</time>
      </trkpt>
      <trkpt lat="42.65945" lon="18.1677">
        <ele>350</ele>
        <time>2016-07-23T20:00:06Z</time>
      </trkpt>
      <trkpt lat="42.65942" lon="18.16785">
        <ele>349</ele>
        <time>2016-07-23T20:02:06Z</time>
      </trkpt>
      <trkpt lat="42.65938" lon="18.16819">
        <ele>346</ele>
        <time>2016-07-23T20:04:06Z</time>
      </trkpt>
      <trkpt lat="42.65935" lon="18.16856">
        <ele>343</ele>
        <time>2016-07-23T20:06:06Z</time>
      </trkpt>
      <trkpt lat="42.65929" lon="18.16896">
        <ele>341</ele>
        <time>2016-07-23T20:08:06Z</time>
      </trkpt>
      <trkpt lat="42.65926" lon="18.16922">
        <ele>341</ele>
        <time>2016-07-23T20:10:06Z</time>
      </trkpt>
      <trkpt lat="42.65923" lon="18.16955">
        <ele>343</ele>
        <time>2016-07-23T20:12:06Z</time>
      </trkpt>
      <trkpt lat="42.65918" lon="18.17012">
        <ele>348</ele>
        <time>2016-07-23T20:14:06Z</time>
      </trkpt>
      <trkpt lat="42.65915" lon="18.17043">
        <ele>351</ele>
        <time>2016-07-23T20:16:06Z</time>
      </trkpt>
      <trkpt lat="42.65914" lon="18.17057">
        <ele>352</ele>
        <time>2016-07-23T20:18:06Z</time>
      </trkpt>
      <trkpt lat="42.65911" lon="18.17077">
        <ele>353</ele>
        <time>2016-07-23T20:20:06Z</time>
      </trkpt>
      <trkpt lat="42.6591" lon="18.1709">
        <ele>355</ele>
        <time>2016-07-23T20:22:06Z</time>
      </trkpt>
      <trkpt lat="42.65908" lon="18.17105">
        <ele>356</ele>
        <time>2016-07-23T20:24:06Z</time>
      </trkpt>
      <trkpt lat="42.65906" lon="18.17117">
        <ele>358</ele>
        <time>2016-07-23T20:26:06Z</time>
      </trkpt>
      <trkpt lat="42.65905" lon="18.17125">
        <ele>359</ele>
        <time>2016-07-23T20:28:06Z</time>
      </trkpt>
      <trkpt lat="42.65904" lon="18.1713">
        <ele>359</ele>
        <time>2016-07-23T20:30:06Z</time>
      </trkpt>
      <trkpt lat="42.65902" lon="18.17139">
        <ele>360</ele>
        <time>2016-07-23T20:32:06Z</time>
      </trkpt>
      <trkpt lat="42.65899" lon="18.17148">
        <ele>360</ele>
        <time>2016-07-23T20:34:06Z</time>
      </trkpt>
      <trkpt lat="42.65896" lon="18.17155">
        <ele>360</ele>
        <time>2016-07-23T20:36:06Z</time>
      </trkpt>
      <trkpt lat="42.65893" lon="18.17162">
        <ele>361</ele>
        <time>2016-07-23T20:38:06Z</time>
      </trkpt>
      <trkpt lat="42.65889" lon="18.17168">
        <ele>360</ele>
        <time>2016-07-23T20:40:06Z</time>
      </trkpt>
      <trkpt lat="42.65886" lon="18.17173">
        <ele>361</ele>
        <time>2016-07-23T20:42:06Z</time>
      </trkpt>
      <trkpt lat="42.65882" lon="18.17178">
        <ele>361</ele>
        <time>2016-07-23T20:44:06Z</time>
      </trkpt>
      <trkpt lat="42.65877" lon="18.17183">
        <ele>360</ele>
        <time>2016-07-23T20:46:06Z</time>
      </trkpt>
      <trkpt lat="42.65872" lon="18.17189">
        <ele>360</ele>
        <time>2016-07-23T20:48:06Z</time>
      </trkpt>
      <trkpt lat="42.65866" lon="18.17193">
        <ele>360</ele>
        <time>2016-07-23T20:50:06Z</time>
      </trkpt>
      <trkpt lat="42.65858" lon="18.17197">
        <ele>358</ele>
        <time>2016-07-23T20:52:06Z</time>
      </trkpt>
      <trkpt lat="42.65848" lon="18.17202">
        <ele>356</ele>
        <time>2016-07-23T20:54:06Z</time>
      </trkpt>
      <trkpt lat="42.65842" lon="18.17205">
        <ele>355</ele>
        <time>2016-07-23T20:56:06Z</time>
      </trkpt>
      <trkpt lat="42.65833" lon="18.17208">
        <ele>353</ele>
        <time>2016-07-23T20:58:06Z</time>
      </trkpt>
      <trkpt lat="42.65825" lon="18.17212">
        <ele>351</ele>
        <time>2016-07-23T21:00:06Z</time>
      </trkpt>
      <trkpt lat="42.65817" lon="18.17216">
        <ele>348</ele>
        <time>2016-07-23T21:02:06Z</time>
      </trkpt>
      <trkpt lat="42.65814" lon="18.17219">
        <ele>348</ele>
        <time>2016-07-23T21:04:06Z</time>
      </trkpt>
      <trkpt lat="42.65809" lon="18.17222">
        <ele>346</ele>
        <time>2016-07-23T21:06:06Z</time>
      </trkpt>
      <trkpt lat="42.65806" lon="18.17226">
        <ele>346</ele>
        <time>2016-07-23T21:08:06Z</time>
      </trkpt>
      <trkpt lat="42.65803" lon="18.17229">
        <ele>346</ele>
        <time>2016-07-23T21:10:06Z</time>
      </trkpt>
      <trkpt lat="42.658" lon="18.17232">
        <ele>345</ele>
        <time>2016-07-23T21:12:06Z</time>
      </trkpt>
      <trkpt lat="42.65796" lon="18.17237">
        <ele>344</ele>
        <time>2016-07-23T21:14:06Z</time>
      </trkpt>
      <trkpt lat="42.65793" lon="18.17243">
        <ele>345</ele>
        <time>2016-07-23T21:16:06Z</time>
      </trkpt>
      <trkpt lat="42.65792" lon="18.17248">
        <ele>346</ele>
        <time>2016-07-23T21:18:06Z</time>
      </trkpt>
      <trkpt lat="42.65791" lon="18.17254">
        <ele>346</ele>
        <time>2016-07-23T21:20:06Z</time>
      </trkpt>
      <trkpt lat="42.65789" lon="18.17261">
        <ele>346</ele>
        <time>2016-07-23T21:22:06Z</time>
      </trkpt>
      <trkpt lat="42.65788" lon="18.17271">
        <ele>347</ele>
        <time>2016-07-23T21:24:06Z</time>
      </trkpt>
      <trkpt lat="42.65788" lon="18.1728">
        <ele>348</ele>
        <time>2016-07-23T21:26:06Z</time>
      </trkpt>
      <trkpt lat="42.65789" lon="18.17291">
        <ele>350</ele>
        <time>2016-07-23T21:28:06Z</time>
      </trkpt>
      <trkpt lat="42.65788" lon="18.17297">
        <ele>350</ele>
        <time>2016-07-23T21:30:06Z</time>
      </trkpt>
      <trkpt lat="42.65788" lon="18.17303">
        <ele>351</ele>
        <time>2016-07-23T21:32:06Z</time>
      </trkpt>
      <trkpt lat="42.65787" lon="18.1731">
        <ele>351</ele>
        <time>2016-07-23T21:34:06Z</time>
      </trkpt>
      <trkpt lat="42.65787" lon="18.17318">
        <ele>352</ele>
        <time>2016-07-23T21:36:06Z</time>
      </trkpt>
      <trkpt lat="42.65785" lon="18.17326">
        <ele>352</ele>
        <time>2016-07-23T21:38:06Z</time>
      </trkpt>
      <trkpt lat="42.65784" lon="18.17336">
        <ele>352</ele>
        <time>2016-07-23T21:40:06Z</time>
      </trkpt>
      <trkpt lat="42.65782" lon="18.17345">
        <ele>352</ele>
        <time>2016-07-23T21:42:06Z</time>
      </trkpt>
      <trkpt lat="42.65779" lon="18.17354">
        <ele>351</ele>
        <time>2016-07-23T21:44:06Z</time>
      </trkpt>
      <trkpt lat="42.65776" lon="18.17365">
        <ele>351</ele>
        <time>2016-07-23T21:46:06Z</time>
      </trkpt>
      <trkpt lat="42.65773" lon="18.17374">
        <ele>350</ele>
        <time>2016-07-23T21:48:06Z</time>
      </trkpt>
      <trkpt lat="42.65769" lon="18.17387">
        <ele>349</ele>
        <time>2016-07-23T21:50:06Z</time>
      </trkpt>
      <trkpt lat="42.65764" lon="18.17402">
        <ele>348</ele>
        <time>2016-07-23T21:52:06Z</time>
      </trkpt>
      <trkpt lat="42.65762" lon="18.17411">
        <ele>348</ele>
        <time>2016-07-23T21:54:06Z</time>
      </trkpt>
      <trkpt lat="42.65759" lon="18.17423">
        <ele>346</ele>
        <time>2016-07-23T21:56:06Z</time>
      </trkpt>
      <trkpt lat="42.65758" lon="18.17428">
        <ele>346</ele>
        <time>2016-07-23T21:58:06Z</time>
      </trkpt>
      <trkpt lat="42.65758" lon="18.17435">
        <ele>346</ele>
        <time>2016-07-23T22:00:06Z</time>
      </trkpt>
      <trkpt lat="42.65758" lon="18.17442">
        <ele>346</ele>
        <time>2016-07-23T22:02:06Z</time>
      </trkpt>
      <trkpt lat="42.65758" lon="18.17449">
        <ele>345</ele>
        <time>2016-07-23T22:04:06Z</time>
      </trkpt>
      <trkpt lat="42.65758" lon="18.17455">
        <ele>345</ele>
        <time>2016-07-23T22:06:06Z</time>
      </trkpt>
      <trkpt lat="42.65759" lon="18.17462">
        <ele>346</ele>
        <time>2016-07-23T22:08:06Z</time>
      </trkpt>
      <trkpt lat="42.65761" lon="18.17468">
        <ele>346</ele>
        <time>2016-07-23T22:10:06Z</time>
      </trkpt>
      <trkpt lat="42.65765" lon="18.17479">
        <ele>347</ele>
        <time>2016-07-23T22:12:06Z</time>
      </trkpt>
      <trkpt lat="42.65768" lon="18.17487">
        <ele>348</ele>
        <time>2016-07-23T22:14:06Z</time>
      </trkpt>
      <trkpt lat="42.65771" lon="18.17492">
        <ele>349</ele>
        <time>2016-07-23T22:16:06Z</time>
      </trkpt>
      <trkpt lat="42.65775" lon="18.17498">
        <ele>350</ele>
        <time>2016-07-23T22:18:06Z</time>
      </trkpt>
      <trkpt lat="42.65781" lon="18.17505">
        <ele>345</ele>
        <time>2016-07-23T22:20:06Z</time>
      </trkpt>
      <trkpt lat="42.65787" lon="18.17512">
        <ele>345</ele>
        <time>2016-07-23T22:22:06Z</time>
      </trkpt>
      <trkpt lat="42.65793" lon="18.17516">
        <ele>345</ele>
        <time>2016-07-23T22:24:06Z</time>
      </trkpt>
      <trkpt lat="42.658" lon="18.1752">
        <ele>345</ele>
        <time>2016-07-23T22:26:06Z</time>
      </trkpt>
      <trkpt lat="42.65808" lon="18.17525">
        <ele>345</ele>
        <time>2016-07-23T22:28:06Z</time>
      </trkpt>
      <trkpt lat="42.65819" lon="18.17529">
        <ele>345</ele>
        <time>2016-07-23T22:30:06Z</time>
      </trkpt>
      <trkpt lat="42.65853" lon="18.17545">
        <ele>349</ele>
        <time>2016-07-23T22:32:06Z</time>
      </trkpt>
      <trkpt lat="42.65871" lon="18.17553">
        <ele>350</ele>
        <time>2016-07-23T22:34:06Z</time>
      </trkpt>
      <trkpt lat="42.65882" lon="18.17558">
        <ele>351</ele>
        <time>2016-07-23T22:36:06Z</time>
      </trkpt>
      <trkpt lat="42.6589" lon="18.1756">
        <ele>352</ele>
        <time>2016-07-23T22:38:06Z</time>
      </trkpt>
      <trkpt lat="42.65899" lon="18.17562">
        <ele>353</ele>
        <time>2016-07-23T22:40:06Z</time>
      </trkpt>
      <trkpt lat="42.65905" lon="18.17563">
        <ele>354</ele>
        <time>2016-07-23T22:42:06Z</time>
      </trkpt>
      <trkpt lat="42.65913" lon="18.17564">
        <ele>356</ele>
        <time>2016-07-23T22:44:06Z</time>
      </trkpt>
      <trkpt lat="42.65925" lon="18.17564">
        <ele>358</ele>
        <time>2016-07-23T22:46:06Z</time>
      </trkpt>
      <trkpt lat="42.65936" lon="18.17564">
        <ele>359</ele>
        <time>2016-07-23T22:48:06Z</time>
      </trkpt>
      <trkpt lat="42.65943" lon="18.17564">
        <ele>359</ele>
        <time>2016-07-23T22:50:06Z</time>
      </trkpt>
      <trkpt lat="42.65961" lon="18.17563">
        <ele>361</ele>
        <time>2016-07-23T22:52:06Z</time>
      </trkpt>
      <trkpt lat="42.65971" lon="18.17564">
        <ele>361</ele>
        <time>2016-07-23T22:54:06Z</time>
      </trkpt>
      <trkpt lat="42.65977" lon="18.17564">
        <ele>362</ele>
        <time>2016-07-23T22:56:06Z</time>
      </trkpt>
      <trkpt lat="42.65983" lon="18.17566">
        <ele>362</ele>
        <time>2016-07-23T22:58:06Z</time>
      </trkpt>
      <trkpt lat="42.65988" lon="18.17568">
        <ele>362</ele>
        <time>2016-07-23T23:00:06Z</time>
      </trkpt>
      <trkpt lat="42.65993" lon="18.17569">
        <ele>362</ele>
        <time>2016-07-23T23:02:06Z</time>
      </trkpt>
      <trkpt lat="42.66001" lon="18.17573">
        <ele>362</ele>
        <time>2016-07-23T23:04:06Z</time>
      </trkpt>
      <trkpt lat="42.66008" lon="18.17576">
        <ele>363</ele>
        <time>2016-07-23T23:06:06Z</time>
      </trkpt>
      <trkpt lat="42.66016" lon="18.17581">
        <ele>363</ele>
        <time>2016-07-23T23:08:06Z</time>
      </trkpt>
      <trkpt lat="42.66026" lon="18.17587">
        <ele>364</ele>
        <time>2016-07-23T23:10:06Z</time>
      </trkpt>
      <trkpt lat="42.66056" lon="18.17604">
        <ele>366</ele>
        <time>2016-07-23T23:12:06Z</time>
      </trkpt>
      <trkpt lat="42.66079" lon="18.17618">
        <ele>370</ele>
        <time>2016-07-23T23:14:06Z</time>
      </trkpt>
      <trkpt lat="42.66091" lon="18.17629">
        <ele>372</ele>
        <time>2016-07-23T23:16:06Z</time>
      </trkpt>
      <trkpt lat="42.66098" lon="18.1764">
        <ele>372</ele>
        <time>2016-07-23T23:18:06Z</time>
      </trkpt>
      <trkpt lat="42.66104" lon="18.17649">
        <ele>373</ele>
        <time>2016-07-23T23:20:06Z</time>
      </trkpt>
      <trkpt lat="42.66136" lon="18.17712">
        <ele>372</ele>
        <time>2016-07-23T23:22:06Z</time>
      </trkpt>
      <trkpt lat="42.66161" lon="18.17759">
        <ele>374</ele>
        <time>2016-07-23T23:24:06Z</time>
      </trkpt>
      <trkpt lat="42.66166" lon="18.17769">
        <ele>376</ele>
        <time>2016-07-23T23:26:06Z</time>
      </trkpt>
      <trkpt lat="42.6617" lon="18.17776">
        <ele>377</ele>
        <time>2016-07-23T23:28:06Z</time>
      </trkpt>
      <trkpt lat="42.66173" lon="18.17782">
        <ele>377</ele>
        <time>2016-07-23T23:30:06Z</time>
      </trkpt>
      <trkpt lat="42.66176" lon="18.17788">
        <ele>378</ele>
        <time>2016-07-23T23:32:06Z</time>
      </trkpt>
      <trkpt lat="42.66177" lon="18.17793">
        <ele>378</ele>
        <time>2016-07-23T23:34:06Z</time>
      </trkpt>
      <trkpt lat="42.66178" lon="18.17799">
        <ele>378</ele>
        <time>2016-07-23T23:36:06Z</time>
      </trkpt>
      <trkpt lat="42.6618" lon="18.17805">
        <ele>379</ele>
        <time>2016-07-23T23:38:06Z</time>
      </trkpt>
      <trkpt lat="42.6618" lon="18.1781">
        <ele>379</ele>
        <time>2016-07-23T23:40:06Z</time>
      </trkpt>
      <trkpt lat="42.6618" lon="18.17815">
        <ele>379</ele>
        <time>2016-07-23T23:42:06Z</time>
      </trkpt>
      <trkpt lat="42.6618" lon="18.17819">
        <ele>378</ele>
        <time>2016-07-23T23:44:06Z</time>
      </trkpt>
      <trkpt lat="42.6618" lon="18.17822">
        <ele>378</ele>
        <time>2016-07-23T23:46:06Z</time>
      </trkpt>
      <trkpt lat="42.6618" lon="18.17828">
        <ele>378</ele>
        <time>2016-07-23T23:48:06Z</time>
      </trkpt>
      <trkpt lat="42.66179" lon="18.17832">
        <ele>378</ele>
        <time>2016-07-23T23:50:06Z</time>
      </trkpt>
      <trkpt lat="42.66178" lon="18.17837">
        <ele>378</ele>
        <time>2016-07-23T23:52:06Z</time>
      </trkpt>
      <trkpt lat="42.66176" lon="18.17843">
        <ele>379</ele>
        <time>2016-07-23T23:54:06Z</time>
      </trkpt>
      <trkpt lat="42.66173" lon="18.17847">
        <ele>379</ele>
        <time>2016-07-23T23:56:06Z</time>
      </trkpt>
      <trkpt lat="42.6617" lon="18.17854">
        <ele>379</ele>
        <time>2016-07-23T23:58:06Z</time>
      </trkpt>
      <trkpt lat="42.66167" lon="18.17858">
        <ele>379</ele>
        <time>2016-07-24T00:00:06Z</time>
      </trkpt>
      <trkpt lat="42.66163" lon="18.17862">
        <ele>379</ele>
        <time>2016-07-24T00:02:06Z</time>
      </trkpt>
      <trkpt lat="42.66159" lon="18.17866">
        <ele>379</ele>
        <time>2016-07-24T00:04:06Z</time>
      </trkpt>
      <trkpt lat="42.66155" lon="18.1787">
        <ele>378</ele>
        <time>2016-07-24T00:06:06Z</time>
      </trkpt>
      <trkpt lat="42.6615" lon="18.17873">
        <ele>378</ele>
        <time>2016-07-24T00:08:06Z</time>
      </trkpt>
      <trkpt lat="42.66145" lon="18.17876">
        <ele>378</ele>
        <time>2016-07-24T00:10:06Z</time>
      </trkpt>
      <trkpt lat="42.66139" lon="18.17879">
        <ele>377</ele>
        <time>2016-07-24T00:12:06Z</time>
      </trkpt>
      <trkpt lat="42.66086" lon="18.179">
        <ele>374</ele>
        <time>2016-07-24T00:14:06Z</time>
      </trkpt>
      <trkpt lat="42.66082" lon="18.17902">
        <ele>374</ele>
        <time>2016-07-24T00:16:06Z</time>
      </trkpt>
      <trkpt lat="42.66076" lon="18.17905">
        <ele>374</ele>
        <time>2016-07-24T00:18:06Z</time>
      </trkpt>
      <trkpt lat="42.66065" lon="18.17911">
        <ele>374</ele>
        <time>2016-07-24T00:20:06Z</time>
      </trkpt>
      <trkpt lat="42.66059" lon="18.17915">
        <ele>375</ele>
        <time>2016-07-24T00:22:06Z</time>
      </trkpt>
      <trkpt lat="42.66054" lon="18.17918">
        <ele>375</ele>
        <time>2016-07-24T00:24:06Z</time>
      </trkpt>
      <trkpt lat="42.66048" lon="18.17922">
        <ele>374</ele>
        <time>2016-07-24T00:26:06Z</time>
      </trkpt>
      <trkpt lat="42.66043" lon="18.17925">
        <ele>374</ele>
        <time>2016-07-24T00:28:06Z</time>
      </trkpt>
      <trkpt lat="42.66039" lon="18.1793">
        <ele>374</ele>
        <time>2016-07-24T00:30:06Z</time>
      </trkpt>
      <trkpt lat="42.66034" lon="18.17936">
        <ele>374</ele>
        <time>2016-07-24T00:32:06Z</time>
      </trkpt>
      <trkpt lat="42.66031" lon="18.17941">
        <ele>375</ele>
        <time>2016-07-24T00:34:06Z</time>
      </trkpt>
      <trkpt lat="42.66028" lon="18.17947">
        <ele>375</ele>
        <time>2016-07-24T00:36:06Z</time>
      </trkpt>
      <trkpt lat="42.66025" lon="18.17954">
        <ele>376</ele>
        <time>2016-07-24T00:38:06Z</time>
      </trkpt>
      <trkpt lat="42.66022" lon="18.17964">
        <ele>377</ele>
        <time>2016-07-24T00:40:06Z</time>
      </trkpt>
      <trkpt lat="42.66019" lon="18.17973">
        <ele>378</ele>
        <time>2016-07-24T00:42:06Z</time>
      </trkpt>
      <trkpt lat="42.66016" lon="18.17984">
        <ele>379</ele>
        <time>2016-07-24T00:44:06Z</time>
      </trkpt>
      <trkpt lat="42.66008" lon="18.18025">
        <ele>382</ele>
        <time>2016-07-24T00:46:06Z</time>
      </trkpt>
      <trkpt lat="42.66006" lon="18.18034">
        <ele>383</ele>
        <time>2016-07-24T00:48:06Z</time>
      </trkpt>
      <trkpt lat="42.66005" lon="18.18041">
        <ele>383</ele>
        <time>2016-07-24T00:50:06Z</time>
      </trkpt>
      <trkpt lat="42.66003" lon="18.18048">
        <ele>384</ele>
        <time>2016-07-24T00:52:06Z</time>
      </trkpt>
      <trkpt lat="42.66002" lon="18.18052">
        <ele>384</ele>
        <time>2016-07-24T00:54:06Z</time>
      </trkpt>
      <trkpt lat="42.66001" lon="18.18056">
        <ele>384</ele>
        <time>2016-07-24T00:56:06Z</time>
      </trkpt>
      <trkpt lat="42.66001" lon="18.18056">
        <ele>384</ele>
        <time>2016-07-24T00:58:06Z</time>
      </trkpt>
      <trkpt lat="42.66" lon="18.18061">
        <ele>384</ele>
        <time>2016-07-24T01:00:06Z</time>
      </trkpt>
      <trkpt lat="42.65997" lon="18.18066">
        <ele>384</ele>
        <time>2016-07-24T01:02:06Z</time>
      </trkpt>
      <trkpt lat="42.65995" lon="18.18072">
        <ele>384</ele>
        <time>2016-07-24T01:04:06Z</time>
      </trkpt>
      <trkpt lat="42.65991" lon="18.18079">
        <ele>384</ele>
        <time>2016-07-24T01:06:06Z</time>
      </trkpt>
      <trkpt lat="42.65987" lon="18.18083">
        <ele>384</ele>
        <time>2016-07-24T01:08:06Z</time>
      </trkpt>
      <trkpt lat="42.65983" lon="18.18089">
        <ele>385</ele>
        <time>2016-07-24T01:10:06Z</time>
      </trkpt>
      <trkpt lat="42.65978" lon="18.18096">
        <ele>385</ele>
        <time>2016-07-24T01:12:06Z</time>
      </trkpt>
      <trkpt lat="42.65973" lon="18.18101">
        <ele>386</ele>
        <time>2016-07-24T01:14:06Z</time>
      </trkpt>
      <trkpt lat="42.65969" lon="18.18107">
        <ele>386</ele>
        <time>2016-07-24T01:16:06Z</time>
      </trkpt>
      <trkpt lat="42.65962" lon="18.18114">
        <ele>386</ele>
        <time>2016-07-24T01:18:06Z</time>
      </trkpt>
      <trkpt lat="42.65956" lon="18.18121">
        <ele>387</ele>
        <time>2016-07-24T01:20:06Z</time>
      </trkpt>
      <trkpt lat="42.65938" lon="18.18137">
        <ele>387</ele>
        <time>2016-07-24T01:22:06Z</time>
      </trkpt>
      <trkpt lat="42.65923" lon="18.18149">
        <ele>386</ele>
        <time>2016-07-24T01:24:06Z</time>
      </trkpt>
      <trkpt lat="42.65891" lon="18.18174">
        <ele>387</ele>
        <time>2016-07-24T01:26:06Z</time>
      </trkpt>
      <trkpt lat="42.65873" lon="18.18189">
        <ele>388</ele>
        <time>2016-07-24T01:28:06Z</time>
      </trkpt>
      <trkpt lat="42.65859" lon="18.182">
        <ele>389</ele>
        <time>2016-07-24T01:30:06Z</time>
      </trkpt>
      <trkpt lat="42.65848" lon="18.18208">
        <ele>390</ele>
        <time>2016-07-24T01:32:06Z</time>
      </trkpt>
      <trkpt lat="42.6584" lon="18.18212">
        <ele>390</ele>
        <time>2016-07-24T01:34:06Z</time>
      </trkpt>
      <trkpt lat="42.65834" lon="18.18216">
        <ele>390</ele>
        <time>2016-07-24T01:36:06Z</time>
      </trkpt>
      <trkpt lat="42.6583" lon="18.18218">
        <ele>390</ele>
        <time>2016-07-24T01:38:06Z</time>
      </trkpt>
      <trkpt lat="42.65822" lon="18.18221">
        <ele>391</ele>
        <time>2016-07-24T01:40:06Z</time>
      </trkpt>
      <trkpt lat="42.65807" lon="18.18225">
        <ele>392</ele>
        <time>2016-07-24T01:42:06Z</time>
      </trkpt>
      <trkpt lat="42.65796" lon="18.18228">
        <ele>393</ele>
        <time>2016-07-24T01:44:06Z</time>
      </trkpt>
      <trkpt lat="42.65785" lon="18.18229">
        <ele>393</ele>
        <time>2016-07-24T01:46:06Z</time>
      </trkpt>
      <trkpt lat="42.65777" lon="18.1823">
        <ele>393</ele>
        <time>2016-07-24T01:48:06Z</time>
      </trkpt>
      <trkpt lat="42.65741" lon="18.18229">
        <ele>391</ele>
        <time>2016-07-24T01:50:06Z</time>
      </trkpt>
      <trkpt lat="42.65736" lon="18.18229">
        <ele>391</ele>
        <time>2016-07-24T01:52:06Z</time>
      </trkpt>
      <trkpt lat="42.65732" lon="18.18229">
        <ele>390</ele>
        <time>2016-07-24T01:54:06Z</time>
      </trkpt>
      <trkpt lat="42.65728" lon="18.18229">
        <ele>390</ele>
        <time>2016-07-24T01:56:06Z</time>
      </trkpt>
      <trkpt lat="42.65725" lon="18.18228">
        <ele>389</ele>
        <time>2016-07-24T01:58:06Z</time>
      </trkpt>
      <trkpt lat="42.6572" lon="18.18229">
        <ele>389</ele>
        <time>2016-07-24T02:00:06Z</time>
      </trkpt>
      <trkpt lat="42.65716" lon="18.18229">
        <ele>388</ele>
        <time>2016-07-24T02:02:06Z</time>
      </trkpt>
      <trkpt lat="42.65712" lon="18.18229">
        <ele>388</ele>
        <time>2016-07-24T02:04:06Z</time>
      </trkpt>
      <trkpt lat="42.65708" lon="18.1823">
        <ele>388</ele>
        <time>2016-07-24T02:06:06Z</time>
      </trkpt>
      <trkpt lat="42.65702" lon="18.18231">
        <ele>387</ele>
        <time>2016-07-24T02:08:06Z</time>
      </trkpt>
      <trkpt lat="42.65693" lon="18.18234">
        <ele>387</ele>
        <time>2016-07-24T02:10:06Z</time>
      </trkpt>
      <trkpt lat="42.65686" lon="18.18238">
        <ele>387</ele>
        <time>2016-07-24T02:12:06Z</time>
      </trkpt>
      <trkpt lat="42.65678" lon="18.18242">
        <ele>387</ele>
        <time>2016-07-24T02:14:06Z</time>
      </trkpt>
      <trkpt lat="42.65671" lon="18.18247">
        <ele>388</ele>
        <time>2016-07-24T02:16:06Z</time>
      </trkpt>
      <trkpt lat="42.65666" lon="18.18252">
        <ele>388</ele>
        <time>2016-07-24T02:18:06Z</time>
      </trkpt>
      <trkpt lat="42.6566" lon="18.18257">
        <ele>386</ele>
        <time>2016-07-24T02:20:06Z</time>
      </trkpt>
      <trkpt lat="42.65654" lon="18.18263">
        <ele>384</ele>
        <time>2016-07-24T02:22:06Z</time>
      </trkpt>
      <trkpt lat="42.6565" lon="18.18269">
        <ele>383</ele>
        <time>2016-07-24T02:24:06Z</time>
      </trkpt>
      <trkpt lat="42.65646" lon="18.18275">
        <ele>382</ele>
        <time>2016-07-24T02:26:06Z</time>
      </trkpt>
      <trkpt lat="42.65641" lon="18.18283">
        <ele>381</ele>
        <time>2016-07-24T02:28:06Z</time>
      </trkpt>
      <trkpt lat="42.65636" lon="18.18294">
        <ele>380</ele>
        <time>2016-07-24T02:30:06Z</time>
      </trkpt>
      <trkpt lat="42.65633" lon="18.18304">
        <ele>380</ele>
        <time>2016-07-24T02:32:06Z</time>
      </trkpt>
      <trkpt lat="42.65629" lon="18.18315">
        <ele>380</ele>
        <time>2016-07-24T02:34:06Z</time>
      </trkpt>
      <trkpt lat="42.65628" lon="18.18325">
        <ele>381</ele>
        <time>2016-07-24T02:36:06Z</time>
      </trkpt>
      <trkpt lat="42.65626" lon="18.18332">
        <ele>381</ele>
        <time>2016-07-24T02:38:06Z</time>
      </trkpt>
      <trkpt lat="42.65626" lon="18.18342">
        <ele>382</ele>
        <time>2016-07-24T02:40:06Z</time>
      </trkpt>
      <trkpt lat="42.65626" lon="18.18352">
        <ele>382</ele>
        <time>2016-07-24T02:42:06Z</time>
      </trkpt>
      <trkpt lat="42.65626" lon="18.18361">
        <ele>382</ele>
        <time>2016-07-24T02:44:06Z</time>
      </trkpt>
      <trkpt lat="42.65627" lon="18.18371">
        <ele>383</ele>
        <time>2016-07-24T02:46:06Z</time>
      </trkpt>
      <trkpt lat="42.65629" lon="18.18381">
        <ele>384</ele>
        <time>2016-07-24T02:48:06Z</time>
      </trkpt>
      <trkpt lat="42.65631" lon="18.18389">
        <ele>385</ele>
        <time>2016-07-24T02:50:06Z</time>
      </trkpt>
      <trkpt lat="42.65633" lon="18.18396">
        <ele>385</ele>
        <time>2016-07-24T02:52:06Z</time>
      </trkpt>
      <trkpt lat="42.65636" lon="18.18403">
        <ele>387</ele>
        <time>2016-07-24T02:54:06Z</time>
      </trkpt>
      <trkpt lat="42.6564" lon="18.18412">
        <ele>388</ele>
        <time>2016-07-24T02:56:06Z</time>
      </trkpt>
      <trkpt lat="42.65645" lon="18.18421">
        <ele>389</ele>
        <time>2016-07-24T02:58:06Z</time>
      </trkpt>
      <trkpt lat="42.65652" lon="18.18433">
        <ele>391</ele>
        <time>2016-07-24T03:00:06Z</time>
      </trkpt>
      <trkpt lat="42.65654" lon="18.18436">
        <ele>391</ele>
        <time>2016-07-24T03:02:06Z</time>
      </trkpt>
      <trkpt lat="42.65681" lon="18.18476">
        <ele>395</ele>
        <time>2016-07-24T03:04:06Z</time>
      </trkpt>
      <trkpt lat="42.65732" lon="18.18549">
        <ele>396</ele>
        <time>2016-07-24T03:06:06Z</time>
      </trkpt>
      <trkpt lat="42.65757" lon="18.18585">
        <ele>398</ele>
        <time>2016-07-24T03:08:06Z</time>
      </trkpt>
      <trkpt lat="42.65764" lon="18.18597">
        <ele>398</ele>
        <time>2016-07-24T03:10:06Z</time>
      </trkpt>
      <trkpt lat="42.65769" lon="18.18604">
        <ele>399</ele>
        <time>2016-07-24T03:12:06Z</time>
      </trkpt>
      <trkpt lat="42.65776" lon="18.18618">
        <ele>399</ele>
        <time>2016-07-24T03:14:06Z</time>
      </trkpt>
      <trkpt lat="42.65779" lon="18.18625">
        <ele>399</ele>
        <time>2016-07-24T03:16:06Z</time>
      </trkpt>
      <trkpt lat="42.65781" lon="18.1863">
        <ele>399</ele>
        <time>2016-07-24T03:18:06Z</time>
      </trkpt>
      <trkpt lat="42.65783" lon="18.18637">
        <ele>399</ele>
        <time>2016-07-24T03:20:06Z</time>
      </trkpt>
      <trkpt lat="42.65783" lon="18.18642">
        <ele>399</ele>
        <time>2016-07-24T03:22:06Z</time>
      </trkpt>
      <trkpt lat="42.65784" lon="18.1865">
        <ele>398</ele>
        <time>2016-07-24T03:24:06Z</time>
      </trkpt>
      <trkpt lat="42.65785" lon="18.18658">
        <ele>398</ele>
        <time>2016-07-24T03:26:06Z</time>
      </trkpt>
      <trkpt lat="42.65784" lon="18.18667">
        <ele>397</ele>
        <time>2016-07-24T03:28:06Z</time>
      </trkpt>
      <trkpt lat="42.65784" lon="18.18675">
        <ele>397</ele>
        <time>2016-07-24T03:30:06Z</time>
      </trkpt>
      <trkpt lat="42.65782" lon="18.18683">
        <ele>397</ele>
        <time>2016-07-24T03:32:06Z</time>
      </trkpt>
      <trkpt lat="42.65781" lon="18.18692">
        <ele>397</ele>
        <time>2016-07-24T03:34:06Z</time>
      </trkpt>
      <trkpt lat="42.65778" lon="18.18701">
        <ele>396</ele>
        <time>2016-07-24T03:36:06Z</time>
      </trkpt>
      <trkpt lat="42.65776" lon="18.18711">
        <ele>396</ele>
        <time>2016-07-24T03:38:06Z</time>
      </trkpt>
      <trkpt lat="42.65763" lon="18.18754">
        <ele>394</ele>
        <time>2016-07-24T03:40:06Z</time>
      </trkpt>
      <trkpt lat="42.65761" lon="18.18764">
        <ele>393</ele>
        <time>2016-07-24T03:42:06Z</time>
      </trkpt>
      <trkpt lat="42.6576" lon="18.18771">
        <ele>393</ele>
        <time>2016-07-24T03:44:06Z</time>
      </trkpt>
      <trkpt lat="42.65758" lon="18.18782">
        <ele>393</ele>
        <time>2016-07-24T03:46:06Z</time>
      </trkpt>
      <trkpt lat="42.65758" lon="18.18785">
        <ele>393</ele>
        <time>2016-07-24T03:48:06Z</time>
      </trkpt>
      <trkpt lat="42.65757" lon="18.18791">
        <ele>393</ele>
        <time>2016-07-24T03:50:06Z</time>
      </trkpt>
      <trkpt lat="42.65757" lon="18.18797">
        <ele>393</ele>
        <time>2016-07-24T03:52:06Z</time>
      </trkpt>
      <trkpt lat="42.65757" lon="18.18803">
        <ele>393</ele>
        <time>2016-07-24T03:54:06Z</time>
      </trkpt>
      <trkpt lat="42.65758" lon="18.18809">
        <ele>393</ele>
        <time>2016-07-24T03:56:06Z</time>
      </trkpt>
      <trkpt lat="42.65758" lon="18.18815">
        <ele>393</ele>
        <time>2016-07-24T03:58:06Z</time>
      </trkpt>
      <trkpt lat="42.65759" lon="18.1882">
        <ele>394</ele>
        <time>2016-07-24T04:00:06Z</time>
      </trkpt>
      <trkpt lat="42.65763" lon="18.18851">
        <ele>395</ele>
        <time>2016-07-24T04:02:06Z</time>
      </trkpt>
      <trkpt lat="42.65763" lon="18.18861">
        <ele>395</ele>
        <time>2016-07-24T04:04:06Z</time>
      </trkpt>
      <trkpt lat="42.65764" lon="18.18869">
        <ele>395</ele>
        <time>2016-07-24T04:06:06Z</time>
      </trkpt>
      <trkpt lat="42.65763" lon="18.18879">
        <ele>395</ele>
        <time>2016-07-24T04:08:06Z</time>
      </trkpt>
      <trkpt lat="42.65763" lon="18.18889">
        <ele>395</ele>
        <time>2016-07-24T04:10:06Z</time>
      </trkpt>
      <trkpt lat="42.65762" lon="18.189">
        <ele>395</ele>
        <time>2016-07-24T04:12:06Z</time>
      </trkpt>
      <trkpt lat="42.65761" lon="18.18911">
        <ele>395</ele>
        <time>2016-07-24T04:14:06Z</time>
      </trkpt>
      <trkpt lat="42.65759" lon="18.18922">
        <ele>395</ele>
        <time>2016-07-24T04:16:06Z</time>
      </trkpt>
      <trkpt lat="42.65757" lon="18.18932">
        <ele>395</ele>
        <time>2016-07-24T04:18:06Z</time>
      </trkpt>
      <trkpt lat="42.65755" lon="18.18942">
        <ele>395</ele>
        <time>2016-07-24T04:20:06Z</time>
      </trkpt>
      <trkpt lat="42.65753" lon="18.18952">
        <ele>396</ele>
        <time>2016-07-24T04:22:06Z</time>
      </trkpt>
      <trkpt lat="42.65751" lon="18.18962">
        <ele>396</ele>
        <time>2016-07-24T04:24:06Z</time>
      </trkpt>
      <trkpt lat="42.6575" lon="18.1897">
        <ele>396</ele>
        <time>2016-07-24T04:26:06Z</time>
      </trkpt>
      <trkpt lat="42.65748" lon="18.18979">
        <ele>397</ele>
        <time>2016-07-24T04:28:06Z</time>
      </trkpt>
      <trkpt lat="42.65747" lon="18.18989">
        <ele>397</ele>
        <time>2016-07-24T04:30:06Z</time>
      </trkpt>
      <trkpt lat="42.65746" lon="18.19001">
        <ele>398</ele>
        <time>2016-07-24T04:32:06Z</time>
      </trkpt>
      <trkpt lat="42.65746" lon="18.1901">
        <ele>398</ele>
        <time>2016-07-24T04:34:06Z</time>
      </trkpt>
      <trkpt lat="42.65746" lon="18.19018">
        <ele>397</ele>
        <time>2016-07-24T04:36:06Z</time>
      </trkpt>
      <trkpt lat="42.65746" lon="18.19025">
        <ele>397</ele>
        <time>2016-07-24T04:38:06Z</time>
      </trkpt>
      <trkpt lat="42.65752" lon="18.19078">
        <ele>398</ele>
        <time>2016-07-24T04:40:06Z</time>
      </trkpt>
      <trkpt lat="42.65752" lon="18.19085">
        <ele>398</ele>
        <time>2016-07-24T04:42:06Z</time>
      </trkpt>
      <trkpt lat="42.65752" lon="18.19091">
        <ele>398</ele>
        <time>2016-07-24T04:44:06Z</time>
      </trkpt>
      <trkpt lat="42.65752" lon="18.19099">
        <ele>399</ele>
        <time>2016-07-24T04:46:06Z</time>
      </trkpt>
      <trkpt lat="42.65751" lon="18.19106">
        <ele>399</ele>
        <time>2016-07-24T04:48:06Z</time>
      </trkpt>
      <trkpt lat="42.65749" lon="18.19113">
        <ele>400</ele>
        <time>2016-07-24T04:50:06Z</time>
      </trkpt>
      <trkpt lat="42.65747" lon="18.1912">
        <ele>400</ele>
        <time>2016-07-24T04:52:06Z</time>
      </trkpt>
      <trkpt lat="42.65745" lon="18.19126">
        <ele>400</ele>
        <time>2016-07-24T04:54:06Z</time>
      </trkpt>
      <trkpt lat="42.65742" lon="18.19132">
        <ele>400</ele>
        <time>2016-07-24T04:56:06Z</time>
      </trkpt>
      <trkpt lat="42.65737" lon="18.19142">
        <ele>399</ele>
        <time>2016-07-24T04:58:06Z</time>
      </trkpt>
      <trkpt lat="42.65733" lon="18.19149">
        <ele>399</ele>
        <time>2016-07-24T05:00:06Z</time>
      </trkpt>
      <trkpt lat="42.6573" lon="18.19154">
        <ele>399</ele>
        <time>2016-07-24T05:02:06Z</time>
      </trkpt>
      <trkpt lat="42.65726" lon="18.19159">
        <ele>398</ele>
        <time>2016-07-24T05:04:06Z</time>
      </trkpt>
      <trkpt lat="42.65703" lon="18.19183">
        <ele>395</ele>
        <time>2016-07-24T05:06:06Z</time>
      </trkpt>
      <trkpt lat="42.65696" lon="18.19191">
        <ele>394</ele>
        <time>2016-07-24T05:08:06Z</time>
      </trkpt>
      <trkpt lat="42.6569" lon="18.19198">
        <ele>394</ele>
        <time>2016-07-24T05:10:06Z</time>
      </trkpt>
      <trkpt lat="42.65687" lon="18.19203">
        <ele>394</ele>
        <time>2016-07-24T05:12:06Z</time>
      </trkpt>
      <trkpt lat="42.65683" lon="18.19209">
        <ele>394</ele>
        <time>2016-07-24T05:14:06Z</time>
      </trkpt>
      <trkpt lat="42.6568" lon="18.19216">
        <ele>394</ele>
        <time>2016-07-24T05:16:06Z</time>
      </trkpt>
      <trkpt lat="42.65676" lon="18.19224">
        <ele>394</ele>
        <time>2016-07-24T05:18:06Z</time>
      </trkpt>
      <trkpt lat="42.65674" lon="18.19231">
        <ele>394</ele>
        <time>2016-07-24T05:20:06Z</time>
      </trkpt>
      <trkpt lat="42.65671" lon="18.19242">
        <ele>395</ele>
        <time>2016-07-24T05:22:06Z</time>
      </trkpt>
      <trkpt lat="42.65661" lon="18.19285">
        <ele>396</ele>
        <time>2016-07-24T05:24:06Z</time>
      </trkpt>
      <trkpt lat="42.65659" lon="18.19292">
        <ele>396</ele>
        <time>2016-07-24T05:26:06Z</time>
      </trkpt>
      <trkpt lat="42.65656" lon="18.19299">
        <ele>396</ele>
        <time>2016-07-24T05:28:06Z</time>
      </trkpt>
      <trkpt lat="42.65654" lon="18.19304">
        <ele>395</ele>
        <time>2016-07-24T05:30:06Z</time>
      </trkpt>
      <trkpt lat="42.65652" lon="18.19308">
        <ele>395</ele>
        <time>2016-07-24T05:32:06Z</time>
      </trkpt>
      <trkpt lat="42.65649" lon="18.19314">
        <ele>395</ele>
        <time>2016-07-24T05:34:06Z</time>
      </trkpt>
      <trkpt lat="42.65646" lon="18.19319">
        <ele>395</ele>
        <time>2016-07-24T05:36:06Z</time>
      </trkpt>
      <trkpt lat="42.65643" lon="18.19323">
        <ele>395</ele>
        <time>2016-07-24T05:38:06Z</time>
      </trkpt>
      <trkpt lat="42.65639" lon="18.1933">
        <ele>394</ele>
        <time>2016-07-24T05:40:06Z</time>
      </trkpt>
      <trkpt lat="42.65634" lon="18.19336">
        <ele>394</ele>
        <time>2016-07-24T05:42:06Z</time>
      </trkpt>
      <trkpt lat="42.65628" lon="18.19343">
        <ele>394</ele>
        <time>2016-07-24T05:44:06Z</time>
      </trkpt>
      <trkpt lat="42.65606" lon="18.19364">
        <ele>392</ele>
        <time>2016-07-24T05:46:06Z</time>
      </trkpt>
      <trkpt lat="42.656" lon="18.1937">
        <ele>392</ele>
        <time>2016-07-24T05:48:06Z</time>
      </trkpt>
      <trkpt lat="42.65596" lon="18.19376">
        <ele>392</ele>
        <time>2016-07-24T05:50:06Z</time>
      </trkpt>
      <trkpt lat="42.65591" lon="18.19382">
        <ele>392</ele>
        <time>2016-07-24T05:52:06Z</time>
      </trkpt>
      <trkpt lat="42.65589" lon="18.19387">
        <ele>392</ele>
        <time>2016-07-24T05:54:06Z</time>
      </trkpt>
      <trkpt lat="42.65585" lon="18.19394">
        <ele>392</ele>
        <time>2016-07-24T05:56:06Z</time>
      </trkpt>
      <trkpt lat="42.65583" lon="18.19401">
        <ele>393</ele>
        <time>2016-07-24T05:58:06Z</time>
      </trkpt>
      <trkpt lat="42.65581" lon="18.19406">
        <ele>393</ele>
        <time>2016-07-24T06:00:06Z</time>
      </trkpt>
      <trkpt lat="42.6558" lon="18.19411">
        <ele>394</ele>
        <time>2016-07-24T06:02:06Z</time>
      </trkpt>
      <trkpt lat="42.6558" lon="18.19415">
        <ele>394</ele>
        <time>2016-07-24T06:04:06Z</time>
      </trkpt>
      <trkpt lat="42.65579" lon="18.19419">
        <ele>394</ele>
        <time>2016-07-24T06:06:06Z</time>
      </trkpt>
      <trkpt lat="42.65579" lon="18.19424">
        <ele>394</ele>
        <time>2016-07-24T06:08:06Z</time>
      </trkpt>
      <trkpt lat="42.65579" lon="18.19428">
        <ele>394</ele>
        <time>2016-07-24T06:10:06Z</time>
      </trkpt>
      <trkpt lat="42.65579" lon="18.19432">
        <ele>394</ele>
        <time>2016-07-24T06:12:06Z</time>
      </trkpt>
      <trkpt lat="42.65579" lon="18.19436">
        <ele>394</ele>
        <time>2016-07-24T06:14:06Z</time>
      </trkpt>
      <trkpt lat="42.6558" lon="18.19441">
        <ele>394</ele>
        <time>2016-07-24T06:16:06Z</time>
      </trkpt>
      <trkpt lat="42.6558" lon="18.19445">
        <ele>394</ele>
        <time>2016-07-24T06:18:06Z</time>
      </trkpt>
      <trkpt lat="42.65581" lon="18.19449">
        <ele>394</ele>
        <time>2016-07-24T06:20:06Z</time>
      </trkpt>
      <trkpt lat="42.65582" lon="18.19453">
        <ele>394</ele>
        <time>2016-07-24T06:22:06Z</time>
      </trkpt>
      <trkpt lat="42.65599" lon="18.19498">
        <ele>397</ele>
        <time>2016-07-24T06:24:06Z</time>
      </trkpt>
      <trkpt lat="42.65602" lon="18.19506">
        <ele>398</ele>
        <time>2016-07-24T06:26:06Z</time>
      </trkpt>
      <trkpt lat="42.65605" lon="18.19517">
        <ele>399</ele>
        <time>2016-07-24T06:28:06Z</time>
      </trkpt>
      <trkpt lat="42.65607" lon="18.19526">
        <ele>401</ele>
        <time>2016-07-24T06:30:06Z</time>
      </trkpt>
      <trkpt lat="42.65608" lon="18.19534">
        <ele>402</ele>
        <time>2016-07-24T06:32:06Z</time>
      </trkpt>
      <trkpt lat="42.65608" lon="18.19542">
        <ele>402</ele>
        <time>2016-07-24T06:34:06Z</time>
      </trkpt>
      <trkpt lat="42.65608" lon="18.19548">
        <ele>402</ele>
        <time>2016-07-24T06:36:06Z</time>
      </trkpt>
      <trkpt lat="42.65607" lon="18.19554">
        <ele>402</ele>
        <time>2016-07-24T06:38:06Z</time>
      </trkpt>
      <trkpt lat="42.65606" lon="18.19561">
        <ele>402</ele>
        <time>2016-07-24T06:40:06Z</time>
      </trkpt>
      <trkpt lat="42.65604" lon="18.19569">
        <ele>402</ele>
        <time>2016-07-24T06:42:06Z</time>
      </trkpt>
      <trkpt lat="42.65603" lon="18.19575">
        <ele>402</ele>
        <time>2016-07-24T06:44:06Z</time>
      </trkpt>
      <trkpt lat="42.65601" lon="18.1958">
        <ele>401</ele>
        <time>2016-07-24T06:46:06Z</time>
      </trkpt>
      <trkpt lat="42.65577" lon="18.19635">
        <ele>399</ele>
        <time>2016-07-24T06:48:06Z</time>
      </trkpt>
      <trkpt lat="42.65573" lon="18.1963">
        <ele>399</ele>
        <time>2016-07-24T06:50:06Z</time>
      </trkpt>
      <trkpt lat="42.65561" lon="18.19657">
        <ele>402</ele>
        <time>2016-07-24T06:52:06Z</time>
      </trkpt>
      <trkpt lat="42.65559" lon="18.19663">
        <ele>402</ele>
        <time>2016-07-24T06:54:06Z</time>
      </trkpt>
      <trkpt lat="42.65556" lon="18.1967">
        <ele>403</ele>
        <time>2016-07-24T06:56:06Z</time>
      </trkpt>
      <trkpt lat="42.65554" lon="18.19676">
        <ele>403</ele>
        <time>2016-07-24T06:58:06Z</time>
      </trkpt>
      <trkpt lat="42.65551" lon="18.19683">
        <ele>402</ele>
        <time>2016-07-24T07:00:06Z</time>
      </trkpt>
      <trkpt lat="42.65549" lon="18.19689">
        <ele>402</ele>
        <time>2016-07-24T07:02:06Z</time>
      </trkpt>
      <trkpt lat="42.65547" lon="18.19697">
        <ele>402</ele>
        <time>2016-07-24T07:04:06Z</time>
      </trkpt>
      <trkpt lat="42.65544" lon="18.19704">
        <ele>402</ele>
        <time>2016-07-24T07:06:06Z</time>
      </trkpt>
      <trkpt lat="42.65542" lon="18.19712">
        <ele>401</ele>
        <time>2016-07-24T07:08:06Z</time>
      </trkpt>
      <trkpt lat="42.6554" lon="18.1972">
        <ele>401</ele>
        <time>2016-07-24T07:10:06Z</time>
      </trkpt>
      <trkpt lat="42.65539" lon="18.19727">
        <ele>400</ele>
        <time>2016-07-24T07:12:06Z</time>
      </trkpt>
      <trkpt lat="42.65538" lon="18.19734">
        <ele>400</ele>
        <time>2016-07-24T07:14:06Z</time>
      </trkpt>
      <trkpt lat="42.65537" lon="18.19741">
        <ele>400</ele>
        <time>2016-07-24T07:16:06Z</time>
      </trkpt>
      <trkpt lat="42.65536" lon="18.19748">
        <ele>399</ele>
        <time>2016-07-24T07:18:06Z</time>
      </trkpt>
      <trkpt lat="42.65536" lon="18.19755">
        <ele>399</ele>
        <time>2016-07-24T07:20:06Z</time>
      </trkpt>
      <trkpt lat="42.65535" lon="18.19762">
        <ele>399</ele>
        <time>2016-07-24T07:22:06Z</time>
      </trkpt>
      <trkpt lat="42.65535" lon="18.1977">
        <ele>399</ele>
        <time>2016-07-24T07:24:06Z</time>
      </trkpt>
      <trkpt lat="42.65535" lon="18.19777">
        <ele>398</ele>
        <time>2016-07-24T07:26:06Z</time>
      </trkpt>
      <trkpt lat="42.65535" lon="18.19784">
        <ele>398</ele>
        <time>2016-07-24T07:28:06Z</time>
      </trkpt>
      <trkpt lat="42.65535" lon="18.19791">
        <ele>398</ele>
        <time>2016-07-24T07:30:06Z</time>
      </trkpt>
      <trkpt lat="42.65535" lon="18.19798">
        <ele>398</ele>
        <time>2016-07-24T07:32:06Z</time>
      </trkpt>
      <trkpt lat="42.65536" lon="18.19806">
        <ele>398</ele>
        <time>2016-07-24T07:34:06Z</time>
      </trkpt>
      <trkpt lat="42.65536" lon="18.19813">
        <ele>398</ele>
        <time>2016-07-24T07:36:06Z</time>
      </trkpt>
      <trkpt lat="42.65537" lon="18.1982">
        <ele>398</ele>
        <time>2016-07-24T07:38:06Z</time>
      </trkpt>
      <trkpt lat="42.65538" lon="18.19827">
        <ele>398</ele>
        <time>2016-07-24T07:40:06Z</time>
      </trkpt>
      <trkpt lat="42.65539" lon="18.19834">
        <ele>398</ele>
        <time>2016-07-24T07:42:06Z</time>
      </trkpt>
      <trkpt lat="42.65548" lon="18.19873">
        <ele>399</ele>
        <time>2016-07-24T07:44:06Z</time>
      </trkpt>
      <trkpt lat="42.65585" lon="18.2001">
        <ele>402</ele>
        <time>2016-07-24T07:46:06Z</time>
      </trkpt>
      <trkpt lat="42.65602" lon="18.20077">
        <ele>403</ele>
        <time>2016-07-24T07:48:06Z</time>
      </trkpt>
      <trkpt lat="42.65603" lon="18.20083">
        <ele>403</ele>
        <time>2016-07-24T07:50:06Z</time>
      </trkpt>
      <trkpt lat="42.65604" lon="18.20089">
        <ele>403</ele>
        <time>2016-07-24T07:52:06Z</time>
      </trkpt>
      <trkpt lat="42.65605" lon="18.20095">
        <ele>404</ele>
        <time>2016-07-24T07:54:06Z</time>
      </trkpt>
      <trkpt lat="42.65606" lon="18.20101">
        <ele>404</ele>
        <time>2016-07-24T07:56:06Z</time>
      </trkpt>
      <trkpt lat="42.65607" lon="18.20107">
        <ele>404</ele>
        <time>2016-07-24T07:58:06Z</time>
      </trkpt>
      <trkpt lat="42.65607" lon="18.20113">
        <ele>404</ele>
        <time>2016-07-24T08:00:06Z</time>
      </trkpt>
      <trkpt lat="42.65608" lon="18.2012">
        <ele>405</ele>
        <time>2016-07-24T08:02:06Z</time>
      </trkpt>
      <trkpt lat="42.65608" lon="18.20126">
        <ele>405</ele>
        <time>2016-07-24T08:04:06Z</time>
      </trkpt>
      <trkpt lat="42.65608" lon="18.20132">
        <ele>405</ele>
        <time>2016-07-24T08:06:06Z</time>
      </trkpt>
      <trkpt lat="42.65608" lon="18.20139">
        <ele>405</ele>
        <time>2016-07-24T08:08:06Z</time>
      </trkpt>
      <trkpt lat="42.65608" lon="18.20145">
        <ele>405</ele>
        <time>2016-07-24T08:10:06Z</time>
      </trkpt>
      <trkpt lat="42.65607" lon="18.20152">
        <ele>404</ele>
        <time>2016-07-24T08:12:06Z</time>
      </trkpt>
      <trkpt lat="42.65607" lon="18.20158">
        <ele>404</ele>
        <time>2016-07-24T08:14:06Z</time>
      </trkpt>
      <trkpt lat="42.65606" lon="18.20164">
        <ele>404</ele>
        <time>2016-07-24T08:16:06Z</time>
      </trkpt>
      <trkpt lat="42.65605" lon="18.20171">
        <ele>404</ele>
        <time>2016-07-24T08:18:06Z</time>
      </trkpt>
      <trkpt lat="42.65591" lon="18.2025">
        <ele>405</ele>
        <time>2016-07-24T08:20:06Z</time>
      </trkpt>
      <trkpt lat="42.65588" lon="18.20264">
        <ele>404</ele>
        <time>2016-07-24T08:22:06Z</time>
      </trkpt>
      <trkpt lat="42.65586" lon="18.20278">
        <ele>404</ele>
        <time>2016-07-24T08:24:06Z</time>
      </trkpt>
      <trkpt lat="42.65584" lon="18.20292">
        <ele>404</ele>
        <time>2016-07-24T08:26:06Z</time>
      </trkpt>
      <trkpt lat="42.65582" lon="18.20306">
        <ele>404</ele>
        <time>2016-07-24T08:28:06Z</time>
      </trkpt>
      <trkpt lat="42.6558" lon="18.20321">
        <ele>404</ele>
        <time>2016-07-24T08:30:06Z</time>
      </trkpt>
      <trkpt lat="42.65579" lon="18.20335">
        <ele>404</ele>
        <time>2016-07-24T08:32:06Z</time>
      </trkpt>
      <trkpt lat="42.65577" lon="18.2035">
        <ele>403</ele>
        <time>2016-07-24T08:34:06Z</time>
      </trkpt>
      <trkpt lat="42.65576" lon="18.20365">
        <ele>403</ele>
        <time>2016-07-24T08:36:06Z</time>
      </trkpt>
      <trkpt lat="42.65575" lon="18.20379">
        <ele>403</ele>
        <time>2016-07-24T08:38:06Z</time>
      </trkpt>
      <trkpt lat="42.65575" lon="18.20386">
        <ele>403</ele>
        <time>2016-07-24T08:40:06Z</time>
      </trkpt>
      <trkpt lat="42.65574" lon="18.20392">
        <ele>403</ele>
        <time>2016-07-24T08:42:06Z</time>
      </trkpt>
      <trkpt lat="42.65574" lon="18.20398">
        <ele>403</ele>
        <time>2016-07-24T08:44:06Z</time>
      </trkpt>
      <trkpt lat="42.65573" lon="18.20404">
        <ele>402</ele>
        <time>2016-07-24T08:46:06Z</time>
      </trkpt>
      <trkpt lat="42.65572" lon="18.2041">
        <ele>402</ele>
        <time>2016-07-24T08:48:06Z</time>
      </trkpt>
      <trkpt lat="42.65571" lon="18.20416">
        <ele>402</ele>
        <time>2016-07-24T08:50:06Z</time>
      </trkpt>
      <trkpt lat="42.6557" lon="18.20422">
        <ele>402</ele>
        <time>2016-07-24T08:52:06Z</time>
      </trkpt>
      <trkpt lat="42.65569" lon="18.20428">
        <ele>402</ele>
        <time>2016-07-24T08:54:06Z</time>
      </trkpt>
      <trkpt lat="42.65568" lon="18.20434">
        <ele>403</ele>
        <time>2016-07-24T08:56:06Z</time>
      </trkpt>
      <trkpt lat="42.65567" lon="18.2044">
        <ele>403</ele>
        <time>2016-07-24T08:58:06Z</time>
      </trkpt>
      <trkpt lat="42.65565" lon="18.20445">
        <ele>403</ele>
        <time>2016-07-24T09:00:06Z</time>
      </trkpt>
      <trkpt lat="42.65564" lon="18.2045">
        <ele>403</ele>
        <time>2016-07-24T09:02:06Z</time>
      </trkpt>
      <trkpt lat="42.65562" lon="18.20454">
        <ele>403</ele>
        <time>2016-07-24T09:04:06Z</time>
      </trkpt>
      <trkpt lat="42.6556" lon="18.20458">
        <ele>403</ele>
        <time>2016-07-24T09:06:06Z</time>
      </trkpt>
      <trkpt lat="42.65558" lon="18.20462">
        <ele>403</ele>
        <time>2016-07-24T09:08:06Z</time>
      </trkpt>
      <trkpt lat="42.65556" lon="18.20466">
        <ele>403</ele>
        <time>2016-07-24T09:10:06Z</time>
      </trkpt>
      <trkpt lat="42.65554" lon="18.2047">
        <ele>403</ele>
        <time>2016-07-24T09:12:06Z</time>
      </trkpt>
      <trkpt lat="42.65552" lon="18.20474">
        <ele>403</ele>
        <time>2016-07-24T09:14:06Z</time>
      </trkpt>
      <trkpt lat="42.6555" lon="18.20478">
        <ele>403</ele>
        <time>2016-07-24T09:16:06Z</time>
      </trkpt>
      <trkpt lat="42.65547" lon="18.20482">
        <ele>403</ele>
        <time>2016-07-24T09:18:06Z</time>
      </trkpt>
      <trkpt lat="42.65545" lon="18.20485">
        <ele>403</ele>
        <time>2016-07-24T09:20:06Z</time>
      </trkpt>
      <trkpt lat="42.65542" lon="18.20489">
        <ele>402</ele>
        <time>2016-07-24T09:22:06Z</time>
      </trkpt>
      <trkpt lat="42.65539" lon="18.20492">
        <ele>402</ele>
        <time>2016-07-24T09:24:06Z</time>
      </trkpt>
      <trkpt lat="42.65536" lon="18.20495">
        <ele>402</ele>
        <time>2016-07-24T09:26:06Z</time>
      </trkpt>
      <trkpt lat="42.65533" lon="18.20498">
        <ele>402</ele>
        <time>2016-07-24T09:28:06Z</time>
      </trkpt>
      <trkpt lat="42.6553" lon="18.20501">
        <ele>401</ele>
        <time>2016-07-24T09:30:06Z</time>
      </trkpt>
      <trkpt lat="42.65527" lon="18.20503">
        <ele>401</ele>
        <time>2016-07-24T09:32:06Z</time>
      </trkpt>
      <trkpt lat="42.65524" lon="18.20506">
        <ele>402</ele>
        <time>2016-07-24T09:34:06Z</time>
      </trkpt>
      <trkpt lat="42.6552" lon="18.20508">
        <ele>402</ele>
        <time>2016-07-24T09:36:06Z</time>
      </trkpt>
      <trkpt lat="42.65517" lon="18.2051">
        <ele>402</ele>
        <time>2016-07-24T09:38:06Z</time>
      </trkpt>
      <trkpt lat="42.65484" lon="18.20525">
        <ele>401</ele>
        <time>2016-07-24T09:40:06Z</time>
      </trkpt>
      <trkpt lat="42.6548" lon="18.20527">
        <ele>401</ele>
        <time>2016-07-24T09:42:06Z</time>
      </trkpt>
      <trkpt lat="42.65476" lon="18.20529">
        <ele>401</ele>
        <time>2016-07-24T09:44:06Z</time>
      </trkpt>
      <trkpt lat="42.65472" lon="18.20532">
        <ele>401</ele>
        <time>2016-07-24T09:46:06Z</time>
      </trkpt>
      <trkpt lat="42.65468" lon="18.20534">
        <ele>401</ele>
        <time>2016-07-24T09:48:06Z</time>
      </trkpt>
      <trkpt lat="42.65464" lon="18.20537">
        <ele>401</ele>
        <time>2016-07-24T09:50:06Z</time>
      </trkpt>
      <trkpt lat="42.6546" lon="18.2054">
        <ele>401</ele>
        <time>2016-07-24T09:52:06Z</time>
      </trkpt>
      <trkpt lat="42.65456" lon="18.20543">
        <ele>401</ele>
        <time>2016-07-24T09:54:06Z</time>
      </trkpt>
      <trkpt lat="42.65453" lon="18.20547">
        <ele>401</ele>
        <time>2016-07-24T09:56:06Z</time>
      </trkpt>
      <trkpt lat="42.65449" lon="18.2055">
        <ele>401</ele>
        <time>2016-07-24T09:58:06Z</time>
      </trkpt>
      <trkpt lat="42.65445" lon="18.20554">
        <ele>401</ele>
        <time>2016-07-24T10:00:06Z</time>
      </trkpt>
      <trkpt lat="42.65442" lon="18.20557">
        <ele>401</ele>
        <time>2016-07-24T10:02:06Z</time>
      </trkpt>
      <trkpt lat="42.65439" lon="18.20562">
        <ele>402</ele>
        <time>2016-07-24T10:04:06Z</time>
      </trkpt>
      <trkpt lat="42.65435" lon="18.20566">
        <ele>402</ele>
        <time>2016-07-24T10:06:06Z</time>
      </trkpt>
      <trkpt lat="42.65432" lon="18.2057">
        <ele>402</ele>
        <time>2016-07-24T10:08:06Z</time>
      </trkpt>
      <trkpt lat="42.65429" lon="18.20575">
        <ele>403</ele>
        <time>2016-07-24T10:10:06Z</time>
      </trkpt>
      <trkpt lat="42.65426" lon="18.2058">
        <ele>403</ele>
        <time>2016-07-24T10:12:06Z</time>
      </trkpt>
      <trkpt lat="42.65423" lon="18.20584">
        <ele>403</ele>
        <time>2016-07-24T10:14:06Z</time>
      </trkpt>
      <trkpt lat="42.6542" lon="18.20589">
        <ele>403</ele>
        <time>2016-07-24T10:16:06Z</time>
      </trkpt>
      <trkpt lat="42.6539" lon="18.20655">
        <ele>405</ele>
        <time>2016-07-24T10:18:06Z</time>
      </trkpt>
      <trkpt lat="42.65348" lon="18.20751">
        <ele>405</ele>
        <time>2016-07-24T10:20:06Z</time>
      </trkpt>
      <trkpt lat="42.65344" lon="18.20759">
        <ele>405</ele>
        <time>2016-07-24T10:22:06Z</time>
      </trkpt>
      <trkpt lat="42.65341" lon="18.20768">
        <ele>405</ele>
        <time>2016-07-24T10:24:06Z</time>
      </trkpt>
      <trkpt lat="42.65338" lon="18.20777">
        <ele>406</ele>
        <time>2016-07-24T10:26:06Z</time>
      </trkpt>
      <trkpt lat="42.65334" lon="18.20786">
        <ele>405</ele>
        <time>2016-07-24T10:28:06Z</time>
      </trkpt>
      <trkpt lat="42.65331" lon="18.20795">
        <ele>406</ele>
        <time>2016-07-24T10:30:06Z</time>
      </trkpt>
      <trkpt lat="42.65328" lon="18.20804">
        <ele>406</ele>
        <time>2016-07-24T10:32:06Z</time>
      </trkpt>
      <trkpt lat="42.65326" lon="18.20813">
        <ele>407</ele>
        <time>2016-07-24T10:34:06Z</time>
      </trkpt>
      <trkpt lat="42.65323" lon="18.20822">
        <ele>407</ele>
        <time>2016-07-24T10:36:06Z</time>
      </trkpt>
      <trkpt lat="42.65321" lon="18.20832">
        <ele>408</ele>
        <time>2016-07-24T10:38:06Z</time>
      </trkpt>
      <trkpt lat="42.65318" lon="18.20841">
        <ele>407</ele>
        <time>2016-07-24T10:40:06Z</time>
      </trkpt>
      <trkpt lat="42.65317" lon="18.20848">
        <ele>407</ele>
        <time>2016-07-24T10:42:06Z</time>
      </trkpt>
      <trkpt lat="42.65315" lon="18.20856">
        <ele>407</ele>
        <time>2016-07-24T10:44:06Z</time>
      </trkpt>
      <trkpt lat="42.65314" lon="18.20863">
        <ele>407</ele>
        <time>2016-07-24T10:46:06Z</time>
      </trkpt>
      <trkpt lat="42.65313" lon="18.20871">
        <ele>407</ele>
        <time>2016-07-24T10:48:06Z</time>
      </trkpt>
      <trkpt lat="42.65312" lon="18.20878">
        <ele>407</ele>
        <time>2016-07-24T10:50:06Z</time>
      </trkpt>
      <trkpt lat="42.65311" lon="18.20886">
        <ele>407</ele>
        <time>2016-07-24T10:52:06Z</time>
      </trkpt>
      <trkpt lat="42.6531" lon="18.20894">
        <ele>407</ele>
        <time>2016-07-24T10:54:06Z</time>
      </trkpt>
      <trkpt lat="42.65309" lon="18.20902">
        <ele>407</ele>
        <time>2016-07-24T10:56:06Z</time>
      </trkpt>
      <trkpt lat="42.65309" lon="18.2091">
        <ele>408</ele>
        <time>2016-07-24T10:58:06Z</time>
      </trkpt>
      <trkpt lat="42.65309" lon="18.20919">
        <ele>408</ele>
        <time>2016-07-24T11:00:06Z</time>
      </trkpt>
      <trkpt lat="42.65308" lon="18.20927">
        <ele>407</ele>
        <time>2016-07-24T11:02:06Z</time>
      </trkpt>
      <trkpt lat="42.65308" lon="18.20935">
        <ele>407</ele>
        <time>2016-07-24T11:04:06Z</time>
      </trkpt>
      <trkpt lat="42.65308" lon="18.20943">
        <ele>407</ele>
        <time>2016-07-24T11:06:06Z</time>
      </trkpt>
      <trkpt lat="42.65309" lon="18.20951">
        <ele>407</ele>
        <time>2016-07-24T11:08:06Z</time>
      </trkpt>
      <trkpt lat="42.65309" lon="18.2096">
        <ele>407</ele>
        <time>2016-07-24T11:10:06Z</time>
      </trkpt>
      <trkpt lat="42.65309" lon="18.20968">
        <ele>406</ele>
        <time>2016-07-24T11:12:06Z</time>
      </trkpt>
      <trkpt lat="42.6531" lon="18.20976">
        <ele>406</ele>
        <time>2016-07-24T11:14:06Z</time>
      </trkpt>
      <trkpt lat="42.65311" lon="18.20984">
        <ele>406</ele>
        <time>2016-07-24T11:16:06Z</time>
      </trkpt>
      <trkpt lat="42.65312" lon="18.20992">
        <ele>406</ele>
        <time>2016-07-24T11:18:06Z</time>
      </trkpt>
      <trkpt lat="42.65313" lon="18.21002">
        <ele>406</ele>
        <time>2016-07-24T11:20:06Z</time>
      </trkpt>
      <trkpt lat="42.65315" lon="18.21012">
        <ele>406</ele>
        <time>2016-07-24T11:22:06Z</time>
      </trkpt>
      <trkpt lat="42.65317" lon="18.21022">
        <ele>406</ele>
        <time>2016-07-24T11:24:06Z</time>
      </trkpt>
      <trkpt lat="42.65319" lon="18.21032">
        <ele>406</ele>
        <time>2016-07-24T11:26:06Z</time>
      </trkpt>
      <trkpt lat="42.65321" lon="18.21041">
        <ele>406</ele>
        <time>2016-07-24T11:28:06Z</time>
      </trkpt>
      <trkpt lat="42.65323" lon="18.21052">
        <ele>406</ele>
        <time>2016-07-24T11:30:06Z</time>
      </trkpt>
      <trkpt lat="42.65326" lon="18.21063">
        <ele>407</ele>
        <time>2016-07-24T11:32:06Z</time>
      </trkpt>
      <trkpt lat="42.65328" lon="18.21073">
        <ele>406</ele>
        <time>2016-07-24T11:34:06Z</time>
      </trkpt>
      <trkpt lat="42.65331" lon="18.21084">
        <ele>406</ele>
        <time>2016-07-24T11:36:06Z</time>
      </trkpt>
      <trkpt lat="42.65333" lon="18.21089">
        <ele>407</ele>
        <time>2016-07-24T11:38:06Z</time>
      </trkpt>
      <trkpt lat="42.65334" lon="18.21094">
        <ele>406</ele>
        <time>2016-07-24T11:40:06Z</time>
      </trkpt>
      <trkpt lat="42.65336" lon="18.211">
        <ele>407</ele>
        <time>2016-07-24T11:42:06Z</time>
      </trkpt>
      <trkpt lat="42.65338" lon="18.21105">
        <ele>407</ele>
        <time>2016-07-24T11:44:06Z</time>
      </trkpt>
      <trkpt lat="42.65341" lon="18.21111">
        <ele>407</ele>
        <time>2016-07-24T11:46:06Z</time>
      </trkpt>
      <trkpt lat="42.65343" lon="18.21117">
        <ele>407</ele>
        <time>2016-07-24T11:48:06Z</time>
      </trkpt>
      <trkpt lat="42.65346" lon="18.21123">
        <ele>407</ele>
        <time>2016-07-24T11:50:06Z</time>
      </trkpt>
      <trkpt lat="42.65349" lon="18.21129">
        <ele>408</ele>
        <time>2016-07-24T11:52:06Z</time>
      </trkpt>
      <trkpt lat="42.65352" lon="18.21135">
        <ele>408</ele>
        <time>2016-07-24T11:54:06Z</time>
      </trkpt>
      <trkpt lat="42.65355" lon="18.21142">
        <ele>408</ele>
        <time>2016-07-24T11:56:06Z</time>
      </trkpt>
      <trkpt lat="42.65358" lon="18.21148">
        <ele>408</ele>
        <time>2016-07-24T11:58:06Z</time>
      </trkpt>
      <trkpt lat="42.65362" lon="18.21155">
        <ele>408</ele>
        <time>2016-07-24T12:00:06Z</time>
      </trkpt>
      <trkpt lat="42.65365" lon="18.21161">
        <ele>408</ele>
        <time>2016-07-24T12:02:06Z</time>
      </trkpt>
      <trkpt lat="42.65369" lon="18.21167">
        <ele>408</ele>
        <time>2016-07-24T12:04:06Z</time>
      </trkpt>
      <trkpt lat="42.65372" lon="18.21174">
        <ele>408</ele>
        <time>2016-07-24T12:06:06Z</time>
      </trkpt>
      <trkpt lat="42.65376" lon="18.2118">
        <ele>408</ele>
        <time>2016-07-24T12:08:06Z</time>
      </trkpt>
      <trkpt lat="42.6538" lon="18.21186">
        <ele>408</ele>
        <time>2016-07-24T12:10:06Z</time>
      </trkpt>
      <trkpt lat="42.65384" lon="18.21193">
        <ele>408</ele>
        <time>2016-07-24T12:12:06Z</time>
      </trkpt>
      <trkpt lat="42.65389" lon="18.21199">
        <ele>408</ele>
        <time>2016-07-24T12:14:06Z</time>
      </trkpt>
      <trkpt lat="42.65393" lon="18.21205">
        <ele>408</ele>
        <time>2016-07-24T12:16:06Z</time>
      </trkpt>
      <trkpt lat="42.65397" lon="18.2121">
        <ele>409</ele>
        <time>2016-07-24T12:18:06Z</time>
      </trkpt>
      <trkpt lat="42.65402" lon="18.21216">
        <ele>409</ele>
        <time>2016-07-24T12:20:06Z</time>
      </trkpt>
      <trkpt lat="42.65405" lon="18.2122">
        <ele>409</ele>
        <time>2016-07-24T12:22:06Z</time>
      </trkpt>
      <trkpt lat="42.65408" lon="18.21223">
        <ele>409</ele>
        <time>2016-07-24T12:24:06Z</time>
      </trkpt>
      <trkpt lat="42.65412" lon="18.21227">
        <ele>409</ele>
        <time>2016-07-24T12:26:06Z</time>
      </trkpt>
      <trkpt lat="42.65415" lon="18.2123">
        <ele>409</ele>
        <time>2016-07-24T12:28:06Z</time>
      </trkpt>
      <trkpt lat="42.65418" lon="18.21233">
        <ele>409</ele>
        <time>2016-07-24T12:30:06Z</time>
      </trkpt>
      <trkpt lat="42.65422" lon="18.21236">
        <ele>409</ele>
        <time>2016-07-24T12:32:06Z</time>
      </trkpt>
      <trkpt lat="42.65426" lon="18.2124">
        <ele>408</ele>
        <time>2016-07-24T12:34:06Z</time>
      </trkpt>
      <trkpt lat="42.6543" lon="18.21243">
        <ele>408</ele>
        <time>2016-07-24T12:36:06Z</time>
      </trkpt>
      <trkpt lat="42.65433" lon="18.21246">
        <ele>407</ele>
        <time>2016-07-24T12:38:06Z</time>
      </trkpt>
      <trkpt lat="42.65436" lon="18.21247">
        <ele>407</ele>
        <time>2016-07-24T12:40:06Z</time>
      </trkpt>
      <trkpt lat="42.65438" lon="18.21248">
        <ele>407</ele>
        <time>2016-07-24T12:42:06Z</time>
      </trkpt>
      <trkpt lat="42.65442" lon="18.21251">
        <ele>407</ele>
        <time>2016-07-24T12:44:06Z</time>
      </trkpt>
      <trkpt lat="42.65446" lon="18.21253">
        <ele>406</ele>
        <time>2016-07-24T12:46:06Z</time>
      </trkpt>
      <trkpt lat="42.6545" lon="18.21255">
        <ele>406</ele>
        <time>2016-07-24T12:48:06Z</time>
      </trkpt>
      <trkpt lat="42.65454" lon="18.21257">
        <ele>406</ele>
        <time>2016-07-24T12:50:06Z</time>
      </trkpt>
      <trkpt lat="42.65458" lon="18.21259">
        <ele>405</ele>
        <time>2016-07-24T12:52:06Z</time>
      </trkpt>
      <trkpt lat="42.65463" lon="18.2126">
        <ele>405</ele>
        <time>2016-07-24T12:54:06Z</time>
      </trkpt>
      <trkpt lat="42.65467" lon="18.21261">
        <ele>405</ele>
        <time>2016-07-24T12:56:06Z</time>
      </trkpt>
      <trkpt lat="42.65471" lon="18.21261">
        <ele>405</ele>
        <time>2016-07-24T12:58:06Z</time>
      </trkpt>
      <trkpt lat="42.65476" lon="18.21262">
        <ele>405</ele>
        <time>2016-07-24T13:00:06Z</time>
      </trkpt>
      <trkpt lat="42.6548" lon="18.21262">
        <ele>405</ele>
        <time>2016-07-24T13:02:06Z</time>
      </trkpt>
      <trkpt lat="42.65483" lon="18.21262">
        <ele>405</ele>
        <time>2016-07-24T13:04:06Z</time>
      </trkpt>
      <trkpt lat="42.65484" lon="18.21262">
        <ele>405</ele>
        <time>2016-07-24T13:06:06Z</time>
      </trkpt>
      <trkpt lat="42.65489" lon="18.21261">
        <ele>405</ele>
        <time>2016-07-24T13:08:06Z</time>
      </trkpt>
      <trkpt lat="42.65493" lon="18.21261">
        <ele>405</ele>
        <time>2016-07-24T13:10:06Z</time>
      </trkpt>
      <trkpt lat="42.65497" lon="18.2126">
        <ele>405</ele>
        <time>2016-07-24T13:12:06Z</time>
      </trkpt>
      <trkpt lat="42.65502" lon="18.21259">
        <ele>405</ele>
        <time>2016-07-24T13:14:06Z</time>
      </trkpt>
      <trkpt lat="42.65506" lon="18.21258">
        <ele>405</ele>
        <time>2016-07-24T13:16:06Z</time>
      </trkpt>
      <trkpt lat="42.6551" lon="18.21257">
        <ele>404</ele>
        <time>2016-07-24T13:18:06Z</time>
      </trkpt>
      <trkpt lat="42.65515" lon="18.21255">
        <ele>404</ele>
        <time>2016-07-24T13:20:06Z</time>
      </trkpt>
      <trkpt lat="42.65519" lon="18.21253">
        <ele>404</ele>
        <time>2016-07-24T13:22:06Z</time>
      </trkpt>
      <trkpt lat="42.65523" lon="18.21252">
        <ele>404</ele>
        <time>2016-07-24T13:24:06Z</time>
      </trkpt>
      <trkpt lat="42.6553" lon="18.21248">
        <ele>405</ele>
        <time>2016-07-24T13:26:06Z</time>
      </trkpt>
      <trkpt lat="42.65537" lon="18.21245">
        <ele>405</ele>
        <time>2016-07-24T13:28:06Z</time>
      </trkpt>
      <trkpt lat="42.65545" lon="18.21241">
        <ele>405</ele>
        <time>2016-07-24T13:30:06Z</time>
      </trkpt>
      <trkpt lat="42.65552" lon="18.21237">
        <ele>406</ele>
        <time>2016-07-24T13:32:06Z</time>
      </trkpt>
      <trkpt lat="42.6556" lon="18.21232">
        <ele>406</ele>
        <time>2016-07-24T13:34:06Z</time>
      </trkpt>
      <trkpt lat="42.65567" lon="18.21228">
        <ele>407</ele>
        <time>2016-07-24T13:36:06Z</time>
      </trkpt>
      <trkpt lat="42.65574" lon="18.21223">
        <ele>407</ele>
        <time>2016-07-24T13:38:06Z</time>
      </trkpt>
      <trkpt lat="42.65582" lon="18.21219">
        <ele>407</ele>
        <time>2016-07-24T13:40:06Z</time>
      </trkpt>
      <trkpt lat="42.65589" lon="18.21214">
        <ele>408</ele>
        <time>2016-07-24T13:42:06Z</time>
      </trkpt>
      <trkpt lat="42.65596" lon="18.21209">
        <ele>408</ele>
        <time>2016-07-24T13:44:06Z</time>
      </trkpt>
      <trkpt lat="42.65603" lon="18.21203">
        <ele>409</ele>
        <time>2016-07-24T13:46:06Z</time>
      </trkpt>
      <trkpt lat="42.6561" lon="18.21198">
        <ele>409</ele>
        <time>2016-07-24T13:48:06Z</time>
      </trkpt>
      <trkpt lat="42.65614" lon="18.21195">
        <ele>409</ele>
        <time>2016-07-24T13:50:06Z</time>
      </trkpt>
      <trkpt lat="42.65618" lon="18.21192">
        <ele>409</ele>
        <time>2016-07-24T13:52:06Z</time>
      </trkpt>
      <trkpt lat="42.65621" lon="18.2119">
        <ele>409</ele>
        <time>2016-07-24T13:54:06Z</time>
      </trkpt>
      <trkpt lat="42.65626" lon="18.21186">
        <ele>408</ele>
        <time>2016-07-24T13:56:06Z</time>
      </trkpt>
      <trkpt lat="42.65631" lon="18.21182">
        <ele>408</ele>
        <time>2016-07-24T13:58:06Z</time>
      </trkpt>
      <trkpt lat="42.65635" lon="18.21177">
        <ele>408</ele>
        <time>2016-07-24T14:00:06Z</time>
      </trkpt>
      <trkpt lat="42.6564" lon="18.21173">
        <ele>408</ele>
        <time>2016-07-24T14:02:06Z</time>
      </trkpt>
      <trkpt lat="42.65644" lon="18.21169">
        <ele>408</ele>
        <time>2016-07-24T14:04:06Z</time>
      </trkpt>
      <trkpt lat="42.65649" lon="18.21164">
        <ele>408</ele>
        <time>2016-07-24T14:06:06Z</time>
      </trkpt>
      <trkpt lat="42.65653" lon="18.21159">
        <ele>408</ele>
        <time>2016-07-24T14:08:06Z</time>
      </trkpt>
      <trkpt lat="42.65675" lon="18.21134">
        <ele>409</ele>
        <time>2016-07-24T14:10:06Z</time>
      </trkpt>
      <trkpt lat="42.6568" lon="18.2113">
        <ele>409</ele>
        <time>2016-07-24T14:12:06Z</time>
      </trkpt>
      <trkpt lat="42.65684" lon="18.21125">
        <ele>410</ele>
        <time>2016-07-24T14:14:06Z</time>
      </trkpt>
      <trkpt lat="42.65688" lon="18.2112">
        <ele>410</ele>
        <time>2016-07-24T14:16:06Z</time>
      </trkpt>
      <trkpt lat="42.65693" lon="18.21116">
        <ele>410</ele>
        <time>2016-07-24T14:18:06Z</time>
      </trkpt>
      <trkpt lat="42.65697" lon="18.21111">
        <ele>410</ele>
        <time>2016-07-24T14:20:06Z</time>
      </trkpt>
      <trkpt lat="42.65702" lon="18.21107">
        <ele>410</ele>
        <time>2016-07-24T14:22:06Z</time>
      </trkpt>
      <trkpt lat="42.65707" lon="18.21102">
        <ele>410</ele>
        <time>2016-07-24T14:24:06Z</time>
      </trkpt>
      <trkpt lat="42.65712" lon="18.21098">
        <ele>410</ele>
        <time>2016-07-24T14:26:06Z</time>
      </trkpt>
      <trkpt lat="42.65718" lon="18.21094">
        <ele>409</ele>
        <time>2016-07-24T14:28:06Z</time>
      </trkpt>
      <trkpt lat="42.65723" lon="18.2109">
        <ele>408</ele>
        <time>2016-07-24T14:30:06Z</time>
      </trkpt>
      <trkpt lat="42.65728" lon="18.21086">
        <ele>408</ele>
        <time>2016-07-24T14:32:06Z</time>
      </trkpt>
      <trkpt lat="42.65734" lon="18.21082">
        <ele>407</ele>
        <time>2016-07-24T14:34:06Z</time>
      </trkpt>
      <trkpt lat="42.65739" lon="18.21079">
        <ele>407</ele>
        <time>2016-07-24T14:36:06Z</time>
      </trkpt>
      <trkpt lat="42.65743" lon="18.21077">
        <ele>406</ele>
        <time>2016-07-24T14:38:06Z</time>
      </trkpt>
      <trkpt lat="42.65748" lon="18.21076">
        <ele>406</ele>
        <time>2016-07-24T14:40:06Z</time>
      </trkpt>
      <trkpt lat="42.65752" lon="18.21075">
        <ele>405</ele>
        <time>2016-07-24T14:42:06Z</time>
      </trkpt>
      <trkpt lat="42.65756" lon="18.21075">
        <ele>405</ele>
        <time>2016-07-24T14:44:06Z</time>
      </trkpt>
      <trkpt lat="42.6576" lon="18.21074">
        <ele>405</ele>
        <time>2016-07-24T14:46:06Z</time>
      </trkpt>
      <trkpt lat="42.65765" lon="18.21074">
        <ele>405</ele>
        <time>2016-07-24T14:48:06Z</time>
      </trkpt>
      <trkpt lat="42.65769" lon="18.21073">
        <ele>406</ele>
        <time>2016-07-24T14:50:06Z</time>
      </trkpt>
      <trkpt lat="42.65773" lon="18.21073">
        <ele>405</ele>
        <time>2016-07-24T14:52:06Z</time>
      </trkpt>
      <trkpt lat="42.65777" lon="18.21073">
        <ele>405</ele>
        <time>2016-07-24T14:54:06Z</time>
      </trkpt>
      <trkpt lat="42.65782" lon="18.21074">
        <ele>405</ele>
        <time>2016-07-24T14:56:06Z</time>
      </trkpt>
      <trkpt lat="42.65786" lon="18.21074">
        <ele>405</ele>
        <time>2016-07-24T14:58:06Z</time>
      </trkpt>
      <trkpt lat="42.6579" lon="18.21075">
        <ele>405</ele>
        <time>2016-07-24T15:00:06Z</time>
      </trkpt>
      <trkpt lat="42.65795" lon="18.21075">
        <ele>405</ele>
        <time>2016-07-24T15:02:06Z</time>
      </trkpt>
      <trkpt lat="42.65803" lon="18.21078">
        <ele>405</ele>
        <time>2016-07-24T15:04:06Z</time>
      </trkpt>
      <trkpt lat="42.65811" lon="18.21081">
        <ele>405</ele>
        <time>2016-07-24T15:06:06Z</time>
      </trkpt>
      <trkpt lat="42.65819" lon="18.21084">
        <ele>405</ele>
        <time>2016-07-24T15:08:06Z</time>
      </trkpt>
      <trkpt lat="42.65827" lon="18.21087">
        <ele>405</ele>
        <time>2016-07-24T15:10:06Z</time>
      </trkpt>
      <trkpt lat="42.65833" lon="18.2109">
        <ele>405</ele>
        <time>2016-07-24T15:12:06Z</time>
      </trkpt>
      <trkpt lat="42.65839" lon="18.21093">
        <ele>405</ele>
        <time>2016-07-24T15:14:06Z</time>
      </trkpt>
      <trkpt lat="42.65845" lon="18.21095">
        <ele>405</ele>
        <time>2016-07-24T15:16:06Z</time>
      </trkpt>
      <trkpt lat="42.65851" lon="18.21098">
        <ele>404</ele>
        <time>2016-07-24T15:18:06Z</time>
      </trkpt>
      <trkpt lat="42.65857" lon="18.211">
        <ele>404</ele>
        <time>2016-07-24T15:20:06Z</time>
      </trkpt>
      <trkpt lat="42.65863" lon="18.21102">
        <ele>404</ele>
        <time>2016-07-24T15:22:06Z</time>
      </trkpt>
      <trkpt lat="42.65869" lon="18.21104">
        <ele>404</ele>
        <time>2016-07-24T15:24:06Z</time>
      </trkpt>
      <trkpt lat="42.65875" lon="18.21105">
        <ele>404</ele>
        <time>2016-07-24T15:26:06Z</time>
      </trkpt>
      <trkpt lat="42.6588" lon="18.21107">
        <ele>404</ele>
        <time>2016-07-24T15:28:06Z</time>
      </trkpt>
      <trkpt lat="42.65886" lon="18.21108">
        <ele>404</ele>
        <time>2016-07-24T15:30:06Z</time>
      </trkpt>
      <trkpt lat="42.65894" lon="18.21109">
        <ele>404</ele>
        <time>2016-07-24T15:32:06Z</time>
      </trkpt>
      <trkpt lat="42.65901" lon="18.21109">
        <ele>404</ele>
        <time>2016-07-24T15:34:06Z</time>
      </trkpt>
      <trkpt lat="42.65909" lon="18.21109">
        <ele>404</ele>
        <time>2016-07-24T15:36:06Z</time>
      </trkpt>
      <trkpt lat="42.65917" lon="18.21109">
        <ele>404</ele>
        <time>2016-07-24T15:38:06Z</time>
      </trkpt>
      <trkpt lat="42.65924" lon="18.21109">
        <ele>404</ele>
        <time>2016-07-24T15:40:06Z</time>
      </trkpt>
      <trkpt lat="42.65931" lon="18.21108">
        <ele>404</ele>
        <time>2016-07-24T15:42:06Z</time>
      </trkpt>
      <trkpt lat="42.65938" lon="18.21108">
        <ele>404</ele>
        <time>2016-07-24T15:44:06Z</time>
      </trkpt>
      <trkpt lat="42.65946" lon="18.21107">
        <ele>403</ele>
        <time>2016-07-24T15:46:06Z</time>
      </trkpt>
      <trkpt lat="42.65953" lon="18.21106">
        <ele>403</ele>
        <time>2016-07-24T15:48:06Z</time>
      </trkpt>
      <trkpt lat="42.6596" lon="18.21105">
        <ele>403</ele>
        <time>2016-07-24T15:50:06Z</time>
      </trkpt>
      <trkpt lat="42.65967" lon="18.21103">
        <ele>402</ele>
        <time>2016-07-24T15:52:06Z</time>
      </trkpt>
      <trkpt lat="42.66024" lon="18.21089">
        <ele>400</ele>
        <time>2016-07-24T15:54:06Z</time>
      </trkpt>
      <trkpt lat="42.66036" lon="18.21085">
        <ele>400</ele>
        <time>2016-07-24T15:56:06Z</time>
      </trkpt>
      <trkpt lat="42.66049" lon="18.21082">
        <ele>401</ele>
        <time>2016-07-24T15:58:06Z</time>
      </trkpt>
      <trkpt lat="42.66061" lon="18.21078">
        <ele>401</ele>
        <time>2016-07-24T16:00:06Z</time>
      </trkpt>
      <trkpt lat="42.66073" lon="18.21075">
        <ele>402</ele>
        <time>2016-07-24T16:02:06Z</time>
      </trkpt>
      <trkpt lat="42.66086" lon="18.21072">
        <ele>402</ele>
        <time>2016-07-24T16:04:06Z</time>
      </trkpt>
      <trkpt lat="42.66099" lon="18.21069">
        <ele>400</ele>
        <time>2016-07-24T16:06:06Z</time>
      </trkpt>
      <trkpt lat="42.66112" lon="18.21066">
        <ele>399</ele>
        <time>2016-07-24T16:08:06Z</time>
      </trkpt>
      <trkpt lat="42.66125" lon="18.21063">
        <ele>397</ele>
        <time>2016-07-24T16:10:06Z</time>
      </trkpt>
      <trkpt lat="42.6613" lon="18.21062">
        <ele>397</ele>
        <time>2016-07-24T16:12:06Z</time>
      </trkpt>
      <trkpt lat="42.66136" lon="18.21061">
        <ele>396</ele>
        <time>2016-07-24T16:14:06Z</time>
      </trkpt>
      <trkpt lat="42.66141" lon="18.2106">
        <ele>396</ele>
        <time>2016-07-24T16:16:06Z</time>
      </trkpt>
      <trkpt lat="42.66146" lon="18.21059">
        <ele>395</ele>
        <time>2016-07-24T16:18:06Z</time>
      </trkpt>
      <trkpt lat="42.66152" lon="18.21059">
        <ele>395</ele>
        <time>2016-07-24T16:20:06Z</time>
      </trkpt>
      <trkpt lat="42.66157" lon="18.21058">
        <ele>394</ele>
        <time>2016-07-24T16:22:06Z</time>
      </trkpt>
      <trkpt lat="42.66162" lon="18.21058">
        <ele>394</ele>
        <time>2016-07-24T16:24:06Z</time>
      </trkpt>
      <trkpt lat="42.66168" lon="18.21058">
        <ele>394</ele>
        <time>2016-07-24T16:26:06Z</time>
      </trkpt>
      <trkpt lat="42.66173" lon="18.21058">
        <ele>394</ele>
        <time>2016-07-24T16:28:06Z</time>
      </trkpt>
      <trkpt lat="42.66178" lon="18.21059">
        <ele>394</ele>
        <time>2016-07-24T16:30:06Z</time>
      </trkpt>
      <trkpt lat="42.66183" lon="18.21059">
        <ele>394</ele>
        <time>2016-07-24T16:32:06Z</time>
      </trkpt>
      <trkpt lat="42.66188" lon="18.2106">
        <ele>394</ele>
        <time>2016-07-24T16:34:06Z</time>
      </trkpt>
      <trkpt lat="42.66194" lon="18.21061">
        <ele>394</ele>
        <time>2016-07-24T16:36:06Z</time>
      </trkpt>
      <trkpt lat="42.66199" lon="18.21062">
        <ele>394</ele>
        <time>2016-07-24T16:38:06Z</time>
      </trkpt>
      <trkpt lat="42.66204" lon="18.21064">
        <ele>394</ele>
        <time>2016-07-24T16:40:06Z</time>
      </trkpt>
      <trkpt lat="42.66209" lon="18.21065">
        <ele>394</ele>
        <time>2016-07-24T16:42:06Z</time>
      </trkpt>
      <trkpt lat="42.66214" lon="18.21067">
        <ele>394</ele>
        <time>2016-07-24T16:44:06Z</time>
      </trkpt>
      <trkpt lat="42.66219" lon="18.21069">
        <ele>394</ele>
        <time>2016-07-24T16:46:06Z</time>
      </trkpt>
      <trkpt lat="42.66224" lon="18.21071">
        <ele>394</ele>
        <time>2016-07-24T16:48:06Z</time>
      </trkpt>
      <trkpt lat="42.66229" lon="18.21074">
        <ele>394</ele>
        <time>2016-07-24T16:50:06Z</time>
      </trkpt>
      <trkpt lat="42.66234" lon="18.21076">
        <ele>394</ele>
        <time>2016-07-24T16:52:06Z</time>
      </trkpt>
      <trkpt lat="42.6624" lon="18.21079">
        <ele>393</ele>
        <time>2016-07-24T16:54:06Z</time>
      </trkpt>
      <trkpt lat="42.66242" lon="18.2108">
        <ele>393</ele>
        <time>2016-07-24T16:56:06Z</time>
      </trkpt>
      <trkpt lat="42.66245" lon="18.21082">
        <ele>393</ele>
        <time>2016-07-24T16:58:06Z</time>
      </trkpt>
      <trkpt lat="42.6625" lon="18.21085">
        <ele>393</ele>
        <time>2016-07-24T17:00:06Z</time>
      </trkpt>
      <trkpt lat="42.66255" lon="18.21089">
        <ele>393</ele>
        <time>2016-07-24T17:02:06Z</time>
      </trkpt>
      <trkpt lat="42.6626" lon="18.21092">
        <ele>393</ele>
        <time>2016-07-24T17:04:06Z</time>
      </trkpt>
      <trkpt lat="42.66329" lon="18.2115">
        <ele>388</ele>
        <time>2016-07-24T17:06:06Z</time>
      </trkpt>
      <trkpt lat="42.66337" lon="18.21157">
        <ele>387</ele>
        <time>2016-07-24T17:08:06Z</time>
      </trkpt>
      <trkpt lat="42.66345" lon="18.21164">
        <ele>386</ele>
        <time>2016-07-24T17:10:06Z</time>
      </trkpt>
      <trkpt lat="42.66352" lon="18.21171">
        <ele>385</ele>
        <time>2016-07-24T17:12:06Z</time>
      </trkpt>
      <trkpt lat="42.6636" lon="18.21178">
        <ele>385</ele>
        <time>2016-07-24T17:14:06Z</time>
      </trkpt>
      <trkpt lat="42.66368" lon="18.21186">
        <ele>385</ele>
        <time>2016-07-24T17:16:06Z</time>
      </trkpt>
      <trkpt lat="42.66377" lon="18.21195">
        <ele>385</ele>
        <time>2016-07-24T17:18:06Z</time>
      </trkpt>
      <trkpt lat="42.66386" lon="18.21204">
        <ele>385</ele>
        <time>2016-07-24T17:20:06Z</time>
      </trkpt>
      <trkpt lat="42.66395" lon="18.21214">
        <ele>386</ele>
        <time>2016-07-24T17:22:06Z</time>
      </trkpt>
      <trkpt lat="42.66404" lon="18.21223">
        <ele>386</ele>
        <time>2016-07-24T17:24:06Z</time>
      </trkpt>
      <trkpt lat="42.66412" lon="18.21233">
        <ele>387</ele>
        <time>2016-07-24T17:26:06Z</time>
      </trkpt>
      <trkpt lat="42.66421" lon="18.21243">
        <ele>387</ele>
        <time>2016-07-24T17:28:06Z</time>
      </trkpt>
      <trkpt lat="42.66425" lon="18.21249">
        <ele>387</ele>
        <time>2016-07-24T17:30:06Z</time>
      </trkpt>
      <trkpt lat="42.6643" lon="18.21256">
        <ele>387</ele>
        <time>2016-07-24T17:32:06Z</time>
      </trkpt>
      <trkpt lat="42.66434" lon="18.21262">
        <ele>387</ele>
        <time>2016-07-24T17:34:06Z</time>
      </trkpt>
      <trkpt lat="42.66438" lon="18.21269">
        <ele>387</ele>
        <time>2016-07-24T17:36:06Z</time>
      </trkpt>
      <trkpt lat="42.66442" lon="18.21276">
        <ele>387</ele>
        <time>2016-07-24T17:38:06Z</time>
      </trkpt>
      <trkpt lat="42.66446" lon="18.21282">
        <ele>387</ele>
        <time>2016-07-24T17:40:06Z</time>
      </trkpt>
      <trkpt lat="42.6645" lon="18.21289">
        <ele>387</ele>
        <time>2016-07-24T17:42:06Z</time>
      </trkpt>
      <trkpt lat="42.66454" lon="18.21296">
        <ele>387</ele>
        <time>2016-07-24T17:44:06Z</time>
      </trkpt>
      <trkpt lat="42.66457" lon="18.21303">
        <ele>386</ele>
        <time>2016-07-24T17:46:06Z</time>
      </trkpt>
      <trkpt lat="42.66461" lon="18.2131">
        <ele>386</ele>
        <time>2016-07-24T17:48:06Z</time>
      </trkpt>
      <trkpt lat="42.66464" lon="18.21317">
        <ele>386</ele>
        <time>2016-07-24T17:50:06Z</time>
      </trkpt>
      <trkpt lat="42.66467" lon="18.21324">
        <ele>386</ele>
        <time>2016-07-24T17:52:06Z</time>
      </trkpt>
      <trkpt lat="42.66469" lon="18.21329">
        <ele>386</ele>
        <time>2016-07-24T17:54:06Z</time>
      </trkpt>
      <trkpt lat="42.66471" lon="18.21334">
        <ele>386</ele>
        <time>2016-07-24T17:56:06Z</time>
      </trkpt>
      <trkpt lat="42.66473" lon="18.21339">
        <ele>386</ele>
        <time>2016-07-24T17:58:06Z</time>
      </trkpt>
      <trkpt lat="42.66474" lon="18.21344">
        <ele>386</ele>
        <time>2016-07-24T18:00:06Z</time>
      </trkpt>
      <trkpt lat="42.66476" lon="18.21349">
        <ele>386</ele>
        <time>2016-07-24T18:02:06Z</time>
      </trkpt>
      <trkpt lat="42.66477" lon="18.21354">
        <ele>385</ele>
        <time>2016-07-24T18:04:06Z</time>
      </trkpt>
      <trkpt lat="42.66478" lon="18.2136">
        <ele>385</ele>
        <time>2016-07-24T18:06:06Z</time>
      </trkpt>
      <trkpt lat="42.66479" lon="18.21366">
        <ele>385</ele>
        <time>2016-07-24T18:08:06Z</time>
      </trkpt>
      <trkpt lat="42.6648" lon="18.21372">
        <ele>385</ele>
        <time>2016-07-24T18:10:06Z</time>
      </trkpt>
      <trkpt lat="42.66481" lon="18.21378">
        <ele>385</ele>
        <time>2016-07-24T18:12:06Z</time>
      </trkpt>
      <trkpt lat="42.66482" lon="18.21384">
        <ele>385</ele>
        <time>2016-07-24T18:14:06Z</time>
      </trkpt>
      <trkpt lat="42.66483" lon="18.2139">
        <ele>385</ele>
        <time>2016-07-24T18:16:06Z</time>
      </trkpt>
      <trkpt lat="42.66483" lon="18.21396">
        <ele>385</ele>
        <time>2016-07-24T18:18:06Z</time>
      </trkpt>
      <trkpt lat="42.66483" lon="18.21402">
        <ele>385</ele>
        <time>2016-07-24T18:20:06Z</time>
      </trkpt>
      <trkpt lat="42.66483" lon="18.21408">
        <ele>385</ele>
        <time>2016-07-24T18:22:06Z</time>
      </trkpt>
      <trkpt lat="42.66483" lon="18.21414">
        <ele>384</ele>
        <time>2016-07-24T18:24:06Z</time>
      </trkpt>
      <trkpt lat="42.66483" lon="18.2142">
        <ele>384</ele>
        <time>2016-07-24T18:26:06Z</time>
      </trkpt>
      <trkpt lat="42.66483" lon="18.21426">
        <ele>385</ele>
        <time>2016-07-24T18:28:06Z</time>
      </trkpt>
      <trkpt lat="42.66482" lon="18.21432">
        <ele>385</ele>
        <time>2016-07-24T18:30:06Z</time>
      </trkpt>
      <trkpt lat="42.66477" lon="18.2147">
        <ele>385</ele>
        <time>2016-07-24T18:32:06Z</time>
      </trkpt>
      <trkpt lat="42.66476" lon="18.21479">
        <ele>385</ele>
        <time>2016-07-24T18:34:06Z</time>
      </trkpt>
      <trkpt lat="42.66475" lon="18.21487">
        <ele>385</ele>
        <time>2016-07-24T18:36:06Z</time>
      </trkpt>
      <trkpt lat="42.66474" lon="18.21495">
        <ele>385</ele>
        <time>2016-07-24T18:38:06Z</time>
      </trkpt>
      <trkpt lat="42.66474" lon="18.21504">
        <ele>385</ele>
        <time>2016-07-24T18:40:06Z</time>
      </trkpt>
      <trkpt lat="42.66473" lon="18.21512">
        <ele>385</ele>
        <time>2016-07-24T18:42:06Z</time>
      </trkpt>
      <trkpt lat="42.66473" lon="18.2152">
        <ele>385</ele>
        <time>2016-07-24T18:44:06Z</time>
      </trkpt>
      <trkpt lat="42.66473" lon="18.21528">
        <ele>385</ele>
        <time>2016-07-24T18:46:06Z</time>
      </trkpt>
      <trkpt lat="42.66473" lon="18.21536">
        <ele>385</ele>
        <time>2016-07-24T18:48:06Z</time>
      </trkpt>
      <trkpt lat="42.66473" lon="18.21541">
        <ele>385</ele>
        <time>2016-07-24T18:50:06Z</time>
      </trkpt>
      <trkpt lat="42.66474" lon="18.21545">
        <ele>385</ele>
        <time>2016-07-24T18:52:06Z</time>
      </trkpt>
      <trkpt lat="42.66474" lon="18.2155">
        <ele>385</ele>
        <time>2016-07-24T18:54:06Z</time>
      </trkpt>
      <trkpt lat="42.66475" lon="18.21554">
        <ele>385</ele>
        <time>2016-07-24T18:56:06Z</time>
      </trkpt>
      <trkpt lat="42.66476" lon="18.21558">
        <ele>385</ele>
        <time>2016-07-24T18:58:06Z</time>
      </trkpt>
      <trkpt lat="42.66477" lon="18.21562">
        <ele>385</ele>
        <time>2016-07-24T19:00:06Z</time>
      </trkpt>
      <trkpt lat="42.66479" lon="18.21566">
        <ele>385</ele>
        <time>2016-07-24T19:02:06Z</time>
      </trkpt>
      <trkpt lat="42.6648" lon="18.2157">
        <ele>385</ele>
        <time>2016-07-24T19:04:06Z</time>
      </trkpt>
      <trkpt lat="42.66482" lon="18.21573">
        <ele>385</ele>
        <time>2016-07-24T19:06:06Z</time>
      </trkpt>
      <trkpt lat="42.66483" lon="18.21577">
        <ele>385</ele>
        <time>2016-07-24T19:08:06Z</time>
      </trkpt>
      <trkpt lat="42.66485" lon="18.21581">
        <ele>385</ele>
        <time>2016-07-24T19:10:06Z</time>
      </trkpt>
      <trkpt lat="42.66487" lon="18.21584">
        <ele>385</ele>
        <time>2016-07-24T19:12:06Z</time>
      </trkpt>
      <trkpt lat="42.66489" lon="18.21587">
        <ele>385</ele>
        <time>2016-07-24T19:14:06Z</time>
      </trkpt>
      <trkpt lat="42.66491" lon="18.2159">
        <ele>385</ele>
        <time>2016-07-24T19:16:06Z</time>
      </trkpt>
      <trkpt lat="42.66493" lon="18.21593">
        <ele>385</ele>
        <time>2016-07-24T19:18:06Z</time>
      </trkpt>
      <trkpt lat="42.66495" lon="18.21596">
        <ele>384</ele>
        <time>2016-07-24T19:20:06Z</time>
      </trkpt>
      <trkpt lat="42.66498" lon="18.21599">
        <ele>384</ele>
        <time>2016-07-24T19:22:06Z</time>
      </trkpt>
      <trkpt lat="42.66501" lon="18.21602">
        <ele>384</ele>
        <time>2016-07-24T19:24:06Z</time>
      </trkpt>
      <trkpt lat="42.66504" lon="18.21605">
        <ele>383</ele>
        <time>2016-07-24T19:26:06Z</time>
      </trkpt>
      <trkpt lat="42.66507" lon="18.21607">
        <ele>383</ele>
        <time>2016-07-24T19:28:06Z</time>
      </trkpt>
      <trkpt lat="42.6651" lon="18.2161">
        <ele>383</ele>
        <time>2016-07-24T19:30:06Z</time>
      </trkpt>
      <trkpt lat="42.66513" lon="18.21612">
        <ele>382</ele>
        <time>2016-07-24T19:32:06Z</time>
      </trkpt>
      <trkpt lat="42.66516" lon="18.21614">
        <ele>382</ele>
        <time>2016-07-24T19:34:06Z</time>
      </trkpt>
      <trkpt lat="42.66519" lon="18.21616">
        <ele>382</ele>
        <time>2016-07-24T19:36:06Z</time>
      </trkpt>
      <trkpt lat="42.66522" lon="18.21618">
        <ele>382</ele>
        <time>2016-07-24T19:38:06Z</time>
      </trkpt>
      <trkpt lat="42.66525" lon="18.21619">
        <ele>382</ele>
        <time>2016-07-24T19:40:06Z</time>
      </trkpt>
      <trkpt lat="42.66528" lon="18.21621">
        <ele>381</ele>
        <time>2016-07-24T19:42:06Z</time>
      </trkpt>
      <trkpt lat="42.66532" lon="18.21622">
        <ele>381</ele>
        <time>2016-07-24T19:44:06Z</time>
      </trkpt>
      <trkpt lat="42.66535" lon="18.21623">
        <ele>381</ele>
        <time>2016-07-24T19:46:06Z</time>
      </trkpt>
      <trkpt lat="42.66539" lon="18.21625">
        <ele>381</ele>
        <time>2016-07-24T19:48:06Z</time>
      </trkpt>
      <trkpt lat="42.66542" lon="18.21626">
        <ele>381</ele>
        <time>2016-07-24T19:50:06Z</time>
      </trkpt>
      <trkpt lat="42.66546" lon="18.21628">
        <ele>380</ele>
        <time>2016-07-24T19:52:06Z</time>
      </trkpt>
      <trkpt lat="42.6655" lon="18.21629">
        <ele>380</ele>
        <time>2016-07-24T19:54:06Z</time>
      </trkpt>
      <trkpt lat="42.66555" lon="18.2163">
        <ele>380</ele>
        <time>2016-07-24T19:56:06Z</time>
      </trkpt>
      <trkpt lat="42.66559" lon="18.21631">
        <ele>380</ele>
        <time>2016-07-24T19:58:06Z</time>
      </trkpt>
      <trkpt lat="42.66563" lon="18.21632">
        <ele>380</ele>
        <time>2016-07-24T20:00:06Z</time>
      </trkpt>
      <trkpt lat="42.66568" lon="18.21632">
        <ele>380</ele>
        <time>2016-07-24T20:02:06Z</time>
      </trkpt>
      <trkpt lat="42.66572" lon="18.21633">
        <ele>380</ele>
        <time>2016-07-24T20:04:06Z</time>
      </trkpt>
      <trkpt lat="42.66581" lon="18.21634">
        <ele>380</ele>
        <time>2016-07-24T20:06:06Z</time>
      </trkpt>
      <trkpt lat="42.66585" lon="18.21635">
        <ele>379</ele>
        <time>2016-07-24T20:08:06Z</time>
      </trkpt>
      <trkpt lat="42.66588" lon="18.21636">
        <ele>379</ele>
        <time>2016-07-24T20:10:06Z</time>
      </trkpt>
      <trkpt lat="42.66592" lon="18.21637">
        <ele>379</ele>
        <time>2016-07-24T20:12:06Z</time>
      </trkpt>
      <trkpt lat="42.66596" lon="18.21638">
        <ele>378</ele>
        <time>2016-07-24T20:14:06Z</time>
      </trkpt>
      <trkpt lat="42.66599" lon="18.2164">
        <ele>378</ele>
        <time>2016-07-24T20:16:06Z</time>
      </trkpt>
      <trkpt lat="42.66603" lon="18.21641">
        <ele>377</ele>
        <time>2016-07-24T20:18:06Z</time>
      </trkpt>
      <trkpt lat="42.66607" lon="18.21643">
        <ele>377</ele>
        <time>2016-07-24T20:20:06Z</time>
      </trkpt>
      <trkpt lat="42.66611" lon="18.21646">
        <ele>376</ele>
        <time>2016-07-24T20:22:06Z</time>
      </trkpt>
      <trkpt lat="42.66615" lon="18.21648">
        <ele>376</ele>
        <time>2016-07-24T20:24:06Z</time>
      </trkpt>
      <trkpt lat="42.66618" lon="18.2165">
        <ele>375</ele>
        <time>2016-07-24T20:26:06Z</time>
      </trkpt>
      <trkpt lat="42.66622" lon="18.21653">
        <ele>375</ele>
        <time>2016-07-24T20:28:06Z</time>
      </trkpt>
      <trkpt lat="42.66625" lon="18.21656">
        <ele>375</ele>
        <time>2016-07-24T20:30:06Z</time>
      </trkpt>
      <trkpt lat="42.66629" lon="18.2166">
        <ele>374</ele>
        <time>2016-07-24T20:32:06Z</time>
      </trkpt>
      <trkpt lat="42.66632" lon="18.21663">
        <ele>374</ele>
        <time>2016-07-24T20:34:06Z</time>
      </trkpt>
      <trkpt lat="42.66636" lon="18.21667">
        <ele>373</ele>
        <time>2016-07-24T20:36:06Z</time>
      </trkpt>
      <trkpt lat="42.66639" lon="18.21671">
        <ele>373</ele>
        <time>2016-07-24T20:38:06Z</time>
      </trkpt>
      <trkpt lat="42.66643" lon="18.21675">
        <ele>373</ele>
        <time>2016-07-24T20:40:06Z</time>
      </trkpt>
      <trkpt lat="42.66647" lon="18.2168">
        <ele>373</ele>
        <time>2016-07-24T20:42:06Z</time>
      </trkpt>
      <trkpt lat="42.6665" lon="18.21685">
        <ele>373</ele>
        <time>2016-07-24T20:44:06Z</time>
      </trkpt>
      <trkpt lat="42.66654" lon="18.2169">
        <ele>373</ele>
        <time>2016-07-24T20:46:06Z</time>
      </trkpt>
      <trkpt lat="42.66657" lon="18.21696">
        <ele>373</ele>
        <time>2016-07-24T20:48:06Z</time>
      </trkpt>
      <trkpt lat="42.66661" lon="18.21701">
        <ele>373</ele>
        <time>2016-07-24T20:50:06Z</time>
      </trkpt>
      <trkpt lat="42.66664" lon="18.21706">
        <ele>373</ele>
        <time>2016-07-24T20:52:06Z</time>
      </trkpt>
      <trkpt lat="42.66667" lon="18.21712">
        <ele>374</ele>
        <time>2016-07-24T20:54:06Z</time>
      </trkpt>
      <trkpt lat="42.6667" lon="18.21718">
        <ele>374</ele>
        <time>2016-07-24T20:56:06Z</time>
      </trkpt>
      <trkpt lat="42.66706" lon="18.21797">
        <ele>374</ele>
        <time>2016-07-24T20:58:06Z</time>
      </trkpt>
      <trkpt lat="42.66708" lon="18.21804">
        <ele>374</ele>
        <time>2016-07-24T21:00:06Z</time>
      </trkpt>
      <trkpt lat="42.66711" lon="18.21811">
        <ele>373</ele>
        <time>2016-07-24T21:02:06Z</time>
      </trkpt>
      <trkpt lat="42.66714" lon="18.21818">
        <ele>373</ele>
        <time>2016-07-24T21:04:06Z</time>
      </trkpt>
      <trkpt lat="42.66716" lon="18.21825">
        <ele>373</ele>
        <time>2016-07-24T21:06:06Z</time>
      </trkpt>
      <trkpt lat="42.66719" lon="18.21832">
        <ele>373</ele>
        <time>2016-07-24T21:08:06Z</time>
      </trkpt>
      <trkpt lat="42.66721" lon="18.21839">
        <ele>373</ele>
        <time>2016-07-24T21:10:06Z</time>
      </trkpt>
      <trkpt lat="42.66723" lon="18.21847">
        <ele>372</ele>
        <time>2016-07-24T21:12:06Z</time>
      </trkpt>
      <trkpt lat="42.66726" lon="18.21854">
        <ele>372</ele>
        <time>2016-07-24T21:14:06Z</time>
      </trkpt>
      <trkpt lat="42.66728" lon="18.21862">
        <ele>372</ele>
        <time>2016-07-24T21:16:06Z</time>
      </trkpt>
      <trkpt lat="42.6673" lon="18.2187">
        <ele>371</ele>
        <time>2016-07-24T21:18:06Z</time>
      </trkpt>
      <trkpt lat="42.66732" lon="18.21877">
        <ele>371</ele>
        <time>2016-07-24T21:20:06Z</time>
      </trkpt>
      <trkpt lat="42.66733" lon="18.21885">
        <ele>371</ele>
        <time>2016-07-24T21:22:06Z</time>
      </trkpt>
      <trkpt lat="42.66754" lon="18.21976">
        <ele>371</ele>
        <time>2016-07-24T21:24:06Z</time>
      </trkpt>
      <trkpt lat="42.66757" lon="18.21988">
        <ele>370</ele>
        <time>2016-07-24T21:26:06Z</time>
      </trkpt>
      <trkpt lat="42.66761" lon="18.22">
        <ele>370</ele>
        <time>2016-07-24T21:28:06Z</time>
      </trkpt>
      <trkpt lat="42.66764" lon="18.22011">
        <ele>370</ele>
        <time>2016-07-24T21:30:06Z</time>
      </trkpt>
      <trkpt lat="42.66768" lon="18.22023">
        <ele>371</ele>
        <time>2016-07-24T21:32:06Z</time>
      </trkpt>
      <trkpt lat="42.66772" lon="18.22037">
        <ele>371</ele>
        <time>2016-07-24T21:34:06Z</time>
      </trkpt>
      <trkpt lat="42.66776" lon="18.22051">
        <ele>371</ele>
        <time>2016-07-24T21:36:06Z</time>
      </trkpt>
      <trkpt lat="42.66781" lon="18.22064">
        <ele>371</ele>
        <time>2016-07-24T21:38:06Z</time>
      </trkpt>
      <trkpt lat="42.66786" lon="18.22078">
        <ele>370</ele>
        <time>2016-07-24T21:40:06Z</time>
      </trkpt>
      <trkpt lat="42.66791" lon="18.22091">
        <ele>370</ele>
        <time>2016-07-24T21:42:06Z</time>
      </trkpt>
      <trkpt lat="42.66796" lon="18.22105">
        <ele>370</ele>
        <time>2016-07-24T21:44:06Z</time>
      </trkpt>
      <trkpt lat="42.66801" lon="18.22118">
        <ele>371</ele>
        <time>2016-07-24T21:46:06Z</time>
      </trkpt>
      <trkpt lat="42.66806" lon="18.22131">
        <ele>371</ele>
        <time>2016-07-24T21:48:06Z</time>
      </trkpt>
      <trkpt lat="42.66809" lon="18.22136">
        <ele>371</ele>
        <time>2016-07-24T21:50:06Z</time>
      </trkpt>
      <trkpt lat="42.66811" lon="18.22141">
        <ele>371</ele>
        <time>2016-07-24T21:52:06Z</time>
      </trkpt>
      <trkpt lat="42.66814" lon="18.22146">
        <ele>371</ele>
        <time>2016-07-24T21:54:06Z</time>
      </trkpt>
      <trkpt lat="42.66817" lon="18.22151">
        <ele>370</ele>
        <time>2016-07-24T21:56:06Z</time>
      </trkpt>
      <trkpt lat="42.6682" lon="18.22155">
        <ele>370</ele>
        <time>2016-07-24T21:58:06Z</time>
      </trkpt>
      <trkpt lat="42.66822" lon="18.2216">
        <ele>370</ele>
        <time>2016-07-24T22:00:06Z</time>
      </trkpt>
      <trkpt lat="42.66825" lon="18.22164">
        <ele>370</ele>
        <time>2016-07-24T22:02:06Z</time>
      </trkpt>
      <trkpt lat="42.66829" lon="18.22169">
        <ele>370</ele>
        <time>2016-07-24T22:04:06Z</time>
      </trkpt>
      <trkpt lat="42.66833" lon="18.22173">
        <ele>369</ele>
        <time>2016-07-24T22:06:06Z</time>
      </trkpt>
      <trkpt lat="42.66836" lon="18.22178">
        <ele>369</ele>
        <time>2016-07-24T22:08:06Z</time>
      </trkpt>
      <trkpt lat="42.6684" lon="18.22182">
        <ele>369</ele>
        <time>2016-07-24T22:10:06Z</time>
      </trkpt>
      <trkpt lat="42.66844" lon="18.22186">
        <ele>369</ele>
        <time>2016-07-24T22:12:06Z</time>
      </trkpt>
      <trkpt lat="42.66848" lon="18.2219">
        <ele>369</ele>
        <time>2016-07-24T22:14:06Z</time>
      </trkpt>
      <trkpt lat="42.66852" lon="18.22194">
        <ele>369</ele>
        <time>2016-07-24T22:16:06Z</time>
      </trkpt>
      <trkpt lat="42.66856" lon="18.22197">
        <ele>369</ele>
        <time>2016-07-24T22:18:06Z</time>
      </trkpt>
      <trkpt lat="42.66861" lon="18.22201">
        <ele>368</ele>
        <time>2016-07-24T22:20:06Z</time>
      </trkpt>
      <trkpt lat="42.66896" lon="18.22219">
        <ele>364</ele>
        <time>2016-07-24T22:22:06Z</time>
      </trkpt>
      <trkpt lat="42.66902" lon="18.22221">
        <ele>363</ele>
        <time>2016-07-24T22:24:06Z</time>
      </trkpt>
      <trkpt lat="42.66907" lon="18.22224">
        <ele>363</ele>
        <time>2016-07-24T22:26:06Z</time>
      </trkpt>
      <trkpt lat="42.66912" lon="18.22226">
        <ele>362</ele>
        <time>2016-07-24T22:28:06Z</time>
      </trkpt>
      <trkpt lat="42.66917" lon="18.22229">
        <ele>362</ele>
        <time>2016-07-24T22:30:06Z</time>
      </trkpt>
      <trkpt lat="42.66921" lon="18.22232">
        <ele>362</ele>
        <time>2016-07-24T22:32:06Z</time>
      </trkpt>
      <trkpt lat="42.66926" lon="18.22235">
        <ele>361</ele>
        <time>2016-07-24T22:34:06Z</time>
      </trkpt>
      <trkpt lat="42.66931" lon="18.22239">
        <ele>361</ele>
        <time>2016-07-24T22:36:06Z</time>
      </trkpt>
      <trkpt lat="42.66935" lon="18.22242">
        <ele>360</ele>
        <time>2016-07-24T22:38:06Z</time>
      </trkpt>
      <trkpt lat="42.66939" lon="18.22245">
        <ele>360</ele>
        <time>2016-07-24T22:40:06Z</time>
      </trkpt>
      <trkpt lat="42.66944" lon="18.22249">
        <ele>359</ele>
        <time>2016-07-24T22:42:06Z</time>
      </trkpt>
      <trkpt lat="42.66948" lon="18.22253">
        <ele>359</ele>
        <time>2016-07-24T22:44:06Z</time>
      </trkpt>
      <trkpt lat="42.66952" lon="18.22257">
        <ele>358</ele>
        <time>2016-07-24T22:46:06Z</time>
      </trkpt>
      <trkpt lat="42.66956" lon="18.22261">
        <ele>358</ele>
        <time>2016-07-24T22:48:06Z</time>
      </trkpt>
      <trkpt lat="42.66959" lon="18.22265">
        <ele>358</ele>
        <time>2016-07-24T22:50:06Z</time>
      </trkpt>
      <trkpt lat="42.66962" lon="18.22269">
        <ele>357</ele>
        <time>2016-07-24T22:52:06Z</time>
      </trkpt>
      <trkpt lat="42.66965" lon="18.22274">
        <ele>357</ele>
        <time>2016-07-24T22:54:06Z</time>
      </trkpt>
      <trkpt lat="42.66968" lon="18.22278">
        <ele>357</ele>
        <time>2016-07-24T22:56:06Z</time>
      </trkpt>
      <trkpt lat="42.66971" lon="18.22283">
        <ele>356</ele>
        <time>2016-07-24T22:58:06Z</time>
      </trkpt>
      <trkpt lat="42.66974" lon="18.22287">
        <ele>356</ele>
        <time>2016-07-24T23:00:06Z</time>
      </trkpt>
      <trkpt lat="42.66977" lon="18.22292">
        <ele>355</ele>
        <time>2016-07-24T23:02:06Z</time>
      </trkpt>
      <trkpt lat="42.66979" lon="18.22297">
        <ele>355</ele>
        <time>2016-07-24T23:04:06Z</time>
      </trkpt>
      <trkpt lat="42.66982" lon="18.22303">
        <ele>355</ele>
        <time>2016-07-24T23:06:06Z</time>
      </trkpt>
      <trkpt lat="42.66985" lon="18.22309">
        <ele>354</ele>
        <time>2016-07-24T23:08:06Z</time>
      </trkpt>
      <trkpt lat="42.66987" lon="18.22314">
        <ele>354</ele>
        <time>2016-07-24T23:10:06Z</time>
      </trkpt>
      <trkpt lat="42.66989" lon="18.2232">
        <ele>353</ele>
        <time>2016-07-24T23:12:06Z</time>
      </trkpt>
      <trkpt lat="42.66992" lon="18.22326">
        <ele>353</ele>
        <time>2016-07-24T23:14:06Z</time>
      </trkpt>
      <trkpt lat="42.66994" lon="18.22332">
        <ele>352</ele>
        <time>2016-07-24T23:16:06Z</time>
      </trkpt>
      <trkpt lat="42.66996" lon="18.22338">
        <ele>352</ele>
        <time>2016-07-24T23:18:06Z</time>
      </trkpt>
      <trkpt lat="42.66997" lon="18.22345">
        <ele>352</ele>
        <time>2016-07-24T23:20:06Z</time>
      </trkpt>
      <trkpt lat="42.66999" lon="18.22351">
        <ele>351</ele>
        <time>2016-07-24T23:22:06Z</time>
      </trkpt>
      <trkpt lat="42.67001" lon="18.22357">
        <ele>351</ele>
        <time>2016-07-24T23:24:06Z</time>
      </trkpt>
      <trkpt lat="42.67002" lon="18.22364">
        <ele>351</ele>
        <time>2016-07-24T23:26:06Z</time>
      </trkpt>
      <trkpt lat="42.67003" lon="18.2237">
        <ele>351</ele>
        <time>2016-07-24T23:28:06Z</time>
      </trkpt>
      <trkpt lat="42.67004" lon="18.22377">
        <ele>351</ele>
        <time>2016-07-24T23:30:06Z</time>
      </trkpt>
      <trkpt lat="42.67005" lon="18.22383">
        <ele>352</ele>
        <time>2016-07-24T23:32:06Z</time>
      </trkpt>
      <trkpt lat="42.67006" lon="18.2239">
        <ele>352</ele>
        <time>2016-07-24T23:34:06Z</time>
      </trkpt>
      <trkpt lat="42.67006" lon="18.22397">
        <ele>352</ele>
        <time>2016-07-24T23:36:06Z</time>
      </trkpt>
      <trkpt lat="42.67007" lon="18.22403">
        <ele>352</ele>
        <time>2016-07-24T23:38:06Z</time>
      </trkpt>
      <trkpt lat="42.67009" lon="18.22464">
        <ele>350</ele>
        <time>2016-07-24T23:40:06Z</time>
      </trkpt>
      <trkpt lat="42.67013" lon="18.22644">
        <ele>344</ele>
        <time>2016-07-24T23:42:06Z</time>
      </trkpt>
      <trkpt lat="42.67013" lon="18.22655">
        <ele>344</ele>
        <time>2016-07-24T23:44:06Z</time>
      </trkpt>
      <trkpt lat="42.67012" lon="18.22667">
        <ele>343</ele>
        <time>2016-07-24T23:46:06Z</time>
      </trkpt>
      <trkpt lat="42.67012" lon="18.22681">
        <ele>343</ele>
        <time>2016-07-24T23:48:06Z</time>
      </trkpt>
      <trkpt lat="42.67011" lon="18.22695">
        <ele>343</ele>
        <time>2016-07-24T23:50:06Z</time>
      </trkpt>
      <trkpt lat="42.67011" lon="18.22709">
        <ele>343</ele>
        <time>2016-07-24T23:52:06Z</time>
      </trkpt>
      <trkpt lat="42.6701" lon="18.22723">
        <ele>343</ele>
        <time>2016-07-24T23:54:06Z</time>
      </trkpt>
      <trkpt lat="42.67006" lon="18.22785">
        <ele>340</ele>
        <time>2016-07-24T23:56:06Z</time>
      </trkpt>
      <trkpt lat="42.67006" lon="18.2279">
        <ele>339</ele>
        <time>2016-07-24T23:58:06Z</time>
      </trkpt>
      <trkpt lat="42.67006" lon="18.22795">
        <ele>339</ele>
        <time>2016-07-25T00:00:06Z</time>
      </trkpt>
      <trkpt lat="42.67006" lon="18.22801">
        <ele>338</ele>
        <time>2016-07-25T00:02:06Z</time>
      </trkpt>
      <trkpt lat="42.67007" lon="18.22806">
        <ele>338</ele>
        <time>2016-07-25T00:04:06Z</time>
      </trkpt>
      <trkpt lat="42.67007" lon="18.22812">
        <ele>338</ele>
        <time>2016-07-25T00:06:06Z</time>
      </trkpt>
      <trkpt lat="42.67008" lon="18.22817">
        <ele>338</ele>
        <time>2016-07-25T00:08:06Z</time>
      </trkpt>
      <trkpt lat="42.67009" lon="18.22822">
        <ele>338</ele>
        <time>2016-07-25T00:10:06Z</time>
      </trkpt>
      <trkpt lat="42.6701" lon="18.22828">
        <ele>338</ele>
        <time>2016-07-25T00:12:06Z</time>
      </trkpt>
      <trkpt lat="42.67011" lon="18.22833">
        <ele>337</ele>
        <time>2016-07-25T00:14:06Z</time>
      </trkpt>
      <trkpt lat="42.67012" lon="18.22838">
        <ele>337</ele>
        <time>2016-07-25T00:16:06Z</time>
      </trkpt>
      <trkpt lat="42.67013" lon="18.22844">
        <ele>337</ele>
        <time>2016-07-25T00:18:06Z</time>
      </trkpt>
      <trkpt lat="42.67027" lon="18.22886">
        <ele>338</ele>
        <time>2016-07-25T00:20:06Z</time>
      </trkpt>
      <trkpt lat="42.67029" lon="18.22892">
        <ele>338</ele>
        <time>2016-07-25T00:22:06Z</time>
      </trkpt>
      <trkpt lat="42.67032" lon="18.229">
        <ele>338</ele>
        <time>2016-07-25T00:24:06Z</time>
      </trkpt>
      <trkpt lat="42.67035" lon="18.22907">
        <ele>338</ele>
        <time>2016-07-25T00:26:06Z</time>
      </trkpt>
      <trkpt lat="42.67038" lon="18.22915">
        <ele>338</ele>
        <time>2016-07-25T00:28:06Z</time>
      </trkpt>
      <trkpt lat="42.67041" lon="18.22922">
        <ele>338</ele>
        <time>2016-07-25T00:30:06Z</time>
      </trkpt>
      <trkpt lat="42.67044" lon="18.22929">
        <ele>337</ele>
        <time>2016-07-25T00:32:06Z</time>
      </trkpt>
      <trkpt lat="42.67048" lon="18.22937">
        <ele>337</ele>
        <time>2016-07-25T00:34:06Z</time>
      </trkpt>
      <trkpt lat="42.67051" lon="18.22944">
        <ele>336</ele>
        <time>2016-07-25T00:36:06Z</time>
      </trkpt>
      <trkpt lat="42.67055" lon="18.22951">
        <ele>335</ele>
        <time>2016-07-25T00:38:06Z</time>
      </trkpt>
      <trkpt lat="42.67059" lon="18.22957">
        <ele>334</ele>
        <time>2016-07-25T00:40:06Z</time>
      </trkpt>
      <trkpt lat="42.67063" lon="18.22964">
        <ele>333</ele>
        <time>2016-07-25T00:42:06Z</time>
      </trkpt>
      <trkpt lat="42.67068" lon="18.22972">
        <ele>332</ele>
        <time>2016-07-25T00:44:06Z</time>
      </trkpt>
      <trkpt lat="42.67073" lon="18.2298">
        <ele>331</ele>
        <time>2016-07-25T00:46:06Z</time>
      </trkpt>
      <trkpt lat="42.67078" lon="18.22988">
        <ele>329</ele>
        <time>2016-07-25T00:48:06Z</time>
      </trkpt>
      <trkpt lat="42.67083" lon="18.22996">
        <ele>327</ele>
        <time>2016-07-25T00:50:06Z</time>
      </trkpt>
      <trkpt lat="42.67088" lon="18.23003">
        <ele>326</ele>
        <time>2016-07-25T00:52:06Z</time>
      </trkpt>
      <trkpt lat="42.67094" lon="18.2301">
        <ele>326</ele>
        <time>2016-07-25T00:54:06Z</time>
      </trkpt>
      <trkpt lat="42.67099" lon="18.23017">
        <ele>325</ele>
        <time>2016-07-25T00:56:06Z</time>
      </trkpt>
      <trkpt lat="42.67104" lon="18.23024">
        <ele>324</ele>
        <time>2016-07-25T00:58:06Z</time>
      </trkpt>
      <trkpt lat="42.6711" lon="18.23031">
        <ele>324</ele>
        <time>2016-07-25T01:00:06Z</time>
      </trkpt>
      <trkpt lat="42.67116" lon="18.23038">
        <ele>323</ele>
        <time>2016-07-25T01:02:06Z</time>
      </trkpt>
      <trkpt lat="42.67121" lon="18.23044">
        <ele>322</ele>
        <time>2016-07-25T01:04:06Z</time>
      </trkpt>
      <trkpt lat="42.67126" lon="18.23049">
        <ele>322</ele>
        <time>2016-07-25T01:06:06Z</time>
      </trkpt>
      <trkpt lat="42.67131" lon="18.23054">
        <ele>321</ele>
        <time>2016-07-25T01:08:06Z</time>
      </trkpt>
      <trkpt lat="42.67136" lon="18.23059">
        <ele>321</ele>
        <time>2016-07-25T01:10:06Z</time>
      </trkpt>
      <trkpt lat="42.67141" lon="18.23064">
        <ele>320</ele>
        <time>2016-07-25T01:12:06Z</time>
      </trkpt>
      <trkpt lat="42.67147" lon="18.23069">
        <ele>320</ele>
        <time>2016-07-25T01:14:06Z</time>
      </trkpt>
      <trkpt lat="42.67152" lon="18.23074">
        <ele>319</ele>
        <time>2016-07-25T01:16:06Z</time>
      </trkpt>
      <trkpt lat="42.67158" lon="18.23078">
        <ele>319</ele>
        <time>2016-07-25T01:18:06Z</time>
      </trkpt>
      <trkpt lat="42.67164" lon="18.23083">
        <ele>318</ele>
        <time>2016-07-25T01:20:06Z</time>
      </trkpt>
      <trkpt lat="42.67169" lon="18.23087">
        <ele>318</ele>
        <time>2016-07-25T01:22:06Z</time>
      </trkpt>
      <trkpt lat="42.67217" lon="18.23115">
        <ele>312</ele>
        <time>2016-07-25T01:24:06Z</time>
      </trkpt>
      <trkpt lat="42.67229" lon="18.23122">
        <ele>311</ele>
        <time>2016-07-25T01:26:06Z</time>
      </trkpt>
      <trkpt lat="42.67241" lon="18.23128">
        <ele>309</ele>
        <time>2016-07-25T01:28:06Z</time>
      </trkpt>
      <trkpt lat="42.67253" lon="18.23134">
        <ele>308</ele>
        <time>2016-07-25T01:30:06Z</time>
      </trkpt>
      <trkpt lat="42.67266" lon="18.23142">
        <ele>308</ele>
        <time>2016-07-25T01:32:06Z</time>
      </trkpt>
      <trkpt lat="42.6728" lon="18.2315">
        <ele>308</ele>
        <time>2016-07-25T01:34:06Z</time>
      </trkpt>
      <trkpt lat="42.67294" lon="18.23158">
        <ele>309</ele>
        <time>2016-07-25T01:36:06Z</time>
      </trkpt>
      <trkpt lat="42.67301" lon="18.23163">
        <ele>309</ele>
        <time>2016-07-25T01:38:06Z</time>
      </trkpt>
      <trkpt lat="42.67309" lon="18.23169">
        <ele>309</ele>
        <time>2016-07-25T01:40:06Z</time>
      </trkpt>
      <trkpt lat="42.67316" lon="18.23174">
        <ele>309</ele>
        <time>2016-07-25T01:42:06Z</time>
      </trkpt>
      <trkpt lat="42.67323" lon="18.2318">
        <ele>309</ele>
        <time>2016-07-25T01:44:06Z</time>
      </trkpt>
      <trkpt lat="42.6733" lon="18.23186">
        <ele>309</ele>
        <time>2016-07-25T01:46:06Z</time>
      </trkpt>
      <trkpt lat="42.67336" lon="18.23192">
        <ele>308</ele>
        <time>2016-07-25T01:48:06Z</time>
      </trkpt>
      <trkpt lat="42.67343" lon="18.23199">
        <ele>308</ele>
        <time>2016-07-25T01:50:06Z</time>
      </trkpt>
      <trkpt lat="42.6735" lon="18.23206">
        <ele>308</ele>
        <time>2016-07-25T01:52:06Z</time>
      </trkpt>
      <trkpt lat="42.67357" lon="18.23213">
        <ele>307</ele>
        <time>2016-07-25T01:54:06Z</time>
      </trkpt>
      <trkpt lat="42.67364" lon="18.2322">
        <ele>307</ele>
        <time>2016-07-25T01:56:06Z</time>
      </trkpt>
      <trkpt lat="42.67371" lon="18.23227">
        <ele>306</ele>
        <time>2016-07-25T01:58:06Z</time>
      </trkpt>
      <trkpt lat="42.67377" lon="18.23235">
        <ele>306</ele>
        <time>2016-07-25T02:00:06Z</time>
      </trkpt>
      <trkpt lat="42.67384" lon="18.23243">
        <ele>306</ele>
        <time>2016-07-25T02:02:06Z</time>
      </trkpt>
      <trkpt lat="42.6739" lon="18.2325">
        <ele>306</ele>
        <time>2016-07-25T02:04:06Z</time>
      </trkpt>
      <trkpt lat="42.67395" lon="18.23256">
        <ele>306</ele>
        <time>2016-07-25T02:06:06Z</time>
      </trkpt>
      <trkpt lat="42.674" lon="18.23262">
        <ele>306</ele>
        <time>2016-07-25T02:08:06Z</time>
      </trkpt>
      <trkpt lat="42.67404" lon="18.23268">
        <ele>306</ele>
        <time>2016-07-25T02:10:06Z</time>
      </trkpt>
      <trkpt lat="42.67409" lon="18.23275">
        <ele>306</ele>
        <time>2016-07-25T02:12:06Z</time>
      </trkpt>
      <trkpt lat="42.67414" lon="18.23282">
        <ele>306</ele>
        <time>2016-07-25T02:14:06Z</time>
      </trkpt>
      <trkpt lat="42.67419" lon="18.2329">
        <ele>305</ele>
        <time>2016-07-25T02:16:06Z</time>
      </trkpt>
      <trkpt lat="42.67425" lon="18.23297">
        <ele>305</ele>
        <time>2016-07-25T02:18:06Z</time>
      </trkpt>
      <trkpt lat="42.6743" lon="18.23305">
        <ele>305</ele>
        <time>2016-07-25T02:20:06Z</time>
      </trkpt>
      <trkpt lat="42.67435" lon="18.23313">
        <ele>305</ele>
        <time>2016-07-25T02:22:06Z</time>
      </trkpt>
      <trkpt lat="42.67439" lon="18.23321">
        <ele>305</ele>
        <time>2016-07-25T02:24:06Z</time>
      </trkpt>
      <trkpt lat="42.67444" lon="18.2333">
        <ele>304</ele>
        <time>2016-07-25T02:26:06Z</time>
      </trkpt>
      <trkpt lat="42.67485" lon="18.23407">
        <ele>304</ele>
        <time>2016-07-25T02:28:06Z</time>
      </trkpt>
      <trkpt lat="42.67488" lon="18.23415">
        <ele>304</ele>
        <time>2016-07-25T02:30:06Z</time>
      </trkpt>
      <trkpt lat="42.67492" lon="18.23422">
        <ele>304</ele>
        <time>2016-07-25T02:32:06Z</time>
      </trkpt>
      <trkpt lat="42.67496" lon="18.2343">
        <ele>304</ele>
        <time>2016-07-25T02:34:06Z</time>
      </trkpt>
      <trkpt lat="42.675" lon="18.23437">
        <ele>304</ele>
        <time>2016-07-25T02:36:06Z</time>
      </trkpt>
      <trkpt lat="42.67504" lon="18.23445">
        <ele>304</ele>
        <time>2016-07-25T02:38:06Z</time>
      </trkpt>
      <trkpt lat="42.67508" lon="18.23452">
        <ele>304</ele>
        <time>2016-07-25T02:40:06Z</time>
      </trkpt>
      <trkpt lat="42.67513" lon="18.23459">
        <ele>303</ele>
        <time>2016-07-25T02:42:06Z</time>
      </trkpt>
      <trkpt lat="42.67517" lon="18.23466">
        <ele>303</ele>
        <time>2016-07-25T02:44:06Z</time>
      </trkpt>
      <trkpt lat="42.67521" lon="18.23472">
        <ele>303</ele>
        <time>2016-07-25T02:46:06Z</time>
      </trkpt>
      <trkpt lat="42.67526" lon="18.23478">
        <ele>303</ele>
        <time>2016-07-25T02:48:06Z</time>
      </trkpt>
      <trkpt lat="42.6753" lon="18.23485">
        <ele>303</ele>
        <time>2016-07-25T02:50:06Z</time>
      </trkpt>
      <trkpt lat="42.67535" lon="18.23491">
        <ele>302</ele>
        <time>2016-07-25T02:52:06Z</time>
      </trkpt>
      <trkpt lat="42.67539" lon="18.23495">
        <ele>302</ele>
        <time>2016-07-25T02:54:06Z</time>
      </trkpt>
      <trkpt lat="42.67543" lon="18.235">
        <ele>302</ele>
        <time>2016-07-25T02:56:06Z</time>
      </trkpt>
      <trkpt lat="42.67547" lon="18.23504">
        <ele>302</ele>
        <time>2016-07-25T02:58:06Z</time>
      </trkpt>
      <trkpt lat="42.67551" lon="18.23508">
        <ele>302</ele>
        <time>2016-07-25T03:00:06Z</time>
      </trkpt>
      <trkpt lat="42.67555" lon="18.23512">
        <ele>302</ele>
        <time>2016-07-25T03:02:06Z</time>
      </trkpt>
      <trkpt lat="42.67559" lon="18.23516">
        <ele>302</ele>
        <time>2016-07-25T03:04:06Z</time>
      </trkpt>
      <trkpt lat="42.67564" lon="18.23519">
        <ele>302</ele>
        <time>2016-07-25T03:06:06Z</time>
      </trkpt>
      <trkpt lat="42.67568" lon="18.23522">
        <ele>302</ele>
        <time>2016-07-25T03:08:06Z</time>
      </trkpt>
      <trkpt lat="42.67572" lon="18.23525">
        <ele>301</ele>
        <time>2016-07-25T03:10:06Z</time>
      </trkpt>
      <trkpt lat="42.67577" lon="18.23528">
        <ele>301</ele>
        <time>2016-07-25T03:12:06Z</time>
      </trkpt>
      <trkpt lat="42.67581" lon="18.23531">
        <ele>301</ele>
        <time>2016-07-25T03:14:06Z</time>
      </trkpt>
      <trkpt lat="42.67586" lon="18.23533">
        <ele>301</ele>
        <time>2016-07-25T03:16:06Z</time>
      </trkpt>
      <trkpt lat="42.6759" lon="18.23536">
        <ele>301</ele>
        <time>2016-07-25T03:18:06Z</time>
      </trkpt>
      <trkpt lat="42.67595" lon="18.23538">
        <ele>301</ele>
        <time>2016-07-25T03:20:06Z</time>
      </trkpt>
      <trkpt lat="42.676" lon="18.2354">
        <ele>301</ele>
        <time>2016-07-25T03:22:06Z</time>
      </trkpt>
      <trkpt lat="42.6764" lon="18.23551">
        <ele>300</ele>
        <time>2016-07-25T03:24:06Z</time>
      </trkpt>
      <trkpt lat="42.67646" lon="18.23552">
        <ele>300</ele>
        <time>2016-07-25T03:26:06Z</time>
      </trkpt>
      <trkpt lat="42.67652" lon="18.23554">
        <ele>299</ele>
        <time>2016-07-25T03:28:06Z</time>
      </trkpt>
      <trkpt lat="42.67658" lon="18.23555">
        <ele>299</ele>
        <time>2016-07-25T03:30:06Z</time>
      </trkpt>
      <trkpt lat="42.67663" lon="18.23557">
        <ele>299</ele>
        <time>2016-07-25T03:32:06Z</time>
      </trkpt>
      <trkpt lat="42.67669" lon="18.23559">
        <ele>299</ele>
        <time>2016-07-25T03:34:06Z</time>
      </trkpt>
      <trkpt lat="42.67675" lon="18.23561">
        <ele>299</ele>
        <time>2016-07-25T03:36:06Z</time>
      </trkpt>
      <trkpt lat="42.67681" lon="18.23564">
        <ele>299</ele>
        <time>2016-07-25T03:38:06Z</time>
      </trkpt>
      <trkpt lat="42.67686" lon="18.23566">
        <ele>299</ele>
        <time>2016-07-25T03:40:06Z</time>
      </trkpt>
      <trkpt lat="42.67692" lon="18.23569">
        <ele>299</ele>
        <time>2016-07-25T03:42:06Z</time>
      </trkpt>
      <trkpt lat="42.67697" lon="18.23572">
        <ele>299</ele>
        <time>2016-07-25T03:44:06Z</time>
      </trkpt>
      <trkpt lat="42.67703" lon="18.23575">
        <ele>299</ele>
        <time>2016-07-25T03:46:06Z</time>
      </trkpt>
      <trkpt lat="42.67708" lon="18.23579">
        <ele>299</ele>
        <time>2016-07-25T03:48:06Z</time>
      </trkpt>
      <trkpt lat="42.67713" lon="18.23582">
        <ele>299</ele>
        <time>2016-07-25T03:50:06Z</time>
      </trkpt>
      <trkpt lat="42.67719" lon="18.23586">
        <ele>299</ele>
        <time>2016-07-25T03:52:06Z</time>
      </trkpt>
      <trkpt lat="42.67723" lon="18.2359">
        <ele>299</ele>
        <time>2016-07-25T03:54:06Z</time>
      </trkpt>
      <trkpt lat="42.67727" lon="18.23595">
        <ele>299</ele>
        <time>2016-07-25T03:56:06Z</time>
      </trkpt>
      <trkpt lat="42.6773" lon="18.236">
        <ele>299</ele>
        <time>2016-07-25T03:58:06Z</time>
      </trkpt>
      <trkpt lat="42.67734" lon="18.23604">
        <ele>299</ele>
        <time>2016-07-25T04:00:06Z</time>
      </trkpt>
      <trkpt lat="42.67738" lon="18.23609">
        <ele>299</ele>
        <time>2016-07-25T04:02:06Z</time>
      </trkpt>
      <trkpt lat="42.67741" lon="18.23614">
        <ele>298</ele>
        <time>2016-07-25T04:04:06Z</time>
      </trkpt>
      <trkpt lat="42.67745" lon="18.23619">
        <ele>298</ele>
        <time>2016-07-25T04:06:06Z</time>
      </trkpt>
      <trkpt lat="42.67748" lon="18.23625">
        <ele>298</ele>
        <time>2016-07-25T04:08:06Z</time>
      </trkpt>
      <trkpt lat="42.67751" lon="18.2363">
        <ele>298</ele>
        <time>2016-07-25T04:10:06Z</time>
      </trkpt>
      <trkpt lat="42.67754" lon="18.23635">
        <ele>298</ele>
        <time>2016-07-25T04:12:06Z</time>
      </trkpt>
      <trkpt lat="42.67757" lon="18.23641">
        <ele>297</ele>
        <time>2016-07-25T04:14:06Z</time>
      </trkpt>
      <trkpt lat="42.6776" lon="18.23649">
        <ele>297</ele>
        <time>2016-07-25T04:16:06Z</time>
      </trkpt>
      <trkpt lat="42.67763" lon="18.23657">
        <ele>297</ele>
        <time>2016-07-25T04:18:06Z</time>
      </trkpt>
      <trkpt lat="42.67766" lon="18.23665">
        <ele>297</ele>
        <time>2016-07-25T04:20:06Z</time>
      </trkpt>
      <trkpt lat="42.67769" lon="18.23673">
        <ele>297</ele>
        <time>2016-07-25T04:22:06Z</time>
      </trkpt>
      <trkpt lat="42.67772" lon="18.23681">
        <ele>296</ele>
        <time>2016-07-25T04:24:06Z</time>
      </trkpt>
      <trkpt lat="42.67774" lon="18.23689">
        <ele>296</ele>
        <time>2016-07-25T04:26:06Z</time>
      </trkpt>
      <trkpt lat="42.67822" lon="18.23871">
        <ele>298</ele>
        <time>2016-07-25T04:28:06Z</time>
      </trkpt>
      <trkpt lat="42.6786" lon="18.24017">
        <ele>295</ele>
        <time>2016-07-25T04:30:06Z</time>
      </trkpt>
      <trkpt lat="42.67864" lon="18.24034">
        <ele>294</ele>
        <time>2016-07-25T04:32:06Z</time>
      </trkpt>
      <trkpt lat="42.67868" lon="18.24051">
        <ele>294</ele>
        <time>2016-07-25T04:34:06Z</time>
      </trkpt>
      <trkpt lat="42.67871" lon="18.24068">
        <ele>293</ele>
        <time>2016-07-25T04:36:06Z</time>
      </trkpt>
      <trkpt lat="42.67875" lon="18.24083">
        <ele>293</ele>
        <time>2016-07-25T04:38:06Z</time>
      </trkpt>
      <trkpt lat="42.67878" lon="18.24098">
        <ele>293</ele>
        <time>2016-07-25T04:40:06Z</time>
      </trkpt>
      <trkpt lat="42.67881" lon="18.24113">
        <ele>292</ele>
        <time>2016-07-25T04:42:06Z</time>
      </trkpt>
      <trkpt lat="42.67884" lon="18.24129">
        <ele>291</ele>
        <time>2016-07-25T04:44:06Z</time>
      </trkpt>
      <trkpt lat="42.67886" lon="18.24142">
        <ele>291</ele>
        <time>2016-07-25T04:46:06Z</time>
      </trkpt>
      <trkpt lat="42.67888" lon="18.24155">
        <ele>291</ele>
        <time>2016-07-25T04:48:06Z</time>
      </trkpt>
      <trkpt lat="42.6789" lon="18.24169">
        <ele>290</ele>
        <time>2016-07-25T04:50:06Z</time>
      </trkpt>
      <trkpt lat="42.67893" lon="18.24182">
        <ele>290</ele>
        <time>2016-07-25T04:52:06Z</time>
      </trkpt>
      <trkpt lat="42.67895" lon="18.24195">
        <ele>290</ele>
        <time>2016-07-25T04:54:06Z</time>
      </trkpt>
      <trkpt lat="42.67896" lon="18.24198">
        <ele>290</ele>
        <time>2016-07-25T04:56:06Z</time>
      </trkpt>
      <trkpt lat="42.67898" lon="18.24208">
        <ele>290</ele>
        <time>2016-07-25T04:58:06Z</time>
      </trkpt>
      <trkpt lat="42.679" lon="18.24221">
        <ele>290</ele>
        <time>2016-07-25T05:00:06Z</time>
      </trkpt>
      <trkpt lat="42.67903" lon="18.24234">
        <ele>290</ele>
        <time>2016-07-25T05:02:06Z</time>
      </trkpt>
      <trkpt lat="42.67906" lon="18.24247">
        <ele>290</ele>
        <time>2016-07-25T05:04:06Z</time>
      </trkpt>
      <trkpt lat="42.67908" lon="18.24255">
        <ele>290</ele>
        <time>2016-07-25T05:06:06Z</time>
      </trkpt>
      <trkpt lat="42.67911" lon="18.24263">
        <ele>290</ele>
        <time>2016-07-25T05:08:06Z</time>
      </trkpt>
      <trkpt lat="42.67914" lon="18.24271">
        <ele>290</ele>
        <time>2016-07-25T05:10:06Z</time>
      </trkpt>
      <trkpt lat="42.67916" lon="18.24278">
        <ele>290</ele>
        <time>2016-07-25T05:12:06Z</time>
      </trkpt>
      <trkpt lat="42.67919" lon="18.24286">
        <ele>290</ele>
        <time>2016-07-25T05:14:06Z</time>
      </trkpt>
      <trkpt lat="42.67922" lon="18.24293">
        <ele>290</ele>
        <time>2016-07-25T05:16:06Z</time>
      </trkpt>
      <trkpt lat="42.67925" lon="18.24302">
        <ele>290</ele>
        <time>2016-07-25T05:18:06Z</time>
      </trkpt>
      <trkpt lat="42.67929" lon="18.2431">
        <ele>291</ele>
        <time>2016-07-25T05:20:06Z</time>
      </trkpt>
      <trkpt lat="42.67932" lon="18.24317">
        <ele>291</ele>
        <time>2016-07-25T05:22:06Z</time>
      </trkpt>
      <trkpt lat="42.67936" lon="18.24325">
        <ele>291</ele>
        <time>2016-07-25T05:24:06Z</time>
      </trkpt>
      <trkpt lat="42.6794" lon="18.24333">
        <ele>292</ele>
        <time>2016-07-25T05:26:06Z</time>
      </trkpt>
      <trkpt lat="42.67944" lon="18.24341">
        <ele>292</ele>
        <time>2016-07-25T05:28:06Z</time>
      </trkpt>
      <trkpt lat="42.67948" lon="18.24348">
        <ele>292</ele>
        <time>2016-07-25T05:30:06Z</time>
      </trkpt>
      <trkpt lat="42.67952" lon="18.24355">
        <ele>292</ele>
        <time>2016-07-25T05:32:06Z</time>
      </trkpt>
      <trkpt lat="42.67985" lon="18.24406">
        <ele>292</ele>
        <time>2016-07-25T05:34:06Z</time>
      </trkpt>
      <trkpt lat="42.67992" lon="18.24417">
        <ele>292</ele>
        <time>2016-07-25T05:36:06Z</time>
      </trkpt>
      <trkpt lat="42.67999" lon="18.24427">
        <ele>292</ele>
        <time>2016-07-25T05:38:06Z</time>
      </trkpt>
      <trkpt lat="42.68006" lon="18.24438">
        <ele>292</ele>
        <time>2016-07-25T05:40:06Z</time>
      </trkpt>
      <trkpt lat="42.68013" lon="18.24447">
        <ele>292</ele>
        <time>2016-07-25T05:42:06Z</time>
      </trkpt>
      <trkpt lat="42.6802" lon="18.24457">
        <ele>292</ele>
        <time>2016-07-25T05:44:06Z</time>
      </trkpt>
      <trkpt lat="42.68028" lon="18.24466">
        <ele>292</ele>
        <time>2016-07-25T05:46:06Z</time>
      </trkpt>
      <trkpt lat="42.68035" lon="18.24476">
        <ele>292</ele>
        <time>2016-07-25T05:48:06Z</time>
      </trkpt>
      <trkpt lat="42.68042" lon="18.24485">
        <ele>292</ele>
        <time>2016-07-25T05:50:06Z</time>
      </trkpt>
      <trkpt lat="42.68046" lon="18.24488">
        <ele>292</ele>
        <time>2016-07-25T05:52:06Z</time>
      </trkpt>
      <trkpt lat="42.6805" lon="18.24492">
        <ele>292</ele>
        <time>2016-07-25T05:54:06Z</time>
      </trkpt>
      <trkpt lat="42.68054" lon="18.24495">
        <ele>292</ele>
        <time>2016-07-25T05:56:06Z</time>
      </trkpt>
      <trkpt lat="42.68058" lon="18.24498">
        <ele>292</ele>
        <time>2016-07-25T05:58:06Z</time>
      </trkpt>
      <trkpt lat="42.68062" lon="18.24501">
        <ele>292</ele>
        <time>2016-07-25T06:00:06Z</time>
      </trkpt>
      <trkpt lat="42.68066" lon="18.24505">
        <ele>292</ele>
        <time>2016-07-25T06:02:06Z</time>
      </trkpt>
      <trkpt lat="42.68071" lon="18.24508">
        <ele>291</ele>
        <time>2016-07-25T06:04:06Z</time>
      </trkpt>
      <trkpt lat="42.68076" lon="18.2451">
        <ele>291</ele>
        <time>2016-07-25T06:06:06Z</time>
      </trkpt>
      <trkpt lat="42.6808" lon="18.24513">
        <ele>291</ele>
        <time>2016-07-25T06:08:06Z</time>
      </trkpt>
      <trkpt lat="42.68085" lon="18.24516">
        <ele>291</ele>
        <time>2016-07-25T06:10:06Z</time>
      </trkpt>
      <trkpt lat="42.6809" lon="18.24518">
        <ele>291</ele>
        <time>2016-07-25T06:12:06Z</time>
      </trkpt>
      <trkpt lat="42.68095" lon="18.2452">
        <ele>291</ele>
        <time>2016-07-25T06:14:06Z</time>
      </trkpt>
      <trkpt lat="42.681" lon="18.24522">
        <ele>291</ele>
        <time>2016-07-25T06:16:06Z</time>
      </trkpt>
      <trkpt lat="42.6814" lon="18.24533">
        <ele>292</ele>
        <time>2016-07-25T06:18:06Z</time>
      </trkpt>
      <trkpt lat="42.6815" lon="18.24536">
        <ele>292</ele>
        <time>2016-07-25T06:20:06Z</time>
      </trkpt>
      <trkpt lat="42.68159" lon="18.24539">
        <ele>292</ele>
        <time>2016-07-25T06:22:06Z</time>
      </trkpt>
      <trkpt lat="42.68168" lon="18.24542">
        <ele>292</ele>
        <time>2016-07-25T06:24:06Z</time>
      </trkpt>
      <trkpt lat="42.68177" lon="18.24546">
        <ele>292</ele>
        <time>2016-07-25T06:26:06Z</time>
      </trkpt>
      <trkpt lat="42.68187" lon="18.24549">
        <ele>291</ele>
        <time>2016-07-25T06:28:06Z</time>
      </trkpt>
      <trkpt lat="42.68196" lon="18.24553">
        <ele>291</ele>
        <time>2016-07-25T06:30:06Z</time>
      </trkpt>
      <trkpt lat="42.68206" lon="18.24557">
        <ele>291</ele>
        <time>2016-07-25T06:32:06Z</time>
      </trkpt>
      <trkpt lat="42.68215" lon="18.24561">
        <ele>290</ele>
        <time>2016-07-25T06:34:06Z</time>
      </trkpt>
      <trkpt lat="42.68225" lon="18.24566">
        <ele>290</ele>
        <time>2016-07-25T06:36:06Z</time>
      </trkpt>
      <trkpt lat="42.68235" lon="18.24571">
        <ele>290</ele>
        <time>2016-07-25T06:38:06Z</time>
      </trkpt>
      <trkpt lat="42.68245" lon="18.24576">
        <ele>290</ele>
        <time>2016-07-25T06:40:06Z</time>
      </trkpt>
      <trkpt lat="42.68255" lon="18.24582">
        <ele>290</ele>
        <time>2016-07-25T06:42:06Z</time>
      </trkpt>
      <trkpt lat="42.68265" lon="18.24589">
        <ele>290</ele>
        <time>2016-07-25T06:44:06Z</time>
      </trkpt>
      <trkpt lat="42.68275" lon="18.24596">
        <ele>290</ele>
        <time>2016-07-25T06:46:06Z</time>
      </trkpt>
      <trkpt lat="42.68285" lon="18.24603">
        <ele>290</ele>
        <time>2016-07-25T06:48:06Z</time>
      </trkpt>
      <trkpt lat="42.68296" lon="18.24611">
        <ele>290</ele>
        <time>2016-07-25T06:50:06Z</time>
      </trkpt>
      <trkpt lat="42.68307" lon="18.2462">
        <ele>290</ele>
        <time>2016-07-25T06:52:06Z</time>
      </trkpt>
      <trkpt lat="42.68318" lon="18.24628">
        <ele>290</ele>
        <time>2016-07-25T06:54:06Z</time>
      </trkpt>
      <trkpt lat="42.68329" lon="18.24637">
        <ele>289</ele>
        <time>2016-07-25T06:56:06Z</time>
      </trkpt>
      <trkpt lat="42.6834" lon="18.24645">
        <ele>289</ele>
        <time>2016-07-25T06:58:06Z</time>
      </trkpt>
      <trkpt lat="42.6843" lon="18.24742">
        <ele>291</ele>
        <time>2016-07-25T07:00:06Z</time>
      </trkpt>
      <trkpt lat="42.68434" lon="18.24746">
        <ele>291</ele>
        <time>2016-07-25T07:02:06Z</time>
      </trkpt>
      <trkpt lat="42.68438" lon="18.24749">
        <ele>291</ele>
        <time>2016-07-25T07:04:06Z</time>
      </trkpt>
      <trkpt lat="42.68442" lon="18.24753">
        <ele>291</ele>
        <time>2016-07-25T07:06:06Z</time>
      </trkpt>
      <trkpt lat="42.68446" lon="18.24756">
        <ele>292</ele>
        <time>2016-07-25T07:08:06Z</time>
      </trkpt>
      <trkpt lat="42.6845" lon="18.2476">
        <ele>292</ele>
        <time>2016-07-25T07:10:06Z</time>
      </trkpt>
      <trkpt lat="42.68454" lon="18.24763">
        <ele>292</ele>
        <time>2016-07-25T07:12:06Z</time>
      </trkpt>
      <trkpt lat="42.68458" lon="18.24765">
        <ele>292</ele>
        <time>2016-07-25T07:14:06Z</time>
      </trkpt>
      <trkpt lat="42.68462" lon="18.24768">
        <ele>292</ele>
        <time>2016-07-25T07:16:06Z</time>
      </trkpt>
      <trkpt lat="42.68466" lon="18.2477">
        <ele>292</ele>
        <time>2016-07-25T07:18:06Z</time>
      </trkpt>
      <trkpt lat="42.68471" lon="18.24772">
        <ele>292</ele>
        <time>2016-07-25T07:20:06Z</time>
      </trkpt>
      <trkpt lat="42.68475" lon="18.24774">
        <ele>291</ele>
        <time>2016-07-25T07:22:06Z</time>
      </trkpt>
      <trkpt lat="42.68479" lon="18.24776">
        <ele>291</ele>
        <time>2016-07-25T07:24:06Z</time>
      </trkpt>
      <trkpt lat="42.68484" lon="18.24778">
        <ele>291</ele>
        <time>2016-07-25T07:26:06Z</time>
      </trkpt>
      <trkpt lat="42.68488" lon="18.24779">
        <ele>291</ele>
        <time>2016-07-25T07:28:06Z</time>
      </trkpt>
      <trkpt lat="42.68492" lon="18.24781">
        <ele>291</ele>
        <time>2016-07-25T07:30:06Z</time>
      </trkpt>
      <trkpt lat="42.68499" lon="18.24782">
        <ele>291</ele>
        <time>2016-07-25T07:32:06Z</time>
      </trkpt>
      <trkpt lat="42.68503" lon="18.24783">
        <ele>291</ele>
        <time>2016-07-25T07:34:06Z</time>
      </trkpt>
      <trkpt lat="42.68508" lon="18.24784">
        <ele>290</ele>
        <time>2016-07-25T07:36:06Z</time>
      </trkpt>
      <trkpt lat="42.68513" lon="18.24785">
        <ele>290</ele>
        <time>2016-07-25T07:38:06Z</time>
      </trkpt>
      <trkpt lat="42.68519" lon="18.24787">
        <ele>289</ele>
        <time>2016-07-25T07:40:06Z</time>
      </trkpt>
      <trkpt lat="42.68524" lon="18.24789">
        <ele>289</ele>
        <time>2016-07-25T07:42:06Z</time>
      </trkpt>
      <trkpt lat="42.68529" lon="18.24791">
        <ele>289</ele>
        <time>2016-07-25T07:44:06Z</time>
      </trkpt>
      <trkpt lat="42.68534" lon="18.24793">
        <ele>288</ele>
        <time>2016-07-25T07:46:06Z</time>
      </trkpt>
      <trkpt lat="42.68538" lon="18.24795">
        <ele>288</ele>
        <time>2016-07-25T07:48:06Z</time>
      </trkpt>
      <trkpt lat="42.68543" lon="18.24797">
        <ele>287</ele>
        <time>2016-07-25T07:50:06Z</time>
      </trkpt>
      <trkpt lat="42.68547" lon="18.248">
        <ele>287</ele>
        <time>2016-07-25T07:52:06Z</time>
      </trkpt>
      <trkpt lat="42.68552" lon="18.24802">
        <ele>286</ele>
        <time>2016-07-25T07:54:06Z</time>
      </trkpt>
      <trkpt lat="42.68556" lon="18.24805">
        <ele>286</ele>
        <time>2016-07-25T07:56:06Z</time>
      </trkpt>
      <trkpt lat="42.6856" lon="18.24808">
        <ele>286</ele>
        <time>2016-07-25T07:58:06Z</time>
      </trkpt>
      <trkpt lat="42.68563" lon="18.2481">
        <ele>285</ele>
        <time>2016-07-25T08:00:06Z</time>
      </trkpt>
      <trkpt lat="42.68566" lon="18.24813">
        <ele>285</ele>
        <time>2016-07-25T08:02:06Z</time>
      </trkpt>
      <trkpt lat="42.6857" lon="18.24816">
        <ele>285</ele>
        <time>2016-07-25T08:04:06Z</time>
      </trkpt>
      <trkpt lat="42.68573" lon="18.24819">
        <ele>284</ele>
        <time>2016-07-25T08:06:06Z</time>
      </trkpt>
      <trkpt lat="42.68576" lon="18.24822">
        <ele>284</ele>
        <time>2016-07-25T08:08:06Z</time>
      </trkpt>
      <trkpt lat="42.68579" lon="18.24826">
        <ele>284</ele>
        <time>2016-07-25T08:10:06Z</time>
      </trkpt>
      <trkpt lat="42.68582" lon="18.2483">
        <ele>283</ele>
        <time>2016-07-25T08:12:06Z</time>
      </trkpt>
      <trkpt lat="42.68585" lon="18.24834">
        <ele>283</ele>
        <time>2016-07-25T08:14:06Z</time>
      </trkpt>
      <trkpt lat="42.68589" lon="18.24839">
        <ele>283</ele>
        <time>2016-07-25T08:16:06Z</time>
      </trkpt>
      <trkpt lat="42.68592" lon="18.24843">
        <ele>283</ele>
        <time>2016-07-25T08:18:06Z</time>
      </trkpt>
      <trkpt lat="42.68594" lon="18.24848">
        <ele>283</ele>
        <time>2016-07-25T08:20:06Z</time>
      </trkpt>
      <trkpt lat="42.68597" lon="18.24852">
        <ele>284</ele>
        <time>2016-07-25T08:22:06Z</time>
      </trkpt>
      <trkpt lat="42.686" lon="18.24857">
        <ele>284</ele>
        <time>2016-07-25T08:24:06Z</time>
      </trkpt>
      <trkpt lat="42.68602" lon="18.24862">
        <ele>284</ele>
        <time>2016-07-25T08:26:06Z</time>
      </trkpt>
      <trkpt lat="42.68605" lon="18.24867">
        <ele>284</ele>
        <time>2016-07-25T08:28:06Z</time>
      </trkpt>
      <trkpt lat="42.68628" lon="18.24921">
        <ele>285</ele>
        <time>2016-07-25T08:30:06Z</time>
      </trkpt>
      <trkpt lat="42.6863" lon="18.24926">
        <ele>285</ele>
        <time>2016-07-25T08:32:06Z</time>
      </trkpt>
      <trkpt lat="42.68633" lon="18.2493">
        <ele>285</ele>
        <time>2016-07-25T08:34:06Z</time>
      </trkpt>
      <trkpt lat="42.68636" lon="18.24935">
        <ele>285</ele>
        <time>2016-07-25T08:36:06Z</time>
      </trkpt>
      <trkpt lat="42.68639" lon="18.2494">
        <ele>285</ele>
        <time>2016-07-25T08:38:06Z</time>
      </trkpt>
      <trkpt lat="42.68643" lon="18.24944">
        <ele>285</ele>
        <time>2016-07-25T08:40:06Z</time>
      </trkpt>
      <trkpt lat="42.68646" lon="18.24948">
        <ele>284</ele>
        <time>2016-07-25T08:42:06Z</time>
      </trkpt>
      <trkpt lat="42.68649" lon="18.24952">
        <ele>284</ele>
        <time>2016-07-25T08:44:06Z</time>
      </trkpt>
      <trkpt lat="42.68653" lon="18.24956">
        <ele>284</ele>
        <time>2016-07-25T08:46:06Z</time>
      </trkpt>
      <trkpt lat="42.68656" lon="18.2496">
        <ele>284</ele>
        <time>2016-07-25T08:48:06Z</time>
      </trkpt>
      <trkpt lat="42.6866" lon="18.24963">
        <ele>284</ele>
        <time>2016-07-25T08:50:06Z</time>
      </trkpt>
      <trkpt lat="42.68664" lon="18.24967">
        <ele>284</ele>
        <time>2016-07-25T08:52:06Z</time>
      </trkpt>
      <trkpt lat="42.68668" lon="18.2497">
        <ele>284</ele>
        <time>2016-07-25T08:54:06Z</time>
      </trkpt>
      <trkpt lat="42.68672" lon="18.24973">
        <ele>284</ele>
        <time>2016-07-25T08:56:06Z</time>
      </trkpt>
      <trkpt lat="42.68676" lon="18.24976">
        <ele>284</ele>
        <time>2016-07-25T08:58:06Z</time>
      </trkpt>
      <trkpt lat="42.6868" lon="18.24979">
        <ele>283</ele>
        <time>2016-07-25T09:00:06Z</time>
      </trkpt>
      <trkpt lat="42.68684" lon="18.24981">
        <ele>283</ele>
        <time>2016-07-25T09:02:06Z</time>
      </trkpt>
      <trkpt lat="42.68688" lon="18.24983">
        <ele>283</ele>
        <time>2016-07-25T09:04:06Z</time>
      </trkpt>
      <trkpt lat="42.68692" lon="18.24985">
        <ele>283</ele>
        <time>2016-07-25T09:06:06Z</time>
      </trkpt>
      <trkpt lat="42.68697" lon="18.24987">
        <ele>283</ele>
        <time>2016-07-25T09:08:06Z</time>
      </trkpt>
      <trkpt lat="42.68702" lon="18.2499">
        <ele>283</ele>
        <time>2016-07-25T09:10:06Z</time>
      </trkpt>
      <trkpt lat="42.68707" lon="18.24992">
        <ele>283</ele>
        <time>2016-07-25T09:12:06Z</time>
      </trkpt>
      <trkpt lat="42.68711" lon="18.24995">
        <ele>283</ele>
        <time>2016-07-25T09:14:06Z</time>
      </trkpt>
      <trkpt lat="42.68716" lon="18.24998">
        <ele>282</ele>
        <time>2016-07-25T09:16:06Z</time>
      </trkpt>
      <trkpt lat="42.68721" lon="18.25001">
        <ele>282</ele>
        <time>2016-07-25T09:18:06Z</time>
      </trkpt>
      <trkpt lat="42.68726" lon="18.25004">
        <ele>282</ele>
        <time>2016-07-25T09:20:06Z</time>
      </trkpt>
      <trkpt lat="42.68731" lon="18.25008">
        <ele>282</ele>
        <time>2016-07-25T09:22:06Z</time>
      </trkpt>
      <trkpt lat="42.68735" lon="18.25011">
        <ele>282</ele>
        <time>2016-07-25T09:24:06Z</time>
      </trkpt>
      <trkpt lat="42.6874" lon="18.25015">
        <ele>282</ele>
        <time>2016-07-25T09:26:06Z</time>
      </trkpt>
      <trkpt lat="42.68745" lon="18.25019">
        <ele>282</ele>
        <time>2016-07-25T09:28:06Z</time>
      </trkpt>
      <trkpt lat="42.68748" lon="18.25023">
        <ele>282</ele>
        <time>2016-07-25T09:30:06Z</time>
      </trkpt>
      <trkpt lat="42.68751" lon="18.25028">
        <ele>282</ele>
        <time>2016-07-25T09:32:06Z</time>
      </trkpt>
      <trkpt lat="42.68754" lon="18.25032">
        <ele>282</ele>
        <time>2016-07-25T09:34:06Z</time>
      </trkpt>
      <trkpt lat="42.68757" lon="18.25037">
        <ele>282</ele>
        <time>2016-07-25T09:36:06Z</time>
      </trkpt>
      <trkpt lat="42.6876" lon="18.25041">
        <ele>283</ele>
        <time>2016-07-25T09:38:06Z</time>
      </trkpt>
      <trkpt lat="42.68763" lon="18.25046">
        <ele>283</ele>
        <time>2016-07-25T09:40:06Z</time>
      </trkpt>
      <trkpt lat="42.68766" lon="18.25051">
        <ele>283</ele>
        <time>2016-07-25T09:42:06Z</time>
      </trkpt>
      <trkpt lat="42.68769" lon="18.25057">
        <ele>283</ele>
        <time>2016-07-25T09:44:06Z</time>
      </trkpt>
      <trkpt lat="42.68771" lon="18.25062">
        <ele>283</ele>
        <time>2016-07-25T09:46:06Z</time>
      </trkpt>
      <trkpt lat="42.68774" lon="18.25068">
        <ele>283</ele>
        <time>2016-07-25T09:48:06Z</time>
      </trkpt>
      <trkpt lat="42.68776" lon="18.25073">
        <ele>283</ele>
        <time>2016-07-25T09:50:06Z</time>
      </trkpt>
      <trkpt lat="42.68778" lon="18.25079">
        <ele>283</ele>
        <time>2016-07-25T09:52:06Z</time>
      </trkpt>
      <trkpt lat="42.6878" lon="18.25085">
        <ele>283</ele>
        <time>2016-07-25T09:54:06Z</time>
      </trkpt>
      <trkpt lat="42.68782" lon="18.25091">
        <ele>283</ele>
        <time>2016-07-25T09:56:06Z</time>
      </trkpt>
      <trkpt lat="42.68784" lon="18.25097">
        <ele>283</ele>
        <time>2016-07-25T09:58:06Z</time>
      </trkpt>
      <trkpt lat="42.68785" lon="18.25103">
        <ele>283</ele>
        <time>2016-07-25T10:00:06Z</time>
      </trkpt>
      <trkpt lat="42.68787" lon="18.25109">
        <ele>283</ele>
        <time>2016-07-25T10:02:06Z</time>
      </trkpt>
      <trkpt lat="42.68788" lon="18.25116">
        <ele>283</ele>
        <time>2016-07-25T10:04:06Z</time>
      </trkpt>
      <trkpt lat="42.6879" lon="18.25126">
        <ele>283</ele>
        <time>2016-07-25T10:06:06Z</time>
      </trkpt>
      <trkpt lat="42.68791" lon="18.25136">
        <ele>283</ele>
        <time>2016-07-25T10:08:06Z</time>
      </trkpt>
      <trkpt lat="42.68793" lon="18.25146">
        <ele>283</ele>
        <time>2016-07-25T10:10:06Z</time>
      </trkpt>
      <trkpt lat="42.68795" lon="18.25157">
        <ele>283</ele>
        <time>2016-07-25T10:12:06Z</time>
      </trkpt>
      <trkpt lat="42.68797" lon="18.25167">
        <ele>282</ele>
        <time>2016-07-25T10:14:06Z</time>
      </trkpt>
      <trkpt lat="42.688" lon="18.25177">
        <ele>282</ele>
        <time>2016-07-25T10:16:06Z</time>
      </trkpt>
      <trkpt lat="42.68802" lon="18.25187">
        <ele>282</ele>
        <time>2016-07-25T10:18:06Z</time>
      </trkpt>
      <trkpt lat="42.68805" lon="18.25198">
        <ele>282</ele>
        <time>2016-07-25T10:20:06Z</time>
      </trkpt>
      <trkpt lat="42.68808" lon="18.25208">
        <ele>282</ele>
        <time>2016-07-25T10:22:06Z</time>
      </trkpt>
      <trkpt lat="42.68811" lon="18.25218">
        <ele>282</ele>
        <time>2016-07-25T10:24:06Z</time>
      </trkpt>
      <trkpt lat="42.68814" lon="18.25227">
        <ele>282</ele>
        <time>2016-07-25T10:26:06Z</time>
      </trkpt>
      <trkpt lat="42.68817" lon="18.25237">
        <ele>282</ele>
        <time>2016-07-25T10:28:06Z</time>
      </trkpt>
      <trkpt lat="42.68821" lon="18.25247">
        <ele>282</ele>
        <time>2016-07-25T10:30:06Z</time>
      </trkpt>
      <trkpt lat="42.68825" lon="18.25257">
        <ele>282</ele>
        <time>2016-07-25T10:32:06Z</time>
      </trkpt>
      <trkpt lat="42.68828" lon="18.25266">
        <ele>281</ele>
        <time>2016-07-25T10:34:06Z</time>
      </trkpt>
      <trkpt lat="42.68832" lon="18.25274">
        <ele>281</ele>
        <time>2016-07-25T10:36:06Z</time>
      </trkpt>
      <trkpt lat="42.68836" lon="18.25283">
        <ele>281</ele>
        <time>2016-07-25T10:38:06Z</time>
      </trkpt>
      <trkpt lat="42.6884" lon="18.25292">
        <ele>281</ele>
        <time>2016-07-25T10:40:06Z</time>
      </trkpt>
      <trkpt lat="42.68844" lon="18.253">
        <ele>281</ele>
        <time>2016-07-25T10:42:06Z</time>
      </trkpt>
      <trkpt lat="42.68848" lon="18.25309">
        <ele>280</ele>
        <time>2016-07-25T10:44:06Z</time>
      </trkpt>
      <trkpt lat="42.68852" lon="18.25317">
        <ele>280</ele>
        <time>2016-07-25T10:46:06Z</time>
      </trkpt>
      <trkpt lat="42.68857" lon="18.25325">
        <ele>280</ele>
        <time>2016-07-25T10:48:06Z</time>
      </trkpt>
      <trkpt lat="42.68866" lon="18.2534">
        <ele>279</ele>
        <time>2016-07-25T10:50:06Z</time>
      </trkpt>
      <trkpt lat="42.68875" lon="18.25355">
        <ele>279</ele>
        <time>2016-07-25T10:52:06Z</time>
      </trkpt>
      <trkpt lat="42.68884" lon="18.2537">
        <ele>278</ele>
        <time>2016-07-25T10:54:06Z</time>
      </trkpt>
      <trkpt lat="42.68892" lon="18.25386">
        <ele>278</ele>
        <time>2016-07-25T10:56:06Z</time>
      </trkpt>
      <trkpt lat="42.68901" lon="18.25401">
        <ele>278</ele>
        <time>2016-07-25T10:58:06Z</time>
      </trkpt>
      <trkpt lat="42.68909" lon="18.25417">
        <ele>278</ele>
        <time>2016-07-25T11:00:06Z</time>
      </trkpt>
      <trkpt lat="42.68918" lon="18.25432">
        <ele>278</ele>
        <time>2016-07-25T11:02:06Z</time>
      </trkpt>
      <trkpt lat="42.68926" lon="18.25448">
        <ele>279</ele>
        <time>2016-07-25T11:04:06Z</time>
      </trkpt>
      <trkpt lat="42.68931" lon="18.25457">
        <ele>279</ele>
        <time>2016-07-25T11:06:06Z</time>
      </trkpt>
      <trkpt lat="42.68935" lon="18.25467">
        <ele>279</ele>
        <time>2016-07-25T11:08:06Z</time>
      </trkpt>
      <trkpt lat="42.68939" lon="18.25477">
        <ele>279</ele>
        <time>2016-07-25T11:10:06Z</time>
      </trkpt>
      <trkpt lat="42.68942" lon="18.25487">
        <ele>279</ele>
        <time>2016-07-25T11:12:06Z</time>
      </trkpt>
      <trkpt lat="42.68946" lon="18.25498">
        <ele>279</ele>
        <time>2016-07-25T11:14:06Z</time>
      </trkpt>
      <trkpt lat="42.68949" lon="18.25509">
        <ele>279</ele>
        <time>2016-07-25T11:16:06Z</time>
      </trkpt>
      <trkpt lat="42.68952" lon="18.2552">
        <ele>279</ele>
        <time>2016-07-25T11:18:06Z</time>
      </trkpt>
      <trkpt lat="42.68955" lon="18.25531">
        <ele>279</ele>
        <time>2016-07-25T11:20:06Z</time>
      </trkpt>
      <trkpt lat="42.68958" lon="18.25542">
        <ele>278</ele>
        <time>2016-07-25T11:22:06Z</time>
      </trkpt>
      <trkpt lat="42.6896" lon="18.25554">
        <ele>278</ele>
        <time>2016-07-25T11:24:06Z</time>
      </trkpt>
      <trkpt lat="42.68962" lon="18.25565">
        <ele>278</ele>
        <time>2016-07-25T11:26:06Z</time>
      </trkpt>
      <trkpt lat="42.68963" lon="18.25577">
        <ele>278</ele>
        <time>2016-07-25T11:28:06Z</time>
      </trkpt>
      <trkpt lat="42.68965" lon="18.25589">
        <ele>278</ele>
        <time>2016-07-25T11:30:06Z</time>
      </trkpt>
      <trkpt lat="42.68965" lon="18.256">
        <ele>278</ele>
        <time>2016-07-25T11:32:06Z</time>
      </trkpt>
      <trkpt lat="42.68965" lon="18.25611">
        <ele>278</ele>
        <time>2016-07-25T11:34:06Z</time>
      </trkpt>
      <trkpt lat="42.68965" lon="18.25622">
        <ele>278</ele>
        <time>2016-07-25T11:36:06Z</time>
      </trkpt>
      <trkpt lat="42.68965" lon="18.25633">
        <ele>278</ele>
        <time>2016-07-25T11:38:06Z</time>
      </trkpt>
      <trkpt lat="42.68964" lon="18.25645">
        <ele>278</ele>
        <time>2016-07-25T11:40:06Z</time>
      </trkpt>
      <trkpt lat="42.68964" lon="18.25657">
        <ele>278</ele>
        <time>2016-07-25T11:42:06Z</time>
      </trkpt>
      <trkpt lat="42.68963" lon="18.25669">
        <ele>278</ele>
        <time>2016-07-25T11:44:06Z</time>
      </trkpt>
      <trkpt lat="42.68961" lon="18.25681">
        <ele>278</ele>
        <time>2016-07-25T11:46:06Z</time>
      </trkpt>
      <trkpt lat="42.6896" lon="18.25693">
        <ele>278</ele>
        <time>2016-07-25T11:48:06Z</time>
      </trkpt>
      <trkpt lat="42.68957" lon="18.25705">
        <ele>277</ele>
        <time>2016-07-25T11:50:06Z</time>
      </trkpt>
      <trkpt lat="42.68929" lon="18.2579">
        <ele>277</ele>
        <time>2016-07-25T11:52:06Z</time>
      </trkpt>
      <trkpt lat="42.68856" lon="18.25995">
        <ele>277</ele>
        <time>2016-07-25T11:54:06Z</time>
      </trkpt>
      <trkpt lat="42.68829" lon="18.26083">
        <ele>275</ele>
        <time>2016-07-25T11:56:06Z</time>
      </trkpt>
      <trkpt lat="42.68809" lon="18.26176">
        <ele>274</ele>
        <time>2016-07-25T11:58:06Z</time>
      </trkpt>
      <trkpt lat="42.68805" lon="18.26192">
        <ele>275</ele>
        <time>2016-07-25T12:00:06Z</time>
      </trkpt>
      <trkpt lat="42.68802" lon="18.26208">
        <ele>275</ele>
        <time>2016-07-25T12:02:06Z</time>
      </trkpt>
      <trkpt lat="42.68799" lon="18.26225">
        <ele>276</ele>
        <time>2016-07-25T12:04:06Z</time>
      </trkpt>
      <trkpt lat="42.68796" lon="18.26241">
        <ele>277</ele>
        <time>2016-07-25T12:06:06Z</time>
      </trkpt>
      <trkpt lat="42.68793" lon="18.26261">
        <ele>277</ele>
        <time>2016-07-25T12:08:06Z</time>
      </trkpt>
      <trkpt lat="42.68791" lon="18.26282">
        <ele>278</ele>
        <time>2016-07-25T12:10:06Z</time>
      </trkpt>
      <trkpt lat="42.68788" lon="18.26302">
        <ele>278</ele>
        <time>2016-07-25T12:12:06Z</time>
      </trkpt>
      <trkpt lat="42.68786" lon="18.26322">
        <ele>279</ele>
        <time>2016-07-25T12:14:06Z</time>
      </trkpt>
      <trkpt lat="42.68784" lon="18.26342">
        <ele>279</ele>
        <time>2016-07-25T12:16:06Z</time>
      </trkpt>
      <trkpt lat="42.68783" lon="18.26363">
        <ele>280</ele>
        <time>2016-07-25T12:18:06Z</time>
      </trkpt>
      <trkpt lat="42.68782" lon="18.26385">
        <ele>280</ele>
        <time>2016-07-25T12:20:06Z</time>
      </trkpt>
      <trkpt lat="42.68781" lon="18.26407">
        <ele>281</ele>
        <time>2016-07-25T12:22:06Z</time>
      </trkpt>
      <trkpt lat="42.68781" lon="18.26429">
        <ele>281</ele>
        <time>2016-07-25T12:24:06Z</time>
      </trkpt>
      <trkpt lat="42.68781" lon="18.26451">
        <ele>281</ele>
        <time>2016-07-25T12:26:06Z</time>
      </trkpt>
      <trkpt lat="42.68781" lon="18.26472">
        <ele>282</ele>
        <time>2016-07-25T12:28:06Z</time>
      </trkpt>
      <trkpt lat="42.68782" lon="18.26492">
        <ele>282</ele>
        <time>2016-07-25T12:30:06Z</time>
      </trkpt>
      <trkpt lat="42.68782" lon="18.26512">
        <ele>282</ele>
        <time>2016-07-25T12:32:06Z</time>
      </trkpt>
      <trkpt lat="42.68783" lon="18.26532">
        <ele>282</ele>
        <time>2016-07-25T12:34:06Z</time>
      </trkpt>
      <trkpt lat="42.68784" lon="18.26552">
        <ele>281</ele>
        <time>2016-07-25T12:36:06Z</time>
      </trkpt>
      <trkpt lat="42.68786" lon="18.26573">
        <ele>281</ele>
        <time>2016-07-25T12:38:06Z</time>
      </trkpt>
      <trkpt lat="42.6879" lon="18.26598">
        <ele>281</ele>
        <time>2016-07-25T12:40:06Z</time>
      </trkpt>
      <trkpt lat="42.68794" lon="18.26624">
        <ele>281</ele>
        <time>2016-07-25T12:42:06Z</time>
      </trkpt>
      <trkpt lat="42.68798" lon="18.26649">
        <ele>282</ele>
        <time>2016-07-25T12:44:06Z</time>
      </trkpt>
      <trkpt lat="42.68802" lon="18.26675">
        <ele>282</ele>
        <time>2016-07-25T12:46:06Z</time>
      </trkpt>
      <trkpt lat="42.68806" lon="18.26695">
        <ele>282</ele>
        <time>2016-07-25T12:48:06Z</time>
      </trkpt>
      <trkpt lat="42.6881" lon="18.26715">
        <ele>282</ele>
        <time>2016-07-25T12:50:06Z</time>
      </trkpt>
      <trkpt lat="42.68815" lon="18.26735">
        <ele>282</ele>
        <time>2016-07-25T12:52:06Z</time>
      </trkpt>
      <trkpt lat="42.68819" lon="18.26755">
        <ele>282</ele>
        <time>2016-07-25T12:54:06Z</time>
      </trkpt>
      <trkpt lat="42.68825" lon="18.26776">
        <ele>281</ele>
        <time>2016-07-25T12:56:06Z</time>
      </trkpt>
      <trkpt lat="42.68831" lon="18.26796">
        <ele>281</ele>
        <time>2016-07-25T12:58:06Z</time>
      </trkpt>
      <trkpt lat="42.68837" lon="18.26815">
        <ele>281</ele>
        <time>2016-07-25T13:00:06Z</time>
      </trkpt>
      <trkpt lat="42.68844" lon="18.26835">
        <ele>282</ele>
        <time>2016-07-25T13:02:06Z</time>
      </trkpt>
      <trkpt lat="42.6885" lon="18.26855">
        <ele>283</ele>
        <time>2016-07-25T13:04:06Z</time>
      </trkpt>
      <trkpt lat="42.68858" lon="18.26876">
        <ele>283</ele>
        <time>2016-07-25T13:06:06Z</time>
      </trkpt>
      <trkpt lat="42.68865" lon="18.26897">
        <ele>284</ele>
        <time>2016-07-25T13:08:06Z</time>
      </trkpt>
      <trkpt lat="42.68873" lon="18.26918">
        <ele>284</ele>
        <time>2016-07-25T13:10:06Z</time>
      </trkpt>
      <trkpt lat="42.68882" lon="18.26939">
        <ele>285</ele>
        <time>2016-07-25T13:12:06Z</time>
      </trkpt>
      <trkpt lat="42.6889" lon="18.26959">
        <ele>285</ele>
        <time>2016-07-25T13:14:06Z</time>
      </trkpt>
      <trkpt lat="42.68899" lon="18.2698">
        <ele>286</ele>
        <time>2016-07-25T13:16:06Z</time>
      </trkpt>
      <trkpt lat="42.68908" lon="18.27">
        <ele>286</ele>
        <time>2016-07-25T13:18:06Z</time>
      </trkpt>
      <trkpt lat="42.68917" lon="18.2702">
        <ele>286</ele>
        <time>2016-07-25T13:20:06Z</time>
      </trkpt>
      <trkpt lat="42.68927" lon="18.27039">
        <ele>287</ele>
        <time>2016-07-25T13:22:06Z</time>
      </trkpt>
      <trkpt lat="42.68937" lon="18.27059">
        <ele>287</ele>
        <time>2016-07-25T13:24:06Z</time>
      </trkpt>
      <trkpt lat="42.69046" lon="18.27267">
        <ele>289</ele>
        <time>2016-07-25T13:26:06Z</time>
      </trkpt>
      <trkpt lat="42.6905" lon="18.27275">
        <ele>289</ele>
        <time>2016-07-25T13:28:06Z</time>
      </trkpt>
      <trkpt lat="42.69053" lon="18.27284">
        <ele>289</ele>
        <time>2016-07-25T13:30:06Z</time>
      </trkpt>
      <trkpt lat="42.69056" lon="18.27293">
        <ele>289</ele>
        <time>2016-07-25T13:32:06Z</time>
      </trkpt>
      <trkpt lat="42.69059" lon="18.27302">
        <ele>289</ele>
        <time>2016-07-25T13:34:06Z</time>
      </trkpt>
      <trkpt lat="42.69061" lon="18.27311">
        <ele>289</ele>
        <time>2016-07-25T13:36:06Z</time>
      </trkpt>
      <trkpt lat="42.69063" lon="18.2732">
        <ele>289</ele>
        <time>2016-07-25T13:38:06Z</time>
      </trkpt>
      <trkpt lat="42.69065" lon="18.2733">
        <ele>289</ele>
        <time>2016-07-25T13:40:06Z</time>
      </trkpt>
      <trkpt lat="42.69067" lon="18.27339">
        <ele>289</ele>
        <time>2016-07-25T13:42:06Z</time>
      </trkpt>
      <trkpt lat="42.69068" lon="18.27349">
        <ele>288</ele>
        <time>2016-07-25T13:44:06Z</time>
      </trkpt>
      <trkpt lat="42.6907" lon="18.27359">
        <ele>288</ele>
        <time>2016-07-25T13:46:06Z</time>
      </trkpt>
      <trkpt lat="42.6907" lon="18.27369">
        <ele>288</ele>
        <time>2016-07-25T13:48:06Z</time>
      </trkpt>
      <trkpt lat="42.69071" lon="18.27379">
        <ele>288</ele>
        <time>2016-07-25T13:50:06Z</time>
      </trkpt>
      <trkpt lat="42.69071" lon="18.27389">
        <ele>288</ele>
        <time>2016-07-25T13:52:06Z</time>
      </trkpt>
      <trkpt lat="42.69071" lon="18.27399">
        <ele>287</ele>
        <time>2016-07-25T13:54:06Z</time>
      </trkpt>
      <trkpt lat="42.69071" lon="18.27409">
        <ele>287</ele>
        <time>2016-07-25T13:56:06Z</time>
      </trkpt>
      <trkpt lat="42.6907" lon="18.27419">
        <ele>288</ele>
        <time>2016-07-25T13:58:06Z</time>
      </trkpt>
      <trkpt lat="42.69069" lon="18.27429">
        <ele>288</ele>
        <time>2016-07-25T14:00:06Z</time>
      </trkpt>
      <trkpt lat="42.69067" lon="18.27439">
        <ele>288</ele>
        <time>2016-07-25T14:02:06Z</time>
      </trkpt>
      <trkpt lat="42.69066" lon="18.27449">
        <ele>288</ele>
        <time>2016-07-25T14:04:06Z</time>
      </trkpt>
      <trkpt lat="42.69063" lon="18.2746">
        <ele>288</ele>
        <time>2016-07-25T14:06:06Z</time>
      </trkpt>
      <trkpt lat="42.6906" lon="18.2747">
        <ele>288</ele>
        <time>2016-07-25T14:08:06Z</time>
      </trkpt>
      <trkpt lat="42.69057" lon="18.27481">
        <ele>289</ele>
        <time>2016-07-25T14:10:06Z</time>
      </trkpt>
      <trkpt lat="42.69053" lon="18.27491">
        <ele>289</ele>
        <time>2016-07-25T14:12:06Z</time>
      </trkpt>
      <trkpt lat="42.6905" lon="18.27501">
        <ele>289</ele>
        <time>2016-07-25T14:14:06Z</time>
      </trkpt>
      <trkpt lat="42.69046" lon="18.27511">
        <ele>289</ele>
        <time>2016-07-25T14:16:06Z</time>
      </trkpt>
      <trkpt lat="42.69041" lon="18.27521">
        <ele>288</ele>
        <time>2016-07-25T14:18:06Z</time>
      </trkpt>
      <trkpt lat="42.69037" lon="18.27531">
        <ele>288</ele>
        <time>2016-07-25T14:20:06Z</time>
      </trkpt>
      <trkpt lat="42.69032" lon="18.2754">
        <ele>288</ele>
        <time>2016-07-25T14:22:06Z</time>
      </trkpt>
      <trkpt lat="42.69027" lon="18.2755">
        <ele>287</ele>
        <time>2016-07-25T14:24:06Z</time>
      </trkpt>
      <trkpt lat="42.69022" lon="18.27559">
        <ele>287</ele>
        <time>2016-07-25T14:26:06Z</time>
      </trkpt>
      <trkpt lat="42.69017" lon="18.27568">
        <ele>287</ele>
        <time>2016-07-25T14:28:06Z</time>
      </trkpt>
      <trkpt lat="42.6898" lon="18.27613">
        <ele>286</ele>
        <time>2016-07-25T14:30:06Z</time>
      </trkpt>
      <trkpt lat="42.68972" lon="18.27623">
        <ele>285</ele>
        <time>2016-07-25T14:32:06Z</time>
      </trkpt>
      <trkpt lat="42.68963" lon="18.27634">
        <ele>285</ele>
        <time>2016-07-25T14:34:06Z</time>
      </trkpt>
      <trkpt lat="42.68955" lon="18.27644">
        <ele>284</ele>
        <time>2016-07-25T14:36:06Z</time>
      </trkpt>
      <trkpt lat="42.68947" lon="18.27654">
        <ele>283</ele>
        <time>2016-07-25T14:38:06Z</time>
      </trkpt>
      <trkpt lat="42.68939" lon="18.27665">
        <ele>282</ele>
        <time>2016-07-25T14:40:06Z</time>
      </trkpt>
      <trkpt lat="42.68932" lon="18.27675">
        <ele>282</ele>
        <time>2016-07-25T14:42:06Z</time>
      </trkpt>
      <trkpt lat="42.68924" lon="18.27686">
        <ele>282</ele>
        <time>2016-07-25T14:44:06Z</time>
      </trkpt>
      <trkpt lat="42.68917" lon="18.27696">
        <ele>281</ele>
        <time>2016-07-25T14:46:06Z</time>
      </trkpt>
      <trkpt lat="42.68909" lon="18.27707">
        <ele>282</ele>
        <time>2016-07-25T14:48:06Z</time>
      </trkpt>
      <trkpt lat="42.68902" lon="18.27718">
        <ele>283</ele>
        <time>2016-07-25T14:50:06Z</time>
      </trkpt>
      <trkpt lat="42.68895" lon="18.27728">
        <ele>283</ele>
        <time>2016-07-25T14:52:06Z</time>
      </trkpt>
      <trkpt lat="42.68889" lon="18.27738">
        <ele>283</ele>
        <time>2016-07-25T14:54:06Z</time>
      </trkpt>
      <trkpt lat="42.68884" lon="18.27747">
        <ele>283</ele>
        <time>2016-07-25T14:56:06Z</time>
      </trkpt>
      <trkpt lat="42.68878" lon="18.27757">
        <ele>283</ele>
        <time>2016-07-25T14:58:06Z</time>
      </trkpt>
      <trkpt lat="42.68873" lon="18.27767">
        <ele>283</ele>
        <time>2016-07-25T15:00:06Z</time>
      </trkpt>
      <trkpt lat="42.68867" lon="18.27777">
        <ele>283</ele>
        <time>2016-07-25T15:02:06Z</time>
      </trkpt>
      <trkpt lat="42.68862" lon="18.27787">
        <ele>283</ele>
        <time>2016-07-25T15:04:06Z</time>
      </trkpt>
      <trkpt lat="42.68857" lon="18.27797">
        <ele>283</ele>
        <time>2016-07-25T15:06:06Z</time>
      </trkpt>
      <trkpt lat="42.68851" lon="18.27808">
        <ele>283</ele>
        <time>2016-07-25T15:08:06Z</time>
      </trkpt>
      <trkpt lat="42.68846" lon="18.27818">
        <ele>283</ele>
        <time>2016-07-25T15:10:06Z</time>
      </trkpt>
      <trkpt lat="42.68841" lon="18.27829">
        <ele>282</ele>
        <time>2016-07-25T15:12:06Z</time>
      </trkpt>
      <trkpt lat="42.68837" lon="18.2784">
        <ele>282</ele>
        <time>2016-07-25T15:14:06Z</time>
      </trkpt>
      <trkpt lat="42.68833" lon="18.27851">
        <ele>281</ele>
        <time>2016-07-25T15:16:06Z</time>
      </trkpt>
      <trkpt lat="42.68829" lon="18.27862">
        <ele>281</ele>
        <time>2016-07-25T15:18:06Z</time>
      </trkpt>
      <trkpt lat="42.68825" lon="18.27874">
        <ele>280</ele>
        <time>2016-07-25T15:20:06Z</time>
      </trkpt>
      <trkpt lat="42.6882" lon="18.27886">
        <ele>280</ele>
        <time>2016-07-25T15:22:06Z</time>
      </trkpt>
      <trkpt lat="42.68816" lon="18.27899">
        <ele>279</ele>
        <time>2016-07-25T15:24:06Z</time>
      </trkpt>
      <trkpt lat="42.68812" lon="18.27911">
        <ele>278</ele>
        <time>2016-07-25T15:26:06Z</time>
      </trkpt>
      <trkpt lat="42.68808" lon="18.27924">
        <ele>277</ele>
        <time>2016-07-25T15:28:06Z</time>
      </trkpt>
      <trkpt lat="42.68804" lon="18.27936">
        <ele>276</ele>
        <time>2016-07-25T15:30:06Z</time>
      </trkpt>
      <trkpt lat="42.688" lon="18.27954">
        <ele>276</ele>
        <time>2016-07-25T15:32:06Z</time>
      </trkpt>
      <trkpt lat="42.68796" lon="18.27971">
        <ele>275</ele>
        <time>2016-07-25T15:34:06Z</time>
      </trkpt>
      <trkpt lat="42.68792" lon="18.27989">
        <ele>275</ele>
        <time>2016-07-25T15:36:06Z</time>
      </trkpt>
      <trkpt lat="42.68786" lon="18.28011">
        <ele>274</ele>
        <time>2016-07-25T15:38:06Z</time>
      </trkpt>
      <trkpt lat="42.68782" lon="18.28033">
        <ele>274</ele>
        <time>2016-07-25T15:40:06Z</time>
      </trkpt>
      <trkpt lat="42.68777" lon="18.28055">
        <ele>274</ele>
        <time>2016-07-25T15:42:06Z</time>
      </trkpt>
      <trkpt lat="42.68772" lon="18.28077">
        <ele>274</ele>
        <time>2016-07-25T15:44:06Z</time>
      </trkpt>
      <trkpt lat="42.68768" lon="18.28101">
        <ele>275</ele>
        <time>2016-07-25T15:46:06Z</time>
      </trkpt>
      <trkpt lat="42.68764" lon="18.28125">
        <ele>276</ele>
        <time>2016-07-25T15:48:06Z</time>
      </trkpt>
      <trkpt lat="42.68759" lon="18.2815">
        <ele>276</ele>
        <time>2016-07-25T15:50:06Z</time>
      </trkpt>
      <trkpt lat="42.68756" lon="18.28174">
        <ele>277</ele>
        <time>2016-07-25T15:52:06Z</time>
      </trkpt>
      <trkpt lat="42.68751" lon="18.28202">
        <ele>276</ele>
        <time>2016-07-25T15:54:06Z</time>
      </trkpt>
      <trkpt lat="42.68747" lon="18.28231">
        <ele>275</ele>
        <time>2016-07-25T15:56:06Z</time>
      </trkpt>
      <trkpt lat="42.68742" lon="18.2826">
        <ele>274</ele>
        <time>2016-07-25T15:58:06Z</time>
      </trkpt>
      <trkpt lat="42.68738" lon="18.28288">
        <ele>273</ele>
        <time>2016-07-25T16:00:06Z</time>
      </trkpt>
      <trkpt lat="42.68737" lon="18.28299">
        <ele>273</ele>
        <time>2016-07-25T16:02:06Z</time>
      </trkpt>
      <trkpt lat="42.68735" lon="18.28311">
        <ele>273</ele>
        <time>2016-07-25T16:04:06Z</time>
      </trkpt>
      <trkpt lat="42.68733" lon="18.28322">
        <ele>273</ele>
        <time>2016-07-25T16:06:06Z</time>
      </trkpt>
      <trkpt lat="42.68731" lon="18.28333">
        <ele>273</ele>
        <time>2016-07-25T16:08:06Z</time>
      </trkpt>
      <trkpt lat="42.68729" lon="18.28344">
        <ele>273</ele>
        <time>2016-07-25T16:10:06Z</time>
      </trkpt>
      <trkpt lat="42.68727" lon="18.28355">
        <ele>273</ele>
        <time>2016-07-25T16:12:06Z</time>
      </trkpt>
      <trkpt lat="42.68725" lon="18.28366">
        <ele>272</ele>
        <time>2016-07-25T16:14:06Z</time>
      </trkpt>
      <trkpt lat="42.68722" lon="18.28376">
        <ele>272</ele>
        <time>2016-07-25T16:16:06Z</time>
      </trkpt>
      <trkpt lat="42.6872" lon="18.28387">
        <ele>272</ele>
        <time>2016-07-25T16:18:06Z</time>
      </trkpt>
      <trkpt lat="42.68717" lon="18.28397">
        <ele>272</ele>
        <time>2016-07-25T16:20:06Z</time>
      </trkpt>
      <trkpt lat="42.68714" lon="18.28407">
        <ele>272</ele>
        <time>2016-07-25T16:22:06Z</time>
      </trkpt>
      <trkpt lat="42.68711" lon="18.28421">
        <ele>272</ele>
        <time>2016-07-25T16:24:06Z</time>
      </trkpt>
      <trkpt lat="42.68707" lon="18.28435">
        <ele>271</ele>
        <time>2016-07-25T16:26:06Z</time>
      </trkpt>
      <trkpt lat="42.68703" lon="18.28448">
        <ele>271</ele>
        <time>2016-07-25T16:28:06Z</time>
      </trkpt>
      <trkpt lat="42.68699" lon="18.28462">
        <ele>270</ele>
        <time>2016-07-25T16:30:06Z</time>
      </trkpt>
      <trkpt lat="42.68694" lon="18.28475">
        <ele>270</ele>
        <time>2016-07-25T16:32:06Z</time>
      </trkpt>
      <trkpt lat="42.6869" lon="18.28488">
        <ele>270</ele>
        <time>2016-07-25T16:34:06Z</time>
      </trkpt>
      <trkpt lat="42.68686" lon="18.28501">
        <ele>269</ele>
        <time>2016-07-25T16:36:06Z</time>
      </trkpt>
      <trkpt lat="42.68681" lon="18.28514">
        <ele>270</ele>
        <time>2016-07-25T16:38:06Z</time>
      </trkpt>
      <trkpt lat="42.68677" lon="18.28526">
        <ele>270</ele>
        <time>2016-07-25T16:40:06Z</time>
      </trkpt>
      <trkpt lat="42.68672" lon="18.28539">
        <ele>271</ele>
        <time>2016-07-25T16:42:06Z</time>
      </trkpt>
      <trkpt lat="42.68667" lon="18.28551">
        <ele>271</ele>
        <time>2016-07-25T16:44:06Z</time>
      </trkpt>
      <trkpt lat="42.68664" lon="18.2856">
        <ele>272</ele>
        <time>2016-07-25T16:46:06Z</time>
      </trkpt>
      <trkpt lat="42.6866" lon="18.28568">
        <ele>272</ele>
        <time>2016-07-25T16:48:06Z</time>
      </trkpt>
      <trkpt lat="42.68657" lon="18.28577">
        <ele>272</ele>
        <time>2016-07-25T16:50:06Z</time>
      </trkpt>
      <trkpt lat="42.68653" lon="18.28585">
        <ele>273</ele>
        <time>2016-07-25T16:52:06Z</time>
      </trkpt>
      <trkpt lat="42.68649" lon="18.28594">
        <ele>273</ele>
        <time>2016-07-25T16:54:06Z</time>
      </trkpt>
      <trkpt lat="42.68645" lon="18.28604">
        <ele>273</ele>
        <time>2016-07-25T16:56:06Z</time>
      </trkpt>
      <trkpt lat="42.6864" lon="18.28613">
        <ele>273</ele>
        <time>2016-07-25T16:58:06Z</time>
      </trkpt>
      <trkpt lat="42.68635" lon="18.28623">
        <ele>273</ele>
        <time>2016-07-25T17:00:06Z</time>
      </trkpt>
      <trkpt lat="42.6863" lon="18.28632">
        <ele>273</ele>
        <time>2016-07-25T17:02:06Z</time>
      </trkpt>
      <trkpt lat="42.68625" lon="18.28641">
        <ele>273</ele>
        <time>2016-07-25T17:04:06Z</time>
      </trkpt>
      <trkpt lat="42.6862" lon="18.28651">
        <ele>273</ele>
        <time>2016-07-25T17:06:06Z</time>
      </trkpt>
      <trkpt lat="42.68615" lon="18.2866">
        <ele>273</ele>
        <time>2016-07-25T17:08:06Z</time>
      </trkpt>
      <trkpt lat="42.68609" lon="18.28668">
        <ele>273</ele>
        <time>2016-07-25T17:10:06Z</time>
      </trkpt>
      <trkpt lat="42.68604" lon="18.28677">
        <ele>273</ele>
        <time>2016-07-25T17:12:06Z</time>
      </trkpt>
      <trkpt lat="42.68593" lon="18.28692">
        <ele>273</ele>
        <time>2016-07-25T17:14:06Z</time>
      </trkpt>
      <trkpt lat="42.68583" lon="18.28707">
        <ele>273</ele>
        <time>2016-07-25T17:16:06Z</time>
      </trkpt>
      <trkpt lat="42.68572" lon="18.28722">
        <ele>272</ele>
        <time>2016-07-25T17:18:06Z</time>
      </trkpt>
      <trkpt lat="42.68558" lon="18.28741">
        <ele>272</ele>
        <time>2016-07-25T17:20:06Z</time>
      </trkpt>
      <trkpt lat="42.68544" lon="18.28761">
        <ele>272</ele>
        <time>2016-07-25T17:22:06Z</time>
      </trkpt>
      <trkpt lat="42.6853" lon="18.2878">
        <ele>272</ele>
        <time>2016-07-25T17:24:06Z</time>
      </trkpt>
      <trkpt lat="42.68516" lon="18.28799">
        <ele>272</ele>
        <time>2016-07-25T17:26:06Z</time>
      </trkpt>
      <trkpt lat="42.68509" lon="18.28808">
        <ele>272</ele>
        <time>2016-07-25T17:28:06Z</time>
      </trkpt>
      <trkpt lat="42.68502" lon="18.28818">
        <ele>272</ele>
        <time>2016-07-25T17:30:06Z</time>
      </trkpt>
      <trkpt lat="42.68495" lon="18.28827">
        <ele>272</ele>
        <time>2016-07-25T17:32:06Z</time>
      </trkpt>
      <trkpt lat="42.68489" lon="18.28837">
        <ele>272</ele>
        <time>2016-07-25T17:34:06Z</time>
      </trkpt>
      <trkpt lat="42.68482" lon="18.28847">
        <ele>272</ele>
        <time>2016-07-25T17:36:06Z</time>
      </trkpt>
      <trkpt lat="42.68475" lon="18.28858">
        <ele>272</ele>
        <time>2016-07-25T17:38:06Z</time>
      </trkpt>
      <trkpt lat="42.68468" lon="18.28869">
        <ele>272</ele>
        <time>2016-07-25T17:40:06Z</time>
      </trkpt>
      <trkpt lat="42.68461" lon="18.28879">
        <ele>272</ele>
        <time>2016-07-25T17:42:06Z</time>
      </trkpt>
      <trkpt lat="42.68455" lon="18.2889">
        <ele>272</ele>
        <time>2016-07-25T17:44:06Z</time>
      </trkpt>
      <trkpt lat="42.68448" lon="18.28901">
        <ele>272</ele>
        <time>2016-07-25T17:46:06Z</time>
      </trkpt>
      <trkpt lat="42.68442" lon="18.28912">
        <ele>272</ele>
        <time>2016-07-25T17:48:06Z</time>
      </trkpt>
      <trkpt lat="42.68438" lon="18.2892">
        <ele>272</ele>
        <time>2016-07-25T17:50:06Z</time>
      </trkpt>
      <trkpt lat="42.68434" lon="18.28928">
        <ele>272</ele>
        <time>2016-07-25T17:52:06Z</time>
      </trkpt>
      <trkpt lat="42.6843" lon="18.28936">
        <ele>272</ele>
        <time>2016-07-25T17:54:06Z</time>
      </trkpt>
      <trkpt lat="42.68426" lon="18.28944">
        <ele>272</ele>
        <time>2016-07-25T17:56:06Z</time>
      </trkpt>
      <trkpt lat="42.68422" lon="18.28952">
        <ele>272</ele>
        <time>2016-07-25T17:58:06Z</time>
      </trkpt>
      <trkpt lat="42.68418" lon="18.28961">
        <ele>272</ele>
        <time>2016-07-25T18:00:06Z</time>
      </trkpt>
      <trkpt lat="42.68413" lon="18.28971">
        <ele>272</ele>
        <time>2016-07-25T18:02:06Z</time>
      </trkpt>
      <trkpt lat="42.6841" lon="18.28979">
        <ele>272</ele>
        <time>2016-07-25T18:04:06Z</time>
      </trkpt>
      <trkpt lat="42.6841" lon="18.28981">
        <ele>272</ele>
        <time>2016-07-25T18:06:06Z</time>
      </trkpt>
      <trkpt lat="42.68383" lon="18.29049">
        <ele>273</ele>
        <time>2016-07-25T18:08:06Z</time>
      </trkpt>
      <trkpt lat="42.6838" lon="18.2906">
        <ele>273</ele>
        <time>2016-07-25T18:10:06Z</time>
      </trkpt>
      <trkpt lat="42.68376" lon="18.29071">
        <ele>273</ele>
        <time>2016-07-25T18:12:06Z</time>
      </trkpt>
      <trkpt lat="42.68373" lon="18.29082">
        <ele>273</ele>
        <time>2016-07-25T18:14:06Z</time>
      </trkpt>
      <trkpt lat="42.6837" lon="18.29093">
        <ele>273</ele>
        <time>2016-07-25T18:16:06Z</time>
      </trkpt>
      <trkpt lat="42.68367" lon="18.29104">
        <ele>273</ele>
        <time>2016-07-25T18:18:06Z</time>
      </trkpt>
      <trkpt lat="42.68364" lon="18.29115">
        <ele>273</ele>
        <time>2016-07-25T18:20:06Z</time>
      </trkpt>
      <trkpt lat="42.68362" lon="18.29127">
        <ele>273</ele>
        <time>2016-07-25T18:22:06Z</time>
      </trkpt>
      <trkpt lat="42.68359" lon="18.29138">
        <ele>273</ele>
        <time>2016-07-25T18:24:06Z</time>
      </trkpt>
      <trkpt lat="42.68357" lon="18.2915">
        <ele>274</ele>
        <time>2016-07-25T18:26:06Z</time>
      </trkpt>
      <trkpt lat="42.68354" lon="18.29161">
        <ele>274</ele>
        <time>2016-07-25T18:28:06Z</time>
      </trkpt>
      <trkpt lat="42.68352" lon="18.29172">
        <ele>274</ele>
        <time>2016-07-25T18:30:06Z</time>
      </trkpt>
      <trkpt lat="42.6835" lon="18.29183">
        <ele>274</ele>
        <time>2016-07-25T18:32:06Z</time>
      </trkpt>
      <trkpt lat="42.68348" lon="18.29194">
        <ele>274</ele>
        <time>2016-07-25T18:34:06Z</time>
      </trkpt>
      <trkpt lat="42.68347" lon="18.29205">
        <ele>274</ele>
        <time>2016-07-25T18:36:06Z</time>
      </trkpt>
      <trkpt lat="42.68345" lon="18.29216">
        <ele>273</ele>
        <time>2016-07-25T18:38:06Z</time>
      </trkpt>
      <trkpt lat="42.68344" lon="18.29227">
        <ele>273</ele>
        <time>2016-07-25T18:40:06Z</time>
      </trkpt>
      <trkpt lat="42.68342" lon="18.29238">
        <ele>273</ele>
        <time>2016-07-25T18:42:06Z</time>
      </trkpt>
      <trkpt lat="42.68341" lon="18.29249">
        <ele>273</ele>
        <time>2016-07-25T18:44:06Z</time>
      </trkpt>
      <trkpt lat="42.6834" lon="18.2926">
        <ele>273</ele>
        <time>2016-07-25T18:46:06Z</time>
      </trkpt>
      <trkpt lat="42.68339" lon="18.29271">
        <ele>273</ele>
        <time>2016-07-25T18:48:06Z</time>
      </trkpt>
      <trkpt lat="42.68338" lon="18.29282">
        <ele>273</ele>
        <time>2016-07-25T18:50:06Z</time>
      </trkpt>
      <trkpt lat="42.68337" lon="18.29293">
        <ele>273</ele>
        <time>2016-07-25T18:52:06Z</time>
      </trkpt>
      <trkpt lat="42.68332" lon="18.29401">
        <ele>274</ele>
        <time>2016-07-25T18:54:06Z</time>
      </trkpt>
      <trkpt lat="42.68332" lon="18.2941">
        <ele>274</ele>
        <time>2016-07-25T18:56:06Z</time>
      </trkpt>
      <trkpt lat="42.68332" lon="18.29419">
        <ele>274</ele>
        <time>2016-07-25T18:58:06Z</time>
      </trkpt>
      <trkpt lat="42.68331" lon="18.29428">
        <ele>275</ele>
        <time>2016-07-25T19:00:06Z</time>
      </trkpt>
      <trkpt lat="42.6833" lon="18.29437">
        <ele>275</ele>
        <time>2016-07-25T19:02:06Z</time>
      </trkpt>
      <trkpt lat="42.6833" lon="18.29447">
        <ele>275</ele>
        <time>2016-07-25T19:04:06Z</time>
      </trkpt>
      <trkpt lat="42.68329" lon="18.29456">
        <ele>276</ele>
        <time>2016-07-25T19:06:06Z</time>
      </trkpt>
      <trkpt lat="42.68328" lon="18.29465">
        <ele>276</ele>
        <time>2016-07-25T19:08:06Z</time>
      </trkpt>
      <trkpt lat="42.68326" lon="18.29475">
        <ele>277</ele>
        <time>2016-07-25T19:10:06Z</time>
      </trkpt>
      <trkpt lat="42.68325" lon="18.29485">
        <ele>278</ele>
        <time>2016-07-25T19:12:06Z</time>
      </trkpt>
      <trkpt lat="42.68323" lon="18.29495">
        <ele>279</ele>
        <time>2016-07-25T19:14:06Z</time>
      </trkpt>
      <trkpt lat="42.68322" lon="18.29504">
        <ele>279</ele>
        <time>2016-07-25T19:16:06Z</time>
      </trkpt>
      <trkpt lat="42.6832" lon="18.29513">
        <ele>279</ele>
        <time>2016-07-25T19:18:06Z</time>
      </trkpt>
      <trkpt lat="42.68319" lon="18.29522">
        <ele>279</ele>
        <time>2016-07-25T19:20:06Z</time>
      </trkpt>
      <trkpt lat="42.68317" lon="18.2953">
        <ele>280</ele>
        <time>2016-07-25T19:22:06Z</time>
      </trkpt>
      <trkpt lat="42.68315" lon="18.29539">
        <ele>280</ele>
        <time>2016-07-25T19:24:06Z</time>
      </trkpt>
      <trkpt lat="42.68313" lon="18.29547">
        <ele>280</ele>
        <time>2016-07-25T19:26:06Z</time>
      </trkpt>
      <trkpt lat="42.68311" lon="18.29556">
        <ele>280</ele>
        <time>2016-07-25T19:28:06Z</time>
      </trkpt>
      <trkpt lat="42.68309" lon="18.29564">
        <ele>280</ele>
        <time>2016-07-25T19:30:06Z</time>
      </trkpt>
      <trkpt lat="42.68307" lon="18.29572">
        <ele>281</ele>
        <time>2016-07-25T19:32:06Z</time>
      </trkpt>
      <trkpt lat="42.68304" lon="18.29581">
        <ele>281</ele>
        <time>2016-07-25T19:34:06Z</time>
      </trkpt>
      <trkpt lat="42.68301" lon="18.29589">
        <ele>281</ele>
        <time>2016-07-25T19:36:06Z</time>
      </trkpt>
      <trkpt lat="42.68299" lon="18.29597">
        <ele>281</ele>
        <time>2016-07-25T19:38:06Z</time>
      </trkpt>
      <trkpt lat="42.68296" lon="18.29605">
        <ele>282</ele>
        <time>2016-07-25T19:40:06Z</time>
      </trkpt>
      <trkpt lat="42.68292" lon="18.29613">
        <ele>282</ele>
        <time>2016-07-25T19:42:06Z</time>
      </trkpt>
      <trkpt lat="42.68289" lon="18.2962">
        <ele>282</ele>
        <time>2016-07-25T19:44:06Z</time>
      </trkpt>
      <trkpt lat="42.68286" lon="18.29628">
        <ele>282</ele>
        <time>2016-07-25T19:46:06Z</time>
      </trkpt>
      <trkpt lat="42.68283" lon="18.29635">
        <ele>282</ele>
        <time>2016-07-25T19:48:06Z</time>
      </trkpt>
      <trkpt lat="42.68279" lon="18.29642">
        <ele>282</ele>
        <time>2016-07-25T19:50:06Z</time>
      </trkpt>
      <trkpt lat="42.68275" lon="18.29649">
        <ele>282</ele>
        <time>2016-07-25T19:52:06Z</time>
      </trkpt>
      <trkpt lat="42.68272" lon="18.29656">
        <ele>282</ele>
        <time>2016-07-25T19:54:06Z</time>
      </trkpt>
      <trkpt lat="42.68268" lon="18.29662">
        <ele>282</ele>
        <time>2016-07-25T19:56:06Z</time>
      </trkpt>
      <trkpt lat="42.68264" lon="18.29669">
        <ele>282</ele>
        <time>2016-07-25T19:58:06Z</time>
      </trkpt>
      <trkpt lat="42.6826" lon="18.29675">
        <ele>282</ele>
        <time>2016-07-25T20:00:06Z</time>
      </trkpt>
      <trkpt lat="42.68256" lon="18.29682">
        <ele>281</ele>
        <time>2016-07-25T20:02:06Z</time>
      </trkpt>
      <trkpt lat="42.68251" lon="18.29688">
        <ele>281</ele>
        <time>2016-07-25T20:04:06Z</time>
      </trkpt>
      <trkpt lat="42.68247" lon="18.29694">
        <ele>281</ele>
        <time>2016-07-25T20:06:06Z</time>
      </trkpt>
      <trkpt lat="42.68242" lon="18.29701">
        <ele>282</ele>
        <time>2016-07-25T20:08:06Z</time>
      </trkpt>
      <trkpt lat="42.68238" lon="18.29707">
        <ele>283</ele>
        <time>2016-07-25T20:10:06Z</time>
      </trkpt>
      <trkpt lat="42.68185" lon="18.29771">
        <ele>287</ele>
        <time>2016-07-25T20:12:06Z</time>
      </trkpt>
      <trkpt lat="42.68177" lon="18.29779">
        <ele>287</ele>
        <time>2016-07-25T20:14:06Z</time>
      </trkpt>
      <trkpt lat="42.6817" lon="18.29788">
        <ele>286</ele>
        <time>2016-07-25T20:16:06Z</time>
      </trkpt>
      <trkpt lat="42.68163" lon="18.29797">
        <ele>286</ele>
        <time>2016-07-25T20:18:06Z</time>
      </trkpt>
      <trkpt lat="42.68156" lon="18.29807">
        <ele>285</ele>
        <time>2016-07-25T20:20:06Z</time>
      </trkpt>
      <trkpt lat="42.6815" lon="18.29816">
        <ele>285</ele>
        <time>2016-07-25T20:22:06Z</time>
      </trkpt>
      <trkpt lat="42.68144" lon="18.29825">
        <ele>284</ele>
        <time>2016-07-25T20:24:06Z</time>
      </trkpt>
      <trkpt lat="42.68138" lon="18.29834">
        <ele>283</ele>
        <time>2016-07-25T20:26:06Z</time>
      </trkpt>
      <trkpt lat="42.68133" lon="18.29844">
        <ele>283</ele>
        <time>2016-07-25T20:28:06Z</time>
      </trkpt>
      <trkpt lat="42.68128" lon="18.29853">
        <ele>283</ele>
        <time>2016-07-25T20:30:06Z</time>
      </trkpt>
      <trkpt lat="42.68123" lon="18.29863">
        <ele>283</ele>
        <time>2016-07-25T20:32:06Z</time>
      </trkpt>
      <trkpt lat="42.68119" lon="18.29873">
        <ele>282</ele>
        <time>2016-07-25T20:34:06Z</time>
      </trkpt>
      <trkpt lat="42.68114" lon="18.29883">
        <ele>281</ele>
        <time>2016-07-25T20:36:06Z</time>
      </trkpt>
      <trkpt lat="42.68111" lon="18.29893">
        <ele>280</ele>
        <time>2016-07-25T20:38:06Z</time>
      </trkpt>
      <trkpt lat="42.68109" lon="18.29904">
        <ele>279</ele>
        <time>2016-07-25T20:40:06Z</time>
      </trkpt>
      <trkpt lat="42.68106" lon="18.29914">
        <ele>278</ele>
        <time>2016-07-25T20:42:06Z</time>
      </trkpt>
      <trkpt lat="42.68104" lon="18.29925">
        <ele>277</ele>
        <time>2016-07-25T20:44:06Z</time>
      </trkpt>
      <trkpt lat="42.68102" lon="18.29937">
        <ele>277</ele>
        <time>2016-07-25T20:46:06Z</time>
      </trkpt>
      <trkpt lat="42.68101" lon="18.29949">
        <ele>276</ele>
        <time>2016-07-25T20:48:06Z</time>
      </trkpt>
      <trkpt lat="42.68099" lon="18.29961">
        <ele>276</ele>
        <time>2016-07-25T20:50:06Z</time>
      </trkpt>
      <trkpt lat="42.68098" lon="18.29973">
        <ele>275</ele>
        <time>2016-07-25T20:52:06Z</time>
      </trkpt>
      <trkpt lat="42.68098" lon="18.29985">
        <ele>274</ele>
        <time>2016-07-25T20:54:06Z</time>
      </trkpt>
      <trkpt lat="42.68097" lon="18.29997">
        <ele>274</ele>
        <time>2016-07-25T20:56:06Z</time>
      </trkpt>
      <trkpt lat="42.68097" lon="18.30009">
        <ele>274</ele>
        <time>2016-07-25T20:58:06Z</time>
      </trkpt>
      <trkpt lat="42.68097" lon="18.30021">
        <ele>274</ele>
        <time>2016-07-25T21:00:06Z</time>
      </trkpt>
      <trkpt lat="42.68099" lon="18.30032">
        <ele>274</ele>
        <time>2016-07-25T21:02:06Z</time>
      </trkpt>
      <trkpt lat="42.681" lon="18.30042">
        <ele>274</ele>
        <time>2016-07-25T21:04:06Z</time>
      </trkpt>
      <trkpt lat="42.68102" lon="18.30052">
        <ele>274</ele>
        <time>2016-07-25T21:06:06Z</time>
      </trkpt>
      <trkpt lat="42.68105" lon="18.30061">
        <ele>274</ele>
        <time>2016-07-25T21:08:06Z</time>
      </trkpt>
      <trkpt lat="42.68107" lon="18.30071">
        <ele>274</ele>
        <time>2016-07-25T21:10:06Z</time>
      </trkpt>
      <trkpt lat="42.6811" lon="18.30081">
        <ele>274</ele>
        <time>2016-07-25T21:12:06Z</time>
      </trkpt>
      <trkpt lat="42.68113" lon="18.3009">
        <ele>274</ele>
        <time>2016-07-25T21:14:06Z</time>
      </trkpt>
      <trkpt lat="42.68116" lon="18.301">
        <ele>274</ele>
        <time>2016-07-25T21:16:06Z</time>
      </trkpt>
      <trkpt lat="42.6812" lon="18.30109">
        <ele>275</ele>
        <time>2016-07-25T21:18:06Z</time>
      </trkpt>
      <trkpt lat="42.68124" lon="18.30118">
        <ele>275</ele>
        <time>2016-07-25T21:20:06Z</time>
      </trkpt>
      <trkpt lat="42.68128" lon="18.30127">
        <ele>275</ele>
        <time>2016-07-25T21:22:06Z</time>
      </trkpt>
      <trkpt lat="42.68132" lon="18.30135">
        <ele>275</ele>
        <time>2016-07-25T21:24:06Z</time>
      </trkpt>
      <trkpt lat="42.68137" lon="18.30144">
        <ele>275</ele>
        <time>2016-07-25T21:26:06Z</time>
      </trkpt>
      <trkpt lat="42.68141" lon="18.30152">
        <ele>275</ele>
        <time>2016-07-25T21:28:06Z</time>
      </trkpt>
      <trkpt lat="42.68286" lon="18.30316">
        <ele>278</ele>
        <time>2016-07-25T21:30:06Z</time>
      </trkpt>
      <trkpt lat="42.68297" lon="18.30329">
        <ele>277</ele>
        <time>2016-07-25T21:32:06Z</time>
      </trkpt>
      <trkpt lat="42.68308" lon="18.30342">
        <ele>277</ele>
        <time>2016-07-25T21:34:06Z</time>
      </trkpt>
      <trkpt lat="42.68319" lon="18.30355">
        <ele>277</ele>
        <time>2016-07-25T21:36:06Z</time>
      </trkpt>
      <trkpt lat="42.6833" lon="18.30369">
        <ele>276</ele>
        <time>2016-07-25T21:38:06Z</time>
      </trkpt>
      <trkpt lat="42.68343" lon="18.30386">
        <ele>277</ele>
        <time>2016-07-25T21:40:06Z</time>
      </trkpt>
      <trkpt lat="42.68349" lon="18.30392">
        <ele>277</ele>
        <time>2016-07-25T21:42:06Z</time>
      </trkpt>
      <trkpt lat="42.68356" lon="18.30403">
        <ele>277</ele>
        <time>2016-07-25T21:44:06Z</time>
      </trkpt>
      <trkpt lat="42.68369" lon="18.30421">
        <ele>277</ele>
        <time>2016-07-25T21:46:06Z</time>
      </trkpt>
      <trkpt lat="42.68382" lon="18.30439">
        <ele>277</ele>
        <time>2016-07-25T21:48:06Z</time>
      </trkpt>
      <trkpt lat="42.6839" lon="18.3045">
        <ele>278</ele>
        <time>2016-07-25T21:50:06Z</time>
      </trkpt>
      <trkpt lat="42.68399" lon="18.30461">
        <ele>277</ele>
        <time>2016-07-25T21:52:06Z</time>
      </trkpt>
      <trkpt lat="42.68407" lon="18.30473">
        <ele>277</ele>
        <time>2016-07-25T21:54:06Z</time>
      </trkpt>
      <trkpt lat="42.68415" lon="18.30484">
        <ele>277</ele>
        <time>2016-07-25T21:56:06Z</time>
      </trkpt>
      <trkpt lat="42.68423" lon="18.30496">
        <ele>277</ele>
        <time>2016-07-25T21:58:06Z</time>
      </trkpt>
      <trkpt lat="42.6843" lon="18.30508">
        <ele>278</ele>
        <time>2016-07-25T22:00:06Z</time>
      </trkpt>
      <trkpt lat="42.68439" lon="18.30522">
        <ele>278</ele>
        <time>2016-07-25T22:02:06Z</time>
      </trkpt>
      <trkpt lat="42.68447" lon="18.30536">
        <ele>278</ele>
        <time>2016-07-25T22:04:06Z</time>
      </trkpt>
      <trkpt lat="42.68456" lon="18.30551">
        <ele>277</ele>
        <time>2016-07-25T22:06:06Z</time>
      </trkpt>
      <trkpt lat="42.68467" lon="18.30571">
        <ele>276</ele>
        <time>2016-07-25T22:08:06Z</time>
      </trkpt>
      <trkpt lat="42.68479" lon="18.30596">
        <ele>275</ele>
        <time>2016-07-25T22:10:06Z</time>
      </trkpt>
      <trkpt lat="42.68486" lon="18.30611">
        <ele>275</ele>
        <time>2016-07-25T22:12:06Z</time>
      </trkpt>
      <trkpt lat="42.68493" lon="18.30626">
        <ele>275</ele>
        <time>2016-07-25T22:14:06Z</time>
      </trkpt>
      <trkpt lat="42.68499" lon="18.3064">
        <ele>275</ele>
        <time>2016-07-25T22:16:06Z</time>
      </trkpt>
      <trkpt lat="42.68502" lon="18.30649">
        <ele>275</ele>
        <time>2016-07-25T22:18:06Z</time>
      </trkpt>
      <trkpt lat="42.68512" lon="18.30671">
        <ele>276</ele>
        <time>2016-07-25T22:20:06Z</time>
      </trkpt>
      <trkpt lat="42.68521" lon="18.30694">
        <ele>276</ele>
        <time>2016-07-25T22:22:06Z</time>
      </trkpt>
      <trkpt lat="42.6853" lon="18.30717">
        <ele>277</ele>
        <time>2016-07-25T22:24:06Z</time>
      </trkpt>
      <trkpt lat="42.68538" lon="18.3074">
        <ele>277</ele>
        <time>2016-07-25T22:26:06Z</time>
      </trkpt>
      <trkpt lat="42.68545" lon="18.30761">
        <ele>277</ele>
        <time>2016-07-25T22:28:06Z</time>
      </trkpt>
      <trkpt lat="42.68553" lon="18.30782">
        <ele>276</ele>
        <time>2016-07-25T22:30:06Z</time>
      </trkpt>
      <trkpt lat="42.68559" lon="18.30803">
        <ele>276</ele>
        <time>2016-07-25T22:32:06Z</time>
      </trkpt>
      <trkpt lat="42.68566" lon="18.30824">
        <ele>275</ele>
        <time>2016-07-25T22:34:06Z</time>
      </trkpt>
      <trkpt lat="42.68573" lon="18.30845">
        <ele>274</ele>
        <time>2016-07-25T22:36:06Z</time>
      </trkpt>
      <trkpt lat="42.68594" lon="18.30946">
        <ele>272</ele>
        <time>2016-07-25T22:38:06Z</time>
      </trkpt>
      <trkpt lat="42.68604" lon="18.30991">
        <ele>271</ele>
        <time>2016-07-25T22:40:06Z</time>
      </trkpt>
      <trkpt lat="42.68623" lon="18.31134">
        <ele>271</ele>
        <time>2016-07-25T22:42:06Z</time>
      </trkpt>
      <trkpt lat="42.68624" lon="18.31156">
        <ele>271</ele>
        <time>2016-07-25T22:44:06Z</time>
      </trkpt>
      <trkpt lat="42.68626" lon="18.31177">
        <ele>271</ele>
        <time>2016-07-25T22:46:06Z</time>
      </trkpt>
      <trkpt lat="42.68627" lon="18.31199">
        <ele>270</ele>
        <time>2016-07-25T22:48:06Z</time>
      </trkpt>
      <trkpt lat="42.68628" lon="18.31226">
        <ele>270</ele>
        <time>2016-07-25T22:50:06Z</time>
      </trkpt>
      <trkpt lat="42.68629" lon="18.31254">
        <ele>269</ele>
        <time>2016-07-25T22:52:06Z</time>
      </trkpt>
      <trkpt lat="42.68629" lon="18.31273">
        <ele>269</ele>
        <time>2016-07-25T22:54:06Z</time>
      </trkpt>
      <trkpt lat="42.68629" lon="18.31281">
        <ele>269</ele>
        <time>2016-07-25T22:56:06Z</time>
      </trkpt>
      <trkpt lat="42.6863" lon="18.31308">
        <ele>269</ele>
        <time>2016-07-25T22:58:06Z</time>
      </trkpt>
      <trkpt lat="42.6863" lon="18.31336">
        <ele>269</ele>
        <time>2016-07-25T23:00:06Z</time>
      </trkpt>
      <trkpt lat="42.68626" lon="18.314">
        <ele>271</ele>
        <time>2016-07-25T23:02:06Z</time>
      </trkpt>
      <trkpt lat="42.68621" lon="18.31456">
        <ele>273</ele>
        <time>2016-07-25T23:04:06Z</time>
      </trkpt>
      <trkpt lat="42.68617" lon="18.31482">
        <ele>273</ele>
        <time>2016-07-25T23:06:06Z</time>
      </trkpt>
      <trkpt lat="42.68614" lon="18.31509">
        <ele>274</ele>
        <time>2016-07-25T23:08:06Z</time>
      </trkpt>
      <trkpt lat="42.6861" lon="18.31535">
        <ele>273</ele>
        <time>2016-07-25T23:10:06Z</time>
      </trkpt>
      <trkpt lat="42.68605" lon="18.31566">
        <ele>272</ele>
        <time>2016-07-25T23:12:06Z</time>
      </trkpt>
      <trkpt lat="42.686" lon="18.31596">
        <ele>272</ele>
        <time>2016-07-25T23:14:06Z</time>
      </trkpt>
      <trkpt lat="42.68595" lon="18.31627">
        <ele>272</ele>
        <time>2016-07-25T23:16:06Z</time>
      </trkpt>
      <trkpt lat="42.6859" lon="18.31657">
        <ele>272</ele>
        <time>2016-07-25T23:18:06Z</time>
      </trkpt>
      <trkpt lat="42.68584" lon="18.31687">
        <ele>271</ele>
        <time>2016-07-25T23:20:06Z</time>
      </trkpt>
      <trkpt lat="42.68578" lon="18.31718">
        <ele>271</ele>
        <time>2016-07-25T23:22:06Z</time>
      </trkpt>
      <trkpt lat="42.68569" lon="18.31767">
        <ele>271</ele>
        <time>2016-07-25T23:24:06Z</time>
      </trkpt>
      <trkpt lat="42.68559" lon="18.31817">
        <ele>271</ele>
        <time>2016-07-25T23:26:06Z</time>
      </trkpt>
      <trkpt lat="42.6855" lon="18.31867">
        <ele>271</ele>
        <time>2016-07-25T23:28:06Z</time>
      </trkpt>
      <trkpt lat="42.68543" lon="18.31907">
        <ele>271</ele>
        <time>2016-07-25T23:30:06Z</time>
      </trkpt>
      <trkpt lat="42.68536" lon="18.31948">
        <ele>270</ele>
        <time>2016-07-25T23:32:06Z</time>
      </trkpt>
      <trkpt lat="42.68529" lon="18.31988">
        <ele>270</ele>
        <time>2016-07-25T23:34:06Z</time>
      </trkpt>
      <trkpt lat="42.68527" lon="18.32013">
        <ele>270</ele>
        <time>2016-07-25T23:36:06Z</time>
      </trkpt>
      <trkpt lat="42.68525" lon="18.32038">
        <ele>270</ele>
        <time>2016-07-25T23:38:06Z</time>
      </trkpt>
      <trkpt lat="42.68524" lon="18.32063">
        <ele>270</ele>
        <time>2016-07-25T23:40:06Z</time>
      </trkpt>
      <trkpt lat="42.68522" lon="18.32087">
        <ele>270</ele>
        <time>2016-07-25T23:42:06Z</time>
      </trkpt>
      <trkpt lat="42.68521" lon="18.32112">
        <ele>271</ele>
        <time>2016-07-25T23:44:06Z</time>
      </trkpt>
      <trkpt lat="42.68521" lon="18.32137">
        <ele>271</ele>
        <time>2016-07-25T23:46:06Z</time>
      </trkpt>
      <trkpt lat="42.6852" lon="18.32162">
        <ele>272</ele>
        <time>2016-07-25T23:48:06Z</time>
      </trkpt>
      <trkpt lat="42.6852" lon="18.32187">
        <ele>273</ele>
        <time>2016-07-25T23:50:06Z</time>
      </trkpt>
      <trkpt lat="42.6852" lon="18.32211">
        <ele>274</ele>
        <time>2016-07-25T23:52:06Z</time>
      </trkpt>
      <trkpt lat="42.68521" lon="18.32236">
        <ele>275</ele>
        <time>2016-07-25T23:54:06Z</time>
      </trkpt>
      <trkpt lat="42.68523" lon="18.3226">
        <ele>275</ele>
        <time>2016-07-25T23:56:06Z</time>
      </trkpt>
      <trkpt lat="42.68526" lon="18.32284">
        <ele>275</ele>
        <time>2016-07-25T23:58:06Z</time>
      </trkpt>
      <trkpt lat="42.6853" lon="18.32308">
        <ele>274</ele>
        <time>2016-07-26T00:00:06Z</time>
      </trkpt>
      <trkpt lat="42.68532" lon="18.32327">
        <ele>274</ele>
        <time>2016-07-26T00:02:06Z</time>
      </trkpt>
      <trkpt lat="42.68535" lon="18.32345">
        <ele>273</ele>
        <time>2016-07-26T00:04:06Z</time>
      </trkpt>
      <trkpt lat="42.68538" lon="18.32364">
        <ele>272</ele>
        <time>2016-07-26T00:06:06Z</time>
      </trkpt>
      <trkpt lat="42.68542" lon="18.32382">
        <ele>272</ele>
        <time>2016-07-26T00:08:06Z</time>
      </trkpt>
      <trkpt lat="42.68545" lon="18.324">
        <ele>271</ele>
        <time>2016-07-26T00:10:06Z</time>
      </trkpt>
      <trkpt lat="42.68549" lon="18.32416">
        <ele>271</ele>
        <time>2016-07-26T00:12:06Z</time>
      </trkpt>
      <trkpt lat="42.68553" lon="18.32433">
        <ele>271</ele>
        <time>2016-07-26T00:14:06Z</time>
      </trkpt>
      <trkpt lat="42.68557" lon="18.32448">
        <ele>271</ele>
        <time>2016-07-26T00:16:06Z</time>
      </trkpt>
      <trkpt lat="42.68562" lon="18.32463">
        <ele>270</ele>
        <time>2016-07-26T00:18:06Z</time>
      </trkpt>
      <trkpt lat="42.68566" lon="18.32478">
        <ele>270</ele>
        <time>2016-07-26T00:20:06Z</time>
      </trkpt>
      <trkpt lat="42.68571" lon="18.32493">
        <ele>270</ele>
        <time>2016-07-26T00:22:06Z</time>
      </trkpt>
      <trkpt lat="42.68576" lon="18.32507">
        <ele>270</ele>
        <time>2016-07-26T00:24:06Z</time>
      </trkpt>
      <trkpt lat="42.68581" lon="18.32522">
        <ele>270</ele>
        <time>2016-07-26T00:26:06Z</time>
      </trkpt>
      <trkpt lat="42.6859" lon="18.32544">
        <ele>271</ele>
        <time>2016-07-26T00:28:06Z</time>
      </trkpt>
      <trkpt lat="42.68599" lon="18.32566">
        <ele>272</ele>
        <time>2016-07-26T00:30:06Z</time>
      </trkpt>
      <trkpt lat="42.68611" lon="18.32594">
        <ele>273</ele>
        <time>2016-07-26T00:32:06Z</time>
      </trkpt>
      <trkpt lat="42.68623" lon="18.32622">
        <ele>274</ele>
        <time>2016-07-26T00:34:06Z</time>
      </trkpt>
      <trkpt lat="42.68657" lon="18.32694">
        <ele>275</ele>
        <time>2016-07-26T00:36:06Z</time>
      </trkpt>
      <trkpt lat="42.68686" lon="18.32753">
        <ele>277</ele>
        <time>2016-07-26T00:38:06Z</time>
      </trkpt>
      <trkpt lat="42.68725" lon="18.32839">
        <ele>275</ele>
        <time>2016-07-26T00:40:06Z</time>
      </trkpt>
      <trkpt lat="42.68748" lon="18.32904">
        <ele>271</ele>
        <time>2016-07-26T00:42:06Z</time>
      </trkpt>
      <trkpt lat="42.68759" lon="18.32933">
        <ele>271</ele>
        <time>2016-07-26T00:44:06Z</time>
      </trkpt>
      <trkpt lat="42.68762" lon="18.32943">
        <ele>271</ele>
        <time>2016-07-26T00:46:06Z</time>
      </trkpt>
      <trkpt lat="42.68765" lon="18.32953">
        <ele>271</ele>
        <time>2016-07-26T00:48:06Z</time>
      </trkpt>
      <trkpt lat="42.68768" lon="18.32964">
        <ele>271</ele>
        <time>2016-07-26T00:50:06Z</time>
      </trkpt>
      <trkpt lat="42.68771" lon="18.32974">
        <ele>271</ele>
        <time>2016-07-26T00:52:06Z</time>
      </trkpt>
      <trkpt lat="42.68774" lon="18.32985">
        <ele>271</ele>
        <time>2016-07-26T00:54:06Z</time>
      </trkpt>
      <trkpt lat="42.68777" lon="18.32995">
        <ele>272</ele>
        <time>2016-07-26T00:56:06Z</time>
      </trkpt>
      <trkpt lat="42.68779" lon="18.33006">
        <ele>272</ele>
        <time>2016-07-26T00:58:06Z</time>
      </trkpt>
      <trkpt lat="42.68789" lon="18.3305">
        <ele>271</ele>
        <time>2016-07-26T01:00:06Z</time>
      </trkpt>
      <trkpt lat="42.688" lon="18.33102">
        <ele>271</ele>
        <time>2016-07-26T01:02:06Z</time>
      </trkpt>
      <trkpt lat="42.68805" lon="18.3313">
        <ele>271</ele>
        <time>2016-07-26T01:04:06Z</time>
      </trkpt>
      <trkpt lat="42.68812" lon="18.3318">
        <ele>270</ele>
        <time>2016-07-26T01:06:06Z</time>
      </trkpt>
      <trkpt lat="42.68854" lon="18.33515">
        <ele>271</ele>
        <time>2016-07-26T01:08:06Z</time>
      </trkpt>
      <trkpt lat="42.68861" lon="18.33551">
        <ele>272</ele>
        <time>2016-07-26T01:10:06Z</time>
      </trkpt>
      <trkpt lat="42.68868" lon="18.33576">
        <ele>272</ele>
        <time>2016-07-26T01:12:06Z</time>
      </trkpt>
      <trkpt lat="42.68874" lon="18.3359">
        <ele>273</ele>
        <time>2016-07-26T01:14:06Z</time>
      </trkpt>
      <trkpt lat="42.68879" lon="18.33602">
        <ele>273</ele>
        <time>2016-07-26T01:16:06Z</time>
      </trkpt>
      <trkpt lat="42.68891" lon="18.33622">
        <ele>274</ele>
        <time>2016-07-26T01:18:06Z</time>
      </trkpt>
      <trkpt lat="42.68893" lon="18.33626">
        <ele>274</ele>
        <time>2016-07-26T01:20:06Z</time>
      </trkpt>
      <trkpt lat="42.68895" lon="18.33628">
        <ele>274</ele>
        <time>2016-07-26T01:22:06Z</time>
      </trkpt>
      <trkpt lat="42.68902" lon="18.33639">
        <ele>274</ele>
        <time>2016-07-26T01:24:06Z</time>
      </trkpt>
      <trkpt lat="42.68913" lon="18.33654">
        <ele>273</ele>
        <time>2016-07-26T01:26:06Z</time>
      </trkpt>
      <trkpt lat="42.68931" lon="18.33669">
        <ele>273</ele>
        <time>2016-07-26T01:28:06Z</time>
      </trkpt>
      <trkpt lat="42.68937" lon="18.33674">
        <ele>274</ele>
        <time>2016-07-26T01:30:06Z</time>
      </trkpt>
      <trkpt lat="42.68944" lon="18.33679">
        <ele>275</ele>
        <time>2016-07-26T01:32:06Z</time>
      </trkpt>
      <trkpt lat="42.68958" lon="18.33686">
        <ele>276</ele>
        <time>2016-07-26T01:34:06Z</time>
      </trkpt>
      <trkpt lat="42.68982" lon="18.33696">
        <ele>277</ele>
        <time>2016-07-26T01:36:06Z</time>
      </trkpt>
      <trkpt lat="42.69057" lon="18.33726">
        <ele>277</ele>
        <time>2016-07-26T01:38:06Z</time>
      </trkpt>
      <trkpt lat="42.69097" lon="18.33753">
        <ele>276</ele>
        <time>2016-07-26T01:40:06Z</time>
      </trkpt>
      <trkpt lat="42.69101" lon="18.33757">
        <ele>276</ele>
        <time>2016-07-26T01:42:06Z</time>
      </trkpt>
      <trkpt lat="42.69106" lon="18.3376">
        <ele>276</ele>
        <time>2016-07-26T01:44:06Z</time>
      </trkpt>
      <trkpt lat="42.6911" lon="18.33764">
        <ele>277</ele>
        <time>2016-07-26T01:46:06Z</time>
      </trkpt>
      <trkpt lat="42.69115" lon="18.33769">
        <ele>277</ele>
        <time>2016-07-26T01:48:06Z</time>
      </trkpt>
      <trkpt lat="42.69121" lon="18.33774">
        <ele>278</ele>
        <time>2016-07-26T01:50:06Z</time>
      </trkpt>
      <trkpt lat="42.69126" lon="18.3378">
        <ele>278</ele>
        <time>2016-07-26T01:52:06Z</time>
      </trkpt>
      <trkpt lat="42.69131" lon="18.33785">
        <ele>278</ele>
        <time>2016-07-26T01:54:06Z</time>
      </trkpt>
      <trkpt lat="42.69136" lon="18.33791">
        <ele>279</ele>
        <time>2016-07-26T01:56:06Z</time>
      </trkpt>
      <trkpt lat="42.69169" lon="18.33824">
        <ele>279</ele>
        <time>2016-07-26T01:58:06Z</time>
      </trkpt>
      <trkpt lat="42.69184" lon="18.33837">
        <ele>280</ele>
        <time>2016-07-26T02:00:06Z</time>
      </trkpt>
      <trkpt lat="42.69199" lon="18.33849">
        <ele>282</ele>
        <time>2016-07-26T02:02:06Z</time>
      </trkpt>
      <trkpt lat="42.69219" lon="18.33865">
        <ele>283</ele>
        <time>2016-07-26T02:04:06Z</time>
      </trkpt>
      <trkpt lat="42.69263" lon="18.33895">
        <ele>280</ele>
        <time>2016-07-26T02:06:06Z</time>
      </trkpt>
      <trkpt lat="42.69348" lon="18.33951">
        <ele>280</ele>
        <time>2016-07-26T02:08:06Z</time>
      </trkpt>
      <trkpt lat="42.69353" lon="18.33955">
        <ele>280</ele>
        <time>2016-07-26T02:10:06Z</time>
      </trkpt>
      <trkpt lat="42.69358" lon="18.33959">
        <ele>280</ele>
        <time>2016-07-26T02:12:06Z</time>
      </trkpt>
      <trkpt lat="42.69364" lon="18.33963">
        <ele>280</ele>
        <time>2016-07-26T02:14:06Z</time>
      </trkpt>
      <trkpt lat="42.69369" lon="18.33967">
        <ele>280</ele>
        <time>2016-07-26T02:16:06Z</time>
      </trkpt>
      <trkpt lat="42.69374" lon="18.33972">
        <ele>280</ele>
        <time>2016-07-26T02:18:06Z</time>
      </trkpt>
      <trkpt lat="42.69379" lon="18.33976">
        <ele>279</ele>
        <time>2016-07-26T02:20:06Z</time>
      </trkpt>
      <trkpt lat="42.69384" lon="18.33981">
        <ele>279</ele>
        <time>2016-07-26T02:22:06Z</time>
      </trkpt>
      <trkpt lat="42.69389" lon="18.33986">
        <ele>279</ele>
        <time>2016-07-26T02:24:06Z</time>
      </trkpt>
      <trkpt lat="42.69394" lon="18.33991">
        <ele>279</ele>
        <time>2016-07-26T02:26:06Z</time>
      </trkpt>
      <trkpt lat="42.69399" lon="18.33996">
        <ele>278</ele>
        <time>2016-07-26T02:28:06Z</time>
      </trkpt>
      <trkpt lat="42.69403" lon="18.34001">
        <ele>278</ele>
        <time>2016-07-26T02:30:06Z</time>
      </trkpt>
      <trkpt lat="42.69407" lon="18.34006">
        <ele>278</ele>
        <time>2016-07-26T02:32:06Z</time>
      </trkpt>
      <trkpt lat="42.69411" lon="18.34011">
        <ele>278</ele>
        <time>2016-07-26T02:34:06Z</time>
      </trkpt>
      <trkpt lat="42.69415" lon="18.34016">
        <ele>278</ele>
        <time>2016-07-26T02:36:06Z</time>
      </trkpt>
      <trkpt lat="42.69418" lon="18.34021">
        <ele>278</ele>
        <time>2016-07-26T02:38:06Z</time>
      </trkpt>
      <trkpt lat="42.69422" lon="18.34027">
        <ele>279</ele>
        <time>2016-07-26T02:40:06Z</time>
      </trkpt>
      <trkpt lat="42.69425" lon="18.34032">
        <ele>279</ele>
        <time>2016-07-26T02:42:06Z</time>
      </trkpt>
      <trkpt lat="42.69428" lon="18.34038">
        <ele>279</ele>
        <time>2016-07-26T02:44:06Z</time>
      </trkpt>
      <trkpt lat="42.69431" lon="18.34043">
        <ele>279</ele>
        <time>2016-07-26T02:46:06Z</time>
      </trkpt>
      <trkpt lat="42.69434" lon="18.34049">
        <ele>280</ele>
        <time>2016-07-26T02:48:06Z</time>
      </trkpt>
      <trkpt lat="42.69437" lon="18.34054">
        <ele>280</ele>
        <time>2016-07-26T02:50:06Z</time>
      </trkpt>
      <trkpt lat="42.6944" lon="18.3406">
        <ele>280</ele>
        <time>2016-07-26T02:52:06Z</time>
      </trkpt>
      <trkpt lat="42.69442" lon="18.34065">
        <ele>280</ele>
        <time>2016-07-26T02:54:06Z</time>
      </trkpt>
      <trkpt lat="42.69446" lon="18.34075">
        <ele>281</ele>
        <time>2016-07-26T02:56:06Z</time>
      </trkpt>
      <trkpt lat="42.69449" lon="18.34084">
        <ele>281</ele>
        <time>2016-07-26T02:58:06Z</time>
      </trkpt>
      <trkpt lat="42.69452" lon="18.34094">
        <ele>281</ele>
        <time>2016-07-26T03:00:06Z</time>
      </trkpt>
      <trkpt lat="42.69455" lon="18.34103">
        <ele>281</ele>
        <time>2016-07-26T03:02:06Z</time>
      </trkpt>
      <trkpt lat="42.69457" lon="18.34112">
        <ele>282</ele>
        <time>2016-07-26T03:04:06Z</time>
      </trkpt>
      <trkpt lat="42.69459" lon="18.34121">
        <ele>282</ele>
        <time>2016-07-26T03:06:06Z</time>
      </trkpt>
      <trkpt lat="42.69462" lon="18.3413">
        <ele>282</ele>
        <time>2016-07-26T03:08:06Z</time>
      </trkpt>
      <trkpt lat="42.69464" lon="18.34139">
        <ele>282</ele>
        <time>2016-07-26T03:10:06Z</time>
      </trkpt>
      <trkpt lat="42.69466" lon="18.34145">
        <ele>282</ele>
        <time>2016-07-26T03:12:06Z</time>
      </trkpt>
      <trkpt lat="42.69478" lon="18.34217">
        <ele>282</ele>
        <time>2016-07-26T03:14:06Z</time>
      </trkpt>
      <trkpt lat="42.69509" lon="18.34395">
        <ele>284</ele>
        <time>2016-07-26T03:16:06Z</time>
      </trkpt>
      <trkpt lat="42.69512" lon="18.34413">
        <ele>285</ele>
        <time>2016-07-26T03:18:06Z</time>
      </trkpt>
      <trkpt lat="42.69516" lon="18.3443">
        <ele>285</ele>
        <time>2016-07-26T03:20:06Z</time>
      </trkpt>
      <trkpt lat="42.6952" lon="18.34448">
        <ele>286</ele>
        <time>2016-07-26T03:22:06Z</time>
      </trkpt>
      <trkpt lat="42.69524" lon="18.34465">
        <ele>286</ele>
        <time>2016-07-26T03:24:06Z</time>
      </trkpt>
      <trkpt lat="42.69528" lon="18.34483">
        <ele>286</ele>
        <time>2016-07-26T03:26:06Z</time>
      </trkpt>
      <trkpt lat="42.69532" lon="18.34499">
        <ele>286</ele>
        <time>2016-07-26T03:28:06Z</time>
      </trkpt>
      <trkpt lat="42.69536" lon="18.34515">
        <ele>286</ele>
        <time>2016-07-26T03:30:06Z</time>
      </trkpt>
      <trkpt lat="42.6954" lon="18.34532">
        <ele>286</ele>
        <time>2016-07-26T03:32:06Z</time>
      </trkpt>
      <trkpt lat="42.69545" lon="18.34548">
        <ele>285</ele>
        <time>2016-07-26T03:34:06Z</time>
      </trkpt>
      <trkpt lat="42.69559" lon="18.34599">
        <ele>284</ele>
        <time>2016-07-26T03:36:06Z</time>
      </trkpt>
      <trkpt lat="42.69567" lon="18.3462">
        <ele>283</ele>
        <time>2016-07-26T03:38:06Z</time>
      </trkpt>
      <trkpt lat="42.6957" lon="18.34628">
        <ele>282</ele>
        <time>2016-07-26T03:40:06Z</time>
      </trkpt>
      <trkpt lat="42.69572" lon="18.34635">
        <ele>282</ele>
        <time>2016-07-26T03:42:06Z</time>
      </trkpt>
      <trkpt lat="42.69575" lon="18.34642">
        <ele>281</ele>
        <time>2016-07-26T03:44:06Z</time>
      </trkpt>
      <trkpt lat="42.69578" lon="18.34649">
        <ele>280</ele>
        <time>2016-07-26T03:46:06Z</time>
      </trkpt>
      <trkpt lat="42.69581" lon="18.34657">
        <ele>279</ele>
        <time>2016-07-26T03:48:06Z</time>
      </trkpt>
      <trkpt lat="42.69584" lon="18.34664">
        <ele>278</ele>
        <time>2016-07-26T03:50:06Z</time>
      </trkpt>
      <trkpt lat="42.69588" lon="18.34671">
        <ele>278</ele>
        <time>2016-07-26T03:52:06Z</time>
      </trkpt>
      <trkpt lat="42.69592" lon="18.34679">
        <ele>279</ele>
        <time>2016-07-26T03:54:06Z</time>
      </trkpt>
      <trkpt lat="42.69597" lon="18.34686">
        <ele>279</ele>
        <time>2016-07-26T03:56:06Z</time>
      </trkpt>
      <trkpt lat="42.69601" lon="18.34694">
        <ele>279</ele>
        <time>2016-07-26T03:58:06Z</time>
      </trkpt>
      <trkpt lat="42.69606" lon="18.34701">
        <ele>279</ele>
        <time>2016-07-26T04:00:06Z</time>
      </trkpt>
      <trkpt lat="42.69624" lon="18.34725">
        <ele>278</ele>
        <time>2016-07-26T04:02:06Z</time>
      </trkpt>
      <trkpt lat="42.6963" lon="18.34733">
        <ele>278</ele>
        <time>2016-07-26T04:04:06Z</time>
      </trkpt>
      <trkpt lat="42.69647" lon="18.34751">
        <ele>276</ele>
        <time>2016-07-26T04:06:06Z</time>
      </trkpt>
      <trkpt lat="42.69716" lon="18.34801">
        <ele>275</ele>
        <time>2016-07-26T04:08:06Z</time>
      </trkpt>
      <trkpt lat="42.69747" lon="18.34815">
        <ele>273</ele>
        <time>2016-07-26T04:10:06Z</time>
      </trkpt>
      <trkpt lat="42.69774" lon="18.34823">
        <ele>273</ele>
        <time>2016-07-26T04:12:06Z</time>
      </trkpt>
      <trkpt lat="42.69785" lon="18.34825">
        <ele>273</ele>
        <time>2016-07-26T04:14:06Z</time>
      </trkpt>
      <trkpt lat="42.69818" lon="18.34831">
        <ele>272</ele>
        <time>2016-07-26T04:16:06Z</time>
      </trkpt>
      <trkpt lat="42.6986" lon="18.34838">
        <ele>272</ele>
        <time>2016-07-26T04:18:06Z</time>
      </trkpt>
      <trkpt lat="42.69871" lon="18.34842">
        <ele>272</ele>
        <time>2016-07-26T04:20:06Z</time>
      </trkpt>
      <trkpt lat="42.69886" lon="18.34849">
        <ele>272</ele>
        <time>2016-07-26T04:22:06Z</time>
      </trkpt>
      <trkpt lat="42.69891" lon="18.34852">
        <ele>272</ele>
        <time>2016-07-26T04:24:06Z</time>
      </trkpt>
      <trkpt lat="42.69891" lon="18.34852">
        <ele>272</ele>
        <time>2016-07-26T04:26:06Z</time>
      </trkpt>
      <trkpt lat="42.69891" lon="18.34853">
        <ele>272</ele>
        <time>2016-07-26T04:28:06Z</time>
      </trkpt>
      <trkpt lat="42.69892" lon="18.34854">
        <ele>272</ele>
        <time>2016-07-26T04:30:06Z</time>
      </trkpt>
      <trkpt lat="42.69892" lon="18.34855">
        <ele>272</ele>
        <time>2016-07-26T04:32:06Z</time>
      </trkpt>
      <trkpt lat="42.69892" lon="18.34856">
        <ele>272</ele>
        <time>2016-07-26T04:34:06Z</time>
      </trkpt>
      <trkpt lat="42.69893" lon="18.34856">
        <ele>272</ele>
        <time>2016-07-26T04:36:06Z</time>
      </trkpt>
      <trkpt lat="42.69894" lon="18.34858">
        <ele>272</ele>
        <time>2016-07-26T04:38:06Z</time>
      </trkpt>
      <trkpt lat="42.69895" lon="18.34859">
        <ele>272</ele>
        <time>2016-07-26T04:40:06Z</time>
      </trkpt>
      <trkpt lat="42.69896" lon="18.3486">
        <ele>272</ele>
        <time>2016-07-26T04:42:06Z</time>
      </trkpt>
      <trkpt lat="42.69896" lon="18.34861">
        <ele>272</ele>
        <time>2016-07-26T04:44:06Z</time>
      </trkpt>
      <trkpt lat="42.69897" lon="18.34861">
        <ele>272</ele>
        <time>2016-07-26T04:46:06Z</time>
      </trkpt>
      <trkpt lat="42.69898" lon="18.34862">
        <ele>272</ele>
        <time>2016-07-26T04:48:06Z</time>
      </trkpt>
      <trkpt lat="42.69899" lon="18.34862">
        <ele>272</ele>
        <time>2016-07-26T04:50:06Z</time>
      </trkpt>
      <trkpt lat="42.699" lon="18.34863">
        <ele>272</ele>
        <time>2016-07-26T04:52:06Z</time>
      </trkpt>
      <trkpt lat="42.69901" lon="18.34863">
        <ele>272</ele>
        <time>2016-07-26T04:54:06Z</time>
      </trkpt>
      <trkpt lat="42.69902" lon="18.34863">
        <ele>272</ele>
        <time>2016-07-26T04:56:06Z</time>
      </trkpt>
      <trkpt lat="42.69903" lon="18.34864">
        <ele>272</ele>
        <time>2016-07-26T04:58:06Z</time>
      </trkpt>
      <trkpt lat="42.69904" lon="18.34864">
        <ele>272</ele>
        <time>2016-07-26T05:00:06Z</time>
      </trkpt>
      <trkpt lat="42.69905" lon="18.34864">
        <ele>272</ele>
        <time>2016-07-26T05:02:06Z</time>
      </trkpt>
      <trkpt lat="42.69906" lon="18.34863">
        <ele>272</ele>
        <time>2016-07-26T05:04:06Z</time>
      </trkpt>
      <trkpt lat="42.69907" lon="18.34863">
        <ele>272</ele>
        <time>2016-07-26T05:06:06Z</time>
      </trkpt>
      <trkpt lat="42.69908" lon="18.34863">
        <ele>272</ele>
        <time>2016-07-26T05:08:06Z</time>
      </trkpt>
      <trkpt lat="42.69909" lon="18.34862">
        <ele>272</ele>
        <time>2016-07-26T05:10:06Z</time>
      </trkpt>
      <trkpt lat="42.6991" lon="18.34862">
        <ele>272</ele>
        <time>2016-07-26T05:12:06Z</time>
      </trkpt>
      <trkpt lat="42.69911" lon="18.34861">
        <ele>272</ele>
        <time>2016-07-26T05:14:06Z</time>
      </trkpt>
      <trkpt lat="42.69912" lon="18.3486">
        <ele>272</ele>
        <time>2016-07-26T05:16:06Z</time>
      </trkpt>
      <trkpt lat="42.69913" lon="18.34859">
        <ele>272</ele>
        <time>2016-07-26T05:18:06Z</time>
      </trkpt>
      <trkpt lat="42.69914" lon="18.34858">
        <ele>272</ele>
        <time>2016-07-26T05:20:06Z</time>
      </trkpt>
      <trkpt lat="42.69915" lon="18.34857">
        <ele>272</ele>
        <time>2016-07-26T05:22:06Z</time>
      </trkpt>
      <trkpt lat="42.69915" lon="18.34856">
        <ele>272</ele>
        <time>2016-07-26T05:24:06Z</time>
      </trkpt>
      <trkpt lat="42.69916" lon="18.34855">
        <ele>272</ele>
        <time>2016-07-26T05:26:06Z</time>
      </trkpt>
      <trkpt lat="42.69916" lon="18.34854">
        <ele>272</ele>
        <time>2016-07-26T05:28:06Z</time>
      </trkpt>
      <trkpt lat="42.69916" lon="18.34853">
        <ele>272</ele>
        <time>2016-07-26T05:30:06Z</time>
      </trkpt>
      <trkpt lat="42.69917" lon="18.34852">
        <ele>272</ele>
        <time>2016-07-26T05:32:06Z</time>
      </trkpt>
      <trkpt lat="42.69917" lon="18.34851">
        <ele>272</ele>
        <time>2016-07-26T05:34:06Z</time>
      </trkpt>
      <trkpt lat="42.69917" lon="18.3485">
        <ele>272</ele>
        <time>2016-07-26T05:36:06Z</time>
      </trkpt>
      <trkpt lat="42.69917" lon="18.34849">
        <ele>272</ele>
        <time>2016-07-26T05:38:06Z</time>
      </trkpt>
      <trkpt lat="42.69918" lon="18.34848">
        <ele>272</ele>
        <time>2016-07-26T05:40:06Z</time>
      </trkpt>
      <trkpt lat="42.69918" lon="18.34847">
        <ele>272</ele>
        <time>2016-07-26T05:42:06Z</time>
      </trkpt>
      <trkpt lat="42.69918" lon="18.34846">
        <ele>272</ele>
        <time>2016-07-26T05:44:06Z</time>
      </trkpt>
      <trkpt lat="42.69918" lon="18.34845">
        <ele>272</ele>
        <time>2016-07-26T05:46:06Z</time>
      </trkpt>
      <trkpt lat="42.69918" lon="18.34843">
        <ele>272</ele>
        <time>2016-07-26T05:48:06Z</time>
      </trkpt>
      <trkpt lat="42.69918" lon="18.34842">
        <ele>272</ele>
        <time>2016-07-26T05:50:06Z</time>
      </trkpt>
      <trkpt lat="42.69917" lon="18.34841">
        <ele>272</ele>
        <time>2016-07-26T05:52:06Z</time>
      </trkpt>
      <trkpt lat="42.69917" lon="18.3484">
        <ele>272</ele>
        <time>2016-07-26T05:54:06Z</time>
      </trkpt>
      <trkpt lat="42.69917" lon="18.34839">
        <ele>272</ele>
        <time>2016-07-26T05:56:06Z</time>
      </trkpt>
      <trkpt lat="42.69917" lon="18.34838">
        <ele>272</ele>
        <time>2016-07-26T05:58:06Z</time>
      </trkpt>
      <trkpt lat="42.69917" lon="18.34837">
        <ele>272</ele>
        <time>2016-07-26T06:00:06Z</time>
      </trkpt>
      <trkpt lat="42.69916" lon="18.34836">
        <ele>272</ele>
        <time>2016-07-26T06:02:06Z</time>
      </trkpt>
      <trkpt lat="42.69916" lon="18.34835">
        <ele>272</ele>
        <time>2016-07-26T06:04:06Z</time>
      </trkpt>
      <trkpt lat="42.69915" lon="18.34834">
        <ele>272</ele>
        <time>2016-07-26T06:06:06Z</time>
      </trkpt>
      <trkpt lat="42.69915" lon="18.34833">
        <ele>272</ele>
        <time>2016-07-26T06:08:06Z</time>
      </trkpt>
      <trkpt lat="42.69917" lon="18.34819">
        <ele>272</ele>
        <time>2016-07-26T06:10:06Z</time>
      </trkpt>
      <trkpt lat="42.69924" lon="18.34797">
        <ele>273</ele>
        <time>2016-07-26T06:12:06Z</time>
      </trkpt>
      <trkpt lat="42.69928" lon="18.34775">
        <ele>274</ele>
        <time>2016-07-26T06:14:06Z</time>
      </trkpt>
      <trkpt lat="42.69943" lon="18.34729">
        <ele>274</ele>
        <time>2016-07-26T06:16:06Z</time>
      </trkpt>
      <trkpt lat="42.69993" lon="18.34566">
        <ele>271</ele>
        <time>2016-07-26T06:18:06Z</time>
      </trkpt>
      <trkpt lat="42.7002" lon="18.34487">
        <ele>271</ele>
        <time>2016-07-26T06:20:06Z</time>
      </trkpt>
      <trkpt lat="42.70023" lon="18.34481">
        <ele>272</ele>
        <time>2016-07-26T06:22:06Z</time>
      </trkpt>
      <trkpt lat="42.70027" lon="18.34475">
        <ele>272</ele>
        <time>2016-07-26T06:24:06Z</time>
      </trkpt>
      <trkpt lat="42.70031" lon="18.34469">
        <ele>272</ele>
        <time>2016-07-26T06:26:06Z</time>
      </trkpt>
      <trkpt lat="42.70035" lon="18.34464">
        <ele>272</ele>
        <time>2016-07-26T06:28:06Z</time>
      </trkpt>
      <trkpt lat="42.70039" lon="18.34458">
        <ele>272</ele>
        <time>2016-07-26T06:30:06Z</time>
      </trkpt>
      <trkpt lat="42.70044" lon="18.34453">
        <ele>273</ele>
        <time>2016-07-26T06:32:06Z</time>
      </trkpt>
      <trkpt lat="42.70048" lon="18.34448">
        <ele>273</ele>
        <time>2016-07-26T06:34:06Z</time>
      </trkpt>
      <trkpt lat="42.70052" lon="18.34443">
        <ele>273</ele>
        <time>2016-07-26T06:36:06Z</time>
      </trkpt>
      <trkpt lat="42.70057" lon="18.34438">
        <ele>274</ele>
        <time>2016-07-26T06:38:06Z</time>
      </trkpt>
      <trkpt lat="42.70061" lon="18.34434">
        <ele>274</ele>
        <time>2016-07-26T06:40:06Z</time>
      </trkpt>
      <trkpt lat="42.70066" lon="18.3443">
        <ele>274</ele>
        <time>2016-07-26T06:42:06Z</time>
      </trkpt>
      <trkpt lat="42.70118" lon="18.34395">
        <ele>273</ele>
        <time>2016-07-26T06:44:06Z</time>
      </trkpt>
      <trkpt lat="42.70146" lon="18.34376">
        <ele>272</ele>
        <time>2016-07-26T06:46:06Z</time>
      </trkpt>
      <trkpt lat="42.70175" lon="18.34358">
        <ele>271</ele>
        <time>2016-07-26T06:48:06Z</time>
      </trkpt>
      <trkpt lat="42.70181" lon="18.34353">
        <ele>272</ele>
        <time>2016-07-26T06:50:06Z</time>
      </trkpt>
      <trkpt lat="42.70205" lon="18.3434">
        <ele>272</ele>
        <time>2016-07-26T06:52:06Z</time>
      </trkpt>
      <trkpt lat="42.70209" lon="18.34338">
        <ele>272</ele>
        <time>2016-07-26T06:54:06Z</time>
      </trkpt>
      <trkpt lat="42.70214" lon="18.34336">
        <ele>273</ele>
        <time>2016-07-26T06:56:06Z</time>
      </trkpt>
      <trkpt lat="42.70219" lon="18.34335">
        <ele>273</ele>
        <time>2016-07-26T06:58:06Z</time>
      </trkpt>
      <trkpt lat="42.70224" lon="18.34333">
        <ele>273</ele>
        <time>2016-07-26T07:00:06Z</time>
      </trkpt>
      <trkpt lat="42.70228" lon="18.34332">
        <ele>273</ele>
        <time>2016-07-26T07:02:06Z</time>
      </trkpt>
      <trkpt lat="42.70232" lon="18.34332">
        <ele>273</ele>
        <time>2016-07-26T07:04:06Z</time>
      </trkpt>
      <trkpt lat="42.70309" lon="18.34324">
        <ele>273</ele>
        <time>2016-07-26T07:06:06Z</time>
      </trkpt>
      <trkpt lat="42.70524" lon="18.34301">
        <ele>275</ele>
        <time>2016-07-26T07:08:06Z</time>
      </trkpt>
      <trkpt lat="42.70525" lon="18.34301">
        <ele>275</ele>
        <time>2016-07-26T07:10:06Z</time>
      </trkpt>
      <trkpt lat="42.70527" lon="18.34301">
        <ele>275</ele>
        <time>2016-07-26T07:12:06Z</time>
      </trkpt>
      <trkpt lat="42.70528" lon="18.34302">
        <ele>275</ele>
        <time>2016-07-26T07:14:06Z</time>
      </trkpt>
      <trkpt lat="42.70529" lon="18.34302">
        <ele>275</ele>
        <time>2016-07-26T07:16:06Z</time>
      </trkpt>
      <trkpt lat="42.70531" lon="18.34303">
        <ele>275</ele>
        <time>2016-07-26T07:18:06Z</time>
      </trkpt>
      <trkpt lat="42.70532" lon="18.34303">
        <ele>275</ele>
        <time>2016-07-26T07:20:06Z</time>
      </trkpt>
      <trkpt lat="42.70533" lon="18.34304">
        <ele>275</ele>
        <time>2016-07-26T07:22:06Z</time>
      </trkpt>
      <trkpt lat="42.70535" lon="18.34304">
        <ele>275</ele>
        <time>2016-07-26T07:24:06Z</time>
      </trkpt>
      <trkpt lat="42.70536" lon="18.34305">
        <ele>275</ele>
        <time>2016-07-26T07:26:06Z</time>
      </trkpt>
      <trkpt lat="42.70537" lon="18.34306">
        <ele>275</ele>
        <time>2016-07-26T07:28:06Z</time>
      </trkpt>
      <trkpt lat="42.70538" lon="18.34306">
        <ele>275</ele>
        <time>2016-07-26T07:30:06Z</time>
      </trkpt>
      <trkpt lat="42.70539" lon="18.34307">
        <ele>275</ele>
        <time>2016-07-26T07:32:06Z</time>
      </trkpt>
      <trkpt lat="42.7054" lon="18.34308">
        <ele>275</ele>
        <time>2016-07-26T07:34:06Z</time>
      </trkpt>
      <trkpt lat="42.7054" lon="18.34309">
        <ele>275</ele>
        <time>2016-07-26T07:36:06Z</time>
      </trkpt>
      <trkpt lat="42.70541" lon="18.3431">
        <ele>275</ele>
        <time>2016-07-26T07:38:06Z</time>
      </trkpt>
      <trkpt lat="42.70542" lon="18.3431">
        <ele>275</ele>
        <time>2016-07-26T07:40:06Z</time>
      </trkpt>
      <trkpt lat="42.70543" lon="18.34311">
        <ele>275</ele>
        <time>2016-07-26T07:42:06Z</time>
      </trkpt>
      <trkpt lat="42.70544" lon="18.34311">
        <ele>275</ele>
        <time>2016-07-26T07:44:06Z</time>
      </trkpt>
      <trkpt lat="42.70545" lon="18.34311">
        <ele>275</ele>
        <time>2016-07-26T07:46:06Z</time>
      </trkpt>
      <trkpt lat="42.70546" lon="18.34311">
        <ele>275</ele>
        <time>2016-07-26T07:48:06Z</time>
      </trkpt>
      <trkpt lat="42.70547" lon="18.34311">
        <ele>275</ele>
        <time>2016-07-26T07:50:06Z</time>
      </trkpt>
      <trkpt lat="42.70548" lon="18.34311">
        <ele>275</ele>
        <time>2016-07-26T07:52:06Z</time>
      </trkpt>
      <trkpt lat="42.70549" lon="18.3431">
        <ele>276</ele>
        <time>2016-07-26T07:54:06Z</time>
      </trkpt>
      <trkpt lat="42.7055" lon="18.3431">
        <ele>276</ele>
        <time>2016-07-26T07:56:06Z</time>
      </trkpt>
      <trkpt lat="42.70551" lon="18.34309">
        <ele>276</ele>
        <time>2016-07-26T07:58:06Z</time>
      </trkpt>
      <trkpt lat="42.70552" lon="18.34309">
        <ele>276</ele>
        <time>2016-07-26T08:00:06Z</time>
      </trkpt>
      <trkpt lat="42.70553" lon="18.34308">
        <ele>276</ele>
        <time>2016-07-26T08:02:06Z</time>
      </trkpt>
      <trkpt lat="42.70553" lon="18.34307">
        <ele>276</ele>
        <time>2016-07-26T08:04:06Z</time>
      </trkpt>
      <trkpt lat="42.70554" lon="18.34306">
        <ele>276</ele>
        <time>2016-07-26T08:06:06Z</time>
      </trkpt>
      <trkpt lat="42.70554" lon="18.34305">
        <ele>276</ele>
        <time>2016-07-26T08:08:06Z</time>
      </trkpt>
      <trkpt lat="42.70555" lon="18.34303">
        <ele>276</ele>
        <time>2016-07-26T08:10:06Z</time>
      </trkpt>
      <trkpt lat="42.70557" lon="18.34302">
        <ele>276</ele>
        <time>2016-07-26T08:12:06Z</time>
      </trkpt>
      <trkpt lat="42.70558" lon="18.34301">
        <ele>276</ele>
        <time>2016-07-26T08:14:06Z</time>
      </trkpt>
      <trkpt lat="42.7056" lon="18.343">
        <ele>276</ele>
        <time>2016-07-26T08:16:06Z</time>
      </trkpt>
      <trkpt lat="42.70562" lon="18.34298">
        <ele>276</ele>
        <time>2016-07-26T08:18:06Z</time>
      </trkpt>
      <trkpt lat="42.70564" lon="18.34297">
        <ele>277</ele>
        <time>2016-07-26T08:20:06Z</time>
      </trkpt>
      <trkpt lat="42.70565" lon="18.34296">
        <ele>277</ele>
        <time>2016-07-26T08:22:06Z</time>
      </trkpt>
      <trkpt lat="42.70567" lon="18.34295">
        <ele>277</ele>
        <time>2016-07-26T08:24:06Z</time>
      </trkpt>
      <trkpt lat="42.70676" lon="18.34283">
        <ele>273</ele>
        <time>2016-07-26T08:26:06Z</time>
      </trkpt>
      <trkpt lat="42.70795" lon="18.3427">
        <ele>275</ele>
        <time>2016-07-26T08:28:06Z</time>
      </trkpt>
      <trkpt lat="42.70805" lon="18.34269">
        <ele>275</ele>
        <time>2016-07-26T08:30:06Z</time>
      </trkpt>
      <trkpt lat="42.70969" lon="18.34252">
        <ele>275</ele>
        <time>2016-07-26T08:32:06Z</time>
      </trkpt>
      <trkpt lat="42.71052" lon="18.34248">
        <ele>276</ele>
        <time>2016-07-26T08:34:06Z</time>
      </trkpt>
      <trkpt lat="42.71096" lon="18.34247">
        <ele>277</ele>
        <time>2016-07-26T08:36:06Z</time>
      </trkpt>
      <trkpt lat="42.71103" lon="18.34246">
        <ele>278</ele>
        <time>2016-07-26T08:38:06Z</time>
      </trkpt>
      <trkpt lat="42.7111" lon="18.34246">
        <ele>278</ele>
        <time>2016-07-26T08:40:06Z</time>
      </trkpt>
      <trkpt lat="42.71117" lon="18.34245">
        <ele>278</ele>
        <time>2016-07-26T08:42:06Z</time>
      </trkpt>
      <trkpt lat="42.71119" lon="18.34244">
        <ele>278</ele>
        <time>2016-07-26T08:44:06Z</time>
      </trkpt>
      <trkpt lat="42.71124" lon="18.34243">
        <ele>278</ele>
        <time>2016-07-26T08:46:06Z</time>
      </trkpt>
      <trkpt lat="42.71132" lon="18.34242">
        <ele>279</ele>
        <time>2016-07-26T08:48:06Z</time>
      </trkpt>
      <trkpt lat="42.71139" lon="18.3424">
        <ele>279</ele>
        <time>2016-07-26T08:50:06Z</time>
      </trkpt>
      <trkpt lat="42.71146" lon="18.34239">
        <ele>279</ele>
        <time>2016-07-26T08:52:06Z</time>
      </trkpt>
      <trkpt lat="42.71228" lon="18.3422">
        <ele>282</ele>
        <time>2016-07-26T08:54:06Z</time>
      </trkpt>
      <trkpt lat="42.71228" lon="18.3422">
        <ele>282</ele>
        <time>2016-07-26T08:56:06Z</time>
      </trkpt>
      <trkpt lat="42.71221" lon="18.34291">
        <ele>280</ele>
        <time>2016-07-26T08:58:06Z</time>
      </trkpt>
      <trkpt lat="42.71214" lon="18.34379">
        <ele>279</ele>
        <time>2016-07-26T09:00:06Z</time>
      </trkpt>
      <trkpt lat="42.71212" lon="18.34407">
        <ele>279</ele>
        <time>2016-07-26T09:02:06Z</time>
      </trkpt>
      <trkpt lat="42.7121" lon="18.34425">
        <ele>280</ele>
        <time>2016-07-26T09:04:06Z</time>
      </trkpt>
      <trkpt lat="42.71201" lon="18.34537">
        <ele>281</ele>
        <time>2016-07-26T09:06:06Z</time>
      </trkpt>
      <trkpt lat="42.71195" lon="18.34604">
        <ele>279</ele>
        <time>2016-07-26T09:08:06Z</time>
      </trkpt>
      <trkpt lat="42.71193" lon="18.34621">
        <ele>278</ele>
        <time>2016-07-26T09:10:06Z</time>
      </trkpt>
      <trkpt lat="42.71191" lon="18.34644">
        <ele>277</ele>
        <time>2016-07-26T09:12:06Z</time>
      </trkpt>
      <trkpt lat="42.71191" lon="18.34644">
        <ele>277</ele>
        <time>2016-07-26T09:14:06Z</time>
      </trkpt>
      <trkpt lat="42.71192" lon="18.3465">
        <ele>277</ele>
        <time>2016-07-26T09:16:06Z</time>
      </trkpt>
      <trkpt lat="42.71192" lon="18.34651">
        <ele>277</ele>
        <time>2016-07-26T09:18:06Z</time>
      </trkpt>
      <trkpt lat="42.71192" lon="18.34652">
        <ele>277</ele>
        <time>2016-07-26T09:20:06Z</time>
      </trkpt>
      <trkpt lat="42.71193" lon="18.34653">
        <ele>277</ele>
        <time>2016-07-26T09:22:06Z</time>
      </trkpt>
      <trkpt lat="42.71193" lon="18.34655">
        <ele>277</ele>
        <time>2016-07-26T09:24:06Z</time>
      </trkpt>
      <trkpt lat="42.71194" lon="18.34656">
        <ele>277</ele>
        <time>2016-07-26T09:26:06Z</time>
      </trkpt>
      <trkpt lat="42.71194" lon="18.34657">
        <ele>277</ele>
        <time>2016-07-26T09:28:06Z</time>
      </trkpt>
      <trkpt lat="42.71195" lon="18.34658">
        <ele>277</ele>
        <time>2016-07-26T09:30:06Z</time>
      </trkpt>
      <trkpt lat="42.71196" lon="18.34659">
        <ele>277</ele>
        <time>2016-07-26T09:32:06Z</time>
      </trkpt>
      <trkpt lat="42.71197" lon="18.3466">
        <ele>277</ele>
        <time>2016-07-26T09:34:06Z</time>
      </trkpt>
      <trkpt lat="42.71197" lon="18.34661">
        <ele>277</ele>
        <time>2016-07-26T09:36:06Z</time>
      </trkpt>
      <trkpt lat="42.71198" lon="18.34662">
        <ele>277</ele>
        <time>2016-07-26T09:38:06Z</time>
      </trkpt>
      <trkpt lat="42.71199" lon="18.34662">
        <ele>277</ele>
        <time>2016-07-26T09:40:06Z</time>
      </trkpt>
      <trkpt lat="42.712" lon="18.34663">
        <ele>277</ele>
        <time>2016-07-26T09:42:06Z</time>
      </trkpt>
      <trkpt lat="42.71201" lon="18.34664">
        <ele>277</ele>
        <time>2016-07-26T09:44:06Z</time>
      </trkpt>
      <trkpt lat="42.71202" lon="18.34664">
        <ele>277</ele>
        <time>2016-07-26T09:46:06Z</time>
      </trkpt>
      <trkpt lat="42.71203" lon="18.34665">
        <ele>277</ele>
        <time>2016-07-26T09:48:06Z</time>
      </trkpt>
      <trkpt lat="42.71204" lon="18.34665">
        <ele>277</ele>
        <time>2016-07-26T09:50:06Z</time>
      </trkpt>
      <trkpt lat="42.71205" lon="18.34665">
        <ele>277</ele>
        <time>2016-07-26T09:52:06Z</time>
      </trkpt>
      <trkpt lat="42.71206" lon="18.34665">
        <ele>277</ele>
        <time>2016-07-26T09:54:06Z</time>
      </trkpt>
      <trkpt lat="42.71207" lon="18.34665">
        <ele>277</ele>
        <time>2016-07-26T09:56:06Z</time>
      </trkpt>
      <trkpt lat="42.71208" lon="18.34665">
        <ele>277</ele>
        <time>2016-07-26T09:58:06Z</time>
      </trkpt>
      <trkpt lat="42.71209" lon="18.34665">
        <ele>277</ele>
        <time>2016-07-26T10:00:06Z</time>
      </trkpt>
      <trkpt lat="42.7121" lon="18.34665">
        <ele>277</ele>
        <time>2016-07-26T10:02:06Z</time>
      </trkpt>
      <trkpt lat="42.71216" lon="18.34663">
        <ele>277</ele>
        <time>2016-07-26T10:04:06Z</time>
      </trkpt>
      <trkpt lat="42.71222" lon="18.34662">
        <ele>278</ele>
        <time>2016-07-26T10:06:06Z</time>
      </trkpt>
      <trkpt lat="42.71229" lon="18.34661">
        <ele>278</ele>
        <time>2016-07-26T10:08:06Z</time>
      </trkpt>
      <trkpt lat="42.71238" lon="18.3466">
        <ele>278</ele>
        <time>2016-07-26T10:10:06Z</time>
      </trkpt>
      <trkpt lat="42.71263" lon="18.34662">
        <ele>279</ele>
        <time>2016-07-26T10:12:06Z</time>
      </trkpt>
      <trkpt lat="42.71273" lon="18.34662">
        <ele>279</ele>
        <time>2016-07-26T10:14:06Z</time>
      </trkpt>
      <trkpt lat="42.7128" lon="18.34662">
        <ele>280</ele>
        <time>2016-07-26T10:16:06Z</time>
      </trkpt>
      <trkpt lat="42.7129" lon="18.34662">
        <ele>280</ele>
        <time>2016-07-26T10:18:06Z</time>
      </trkpt>
      <trkpt lat="42.71347" lon="18.34646">
        <ele>284</ele>
        <time>2016-07-26T10:20:06Z</time>
      </trkpt>
      <trkpt lat="42.71375" lon="18.34638">
        <ele>285</ele>
        <time>2016-07-26T10:22:06Z</time>
      </trkpt>
      <trkpt lat="42.71406" lon="18.34631">
        <ele>286</ele>
        <time>2016-07-26T10:24:06Z</time>
      </trkpt>
      <trkpt lat="42.7142" lon="18.34628">
        <ele>287</ele>
        <time>2016-07-26T10:26:06Z</time>
      </trkpt>
      <trkpt lat="42.71435" lon="18.34627">
        <ele>288</ele>
        <time>2016-07-26T10:28:06Z</time>
      </trkpt>
      <trkpt lat="42.71462" lon="18.34627">
        <ele>289</ele>
        <time>2016-07-26T10:30:06Z</time>
      </trkpt>
      <trkpt lat="42.71467" lon="18.34627">
        <ele>290</ele>
        <time>2016-07-26T10:32:06Z</time>
      </trkpt>
      <trkpt lat="42.71472" lon="18.34627">
        <ele>290</ele>
        <time>2016-07-26T10:34:06Z</time>
      </trkpt>
      <trkpt lat="42.71476" lon="18.34628">
        <ele>290</ele>
        <time>2016-07-26T10:36:06Z</time>
      </trkpt>
      <trkpt lat="42.7148" lon="18.34628">
        <ele>290</ele>
        <time>2016-07-26T10:38:06Z</time>
      </trkpt>
      <trkpt lat="42.71484" lon="18.34629">
        <ele>290</ele>
        <time>2016-07-26T10:40:06Z</time>
      </trkpt>
      <trkpt lat="42.71488" lon="18.3463">
        <ele>290</ele>
        <time>2016-07-26T10:42:06Z</time>
      </trkpt>
      <trkpt lat="42.71489" lon="18.3463">
        <ele>290</ele>
        <time>2016-07-26T10:44:06Z</time>
      </trkpt>
      <trkpt lat="42.71494" lon="18.34631">
        <ele>290</ele>
        <time>2016-07-26T10:46:06Z</time>
      </trkpt>
      <trkpt lat="42.715" lon="18.34633">
        <ele>290</ele>
        <time>2016-07-26T10:48:06Z</time>
      </trkpt>
      <trkpt lat="42.71507" lon="18.34635">
        <ele>290</ele>
        <time>2016-07-26T10:50:06Z</time>
      </trkpt>
      <trkpt lat="42.71514" lon="18.34637">
        <ele>290</ele>
        <time>2016-07-26T10:52:06Z</time>
      </trkpt>
      <trkpt lat="42.71522" lon="18.34639">
        <ele>290</ele>
        <time>2016-07-26T10:54:06Z</time>
      </trkpt>
      <trkpt lat="42.7153" lon="18.34642">
        <ele>290</ele>
        <time>2016-07-26T10:56:06Z</time>
      </trkpt>
      <trkpt lat="42.71538" lon="18.34644">
        <ele>290</ele>
        <time>2016-07-26T10:58:06Z</time>
      </trkpt>
      <trkpt lat="42.71546" lon="18.34647">
        <ele>290</ele>
        <time>2016-07-26T11:00:06Z</time>
      </trkpt>
      <trkpt lat="42.71569" lon="18.34656">
        <ele>289</ele>
        <time>2016-07-26T11:02:06Z</time>
      </trkpt>
      <trkpt lat="42.716" lon="18.34669">
        <ele>290</ele>
        <time>2016-07-26T11:04:06Z</time>
      </trkpt>
      <trkpt lat="42.71603" lon="18.34671">
        <ele>291</ele>
        <time>2016-07-26T11:06:06Z</time>
      </trkpt>
      <trkpt lat="42.71606" lon="18.34672">
        <ele>291</ele>
        <time>2016-07-26T11:08:06Z</time>
      </trkpt>
      <trkpt lat="42.71609" lon="18.34674">
        <ele>291</ele>
        <time>2016-07-26T11:10:06Z</time>
      </trkpt>
      <trkpt lat="42.71612" lon="18.34676">
        <ele>292</ele>
        <time>2016-07-26T11:12:06Z</time>
      </trkpt>
      <trkpt lat="42.71615" lon="18.34678">
        <ele>292</ele>
        <time>2016-07-26T11:14:06Z</time>
      </trkpt>
      <trkpt lat="42.71619" lon="18.3468">
        <ele>292</ele>
        <time>2016-07-26T11:16:06Z</time>
      </trkpt>
      <trkpt lat="42.71622" lon="18.34683">
        <ele>292</ele>
        <time>2016-07-26T11:18:06Z</time>
      </trkpt>
      <trkpt lat="42.71625" lon="18.34686">
        <ele>292</ele>
        <time>2016-07-26T11:20:06Z</time>
      </trkpt>
      <trkpt lat="42.71628" lon="18.34689">
        <ele>293</ele>
        <time>2016-07-26T11:22:06Z</time>
      </trkpt>
      <trkpt lat="42.71631" lon="18.34692">
        <ele>293</ele>
        <time>2016-07-26T11:24:06Z</time>
      </trkpt>
      <trkpt lat="42.71634" lon="18.34695">
        <ele>293</ele>
        <time>2016-07-26T11:26:06Z</time>
      </trkpt>
      <trkpt lat="42.71637" lon="18.34698">
        <ele>293</ele>
        <time>2016-07-26T11:28:06Z</time>
      </trkpt>
      <trkpt lat="42.71639" lon="18.34701">
        <ele>293</ele>
        <time>2016-07-26T11:30:06Z</time>
      </trkpt>
      <trkpt lat="42.71642" lon="18.34705">
        <ele>293</ele>
        <time>2016-07-26T11:32:06Z</time>
      </trkpt>
      <trkpt lat="42.71645" lon="18.3471">
        <ele>293</ele>
        <time>2016-07-26T11:34:06Z</time>
      </trkpt>
      <trkpt lat="42.71647" lon="18.34714">
        <ele>292</ele>
        <time>2016-07-26T11:36:06Z</time>
      </trkpt>
      <trkpt lat="42.7165" lon="18.34719">
        <ele>292</ele>
        <time>2016-07-26T11:38:06Z</time>
      </trkpt>
      <trkpt lat="42.71652" lon="18.34724">
        <ele>292</ele>
        <time>2016-07-26T11:40:06Z</time>
      </trkpt>
      <trkpt lat="42.71655" lon="18.34729">
        <ele>292</ele>
        <time>2016-07-26T11:42:06Z</time>
      </trkpt>
      <trkpt lat="42.71657" lon="18.34734">
        <ele>291</ele>
        <time>2016-07-26T11:44:06Z</time>
      </trkpt>
      <trkpt lat="42.71659" lon="18.34739">
        <ele>291</ele>
        <time>2016-07-26T11:46:06Z</time>
      </trkpt>
      <trkpt lat="42.71661" lon="18.34744">
        <ele>291</ele>
        <time>2016-07-26T11:48:06Z</time>
      </trkpt>
      <trkpt lat="42.71663" lon="18.34749">
        <ele>291</ele>
        <time>2016-07-26T11:50:06Z</time>
      </trkpt>
      <trkpt lat="42.71664" lon="18.34755">
        <ele>290</ele>
        <time>2016-07-26T11:52:06Z</time>
      </trkpt>
      <trkpt lat="42.71666" lon="18.3476">
        <ele>290</ele>
        <time>2016-07-26T11:54:06Z</time>
      </trkpt>
      <trkpt lat="42.71668" lon="18.34766">
        <ele>290</ele>
        <time>2016-07-26T11:56:06Z</time>
      </trkpt>
      <trkpt lat="42.71669" lon="18.34771">
        <ele>290</ele>
        <time>2016-07-26T11:58:06Z</time>
      </trkpt>
      <trkpt lat="42.71671" lon="18.34777">
        <ele>291</ele>
        <time>2016-07-26T12:00:06Z</time>
      </trkpt>
      <trkpt lat="42.71672" lon="18.34784">
        <ele>291</ele>
        <time>2016-07-26T12:02:06Z</time>
      </trkpt>
      <trkpt lat="42.71674" lon="18.3479">
        <ele>291</ele>
        <time>2016-07-26T12:04:06Z</time>
      </trkpt>
      <trkpt lat="42.71675" lon="18.34796">
        <ele>291</ele>
        <time>2016-07-26T12:06:06Z</time>
      </trkpt>
      <trkpt lat="42.71676" lon="18.34803">
        <ele>291</ele>
        <time>2016-07-26T12:08:06Z</time>
      </trkpt>
      <trkpt lat="42.71678" lon="18.34809">
        <ele>291</ele>
        <time>2016-07-26T12:10:06Z</time>
      </trkpt>
      <trkpt lat="42.71679" lon="18.34816">
        <ele>291</ele>
        <time>2016-07-26T12:12:06Z</time>
      </trkpt>
      <trkpt lat="42.7168" lon="18.34823">
        <ele>291</ele>
        <time>2016-07-26T12:14:06Z</time>
      </trkpt>
      <trkpt lat="42.71681" lon="18.3483">
        <ele>290</ele>
        <time>2016-07-26T12:16:06Z</time>
      </trkpt>
      <trkpt lat="42.71682" lon="18.34837">
        <ele>290</ele>
        <time>2016-07-26T12:18:06Z</time>
      </trkpt>
      <trkpt lat="42.71682" lon="18.34844">
        <ele>290</ele>
        <time>2016-07-26T12:20:06Z</time>
      </trkpt>
      <trkpt lat="42.71685" lon="18.34863">
        <ele>290</ele>
        <time>2016-07-26T12:22:06Z</time>
      </trkpt>
      <trkpt lat="42.71694" lon="18.35024">
        <ele>286</ele>
        <time>2016-07-26T12:24:06Z</time>
      </trkpt>
      <trkpt lat="42.71698" lon="18.35068">
        <ele>285</ele>
        <time>2016-07-26T12:26:06Z</time>
      </trkpt>
      <trkpt lat="42.71701" lon="18.35089">
        <ele>285</ele>
        <time>2016-07-26T12:28:06Z</time>
      </trkpt>
      <trkpt lat="42.71703" lon="18.35102">
        <ele>285</ele>
        <time>2016-07-26T12:30:06Z</time>
      </trkpt>
      <trkpt lat="42.71704" lon="18.35107">
        <ele>286</ele>
        <time>2016-07-26T12:32:06Z</time>
      </trkpt>
      <trkpt lat="42.71706" lon="18.35113">
        <ele>286</ele>
        <time>2016-07-26T12:34:06Z</time>
      </trkpt>
      <trkpt lat="42.71707" lon="18.35118">
        <ele>286</ele>
        <time>2016-07-26T12:36:06Z</time>
      </trkpt>
      <trkpt lat="42.71709" lon="18.35124">
        <ele>286</ele>
        <time>2016-07-26T12:38:06Z</time>
      </trkpt>
      <trkpt lat="42.71711" lon="18.35129">
        <ele>286</ele>
        <time>2016-07-26T12:40:06Z</time>
      </trkpt>
      <trkpt lat="42.71712" lon="18.35134">
        <ele>287</ele>
        <time>2016-07-26T12:42:06Z</time>
      </trkpt>
      <trkpt lat="42.71714" lon="18.3514">
        <ele>287</ele>
        <time>2016-07-26T12:44:06Z</time>
      </trkpt>
      <trkpt lat="42.71723" lon="18.3516">
        <ele>287</ele>
        <time>2016-07-26T12:46:06Z</time>
      </trkpt>
      <trkpt lat="42.71745" lon="18.35192">
        <ele>288</ele>
        <time>2016-07-26T12:48:06Z</time>
      </trkpt>
      <trkpt lat="42.71745" lon="18.35192">
        <ele>288</ele>
        <time>2016-07-26T12:50:06Z</time>
      </trkpt>
      <trkpt lat="42.71749" lon="18.35198">
        <ele>288</ele>
        <time>2016-07-26T12:52:06Z</time>
      </trkpt>
      <trkpt lat="42.71752" lon="18.35203">
        <ele>288</ele>
        <time>2016-07-26T12:54:06Z</time>
      </trkpt>
      <trkpt lat="42.71756" lon="18.35209">
        <ele>288</ele>
        <time>2016-07-26T12:56:06Z</time>
      </trkpt>
      <trkpt lat="42.71759" lon="18.35215">
        <ele>288</ele>
        <time>2016-07-26T12:58:06Z</time>
      </trkpt>
      <trkpt lat="42.71763" lon="18.35222">
        <ele>288</ele>
        <time>2016-07-26T13:00:06Z</time>
      </trkpt>
      <trkpt lat="42.71766" lon="18.35228">
        <ele>289</ele>
        <time>2016-07-26T13:02:06Z</time>
      </trkpt>
      <trkpt lat="42.71769" lon="18.35234">
        <ele>289</ele>
        <time>2016-07-26T13:04:06Z</time>
      </trkpt>
      <trkpt lat="42.71772" lon="18.35241">
        <ele>289</ele>
        <time>2016-07-26T13:06:06Z</time>
      </trkpt>
      <trkpt lat="42.71774" lon="18.35247">
        <ele>289</ele>
        <time>2016-07-26T13:08:06Z</time>
      </trkpt>
      <trkpt lat="42.71777" lon="18.35254">
        <ele>289</ele>
        <time>2016-07-26T13:10:06Z</time>
      </trkpt>
      <trkpt lat="42.7178" lon="18.35261">
        <ele>289</ele>
        <time>2016-07-26T13:12:06Z</time>
      </trkpt>
      <trkpt lat="42.71782" lon="18.35268">
        <ele>289</ele>
        <time>2016-07-26T13:14:06Z</time>
      </trkpt>
      <trkpt lat="42.71784" lon="18.35274">
        <ele>289</ele>
        <time>2016-07-26T13:16:06Z</time>
      </trkpt>
      <trkpt lat="42.71786" lon="18.3528">
        <ele>289</ele>
        <time>2016-07-26T13:18:06Z</time>
      </trkpt>
      <trkpt lat="42.71788" lon="18.35286">
        <ele>289</ele>
        <time>2016-07-26T13:20:06Z</time>
      </trkpt>
      <trkpt lat="42.71789" lon="18.35292">
        <ele>289</ele>
        <time>2016-07-26T13:22:06Z</time>
      </trkpt>
      <trkpt lat="42.71791" lon="18.35298">
        <ele>289</ele>
        <time>2016-07-26T13:24:06Z</time>
      </trkpt>
      <trkpt lat="42.71792" lon="18.35304">
        <ele>289</ele>
        <time>2016-07-26T13:26:06Z</time>
      </trkpt>
      <trkpt lat="42.71793" lon="18.35311">
        <ele>288</ele>
        <time>2016-07-26T13:28:06Z</time>
      </trkpt>
      <trkpt lat="42.71794" lon="18.35314">
        <ele>288</ele>
        <time>2016-07-26T13:30:06Z</time>
      </trkpt>
      <trkpt lat="42.71794" lon="18.35317">
        <ele>288</ele>
        <time>2016-07-26T13:32:06Z</time>
      </trkpt>
      <trkpt lat="42.71795" lon="18.35323">
        <ele>288</ele>
        <time>2016-07-26T13:34:06Z</time>
      </trkpt>
      <trkpt lat="42.71795" lon="18.35329">
        <ele>288</ele>
        <time>2016-07-26T13:36:06Z</time>
      </trkpt>
      <trkpt lat="42.71796" lon="18.35336">
        <ele>288</ele>
        <time>2016-07-26T13:38:06Z</time>
      </trkpt>
      <trkpt lat="42.71797" lon="18.35348">
        <ele>288</ele>
        <time>2016-07-26T13:40:06Z</time>
      </trkpt>
      <trkpt lat="42.71812" lon="18.35464">
        <ele>289</ele>
        <time>2016-07-26T13:42:06Z</time>
      </trkpt>
      <trkpt lat="42.71828" lon="18.35593">
        <ele>289</ele>
        <time>2016-07-26T13:44:06Z</time>
      </trkpt>
      <trkpt lat="42.71856" lon="18.35759">
        <ele>290</ele>
        <time>2016-07-26T13:46:06Z</time>
      </trkpt>
      <trkpt lat="42.71873" lon="18.35861">
        <ele>292</ele>
        <time>2016-07-26T13:48:06Z</time>
      </trkpt>
      <trkpt lat="42.71879" lon="18.35893">
        <ele>292</ele>
        <time>2016-07-26T13:50:06Z</time>
      </trkpt>
      <trkpt lat="42.71922" lon="18.36146">
        <ele>290</ele>
        <time>2016-07-26T13:52:06Z</time>
      </trkpt>
      <trkpt lat="42.71928" lon="18.36176">
        <ele>291</ele>
        <time>2016-07-26T13:54:06Z</time>
      </trkpt>
      <trkpt lat="42.71931" lon="18.36197">
        <ele>291</ele>
        <time>2016-07-26T13:56:06Z</time>
      </trkpt>
      <trkpt lat="42.71953" lon="18.36318">
        <ele>293</ele>
        <time>2016-07-26T13:58:06Z</time>
      </trkpt>
      <trkpt lat="42.71954" lon="18.36328">
        <ele>293</ele>
        <time>2016-07-26T14:00:06Z</time>
      </trkpt>
      <trkpt lat="42.71967" lon="18.36415">
        <ele>295</ele>
        <time>2016-07-26T14:02:06Z</time>
      </trkpt>
      <trkpt lat="42.71968" lon="18.36422">
        <ele>295</ele>
        <time>2016-07-26T14:04:06Z</time>
      </trkpt>
      <trkpt lat="42.71969" lon="18.36429">
        <ele>294</ele>
        <time>2016-07-26T14:06:06Z</time>
      </trkpt>
      <trkpt lat="42.71969" lon="18.36436">
        <ele>294</ele>
        <time>2016-07-26T14:08:06Z</time>
      </trkpt>
      <trkpt lat="42.7197" lon="18.36443">
        <ele>294</ele>
        <time>2016-07-26T14:10:06Z</time>
      </trkpt>
      <trkpt lat="42.7197" lon="18.3645">
        <ele>294</ele>
        <time>2016-07-26T14:12:06Z</time>
      </trkpt>
      <trkpt lat="42.7197" lon="18.36458">
        <ele>294</ele>
        <time>2016-07-26T14:14:06Z</time>
      </trkpt>
      <trkpt lat="42.7197" lon="18.36465">
        <ele>294</ele>
        <time>2016-07-26T14:16:06Z</time>
      </trkpt>
      <trkpt lat="42.71969" lon="18.36472">
        <ele>294</ele>
        <time>2016-07-26T14:18:06Z</time>
      </trkpt>
      <trkpt lat="42.71969" lon="18.36479">
        <ele>293</ele>
        <time>2016-07-26T14:20:06Z</time>
      </trkpt>
      <trkpt lat="42.71968" lon="18.36486">
        <ele>293</ele>
        <time>2016-07-26T14:22:06Z</time>
      </trkpt>
      <trkpt lat="42.71968" lon="18.36493">
        <ele>293</ele>
        <time>2016-07-26T14:24:06Z</time>
      </trkpt>
      <trkpt lat="42.71967" lon="18.36501">
        <ele>293</ele>
        <time>2016-07-26T14:26:06Z</time>
      </trkpt>
      <trkpt lat="42.71966" lon="18.36508">
        <ele>293</ele>
        <time>2016-07-26T14:28:06Z</time>
      </trkpt>
      <trkpt lat="42.71964" lon="18.36515">
        <ele>292</ele>
        <time>2016-07-26T14:30:06Z</time>
      </trkpt>
      <trkpt lat="42.71963" lon="18.36524">
        <ele>292</ele>
        <time>2016-07-26T14:32:06Z</time>
      </trkpt>
      <trkpt lat="42.71961" lon="18.36534">
        <ele>292</ele>
        <time>2016-07-26T14:34:06Z</time>
      </trkpt>
      <trkpt lat="42.71959" lon="18.36543">
        <ele>292</ele>
        <time>2016-07-26T14:36:06Z</time>
      </trkpt>
      <trkpt lat="42.71957" lon="18.36553">
        <ele>292</ele>
        <time>2016-07-26T14:38:06Z</time>
      </trkpt>
      <trkpt lat="42.71955" lon="18.36563">
        <ele>292</ele>
        <time>2016-07-26T14:40:06Z</time>
      </trkpt>
      <trkpt lat="42.71953" lon="18.36572">
        <ele>292</ele>
        <time>2016-07-26T14:42:06Z</time>
      </trkpt>
      <trkpt lat="42.71932" lon="18.36651">
        <ele>292</ele>
        <time>2016-07-26T14:44:06Z</time>
      </trkpt>
      <trkpt lat="42.71913" lon="18.36723">
        <ele>291</ele>
        <time>2016-07-26T14:46:06Z</time>
      </trkpt>
      <trkpt lat="42.71907" lon="18.36755">
        <ele>291</ele>
        <time>2016-07-26T14:48:06Z</time>
      </trkpt>
      <trkpt lat="42.71906" lon="18.3676">
        <ele>291</ele>
        <time>2016-07-26T14:50:06Z</time>
      </trkpt>
      <trkpt lat="42.71906" lon="18.36765">
        <ele>291</ele>
        <time>2016-07-26T14:52:06Z</time>
      </trkpt>
      <trkpt lat="42.71905" lon="18.36771">
        <ele>291</ele>
        <time>2016-07-26T14:54:06Z</time>
      </trkpt>
      <trkpt lat="42.71905" lon="18.36776">
        <ele>292</ele>
        <time>2016-07-26T14:56:06Z</time>
      </trkpt>
      <trkpt lat="42.71905" lon="18.36781">
        <ele>292</ele>
        <time>2016-07-26T14:58:06Z</time>
      </trkpt>
      <trkpt lat="42.71905" lon="18.36787">
        <ele>292</ele>
        <time>2016-07-26T15:00:06Z</time>
      </trkpt>
      <trkpt lat="42.71905" lon="18.36791">
        <ele>292</ele>
        <time>2016-07-26T15:02:06Z</time>
      </trkpt>
      <trkpt lat="42.71905" lon="18.36795">
        <ele>292</ele>
        <time>2016-07-26T15:04:06Z</time>
      </trkpt>
      <trkpt lat="42.71906" lon="18.36798">
        <ele>292</ele>
        <time>2016-07-26T15:06:06Z</time>
      </trkpt>
      <trkpt lat="42.71906" lon="18.3681">
        <ele>292</ele>
        <time>2016-07-26T15:08:06Z</time>
      </trkpt>
      <trkpt lat="42.71922" lon="18.36938">
        <ele>291</ele>
        <time>2016-07-26T15:10:06Z</time>
      </trkpt>
      <trkpt lat="42.71929" lon="18.37">
        <ele>292</ele>
        <time>2016-07-26T15:12:06Z</time>
      </trkpt>
      <trkpt lat="42.71931" lon="18.37018">
        <ele>293</ele>
        <time>2016-07-26T15:14:06Z</time>
      </trkpt>
      <trkpt lat="42.71931" lon="18.37022">
        <ele>293</ele>
        <time>2016-07-26T15:16:06Z</time>
      </trkpt>
      <trkpt lat="42.71931" lon="18.37026">
        <ele>293</ele>
        <time>2016-07-26T15:18:06Z</time>
      </trkpt>
      <trkpt lat="42.71931" lon="18.3703">
        <ele>293</ele>
        <time>2016-07-26T15:20:06Z</time>
      </trkpt>
      <trkpt lat="42.71931" lon="18.37033">
        <ele>293</ele>
        <time>2016-07-26T15:22:06Z</time>
      </trkpt>
      <trkpt lat="42.7193" lon="18.37036">
        <ele>293</ele>
        <time>2016-07-26T15:24:06Z</time>
      </trkpt>
      <trkpt lat="42.7193" lon="18.37039">
        <ele>294</ele>
        <time>2016-07-26T15:26:06Z</time>
      </trkpt>
      <trkpt lat="42.7193" lon="18.37042">
        <ele>294</ele>
        <time>2016-07-26T15:28:06Z</time>
      </trkpt>
      <trkpt lat="42.71929" lon="18.37046">
        <ele>294</ele>
        <time>2016-07-26T15:30:06Z</time>
      </trkpt>
      <trkpt lat="42.71929" lon="18.37049">
        <ele>294</ele>
        <time>2016-07-26T15:32:06Z</time>
      </trkpt>
      <trkpt lat="42.71928" lon="18.37052">
        <ele>294</ele>
        <time>2016-07-26T15:34:06Z</time>
      </trkpt>
      <trkpt lat="42.71928" lon="18.37055">
        <ele>294</ele>
        <time>2016-07-26T15:36:06Z</time>
      </trkpt>
      <trkpt lat="42.71927" lon="18.37058">
        <ele>294</ele>
        <time>2016-07-26T15:38:06Z</time>
      </trkpt>
      <trkpt lat="42.71926" lon="18.37062">
        <ele>294</ele>
        <time>2016-07-26T15:40:06Z</time>
      </trkpt>
      <trkpt lat="42.71926" lon="18.37065">
        <ele>294</ele>
        <time>2016-07-26T15:42:06Z</time>
      </trkpt>
      <trkpt lat="42.71925" lon="18.37068">
        <ele>294</ele>
        <time>2016-07-26T15:44:06Z</time>
      </trkpt>
      <trkpt lat="42.71922" lon="18.37076">
        <ele>294</ele>
        <time>2016-07-26T15:46:06Z</time>
      </trkpt>
      <trkpt lat="42.71921" lon="18.37078">
        <ele>294</ele>
        <time>2016-07-26T15:48:06Z</time>
      </trkpt>
      <trkpt lat="42.71913" lon="18.371">
        <ele>294</ele>
        <time>2016-07-26T15:50:06Z</time>
      </trkpt>
      <trkpt lat="42.71902" lon="18.37126">
        <ele>293</ele>
        <time>2016-07-26T15:52:06Z</time>
      </trkpt>
      <trkpt lat="42.71878" lon="18.37176">
        <ele>292</ele>
        <time>2016-07-26T15:54:06Z</time>
      </trkpt>
      <trkpt lat="42.71852" lon="18.37236">
        <ele>291</ele>
        <time>2016-07-26T15:56:06Z</time>
      </trkpt>
      <trkpt lat="42.71848" lon="18.37245">
        <ele>290</ele>
        <time>2016-07-26T15:58:06Z</time>
      </trkpt>
      <trkpt lat="42.7183" lon="18.37285">
        <ele>288</ele>
        <time>2016-07-26T16:00:06Z</time>
      </trkpt>
      <trkpt lat="42.71825" lon="18.37297">
        <ele>288</ele>
        <time>2016-07-26T16:02:06Z</time>
      </trkpt>
      <trkpt lat="42.71776" lon="18.37406">
        <ele>286</ele>
        <time>2016-07-26T16:04:06Z</time>
      </trkpt>
      <trkpt lat="42.7172" lon="18.37529">
        <ele>285</ele>
        <time>2016-07-26T16:06:06Z</time>
      </trkpt>
      <trkpt lat="42.71683" lon="18.37609">
        <ele>284</ele>
        <time>2016-07-26T16:08:06Z</time>
      </trkpt>
      <trkpt lat="42.71643" lon="18.37697">
        <ele>285</ele>
        <time>2016-07-26T16:10:06Z</time>
      </trkpt>
      <trkpt lat="42.71609" lon="18.37768">
        <ele>285</ele>
        <time>2016-07-26T16:12:06Z</time>
      </trkpt>
      <trkpt lat="42.71595" lon="18.37799">
        <ele>284</ele>
        <time>2016-07-26T16:14:06Z</time>
      </trkpt>
      <trkpt lat="42.71575" lon="18.37844">
        <ele>282</ele>
        <time>2016-07-26T16:16:06Z</time>
      </trkpt>
      <trkpt lat="42.71572" lon="18.37852">
        <ele>283</ele>
        <time>2016-07-26T16:18:06Z</time>
      </trkpt>
      <trkpt lat="42.71568" lon="18.3786">
        <ele>284</ele>
        <time>2016-07-26T16:20:06Z</time>
      </trkpt>
      <trkpt lat="42.71564" lon="18.37869">
        <ele>285</ele>
        <time>2016-07-26T16:22:06Z</time>
      </trkpt>
      <trkpt lat="42.71561" lon="18.37877">
        <ele>286</ele>
        <time>2016-07-26T16:24:06Z</time>
      </trkpt>
      <trkpt lat="42.71557" lon="18.37886">
        <ele>287</ele>
        <time>2016-07-26T16:26:06Z</time>
      </trkpt>
      <trkpt lat="42.71554" lon="18.37895">
        <ele>288</ele>
        <time>2016-07-26T16:28:06Z</time>
      </trkpt>
      <trkpt lat="42.71551" lon="18.37904">
        <ele>288</ele>
        <time>2016-07-26T16:30:06Z</time>
      </trkpt>
      <trkpt lat="42.71548" lon="18.37913">
        <ele>289</ele>
        <time>2016-07-26T16:32:06Z</time>
      </trkpt>
      <trkpt lat="42.71545" lon="18.37922">
        <ele>289</ele>
        <time>2016-07-26T16:34:06Z</time>
      </trkpt>
      <trkpt lat="42.71542" lon="18.37931">
        <ele>289</ele>
        <time>2016-07-26T16:36:06Z</time>
      </trkpt>
      <trkpt lat="42.7154" lon="18.37939">
        <ele>290</ele>
        <time>2016-07-26T16:38:06Z</time>
      </trkpt>
      <trkpt lat="42.71536" lon="18.37951">
        <ele>290</ele>
        <time>2016-07-26T16:40:06Z</time>
      </trkpt>
      <trkpt lat="42.71526" lon="18.37992">
        <ele>291</ele>
        <time>2016-07-26T16:42:06Z</time>
      </trkpt>
      <trkpt lat="42.71519" lon="18.38032">
        <ele>291</ele>
        <time>2016-07-26T16:44:06Z</time>
      </trkpt>
      <trkpt lat="42.71517" lon="18.38042">
        <ele>290</ele>
        <time>2016-07-26T16:46:06Z</time>
      </trkpt>
      <trkpt lat="42.71516" lon="18.38052">
        <ele>290</ele>
        <time>2016-07-26T16:48:06Z</time>
      </trkpt>
      <trkpt lat="42.71514" lon="18.38062">
        <ele>290</ele>
        <time>2016-07-26T16:50:06Z</time>
      </trkpt>
      <trkpt lat="42.71513" lon="18.38072">
        <ele>290</ele>
        <time>2016-07-26T16:52:06Z</time>
      </trkpt>
      <trkpt lat="42.71512" lon="18.38082">
        <ele>289</ele>
        <time>2016-07-26T16:54:06Z</time>
      </trkpt>
      <trkpt lat="42.71504" lon="18.38154">
        <ele>291</ele>
        <time>2016-07-26T16:56:06Z</time>
      </trkpt>
      <trkpt lat="42.71503" lon="18.38162">
        <ele>291</ele>
        <time>2016-07-26T16:58:06Z</time>
      </trkpt>
      <trkpt lat="42.71502" lon="18.38171">
        <ele>292</ele>
        <time>2016-07-26T17:00:06Z</time>
      </trkpt>
      <trkpt lat="42.71501" lon="18.38179">
        <ele>292</ele>
        <time>2016-07-26T17:02:06Z</time>
      </trkpt>
      <trkpt lat="42.71499" lon="18.38187">
        <ele>292</ele>
        <time>2016-07-26T17:04:06Z</time>
      </trkpt>
      <trkpt lat="42.71498" lon="18.38195">
        <ele>293</ele>
        <time>2016-07-26T17:06:06Z</time>
      </trkpt>
      <trkpt lat="42.71496" lon="18.38203">
        <ele>293</ele>
        <time>2016-07-26T17:08:06Z</time>
      </trkpt>
      <trkpt lat="42.71494" lon="18.3821">
        <ele>293</ele>
        <time>2016-07-26T17:10:06Z</time>
      </trkpt>
      <trkpt lat="42.71492" lon="18.38218">
        <ele>293</ele>
        <time>2016-07-26T17:12:06Z</time>
      </trkpt>
      <trkpt lat="42.7149" lon="18.38225">
        <ele>294</ele>
        <time>2016-07-26T17:14:06Z</time>
      </trkpt>
      <trkpt lat="42.71488" lon="18.38233">
        <ele>294</ele>
        <time>2016-07-26T17:16:06Z</time>
      </trkpt>
      <trkpt lat="42.71461" lon="18.38332">
        <ele>295</ele>
        <time>2016-07-26T17:18:06Z</time>
      </trkpt>
      <trkpt lat="42.71436" lon="18.38412">
        <ele>296</ele>
        <time>2016-07-26T17:20:06Z</time>
      </trkpt>
      <trkpt lat="42.71432" lon="18.38417">
        <ele>296</ele>
        <time>2016-07-26T17:22:06Z</time>
      </trkpt>
      <trkpt lat="42.71428" lon="18.38423">
        <ele>295</ele>
        <time>2016-07-26T17:24:06Z</time>
      </trkpt>
      <trkpt lat="42.71424" lon="18.38428">
        <ele>295</ele>
        <time>2016-07-26T17:26:06Z</time>
      </trkpt>
      <trkpt lat="42.7142" lon="18.38434">
        <ele>294</ele>
        <time>2016-07-26T17:28:06Z</time>
      </trkpt>
      <trkpt lat="42.71416" lon="18.38439">
        <ele>293</ele>
        <time>2016-07-26T17:30:06Z</time>
      </trkpt>
      <trkpt lat="42.71411" lon="18.38444">
        <ele>293</ele>
        <time>2016-07-26T17:32:06Z</time>
      </trkpt>
      <trkpt lat="42.71407" lon="18.38448">
        <ele>293</ele>
        <time>2016-07-26T17:34:06Z</time>
      </trkpt>
      <trkpt lat="42.71402" lon="18.38453">
        <ele>293</ele>
        <time>2016-07-26T17:36:06Z</time>
      </trkpt>
      <trkpt lat="42.71397" lon="18.38457">
        <ele>293</ele>
        <time>2016-07-26T17:38:06Z</time>
      </trkpt>
      <trkpt lat="42.71393" lon="18.38461">
        <ele>292</ele>
        <time>2016-07-26T17:40:06Z</time>
      </trkpt>
      <trkpt lat="42.71388" lon="18.38465">
        <ele>292</ele>
        <time>2016-07-26T17:42:06Z</time>
      </trkpt>
      <trkpt lat="42.71313" lon="18.38529">
        <ele>294</ele>
        <time>2016-07-26T17:44:06Z</time>
      </trkpt>
      <trkpt lat="42.71304" lon="18.38535">
        <ele>294</ele>
        <time>2016-07-26T17:46:06Z</time>
      </trkpt>
      <trkpt lat="42.71296" lon="18.38541">
        <ele>294</ele>
        <time>2016-07-26T17:48:06Z</time>
      </trkpt>
      <trkpt lat="42.71287" lon="18.38546">
        <ele>294</ele>
        <time>2016-07-26T17:50:06Z</time>
      </trkpt>
      <trkpt lat="42.71279" lon="18.38551">
        <ele>294</ele>
        <time>2016-07-26T17:52:06Z</time>
      </trkpt>
      <trkpt lat="42.7127" lon="18.38556">
        <ele>293</ele>
        <time>2016-07-26T17:54:06Z</time>
      </trkpt>
      <trkpt lat="42.71261" lon="18.3856">
        <ele>293</ele>
        <time>2016-07-26T17:56:06Z</time>
      </trkpt>
      <trkpt lat="42.71252" lon="18.38564">
        <ele>292</ele>
        <time>2016-07-26T17:58:06Z</time>
      </trkpt>
      <trkpt lat="42.71245" lon="18.38567">
        <ele>292</ele>
        <time>2016-07-26T18:00:06Z</time>
      </trkpt>
      <trkpt lat="42.71237" lon="18.3857">
        <ele>292</ele>
        <time>2016-07-26T18:02:06Z</time>
      </trkpt>
      <trkpt lat="42.71176" lon="18.38582">
        <ele>294</ele>
        <time>2016-07-26T18:04:06Z</time>
      </trkpt>
      <trkpt lat="42.7117" lon="18.38584">
        <ele>294</ele>
        <time>2016-07-26T18:06:06Z</time>
      </trkpt>
      <trkpt lat="42.71165" lon="18.38587">
        <ele>294</ele>
        <time>2016-07-26T18:08:06Z</time>
      </trkpt>
      <trkpt lat="42.71159" lon="18.3859">
        <ele>294</ele>
        <time>2016-07-26T18:10:06Z</time>
      </trkpt>
      <trkpt lat="42.71154" lon="18.38593">
        <ele>294</ele>
        <time>2016-07-26T18:12:06Z</time>
      </trkpt>
      <trkpt lat="42.71149" lon="18.38596">
        <ele>294</ele>
        <time>2016-07-26T18:14:06Z</time>
      </trkpt>
      <trkpt lat="42.71144" lon="18.386">
        <ele>295</ele>
        <time>2016-07-26T18:16:06Z</time>
      </trkpt>
      <trkpt lat="42.71139" lon="18.38605">
        <ele>295</ele>
        <time>2016-07-26T18:18:06Z</time>
      </trkpt>
      <trkpt lat="42.71134" lon="18.38609">
        <ele>295</ele>
        <time>2016-07-26T18:20:06Z</time>
      </trkpt>
      <trkpt lat="42.71129" lon="18.38614">
        <ele>295</ele>
        <time>2016-07-26T18:22:06Z</time>
      </trkpt>
      <trkpt lat="42.71125" lon="18.3862">
        <ele>295</ele>
        <time>2016-07-26T18:24:06Z</time>
      </trkpt>
      <trkpt lat="42.71093" lon="18.38682">
        <ele>298</ele>
        <time>2016-07-26T18:26:06Z</time>
      </trkpt>
      <trkpt lat="42.71088" lon="18.38692">
        <ele>298</ele>
        <time>2016-07-26T18:28:06Z</time>
      </trkpt>
      <trkpt lat="42.71062" lon="18.38743">
        <ele>301</ele>
        <time>2016-07-26T18:30:06Z</time>
      </trkpt>
      <trkpt lat="42.71024" lon="18.3882">
        <ele>302</ele>
        <time>2016-07-26T18:32:06Z</time>
      </trkpt>
      <trkpt lat="42.71021" lon="18.38826">
        <ele>302</ele>
        <time>2016-07-26T18:34:06Z</time>
      </trkpt>
      <trkpt lat="42.71017" lon="18.38833">
        <ele>303</ele>
        <time>2016-07-26T18:36:06Z</time>
      </trkpt>
      <trkpt lat="42.71014" lon="18.38839">
        <ele>303</ele>
        <time>2016-07-26T18:38:06Z</time>
      </trkpt>
      <trkpt lat="42.7101" lon="18.38845">
        <ele>303</ele>
        <time>2016-07-26T18:40:06Z</time>
      </trkpt>
      <trkpt lat="42.71006" lon="18.38851">
        <ele>303</ele>
        <time>2016-07-26T18:42:06Z</time>
      </trkpt>
      <trkpt lat="42.71002" lon="18.38857">
        <ele>303</ele>
        <time>2016-07-26T18:44:06Z</time>
      </trkpt>
      <trkpt lat="42.70999" lon="18.38863">
        <ele>303</ele>
        <time>2016-07-26T18:46:06Z</time>
      </trkpt>
      <trkpt lat="42.70995" lon="18.38868">
        <ele>303</ele>
        <time>2016-07-26T18:48:06Z</time>
      </trkpt>
      <trkpt lat="42.70991" lon="18.38874">
        <ele>302</ele>
        <time>2016-07-26T18:50:06Z</time>
      </trkpt>
      <trkpt lat="42.70987" lon="18.38879">
        <ele>302</ele>
        <time>2016-07-26T18:52:06Z</time>
      </trkpt>
      <trkpt lat="42.70983" lon="18.38884">
        <ele>302</ele>
        <time>2016-07-26T18:54:06Z</time>
      </trkpt>
      <trkpt lat="42.7094" lon="18.38938">
        <ele>304</ele>
        <time>2016-07-26T18:56:06Z</time>
      </trkpt>
      <trkpt lat="42.7088" lon="18.39017">
        <ele>307</ele>
        <time>2016-07-26T18:58:06Z</time>
      </trkpt>
      <trkpt lat="42.70843" lon="18.39063">
        <ele>308</ele>
        <time>2016-07-26T19:00:06Z</time>
      </trkpt>
      <trkpt lat="42.70835" lon="18.39074">
        <ele>307</ele>
        <time>2016-07-26T19:02:06Z</time>
      </trkpt>
      <trkpt lat="42.70832" lon="18.39077">
        <ele>307</ele>
        <time>2016-07-26T19:04:06Z</time>
      </trkpt>
      <trkpt lat="42.70829" lon="18.39081">
        <ele>307</ele>
        <time>2016-07-26T19:06:06Z</time>
      </trkpt>
      <trkpt lat="42.70826" lon="18.39084">
        <ele>307</ele>
        <time>2016-07-26T19:08:06Z</time>
      </trkpt>
      <trkpt lat="42.70823" lon="18.39088">
        <ele>307</ele>
        <time>2016-07-26T19:10:06Z</time>
      </trkpt>
      <trkpt lat="42.70819" lon="18.39091">
        <ele>307</ele>
        <time>2016-07-26T19:12:06Z</time>
      </trkpt>
      <trkpt lat="42.70816" lon="18.39094">
        <ele>307</ele>
        <time>2016-07-26T19:14:06Z</time>
      </trkpt>
      <trkpt lat="42.70813" lon="18.39096">
        <ele>307</ele>
        <time>2016-07-26T19:16:06Z</time>
      </trkpt>
      <trkpt lat="42.7081" lon="18.39099">
        <ele>307</ele>
        <time>2016-07-26T19:18:06Z</time>
      </trkpt>
      <trkpt lat="42.70807" lon="18.39101">
        <ele>307</ele>
        <time>2016-07-26T19:20:06Z</time>
      </trkpt>
      <trkpt lat="42.70735" lon="18.39153">
        <ele>301</ele>
        <time>2016-07-26T19:22:06Z</time>
      </trkpt>
      <trkpt lat="42.70699" lon="18.3918">
        <ele>302</ele>
        <time>2016-07-26T19:24:06Z</time>
      </trkpt>
      <trkpt lat="42.70696" lon="18.39183">
        <ele>302</ele>
        <time>2016-07-26T19:26:06Z</time>
      </trkpt>
      <trkpt lat="42.70693" lon="18.39186">
        <ele>302</ele>
        <time>2016-07-26T19:28:06Z</time>
      </trkpt>
      <trkpt lat="42.7069" lon="18.39189">
        <ele>302</ele>
        <time>2016-07-26T19:30:06Z</time>
      </trkpt>
      <trkpt lat="42.70687" lon="18.39193">
        <ele>302</ele>
        <time>2016-07-26T19:32:06Z</time>
      </trkpt>
      <trkpt lat="42.70684" lon="18.39196">
        <ele>302</ele>
        <time>2016-07-26T19:34:06Z</time>
      </trkpt>
      <trkpt lat="42.70681" lon="18.392">
        <ele>302</ele>
        <time>2016-07-26T19:36:06Z</time>
      </trkpt>
      <trkpt lat="42.70678" lon="18.39204">
        <ele>302</ele>
        <time>2016-07-26T19:38:06Z</time>
      </trkpt>
      <trkpt lat="42.70675" lon="18.39208">
        <ele>302</ele>
        <time>2016-07-26T19:40:06Z</time>
      </trkpt>
      <trkpt lat="42.70673" lon="18.39212">
        <ele>302</ele>
        <time>2016-07-26T19:42:06Z</time>
      </trkpt>
      <trkpt lat="42.70671" lon="18.39216">
        <ele>302</ele>
        <time>2016-07-26T19:44:06Z</time>
      </trkpt>
      <trkpt lat="42.70668" lon="18.3922">
        <ele>302</ele>
        <time>2016-07-26T19:46:06Z</time>
      </trkpt>
      <trkpt lat="42.70667" lon="18.39224">
        <ele>302</ele>
        <time>2016-07-26T19:48:06Z</time>
      </trkpt>
      <trkpt lat="42.70666" lon="18.39229">
        <ele>302</ele>
        <time>2016-07-26T19:50:06Z</time>
      </trkpt>
      <trkpt lat="42.70664" lon="18.39233">
        <ele>302</ele>
        <time>2016-07-26T19:52:06Z</time>
      </trkpt>
      <trkpt lat="42.70663" lon="18.39238">
        <ele>301</ele>
        <time>2016-07-26T19:54:06Z</time>
      </trkpt>
      <trkpt lat="42.70662" lon="18.39243">
        <ele>301</ele>
        <time>2016-07-26T19:56:06Z</time>
      </trkpt>
      <trkpt lat="42.70661" lon="18.39248">
        <ele>301</ele>
        <time>2016-07-26T19:58:06Z</time>
      </trkpt>
      <trkpt lat="42.70661" lon="18.39252">
        <ele>301</ele>
        <time>2016-07-26T20:00:06Z</time>
      </trkpt>
      <trkpt lat="42.7066" lon="18.39256">
        <ele>301</ele>
        <time>2016-07-26T20:02:06Z</time>
      </trkpt>
      <trkpt lat="42.7066" lon="18.39261">
        <ele>301</ele>
        <time>2016-07-26T20:04:06Z</time>
      </trkpt>
      <trkpt lat="42.7066" lon="18.39264">
        <ele>301</ele>
        <time>2016-07-26T20:06:06Z</time>
      </trkpt>
      <trkpt lat="42.7066" lon="18.39265">
        <ele>301</ele>
        <time>2016-07-26T20:08:06Z</time>
      </trkpt>
      <trkpt lat="42.70659" lon="18.39269">
        <ele>301</ele>
        <time>2016-07-26T20:10:06Z</time>
      </trkpt>
      <trkpt lat="42.70659" lon="18.39274">
        <ele>301</ele>
        <time>2016-07-26T20:12:06Z</time>
      </trkpt>
      <trkpt lat="42.7066" lon="18.39278">
        <ele>301</ele>
        <time>2016-07-26T20:14:06Z</time>
      </trkpt>
      <trkpt lat="42.70669" lon="18.39356">
        <ele>302</ele>
        <time>2016-07-26T20:16:06Z</time>
      </trkpt>
      <trkpt lat="42.70677" lon="18.3942">
        <ele>301</ele>
        <time>2016-07-26T20:18:06Z</time>
      </trkpt>
      <trkpt lat="42.70682" lon="18.39446">
        <ele>301</ele>
        <time>2016-07-26T20:20:06Z</time>
      </trkpt>
      <trkpt lat="42.70683" lon="18.3945">
        <ele>300</ele>
        <time>2016-07-26T20:22:06Z</time>
      </trkpt>
      <trkpt lat="42.70685" lon="18.39454">
        <ele>300</ele>
        <time>2016-07-26T20:24:06Z</time>
      </trkpt>
      <trkpt lat="42.70686" lon="18.39458">
        <ele>300</ele>
        <time>2016-07-26T20:26:06Z</time>
      </trkpt>
      <trkpt lat="42.70688" lon="18.39461">
        <ele>300</ele>
        <time>2016-07-26T20:28:06Z</time>
      </trkpt>
      <trkpt lat="42.7069" lon="18.39465">
        <ele>300</ele>
        <time>2016-07-26T20:30:06Z</time>
      </trkpt>
      <trkpt lat="42.70692" lon="18.39468">
        <ele>300</ele>
        <time>2016-07-26T20:32:06Z</time>
      </trkpt>
      <trkpt lat="42.70694" lon="18.39471">
        <ele>300</ele>
        <time>2016-07-26T20:34:06Z</time>
      </trkpt>
      <trkpt lat="42.70696" lon="18.39474">
        <ele>300</ele>
        <time>2016-07-26T20:36:06Z</time>
      </trkpt>
      <trkpt lat="42.70699" lon="18.39477">
        <ele>300</ele>
        <time>2016-07-26T20:38:06Z</time>
      </trkpt>
      <trkpt lat="42.70701" lon="18.39479">
        <ele>300</ele>
        <time>2016-07-26T20:40:06Z</time>
      </trkpt>
      <trkpt lat="42.70703" lon="18.39481">
        <ele>300</ele>
        <time>2016-07-26T20:42:06Z</time>
      </trkpt>
      <trkpt lat="42.70705" lon="18.39484">
        <ele>300</ele>
        <time>2016-07-26T20:44:06Z</time>
      </trkpt>
      <trkpt lat="42.70708" lon="18.39486">
        <ele>300</ele>
        <time>2016-07-26T20:46:06Z</time>
      </trkpt>
      <trkpt lat="42.70735" lon="18.39505">
        <ele>301</ele>
        <time>2016-07-26T20:48:06Z</time>
      </trkpt>
      <trkpt lat="42.70737" lon="18.39507">
        <ele>301</ele>
        <time>2016-07-26T20:50:06Z</time>
      </trkpt>
      <trkpt lat="42.70739" lon="18.39509">
        <ele>301</ele>
        <time>2016-07-26T20:52:06Z</time>
      </trkpt>
      <trkpt lat="42.70741" lon="18.39511">
        <ele>301</ele>
        <time>2016-07-26T20:54:06Z</time>
      </trkpt>
      <trkpt lat="42.70743" lon="18.39513">
        <ele>301</ele>
        <time>2016-07-26T20:56:06Z</time>
      </trkpt>
      <trkpt lat="42.70744" lon="18.39516">
        <ele>301</ele>
        <time>2016-07-26T20:58:06Z</time>
      </trkpt>
      <trkpt lat="42.70746" lon="18.39518">
        <ele>301</ele>
        <time>2016-07-26T21:00:06Z</time>
      </trkpt>
      <trkpt lat="42.70748" lon="18.39521">
        <ele>301</ele>
        <time>2016-07-26T21:02:06Z</time>
      </trkpt>
      <trkpt lat="42.70749" lon="18.39524">
        <ele>301</ele>
        <time>2016-07-26T21:04:06Z</time>
      </trkpt>
      <trkpt lat="42.70751" lon="18.39527">
        <ele>301</ele>
        <time>2016-07-26T21:06:06Z</time>
      </trkpt>
      <trkpt lat="42.70752" lon="18.39531">
        <ele>301</ele>
        <time>2016-07-26T21:08:06Z</time>
      </trkpt>
      <trkpt lat="42.70753" lon="18.39534">
        <ele>300</ele>
        <time>2016-07-26T21:10:06Z</time>
      </trkpt>
      <trkpt lat="42.70754" lon="18.39538">
        <ele>300</ele>
        <time>2016-07-26T21:12:06Z</time>
      </trkpt>
      <trkpt lat="42.70755" lon="18.39541">
        <ele>300</ele>
        <time>2016-07-26T21:14:06Z</time>
      </trkpt>
      <trkpt lat="42.70756" lon="18.39545">
        <ele>300</ele>
        <time>2016-07-26T21:16:06Z</time>
      </trkpt>
      <trkpt lat="42.70756" lon="18.39549">
        <ele>300</ele>
        <time>2016-07-26T21:18:06Z</time>
      </trkpt>
      <trkpt lat="42.70757" lon="18.39552">
        <ele>300</ele>
        <time>2016-07-26T21:20:06Z</time>
      </trkpt>
      <trkpt lat="42.70757" lon="18.39556">
        <ele>300</ele>
        <time>2016-07-26T21:22:06Z</time>
      </trkpt>
      <trkpt lat="42.70757" lon="18.3956">
        <ele>299</ele>
        <time>2016-07-26T21:24:06Z</time>
      </trkpt>
      <trkpt lat="42.70762" lon="18.39617">
        <ele>298</ele>
        <time>2016-07-26T21:26:06Z</time>
      </trkpt>
      <trkpt lat="42.70763" lon="18.39621">
        <ele>298</ele>
        <time>2016-07-26T21:28:06Z</time>
      </trkpt>
      <trkpt lat="42.70763" lon="18.39625">
        <ele>298</ele>
        <time>2016-07-26T21:30:06Z</time>
      </trkpt>
      <trkpt lat="42.70764" lon="18.39629">
        <ele>297</ele>
        <time>2016-07-26T21:32:06Z</time>
      </trkpt>
      <trkpt lat="42.70765" lon="18.39633">
        <ele>297</ele>
        <time>2016-07-26T21:34:06Z</time>
      </trkpt>
      <trkpt lat="42.70766" lon="18.39636">
        <ele>297</ele>
        <time>2016-07-26T21:36:06Z</time>
      </trkpt>
      <trkpt lat="42.70767" lon="18.3964">
        <ele>297</ele>
        <time>2016-07-26T21:38:06Z</time>
      </trkpt>
      <trkpt lat="42.70768" lon="18.39644">
        <ele>297</ele>
        <time>2016-07-26T21:40:06Z</time>
      </trkpt>
      <trkpt lat="42.70769" lon="18.39647">
        <ele>297</ele>
        <time>2016-07-26T21:42:06Z</time>
      </trkpt>
      <trkpt lat="42.70771" lon="18.39651">
        <ele>297</ele>
        <time>2016-07-26T21:44:06Z</time>
      </trkpt>
      <trkpt lat="42.70772" lon="18.39654">
        <ele>297</ele>
        <time>2016-07-26T21:46:06Z</time>
      </trkpt>
      <trkpt lat="42.70774" lon="18.39657">
        <ele>297</ele>
        <time>2016-07-26T21:48:06Z</time>
      </trkpt>
      <trkpt lat="42.70776" lon="18.3966">
        <ele>297</ele>
        <time>2016-07-26T21:50:06Z</time>
      </trkpt>
      <trkpt lat="42.70778" lon="18.39663">
        <ele>296</ele>
        <time>2016-07-26T21:52:06Z</time>
      </trkpt>
      <trkpt lat="42.7078" lon="18.39666">
        <ele>296</ele>
        <time>2016-07-26T21:54:06Z</time>
      </trkpt>
      <trkpt lat="42.70782" lon="18.39669">
        <ele>296</ele>
        <time>2016-07-26T21:56:06Z</time>
      </trkpt>
      <trkpt lat="42.70784" lon="18.39672">
        <ele>296</ele>
        <time>2016-07-26T21:58:06Z</time>
      </trkpt>
      <trkpt lat="42.70811" lon="18.3969">
        <ele>296</ele>
        <time>2016-07-26T22:00:06Z</time>
      </trkpt>
      <trkpt lat="42.70813" lon="18.39692">
        <ele>296</ele>
        <time>2016-07-26T22:02:06Z</time>
      </trkpt>
      <trkpt lat="42.70815" lon="18.39694">
        <ele>296</ele>
        <time>2016-07-26T22:04:06Z</time>
      </trkpt>
      <trkpt lat="42.70818" lon="18.39696">
        <ele>296</ele>
        <time>2016-07-26T22:06:06Z</time>
      </trkpt>
      <trkpt lat="42.7082" lon="18.39699">
        <ele>296</ele>
        <time>2016-07-26T22:08:06Z</time>
      </trkpt>
      <trkpt lat="42.70822" lon="18.39701">
        <ele>296</ele>
        <time>2016-07-26T22:10:06Z</time>
      </trkpt>
      <trkpt lat="42.70824" lon="18.39704">
        <ele>296</ele>
        <time>2016-07-26T22:12:06Z</time>
      </trkpt>
      <trkpt lat="42.70826" lon="18.39707">
        <ele>296</ele>
        <time>2016-07-26T22:14:06Z</time>
      </trkpt>
      <trkpt lat="42.70827" lon="18.39709">
        <ele>296</ele>
        <time>2016-07-26T22:16:06Z</time>
      </trkpt>
      <trkpt lat="42.70829" lon="18.39712">
        <ele>296</ele>
        <time>2016-07-26T22:18:06Z</time>
      </trkpt>
      <trkpt lat="42.7083" lon="18.39715">
        <ele>296</ele>
        <time>2016-07-26T22:20:06Z</time>
      </trkpt>
      <trkpt lat="42.70831" lon="18.39718">
        <ele>296</ele>
        <time>2016-07-26T22:22:06Z</time>
      </trkpt>
      <trkpt lat="42.70832" lon="18.39722">
        <ele>296</ele>
        <time>2016-07-26T22:24:06Z</time>
      </trkpt>
      <trkpt lat="42.70833" lon="18.39726">
        <ele>296</ele>
        <time>2016-07-26T22:26:06Z</time>
      </trkpt>
      <trkpt lat="42.70833" lon="18.3973">
        <ele>297</ele>
        <time>2016-07-26T22:28:06Z</time>
      </trkpt>
      <trkpt lat="42.70834" lon="18.39734">
        <ele>297</ele>
        <time>2016-07-26T22:30:06Z</time>
      </trkpt>
      <trkpt lat="42.70834" lon="18.39738">
        <ele>297</ele>
        <time>2016-07-26T22:32:06Z</time>
      </trkpt>
      <trkpt lat="42.70835" lon="18.39742">
        <ele>297</ele>
        <time>2016-07-26T22:34:06Z</time>
      </trkpt>
      <trkpt lat="42.70835" lon="18.39746">
        <ele>297</ele>
        <time>2016-07-26T22:36:06Z</time>
      </trkpt>
      <trkpt lat="42.70835" lon="18.3975">
        <ele>297</ele>
        <time>2016-07-26T22:38:06Z</time>
      </trkpt>
      <trkpt lat="42.70834" lon="18.39755">
        <ele>298</ele>
        <time>2016-07-26T22:40:06Z</time>
      </trkpt>
      <trkpt lat="42.70834" lon="18.39759">
        <ele>298</ele>
        <time>2016-07-26T22:42:06Z</time>
      </trkpt>
      <trkpt lat="42.70834" lon="18.39763">
        <ele>299</ele>
        <time>2016-07-26T22:44:06Z</time>
      </trkpt>
      <trkpt lat="42.70833" lon="18.39767">
        <ele>299</ele>
        <time>2016-07-26T22:46:06Z</time>
      </trkpt>
      <trkpt lat="42.70832" lon="18.3977">
        <ele>299</ele>
        <time>2016-07-26T22:48:06Z</time>
      </trkpt>
      <trkpt lat="42.70831" lon="18.39774">
        <ele>300</ele>
        <time>2016-07-26T22:50:06Z</time>
      </trkpt>
      <trkpt lat="42.70829" lon="18.39777">
        <ele>300</ele>
        <time>2016-07-26T22:52:06Z</time>
      </trkpt>
      <trkpt lat="42.70827" lon="18.3978">
        <ele>300</ele>
        <time>2016-07-26T22:54:06Z</time>
      </trkpt>
      <trkpt lat="42.70826" lon="18.39783">
        <ele>301</ele>
        <time>2016-07-26T22:56:06Z</time>
      </trkpt>
      <trkpt lat="42.70824" lon="18.39786">
        <ele>301</ele>
        <time>2016-07-26T22:58:06Z</time>
      </trkpt>
      <trkpt lat="42.70822" lon="18.3979">
        <ele>301</ele>
        <time>2016-07-26T23:00:06Z</time>
      </trkpt>
      <trkpt lat="42.70819" lon="18.39793">
        <ele>301</ele>
        <time>2016-07-26T23:02:06Z</time>
      </trkpt>
      <trkpt lat="42.70817" lon="18.39796">
        <ele>302</ele>
        <time>2016-07-26T23:04:06Z</time>
      </trkpt>
      <trkpt lat="42.70814" lon="18.39799">
        <ele>302</ele>
        <time>2016-07-26T23:06:06Z</time>
      </trkpt>
      <trkpt lat="42.70812" lon="18.39802">
        <ele>302</ele>
        <time>2016-07-26T23:08:06Z</time>
      </trkpt>
      <trkpt lat="42.70756" lon="18.39858">
        <ele>302</ele>
        <time>2016-07-26T23:10:06Z</time>
      </trkpt>
      <trkpt lat="42.70732" lon="18.39884">
        <ele>302</ele>
        <time>2016-07-26T23:12:06Z</time>
      </trkpt>
      <trkpt lat="42.7073" lon="18.39888">
        <ele>302</ele>
        <time>2016-07-26T23:14:06Z</time>
      </trkpt>
      <trkpt lat="42.70727" lon="18.39891">
        <ele>302</ele>
        <time>2016-07-26T23:16:06Z</time>
      </trkpt>
      <trkpt lat="42.70725" lon="18.39895">
        <ele>302</ele>
        <time>2016-07-26T23:18:06Z</time>
      </trkpt>
      <trkpt lat="42.70723" lon="18.39899">
        <ele>302</ele>
        <time>2016-07-26T23:20:06Z</time>
      </trkpt>
      <trkpt lat="42.70721" lon="18.39903">
        <ele>302</ele>
        <time>2016-07-26T23:22:06Z</time>
      </trkpt>
      <trkpt lat="42.70719" lon="18.39907">
        <ele>302</ele>
        <time>2016-07-26T23:24:06Z</time>
      </trkpt>
      <trkpt lat="42.70717" lon="18.39911">
        <ele>302</ele>
        <time>2016-07-26T23:26:06Z</time>
      </trkpt>
      <trkpt lat="42.70715" lon="18.39915">
        <ele>302</ele>
        <time>2016-07-26T23:28:06Z</time>
      </trkpt>
      <trkpt lat="42.70714" lon="18.39919">
        <ele>302</ele>
        <time>2016-07-26T23:30:06Z</time>
      </trkpt>
      <trkpt lat="42.70712" lon="18.39923">
        <ele>302</ele>
        <time>2016-07-26T23:32:06Z</time>
      </trkpt>
      <trkpt lat="42.70711" lon="18.39928">
        <ele>302</ele>
        <time>2016-07-26T23:34:06Z</time>
      </trkpt>
      <trkpt lat="42.7071" lon="18.39932">
        <ele>303</ele>
        <time>2016-07-26T23:36:06Z</time>
      </trkpt>
      <trkpt lat="42.70708" lon="18.39937">
        <ele>303</ele>
        <time>2016-07-26T23:38:06Z</time>
      </trkpt>
      <trkpt lat="42.70707" lon="18.39941">
        <ele>303</ele>
        <time>2016-07-26T23:40:06Z</time>
      </trkpt>
      <trkpt lat="42.70706" lon="18.39946">
        <ele>303</ele>
        <time>2016-07-26T23:42:06Z</time>
      </trkpt>
      <trkpt lat="42.70704" lon="18.40006">
        <ele>308</ele>
        <time>2016-07-26T23:44:06Z</time>
      </trkpt>
      <trkpt lat="42.70704" lon="18.40016">
        <ele>308</ele>
        <time>2016-07-26T23:46:06Z</time>
      </trkpt>
      <trkpt lat="42.70703" lon="18.40026">
        <ele>308</ele>
        <time>2016-07-26T23:48:06Z</time>
      </trkpt>
      <trkpt lat="42.70702" lon="18.40037">
        <ele>308</ele>
        <time>2016-07-26T23:50:06Z</time>
      </trkpt>
      <trkpt lat="42.70701" lon="18.40047">
        <ele>309</ele>
        <time>2016-07-26T23:52:06Z</time>
      </trkpt>
      <trkpt lat="42.707" lon="18.40057">
        <ele>309</ele>
        <time>2016-07-26T23:54:06Z</time>
      </trkpt>
      <trkpt lat="42.707" lon="18.40066">
        <ele>309</ele>
        <time>2016-07-26T23:56:06Z</time>
      </trkpt>
      <trkpt lat="42.70698" lon="18.40076">
        <ele>309</ele>
        <time>2016-07-26T23:58:06Z</time>
      </trkpt>
      <trkpt lat="42.70697" lon="18.40085">
        <ele>309</ele>
        <time>2016-07-27T00:00:06Z</time>
      </trkpt>
      <trkpt lat="42.70688" lon="18.40177">
        <ele>308</ele>
        <time>2016-07-27T00:02:06Z</time>
      </trkpt>
      <trkpt lat="42.70687" lon="18.40197">
        <ele>308</ele>
        <time>2016-07-27T00:04:06Z</time>
      </trkpt>
      <trkpt lat="42.70686" lon="18.40217">
        <ele>308</ele>
        <time>2016-07-27T00:06:06Z</time>
      </trkpt>
      <trkpt lat="42.70684" lon="18.4025">
        <ele>307</ele>
        <time>2016-07-27T00:08:06Z</time>
      </trkpt>
      <trkpt lat="42.70682" lon="18.40283">
        <ele>306</ele>
        <time>2016-07-27T00:10:06Z</time>
      </trkpt>
      <trkpt lat="42.70681" lon="18.4029">
        <ele>306</ele>
        <time>2016-07-27T00:12:06Z</time>
      </trkpt>
      <trkpt lat="42.70681" lon="18.40297">
        <ele>306</ele>
        <time>2016-07-27T00:14:06Z</time>
      </trkpt>
      <trkpt lat="42.7068" lon="18.40304">
        <ele>305</ele>
        <time>2016-07-27T00:16:06Z</time>
      </trkpt>
      <trkpt lat="42.70679" lon="18.40311">
        <ele>305</ele>
        <time>2016-07-27T00:18:06Z</time>
      </trkpt>
      <trkpt lat="42.70678" lon="18.40318">
        <ele>304</ele>
        <time>2016-07-27T00:20:06Z</time>
      </trkpt>
      <trkpt lat="42.70677" lon="18.40325">
        <ele>303</ele>
        <time>2016-07-27T00:22:06Z</time>
      </trkpt>
      <trkpt lat="42.70676" lon="18.40332">
        <ele>303</ele>
        <time>2016-07-27T00:24:06Z</time>
      </trkpt>
      <trkpt lat="42.70675" lon="18.4034">
        <ele>303</ele>
        <time>2016-07-27T00:26:06Z</time>
      </trkpt>
      <trkpt lat="42.70673" lon="18.40347">
        <ele>303</ele>
        <time>2016-07-27T00:28:06Z</time>
      </trkpt>
      <trkpt lat="42.70671" lon="18.40355">
        <ele>303</ele>
        <time>2016-07-27T00:30:06Z</time>
      </trkpt>
      <trkpt lat="42.70669" lon="18.40363">
        <ele>303</ele>
        <time>2016-07-27T00:32:06Z</time>
      </trkpt>
      <trkpt lat="42.70666" lon="18.40375">
        <ele>303</ele>
        <time>2016-07-27T00:34:06Z</time>
      </trkpt>
      <trkpt lat="42.70663" lon="18.40387">
        <ele>305</ele>
        <time>2016-07-27T00:36:06Z</time>
      </trkpt>
      <trkpt lat="42.70659" lon="18.40399">
        <ele>307</ele>
        <time>2016-07-27T00:38:06Z</time>
      </trkpt>
      <trkpt lat="42.70656" lon="18.40412">
        <ele>308</ele>
        <time>2016-07-27T00:40:06Z</time>
      </trkpt>
      <trkpt lat="42.70652" lon="18.40423">
        <ele>310</ele>
        <time>2016-07-27T00:42:06Z</time>
      </trkpt>
      <trkpt lat="42.70648" lon="18.40435">
        <ele>311</ele>
        <time>2016-07-27T00:44:06Z</time>
      </trkpt>
      <trkpt lat="42.70645" lon="18.40446">
        <ele>312</ele>
        <time>2016-07-27T00:46:06Z</time>
      </trkpt>
      <trkpt lat="42.70641" lon="18.40458">
        <ele>314</ele>
        <time>2016-07-27T00:48:06Z</time>
      </trkpt>
      <trkpt lat="42.70637" lon="18.40469">
        <ele>315</ele>
        <time>2016-07-27T00:50:06Z</time>
      </trkpt>
      <trkpt lat="42.706" lon="18.40571">
        <ele>313</ele>
        <time>2016-07-27T00:52:06Z</time>
      </trkpt>
      <trkpt lat="42.70597" lon="18.40582">
        <ele>311</ele>
        <time>2016-07-27T00:54:06Z</time>
      </trkpt>
      <trkpt lat="42.70594" lon="18.40593">
        <ele>311</ele>
        <time>2016-07-27T00:56:06Z</time>
      </trkpt>
      <trkpt lat="42.70592" lon="18.40603">
        <ele>312</ele>
        <time>2016-07-27T00:58:06Z</time>
      </trkpt>
      <trkpt lat="42.70589" lon="18.40614">
        <ele>312</ele>
        <time>2016-07-27T01:00:06Z</time>
      </trkpt>
      <trkpt lat="42.70587" lon="18.40625">
        <ele>312</ele>
        <time>2016-07-27T01:02:06Z</time>
      </trkpt>
      <trkpt lat="42.70584" lon="18.40637">
        <ele>312</ele>
        <time>2016-07-27T01:04:06Z</time>
      </trkpt>
      <trkpt lat="42.70582" lon="18.40648">
        <ele>313</ele>
        <time>2016-07-27T01:06:06Z</time>
      </trkpt>
      <trkpt lat="42.7058" lon="18.40659">
        <ele>314</ele>
        <time>2016-07-27T01:08:06Z</time>
      </trkpt>
      <trkpt lat="42.70579" lon="18.40667">
        <ele>315</ele>
        <time>2016-07-27T01:10:06Z</time>
      </trkpt>
      <trkpt lat="42.70577" lon="18.40675">
        <ele>315</ele>
        <time>2016-07-27T01:12:06Z</time>
      </trkpt>
      <trkpt lat="42.70576" lon="18.40684">
        <ele>315</ele>
        <time>2016-07-27T01:14:06Z</time>
      </trkpt>
      <trkpt lat="42.70575" lon="18.40692">
        <ele>314</ele>
        <time>2016-07-27T01:16:06Z</time>
      </trkpt>
      <trkpt lat="42.70574" lon="18.407">
        <ele>314</ele>
        <time>2016-07-27T01:18:06Z</time>
      </trkpt>
      <trkpt lat="42.70573" lon="18.40708">
        <ele>314</ele>
        <time>2016-07-27T01:20:06Z</time>
      </trkpt>
      <trkpt lat="42.70572" lon="18.40716">
        <ele>313</ele>
        <time>2016-07-27T01:22:06Z</time>
      </trkpt>
      <trkpt lat="42.70571" lon="18.40723">
        <ele>313</ele>
        <time>2016-07-27T01:24:06Z</time>
      </trkpt>
      <trkpt lat="42.70571" lon="18.40731">
        <ele>313</ele>
        <time>2016-07-27T01:26:06Z</time>
      </trkpt>
      <trkpt lat="42.7057" lon="18.40738">
        <ele>313</ele>
        <time>2016-07-27T01:28:06Z</time>
      </trkpt>
      <trkpt lat="42.70568" lon="18.40847">
        <ele>314</ele>
        <time>2016-07-27T01:30:06Z</time>
      </trkpt>
      <trkpt lat="42.70567" lon="18.40854">
        <ele>314</ele>
        <time>2016-07-27T01:32:06Z</time>
      </trkpt>
      <trkpt lat="42.70567" lon="18.4086">
        <ele>314</ele>
        <time>2016-07-27T01:34:06Z</time>
      </trkpt>
      <trkpt lat="42.70566" lon="18.40867">
        <ele>313</ele>
        <time>2016-07-27T01:36:06Z</time>
      </trkpt>
      <trkpt lat="42.70566" lon="18.40873">
        <ele>313</ele>
        <time>2016-07-27T01:38:06Z</time>
      </trkpt>
      <trkpt lat="42.70565" lon="18.4088">
        <ele>313</ele>
        <time>2016-07-27T01:40:06Z</time>
      </trkpt>
      <trkpt lat="42.70564" lon="18.40886">
        <ele>312</ele>
        <time>2016-07-27T01:42:06Z</time>
      </trkpt>
      <trkpt lat="42.70563" lon="18.40893">
        <ele>312</ele>
        <time>2016-07-27T01:44:06Z</time>
      </trkpt>
      <trkpt lat="42.70562" lon="18.40898">
        <ele>312</ele>
        <time>2016-07-27T01:46:06Z</time>
      </trkpt>
      <trkpt lat="42.70561" lon="18.40904">
        <ele>311</ele>
        <time>2016-07-27T01:48:06Z</time>
      </trkpt>
      <trkpt lat="42.7056" lon="18.40909">
        <ele>311</ele>
        <time>2016-07-27T01:50:06Z</time>
      </trkpt>
      <trkpt lat="42.7054" lon="18.41008">
        <ele>309</ele>
        <time>2016-07-27T01:52:06Z</time>
      </trkpt>
      <trkpt lat="42.70539" lon="18.41017">
        <ele>310</ele>
        <time>2016-07-27T01:54:06Z</time>
      </trkpt>
      <trkpt lat="42.70538" lon="18.41025">
        <ele>310</ele>
        <time>2016-07-27T01:56:06Z</time>
      </trkpt>
      <trkpt lat="42.70537" lon="18.41034">
        <ele>310</ele>
        <time>2016-07-27T01:58:06Z</time>
      </trkpt>
      <trkpt lat="42.70537" lon="18.41042">
        <ele>310</ele>
        <time>2016-07-27T02:00:06Z</time>
      </trkpt>
      <trkpt lat="42.70536" lon="18.41051">
        <ele>310</ele>
        <time>2016-07-27T02:02:06Z</time>
      </trkpt>
      <trkpt lat="42.70536" lon="18.41059">
        <ele>311</ele>
        <time>2016-07-27T02:04:06Z</time>
      </trkpt>
      <trkpt lat="42.70536" lon="18.41068">
        <ele>311</ele>
        <time>2016-07-27T02:06:06Z</time>
      </trkpt>
      <trkpt lat="42.70536" lon="18.41076">
        <ele>312</ele>
        <time>2016-07-27T02:08:06Z</time>
      </trkpt>
      <trkpt lat="42.70536" lon="18.41082">
        <ele>312</ele>
        <time>2016-07-27T02:10:06Z</time>
      </trkpt>
      <trkpt lat="42.70536" lon="18.41087">
        <ele>312</ele>
        <time>2016-07-27T02:12:06Z</time>
      </trkpt>
      <trkpt lat="42.70536" lon="18.41092">
        <ele>313</ele>
        <time>2016-07-27T02:14:06Z</time>
      </trkpt>
      <trkpt lat="42.70536" lon="18.41097">
        <ele>313</ele>
        <time>2016-07-27T02:16:06Z</time>
      </trkpt>
      <trkpt lat="42.70535" lon="18.41102">
        <ele>313</ele>
        <time>2016-07-27T02:18:06Z</time>
      </trkpt>
      <trkpt lat="42.70535" lon="18.41107">
        <ele>313</ele>
        <time>2016-07-27T02:20:06Z</time>
      </trkpt>
      <trkpt lat="42.70534" lon="18.41112">
        <ele>313</ele>
        <time>2016-07-27T02:22:06Z</time>
      </trkpt>
      <trkpt lat="42.70533" lon="18.41117">
        <ele>313</ele>
        <time>2016-07-27T02:24:06Z</time>
      </trkpt>
      <trkpt lat="42.70533" lon="18.41122">
        <ele>313</ele>
        <time>2016-07-27T02:26:06Z</time>
      </trkpt>
      <trkpt lat="42.70532" lon="18.41127">
        <ele>313</ele>
        <time>2016-07-27T02:28:06Z</time>
      </trkpt>
      <trkpt lat="42.7053" lon="18.41131">
        <ele>312</ele>
        <time>2016-07-27T02:30:06Z</time>
      </trkpt>
      <trkpt lat="42.70529" lon="18.41136">
        <ele>312</ele>
        <time>2016-07-27T02:32:06Z</time>
      </trkpt>
      <trkpt lat="42.70528" lon="18.41141">
        <ele>312</ele>
        <time>2016-07-27T02:34:06Z</time>
      </trkpt>
      <trkpt lat="42.70526" lon="18.41145">
        <ele>311</ele>
        <time>2016-07-27T02:36:06Z</time>
      </trkpt>
      <trkpt lat="42.70524" lon="18.4115">
        <ele>311</ele>
        <time>2016-07-27T02:38:06Z</time>
      </trkpt>
      <trkpt lat="42.70523" lon="18.41154">
        <ele>311</ele>
        <time>2016-07-27T02:40:06Z</time>
      </trkpt>
      <trkpt lat="42.70521" lon="18.41159">
        <ele>310</ele>
        <time>2016-07-27T02:42:06Z</time>
      </trkpt>
      <trkpt lat="42.70499" lon="18.41193">
        <ele>310</ele>
        <time>2016-07-27T02:44:06Z</time>
      </trkpt>
      <trkpt lat="42.70495" lon="18.41199">
        <ele>311</ele>
        <time>2016-07-27T02:46:06Z</time>
      </trkpt>
      <trkpt lat="42.70491" lon="18.41206">
        <ele>312</ele>
        <time>2016-07-27T02:48:06Z</time>
      </trkpt>
      <trkpt lat="42.70487" lon="18.41212">
        <ele>314</ele>
        <time>2016-07-27T02:50:06Z</time>
      </trkpt>
      <trkpt lat="42.70484" lon="18.41219">
        <ele>315</ele>
        <time>2016-07-27T02:52:06Z</time>
      </trkpt>
      <trkpt lat="42.7048" lon="18.41227">
        <ele>316</ele>
        <time>2016-07-27T02:54:06Z</time>
      </trkpt>
      <trkpt lat="42.70476" lon="18.41235">
        <ele>318</ele>
        <time>2016-07-27T02:56:06Z</time>
      </trkpt>
      <trkpt lat="42.70472" lon="18.41243">
        <ele>319</ele>
        <time>2016-07-27T02:58:06Z</time>
      </trkpt>
      <trkpt lat="42.70465" lon="18.41257">
        <ele>320</ele>
        <time>2016-07-27T03:00:06Z</time>
      </trkpt>
      <trkpt lat="42.70458" lon="18.41272">
        <ele>321</ele>
        <time>2016-07-27T03:02:06Z</time>
      </trkpt>
      <trkpt lat="42.70451" lon="18.41286">
        <ele>322</ele>
        <time>2016-07-27T03:04:06Z</time>
      </trkpt>
      <trkpt lat="42.70444" lon="18.413">
        <ele>322</ele>
        <time>2016-07-27T03:06:06Z</time>
      </trkpt>
      <trkpt lat="42.70439" lon="18.4131">
        <ele>321</ele>
        <time>2016-07-27T03:08:06Z</time>
      </trkpt>
      <trkpt lat="42.70434" lon="18.4132">
        <ele>321</ele>
        <time>2016-07-27T03:10:06Z</time>
      </trkpt>
      <trkpt lat="42.70431" lon="18.41326">
        <ele>320</ele>
        <time>2016-07-27T03:12:06Z</time>
      </trkpt>
      <trkpt lat="42.70429" lon="18.41333">
        <ele>320</ele>
        <time>2016-07-27T03:14:06Z</time>
      </trkpt>
      <trkpt lat="42.70426" lon="18.41339">
        <ele>319</ele>
        <time>2016-07-27T03:16:06Z</time>
      </trkpt>
      <trkpt lat="42.70423" lon="18.41346">
        <ele>319</ele>
        <time>2016-07-27T03:18:06Z</time>
      </trkpt>
      <trkpt lat="42.70421" lon="18.41352">
        <ele>319</ele>
        <time>2016-07-27T03:20:06Z</time>
      </trkpt>
      <trkpt lat="42.70419" lon="18.41359">
        <ele>318</ele>
        <time>2016-07-27T03:22:06Z</time>
      </trkpt>
      <trkpt lat="42.70416" lon="18.41366">
        <ele>318</ele>
        <time>2016-07-27T03:24:06Z</time>
      </trkpt>
      <trkpt lat="42.70414" lon="18.41373">
        <ele>318</ele>
        <time>2016-07-27T03:26:06Z</time>
      </trkpt>
      <trkpt lat="42.70412" lon="18.4138">
        <ele>318</ele>
        <time>2016-07-27T03:28:06Z</time>
      </trkpt>
      <trkpt lat="42.7041" lon="18.41387">
        <ele>318</ele>
        <time>2016-07-27T03:30:06Z</time>
      </trkpt>
      <trkpt lat="42.70386" lon="18.41505">
        <ele>319</ele>
        <time>2016-07-27T03:32:06Z</time>
      </trkpt>
      <trkpt lat="42.70356" lon="18.41638">
        <ele>322</ele>
        <time>2016-07-27T03:34:06Z</time>
      </trkpt>
      <trkpt lat="42.70354" lon="18.41647">
        <ele>321</ele>
        <time>2016-07-27T03:36:06Z</time>
      </trkpt>
      <trkpt lat="42.70352" lon="18.41655">
        <ele>321</ele>
        <time>2016-07-27T03:38:06Z</time>
      </trkpt>
      <trkpt lat="42.7035" lon="18.41663">
        <ele>321</ele>
        <time>2016-07-27T03:40:06Z</time>
      </trkpt>
      <trkpt lat="42.70347" lon="18.41671">
        <ele>321</ele>
        <time>2016-07-27T03:42:06Z</time>
      </trkpt>
      <trkpt lat="42.70345" lon="18.41679">
        <ele>321</ele>
        <time>2016-07-27T03:44:06Z</time>
      </trkpt>
      <trkpt lat="42.70342" lon="18.41687">
        <ele>321</ele>
        <time>2016-07-27T03:46:06Z</time>
      </trkpt>
      <trkpt lat="42.7034" lon="18.41695">
        <ele>322</ele>
        <time>2016-07-27T03:48:06Z</time>
      </trkpt>
      <trkpt lat="42.70337" lon="18.41703">
        <ele>322</ele>
        <time>2016-07-27T03:50:06Z</time>
      </trkpt>
      <trkpt lat="42.70334" lon="18.4171">
        <ele>322</ele>
        <time>2016-07-27T03:52:06Z</time>
      </trkpt>
      <trkpt lat="42.70332" lon="18.41717">
        <ele>323</ele>
        <time>2016-07-27T03:54:06Z</time>
      </trkpt>
      <trkpt lat="42.70312" lon="18.41766">
        <ele>324</ele>
        <time>2016-07-27T03:56:06Z</time>
      </trkpt>
      <trkpt lat="42.70309" lon="18.41774">
        <ele>324</ele>
        <time>2016-07-27T03:58:06Z</time>
      </trkpt>
      <trkpt lat="42.70307" lon="18.41782">
        <ele>324</ele>
        <time>2016-07-27T04:00:06Z</time>
      </trkpt>
      <trkpt lat="42.70303" lon="18.41797">
        <ele>324</ele>
        <time>2016-07-27T04:02:06Z</time>
      </trkpt>
      <trkpt lat="42.70299" lon="18.41813">
        <ele>325</ele>
        <time>2016-07-27T04:04:06Z</time>
      </trkpt>
      <trkpt lat="42.70295" lon="18.41827">
        <ele>324</ele>
        <time>2016-07-27T04:06:06Z</time>
      </trkpt>
      <trkpt lat="42.70292" lon="18.41841">
        <ele>325</ele>
        <time>2016-07-27T04:08:06Z</time>
      </trkpt>
      <trkpt lat="42.70274" lon="18.41917">
        <ele>325</ele>
        <time>2016-07-27T04:10:06Z</time>
      </trkpt>
      <trkpt lat="42.70271" lon="18.41926">
        <ele>325</ele>
        <time>2016-07-27T04:12:06Z</time>
      </trkpt>
      <trkpt lat="42.70269" lon="18.41935">
        <ele>325</ele>
        <time>2016-07-27T04:14:06Z</time>
      </trkpt>
      <trkpt lat="42.70266" lon="18.41943">
        <ele>325</ele>
        <time>2016-07-27T04:16:06Z</time>
      </trkpt>
      <trkpt lat="42.70264" lon="18.41952">
        <ele>326</ele>
        <time>2016-07-27T04:18:06Z</time>
      </trkpt>
      <trkpt lat="42.70261" lon="18.4196">
        <ele>326</ele>
        <time>2016-07-27T04:20:06Z</time>
      </trkpt>
      <trkpt lat="42.70258" lon="18.41969">
        <ele>326</ele>
        <time>2016-07-27T04:22:06Z</time>
      </trkpt>
      <trkpt lat="42.70255" lon="18.41978">
        <ele>326</ele>
        <time>2016-07-27T04:24:06Z</time>
      </trkpt>
      <trkpt lat="42.70251" lon="18.41987">
        <ele>326</ele>
        <time>2016-07-27T04:26:06Z</time>
      </trkpt>
      <trkpt lat="42.70248" lon="18.41994">
        <ele>326</ele>
        <time>2016-07-27T04:28:06Z</time>
      </trkpt>
      <trkpt lat="42.70245" lon="18.42001">
        <ele>326</ele>
        <time>2016-07-27T04:30:06Z</time>
      </trkpt>
      <trkpt lat="42.70242" lon="18.42008">
        <ele>327</ele>
        <time>2016-07-27T04:32:06Z</time>
      </trkpt>
      <trkpt lat="42.70238" lon="18.42015">
        <ele>327</ele>
        <time>2016-07-27T04:34:06Z</time>
      </trkpt>
      <trkpt lat="42.70234" lon="18.42022">
        <ele>327</ele>
        <time>2016-07-27T04:36:06Z</time>
      </trkpt>
      <trkpt lat="42.70231" lon="18.42029">
        <ele>328</ele>
        <time>2016-07-27T04:38:06Z</time>
      </trkpt>
      <trkpt lat="42.70227" lon="18.42036">
        <ele>328</ele>
        <time>2016-07-27T04:40:06Z</time>
      </trkpt>
      <trkpt lat="42.70222" lon="18.42043">
        <ele>328</ele>
        <time>2016-07-27T04:42:06Z</time>
      </trkpt>
      <trkpt lat="42.70218" lon="18.4205">
        <ele>328</ele>
        <time>2016-07-27T04:44:06Z</time>
      </trkpt>
      <trkpt lat="42.70214" lon="18.42056">
        <ele>327</ele>
        <time>2016-07-27T04:46:06Z</time>
      </trkpt>
      <trkpt lat="42.7021" lon="18.42063">
        <ele>327</ele>
        <time>2016-07-27T04:48:06Z</time>
      </trkpt>
      <trkpt lat="42.70207" lon="18.42069">
        <ele>327</ele>
        <time>2016-07-27T04:50:06Z</time>
      </trkpt>
      <trkpt lat="42.70203" lon="18.42076">
        <ele>327</ele>
        <time>2016-07-27T04:52:06Z</time>
      </trkpt>
      <trkpt lat="42.70199" lon="18.42083">
        <ele>327</ele>
        <time>2016-07-27T04:54:06Z</time>
      </trkpt>
      <trkpt lat="42.70196" lon="18.4209">
        <ele>327</ele>
        <time>2016-07-27T04:56:06Z</time>
      </trkpt>
      <trkpt lat="42.70193" lon="18.42097">
        <ele>327</ele>
        <time>2016-07-27T04:58:06Z</time>
      </trkpt>
      <trkpt lat="42.70189" lon="18.42105">
        <ele>327</ele>
        <time>2016-07-27T05:00:06Z</time>
      </trkpt>
      <trkpt lat="42.70186" lon="18.42113">
        <ele>327</ele>
        <time>2016-07-27T05:02:06Z</time>
      </trkpt>
      <trkpt lat="42.70182" lon="18.42121">
        <ele>327</ele>
        <time>2016-07-27T05:04:06Z</time>
      </trkpt>
      <trkpt lat="42.70179" lon="18.42129">
        <ele>327</ele>
        <time>2016-07-27T05:06:06Z</time>
      </trkpt>
      <trkpt lat="42.70173" lon="18.42145">
        <ele>328</ele>
        <time>2016-07-27T05:08:06Z</time>
      </trkpt>
      <trkpt lat="42.70168" lon="18.42161">
        <ele>329</ele>
        <time>2016-07-27T05:10:06Z</time>
      </trkpt>
      <trkpt lat="42.70162" lon="18.42177">
        <ele>330</ele>
        <time>2016-07-27T05:12:06Z</time>
      </trkpt>
      <trkpt lat="42.70156" lon="18.42193">
        <ele>331</ele>
        <time>2016-07-27T05:14:06Z</time>
      </trkpt>
      <trkpt lat="42.70151" lon="18.42209">
        <ele>331</ele>
        <time>2016-07-27T05:16:06Z</time>
      </trkpt>
      <trkpt lat="42.70146" lon="18.42225">
        <ele>332</ele>
        <time>2016-07-27T05:18:06Z</time>
      </trkpt>
      <trkpt lat="42.70141" lon="18.4224">
        <ele>332</ele>
        <time>2016-07-27T05:20:06Z</time>
      </trkpt>
      <trkpt lat="42.70136" lon="18.42256">
        <ele>333</ele>
        <time>2016-07-27T05:22:06Z</time>
      </trkpt>
      <trkpt lat="42.70109" lon="18.42341">
        <ele>331</ele>
        <time>2016-07-27T05:24:06Z</time>
      </trkpt>
      <trkpt lat="42.70106" lon="18.42356">
        <ele>332</ele>
        <time>2016-07-27T05:26:06Z</time>
      </trkpt>
      <trkpt lat="42.70102" lon="18.42371">
        <ele>332</ele>
        <time>2016-07-27T05:28:06Z</time>
      </trkpt>
      <trkpt lat="42.70099" lon="18.42386">
        <ele>333</ele>
        <time>2016-07-27T05:30:06Z</time>
      </trkpt>
      <trkpt lat="42.70096" lon="18.42402">
        <ele>334</ele>
        <time>2016-07-27T05:32:06Z</time>
      </trkpt>
      <trkpt lat="42.70092" lon="18.42417">
        <ele>333</ele>
        <time>2016-07-27T05:34:06Z</time>
      </trkpt>
      <trkpt lat="42.70089" lon="18.42432">
        <ele>334</ele>
        <time>2016-07-27T05:36:06Z</time>
      </trkpt>
      <trkpt lat="42.70087" lon="18.42447">
        <ele>336</ele>
        <time>2016-07-27T05:38:06Z</time>
      </trkpt>
      <trkpt lat="42.70084" lon="18.42461">
        <ele>337</ele>
        <time>2016-07-27T05:40:06Z</time>
      </trkpt>
      <trkpt lat="42.70082" lon="18.42475">
        <ele>339</ele>
        <time>2016-07-27T05:42:06Z</time>
      </trkpt>
      <trkpt lat="42.70079" lon="18.42489">
        <ele>340</ele>
        <time>2016-07-27T05:44:06Z</time>
      </trkpt>
      <trkpt lat="42.70049" lon="18.42693">
        <ele>342</ele>
        <time>2016-07-27T05:46:06Z</time>
      </trkpt>
      <trkpt lat="42.70047" lon="18.42709">
        <ele>342</ele>
        <time>2016-07-27T05:48:06Z</time>
      </trkpt>
      <trkpt lat="42.70046" lon="18.42725">
        <ele>342</ele>
        <time>2016-07-27T05:50:06Z</time>
      </trkpt>
      <trkpt lat="42.70046" lon="18.42741">
        <ele>343</ele>
        <time>2016-07-27T05:52:06Z</time>
      </trkpt>
      <trkpt lat="42.70045" lon="18.42757">
        <ele>343</ele>
        <time>2016-07-27T05:54:06Z</time>
      </trkpt>
      <trkpt lat="42.70044" lon="18.42773">
        <ele>342</ele>
        <time>2016-07-27T05:56:06Z</time>
      </trkpt>
      <trkpt lat="42.70044" lon="18.42786">
        <ele>341</ele>
        <time>2016-07-27T05:58:06Z</time>
      </trkpt>
      <trkpt lat="42.70044" lon="18.42798">
        <ele>341</ele>
        <time>2016-07-27T06:00:06Z</time>
      </trkpt>
      <trkpt lat="42.70052" lon="18.42994">
        <ele>342</ele>
        <time>2016-07-27T06:02:06Z</time>
      </trkpt>
      <trkpt lat="42.70053" lon="18.43002">
        <ele>343</ele>
        <time>2016-07-27T06:04:06Z</time>
      </trkpt>
      <trkpt lat="42.70054" lon="18.4301">
        <ele>343</ele>
        <time>2016-07-27T06:06:06Z</time>
      </trkpt>
      <trkpt lat="42.70055" lon="18.43017">
        <ele>343</ele>
        <time>2016-07-27T06:08:06Z</time>
      </trkpt>
      <trkpt lat="42.70056" lon="18.43025">
        <ele>342</ele>
        <time>2016-07-27T06:10:06Z</time>
      </trkpt>
      <trkpt lat="42.70058" lon="18.43033">
        <ele>343</ele>
        <time>2016-07-27T06:12:06Z</time>
      </trkpt>
      <trkpt lat="42.70059" lon="18.4304">
        <ele>343</ele>
        <time>2016-07-27T06:14:06Z</time>
      </trkpt>
      <trkpt lat="42.7006" lon="18.43048">
        <ele>343</ele>
        <time>2016-07-27T06:16:06Z</time>
      </trkpt>
      <trkpt lat="42.70062" lon="18.43055">
        <ele>343</ele>
        <time>2016-07-27T06:18:06Z</time>
      </trkpt>
      <trkpt lat="42.70064" lon="18.43062">
        <ele>343</ele>
        <time>2016-07-27T06:20:06Z</time>
      </trkpt>
      <trkpt lat="42.70092" lon="18.43191">
        <ele>359</ele>
        <time>2016-07-27T06:22:06Z</time>
      </trkpt>
      <trkpt lat="42.70114" lon="18.43293">
        <ele>320</ele>
        <time>2016-07-27T06:24:06Z</time>
      </trkpt>
      <trkpt lat="42.70117" lon="18.43303">
        <ele>320</ele>
        <time>2016-07-27T06:26:06Z</time>
      </trkpt>
      <trkpt lat="42.70121" lon="18.43313">
        <ele>320</ele>
        <time>2016-07-27T06:28:06Z</time>
      </trkpt>
      <trkpt lat="42.70124" lon="18.43323">
        <ele>320</ele>
        <time>2016-07-27T06:30:06Z</time>
      </trkpt>
      <trkpt lat="42.70127" lon="18.43332">
        <ele>320</ele>
        <time>2016-07-27T06:32:06Z</time>
      </trkpt>
      <trkpt lat="42.70132" lon="18.43345">
        <ele>313</ele>
        <time>2016-07-27T06:34:06Z</time>
      </trkpt>
      <trkpt lat="42.70137" lon="18.43358">
        <ele>313</ele>
        <time>2016-07-27T06:36:06Z</time>
      </trkpt>
      <trkpt lat="42.7017" lon="18.43441">
        <ele>313</ele>
        <time>2016-07-27T06:38:06Z</time>
      </trkpt>
      <trkpt lat="42.70173" lon="18.43447">
        <ele>313</ele>
        <time>2016-07-27T06:40:06Z</time>
      </trkpt>
      <trkpt lat="42.70176" lon="18.43453">
        <ele>313</ele>
        <time>2016-07-27T06:42:06Z</time>
      </trkpt>
      <trkpt lat="42.70179" lon="18.4346">
        <ele>313</ele>
        <time>2016-07-27T06:44:06Z</time>
      </trkpt>
      <trkpt lat="42.70182" lon="18.43466">
        <ele>313</ele>
        <time>2016-07-27T06:46:06Z</time>
      </trkpt>
      <trkpt lat="42.70186" lon="18.43472">
        <ele>313</ele>
        <time>2016-07-27T06:48:06Z</time>
      </trkpt>
      <trkpt lat="42.70189" lon="18.43478">
        <ele>313</ele>
        <time>2016-07-27T06:50:06Z</time>
      </trkpt>
      <trkpt lat="42.70193" lon="18.43483">
        <ele>313</ele>
        <time>2016-07-27T06:52:06Z</time>
      </trkpt>
      <trkpt lat="42.70196" lon="18.43489">
        <ele>313</ele>
        <time>2016-07-27T06:54:06Z</time>
      </trkpt>
      <trkpt lat="42.702" lon="18.43494">
        <ele>313</ele>
        <time>2016-07-27T06:56:06Z</time>
      </trkpt>
      <trkpt lat="42.70204" lon="18.43499">
        <ele>313</ele>
        <time>2016-07-27T06:58:06Z</time>
      </trkpt>
      <trkpt lat="42.70208" lon="18.43504">
        <ele>322</ele>
        <time>2016-07-27T07:00:06Z</time>
      </trkpt>
      <trkpt lat="42.70212" lon="18.43509">
        <ele>322</ele>
        <time>2016-07-27T07:02:06Z</time>
      </trkpt>
      <trkpt lat="42.70264" lon="18.43561">
        <ele>322</ele>
        <time>2016-07-27T07:04:06Z</time>
      </trkpt>
      <trkpt lat="42.7034" lon="18.43638">
        <ele>322</ele>
        <time>2016-07-27T07:06:06Z</time>
      </trkpt>
      <trkpt lat="42.70347" lon="18.43645">
        <ele>322</ele>
        <time>2016-07-27T07:08:06Z</time>
      </trkpt>
      <trkpt lat="42.70354" lon="18.43651">
        <ele>322</ele>
        <time>2016-07-27T07:10:06Z</time>
      </trkpt>
      <trkpt lat="42.70361" lon="18.43657">
        <ele>322</ele>
        <time>2016-07-27T07:12:06Z</time>
      </trkpt>
      <trkpt lat="42.70368" lon="18.43663">
        <ele>322</ele>
        <time>2016-07-27T07:14:06Z</time>
      </trkpt>
      <trkpt lat="42.70375" lon="18.43669">
        <ele>322</ele>
        <time>2016-07-27T07:16:06Z</time>
      </trkpt>
      <trkpt lat="42.70383" lon="18.43674">
        <ele>322</ele>
        <time>2016-07-27T07:18:06Z</time>
      </trkpt>
      <trkpt lat="42.7039" lon="18.4368">
        <ele>322</ele>
        <time>2016-07-27T07:20:06Z</time>
      </trkpt>
      <trkpt lat="42.70398" lon="18.43685">
        <ele>322</ele>
        <time>2016-07-27T07:22:06Z</time>
      </trkpt>
      <trkpt lat="42.70462" lon="18.43732">
        <ele>322</ele>
        <time>2016-07-27T07:24:06Z</time>
      </trkpt>
      <trkpt lat="42.70469" lon="18.43735">
        <ele>322</ele>
        <time>2016-07-27T07:26:06Z</time>
      </trkpt>
      <trkpt lat="42.70475" lon="18.43739">
        <ele>322</ele>
        <time>2016-07-27T07:28:06Z</time>
      </trkpt>
      <trkpt lat="42.70481" lon="18.43742">
        <ele>322</ele>
        <time>2016-07-27T07:30:06Z</time>
      </trkpt>
      <trkpt lat="42.70488" lon="18.43745">
        <ele>322</ele>
        <time>2016-07-27T07:32:06Z</time>
      </trkpt>
      <trkpt lat="42.70494" lon="18.43748">
        <ele>322</ele>
        <time>2016-07-27T07:34:06Z</time>
      </trkpt>
      <trkpt lat="42.70501" lon="18.4375">
        <ele>322</ele>
        <time>2016-07-27T07:36:06Z</time>
      </trkpt>
      <trkpt lat="42.70507" lon="18.43753">
        <ele>322</ele>
        <time>2016-07-27T07:38:06Z</time>
      </trkpt>
      <trkpt lat="42.70512" lon="18.43754">
        <ele>322</ele>
        <time>2016-07-27T07:40:06Z</time>
      </trkpt>
      <trkpt lat="42.70517" lon="18.43756">
        <ele>322</ele>
        <time>2016-07-27T07:42:06Z</time>
      </trkpt>
      <trkpt lat="42.70522" lon="18.43757">
        <ele>322</ele>
        <time>2016-07-27T07:44:06Z</time>
      </trkpt>
      <trkpt lat="42.70526" lon="18.43759">
        <ele>322</ele>
        <time>2016-07-27T07:46:06Z</time>
      </trkpt>
      <trkpt lat="42.70531" lon="18.43762">
        <ele>322</ele>
        <time>2016-07-27T07:48:06Z</time>
      </trkpt>
      <trkpt lat="42.70536" lon="18.43764">
        <ele>322</ele>
        <time>2016-07-27T07:50:06Z</time>
      </trkpt>
      <trkpt lat="42.7054" lon="18.43767">
        <ele>322</ele>
        <time>2016-07-27T07:52:06Z</time>
      </trkpt>
      <trkpt lat="42.70544" lon="18.43769">
        <ele>322</ele>
        <time>2016-07-27T07:54:06Z</time>
      </trkpt>
      <trkpt lat="42.70549" lon="18.43772">
        <ele>322</ele>
        <time>2016-07-27T07:56:06Z</time>
      </trkpt>
      <trkpt lat="42.70553" lon="18.43776">
        <ele>322</ele>
        <time>2016-07-27T07:58:06Z</time>
      </trkpt>
      <trkpt lat="42.70557" lon="18.43779">
        <ele>322</ele>
        <time>2016-07-27T08:00:06Z</time>
      </trkpt>
      <trkpt lat="42.70561" lon="18.43782">
        <ele>322</ele>
        <time>2016-07-27T08:02:06Z</time>
      </trkpt>
      <trkpt lat="42.70565" lon="18.43786">
        <ele>322</ele>
        <time>2016-07-27T08:04:06Z</time>
      </trkpt>
      <trkpt lat="42.70568" lon="18.43789">
        <ele>322</ele>
        <time>2016-07-27T08:06:06Z</time>
      </trkpt>
      <trkpt lat="42.70572" lon="18.43793">
        <ele>322</ele>
        <time>2016-07-27T08:08:06Z</time>
      </trkpt>
      <trkpt lat="42.70575" lon="18.43796">
        <ele>322</ele>
        <time>2016-07-27T08:10:06Z</time>
      </trkpt>
      <trkpt lat="42.70581" lon="18.43803">
        <ele>322</ele>
        <time>2016-07-27T08:12:06Z</time>
      </trkpt>
      <trkpt lat="42.70587" lon="18.43809">
        <ele>322</ele>
        <time>2016-07-27T08:14:06Z</time>
      </trkpt>
      <trkpt lat="42.70593" lon="18.43815">
        <ele>322</ele>
        <time>2016-07-27T08:16:06Z</time>
      </trkpt>
      <trkpt lat="42.70599" lon="18.43822">
        <ele>322</ele>
        <time>2016-07-27T08:18:06Z</time>
      </trkpt>
      <trkpt lat="42.70604" lon="18.43829">
        <ele>322</ele>
        <time>2016-07-27T08:20:06Z</time>
      </trkpt>
      <trkpt lat="42.7061" lon="18.43835">
        <ele>322</ele>
        <time>2016-07-27T08:22:06Z</time>
      </trkpt>
      <trkpt lat="42.70616" lon="18.43842">
        <ele>322</ele>
        <time>2016-07-27T08:24:06Z</time>
      </trkpt>
      <trkpt lat="42.7062" lon="18.43848">
        <ele>322</ele>
        <time>2016-07-27T08:26:06Z</time>
      </trkpt>
      <trkpt lat="42.70625" lon="18.43855">
        <ele>322</ele>
        <time>2016-07-27T08:28:06Z</time>
      </trkpt>
      <trkpt lat="42.7063" lon="18.43861">
        <ele>322</ele>
        <time>2016-07-27T08:30:06Z</time>
      </trkpt>
      <trkpt lat="42.70635" lon="18.43868">
        <ele>322</ele>
        <time>2016-07-27T08:32:06Z</time>
      </trkpt>
      <trkpt lat="42.70638" lon="18.43873">
        <ele>322</ele>
        <time>2016-07-27T08:34:06Z</time>
      </trkpt>
      <trkpt lat="42.70642" lon="18.43878">
        <ele>322</ele>
        <time>2016-07-27T08:36:06Z</time>
      </trkpt>
      <trkpt lat="42.70645" lon="18.43884">
        <ele>322</ele>
        <time>2016-07-27T08:38:06Z</time>
      </trkpt>
      <trkpt lat="42.70649" lon="18.43889">
        <ele>322</ele>
        <time>2016-07-27T08:40:06Z</time>
      </trkpt>
      <trkpt lat="42.70652" lon="18.43895">
        <ele>322</ele>
        <time>2016-07-27T08:42:06Z</time>
      </trkpt>
      <trkpt lat="42.70655" lon="18.439">
        <ele>322</ele>
        <time>2016-07-27T08:44:06Z</time>
      </trkpt>
      <trkpt lat="42.70658" lon="18.43906">
        <ele>322</ele>
        <time>2016-07-27T08:46:06Z</time>
      </trkpt>
      <trkpt lat="42.70661" lon="18.43912">
        <ele>322</ele>
        <time>2016-07-27T08:48:06Z</time>
      </trkpt>
      <trkpt lat="42.70664" lon="18.43918">
        <ele>309</ele>
        <time>2016-07-27T08:50:06Z</time>
      </trkpt>
      <trkpt lat="42.70666" lon="18.43924">
        <ele>309</ele>
        <time>2016-07-27T08:52:06Z</time>
      </trkpt>
      <trkpt lat="42.70669" lon="18.4393">
        <ele>309</ele>
        <time>2016-07-27T08:54:06Z</time>
      </trkpt>
      <trkpt lat="42.70671" lon="18.43936">
        <ele>309</ele>
        <time>2016-07-27T08:56:06Z</time>
      </trkpt>
      <trkpt lat="42.70673" lon="18.43942">
        <ele>309</ele>
        <time>2016-07-27T08:58:06Z</time>
      </trkpt>
      <trkpt lat="42.70675" lon="18.43948">
        <ele>309</ele>
        <time>2016-07-27T09:00:06Z</time>
      </trkpt>
      <trkpt lat="42.70679" lon="18.4396">
        <ele>309</ele>
        <time>2016-07-27T09:02:06Z</time>
      </trkpt>
      <trkpt lat="42.70683" lon="18.43972">
        <ele>309</ele>
        <time>2016-07-27T09:04:06Z</time>
      </trkpt>
      <trkpt lat="42.70687" lon="18.43984">
        <ele>309</ele>
        <time>2016-07-27T09:06:06Z</time>
      </trkpt>
      <trkpt lat="42.70691" lon="18.43996">
        <ele>309</ele>
        <time>2016-07-27T09:08:06Z</time>
      </trkpt>
      <trkpt lat="42.70694" lon="18.44009">
        <ele>306</ele>
        <time>2016-07-27T09:10:06Z</time>
      </trkpt>
      <trkpt lat="42.70698" lon="18.44021">
        <ele>306</ele>
        <time>2016-07-27T09:12:06Z</time>
      </trkpt>
      <trkpt lat="42.70701" lon="18.44033">
        <ele>306</ele>
        <time>2016-07-27T09:14:06Z</time>
      </trkpt>
      <trkpt lat="42.70744" lon="18.44185">
        <ele>310</ele>
        <time>2016-07-27T09:16:06Z</time>
      </trkpt>
      <trkpt lat="42.70755" lon="18.44212">
        <ele>310</ele>
        <time>2016-07-27T09:18:06Z</time>
      </trkpt>
      <trkpt lat="42.70767" lon="18.4424">
        <ele>310</ele>
        <time>2016-07-27T09:20:06Z</time>
      </trkpt>
      <trkpt lat="42.70776" lon="18.44259">
        <ele>312</ele>
        <time>2016-07-27T09:22:06Z</time>
      </trkpt>
      <trkpt lat="42.70784" lon="18.44279">
        <ele>312</ele>
        <time>2016-07-27T09:24:06Z</time>
      </trkpt>
      <trkpt lat="42.70815" lon="18.44331">
        <ele>312</ele>
        <time>2016-07-27T09:26:06Z</time>
      </trkpt>
      <trkpt lat="42.70817" lon="18.44336">
        <ele>319</ele>
        <time>2016-07-27T09:28:06Z</time>
      </trkpt>
      <trkpt lat="42.7082" lon="18.44341">
        <ele>318</ele>
        <time>2016-07-27T09:30:06Z</time>
      </trkpt>
      <trkpt lat="42.70822" lon="18.44347">
        <ele>318</ele>
        <time>2016-07-27T09:32:06Z</time>
      </trkpt>
      <trkpt lat="42.70824" lon="18.44352">
        <ele>318</ele>
        <time>2016-07-27T09:34:06Z</time>
      </trkpt>
      <trkpt lat="42.70826" lon="18.44357">
        <ele>317</ele>
        <time>2016-07-27T09:36:06Z</time>
      </trkpt>
      <trkpt lat="42.70827" lon="18.44363">
        <ele>316</ele>
        <time>2016-07-27T09:38:06Z</time>
      </trkpt>
      <trkpt lat="42.70829" lon="18.44368">
        <ele>316</ele>
        <time>2016-07-27T09:40:06Z</time>
      </trkpt>
      <trkpt lat="42.7083" lon="18.44373">
        <ele>315</ele>
        <time>2016-07-27T09:42:06Z</time>
      </trkpt>
      <trkpt lat="42.70831" lon="18.44378">
        <ele>315</ele>
        <time>2016-07-27T09:44:06Z</time>
      </trkpt>
      <trkpt lat="42.70833" lon="18.44383">
        <ele>314</ele>
        <time>2016-07-27T09:46:06Z</time>
      </trkpt>
      <trkpt lat="42.70833" lon="18.44388">
        <ele>313</ele>
        <time>2016-07-27T09:48:06Z</time>
      </trkpt>
      <trkpt lat="42.70834" lon="18.44393">
        <ele>316</ele>
        <time>2016-07-27T09:50:06Z</time>
      </trkpt>
      <trkpt lat="42.70835" lon="18.44397">
        <ele>316</ele>
        <time>2016-07-27T09:52:06Z</time>
      </trkpt>
      <trkpt lat="42.70836" lon="18.44402">
        <ele>316</ele>
        <time>2016-07-27T09:54:06Z</time>
      </trkpt>
      <trkpt lat="42.70837" lon="18.44406">
        <ele>316</ele>
        <time>2016-07-27T09:56:06Z</time>
      </trkpt>
      <trkpt lat="42.70839" lon="18.44411">
        <ele>316</ele>
        <time>2016-07-27T09:58:06Z</time>
      </trkpt>
      <trkpt lat="42.7084" lon="18.44415">
        <ele>316</ele>
        <time>2016-07-27T10:00:06Z</time>
      </trkpt>
      <trkpt lat="42.70842" lon="18.44419">
        <ele>306</ele>
        <time>2016-07-27T10:02:06Z</time>
      </trkpt>
      <trkpt lat="42.70843" lon="18.44423">
        <ele>306</ele>
        <time>2016-07-27T10:04:06Z</time>
      </trkpt>
      <trkpt lat="42.70845" lon="18.44426">
        <ele>306</ele>
        <time>2016-07-27T10:06:06Z</time>
      </trkpt>
      <trkpt lat="42.70846" lon="18.44429">
        <ele>306</ele>
        <time>2016-07-27T10:08:06Z</time>
      </trkpt>
      <trkpt lat="42.70848" lon="18.44432">
        <ele>306</ele>
        <time>2016-07-27T10:10:06Z</time>
      </trkpt>
      <trkpt lat="42.7085" lon="18.44435">
        <ele>306</ele>
        <time>2016-07-27T10:12:06Z</time>
      </trkpt>
      <trkpt lat="42.70852" lon="18.44439">
        <ele>306</ele>
        <time>2016-07-27T10:14:06Z</time>
      </trkpt>
      <trkpt lat="42.70854" lon="18.44442">
        <ele>306</ele>
        <time>2016-07-27T10:16:06Z</time>
      </trkpt>
      <trkpt lat="42.70855" lon="18.44445">
        <ele>306</ele>
        <time>2016-07-27T10:18:06Z</time>
      </trkpt>
      <trkpt lat="42.70857" lon="18.44448">
        <ele>306</ele>
        <time>2016-07-27T10:20:06Z</time>
      </trkpt>
      <trkpt lat="42.70859" lon="18.44452">
        <ele>306</ele>
        <time>2016-07-27T10:22:06Z</time>
      </trkpt>
      <trkpt lat="42.7086" lon="18.44455">
        <ele>306</ele>
        <time>2016-07-27T10:24:06Z</time>
      </trkpt>
      <trkpt lat="42.70861" lon="18.44459">
        <ele>306</ele>
        <time>2016-07-27T10:26:06Z</time>
      </trkpt>
      <trkpt lat="42.70862" lon="18.44463">
        <ele>306</ele>
        <time>2016-07-27T10:28:06Z</time>
      </trkpt>
      <trkpt lat="42.70863" lon="18.44467">
        <ele>306</ele>
        <time>2016-07-27T10:30:06Z</time>
      </trkpt>
      <trkpt lat="42.70864" lon="18.44471">
        <ele>306</ele>
        <time>2016-07-27T10:32:06Z</time>
      </trkpt>
      <trkpt lat="42.70865" lon="18.44475">
        <ele>306</ele>
        <time>2016-07-27T10:34:06Z</time>
      </trkpt>
      <trkpt lat="42.70866" lon="18.44479">
        <ele>306</ele>
        <time>2016-07-27T10:36:06Z</time>
      </trkpt>
      <trkpt lat="42.70866" lon="18.44483">
        <ele>306</ele>
        <time>2016-07-27T10:38:06Z</time>
      </trkpt>
      <trkpt lat="42.70866" lon="18.44487">
        <ele>306</ele>
        <time>2016-07-27T10:40:06Z</time>
      </trkpt>
      <trkpt lat="42.70867" lon="18.44491">
        <ele>306</ele>
        <time>2016-07-27T10:42:06Z</time>
      </trkpt>
      <trkpt lat="42.70866" lon="18.44497">
        <ele>306</ele>
        <time>2016-07-27T10:44:06Z</time>
      </trkpt>
      <trkpt lat="42.70866" lon="18.44502">
        <ele>308</ele>
        <time>2016-07-27T10:46:06Z</time>
      </trkpt>
      <trkpt lat="42.70866" lon="18.44508">
        <ele>308</ele>
        <time>2016-07-27T10:48:06Z</time>
      </trkpt>
      <trkpt lat="42.70865" lon="18.44514">
        <ele>308</ele>
        <time>2016-07-27T10:50:06Z</time>
      </trkpt>
      <trkpt lat="42.70865" lon="18.4452">
        <ele>308</ele>
        <time>2016-07-27T10:52:06Z</time>
      </trkpt>
      <trkpt lat="42.70866" lon="18.44526">
        <ele>308</ele>
        <time>2016-07-27T10:54:06Z</time>
      </trkpt>
      <trkpt lat="42.70866" lon="18.44532">
        <ele>308</ele>
        <time>2016-07-27T10:56:06Z</time>
      </trkpt>
      <trkpt lat="42.70866" lon="18.44538">
        <ele>308</ele>
        <time>2016-07-27T10:58:06Z</time>
      </trkpt>
      <trkpt lat="42.70867" lon="18.44544">
        <ele>308</ele>
        <time>2016-07-27T11:00:06Z</time>
      </trkpt>
      <trkpt lat="42.70867" lon="18.4455">
        <ele>308</ele>
        <time>2016-07-27T11:02:06Z</time>
      </trkpt>
      <trkpt lat="42.70868" lon="18.44556">
        <ele>308</ele>
        <time>2016-07-27T11:04:06Z</time>
      </trkpt>
      <trkpt lat="42.70869" lon="18.44562">
        <ele>308</ele>
        <time>2016-07-27T11:06:06Z</time>
      </trkpt>
      <trkpt lat="42.7087" lon="18.44568">
        <ele>308</ele>
        <time>2016-07-27T11:08:06Z</time>
      </trkpt>
      <trkpt lat="42.70873" lon="18.44577">
        <ele>308</ele>
        <time>2016-07-27T11:10:06Z</time>
      </trkpt>
      <trkpt lat="42.70875" lon="18.44587">
        <ele>306</ele>
        <time>2016-07-27T11:12:06Z</time>
      </trkpt>
      <trkpt lat="42.70877" lon="18.44596">
        <ele>306</ele>
        <time>2016-07-27T11:14:06Z</time>
      </trkpt>
      <trkpt lat="42.70879" lon="18.44606">
        <ele>306</ele>
        <time>2016-07-27T11:16:06Z</time>
      </trkpt>
      <trkpt lat="42.7088" lon="18.44616">
        <ele>306</ele>
        <time>2016-07-27T11:18:06Z</time>
      </trkpt>
      <trkpt lat="42.70882" lon="18.44626">
        <ele>306</ele>
        <time>2016-07-27T11:20:06Z</time>
      </trkpt>
      <trkpt lat="42.70883" lon="18.44635">
        <ele>306</ele>
        <time>2016-07-27T11:22:06Z</time>
      </trkpt>
      <trkpt lat="42.70884" lon="18.44644">
        <ele>306</ele>
        <time>2016-07-27T11:24:06Z</time>
      </trkpt>
      <trkpt lat="42.70885" lon="18.44653">
        <ele>306</ele>
        <time>2016-07-27T11:26:06Z</time>
      </trkpt>
      <trkpt lat="42.70886" lon="18.44662">
        <ele>306</ele>
        <time>2016-07-27T11:28:06Z</time>
      </trkpt>
      <trkpt lat="42.70887" lon="18.44673">
        <ele>300</ele>
        <time>2016-07-27T11:30:06Z</time>
      </trkpt>
      <trkpt lat="42.70888" lon="18.44683">
        <ele>300</ele>
        <time>2016-07-27T11:32:06Z</time>
      </trkpt>
      <trkpt lat="42.70889" lon="18.44694">
        <ele>300</ele>
        <time>2016-07-27T11:34:06Z</time>
      </trkpt>
      <trkpt lat="42.7089" lon="18.44705">
        <ele>300</ele>
        <time>2016-07-27T11:36:06Z</time>
      </trkpt>
      <trkpt lat="42.7089" lon="18.44715">
        <ele>300</ele>
        <time>2016-07-27T11:38:06Z</time>
      </trkpt>
      <trkpt lat="42.7089" lon="18.44726">
        <ele>300</ele>
        <time>2016-07-27T11:40:06Z</time>
      </trkpt>
      <trkpt lat="42.7089" lon="18.44737">
        <ele>300</ele>
        <time>2016-07-27T11:42:06Z</time>
      </trkpt>
      <trkpt lat="42.70891" lon="18.44744">
        <ele>300</ele>
        <time>2016-07-27T11:44:06Z</time>
      </trkpt>
      <trkpt lat="42.7089" lon="18.44752">
        <ele>310</ele>
        <time>2016-07-27T11:46:06Z</time>
      </trkpt>
      <trkpt lat="42.7089" lon="18.44759">
        <ele>310</ele>
        <time>2016-07-27T11:48:06Z</time>
      </trkpt>
      <trkpt lat="42.7089" lon="18.44772">
        <ele>310</ele>
        <time>2016-07-27T11:50:06Z</time>
      </trkpt>
      <trkpt lat="42.7089" lon="18.44784">
        <ele>310</ele>
        <time>2016-07-27T11:52:06Z</time>
      </trkpt>
      <trkpt lat="42.70889" lon="18.44796">
        <ele>310</ele>
        <time>2016-07-27T11:54:06Z</time>
      </trkpt>
      <trkpt lat="42.70889" lon="18.44808">
        <ele>310</ele>
        <time>2016-07-27T11:56:06Z</time>
      </trkpt>
      <trkpt lat="42.70888" lon="18.44821">
        <ele>310</ele>
        <time>2016-07-27T11:58:06Z</time>
      </trkpt>
      <trkpt lat="42.70887" lon="18.44833">
        <ele>310</ele>
        <time>2016-07-27T12:00:06Z</time>
      </trkpt>
      <trkpt lat="42.70886" lon="18.44843">
        <ele>318</ele>
        <time>2016-07-27T12:02:06Z</time>
      </trkpt>
      <trkpt lat="42.70885" lon="18.44853">
        <ele>318</ele>
        <time>2016-07-27T12:04:06Z</time>
      </trkpt>
      <trkpt lat="42.70884" lon="18.44864">
        <ele>319</ele>
        <time>2016-07-27T12:06:06Z</time>
      </trkpt>
      <trkpt lat="42.70878" lon="18.44989">
        <ele>324</ele>
        <time>2016-07-27T12:08:06Z</time>
      </trkpt>
      <trkpt lat="42.70869" lon="18.45163">
        <ele>319</ele>
        <time>2016-07-27T12:10:06Z</time>
      </trkpt>
      <trkpt lat="42.70864" lon="18.45226">
        <ele>322</ele>
        <time>2016-07-27T12:12:06Z</time>
      </trkpt>
      <trkpt lat="42.70863" lon="18.45234">
        <ele>322</ele>
        <time>2016-07-27T12:14:06Z</time>
      </trkpt>
      <trkpt lat="42.70861" lon="18.45242">
        <ele>322</ele>
        <time>2016-07-27T12:16:06Z</time>
      </trkpt>
      <trkpt lat="42.7086" lon="18.45249">
        <ele>322</ele>
        <time>2016-07-27T12:18:06Z</time>
      </trkpt>
      <trkpt lat="42.70858" lon="18.45257">
        <ele>321</ele>
        <time>2016-07-27T12:20:06Z</time>
      </trkpt>
      <trkpt lat="42.70857" lon="18.45264">
        <ele>321</ele>
        <time>2016-07-27T12:22:06Z</time>
      </trkpt>
      <trkpt lat="42.70855" lon="18.45272">
        <ele>321</ele>
        <time>2016-07-27T12:24:06Z</time>
      </trkpt>
      <trkpt lat="42.70853" lon="18.45279">
        <ele>320</ele>
        <time>2016-07-27T12:26:06Z</time>
      </trkpt>
      <trkpt lat="42.70851" lon="18.45286">
        <ele>319</ele>
        <time>2016-07-27T12:28:06Z</time>
      </trkpt>
      <trkpt lat="42.70849" lon="18.45289">
        <ele>318</ele>
        <time>2016-07-27T12:30:06Z</time>
      </trkpt>
      <trkpt lat="42.70848" lon="18.45292">
        <ele>318</ele>
        <time>2016-07-27T12:32:06Z</time>
      </trkpt>
      <trkpt lat="42.70846" lon="18.45296">
        <ele>317</ele>
        <time>2016-07-27T12:34:06Z</time>
      </trkpt>
      <trkpt lat="42.70844" lon="18.45299">
        <ele>316</ele>
        <time>2016-07-27T12:36:06Z</time>
      </trkpt>
      <trkpt lat="42.70842" lon="18.45301">
        <ele>315</ele>
        <time>2016-07-27T12:38:06Z</time>
      </trkpt>
      <trkpt lat="42.70839" lon="18.45304">
        <ele>313</ele>
        <time>2016-07-27T12:40:06Z</time>
      </trkpt>
      <trkpt lat="42.70837" lon="18.45307">
        <ele>312</ele>
        <time>2016-07-27T12:42:06Z</time>
      </trkpt>
      <trkpt lat="42.70834" lon="18.4531">
        <ele>310</ele>
        <time>2016-07-27T12:44:06Z</time>
      </trkpt>
      <trkpt lat="42.70833" lon="18.45312">
        <ele>309</ele>
        <time>2016-07-27T12:46:06Z</time>
      </trkpt>
      <trkpt lat="42.70832" lon="18.45313">
        <ele>310</ele>
        <time>2016-07-27T12:48:06Z</time>
      </trkpt>
      <trkpt lat="42.70829" lon="18.45315">
        <ele>310</ele>
        <time>2016-07-27T12:50:06Z</time>
      </trkpt>
      <trkpt lat="42.70826" lon="18.45317">
        <ele>310</ele>
        <time>2016-07-27T12:52:06Z</time>
      </trkpt>
      <trkpt lat="42.70823" lon="18.45319">
        <ele>310</ele>
        <time>2016-07-27T12:54:06Z</time>
      </trkpt>
      <trkpt lat="42.70774" lon="18.45333">
        <ele>312</ele>
        <time>2016-07-27T12:56:06Z</time>
      </trkpt>
      <trkpt lat="42.70771" lon="18.45334">
        <ele>312</ele>
        <time>2016-07-27T12:58:06Z</time>
      </trkpt>
      <trkpt lat="42.70768" lon="18.45335">
        <ele>312</ele>
        <time>2016-07-27T13:00:06Z</time>
      </trkpt>
      <trkpt lat="42.70765" lon="18.45337">
        <ele>312</ele>
        <time>2016-07-27T13:02:06Z</time>
      </trkpt>
      <trkpt lat="42.70762" lon="18.45339">
        <ele>312</ele>
        <time>2016-07-27T13:04:06Z</time>
      </trkpt>
      <trkpt lat="42.7076" lon="18.45341">
        <ele>311</ele>
        <time>2016-07-27T13:06:06Z</time>
      </trkpt>
      <trkpt lat="42.70757" lon="18.45344">
        <ele>311</ele>
        <time>2016-07-27T13:08:06Z</time>
      </trkpt>
      <trkpt lat="42.70755" lon="18.45346">
        <ele>311</ele>
        <time>2016-07-27T13:10:06Z</time>
      </trkpt>
      <trkpt lat="42.70753" lon="18.45348">
        <ele>311</ele>
        <time>2016-07-27T13:12:06Z</time>
      </trkpt>
      <trkpt lat="42.70751" lon="18.45351">
        <ele>310</ele>
        <time>2016-07-27T13:14:06Z</time>
      </trkpt>
      <trkpt lat="42.70749" lon="18.45354">
        <ele>311</ele>
        <time>2016-07-27T13:16:06Z</time>
      </trkpt>
      <trkpt lat="42.70747" lon="18.45356">
        <ele>312</ele>
        <time>2016-07-27T13:18:06Z</time>
      </trkpt>
      <trkpt lat="42.70745" lon="18.45359">
        <ele>314</ele>
        <time>2016-07-27T13:20:06Z</time>
      </trkpt>
      <trkpt lat="42.70743" lon="18.45362">
        <ele>315</ele>
        <time>2016-07-27T13:22:06Z</time>
      </trkpt>
      <trkpt lat="42.70741" lon="18.45365">
        <ele>316</ele>
        <time>2016-07-27T13:24:06Z</time>
      </trkpt>
      <trkpt lat="42.70738" lon="18.45379">
        <ele>317</ele>
        <time>2016-07-27T13:26:06Z</time>
      </trkpt>
      <trkpt lat="42.70735" lon="18.45392">
        <ele>318</ele>
        <time>2016-07-27T13:28:06Z</time>
      </trkpt>
      <trkpt lat="42.70732" lon="18.45405">
        <ele>319</ele>
        <time>2016-07-27T13:30:06Z</time>
      </trkpt>
      <trkpt lat="42.70729" lon="18.45416">
        <ele>319</ele>
        <time>2016-07-27T13:32:06Z</time>
      </trkpt>
      <trkpt lat="42.70727" lon="18.45428">
        <ele>320</ele>
        <time>2016-07-27T13:34:06Z</time>
      </trkpt>
      <trkpt lat="42.70725" lon="18.45435">
        <ele>320</ele>
        <time>2016-07-27T13:36:06Z</time>
      </trkpt>
      <trkpt lat="42.70724" lon="18.45442">
        <ele>320</ele>
        <time>2016-07-27T13:38:06Z</time>
      </trkpt>
      <trkpt lat="42.70722" lon="18.45449">
        <ele>321</ele>
        <time>2016-07-27T13:40:06Z</time>
      </trkpt>
      <trkpt lat="42.7072" lon="18.45456">
        <ele>321</ele>
        <time>2016-07-27T13:42:06Z</time>
      </trkpt>
      <trkpt lat="42.70718" lon="18.45463">
        <ele>322</ele>
        <time>2016-07-27T13:44:06Z</time>
      </trkpt>
      <trkpt lat="42.70716" lon="18.4547">
        <ele>322</ele>
        <time>2016-07-27T13:46:06Z</time>
      </trkpt>
      <trkpt lat="42.70714" lon="18.45477">
        <ele>322</ele>
        <time>2016-07-27T13:48:06Z</time>
      </trkpt>
      <trkpt lat="42.70712" lon="18.45483">
        <ele>323</ele>
        <time>2016-07-27T13:50:06Z</time>
      </trkpt>
      <trkpt lat="42.7071" lon="18.4549">
        <ele>323</ele>
        <time>2016-07-27T13:52:06Z</time>
      </trkpt>
      <trkpt lat="42.70707" lon="18.45497">
        <ele>323</ele>
        <time>2016-07-27T13:54:06Z</time>
      </trkpt>
      <trkpt lat="42.70689" lon="18.45554">
        <ele>319</ele>
        <time>2016-07-27T13:56:06Z</time>
      </trkpt>
      <trkpt lat="42.70687" lon="18.45562">
        <ele>318</ele>
        <time>2016-07-27T13:58:06Z</time>
      </trkpt>
      <trkpt lat="42.70685" lon="18.4557">
        <ele>317</ele>
        <time>2016-07-27T14:00:06Z</time>
      </trkpt>
      <trkpt lat="42.70683" lon="18.45579">
        <ele>316</ele>
        <time>2016-07-27T14:02:06Z</time>
      </trkpt>
      <trkpt lat="42.70681" lon="18.45587">
        <ele>315</ele>
        <time>2016-07-27T14:04:06Z</time>
      </trkpt>
      <trkpt lat="42.7068" lon="18.45595">
        <ele>315</ele>
        <time>2016-07-27T14:06:06Z</time>
      </trkpt>
      <trkpt lat="42.70678" lon="18.45602">
        <ele>315</ele>
        <time>2016-07-27T14:08:06Z</time>
      </trkpt>
      <trkpt lat="42.70677" lon="18.4561">
        <ele>315</ele>
        <time>2016-07-27T14:10:06Z</time>
      </trkpt>
      <trkpt lat="42.70676" lon="18.45618">
        <ele>314</ele>
        <time>2016-07-27T14:12:06Z</time>
      </trkpt>
      <trkpt lat="42.70675" lon="18.45626">
        <ele>314</ele>
        <time>2016-07-27T14:14:06Z</time>
      </trkpt>
      <trkpt lat="42.70674" lon="18.45634">
        <ele>314</ele>
        <time>2016-07-27T14:16:06Z</time>
      </trkpt>
      <trkpt lat="42.70673" lon="18.45642">
        <ele>313</ele>
        <time>2016-07-27T14:18:06Z</time>
      </trkpt>
      <trkpt lat="42.70672" lon="18.45651">
        <ele>313</ele>
        <time>2016-07-27T14:20:06Z</time>
      </trkpt>
      <trkpt lat="42.70672" lon="18.45659">
        <ele>312</ele>
        <time>2016-07-27T14:22:06Z</time>
      </trkpt>
      <trkpt lat="42.70671" lon="18.45667">
        <ele>311</ele>
        <time>2016-07-27T14:24:06Z</time>
      </trkpt>
      <trkpt lat="42.70671" lon="18.45675">
        <ele>311</ele>
        <time>2016-07-27T14:26:06Z</time>
      </trkpt>
      <trkpt lat="42.70672" lon="18.45756">
        <ele>307</ele>
        <time>2016-07-27T14:28:06Z</time>
      </trkpt>
      <trkpt lat="42.70673" lon="18.45765">
        <ele>307</ele>
        <time>2016-07-27T14:30:06Z</time>
      </trkpt>
      <trkpt lat="42.70673" lon="18.45774">
        <ele>306</ele>
        <time>2016-07-27T14:32:06Z</time>
      </trkpt>
      <trkpt lat="42.70673" lon="18.45783">
        <ele>306</ele>
        <time>2016-07-27T14:34:06Z</time>
      </trkpt>
      <trkpt lat="42.70672" lon="18.45792">
        <ele>306</ele>
        <time>2016-07-27T14:36:06Z</time>
      </trkpt>
      <trkpt lat="42.70672" lon="18.45801">
        <ele>306</ele>
        <time>2016-07-27T14:38:06Z</time>
      </trkpt>
      <trkpt lat="42.70671" lon="18.4581">
        <ele>306</ele>
        <time>2016-07-27T14:40:06Z</time>
      </trkpt>
      <trkpt lat="42.70671" lon="18.45818">
        <ele>306</ele>
        <time>2016-07-27T14:42:06Z</time>
      </trkpt>
      <trkpt lat="42.7067" lon="18.45825">
        <ele>306</ele>
        <time>2016-07-27T14:44:06Z</time>
      </trkpt>
      <trkpt lat="42.70669" lon="18.45833">
        <ele>306</ele>
        <time>2016-07-27T14:46:06Z</time>
      </trkpt>
      <trkpt lat="42.70669" lon="18.4584">
        <ele>306</ele>
        <time>2016-07-27T14:48:06Z</time>
      </trkpt>
      <trkpt lat="42.70665" lon="18.45854">
        <ele>307</ele>
        <time>2016-07-27T14:50:06Z</time>
      </trkpt>
      <trkpt lat="42.70662" lon="18.45869">
        <ele>309</ele>
        <time>2016-07-27T14:52:06Z</time>
      </trkpt>
      <trkpt lat="42.70659" lon="18.45883">
        <ele>311</ele>
        <time>2016-07-27T14:54:06Z</time>
      </trkpt>
      <trkpt lat="42.70655" lon="18.45897">
        <ele>313</ele>
        <time>2016-07-27T14:56:06Z</time>
      </trkpt>
      <trkpt lat="42.70652" lon="18.45911">
        <ele>315</ele>
        <time>2016-07-27T14:58:06Z</time>
      </trkpt>
      <trkpt lat="42.70649" lon="18.45922">
        <ele>316</ele>
        <time>2016-07-27T15:00:06Z</time>
      </trkpt>
      <trkpt lat="42.70646" lon="18.45933">
        <ele>317</ele>
        <time>2016-07-27T15:02:06Z</time>
      </trkpt>
      <trkpt lat="42.70643" lon="18.45944">
        <ele>318</ele>
        <time>2016-07-27T15:04:06Z</time>
      </trkpt>
      <trkpt lat="42.7062" lon="18.46051">
        <ele>321</ele>
        <time>2016-07-27T15:06:06Z</time>
      </trkpt>
      <trkpt lat="42.70606" lon="18.46122">
        <ele>320</ele>
        <time>2016-07-27T15:08:06Z</time>
      </trkpt>
      <trkpt lat="42.70593" lon="18.462">
        <ele>314</ele>
        <time>2016-07-27T15:10:06Z</time>
      </trkpt>
      <trkpt lat="42.70583" lon="18.46249">
        <ele>310</ele>
        <time>2016-07-27T15:12:06Z</time>
      </trkpt>
      <trkpt lat="42.70581" lon="18.46256">
        <ele>310</ele>
        <time>2016-07-27T15:14:06Z</time>
      </trkpt>
      <trkpt lat="42.70579" lon="18.46263">
        <ele>311</ele>
        <time>2016-07-27T15:16:06Z</time>
      </trkpt>
      <trkpt lat="42.70577" lon="18.4627">
        <ele>311</ele>
        <time>2016-07-27T15:18:06Z</time>
      </trkpt>
      <trkpt lat="42.70574" lon="18.46277">
        <ele>311</ele>
        <time>2016-07-27T15:20:06Z</time>
      </trkpt>
      <trkpt lat="42.70572" lon="18.46284">
        <ele>311</ele>
        <time>2016-07-27T15:22:06Z</time>
      </trkpt>
      <trkpt lat="42.70569" lon="18.46291">
        <ele>311</ele>
        <time>2016-07-27T15:24:06Z</time>
      </trkpt>
      <trkpt lat="42.70567" lon="18.46298">
        <ele>311</ele>
        <time>2016-07-27T15:26:06Z</time>
      </trkpt>
      <trkpt lat="42.70564" lon="18.46304">
        <ele>311</ele>
        <time>2016-07-27T15:28:06Z</time>
      </trkpt>
      <trkpt lat="42.70561" lon="18.46311">
        <ele>311</ele>
        <time>2016-07-27T15:30:06Z</time>
      </trkpt>
      <trkpt lat="42.70558" lon="18.46317">
        <ele>311</ele>
        <time>2016-07-27T15:32:06Z</time>
      </trkpt>
      <trkpt lat="42.70555" lon="18.46324">
        <ele>311</ele>
        <time>2016-07-27T15:34:06Z</time>
      </trkpt>
      <trkpt lat="42.70552" lon="18.4633">
        <ele>311</ele>
        <time>2016-07-27T15:36:06Z</time>
      </trkpt>
      <trkpt lat="42.70548" lon="18.46336">
        <ele>311</ele>
        <time>2016-07-27T15:38:06Z</time>
      </trkpt>
      <trkpt lat="42.70545" lon="18.46342">
        <ele>310</ele>
        <time>2016-07-27T15:40:06Z</time>
      </trkpt>
      <trkpt lat="42.70541" lon="18.46347">
        <ele>310</ele>
        <time>2016-07-27T15:42:06Z</time>
      </trkpt>
      <trkpt lat="42.70538" lon="18.46353">
        <ele>310</ele>
        <time>2016-07-27T15:44:06Z</time>
      </trkpt>
      <trkpt lat="42.70534" lon="18.46359">
        <ele>309</ele>
        <time>2016-07-27T15:46:06Z</time>
      </trkpt>
      <trkpt lat="42.7053" lon="18.46364">
        <ele>309</ele>
        <time>2016-07-27T15:48:06Z</time>
      </trkpt>
      <trkpt lat="42.70525" lon="18.46371">
        <ele>309</ele>
        <time>2016-07-27T15:50:06Z</time>
      </trkpt>
      <trkpt lat="42.7052" lon="18.46378">
        <ele>308</ele>
        <time>2016-07-27T15:52:06Z</time>
      </trkpt>
      <trkpt lat="42.70515" lon="18.46385">
        <ele>308</ele>
        <time>2016-07-27T15:54:06Z</time>
      </trkpt>
      <trkpt lat="42.70481" lon="18.4643">
        <ele>304</ele>
        <time>2016-07-27T15:56:06Z</time>
      </trkpt>
      <trkpt lat="42.70476" lon="18.46438">
        <ele>304</ele>
        <time>2016-07-27T15:58:06Z</time>
      </trkpt>
      <trkpt lat="42.70472" lon="18.46446">
        <ele>304</ele>
        <time>2016-07-27T16:00:06Z</time>
      </trkpt>
      <trkpt lat="42.70467" lon="18.46455">
        <ele>304</ele>
        <time>2016-07-27T16:02:06Z</time>
      </trkpt>
      <trkpt lat="42.70463" lon="18.46463">
        <ele>305</ele>
        <time>2016-07-27T16:04:06Z</time>
      </trkpt>
      <trkpt lat="42.70458" lon="18.46471">
        <ele>305</ele>
        <time>2016-07-27T16:06:06Z</time>
      </trkpt>
      <trkpt lat="42.70454" lon="18.4648">
        <ele>306</ele>
        <time>2016-07-27T16:08:06Z</time>
      </trkpt>
      <trkpt lat="42.70451" lon="18.46487">
        <ele>307</ele>
        <time>2016-07-27T16:10:06Z</time>
      </trkpt>
      <trkpt lat="42.70447" lon="18.46494">
        <ele>307</ele>
        <time>2016-07-27T16:12:06Z</time>
      </trkpt>
      <trkpt lat="42.70444" lon="18.46501">
        <ele>308</ele>
        <time>2016-07-27T16:14:06Z</time>
      </trkpt>
      <trkpt lat="42.70424" lon="18.46554">
        <ele>312</ele>
        <time>2016-07-27T16:16:06Z</time>
      </trkpt>
      <trkpt lat="42.70422" lon="18.46561">
        <ele>312</ele>
        <time>2016-07-27T16:18:06Z</time>
      </trkpt>
      <trkpt lat="42.70419" lon="18.46567">
        <ele>313</ele>
        <time>2016-07-27T16:20:06Z</time>
      </trkpt>
      <trkpt lat="42.70416" lon="18.46574">
        <ele>313</ele>
        <time>2016-07-27T16:22:06Z</time>
      </trkpt>
      <trkpt lat="42.70413" lon="18.4658">
        <ele>315</ele>
        <time>2016-07-27T16:24:06Z</time>
      </trkpt>
      <trkpt lat="42.7041" lon="18.46587">
        <ele>315</ele>
        <time>2016-07-27T16:26:06Z</time>
      </trkpt>
      <trkpt lat="42.70407" lon="18.46593">
        <ele>316</ele>
        <time>2016-07-27T16:28:06Z</time>
      </trkpt>
      <trkpt lat="42.70404" lon="18.46599">
        <ele>316</ele>
        <time>2016-07-27T16:30:06Z</time>
      </trkpt>
      <trkpt lat="42.70401" lon="18.46604">
        <ele>316</ele>
        <time>2016-07-27T16:32:06Z</time>
      </trkpt>
      <trkpt lat="42.70398" lon="18.46609">
        <ele>316</ele>
        <time>2016-07-27T16:34:06Z</time>
      </trkpt>
      <trkpt lat="42.70396" lon="18.46614">
        <ele>316</ele>
        <time>2016-07-27T16:36:06Z</time>
      </trkpt>
      <trkpt lat="42.70368" lon="18.46653">
        <ele>317</ele>
        <time>2016-07-27T16:38:06Z</time>
      </trkpt>
      <trkpt lat="42.70364" lon="18.46659">
        <ele>317</ele>
        <time>2016-07-27T16:40:06Z</time>
      </trkpt>
      <trkpt lat="42.70361" lon="18.46665">
        <ele>316</ele>
        <time>2016-07-27T16:42:06Z</time>
      </trkpt>
      <trkpt lat="42.70357" lon="18.46671">
        <ele>316</ele>
        <time>2016-07-27T16:44:06Z</time>
      </trkpt>
      <trkpt lat="42.70354" lon="18.46678">
        <ele>315</ele>
        <time>2016-07-27T16:46:06Z</time>
      </trkpt>
      <trkpt lat="42.70351" lon="18.46684">
        <ele>315</ele>
        <time>2016-07-27T16:48:06Z</time>
      </trkpt>
      <trkpt lat="42.70348" lon="18.4669">
        <ele>314</ele>
        <time>2016-07-27T16:50:06Z</time>
      </trkpt>
      <trkpt lat="42.70345" lon="18.46695">
        <ele>314</ele>
        <time>2016-07-27T16:52:06Z</time>
      </trkpt>
      <trkpt lat="42.70343" lon="18.467">
        <ele>313</ele>
        <time>2016-07-27T16:54:06Z</time>
      </trkpt>
      <trkpt lat="42.70341" lon="18.46705">
        <ele>312</ele>
        <time>2016-07-27T16:56:06Z</time>
      </trkpt>
      <trkpt lat="42.70339" lon="18.46712">
        <ele>311</ele>
        <time>2016-07-27T16:58:06Z</time>
      </trkpt>
      <trkpt lat="42.70337" lon="18.4672">
        <ele>309</ele>
        <time>2016-07-27T17:00:06Z</time>
      </trkpt>
      <trkpt lat="42.70335" lon="18.46727">
        <ele>307</ele>
        <time>2016-07-27T17:02:06Z</time>
      </trkpt>
      <trkpt lat="42.70333" lon="18.46734">
        <ele>306</ele>
        <time>2016-07-27T17:04:06Z</time>
      </trkpt>
      <trkpt lat="42.70331" lon="18.46742">
        <ele>305</ele>
        <time>2016-07-27T17:06:06Z</time>
      </trkpt>
      <trkpt lat="42.7033" lon="18.46749">
        <ele>303</ele>
        <time>2016-07-27T17:08:06Z</time>
      </trkpt>
      <trkpt lat="42.70329" lon="18.46757">
        <ele>303</ele>
        <time>2016-07-27T17:10:06Z</time>
      </trkpt>
      <trkpt lat="42.70327" lon="18.46764">
        <ele>303</ele>
        <time>2016-07-27T17:12:06Z</time>
      </trkpt>
      <trkpt lat="42.70326" lon="18.46771">
        <ele>303</ele>
        <time>2016-07-27T17:14:06Z</time>
      </trkpt>
      <trkpt lat="42.70326" lon="18.46778">
        <ele>302</ele>
        <time>2016-07-27T17:16:06Z</time>
      </trkpt>
      <trkpt lat="42.70325" lon="18.46785">
        <ele>302</ele>
        <time>2016-07-27T17:18:06Z</time>
      </trkpt>
      <trkpt lat="42.70324" lon="18.46792">
        <ele>302</ele>
        <time>2016-07-27T17:20:06Z</time>
      </trkpt>
      <trkpt lat="42.70324" lon="18.46799">
        <ele>301</ele>
        <time>2016-07-27T17:22:06Z</time>
      </trkpt>
      <trkpt lat="42.70321" lon="18.46876">
        <ele>297</ele>
        <time>2016-07-27T17:24:06Z</time>
      </trkpt>
      <trkpt lat="42.70319" lon="18.46906">
        <ele>297</ele>
        <time>2016-07-27T17:26:06Z</time>
      </trkpt>
      <trkpt lat="42.70317" lon="18.46932">
        <ele>297</ele>
        <time>2016-07-27T17:28:06Z</time>
      </trkpt>
      <trkpt lat="42.70316" lon="18.4694">
        <ele>297</ele>
        <time>2016-07-27T17:30:06Z</time>
      </trkpt>
      <trkpt lat="42.70314" lon="18.46949">
        <ele>297</ele>
        <time>2016-07-27T17:32:06Z</time>
      </trkpt>
      <trkpt lat="42.70313" lon="18.46957">
        <ele>297</ele>
        <time>2016-07-27T17:34:06Z</time>
      </trkpt>
      <trkpt lat="42.70311" lon="18.46965">
        <ele>298</ele>
        <time>2016-07-27T17:36:06Z</time>
      </trkpt>
      <trkpt lat="42.70309" lon="18.46974">
        <ele>298</ele>
        <time>2016-07-27T17:38:06Z</time>
      </trkpt>
      <trkpt lat="42.70307" lon="18.46981">
        <ele>298</ele>
        <time>2016-07-27T17:40:06Z</time>
      </trkpt>
      <trkpt lat="42.70305" lon="18.46989">
        <ele>298</ele>
        <time>2016-07-27T17:42:06Z</time>
      </trkpt>
      <trkpt lat="42.70302" lon="18.46997">
        <ele>298</ele>
        <time>2016-07-27T17:44:06Z</time>
      </trkpt>
      <trkpt lat="42.703" lon="18.47004">
        <ele>298</ele>
        <time>2016-07-27T17:46:06Z</time>
      </trkpt>
      <trkpt lat="42.70297" lon="18.47011">
        <ele>298</ele>
        <time>2016-07-27T17:48:06Z</time>
      </trkpt>
      <trkpt lat="42.70295" lon="18.47018">
        <ele>298</ele>
        <time>2016-07-27T17:50:06Z</time>
      </trkpt>
      <trkpt lat="42.70292" lon="18.47024">
        <ele>299</ele>
        <time>2016-07-27T17:52:06Z</time>
      </trkpt>
      <trkpt lat="42.70289" lon="18.4703">
        <ele>299</ele>
        <time>2016-07-27T17:54:06Z</time>
      </trkpt>
      <trkpt lat="42.70287" lon="18.47035">
        <ele>299</ele>
        <time>2016-07-27T17:56:06Z</time>
      </trkpt>
      <trkpt lat="42.70285" lon="18.4704">
        <ele>299</ele>
        <time>2016-07-27T17:58:06Z</time>
      </trkpt>
      <trkpt lat="42.70248" lon="18.47116">
        <ele>298</ele>
        <time>2016-07-27T18:00:06Z</time>
      </trkpt>
      <trkpt lat="42.70246" lon="18.47123">
        <ele>298</ele>
        <time>2016-07-27T18:02:06Z</time>
      </trkpt>
      <trkpt lat="42.70244" lon="18.47129">
        <ele>298</ele>
        <time>2016-07-27T18:04:06Z</time>
      </trkpt>
      <trkpt lat="42.70241" lon="18.47136">
        <ele>298</ele>
        <time>2016-07-27T18:06:06Z</time>
      </trkpt>
      <trkpt lat="42.70239" lon="18.47142">
        <ele>298</ele>
        <time>2016-07-27T18:08:06Z</time>
      </trkpt>
      <trkpt lat="42.70238" lon="18.47149">
        <ele>298</ele>
        <time>2016-07-27T18:10:06Z</time>
      </trkpt>
      <trkpt lat="42.70236" lon="18.47156">
        <ele>298</ele>
        <time>2016-07-27T18:12:06Z</time>
      </trkpt>
      <trkpt lat="42.70234" lon="18.47163">
        <ele>298</ele>
        <time>2016-07-27T18:14:06Z</time>
      </trkpt>
      <trkpt lat="42.70233" lon="18.4717">
        <ele>298</ele>
        <time>2016-07-27T18:16:06Z</time>
      </trkpt>
      <trkpt lat="42.70231" lon="18.47177">
        <ele>298</ele>
        <time>2016-07-27T18:18:06Z</time>
      </trkpt>
      <trkpt lat="42.70231" lon="18.47179">
        <ele>298</ele>
        <time>2016-07-27T18:20:06Z</time>
      </trkpt>
      <trkpt lat="42.7023" lon="18.47184">
        <ele>298</ele>
        <time>2016-07-27T18:22:06Z</time>
      </trkpt>
      <trkpt lat="42.70229" lon="18.4719">
        <ele>299</ele>
        <time>2016-07-27T18:24:06Z</time>
      </trkpt>
      <trkpt lat="42.70229" lon="18.47196">
        <ele>299</ele>
        <time>2016-07-27T18:26:06Z</time>
      </trkpt>
      <trkpt lat="42.70228" lon="18.47202">
        <ele>299</ele>
        <time>2016-07-27T18:28:06Z</time>
      </trkpt>
      <trkpt lat="42.70227" lon="18.47208">
        <ele>299</ele>
        <time>2016-07-27T18:30:06Z</time>
      </trkpt>
      <trkpt lat="42.70226" lon="18.47252">
        <ele>299</ele>
        <time>2016-07-27T18:32:06Z</time>
      </trkpt>
      <trkpt lat="42.70229" lon="18.47292">
        <ele>299</ele>
        <time>2016-07-27T18:34:06Z</time>
      </trkpt>
      <trkpt lat="42.70232" lon="18.47302">
        <ele>299</ele>
        <time>2016-07-27T18:36:06Z</time>
      </trkpt>
      <trkpt lat="42.70235" lon="18.47311">
        <ele>299</ele>
        <time>2016-07-27T18:38:06Z</time>
      </trkpt>
      <trkpt lat="42.70238" lon="18.47321">
        <ele>299</ele>
        <time>2016-07-27T18:40:06Z</time>
      </trkpt>
      <trkpt lat="42.70241" lon="18.4733">
        <ele>298</ele>
        <time>2016-07-27T18:42:06Z</time>
      </trkpt>
      <trkpt lat="42.70244" lon="18.47341">
        <ele>299</ele>
        <time>2016-07-27T18:44:06Z</time>
      </trkpt>
      <trkpt lat="42.70248" lon="18.47351">
        <ele>299</ele>
        <time>2016-07-27T18:46:06Z</time>
      </trkpt>
      <trkpt lat="42.70252" lon="18.47361">
        <ele>299</ele>
        <time>2016-07-27T18:48:06Z</time>
      </trkpt>
      <trkpt lat="42.70256" lon="18.47371">
        <ele>299</ele>
        <time>2016-07-27T18:50:06Z</time>
      </trkpt>
      <trkpt lat="42.7026" lon="18.47381">
        <ele>299</ele>
        <time>2016-07-27T18:52:06Z</time>
      </trkpt>
      <trkpt lat="42.70302" lon="18.47459">
        <ele>302</ele>
        <time>2016-07-27T18:54:06Z</time>
      </trkpt>
      <trkpt lat="42.70306" lon="18.47466">
        <ele>302</ele>
        <time>2016-07-27T18:56:06Z</time>
      </trkpt>
      <trkpt lat="42.7031" lon="18.47474">
        <ele>303</ele>
        <time>2016-07-27T18:58:06Z</time>
      </trkpt>
      <trkpt lat="42.70314" lon="18.47482">
        <ele>303</ele>
        <time>2016-07-27T19:00:06Z</time>
      </trkpt>
      <trkpt lat="42.70318" lon="18.47489">
        <ele>304</ele>
        <time>2016-07-27T19:02:06Z</time>
      </trkpt>
      <trkpt lat="42.70322" lon="18.47497">
        <ele>304</ele>
        <time>2016-07-27T19:04:06Z</time>
      </trkpt>
      <trkpt lat="42.70325" lon="18.47506">
        <ele>305</ele>
        <time>2016-07-27T19:06:06Z</time>
      </trkpt>
      <trkpt lat="42.70329" lon="18.47514">
        <ele>306</ele>
        <time>2016-07-27T19:08:06Z</time>
      </trkpt>
      <trkpt lat="42.70333" lon="18.47522">
        <ele>307</ele>
        <time>2016-07-27T19:10:06Z</time>
      </trkpt>
      <trkpt lat="42.70336" lon="18.47531">
        <ele>307</ele>
        <time>2016-07-27T19:12:06Z</time>
      </trkpt>
      <trkpt lat="42.70339" lon="18.4754">
        <ele>308</ele>
        <time>2016-07-27T19:14:06Z</time>
      </trkpt>
      <trkpt lat="42.70341" lon="18.4755">
        <ele>309</ele>
        <time>2016-07-27T19:16:06Z</time>
      </trkpt>
      <trkpt lat="42.70344" lon="18.4756">
        <ele>309</ele>
        <time>2016-07-27T19:18:06Z</time>
      </trkpt>
      <trkpt lat="42.70346" lon="18.4757">
        <ele>310</ele>
        <time>2016-07-27T19:20:06Z</time>
      </trkpt>
      <trkpt lat="42.70348" lon="18.4758">
        <ele>311</ele>
        <time>2016-07-27T19:22:06Z</time>
      </trkpt>
      <trkpt lat="42.7035" lon="18.4759">
        <ele>311</ele>
        <time>2016-07-27T19:24:06Z</time>
      </trkpt>
      <trkpt lat="42.70352" lon="18.476">
        <ele>311</ele>
        <time>2016-07-27T19:26:06Z</time>
      </trkpt>
      <trkpt lat="42.70354" lon="18.47611">
        <ele>312</ele>
        <time>2016-07-27T19:28:06Z</time>
      </trkpt>
      <trkpt lat="42.70356" lon="18.47622">
        <ele>312</ele>
        <time>2016-07-27T19:30:06Z</time>
      </trkpt>
      <trkpt lat="42.70357" lon="18.4763">
        <ele>312</ele>
        <time>2016-07-27T19:32:06Z</time>
      </trkpt>
      <trkpt lat="42.70358" lon="18.47637">
        <ele>312</ele>
        <time>2016-07-27T19:34:06Z</time>
      </trkpt>
      <trkpt lat="42.70358" lon="18.47645">
        <ele>313</ele>
        <time>2016-07-27T19:36:06Z</time>
      </trkpt>
      <trkpt lat="42.70359" lon="18.47653">
        <ele>313</ele>
        <time>2016-07-27T19:38:06Z</time>
      </trkpt>
      <trkpt lat="42.70359" lon="18.47661">
        <ele>314</ele>
        <time>2016-07-27T19:40:06Z</time>
      </trkpt>
      <trkpt lat="42.70359" lon="18.47669">
        <ele>314</ele>
        <time>2016-07-27T19:42:06Z</time>
      </trkpt>
      <trkpt lat="42.70359" lon="18.47677">
        <ele>314</ele>
        <time>2016-07-27T19:44:06Z</time>
      </trkpt>
      <trkpt lat="42.70359" lon="18.47685">
        <ele>314</ele>
        <time>2016-07-27T19:46:06Z</time>
      </trkpt>
      <trkpt lat="42.70359" lon="18.47692">
        <ele>314</ele>
        <time>2016-07-27T19:48:06Z</time>
      </trkpt>
      <trkpt lat="42.70358" lon="18.477">
        <ele>315</ele>
        <time>2016-07-27T19:50:06Z</time>
      </trkpt>
      <trkpt lat="42.70351" lon="18.47764">
        <ele>317</ele>
        <time>2016-07-27T19:52:06Z</time>
      </trkpt>
      <trkpt lat="42.7035" lon="18.47772">
        <ele>318</ele>
        <time>2016-07-27T19:54:06Z</time>
      </trkpt>
      <trkpt lat="42.70349" lon="18.47779">
        <ele>318</ele>
        <time>2016-07-27T19:56:06Z</time>
      </trkpt>
      <trkpt lat="42.70348" lon="18.47787">
        <ele>318</ele>
        <time>2016-07-27T19:58:06Z</time>
      </trkpt>
      <trkpt lat="42.70348" lon="18.47794">
        <ele>318</ele>
        <time>2016-07-27T20:00:06Z</time>
      </trkpt>
      <trkpt lat="42.70348" lon="18.47802">
        <ele>318</ele>
        <time>2016-07-27T20:02:06Z</time>
      </trkpt>
      <trkpt lat="42.70347" lon="18.47809">
        <ele>319</ele>
        <time>2016-07-27T20:04:06Z</time>
      </trkpt>
      <trkpt lat="42.70347" lon="18.47817">
        <ele>319</ele>
        <time>2016-07-27T20:06:06Z</time>
      </trkpt>
      <trkpt lat="42.70347" lon="18.47824">
        <ele>319</ele>
        <time>2016-07-27T20:08:06Z</time>
      </trkpt>
      <trkpt lat="42.70347" lon="18.47832">
        <ele>319</ele>
        <time>2016-07-27T20:10:06Z</time>
      </trkpt>
      <trkpt lat="42.70348" lon="18.47839">
        <ele>318</ele>
        <time>2016-07-27T20:12:06Z</time>
      </trkpt>
      <trkpt lat="42.70348" lon="18.47846">
        <ele>317</ele>
        <time>2016-07-27T20:14:06Z</time>
      </trkpt>
      <trkpt lat="42.70349" lon="18.47853">
        <ele>316</ele>
        <time>2016-07-27T20:16:06Z</time>
      </trkpt>
      <trkpt lat="42.70349" lon="18.47859">
        <ele>316</ele>
        <time>2016-07-27T20:18:06Z</time>
      </trkpt>
      <trkpt lat="42.7035" lon="18.47866">
        <ele>315</ele>
        <time>2016-07-27T20:20:06Z</time>
      </trkpt>
      <trkpt lat="42.70351" lon="18.47873">
        <ele>314</ele>
        <time>2016-07-27T20:22:06Z</time>
      </trkpt>
      <trkpt lat="42.70352" lon="18.4788">
        <ele>313</ele>
        <time>2016-07-27T20:24:06Z</time>
      </trkpt>
      <trkpt lat="42.70353" lon="18.47887">
        <ele>312</ele>
        <time>2016-07-27T20:26:06Z</time>
      </trkpt>
      <trkpt lat="42.70355" lon="18.47894">
        <ele>311</ele>
        <time>2016-07-27T20:28:06Z</time>
      </trkpt>
      <trkpt lat="42.70357" lon="18.47902">
        <ele>310</ele>
        <time>2016-07-27T20:30:06Z</time>
      </trkpt>
      <trkpt lat="42.70358" lon="18.47908">
        <ele>309</ele>
        <time>2016-07-27T20:32:06Z</time>
      </trkpt>
      <trkpt lat="42.7036" lon="18.47915">
        <ele>308</ele>
        <time>2016-07-27T20:34:06Z</time>
      </trkpt>
      <trkpt lat="42.70362" lon="18.47922">
        <ele>309</ele>
        <time>2016-07-27T20:36:06Z</time>
      </trkpt>
      <trkpt lat="42.70364" lon="18.47928">
        <ele>310</ele>
        <time>2016-07-27T20:38:06Z</time>
      </trkpt>
      <trkpt lat="42.70366" lon="18.47935">
        <ele>311</ele>
        <time>2016-07-27T20:40:06Z</time>
      </trkpt>
      <trkpt lat="42.70369" lon="18.47941">
        <ele>312</ele>
        <time>2016-07-27T20:42:06Z</time>
      </trkpt>
      <trkpt lat="42.70371" lon="18.47947">
        <ele>313</ele>
        <time>2016-07-27T20:44:06Z</time>
      </trkpt>
      <trkpt lat="42.70374" lon="18.47954">
        <ele>313</ele>
        <time>2016-07-27T20:46:06Z</time>
      </trkpt>
      <trkpt lat="42.70378" lon="18.47961">
        <ele>314</ele>
        <time>2016-07-27T20:48:06Z</time>
      </trkpt>
      <trkpt lat="42.70381" lon="18.47968">
        <ele>314</ele>
        <time>2016-07-27T20:50:06Z</time>
      </trkpt>
      <trkpt lat="42.70385" lon="18.47974">
        <ele>314</ele>
        <time>2016-07-27T20:52:06Z</time>
      </trkpt>
      <trkpt lat="42.70388" lon="18.4798">
        <ele>314</ele>
        <time>2016-07-27T20:54:06Z</time>
      </trkpt>
      <trkpt lat="42.70392" lon="18.47987">
        <ele>313</ele>
        <time>2016-07-27T20:56:06Z</time>
      </trkpt>
      <trkpt lat="42.70396" lon="18.47993">
        <ele>313</ele>
        <time>2016-07-27T20:58:06Z</time>
      </trkpt>
      <trkpt lat="42.704" lon="18.48">
        <ele>312</ele>
        <time>2016-07-27T21:00:06Z</time>
      </trkpt>
      <trkpt lat="42.70405" lon="18.48007">
        <ele>313</ele>
        <time>2016-07-27T21:02:06Z</time>
      </trkpt>
      <trkpt lat="42.70409" lon="18.48013">
        <ele>313</ele>
        <time>2016-07-27T21:04:06Z</time>
      </trkpt>
      <trkpt lat="42.70414" lon="18.4802">
        <ele>314</ele>
        <time>2016-07-27T21:06:06Z</time>
      </trkpt>
      <trkpt lat="42.70419" lon="18.48026">
        <ele>315</ele>
        <time>2016-07-27T21:08:06Z</time>
      </trkpt>
      <trkpt lat="42.70477" lon="18.48099">
        <ele>320</ele>
        <time>2016-07-27T21:10:06Z</time>
      </trkpt>
      <trkpt lat="42.70484" lon="18.48106">
        <ele>319</ele>
        <time>2016-07-27T21:12:06Z</time>
      </trkpt>
      <trkpt lat="42.70491" lon="18.48113">
        <ele>318</ele>
        <time>2016-07-27T21:14:06Z</time>
      </trkpt>
      <trkpt lat="42.70498" lon="18.4812">
        <ele>317</ele>
        <time>2016-07-27T21:16:06Z</time>
      </trkpt>
      <trkpt lat="42.70505" lon="18.48127">
        <ele>317</ele>
        <time>2016-07-27T21:18:06Z</time>
      </trkpt>
      <trkpt lat="42.70512" lon="18.48134">
        <ele>317</ele>
        <time>2016-07-27T21:20:06Z</time>
      </trkpt>
      <trkpt lat="42.70519" lon="18.48141">
        <ele>317</ele>
        <time>2016-07-27T21:22:06Z</time>
      </trkpt>
      <trkpt lat="42.70526" lon="18.48148">
        <ele>317</ele>
        <time>2016-07-27T21:24:06Z</time>
      </trkpt>
      <trkpt lat="42.70534" lon="18.48154">
        <ele>316</ele>
        <time>2016-07-27T21:26:06Z</time>
      </trkpt>
      <trkpt lat="42.70538" lon="18.48157">
        <ele>315</ele>
        <time>2016-07-27T21:28:06Z</time>
      </trkpt>
      <trkpt lat="42.70543" lon="18.4816">
        <ele>314</ele>
        <time>2016-07-27T21:30:06Z</time>
      </trkpt>
      <trkpt lat="42.70548" lon="18.48163">
        <ele>313</ele>
        <time>2016-07-27T21:32:06Z</time>
      </trkpt>
      <trkpt lat="42.70553" lon="18.48166">
        <ele>311</ele>
        <time>2016-07-27T21:34:06Z</time>
      </trkpt>
      <trkpt lat="42.70557" lon="18.48168">
        <ele>311</ele>
        <time>2016-07-27T21:36:06Z</time>
      </trkpt>
      <trkpt lat="42.70563" lon="18.48171">
        <ele>310</ele>
        <time>2016-07-27T21:38:06Z</time>
      </trkpt>
      <trkpt lat="42.70569" lon="18.48173">
        <ele>309</ele>
        <time>2016-07-27T21:40:06Z</time>
      </trkpt>
      <trkpt lat="42.70575" lon="18.48176">
        <ele>308</ele>
        <time>2016-07-27T21:42:06Z</time>
      </trkpt>
      <trkpt lat="42.7058" lon="18.48178">
        <ele>308</ele>
        <time>2016-07-27T21:44:06Z</time>
      </trkpt>
      <trkpt lat="42.70586" lon="18.4818">
        <ele>307</ele>
        <time>2016-07-27T21:46:06Z</time>
      </trkpt>
      <trkpt lat="42.70597" lon="18.48181">
        <ele>308</ele>
        <time>2016-07-27T21:48:06Z</time>
      </trkpt>
      <trkpt lat="42.70607" lon="18.48182">
        <ele>309</ele>
        <time>2016-07-27T21:50:06Z</time>
      </trkpt>
      <trkpt lat="42.70617" lon="18.48182">
        <ele>309</ele>
        <time>2016-07-27T21:52:06Z</time>
      </trkpt>
      <trkpt lat="42.70626" lon="18.48182">
        <ele>310</ele>
        <time>2016-07-27T21:54:06Z</time>
      </trkpt>
      <trkpt lat="42.70634" lon="18.48182">
        <ele>310</ele>
        <time>2016-07-27T21:56:06Z</time>
      </trkpt>
      <trkpt lat="42.70643" lon="18.48182">
        <ele>310</ele>
        <time>2016-07-27T21:58:06Z</time>
      </trkpt>
      <trkpt lat="42.70678" lon="18.48177">
        <ele>309</ele>
        <time>2016-07-27T22:00:06Z</time>
      </trkpt>
      <trkpt lat="42.70731" lon="18.48173">
        <ele>307</ele>
        <time>2016-07-27T22:02:06Z</time>
      </trkpt>
      <trkpt lat="42.70733" lon="18.48172">
        <ele>307</ele>
        <time>2016-07-27T22:04:06Z</time>
      </trkpt>
      <trkpt lat="42.70754" lon="18.48173">
        <ele>308</ele>
        <time>2016-07-27T22:06:06Z</time>
      </trkpt>
      <trkpt lat="42.70772" lon="18.48177">
        <ele>312</ele>
        <time>2016-07-27T22:08:06Z</time>
      </trkpt>
      <trkpt lat="42.70803" lon="18.48184">
        <ele>318</ele>
        <time>2016-07-27T22:10:06Z</time>
      </trkpt>
      <trkpt lat="42.70831" lon="18.48201">
        <ele>324</ele>
        <time>2016-07-27T22:12:06Z</time>
      </trkpt>
      <trkpt lat="42.70835" lon="18.48204">
        <ele>325</ele>
        <time>2016-07-27T22:14:06Z</time>
      </trkpt>
      <trkpt lat="42.70869" lon="18.48286">
        <ele>322</ele>
        <time>2016-07-27T22:16:06Z</time>
      </trkpt>
      <trkpt lat="42.70874" lon="18.48307">
        <ele>319</ele>
        <time>2016-07-27T22:18:06Z</time>
      </trkpt>
      <trkpt lat="42.70879" lon="18.48348">
        <ele>316</ele>
        <time>2016-07-27T22:20:06Z</time>
      </trkpt>
      <trkpt lat="42.70879" lon="18.48351">
        <ele>316</ele>
        <time>2016-07-27T22:22:06Z</time>
      </trkpt>
      <trkpt lat="42.70878" lon="18.48359">
        <ele>316</ele>
        <time>2016-07-27T22:24:06Z</time>
      </trkpt>
      <trkpt lat="42.70878" lon="18.48367">
        <ele>316</ele>
        <time>2016-07-27T22:26:06Z</time>
      </trkpt>
      <trkpt lat="42.70877" lon="18.48386">
        <ele>316</ele>
        <time>2016-07-27T22:28:06Z</time>
      </trkpt>
      <trkpt lat="42.70877" lon="18.48404">
        <ele>316</ele>
        <time>2016-07-27T22:30:06Z</time>
      </trkpt>
      <trkpt lat="42.70877" lon="18.48423">
        <ele>316</ele>
        <time>2016-07-27T22:32:06Z</time>
      </trkpt>
      <trkpt lat="42.70877" lon="18.48442">
        <ele>317</ele>
        <time>2016-07-27T22:34:06Z</time>
      </trkpt>
      <trkpt lat="42.70878" lon="18.4846">
        <ele>317</ele>
        <time>2016-07-27T22:36:06Z</time>
      </trkpt>
      <trkpt lat="42.70878" lon="18.4848">
        <ele>318</ele>
        <time>2016-07-27T22:38:06Z</time>
      </trkpt>
      <trkpt lat="42.70879" lon="18.485">
        <ele>319</ele>
        <time>2016-07-27T22:40:06Z</time>
      </trkpt>
      <trkpt lat="42.7088" lon="18.48509">
        <ele>319</ele>
        <time>2016-07-27T22:42:06Z</time>
      </trkpt>
      <trkpt lat="42.70881" lon="18.48519">
        <ele>318</ele>
        <time>2016-07-27T22:44:06Z</time>
      </trkpt>
      <trkpt lat="42.70882" lon="18.48528">
        <ele>318</ele>
        <time>2016-07-27T22:46:06Z</time>
      </trkpt>
      <trkpt lat="42.70883" lon="18.48537">
        <ele>318</ele>
        <time>2016-07-27T22:48:06Z</time>
      </trkpt>
      <trkpt lat="42.70884" lon="18.48547">
        <ele>317</ele>
        <time>2016-07-27T22:50:06Z</time>
      </trkpt>
      <trkpt lat="42.70886" lon="18.48557">
        <ele>316</ele>
        <time>2016-07-27T22:52:06Z</time>
      </trkpt>
      <trkpt lat="42.70888" lon="18.48568">
        <ele>316</ele>
        <time>2016-07-27T22:54:06Z</time>
      </trkpt>
      <trkpt lat="42.7089" lon="18.48579">
        <ele>315</ele>
        <time>2016-07-27T22:56:06Z</time>
      </trkpt>
      <trkpt lat="42.70892" lon="18.48588">
        <ele>313</ele>
        <time>2016-07-27T22:58:06Z</time>
      </trkpt>
      <trkpt lat="42.70894" lon="18.48598">
        <ele>312</ele>
        <time>2016-07-27T23:00:06Z</time>
      </trkpt>
      <trkpt lat="42.70895" lon="18.48608">
        <ele>311</ele>
        <time>2016-07-27T23:02:06Z</time>
      </trkpt>
      <trkpt lat="42.70896" lon="18.48617">
        <ele>310</ele>
        <time>2016-07-27T23:04:06Z</time>
      </trkpt>
      <trkpt lat="42.70898" lon="18.48627">
        <ele>309</ele>
        <time>2016-07-27T23:06:06Z</time>
      </trkpt>
      <trkpt lat="42.70899" lon="18.48637">
        <ele>309</ele>
        <time>2016-07-27T23:08:06Z</time>
      </trkpt>
      <trkpt lat="42.709" lon="18.48647">
        <ele>308</ele>
        <time>2016-07-27T23:10:06Z</time>
      </trkpt>
      <trkpt lat="42.70901" lon="18.48657">
        <ele>307</ele>
        <time>2016-07-27T23:12:06Z</time>
      </trkpt>
      <trkpt lat="42.70901" lon="18.48667">
        <ele>307</ele>
        <time>2016-07-27T23:14:06Z</time>
      </trkpt>
      <trkpt lat="42.70902" lon="18.48677">
        <ele>307</ele>
        <time>2016-07-27T23:16:06Z</time>
      </trkpt>
      <trkpt lat="42.70897" lon="18.48829">
        <ele>307</ele>
        <time>2016-07-27T23:18:06Z</time>
      </trkpt>
      <trkpt lat="42.70897" lon="18.48876">
        <ele>308</ele>
        <time>2016-07-27T23:20:06Z</time>
      </trkpt>
      <trkpt lat="42.70897" lon="18.48885">
        <ele>308</ele>
        <time>2016-07-27T23:22:06Z</time>
      </trkpt>
      <trkpt lat="42.70897" lon="18.48893">
        <ele>309</ele>
        <time>2016-07-27T23:24:06Z</time>
      </trkpt>
      <trkpt lat="42.70898" lon="18.48902">
        <ele>309</ele>
        <time>2016-07-27T23:26:06Z</time>
      </trkpt>
      <trkpt lat="42.70898" lon="18.48911">
        <ele>309</ele>
        <time>2016-07-27T23:28:06Z</time>
      </trkpt>
      <trkpt lat="42.70899" lon="18.48922">
        <ele>309</ele>
        <time>2016-07-27T23:30:06Z</time>
      </trkpt>
      <trkpt lat="42.709" lon="18.48933">
        <ele>308</ele>
        <time>2016-07-27T23:32:06Z</time>
      </trkpt>
      <trkpt lat="42.70901" lon="18.48944">
        <ele>308</ele>
        <time>2016-07-27T23:34:06Z</time>
      </trkpt>
      <trkpt lat="42.70902" lon="18.48955">
        <ele>308</ele>
        <time>2016-07-27T23:36:06Z</time>
      </trkpt>
      <trkpt lat="42.70904" lon="18.48966">
        <ele>308</ele>
        <time>2016-07-27T23:38:06Z</time>
      </trkpt>
      <trkpt lat="42.70906" lon="18.48977">
        <ele>307</ele>
        <time>2016-07-27T23:40:06Z</time>
      </trkpt>
      <trkpt lat="42.70907" lon="18.48988">
        <ele>307</ele>
        <time>2016-07-27T23:42:06Z</time>
      </trkpt>
      <trkpt lat="42.70909" lon="18.48999">
        <ele>307</ele>
        <time>2016-07-27T23:44:06Z</time>
      </trkpt>
      <trkpt lat="42.7091" lon="18.4901">
        <ele>307</ele>
        <time>2016-07-27T23:46:06Z</time>
      </trkpt>
      <trkpt lat="42.70911" lon="18.49021">
        <ele>308</ele>
        <time>2016-07-27T23:48:06Z</time>
      </trkpt>
      <trkpt lat="42.70913" lon="18.49032">
        <ele>308</ele>
        <time>2016-07-27T23:50:06Z</time>
      </trkpt>
      <trkpt lat="42.70914" lon="18.49044">
        <ele>308</ele>
        <time>2016-07-27T23:52:06Z</time>
      </trkpt>
      <trkpt lat="42.70915" lon="18.49055">
        <ele>308</ele>
        <time>2016-07-27T23:54:06Z</time>
      </trkpt>
      <trkpt lat="42.70916" lon="18.49068">
        <ele>309</ele>
        <time>2016-07-27T23:56:06Z</time>
      </trkpt>
      <trkpt lat="42.70916" lon="18.49081">
        <ele>309</ele>
        <time>2016-07-27T23:58:06Z</time>
      </trkpt>
      <trkpt lat="42.70917" lon="18.49093">
        <ele>309</ele>
        <time>2016-07-28T00:00:06Z</time>
      </trkpt>
      <trkpt lat="42.70917" lon="18.49106">
        <ele>308</ele>
        <time>2016-07-28T00:02:06Z</time>
      </trkpt>
      <trkpt lat="42.70918" lon="18.49119">
        <ele>308</ele>
        <time>2016-07-28T00:04:06Z</time>
      </trkpt>
      <trkpt lat="42.70918" lon="18.49132">
        <ele>307</ele>
        <time>2016-07-28T00:06:06Z</time>
      </trkpt>
      <trkpt lat="42.70918" lon="18.49145">
        <ele>307</ele>
        <time>2016-07-28T00:08:06Z</time>
      </trkpt>
      <trkpt lat="42.70918" lon="18.49158">
        <ele>306</ele>
        <time>2016-07-28T00:10:06Z</time>
      </trkpt>
      <trkpt lat="42.70918" lon="18.49172">
        <ele>306</ele>
        <time>2016-07-28T00:12:06Z</time>
      </trkpt>
      <trkpt lat="42.70918" lon="18.49186">
        <ele>306</ele>
        <time>2016-07-28T00:14:06Z</time>
      </trkpt>
      <trkpt lat="42.70918" lon="18.49199">
        <ele>306</ele>
        <time>2016-07-28T00:16:06Z</time>
      </trkpt>
      <trkpt lat="42.70917" lon="18.49213">
        <ele>306</ele>
        <time>2016-07-28T00:18:06Z</time>
      </trkpt>
      <trkpt lat="42.70917" lon="18.49227">
        <ele>306</ele>
        <time>2016-07-28T00:20:06Z</time>
      </trkpt>
      <trkpt lat="42.70908" lon="18.49298">
        <ele>308</ele>
        <time>2016-07-28T00:22:06Z</time>
      </trkpt>
      <trkpt lat="42.70907" lon="18.49309">
        <ele>308</ele>
        <time>2016-07-28T00:24:06Z</time>
      </trkpt>
      <trkpt lat="42.70905" lon="18.4932">
        <ele>308</ele>
        <time>2016-07-28T00:26:06Z</time>
      </trkpt>
      <trkpt lat="42.70903" lon="18.49331">
        <ele>308</ele>
        <time>2016-07-28T00:28:06Z</time>
      </trkpt>
      <trkpt lat="42.70901" lon="18.49342">
        <ele>308</ele>
        <time>2016-07-28T00:30:06Z</time>
      </trkpt>
      <trkpt lat="42.70899" lon="18.49353">
        <ele>308</ele>
        <time>2016-07-28T00:32:06Z</time>
      </trkpt>
      <trkpt lat="42.70896" lon="18.49364">
        <ele>309</ele>
        <time>2016-07-28T00:34:06Z</time>
      </trkpt>
      <trkpt lat="42.70894" lon="18.49375">
        <ele>309</ele>
        <time>2016-07-28T00:36:06Z</time>
      </trkpt>
      <trkpt lat="42.70891" lon="18.49386">
        <ele>309</ele>
        <time>2016-07-28T00:38:06Z</time>
      </trkpt>
      <trkpt lat="42.70889" lon="18.49394">
        <ele>309</ele>
        <time>2016-07-28T00:40:06Z</time>
      </trkpt>
      <trkpt lat="42.70886" lon="18.49403">
        <ele>309</ele>
        <time>2016-07-28T00:42:06Z</time>
      </trkpt>
      <trkpt lat="42.70884" lon="18.49412">
        <ele>309</ele>
        <time>2016-07-28T00:44:06Z</time>
      </trkpt>
      <trkpt lat="42.70881" lon="18.4942">
        <ele>309</ele>
        <time>2016-07-28T00:46:06Z</time>
      </trkpt>
      <trkpt lat="42.70878" lon="18.4943">
        <ele>308</ele>
        <time>2016-07-28T00:48:06Z</time>
      </trkpt>
      <trkpt lat="42.70875" lon="18.4944">
        <ele>308</ele>
        <time>2016-07-28T00:50:06Z</time>
      </trkpt>
      <trkpt lat="42.70872" lon="18.4945">
        <ele>308</ele>
        <time>2016-07-28T00:52:06Z</time>
      </trkpt>
      <trkpt lat="42.70869" lon="18.4946">
        <ele>308</ele>
        <time>2016-07-28T00:54:06Z</time>
      </trkpt>
      <trkpt lat="42.70866" lon="18.4947">
        <ele>307</ele>
        <time>2016-07-28T00:56:06Z</time>
      </trkpt>
      <trkpt lat="42.70862" lon="18.4948">
        <ele>307</ele>
        <time>2016-07-28T00:58:06Z</time>
      </trkpt>
      <trkpt lat="42.70859" lon="18.49489">
        <ele>307</ele>
        <time>2016-07-28T01:00:06Z</time>
      </trkpt>
      <trkpt lat="42.70855" lon="18.49498">
        <ele>307</ele>
        <time>2016-07-28T01:02:06Z</time>
      </trkpt>
      <trkpt lat="42.70852" lon="18.49507">
        <ele>307</ele>
        <time>2016-07-28T01:04:06Z</time>
      </trkpt>
      <trkpt lat="42.70848" lon="18.49516">
        <ele>307</ele>
        <time>2016-07-28T01:06:06Z</time>
      </trkpt>
      <trkpt lat="42.70844" lon="18.49525">
        <ele>308</ele>
        <time>2016-07-28T01:08:06Z</time>
      </trkpt>
      <trkpt lat="42.70839" lon="18.49535">
        <ele>308</ele>
        <time>2016-07-28T01:10:06Z</time>
      </trkpt>
      <trkpt lat="42.70834" lon="18.49546">
        <ele>308</ele>
        <time>2016-07-28T01:12:06Z</time>
      </trkpt>
      <trkpt lat="42.70829" lon="18.49556">
        <ele>309</ele>
        <time>2016-07-28T01:14:06Z</time>
      </trkpt>
      <trkpt lat="42.70824" lon="18.49567">
        <ele>310</ele>
        <time>2016-07-28T01:16:06Z</time>
      </trkpt>
      <trkpt lat="42.70818" lon="18.49577">
        <ele>311</ele>
        <time>2016-07-28T01:18:06Z</time>
      </trkpt>
      <trkpt lat="42.70813" lon="18.49587">
        <ele>312</ele>
        <time>2016-07-28T01:20:06Z</time>
      </trkpt>
      <trkpt lat="42.70808" lon="18.49595">
        <ele>312</ele>
        <time>2016-07-28T01:22:06Z</time>
      </trkpt>
      <trkpt lat="42.70804" lon="18.49603">
        <ele>313</ele>
        <time>2016-07-28T01:24:06Z</time>
      </trkpt>
      <trkpt lat="42.70799" lon="18.49611">
        <ele>313</ele>
        <time>2016-07-28T01:26:06Z</time>
      </trkpt>
      <trkpt lat="42.70741" lon="18.49704">
        <ele>316</ele>
        <time>2016-07-28T01:28:06Z</time>
      </trkpt>
      <trkpt lat="42.70736" lon="18.49712">
        <ele>317</ele>
        <time>2016-07-28T01:30:06Z</time>
      </trkpt>
      <trkpt lat="42.7073" lon="18.4972">
        <ele>318</ele>
        <time>2016-07-28T01:32:06Z</time>
      </trkpt>
      <trkpt lat="42.70725" lon="18.49728">
        <ele>318</ele>
        <time>2016-07-28T01:34:06Z</time>
      </trkpt>
      <trkpt lat="42.7072" lon="18.49737">
        <ele>318</ele>
        <time>2016-07-28T01:36:06Z</time>
      </trkpt>
      <trkpt lat="42.70714" lon="18.49745">
        <ele>319</ele>
        <time>2016-07-28T01:38:06Z</time>
      </trkpt>
      <trkpt lat="42.70709" lon="18.49753">
        <ele>319</ele>
        <time>2016-07-28T01:40:06Z</time>
      </trkpt>
      <trkpt lat="42.70705" lon="18.49762">
        <ele>319</ele>
        <time>2016-07-28T01:42:06Z</time>
      </trkpt>
      <trkpt lat="42.707" lon="18.49771">
        <ele>319</ele>
        <time>2016-07-28T01:44:06Z</time>
      </trkpt>
      <trkpt lat="42.70695" lon="18.49779">
        <ele>320</ele>
        <time>2016-07-28T01:46:06Z</time>
      </trkpt>
      <trkpt lat="42.7069" lon="18.49788">
        <ele>319</ele>
        <time>2016-07-28T01:48:06Z</time>
      </trkpt>
      <trkpt lat="42.70686" lon="18.49796">
        <ele>319</ele>
        <time>2016-07-28T01:50:06Z</time>
      </trkpt>
      <trkpt lat="42.70683" lon="18.49804">
        <ele>319</ele>
        <time>2016-07-28T01:52:06Z</time>
      </trkpt>
      <trkpt lat="42.70679" lon="18.49812">
        <ele>318</ele>
        <time>2016-07-28T01:54:06Z</time>
      </trkpt>
      <trkpt lat="42.70654" lon="18.49878">
        <ele>318</ele>
        <time>2016-07-28T01:56:06Z</time>
      </trkpt>
      <trkpt lat="42.70649" lon="18.49888">
        <ele>319</ele>
        <time>2016-07-28T01:58:06Z</time>
      </trkpt>
      <trkpt lat="42.70645" lon="18.49898">
        <ele>319</ele>
        <time>2016-07-28T02:00:06Z</time>
      </trkpt>
      <trkpt lat="42.7064" lon="18.49909">
        <ele>319</ele>
        <time>2016-07-28T02:02:06Z</time>
      </trkpt>
      <trkpt lat="42.70636" lon="18.49919">
        <ele>319</ele>
        <time>2016-07-28T02:04:06Z</time>
      </trkpt>
      <trkpt lat="42.70631" lon="18.49929">
        <ele>319</ele>
        <time>2016-07-28T02:06:06Z</time>
      </trkpt>
      <trkpt lat="42.70627" lon="18.49938">
        <ele>319</ele>
        <time>2016-07-28T02:08:06Z</time>
      </trkpt>
      <trkpt lat="42.70622" lon="18.49947">
        <ele>319</ele>
        <time>2016-07-28T02:10:06Z</time>
      </trkpt>
      <trkpt lat="42.70591" lon="18.50005">
        <ele>314</ele>
        <time>2016-07-28T02:12:06Z</time>
      </trkpt>
      <trkpt lat="42.70588" lon="18.50008">
        <ele>314</ele>
        <time>2016-07-28T02:14:06Z</time>
      </trkpt>
      <trkpt lat="42.70586" lon="18.50012">
        <ele>314</ele>
        <time>2016-07-28T02:16:06Z</time>
      </trkpt>
      <trkpt lat="42.70583" lon="18.50015">
        <ele>314</ele>
        <time>2016-07-28T02:18:06Z</time>
      </trkpt>
      <trkpt lat="42.70581" lon="18.50018">
        <ele>315</ele>
        <time>2016-07-28T02:20:06Z</time>
      </trkpt>
      <trkpt lat="42.70578" lon="18.50021">
        <ele>316</ele>
        <time>2016-07-28T02:22:06Z</time>
      </trkpt>
      <trkpt lat="42.70576" lon="18.50024">
        <ele>316</ele>
        <time>2016-07-28T02:24:06Z</time>
      </trkpt>
      <trkpt lat="42.70573" lon="18.50027">
        <ele>317</ele>
        <time>2016-07-28T02:26:06Z</time>
      </trkpt>
      <trkpt lat="42.7057" lon="18.5003">
        <ele>318</ele>
        <time>2016-07-28T02:28:06Z</time>
      </trkpt>
      <trkpt lat="42.70566" lon="18.50033">
        <ele>319</ele>
        <time>2016-07-28T02:30:06Z</time>
      </trkpt>
      <trkpt lat="42.70563" lon="18.50036">
        <ele>320</ele>
        <time>2016-07-28T02:32:06Z</time>
      </trkpt>
      <trkpt lat="42.70559" lon="18.50039">
        <ele>321</ele>
        <time>2016-07-28T02:34:06Z</time>
      </trkpt>
      <trkpt lat="42.70557" lon="18.50042">
        <ele>321</ele>
        <time>2016-07-28T02:36:06Z</time>
      </trkpt>
      <trkpt lat="42.70555" lon="18.50044">
        <ele>322</ele>
        <time>2016-07-28T02:38:06Z</time>
      </trkpt>
      <trkpt lat="42.7055" lon="18.5005">
        <ele>323</ele>
        <time>2016-07-28T02:40:06Z</time>
      </trkpt>
      <trkpt lat="42.70545" lon="18.50055">
        <ele>323</ele>
        <time>2016-07-28T02:42:06Z</time>
      </trkpt>
      <trkpt lat="42.70541" lon="18.50061">
        <ele>324</ele>
        <time>2016-07-28T02:44:06Z</time>
      </trkpt>
      <trkpt lat="42.70537" lon="18.50067">
        <ele>324</ele>
        <time>2016-07-28T02:46:06Z</time>
      </trkpt>
      <trkpt lat="42.70532" lon="18.50073">
        <ele>324</ele>
        <time>2016-07-28T02:48:06Z</time>
      </trkpt>
      <trkpt lat="42.70528" lon="18.50079">
        <ele>324</ele>
        <time>2016-07-28T02:50:06Z</time>
      </trkpt>
      <trkpt lat="42.70525" lon="18.50084">
        <ele>324</ele>
        <time>2016-07-28T02:52:06Z</time>
      </trkpt>
      <trkpt lat="42.70521" lon="18.5009">
        <ele>324</ele>
        <time>2016-07-28T02:54:06Z</time>
      </trkpt>
      <trkpt lat="42.70518" lon="18.50096">
        <ele>324</ele>
        <time>2016-07-28T02:56:06Z</time>
      </trkpt>
      <trkpt lat="42.70514" lon="18.50101">
        <ele>324</ele>
        <time>2016-07-28T02:58:06Z</time>
      </trkpt>
      <trkpt lat="42.70488" lon="18.50147">
        <ele>325</ele>
        <time>2016-07-28T03:00:06Z</time>
      </trkpt>
      <trkpt lat="42.70485" lon="18.50153">
        <ele>326</ele>
        <time>2016-07-28T03:02:06Z</time>
      </trkpt>
      <trkpt lat="42.70482" lon="18.50159">
        <ele>326</ele>
        <time>2016-07-28T03:04:06Z</time>
      </trkpt>
      <trkpt lat="42.7048" lon="18.50165">
        <ele>327</ele>
        <time>2016-07-28T03:06:06Z</time>
      </trkpt>
      <trkpt lat="42.70478" lon="18.50171">
        <ele>327</ele>
        <time>2016-07-28T03:08:06Z</time>
      </trkpt>
      <trkpt lat="42.70476" lon="18.50178">
        <ele>327</ele>
        <time>2016-07-28T03:10:06Z</time>
      </trkpt>
      <trkpt lat="42.70475" lon="18.50184">
        <ele>327</ele>
        <time>2016-07-28T03:12:06Z</time>
      </trkpt>
      <trkpt lat="42.70473" lon="18.50191">
        <ele>328</ele>
        <time>2016-07-28T03:14:06Z</time>
      </trkpt>
      <trkpt lat="42.70472" lon="18.50198">
        <ele>327</ele>
        <time>2016-07-28T03:16:06Z</time>
      </trkpt>
      <trkpt lat="42.70471" lon="18.50204">
        <ele>327</ele>
        <time>2016-07-28T03:18:06Z</time>
      </trkpt>
      <trkpt lat="42.70456" lon="18.50295">
        <ele>325</ele>
        <time>2016-07-28T03:20:06Z</time>
      </trkpt>
      <trkpt lat="42.70456" lon="18.50298">
        <ele>325</ele>
        <time>2016-07-28T03:22:06Z</time>
      </trkpt>
      <trkpt lat="42.70455" lon="18.50302">
        <ele>325</ele>
        <time>2016-07-28T03:24:06Z</time>
      </trkpt>
      <trkpt lat="42.70455" lon="18.50306">
        <ele>325</ele>
        <time>2016-07-28T03:26:06Z</time>
      </trkpt>
      <trkpt lat="42.70455" lon="18.5031">
        <ele>325</ele>
        <time>2016-07-28T03:28:06Z</time>
      </trkpt>
      <trkpt lat="42.70456" lon="18.50314">
        <ele>324</ele>
        <time>2016-07-28T03:30:06Z</time>
      </trkpt>
      <trkpt lat="42.70456" lon="18.50318">
        <ele>324</ele>
        <time>2016-07-28T03:32:06Z</time>
      </trkpt>
      <trkpt lat="42.70457" lon="18.50322">
        <ele>323</ele>
        <time>2016-07-28T03:34:06Z</time>
      </trkpt>
      <trkpt lat="42.70457" lon="18.50325">
        <ele>323</ele>
        <time>2016-07-28T03:36:06Z</time>
      </trkpt>
      <trkpt lat="42.70458" lon="18.50329">
        <ele>322</ele>
        <time>2016-07-28T03:38:06Z</time>
      </trkpt>
      <trkpt lat="42.70459" lon="18.50333">
        <ele>322</ele>
        <time>2016-07-28T03:40:06Z</time>
      </trkpt>
      <trkpt lat="42.7046" lon="18.50336">
        <ele>321</ele>
        <time>2016-07-28T03:42:06Z</time>
      </trkpt>
      <trkpt lat="42.70461" lon="18.5034">
        <ele>321</ele>
        <time>2016-07-28T03:44:06Z</time>
      </trkpt>
      <trkpt lat="42.70462" lon="18.50343">
        <ele>320</ele>
        <time>2016-07-28T03:46:06Z</time>
      </trkpt>
      <trkpt lat="42.70474" lon="18.50359">
        <ele>315</ele>
        <time>2016-07-28T03:48:06Z</time>
      </trkpt>
      <trkpt lat="42.70497" lon="18.50381">
        <ele>308</ele>
        <time>2016-07-28T03:50:06Z</time>
      </trkpt>
      <trkpt lat="42.70536" lon="18.50418">
        <ele>312</ele>
        <time>2016-07-28T03:52:06Z</time>
      </trkpt>
      <trkpt lat="42.70537" lon="18.50422">
        <ele>313</ele>
        <time>2016-07-28T03:54:06Z</time>
      </trkpt>
      <trkpt lat="42.70539" lon="18.50425">
        <ele>314</ele>
        <time>2016-07-28T03:56:06Z</time>
      </trkpt>
      <trkpt lat="42.7054" lon="18.50429">
        <ele>314</ele>
        <time>2016-07-28T03:58:06Z</time>
      </trkpt>
      <trkpt lat="42.70541" lon="18.50433">
        <ele>315</ele>
        <time>2016-07-28T04:00:06Z</time>
      </trkpt>
      <trkpt lat="42.70542" lon="18.50437">
        <ele>315</ele>
        <time>2016-07-28T04:02:06Z</time>
      </trkpt>
      <trkpt lat="42.70543" lon="18.50441">
        <ele>316</ele>
        <time>2016-07-28T04:04:06Z</time>
      </trkpt>
      <trkpt lat="42.70544" lon="18.50445">
        <ele>316</ele>
        <time>2016-07-28T04:06:06Z</time>
      </trkpt>
      <trkpt lat="42.70545" lon="18.50449">
        <ele>317</ele>
        <time>2016-07-28T04:08:06Z</time>
      </trkpt>
      <trkpt lat="42.70545" lon="18.50452">
        <ele>317</ele>
        <time>2016-07-28T04:10:06Z</time>
      </trkpt>
      <trkpt lat="42.70546" lon="18.50456">
        <ele>318</ele>
        <time>2016-07-28T04:12:06Z</time>
      </trkpt>
      <trkpt lat="42.70546" lon="18.50459">
        <ele>318</ele>
        <time>2016-07-28T04:14:06Z</time>
      </trkpt>
      <trkpt lat="42.70546" lon="18.50463">
        <ele>319</ele>
        <time>2016-07-28T04:16:06Z</time>
      </trkpt>
      <trkpt lat="42.70546" lon="18.50467">
        <ele>319</ele>
        <time>2016-07-28T04:18:06Z</time>
      </trkpt>
      <trkpt lat="42.70546" lon="18.5047">
        <ele>320</ele>
        <time>2016-07-28T04:20:06Z</time>
      </trkpt>
      <trkpt lat="42.70544" lon="18.50478">
        <ele>320</ele>
        <time>2016-07-28T04:22:06Z</time>
      </trkpt>
      <trkpt lat="42.70542" lon="18.50485">
        <ele>320</ele>
        <time>2016-07-28T04:24:06Z</time>
      </trkpt>
      <trkpt lat="42.70539" lon="18.50492">
        <ele>321</ele>
        <time>2016-07-28T04:26:06Z</time>
      </trkpt>
      <trkpt lat="42.70537" lon="18.50499">
        <ele>321</ele>
        <time>2016-07-28T04:28:06Z</time>
      </trkpt>
      <trkpt lat="42.70535" lon="18.50505">
        <ele>321</ele>
        <time>2016-07-28T04:30:06Z</time>
      </trkpt>
      <trkpt lat="42.70532" lon="18.50511">
        <ele>321</ele>
        <time>2016-07-28T04:32:06Z</time>
      </trkpt>
      <trkpt lat="42.7053" lon="18.50517">
        <ele>321</ele>
        <time>2016-07-28T04:34:06Z</time>
      </trkpt>
      <trkpt lat="42.70527" lon="18.50522">
        <ele>321</ele>
        <time>2016-07-28T04:36:06Z</time>
      </trkpt>
      <trkpt lat="42.7052" lon="18.50538">
        <ele>320</ele>
        <time>2016-07-28T04:38:06Z</time>
      </trkpt>
      <trkpt lat="42.70513" lon="18.50555">
        <ele>320</ele>
        <time>2016-07-28T04:40:06Z</time>
      </trkpt>
      <trkpt lat="42.70511" lon="18.50559">
        <ele>320</ele>
        <time>2016-07-28T04:42:06Z</time>
      </trkpt>
      <trkpt lat="42.7051" lon="18.50563">
        <ele>320</ele>
        <time>2016-07-28T04:44:06Z</time>
      </trkpt>
      <trkpt lat="42.70508" lon="18.50568">
        <ele>320</ele>
        <time>2016-07-28T04:46:06Z</time>
      </trkpt>
      <trkpt lat="42.70507" lon="18.50572">
        <ele>320</ele>
        <time>2016-07-28T04:48:06Z</time>
      </trkpt>
      <trkpt lat="42.70506" lon="18.50576">
        <ele>320</ele>
        <time>2016-07-28T04:50:06Z</time>
      </trkpt>
      <trkpt lat="42.70504" lon="18.50581">
        <ele>320</ele>
        <time>2016-07-28T04:52:06Z</time>
      </trkpt>
      <trkpt lat="42.70503" lon="18.50585">
        <ele>320</ele>
        <time>2016-07-28T04:54:06Z</time>
      </trkpt>
      <trkpt lat="42.70502" lon="18.5059">
        <ele>320</ele>
        <time>2016-07-28T04:56:06Z</time>
      </trkpt>
      <trkpt lat="42.70502" lon="18.50594">
        <ele>321</ele>
        <time>2016-07-28T04:58:06Z</time>
      </trkpt>
      <trkpt lat="42.70501" lon="18.50599">
        <ele>321</ele>
        <time>2016-07-28T05:00:06Z</time>
      </trkpt>
      <trkpt lat="42.705" lon="18.50603">
        <ele>322</ele>
        <time>2016-07-28T05:02:06Z</time>
      </trkpt>
      <trkpt lat="42.70499" lon="18.50607">
        <ele>322</ele>
        <time>2016-07-28T05:04:06Z</time>
      </trkpt>
      <trkpt lat="42.70498" lon="18.50611">
        <ele>322</ele>
        <time>2016-07-28T05:06:06Z</time>
      </trkpt>
      <trkpt lat="42.70497" lon="18.50615">
        <ele>323</ele>
        <time>2016-07-28T05:08:06Z</time>
      </trkpt>
      <trkpt lat="42.70496" lon="18.5062">
        <ele>323</ele>
        <time>2016-07-28T05:10:06Z</time>
      </trkpt>
      <trkpt lat="42.70494" lon="18.50624">
        <ele>323</ele>
        <time>2016-07-28T05:12:06Z</time>
      </trkpt>
      <trkpt lat="42.70492" lon="18.50628">
        <ele>324</ele>
        <time>2016-07-28T05:14:06Z</time>
      </trkpt>
      <trkpt lat="42.7049" lon="18.50633">
        <ele>324</ele>
        <time>2016-07-28T05:16:06Z</time>
      </trkpt>
      <trkpt lat="42.70486" lon="18.50637">
        <ele>324</ele>
        <time>2016-07-28T05:18:06Z</time>
      </trkpt>
      <trkpt lat="42.70482" lon="18.50642">
        <ele>323</ele>
        <time>2016-07-28T05:20:06Z</time>
      </trkpt>
      <trkpt lat="42.70478" lon="18.50646">
        <ele>323</ele>
        <time>2016-07-28T05:22:06Z</time>
      </trkpt>
      <trkpt lat="42.70474" lon="18.50651">
        <ele>323</ele>
        <time>2016-07-28T05:24:06Z</time>
      </trkpt>
      <trkpt lat="42.7047" lon="18.50655">
        <ele>322</ele>
        <time>2016-07-28T05:26:06Z</time>
      </trkpt>
      <trkpt lat="42.70466" lon="18.50658">
        <ele>322</ele>
        <time>2016-07-28T05:28:06Z</time>
      </trkpt>
      <trkpt lat="42.70463" lon="18.50662">
        <ele>322</ele>
        <time>2016-07-28T05:30:06Z</time>
      </trkpt>
      <trkpt lat="42.7046" lon="18.50665">
        <ele>321</ele>
        <time>2016-07-28T05:32:06Z</time>
      </trkpt>
      <trkpt lat="42.70458" lon="18.50668">
        <ele>321</ele>
        <time>2016-07-28T05:34:06Z</time>
      </trkpt>
      <trkpt lat="42.70455" lon="18.50672">
        <ele>321</ele>
        <time>2016-07-28T05:36:06Z</time>
      </trkpt>
      <trkpt lat="42.70453" lon="18.50676">
        <ele>321</ele>
        <time>2016-07-28T05:38:06Z</time>
      </trkpt>
      <trkpt lat="42.70451" lon="18.50679">
        <ele>322</ele>
        <time>2016-07-28T05:40:06Z</time>
      </trkpt>
      <trkpt lat="42.70449" lon="18.50683">
        <ele>322</ele>
        <time>2016-07-28T05:42:06Z</time>
      </trkpt>
      <trkpt lat="42.70446" lon="18.50687">
        <ele>322</ele>
        <time>2016-07-28T05:44:06Z</time>
      </trkpt>
      <trkpt lat="42.70445" lon="18.50691">
        <ele>322</ele>
        <time>2016-07-28T05:46:06Z</time>
      </trkpt>
      <trkpt lat="42.70443" lon="18.50696">
        <ele>322</ele>
        <time>2016-07-28T05:48:06Z</time>
      </trkpt>
      <trkpt lat="42.70441" lon="18.507">
        <ele>323</ele>
        <time>2016-07-28T05:50:06Z</time>
      </trkpt>
      <trkpt lat="42.70439" lon="18.50704">
        <ele>323</ele>
        <time>2016-07-28T05:52:06Z</time>
      </trkpt>
      <trkpt lat="42.70438" lon="18.50709">
        <ele>323</ele>
        <time>2016-07-28T05:54:06Z</time>
      </trkpt>
      <trkpt lat="42.70437" lon="18.50716">
        <ele>324</ele>
        <time>2016-07-28T05:56:06Z</time>
      </trkpt>
      <trkpt lat="42.70435" lon="18.50723">
        <ele>325</ele>
        <time>2016-07-28T05:58:06Z</time>
      </trkpt>
      <trkpt lat="42.70434" lon="18.5073">
        <ele>325</ele>
        <time>2016-07-28T06:00:06Z</time>
      </trkpt>
      <trkpt lat="42.70433" lon="18.50737">
        <ele>326</ele>
        <time>2016-07-28T06:02:06Z</time>
      </trkpt>
      <trkpt lat="42.70432" lon="18.50743">
        <ele>327</ele>
        <time>2016-07-28T06:04:06Z</time>
      </trkpt>
      <trkpt lat="42.70431" lon="18.5075">
        <ele>327</ele>
        <time>2016-07-28T06:06:06Z</time>
      </trkpt>
      <trkpt lat="42.7043" lon="18.50757">
        <ele>327</ele>
        <time>2016-07-28T06:08:06Z</time>
      </trkpt>
      <trkpt lat="42.7043" lon="18.50763">
        <ele>327</ele>
        <time>2016-07-28T06:10:06Z</time>
      </trkpt>
      <trkpt lat="42.70429" lon="18.5077">
        <ele>326</ele>
        <time>2016-07-28T06:12:06Z</time>
      </trkpt>
      <trkpt lat="42.70429" lon="18.50779">
        <ele>326</ele>
        <time>2016-07-28T06:14:06Z</time>
      </trkpt>
      <trkpt lat="42.70428" lon="18.50788">
        <ele>325</ele>
        <time>2016-07-28T06:16:06Z</time>
      </trkpt>
      <trkpt lat="42.70428" lon="18.50796">
        <ele>325</ele>
        <time>2016-07-28T06:18:06Z</time>
      </trkpt>
      <trkpt lat="42.70428" lon="18.50805">
        <ele>325</ele>
        <time>2016-07-28T06:20:06Z</time>
      </trkpt>
      <trkpt lat="42.70427" lon="18.50814">
        <ele>324</ele>
        <time>2016-07-28T06:22:06Z</time>
      </trkpt>
      <trkpt lat="42.70427" lon="18.50822">
        <ele>324</ele>
        <time>2016-07-28T06:24:06Z</time>
      </trkpt>
      <trkpt lat="42.70428" lon="18.5083">
        <ele>324</ele>
        <time>2016-07-28T06:26:06Z</time>
      </trkpt>
      <trkpt lat="42.70428" lon="18.50839">
        <ele>324</ele>
        <time>2016-07-28T06:28:06Z</time>
      </trkpt>
      <trkpt lat="42.70428" lon="18.50847">
        <ele>323</ele>
        <time>2016-07-28T06:30:06Z</time>
      </trkpt>
      <trkpt lat="42.70429" lon="18.50855">
        <ele>323</ele>
        <time>2016-07-28T06:32:06Z</time>
      </trkpt>
      <trkpt lat="42.70431" lon="18.50883">
        <ele>322</ele>
        <time>2016-07-28T06:34:06Z</time>
      </trkpt>
      <trkpt lat="42.70437" lon="18.5095">
        <ele>325</ele>
        <time>2016-07-28T06:36:06Z</time>
      </trkpt>
      <trkpt lat="42.70438" lon="18.5096">
        <ele>326</ele>
        <time>2016-07-28T06:38:06Z</time>
      </trkpt>
      <trkpt lat="42.70438" lon="18.5097">
        <ele>327</ele>
        <time>2016-07-28T06:40:06Z</time>
      </trkpt>
      <trkpt lat="42.70438" lon="18.5098">
        <ele>328</ele>
        <time>2016-07-28T06:42:06Z</time>
      </trkpt>
      <trkpt lat="42.70439" lon="18.50989">
        <ele>329</ele>
        <time>2016-07-28T06:44:06Z</time>
      </trkpt>
      <trkpt lat="42.70439" lon="18.50999">
        <ele>330</ele>
        <time>2016-07-28T06:46:06Z</time>
      </trkpt>
      <trkpt lat="42.70438" lon="18.51009">
        <ele>330</ele>
        <time>2016-07-28T06:48:06Z</time>
      </trkpt>
      <trkpt lat="42.70438" lon="18.51019">
        <ele>331</ele>
        <time>2016-07-28T06:50:06Z</time>
      </trkpt>
      <trkpt lat="42.70438" lon="18.51029">
        <ele>331</ele>
        <time>2016-07-28T06:52:06Z</time>
      </trkpt>
      <trkpt lat="42.70437" lon="18.51039">
        <ele>331</ele>
        <time>2016-07-28T06:54:06Z</time>
      </trkpt>
      <trkpt lat="42.70436" lon="18.51049">
        <ele>331</ele>
        <time>2016-07-28T06:56:06Z</time>
      </trkpt>
      <trkpt lat="42.70436" lon="18.51059">
        <ele>332</ele>
        <time>2016-07-28T06:58:06Z</time>
      </trkpt>
      <trkpt lat="42.70435" lon="18.51068">
        <ele>332</ele>
        <time>2016-07-28T07:00:06Z</time>
      </trkpt>
      <trkpt lat="42.70411" lon="18.51221">
        <ele>337</ele>
        <time>2016-07-28T07:02:06Z</time>
      </trkpt>
      <trkpt lat="42.70409" lon="18.51231">
        <ele>338</ele>
        <time>2016-07-28T07:04:06Z</time>
      </trkpt>
      <trkpt lat="42.70406" lon="18.51241">
        <ele>339</ele>
        <time>2016-07-28T07:06:06Z</time>
      </trkpt>
      <trkpt lat="42.70403" lon="18.51252">
        <ele>340</ele>
        <time>2016-07-28T07:08:06Z</time>
      </trkpt>
      <trkpt lat="42.70401" lon="18.51262">
        <ele>341</ele>
        <time>2016-07-28T07:10:06Z</time>
      </trkpt>
      <trkpt lat="42.70398" lon="18.51271">
        <ele>341</ele>
        <time>2016-07-28T07:12:06Z</time>
      </trkpt>
      <trkpt lat="42.70395" lon="18.51281">
        <ele>341</ele>
        <time>2016-07-28T07:14:06Z</time>
      </trkpt>
      <trkpt lat="42.70391" lon="18.51291">
        <ele>342</ele>
        <time>2016-07-28T07:16:06Z</time>
      </trkpt>
      <trkpt lat="42.70388" lon="18.51301">
        <ele>342</ele>
        <time>2016-07-28T07:18:06Z</time>
      </trkpt>
      <trkpt lat="42.70385" lon="18.5131">
        <ele>342</ele>
        <time>2016-07-28T07:20:06Z</time>
      </trkpt>
      <trkpt lat="42.70381" lon="18.5132">
        <ele>342</ele>
        <time>2016-07-28T07:22:06Z</time>
      </trkpt>
      <trkpt lat="42.70363" lon="18.51373">
        <ele>340</ele>
        <time>2016-07-28T07:24:06Z</time>
      </trkpt>
      <trkpt lat="42.70361" lon="18.51381">
        <ele>340</ele>
        <time>2016-07-28T07:26:06Z</time>
      </trkpt>
      <trkpt lat="42.70359" lon="18.51389">
        <ele>339</ele>
        <time>2016-07-28T07:28:06Z</time>
      </trkpt>
      <trkpt lat="42.70357" lon="18.51397">
        <ele>339</ele>
        <time>2016-07-28T07:30:06Z</time>
      </trkpt>
      <trkpt lat="42.70355" lon="18.51406">
        <ele>338</ele>
        <time>2016-07-28T07:32:06Z</time>
      </trkpt>
      <trkpt lat="42.70353" lon="18.51414">
        <ele>338</ele>
        <time>2016-07-28T07:34:06Z</time>
      </trkpt>
      <trkpt lat="42.70352" lon="18.51422">
        <ele>338</ele>
        <time>2016-07-28T07:36:06Z</time>
      </trkpt>
      <trkpt lat="42.70351" lon="18.51431">
        <ele>337</ele>
        <time>2016-07-28T07:38:06Z</time>
      </trkpt>
      <trkpt lat="42.7035" lon="18.51439">
        <ele>337</ele>
        <time>2016-07-28T07:40:06Z</time>
      </trkpt>
      <trkpt lat="42.70349" lon="18.51446">
        <ele>337</ele>
        <time>2016-07-28T07:42:06Z</time>
      </trkpt>
      <trkpt lat="42.70348" lon="18.51454">
        <ele>336</ele>
        <time>2016-07-28T07:44:06Z</time>
      </trkpt>
      <trkpt lat="42.70347" lon="18.51461">
        <ele>336</ele>
        <time>2016-07-28T07:46:06Z</time>
      </trkpt>
      <trkpt lat="42.70346" lon="18.51468">
        <ele>336</ele>
        <time>2016-07-28T07:48:06Z</time>
      </trkpt>
      <trkpt lat="42.70346" lon="18.51476">
        <ele>336</ele>
        <time>2016-07-28T07:50:06Z</time>
      </trkpt>
      <trkpt lat="42.70346" lon="18.51485">
        <ele>336</ele>
        <time>2016-07-28T07:52:06Z</time>
      </trkpt>
      <trkpt lat="42.70347" lon="18.51494">
        <ele>337</ele>
        <time>2016-07-28T07:54:06Z</time>
      </trkpt>
      <trkpt lat="42.70348" lon="18.51504">
        <ele>337</ele>
        <time>2016-07-28T07:56:06Z</time>
      </trkpt>
      <trkpt lat="42.70349" lon="18.51514">
        <ele>337</ele>
        <time>2016-07-28T07:58:06Z</time>
      </trkpt>
      <trkpt lat="42.70351" lon="18.51523">
        <ele>338</ele>
        <time>2016-07-28T08:00:06Z</time>
      </trkpt>
      <trkpt lat="42.70352" lon="18.51533">
        <ele>338</ele>
        <time>2016-07-28T08:02:06Z</time>
      </trkpt>
      <trkpt lat="42.70354" lon="18.51542">
        <ele>339</ele>
        <time>2016-07-28T08:04:06Z</time>
      </trkpt>
      <trkpt lat="42.70355" lon="18.51551">
        <ele>339</ele>
        <time>2016-07-28T08:06:06Z</time>
      </trkpt>
      <trkpt lat="42.70357" lon="18.5156">
        <ele>339</ele>
        <time>2016-07-28T08:08:06Z</time>
      </trkpt>
      <trkpt lat="42.70359" lon="18.51569">
        <ele>340</ele>
        <time>2016-07-28T08:10:06Z</time>
      </trkpt>
      <trkpt lat="42.70361" lon="18.51578">
        <ele>340</ele>
        <time>2016-07-28T08:12:06Z</time>
      </trkpt>
      <trkpt lat="42.70368" lon="18.51602">
        <ele>342</ele>
        <time>2016-07-28T08:14:06Z</time>
      </trkpt>
      <trkpt lat="42.70375" lon="18.51625">
        <ele>343</ele>
        <time>2016-07-28T08:16:06Z</time>
      </trkpt>
      <trkpt lat="42.70382" lon="18.51649">
        <ele>345</ele>
        <time>2016-07-28T08:18:06Z</time>
      </trkpt>
      <trkpt lat="42.70389" lon="18.51672">
        <ele>346</ele>
        <time>2016-07-28T08:20:06Z</time>
      </trkpt>
      <trkpt lat="42.70393" lon="18.51681">
        <ele>346</ele>
        <time>2016-07-28T08:22:06Z</time>
      </trkpt>
      <trkpt lat="42.70397" lon="18.51689">
        <ele>347</ele>
        <time>2016-07-28T08:24:06Z</time>
      </trkpt>
      <trkpt lat="42.70401" lon="18.51698">
        <ele>347</ele>
        <time>2016-07-28T08:26:06Z</time>
      </trkpt>
      <trkpt lat="42.70405" lon="18.51706">
        <ele>347</ele>
        <time>2016-07-28T08:28:06Z</time>
      </trkpt>
      <trkpt lat="42.70409" lon="18.51714">
        <ele>347</ele>
        <time>2016-07-28T08:30:06Z</time>
      </trkpt>
      <trkpt lat="42.70413" lon="18.51722">
        <ele>348</ele>
        <time>2016-07-28T08:32:06Z</time>
      </trkpt>
      <trkpt lat="42.70417" lon="18.5173">
        <ele>348</ele>
        <time>2016-07-28T08:34:06Z</time>
      </trkpt>
      <trkpt lat="42.70421" lon="18.51737">
        <ele>348</ele>
        <time>2016-07-28T08:36:06Z</time>
      </trkpt>
      <trkpt lat="42.70426" lon="18.51745">
        <ele>349</ele>
        <time>2016-07-28T08:38:06Z</time>
      </trkpt>
      <trkpt lat="42.7043" lon="18.51752">
        <ele>349</ele>
        <time>2016-07-28T08:40:06Z</time>
      </trkpt>
      <trkpt lat="42.70437" lon="18.51759">
        <ele>350</ele>
        <time>2016-07-28T08:42:06Z</time>
      </trkpt>
      <trkpt lat="42.70443" lon="18.51767">
        <ele>350</ele>
        <time>2016-07-28T08:44:06Z</time>
      </trkpt>
      <trkpt lat="42.7045" lon="18.51774">
        <ele>351</ele>
        <time>2016-07-28T08:46:06Z</time>
      </trkpt>
      <trkpt lat="42.70456" lon="18.51781">
        <ele>351</ele>
        <time>2016-07-28T08:48:06Z</time>
      </trkpt>
      <trkpt lat="42.70463" lon="18.51788">
        <ele>351</ele>
        <time>2016-07-28T08:50:06Z</time>
      </trkpt>
      <trkpt lat="42.70471" lon="18.51796">
        <ele>352</ele>
        <time>2016-07-28T08:52:06Z</time>
      </trkpt>
      <trkpt lat="42.70479" lon="18.51804">
        <ele>353</ele>
        <time>2016-07-28T08:54:06Z</time>
      </trkpt>
      <trkpt lat="42.70487" lon="18.51812">
        <ele>353</ele>
        <time>2016-07-28T08:56:06Z</time>
      </trkpt>
      <trkpt lat="42.70512" lon="18.51832">
        <ele>354</ele>
        <time>2016-07-28T08:58:06Z</time>
      </trkpt>
      <trkpt lat="42.70512" lon="18.51832">
        <ele>354</ele>
        <time>2016-07-28T09:00:06Z</time>
      </trkpt>
      <trkpt lat="42.70519" lon="18.51838">
        <ele>355</ele>
        <time>2016-07-28T09:02:06Z</time>
      </trkpt>
      <trkpt lat="42.70524" lon="18.51842">
        <ele>356</ele>
        <time>2016-07-28T09:04:06Z</time>
      </trkpt>
      <trkpt lat="42.70528" lon="18.51845">
        <ele>356</ele>
        <time>2016-07-28T09:06:06Z</time>
      </trkpt>
      <trkpt lat="42.70531" lon="18.51849">
        <ele>357</ele>
        <time>2016-07-28T09:08:06Z</time>
      </trkpt>
      <trkpt lat="42.70534" lon="18.51852">
        <ele>357</ele>
        <time>2016-07-28T09:10:06Z</time>
      </trkpt>
      <trkpt lat="42.70537" lon="18.51856">
        <ele>358</ele>
        <time>2016-07-28T09:12:06Z</time>
      </trkpt>
      <trkpt lat="42.70541" lon="18.5186">
        <ele>358</ele>
        <time>2016-07-28T09:14:06Z</time>
      </trkpt>
      <trkpt lat="42.70544" lon="18.51864">
        <ele>359</ele>
        <time>2016-07-28T09:16:06Z</time>
      </trkpt>
      <trkpt lat="42.70546" lon="18.51868">
        <ele>359</ele>
        <time>2016-07-28T09:18:06Z</time>
      </trkpt>
      <trkpt lat="42.70549" lon="18.51873">
        <ele>360</ele>
        <time>2016-07-28T09:20:06Z</time>
      </trkpt>
      <trkpt lat="42.70552" lon="18.51877">
        <ele>360</ele>
        <time>2016-07-28T09:22:06Z</time>
      </trkpt>
      <trkpt lat="42.70554" lon="18.51882">
        <ele>361</ele>
        <time>2016-07-28T09:24:06Z</time>
      </trkpt>
      <trkpt lat="42.70557" lon="18.51886">
        <ele>361</ele>
        <time>2016-07-28T09:26:06Z</time>
      </trkpt>
      <trkpt lat="42.70559" lon="18.51891">
        <ele>362</ele>
        <time>2016-07-28T09:28:06Z</time>
      </trkpt>
      <trkpt lat="42.7056" lon="18.51895">
        <ele>362</ele>
        <time>2016-07-28T09:30:06Z</time>
      </trkpt>
      <trkpt lat="42.70562" lon="18.51899">
        <ele>363</ele>
        <time>2016-07-28T09:32:06Z</time>
      </trkpt>
      <trkpt lat="42.70563" lon="18.51904">
        <ele>363</ele>
        <time>2016-07-28T09:34:06Z</time>
      </trkpt>
      <trkpt lat="42.70564" lon="18.51908">
        <ele>363</ele>
        <time>2016-07-28T09:36:06Z</time>
      </trkpt>
      <trkpt lat="42.70565" lon="18.51913">
        <ele>364</ele>
        <time>2016-07-28T09:38:06Z</time>
      </trkpt>
      <trkpt lat="42.70565" lon="18.51917">
        <ele>364</ele>
        <time>2016-07-28T09:40:06Z</time>
      </trkpt>
      <trkpt lat="42.70566" lon="18.51922">
        <ele>364</ele>
        <time>2016-07-28T09:42:06Z</time>
      </trkpt>
      <trkpt lat="42.70566" lon="18.51926">
        <ele>364</ele>
        <time>2016-07-28T09:44:06Z</time>
      </trkpt>
      <trkpt lat="42.70566" lon="18.51931">
        <ele>365</ele>
        <time>2016-07-28T09:46:06Z</time>
      </trkpt>
      <trkpt lat="42.70566" lon="18.51935">
        <ele>365</ele>
        <time>2016-07-28T09:48:06Z</time>
      </trkpt>
      <trkpt lat="42.70566" lon="18.51939">
        <ele>365</ele>
        <time>2016-07-28T09:50:06Z</time>
      </trkpt>
      <trkpt lat="42.70566" lon="18.51943">
        <ele>365</ele>
        <time>2016-07-28T09:52:06Z</time>
      </trkpt>
      <trkpt lat="42.70566" lon="18.51947">
        <ele>365</ele>
        <time>2016-07-28T09:54:06Z</time>
      </trkpt>
      <trkpt lat="42.70565" lon="18.51951">
        <ele>365</ele>
        <time>2016-07-28T09:56:06Z</time>
      </trkpt>
      <trkpt lat="42.70565" lon="18.51955">
        <ele>366</ele>
        <time>2016-07-28T09:58:06Z</time>
      </trkpt>
      <trkpt lat="42.70564" lon="18.51959">
        <ele>366</ele>
        <time>2016-07-28T10:00:06Z</time>
      </trkpt>
      <trkpt lat="42.70563" lon="18.51965">
        <ele>366</ele>
        <time>2016-07-28T10:02:06Z</time>
      </trkpt>
      <trkpt lat="42.70561" lon="18.5197">
        <ele>366</ele>
        <time>2016-07-28T10:04:06Z</time>
      </trkpt>
      <trkpt lat="42.7056" lon="18.51975">
        <ele>366</ele>
        <time>2016-07-28T10:06:06Z</time>
      </trkpt>
      <trkpt lat="42.70558" lon="18.5198">
        <ele>366</ele>
        <time>2016-07-28T10:08:06Z</time>
      </trkpt>
      <trkpt lat="42.70556" lon="18.51985">
        <ele>366</ele>
        <time>2016-07-28T10:10:06Z</time>
      </trkpt>
      <trkpt lat="42.70554" lon="18.5199">
        <ele>366</ele>
        <time>2016-07-28T10:12:06Z</time>
      </trkpt>
      <trkpt lat="42.70552" lon="18.51994">
        <ele>366</ele>
        <time>2016-07-28T10:14:06Z</time>
      </trkpt>
      <trkpt lat="42.7055" lon="18.51999">
        <ele>366</ele>
        <time>2016-07-28T10:16:06Z</time>
      </trkpt>
      <trkpt lat="42.70547" lon="18.52003">
        <ele>366</ele>
        <time>2016-07-28T10:18:06Z</time>
      </trkpt>
      <trkpt lat="42.70545" lon="18.52008">
        <ele>367</ele>
        <time>2016-07-28T10:20:06Z</time>
      </trkpt>
      <trkpt lat="42.70543" lon="18.52011">
        <ele>367</ele>
        <time>2016-07-28T10:22:06Z</time>
      </trkpt>
      <trkpt lat="42.7054" lon="18.52015">
        <ele>367</ele>
        <time>2016-07-28T10:24:06Z</time>
      </trkpt>
      <trkpt lat="42.70538" lon="18.52019">
        <ele>368</ele>
        <time>2016-07-28T10:26:06Z</time>
      </trkpt>
      <trkpt lat="42.70535" lon="18.52022">
        <ele>368</ele>
        <time>2016-07-28T10:28:06Z</time>
      </trkpt>
      <trkpt lat="42.70531" lon="18.52026">
        <ele>368</ele>
        <time>2016-07-28T10:30:06Z</time>
      </trkpt>
      <trkpt lat="42.70526" lon="18.52031">
        <ele>368</ele>
        <time>2016-07-28T10:32:06Z</time>
      </trkpt>
      <trkpt lat="42.7052" lon="18.52035">
        <ele>368</ele>
        <time>2016-07-28T10:34:06Z</time>
      </trkpt>
      <trkpt lat="42.70515" lon="18.52039">
        <ele>368</ele>
        <time>2016-07-28T10:36:06Z</time>
      </trkpt>
      <trkpt lat="42.7051" lon="18.52043">
        <ele>368</ele>
        <time>2016-07-28T10:38:06Z</time>
      </trkpt>
      <trkpt lat="42.70505" lon="18.52047">
        <ele>368</ele>
        <time>2016-07-28T10:40:06Z</time>
      </trkpt>
      <trkpt lat="42.705" lon="18.5205">
        <ele>367</ele>
        <time>2016-07-28T10:42:06Z</time>
      </trkpt>
      <trkpt lat="42.70495" lon="18.52053">
        <ele>367</ele>
        <time>2016-07-28T10:44:06Z</time>
      </trkpt>
      <trkpt lat="42.70489" lon="18.52057">
        <ele>367</ele>
        <time>2016-07-28T10:46:06Z</time>
      </trkpt>
      <trkpt lat="42.70484" lon="18.5206">
        <ele>367</ele>
        <time>2016-07-28T10:48:06Z</time>
      </trkpt>
      <trkpt lat="42.70462" lon="18.52077">
        <ele>367</ele>
        <time>2016-07-28T10:50:06Z</time>
      </trkpt>
      <trkpt lat="42.70461" lon="18.52079">
        <ele>367</ele>
        <time>2016-07-28T10:52:06Z</time>
      </trkpt>
      <trkpt lat="42.7046" lon="18.5208">
        <ele>367</ele>
        <time>2016-07-28T10:54:06Z</time>
      </trkpt>
      <trkpt lat="42.70459" lon="18.52083">
        <ele>367</ele>
        <time>2016-07-28T10:56:06Z</time>
      </trkpt>
      <trkpt lat="42.70458" lon="18.52085">
        <ele>367</ele>
        <time>2016-07-28T10:58:06Z</time>
      </trkpt>
      <trkpt lat="42.70457" lon="18.52087">
        <ele>367</ele>
        <time>2016-07-28T11:00:06Z</time>
      </trkpt>
      <trkpt lat="42.70457" lon="18.52089">
        <ele>368</ele>
        <time>2016-07-28T11:02:06Z</time>
      </trkpt>
      <trkpt lat="42.70456" lon="18.52092">
        <ele>368</ele>
        <time>2016-07-28T11:04:06Z</time>
      </trkpt>
      <trkpt lat="42.70456" lon="18.52094">
        <ele>368</ele>
        <time>2016-07-28T11:06:06Z</time>
      </trkpt>
      <trkpt lat="42.70456" lon="18.52096">
        <ele>368</ele>
        <time>2016-07-28T11:08:06Z</time>
      </trkpt>
      <trkpt lat="42.70456" lon="18.52099">
        <ele>369</ele>
        <time>2016-07-28T11:10:06Z</time>
      </trkpt>
      <trkpt lat="42.70456" lon="18.52101">
        <ele>369</ele>
        <time>2016-07-28T11:12:06Z</time>
      </trkpt>
      <trkpt lat="42.70457" lon="18.52103">
        <ele>370</ele>
        <time>2016-07-28T11:14:06Z</time>
      </trkpt>
      <trkpt lat="42.70457" lon="18.52106">
        <ele>370</ele>
        <time>2016-07-28T11:16:06Z</time>
      </trkpt>
      <trkpt lat="42.70458" lon="18.52108">
        <ele>370</ele>
        <time>2016-07-28T11:18:06Z</time>
      </trkpt>
      <trkpt lat="42.70459" lon="18.5211">
        <ele>371</ele>
        <time>2016-07-28T11:20:06Z</time>
      </trkpt>
      <trkpt lat="42.7046" lon="18.52112">
        <ele>371</ele>
        <time>2016-07-28T11:22:06Z</time>
      </trkpt>
      <trkpt lat="42.70461" lon="18.52115">
        <ele>372</ele>
        <time>2016-07-28T11:24:06Z</time>
      </trkpt>
      <trkpt lat="42.70462" lon="18.52116">
        <ele>372</ele>
        <time>2016-07-28T11:26:06Z</time>
      </trkpt>
      <trkpt lat="42.70463" lon="18.52118">
        <ele>373</ele>
        <time>2016-07-28T11:28:06Z</time>
      </trkpt>
      <trkpt lat="42.70465" lon="18.5212">
        <ele>373</ele>
        <time>2016-07-28T11:30:06Z</time>
      </trkpt>
      <trkpt lat="42.70466" lon="18.52121">
        <ele>374</ele>
        <time>2016-07-28T11:32:06Z</time>
      </trkpt>
      <trkpt lat="42.70468" lon="18.52123">
        <ele>374</ele>
        <time>2016-07-28T11:34:06Z</time>
      </trkpt>
      <trkpt lat="42.70469" lon="18.52124">
        <ele>375</ele>
        <time>2016-07-28T11:36:06Z</time>
      </trkpt>
      <trkpt lat="42.70471" lon="18.52125">
        <ele>375</ele>
        <time>2016-07-28T11:38:06Z</time>
      </trkpt>
      <trkpt lat="42.70473" lon="18.52125">
        <ele>376</ele>
        <time>2016-07-28T11:40:06Z</time>
      </trkpt>
      <trkpt lat="42.70475" lon="18.52125">
        <ele>376</ele>
        <time>2016-07-28T11:42:06Z</time>
      </trkpt>
      <trkpt lat="42.70477" lon="18.52124">
        <ele>376</ele>
        <time>2016-07-28T11:44:06Z</time>
      </trkpt>
      <trkpt lat="42.70479" lon="18.52124">
        <ele>377</ele>
        <time>2016-07-28T11:46:06Z</time>
      </trkpt>
      <trkpt lat="42.70481" lon="18.52124">
        <ele>377</ele>
        <time>2016-07-28T11:48:06Z</time>
      </trkpt>
      <trkpt lat="42.70483" lon="18.52123">
        <ele>377</ele>
        <time>2016-07-28T11:50:06Z</time>
      </trkpt>
      <trkpt lat="42.70485" lon="18.52122">
        <ele>377</ele>
        <time>2016-07-28T11:52:06Z</time>
      </trkpt>
      <trkpt lat="42.70487" lon="18.52121">
        <ele>377</ele>
        <time>2016-07-28T11:54:06Z</time>
      </trkpt>
      <trkpt lat="42.70489" lon="18.5212">
        <ele>378</ele>
        <time>2016-07-28T11:56:06Z</time>
      </trkpt>
      <trkpt lat="42.70491" lon="18.52118">
        <ele>378</ele>
        <time>2016-07-28T11:58:06Z</time>
      </trkpt>
      <trkpt lat="42.70493" lon="18.52117">
        <ele>378</ele>
        <time>2016-07-28T12:00:06Z</time>
      </trkpt>
      <trkpt lat="42.70495" lon="18.52115">
        <ele>378</ele>
        <time>2016-07-28T12:02:06Z</time>
      </trkpt>
      <trkpt lat="42.70496" lon="18.52113">
        <ele>378</ele>
        <time>2016-07-28T12:04:06Z</time>
      </trkpt>
      <trkpt lat="42.70498" lon="18.52111">
        <ele>378</ele>
        <time>2016-07-28T12:06:06Z</time>
      </trkpt>
      <trkpt lat="42.705" lon="18.52109">
        <ele>378</ele>
        <time>2016-07-28T12:08:06Z</time>
      </trkpt>
      <trkpt lat="42.70537" lon="18.52059">
        <ele>376</ele>
        <time>2016-07-28T12:10:06Z</time>
      </trkpt>
      <trkpt lat="42.70545" lon="18.52054">
        <ele>376</ele>
        <time>2016-07-28T12:12:06Z</time>
      </trkpt>
      <trkpt lat="42.70552" lon="18.52048">
        <ele>376</ele>
        <time>2016-07-28T12:14:06Z</time>
      </trkpt>
      <trkpt lat="42.70559" lon="18.52043">
        <ele>376</ele>
        <time>2016-07-28T12:16:06Z</time>
      </trkpt>
      <trkpt lat="42.70566" lon="18.52038">
        <ele>376</ele>
        <time>2016-07-28T12:18:06Z</time>
      </trkpt>
      <trkpt lat="42.70573" lon="18.52033">
        <ele>376</ele>
        <time>2016-07-28T12:20:06Z</time>
      </trkpt>
      <trkpt lat="42.70579" lon="18.52029">
        <ele>376</ele>
        <time>2016-07-28T12:22:06Z</time>
      </trkpt>
      <trkpt lat="42.70585" lon="18.52025">
        <ele>376</ele>
        <time>2016-07-28T12:24:06Z</time>
      </trkpt>
      <trkpt lat="42.7059" lon="18.52021">
        <ele>376</ele>
        <time>2016-07-28T12:26:06Z</time>
      </trkpt>
      <trkpt lat="42.70594" lon="18.52018">
        <ele>376</ele>
        <time>2016-07-28T12:28:06Z</time>
      </trkpt>
      <trkpt lat="42.70597" lon="18.52014">
        <ele>376</ele>
        <time>2016-07-28T12:30:06Z</time>
      </trkpt>
      <trkpt lat="42.706" lon="18.52011">
        <ele>376</ele>
        <time>2016-07-28T12:32:06Z</time>
      </trkpt>
      <trkpt lat="42.70603" lon="18.52007">
        <ele>375</ele>
        <time>2016-07-28T12:34:06Z</time>
      </trkpt>
      <trkpt lat="42.70606" lon="18.52003">
        <ele>375</ele>
        <time>2016-07-28T12:36:06Z</time>
      </trkpt>
      <trkpt lat="42.70609" lon="18.51998">
        <ele>375</ele>
        <time>2016-07-28T12:38:06Z</time>
      </trkpt>
      <trkpt lat="42.70612" lon="18.51994">
        <ele>375</ele>
        <time>2016-07-28T12:40:06Z</time>
      </trkpt>
      <trkpt lat="42.70614" lon="18.5199">
        <ele>376</ele>
        <time>2016-07-28T12:42:06Z</time>
      </trkpt>
      <trkpt lat="42.70616" lon="18.51986">
        <ele>376</ele>
        <time>2016-07-28T12:44:06Z</time>
      </trkpt>
      <trkpt lat="42.70618" lon="18.51982">
        <ele>377</ele>
        <time>2016-07-28T12:46:06Z</time>
      </trkpt>
      <trkpt lat="42.7062" lon="18.51977">
        <ele>377</ele>
        <time>2016-07-28T12:48:06Z</time>
      </trkpt>
      <trkpt lat="42.70622" lon="18.51973">
        <ele>378</ele>
        <time>2016-07-28T12:50:06Z</time>
      </trkpt>
      <trkpt lat="42.70624" lon="18.51969">
        <ele>378</ele>
        <time>2016-07-28T12:52:06Z</time>
      </trkpt>
      <trkpt lat="42.70626" lon="18.51965">
        <ele>379</ele>
        <time>2016-07-28T12:54:06Z</time>
      </trkpt>
      <trkpt lat="42.70635" lon="18.51929">
        <ele>382</ele>
        <time>2016-07-28T12:56:06Z</time>
      </trkpt>
      <trkpt lat="42.70636" lon="18.51925">
        <ele>382</ele>
        <time>2016-07-28T12:58:06Z</time>
      </trkpt>
      <trkpt lat="42.70638" lon="18.51921">
        <ele>383</ele>
        <time>2016-07-28T13:00:06Z</time>
      </trkpt>
      <trkpt lat="42.70639" lon="18.51917">
        <ele>383</ele>
        <time>2016-07-28T13:02:06Z</time>
      </trkpt>
      <trkpt lat="42.70641" lon="18.51912">
        <ele>383</ele>
        <time>2016-07-28T13:04:06Z</time>
      </trkpt>
      <trkpt lat="42.70643" lon="18.51908">
        <ele>383</ele>
        <time>2016-07-28T13:06:06Z</time>
      </trkpt>
      <trkpt lat="42.70645" lon="18.51904">
        <ele>384</ele>
        <time>2016-07-28T13:08:06Z</time>
      </trkpt>
      <trkpt lat="42.70647" lon="18.51901">
        <ele>384</ele>
        <time>2016-07-28T13:10:06Z</time>
      </trkpt>
      <trkpt lat="42.70649" lon="18.51897">
        <ele>384</ele>
        <time>2016-07-28T13:12:06Z</time>
      </trkpt>
      <trkpt lat="42.70651" lon="18.51893">
        <ele>384</ele>
        <time>2016-07-28T13:14:06Z</time>
      </trkpt>
      <trkpt lat="42.70654" lon="18.51889">
        <ele>385</ele>
        <time>2016-07-28T13:16:06Z</time>
      </trkpt>
      <trkpt lat="42.70656" lon="18.51886">
        <ele>385</ele>
        <time>2016-07-28T13:18:06Z</time>
      </trkpt>
      <trkpt lat="42.70659" lon="18.51882">
        <ele>386</ele>
        <time>2016-07-28T13:20:06Z</time>
      </trkpt>
      <trkpt lat="42.70662" lon="18.51879">
        <ele>386</ele>
        <time>2016-07-28T13:22:06Z</time>
      </trkpt>
      <trkpt lat="42.70664" lon="18.51876">
        <ele>386</ele>
        <time>2016-07-28T13:24:06Z</time>
      </trkpt>
      <trkpt lat="42.70667" lon="18.51873">
        <ele>387</ele>
        <time>2016-07-28T13:26:06Z</time>
      </trkpt>
      <trkpt lat="42.7067" lon="18.51871">
        <ele>387</ele>
        <time>2016-07-28T13:28:06Z</time>
      </trkpt>
      <trkpt lat="42.70676" lon="18.51868">
        <ele>388</ele>
        <time>2016-07-28T13:30:06Z</time>
      </trkpt>
      <trkpt lat="42.70682" lon="18.51865">
        <ele>389</ele>
        <time>2016-07-28T13:32:06Z</time>
      </trkpt>
      <trkpt lat="42.70688" lon="18.51862">
        <ele>390</ele>
        <time>2016-07-28T13:34:06Z</time>
      </trkpt>
      <trkpt lat="42.70694" lon="18.5186">
        <ele>391</ele>
        <time>2016-07-28T13:36:06Z</time>
      </trkpt>
      <trkpt lat="42.707" lon="18.51857">
        <ele>392</ele>
        <time>2016-07-28T13:38:06Z</time>
      </trkpt>
      <trkpt lat="42.70706" lon="18.51856">
        <ele>393</ele>
        <time>2016-07-28T13:40:06Z</time>
      </trkpt>
      <trkpt lat="42.70712" lon="18.51854">
        <ele>395</ele>
        <time>2016-07-28T13:42:06Z</time>
      </trkpt>
      <trkpt lat="42.70718" lon="18.51852">
        <ele>396</ele>
        <time>2016-07-28T13:44:06Z</time>
      </trkpt>
      <trkpt lat="42.70721" lon="18.51851">
        <ele>396</ele>
        <time>2016-07-28T13:46:06Z</time>
      </trkpt>
      <trkpt lat="42.70724" lon="18.51849">
        <ele>396</ele>
        <time>2016-07-28T13:48:06Z</time>
      </trkpt>
      <trkpt lat="42.70727" lon="18.51847">
        <ele>397</ele>
        <time>2016-07-28T13:50:06Z</time>
      </trkpt>
      <trkpt lat="42.7073" lon="18.51845">
        <ele>397</ele>
        <time>2016-07-28T13:52:06Z</time>
      </trkpt>
      <trkpt lat="42.70733" lon="18.51843">
        <ele>398</ele>
        <time>2016-07-28T13:54:06Z</time>
      </trkpt>
      <trkpt lat="42.70736" lon="18.51841">
        <ele>398</ele>
        <time>2016-07-28T13:56:06Z</time>
      </trkpt>
      <trkpt lat="42.70739" lon="18.51838">
        <ele>398</ele>
        <time>2016-07-28T13:58:06Z</time>
      </trkpt>
      <trkpt lat="42.70742" lon="18.51836">
        <ele>399</ele>
        <time>2016-07-28T14:00:06Z</time>
      </trkpt>
      <trkpt lat="42.70744" lon="18.51833">
        <ele>399</ele>
        <time>2016-07-28T14:02:06Z</time>
      </trkpt>
      <trkpt lat="42.70747" lon="18.5183">
        <ele>399</ele>
        <time>2016-07-28T14:04:06Z</time>
      </trkpt>
      <trkpt lat="42.70749" lon="18.51827">
        <ele>400</ele>
        <time>2016-07-28T14:06:06Z</time>
      </trkpt>
      <trkpt lat="42.70752" lon="18.51823">
        <ele>401</ele>
        <time>2016-07-28T14:08:06Z</time>
      </trkpt>
      <trkpt lat="42.70754" lon="18.5182">
        <ele>401</ele>
        <time>2016-07-28T14:10:06Z</time>
      </trkpt>
      <trkpt lat="42.70756" lon="18.51816">
        <ele>402</ele>
        <time>2016-07-28T14:12:06Z</time>
      </trkpt>
      <trkpt lat="42.70758" lon="18.51812">
        <ele>403</ele>
        <time>2016-07-28T14:14:06Z</time>
      </trkpt>
      <trkpt lat="42.7076" lon="18.51808">
        <ele>404</ele>
        <time>2016-07-28T14:16:06Z</time>
      </trkpt>
      <trkpt lat="42.70762" lon="18.51804">
        <ele>405</ele>
        <time>2016-07-28T14:18:06Z</time>
      </trkpt>
      <trkpt lat="42.70763" lon="18.518">
        <ele>405</ele>
        <time>2016-07-28T14:20:06Z</time>
      </trkpt>
      <trkpt lat="42.70764" lon="18.51796">
        <ele>405</ele>
        <time>2016-07-28T14:22:06Z</time>
      </trkpt>
      <trkpt lat="42.70765" lon="18.51792">
        <ele>406</ele>
        <time>2016-07-28T14:24:06Z</time>
      </trkpt>
      <trkpt lat="42.70766" lon="18.51788">
        <ele>406</ele>
        <time>2016-07-28T14:26:06Z</time>
      </trkpt>
      <trkpt lat="42.70767" lon="18.51784">
        <ele>407</ele>
        <time>2016-07-28T14:28:06Z</time>
      </trkpt>
      <trkpt lat="42.70768" lon="18.5178">
        <ele>407</ele>
        <time>2016-07-28T14:30:06Z</time>
      </trkpt>
      <trkpt lat="42.70768" lon="18.51775">
        <ele>407</ele>
        <time>2016-07-28T14:32:06Z</time>
      </trkpt>
      <trkpt lat="42.70768" lon="18.51771">
        <ele>407</ele>
        <time>2016-07-28T14:34:06Z</time>
      </trkpt>
      <trkpt lat="42.70769" lon="18.51767">
        <ele>407</ele>
        <time>2016-07-28T14:36:06Z</time>
      </trkpt>
      <trkpt lat="42.70769" lon="18.51763">
        <ele>407</ele>
        <time>2016-07-28T14:38:06Z</time>
      </trkpt>
      <trkpt lat="42.70769" lon="18.51759">
        <ele>407</ele>
        <time>2016-07-28T14:40:06Z</time>
      </trkpt>
      <trkpt lat="42.70768" lon="18.51755">
        <ele>407</ele>
        <time>2016-07-28T14:42:06Z</time>
      </trkpt>
      <trkpt lat="42.70768" lon="18.51751">
        <ele>407</ele>
        <time>2016-07-28T14:44:06Z</time>
      </trkpt>
      <trkpt lat="42.70767" lon="18.51747">
        <ele>407</ele>
        <time>2016-07-28T14:46:06Z</time>
      </trkpt>
      <trkpt lat="42.70767" lon="18.51743">
        <ele>407</ele>
        <time>2016-07-28T14:48:06Z</time>
      </trkpt>
      <trkpt lat="42.70766" lon="18.51739">
        <ele>407</ele>
        <time>2016-07-28T14:50:06Z</time>
      </trkpt>
      <trkpt lat="42.70765" lon="18.51735">
        <ele>406</ele>
        <time>2016-07-28T14:52:06Z</time>
      </trkpt>
      <trkpt lat="42.70751" lon="18.51669">
        <ele>405</ele>
        <time>2016-07-28T14:54:06Z</time>
      </trkpt>
      <trkpt lat="42.7075" lon="18.51664">
        <ele>405</ele>
        <time>2016-07-28T14:56:06Z</time>
      </trkpt>
      <trkpt lat="42.7075" lon="18.51659">
        <ele>405</ele>
        <time>2016-07-28T14:58:06Z</time>
      </trkpt>
      <trkpt lat="42.70749" lon="18.51654">
        <ele>404</ele>
        <time>2016-07-28T15:00:06Z</time>
      </trkpt>
      <trkpt lat="42.70749" lon="18.51649">
        <ele>404</ele>
        <time>2016-07-28T15:02:06Z</time>
      </trkpt>
      <trkpt lat="42.70749" lon="18.51644">
        <ele>404</ele>
        <time>2016-07-28T15:04:06Z</time>
      </trkpt>
      <trkpt lat="42.70749" lon="18.51639">
        <ele>404</ele>
        <time>2016-07-28T15:06:06Z</time>
      </trkpt>
      <trkpt lat="42.70749" lon="18.51634">
        <ele>404</ele>
        <time>2016-07-28T15:08:06Z</time>
      </trkpt>
      <trkpt lat="42.7075" lon="18.5163">
        <ele>404</ele>
        <time>2016-07-28T15:10:06Z</time>
      </trkpt>
      <trkpt lat="42.7075" lon="18.51625">
        <ele>404</ele>
        <time>2016-07-28T15:12:06Z</time>
      </trkpt>
      <trkpt lat="42.70751" lon="18.51621">
        <ele>404</ele>
        <time>2016-07-28T15:14:06Z</time>
      </trkpt>
      <trkpt lat="42.70751" lon="18.51616">
        <ele>404</ele>
        <time>2016-07-28T15:16:06Z</time>
      </trkpt>
      <trkpt lat="42.70752" lon="18.51611">
        <ele>404</ele>
        <time>2016-07-28T15:18:06Z</time>
      </trkpt>
      <trkpt lat="42.70753" lon="18.51607">
        <ele>405</ele>
        <time>2016-07-28T15:20:06Z</time>
      </trkpt>
      <trkpt lat="42.70754" lon="18.51602">
        <ele>405</ele>
        <time>2016-07-28T15:22:06Z</time>
      </trkpt>
      <trkpt lat="42.70758" lon="18.51596">
        <ele>406</ele>
        <time>2016-07-28T15:24:06Z</time>
      </trkpt>
      <trkpt lat="42.70761" lon="18.51589">
        <ele>407</ele>
        <time>2016-07-28T15:26:06Z</time>
      </trkpt>
      <trkpt lat="42.70765" lon="18.51582">
        <ele>408</ele>
        <time>2016-07-28T15:28:06Z</time>
      </trkpt>
      <trkpt lat="42.70769" lon="18.51575">
        <ele>409</ele>
        <time>2016-07-28T15:30:06Z</time>
      </trkpt>
      <trkpt lat="42.70773" lon="18.51569">
        <ele>410</ele>
        <time>2016-07-28T15:32:06Z</time>
      </trkpt>
      <trkpt lat="42.70777" lon="18.51562">
        <ele>410</ele>
        <time>2016-07-28T15:34:06Z</time>
      </trkpt>
      <trkpt lat="42.70781" lon="18.51556">
        <ele>411</ele>
        <time>2016-07-28T15:36:06Z</time>
      </trkpt>
      <trkpt lat="42.70785" lon="18.5155">
        <ele>412</ele>
        <time>2016-07-28T15:38:06Z</time>
      </trkpt>
      <trkpt lat="42.70789" lon="18.51544">
        <ele>412</ele>
        <time>2016-07-28T15:40:06Z</time>
      </trkpt>
      <trkpt lat="42.70793" lon="18.51539">
        <ele>413</ele>
        <time>2016-07-28T15:42:06Z</time>
      </trkpt>
      <trkpt lat="42.7084" lon="18.51473">
        <ele>420</ele>
        <time>2016-07-28T15:44:06Z</time>
      </trkpt>
      <trkpt lat="42.70843" lon="18.51468">
        <ele>421</ele>
        <time>2016-07-28T15:46:06Z</time>
      </trkpt>
      <trkpt lat="42.70847" lon="18.51463">
        <ele>422</ele>
        <time>2016-07-28T15:48:06Z</time>
      </trkpt>
      <trkpt lat="42.7085" lon="18.51458">
        <ele>423</ele>
        <time>2016-07-28T15:50:06Z</time>
      </trkpt>
      <trkpt lat="42.70853" lon="18.51452">
        <ele>423</ele>
        <time>2016-07-28T15:52:06Z</time>
      </trkpt>
      <trkpt lat="42.70855" lon="18.51447">
        <ele>424</ele>
        <time>2016-07-28T15:54:06Z</time>
      </trkpt>
      <trkpt lat="42.70858" lon="18.51441">
        <ele>424</ele>
        <time>2016-07-28T15:56:06Z</time>
      </trkpt>
      <trkpt lat="42.70861" lon="18.51435">
        <ele>425</ele>
        <time>2016-07-28T15:58:06Z</time>
      </trkpt>
      <trkpt lat="42.70863" lon="18.51429">
        <ele>425</ele>
        <time>2016-07-28T16:00:06Z</time>
      </trkpt>
      <trkpt lat="42.70866" lon="18.51423">
        <ele>426</ele>
        <time>2016-07-28T16:02:06Z</time>
      </trkpt>
      <trkpt lat="42.70868" lon="18.51418">
        <ele>426</ele>
        <time>2016-07-28T16:04:06Z</time>
      </trkpt>
      <trkpt lat="42.7087" lon="18.51412">
        <ele>426</ele>
        <time>2016-07-28T16:06:06Z</time>
      </trkpt>
      <trkpt lat="42.70872" lon="18.51406">
        <ele>427</ele>
        <time>2016-07-28T16:08:06Z</time>
      </trkpt>
      <trkpt lat="42.70873" lon="18.514">
        <ele>428</ele>
        <time>2016-07-28T16:10:06Z</time>
      </trkpt>
      <trkpt lat="42.70875" lon="18.51394">
        <ele>428</ele>
        <time>2016-07-28T16:12:06Z</time>
      </trkpt>
      <trkpt lat="42.70877" lon="18.51388">
        <ele>429</ele>
        <time>2016-07-28T16:14:06Z</time>
      </trkpt>
      <trkpt lat="42.70879" lon="18.51377">
        <ele>429</ele>
        <time>2016-07-28T16:16:06Z</time>
      </trkpt>
      <trkpt lat="42.70881" lon="18.51366">
        <ele>430</ele>
        <time>2016-07-28T16:18:06Z</time>
      </trkpt>
      <trkpt lat="42.70883" lon="18.51355">
        <ele>430</ele>
        <time>2016-07-28T16:20:06Z</time>
      </trkpt>
      <trkpt lat="42.70884" lon="18.51344">
        <ele>431</ele>
        <time>2016-07-28T16:22:06Z</time>
      </trkpt>
      <trkpt lat="42.70886" lon="18.51333">
        <ele>431</ele>
        <time>2016-07-28T16:24:06Z</time>
      </trkpt>
      <trkpt lat="42.70887" lon="18.51322">
        <ele>431</ele>
        <time>2016-07-28T16:26:06Z</time>
      </trkpt>
      <trkpt lat="42.70888" lon="18.51312">
        <ele>431</ele>
        <time>2016-07-28T16:28:06Z</time>
      </trkpt>
      <trkpt lat="42.70889" lon="18.51302">
        <ele>431</ele>
        <time>2016-07-28T16:30:06Z</time>
      </trkpt>
      <trkpt lat="42.7089" lon="18.51292">
        <ele>431</ele>
        <time>2016-07-28T16:32:06Z</time>
      </trkpt>
      <trkpt lat="42.70896" lon="18.51232">
        <ele>432</ele>
        <time>2016-07-28T16:34:06Z</time>
      </trkpt>
      <trkpt lat="42.70897" lon="18.51225">
        <ele>433</ele>
        <time>2016-07-28T16:36:06Z</time>
      </trkpt>
      <trkpt lat="42.70897" lon="18.51218">
        <ele>433</ele>
        <time>2016-07-28T16:38:06Z</time>
      </trkpt>
      <trkpt lat="42.70898" lon="18.51211">
        <ele>433</ele>
        <time>2016-07-28T16:40:06Z</time>
      </trkpt>
      <trkpt lat="42.709" lon="18.51204">
        <ele>434</ele>
        <time>2016-07-28T16:42:06Z</time>
      </trkpt>
      <trkpt lat="42.70901" lon="18.51197">
        <ele>434</ele>
        <time>2016-07-28T16:44:06Z</time>
      </trkpt>
      <trkpt lat="42.70902" lon="18.5119">
        <ele>435</ele>
        <time>2016-07-28T16:46:06Z</time>
      </trkpt>
      <trkpt lat="42.70904" lon="18.51183">
        <ele>436</ele>
        <time>2016-07-28T16:48:06Z</time>
      </trkpt>
      <trkpt lat="42.70906" lon="18.51176">
        <ele>436</ele>
        <time>2016-07-28T16:50:06Z</time>
      </trkpt>
      <trkpt lat="42.70907" lon="18.51169">
        <ele>437</ele>
        <time>2016-07-28T16:52:06Z</time>
      </trkpt>
      <trkpt lat="42.70909" lon="18.51162">
        <ele>437</ele>
        <time>2016-07-28T16:54:06Z</time>
      </trkpt>
      <trkpt lat="42.70912" lon="18.51156">
        <ele>437</ele>
        <time>2016-07-28T16:56:06Z</time>
      </trkpt>
      <trkpt lat="42.70914" lon="18.51149">
        <ele>437</ele>
        <time>2016-07-28T16:58:06Z</time>
      </trkpt>
      <trkpt lat="42.70916" lon="18.51143">
        <ele>437</ele>
        <time>2016-07-28T17:00:06Z</time>
      </trkpt>
      <trkpt lat="42.70919" lon="18.51137">
        <ele>437</ele>
        <time>2016-07-28T17:02:06Z</time>
      </trkpt>
      <trkpt lat="42.70922" lon="18.51131">
        <ele>437</ele>
        <time>2016-07-28T17:04:06Z</time>
      </trkpt>
      <trkpt lat="42.70925" lon="18.51125">
        <ele>437</ele>
        <time>2016-07-28T17:06:06Z</time>
      </trkpt>
      <trkpt lat="42.70928" lon="18.5112">
        <ele>437</ele>
        <time>2016-07-28T17:08:06Z</time>
      </trkpt>
      <trkpt lat="42.70931" lon="18.51114">
        <ele>437</ele>
        <time>2016-07-28T17:10:06Z</time>
      </trkpt>
      <trkpt lat="42.70935" lon="18.51109">
        <ele>437</ele>
        <time>2016-07-28T17:12:06Z</time>
      </trkpt>
      <trkpt lat="42.70938" lon="18.51103">
        <ele>437</ele>
        <time>2016-07-28T17:14:06Z</time>
      </trkpt>
      <trkpt lat="42.70941" lon="18.51098">
        <ele>437</ele>
        <time>2016-07-28T17:16:06Z</time>
      </trkpt>
      <trkpt lat="42.70945" lon="18.51093">
        <ele>438</ele>
        <time>2016-07-28T17:18:06Z</time>
      </trkpt>
      <trkpt lat="42.70948" lon="18.51089">
        <ele>438</ele>
        <time>2016-07-28T17:20:06Z</time>
      </trkpt>
      <trkpt lat="42.70952" lon="18.51084">
        <ele>439</ele>
        <time>2016-07-28T17:22:06Z</time>
      </trkpt>
      <trkpt lat="42.70955" lon="18.51079">
        <ele>439</ele>
        <time>2016-07-28T17:24:06Z</time>
      </trkpt>
      <trkpt lat="42.70978" lon="18.51048">
        <ele>443</ele>
        <time>2016-07-28T17:26:06Z</time>
      </trkpt>
      <trkpt lat="42.70981" lon="18.51044">
        <ele>444</ele>
        <time>2016-07-28T17:28:06Z</time>
      </trkpt>
      <trkpt lat="42.70983" lon="18.5104">
        <ele>444</ele>
        <time>2016-07-28T17:30:06Z</time>
      </trkpt>
      <trkpt lat="42.70985" lon="18.51036">
        <ele>445</ele>
        <time>2016-07-28T17:32:06Z</time>
      </trkpt>
      <trkpt lat="42.70987" lon="18.51032">
        <ele>445</ele>
        <time>2016-07-28T17:34:06Z</time>
      </trkpt>
      <trkpt lat="42.70989" lon="18.51028">
        <ele>446</ele>
        <time>2016-07-28T17:36:06Z</time>
      </trkpt>
      <trkpt lat="42.70991" lon="18.51024">
        <ele>446</ele>
        <time>2016-07-28T17:38:06Z</time>
      </trkpt>
      <trkpt lat="42.70993" lon="18.51019">
        <ele>446</ele>
        <time>2016-07-28T17:40:06Z</time>
      </trkpt>
      <trkpt lat="42.70995" lon="18.51015">
        <ele>447</ele>
        <time>2016-07-28T17:42:06Z</time>
      </trkpt>
      <trkpt lat="42.70996" lon="18.5101">
        <ele>447</ele>
        <time>2016-07-28T17:44:06Z</time>
      </trkpt>
      <trkpt lat="42.70998" lon="18.51005">
        <ele>448</ele>
        <time>2016-07-28T17:46:06Z</time>
      </trkpt>
      <trkpt lat="42.70999" lon="18.51001">
        <ele>448</ele>
        <time>2016-07-28T17:48:06Z</time>
      </trkpt>
      <trkpt lat="42.71" lon="18.50995">
        <ele>448</ele>
        <time>2016-07-28T17:50:06Z</time>
      </trkpt>
      <trkpt lat="42.71001" lon="18.5099">
        <ele>448</ele>
        <time>2016-07-28T17:52:06Z</time>
      </trkpt>
      <trkpt lat="42.71002" lon="18.50985">
        <ele>449</ele>
        <time>2016-07-28T17:54:06Z</time>
      </trkpt>
      <trkpt lat="42.71003" lon="18.5098">
        <ele>449</ele>
        <time>2016-07-28T17:56:06Z</time>
      </trkpt>
      <trkpt lat="42.71004" lon="18.50975">
        <ele>449</ele>
        <time>2016-07-28T17:58:06Z</time>
      </trkpt>
      <trkpt lat="42.71007" lon="18.5089">
        <ele>453</ele>
        <time>2016-07-28T18:00:06Z</time>
      </trkpt>
      <trkpt lat="42.71007" lon="18.50881">
        <ele>454</ele>
        <time>2016-07-28T18:02:06Z</time>
      </trkpt>
      <trkpt lat="42.71008" lon="18.50873">
        <ele>455</ele>
        <time>2016-07-28T18:04:06Z</time>
      </trkpt>
      <trkpt lat="42.71009" lon="18.50864">
        <ele>456</ele>
        <time>2016-07-28T18:06:06Z</time>
      </trkpt>
      <trkpt lat="42.71011" lon="18.50855">
        <ele>458</ele>
        <time>2016-07-28T18:08:06Z</time>
      </trkpt>
      <trkpt lat="42.71012" lon="18.50846">
        <ele>459</ele>
        <time>2016-07-28T18:10:06Z</time>
      </trkpt>
      <trkpt lat="42.71014" lon="18.50838">
        <ele>461</ele>
        <time>2016-07-28T18:12:06Z</time>
      </trkpt>
      <trkpt lat="42.71017" lon="18.50829">
        <ele>462</ele>
        <time>2016-07-28T18:14:06Z</time>
      </trkpt>
      <trkpt lat="42.71019" lon="18.50821">
        <ele>463</ele>
        <time>2016-07-28T18:16:06Z</time>
      </trkpt>
      <trkpt lat="42.71022" lon="18.50813">
        <ele>463</ele>
        <time>2016-07-28T18:18:06Z</time>
      </trkpt>
      <trkpt lat="42.71025" lon="18.50805">
        <ele>464</ele>
        <time>2016-07-28T18:20:06Z</time>
      </trkpt>
      <trkpt lat="42.71028" lon="18.50798">
        <ele>464</ele>
        <time>2016-07-28T18:22:06Z</time>
      </trkpt>
      <trkpt lat="42.71031" lon="18.50791">
        <ele>464</ele>
        <time>2016-07-28T18:24:06Z</time>
      </trkpt>
      <trkpt lat="42.71035" lon="18.50784">
        <ele>465</ele>
        <time>2016-07-28T18:26:06Z</time>
      </trkpt>
      <trkpt lat="42.71038" lon="18.50778">
        <ele>465</ele>
        <time>2016-07-28T18:28:06Z</time>
      </trkpt>
      <trkpt lat="42.71042" lon="18.50771">
        <ele>466</ele>
        <time>2016-07-28T18:30:06Z</time>
      </trkpt>
      <trkpt lat="42.71046" lon="18.50765">
        <ele>466</ele>
        <time>2016-07-28T18:32:06Z</time>
      </trkpt>
      <trkpt lat="42.71114" lon="18.50714">
        <ele>469</ele>
        <time>2016-07-28T18:34:06Z</time>
      </trkpt>
      <trkpt lat="42.7115" lon="18.50693">
        <ele>469</ele>
        <time>2016-07-28T18:36:06Z</time>
      </trkpt>
      <trkpt lat="42.71197" lon="18.50662">
        <ele>470</ele>
        <time>2016-07-28T18:38:06Z</time>
      </trkpt>
      <trkpt lat="42.71204" lon="18.50657">
        <ele>471</ele>
        <time>2016-07-28T18:40:06Z</time>
      </trkpt>
      <trkpt lat="42.71211" lon="18.50652">
        <ele>472</ele>
        <time>2016-07-28T18:42:06Z</time>
      </trkpt>
      <trkpt lat="42.71219" lon="18.50646">
        <ele>473</ele>
        <time>2016-07-28T18:44:06Z</time>
      </trkpt>
      <trkpt lat="42.71226" lon="18.5064">
        <ele>474</ele>
        <time>2016-07-28T18:46:06Z</time>
      </trkpt>
      <trkpt lat="42.71233" lon="18.50634">
        <ele>474</ele>
        <time>2016-07-28T18:48:06Z</time>
      </trkpt>
      <trkpt lat="42.7124" lon="18.50628">
        <ele>475</ele>
        <time>2016-07-28T18:50:06Z</time>
      </trkpt>
      <trkpt lat="42.71246" lon="18.50623">
        <ele>475</ele>
        <time>2016-07-28T18:52:06Z</time>
      </trkpt>
      <trkpt lat="42.71251" lon="18.50617">
        <ele>475</ele>
        <time>2016-07-28T18:54:06Z</time>
      </trkpt>
      <trkpt lat="42.71257" lon="18.50612">
        <ele>476</ele>
        <time>2016-07-28T18:56:06Z</time>
      </trkpt>
      <trkpt lat="42.71262" lon="18.50606">
        <ele>476</ele>
        <time>2016-07-28T18:58:06Z</time>
      </trkpt>
      <trkpt lat="42.71267" lon="18.50601">
        <ele>476</ele>
        <time>2016-07-28T19:00:06Z</time>
      </trkpt>
      <trkpt lat="42.71272" lon="18.50595">
        <ele>476</ele>
        <time>2016-07-28T19:02:06Z</time>
      </trkpt>
      <trkpt lat="42.71277" lon="18.50589">
        <ele>476</ele>
        <time>2016-07-28T19:04:06Z</time>
      </trkpt>
      <trkpt lat="42.71282" lon="18.50583">
        <ele>476</ele>
        <time>2016-07-28T19:06:06Z</time>
      </trkpt>
      <trkpt lat="42.71288" lon="18.50577">
        <ele>477</ele>
        <time>2016-07-28T19:08:06Z</time>
      </trkpt>
      <trkpt lat="42.71292" lon="18.5057">
        <ele>477</ele>
        <time>2016-07-28T19:10:06Z</time>
      </trkpt>
      <trkpt lat="42.71297" lon="18.50564">
        <ele>477</ele>
        <time>2016-07-28T19:12:06Z</time>
      </trkpt>
      <trkpt lat="42.71301" lon="18.50559">
        <ele>478</ele>
        <time>2016-07-28T19:14:06Z</time>
      </trkpt>
      <trkpt lat="42.71305" lon="18.50554">
        <ele>478</ele>
        <time>2016-07-28T19:16:06Z</time>
      </trkpt>
      <trkpt lat="42.71309" lon="18.5055">
        <ele>478</ele>
        <time>2016-07-28T19:18:06Z</time>
      </trkpt>
      <trkpt lat="42.71313" lon="18.50546">
        <ele>479</ele>
        <time>2016-07-28T19:20:06Z</time>
      </trkpt>
      <trkpt lat="42.71317" lon="18.50542">
        <ele>479</ele>
        <time>2016-07-28T19:22:06Z</time>
      </trkpt>
      <trkpt lat="42.71321" lon="18.50538">
        <ele>479</ele>
        <time>2016-07-28T19:24:06Z</time>
      </trkpt>
      <trkpt lat="42.71325" lon="18.50534">
        <ele>480</ele>
        <time>2016-07-28T19:26:06Z</time>
      </trkpt>
      <trkpt lat="42.7133" lon="18.5053">
        <ele>480</ele>
        <time>2016-07-28T19:28:06Z</time>
      </trkpt>
      <trkpt lat="42.71334" lon="18.50527">
        <ele>481</ele>
        <time>2016-07-28T19:30:06Z</time>
      </trkpt>
      <trkpt lat="42.71339" lon="18.50523">
        <ele>480</ele>
        <time>2016-07-28T19:32:06Z</time>
      </trkpt>
      <trkpt lat="42.71343" lon="18.50521">
        <ele>481</ele>
        <time>2016-07-28T19:34:06Z</time>
      </trkpt>
      <trkpt lat="42.71348" lon="18.50518">
        <ele>481</ele>
        <time>2016-07-28T19:36:06Z</time>
      </trkpt>
      <trkpt lat="42.71352" lon="18.50515">
        <ele>480</ele>
        <time>2016-07-28T19:38:06Z</time>
      </trkpt>
      <trkpt lat="42.71357" lon="18.50513">
        <ele>481</ele>
        <time>2016-07-28T19:40:06Z</time>
      </trkpt>
      <trkpt lat="42.71361" lon="18.50511">
        <ele>481</ele>
        <time>2016-07-28T19:42:06Z</time>
      </trkpt>
      <trkpt lat="42.71366" lon="18.50508">
        <ele>481</ele>
        <time>2016-07-28T19:44:06Z</time>
      </trkpt>
      <trkpt lat="42.71371" lon="18.50507">
        <ele>481</ele>
        <time>2016-07-28T19:46:06Z</time>
      </trkpt>
      <trkpt lat="42.71417" lon="18.50498">
        <ele>485</ele>
        <time>2016-07-28T19:48:06Z</time>
      </trkpt>
      <trkpt lat="42.71424" lon="18.50496">
        <ele>486</ele>
        <time>2016-07-28T19:50:06Z</time>
      </trkpt>
      <trkpt lat="42.7143" lon="18.50494">
        <ele>487</ele>
        <time>2016-07-28T19:52:06Z</time>
      </trkpt>
      <trkpt lat="42.71436" lon="18.50492">
        <ele>487</ele>
        <time>2016-07-28T19:54:06Z</time>
      </trkpt>
      <trkpt lat="42.71442" lon="18.5049">
        <ele>488</ele>
        <time>2016-07-28T19:56:06Z</time>
      </trkpt>
      <trkpt lat="42.71448" lon="18.50487">
        <ele>488</ele>
        <time>2016-07-28T19:58:06Z</time>
      </trkpt>
      <trkpt lat="42.71454" lon="18.50485">
        <ele>488</ele>
        <time>2016-07-28T20:00:06Z</time>
      </trkpt>
      <trkpt lat="42.71461" lon="18.50482">
        <ele>489</ele>
        <time>2016-07-28T20:02:06Z</time>
      </trkpt>
      <trkpt lat="42.71467" lon="18.50479">
        <ele>489</ele>
        <time>2016-07-28T20:04:06Z</time>
      </trkpt>
      <trkpt lat="42.71473" lon="18.50475">
        <ele>488</ele>
        <time>2016-07-28T20:06:06Z</time>
      </trkpt>
      <trkpt lat="42.71479" lon="18.50472">
        <ele>489</ele>
        <time>2016-07-28T20:08:06Z</time>
      </trkpt>
      <trkpt lat="42.71485" lon="18.50468">
        <ele>488</ele>
        <time>2016-07-28T20:10:06Z</time>
      </trkpt>
      <trkpt lat="42.7149" lon="18.50465">
        <ele>488</ele>
        <time>2016-07-28T20:12:06Z</time>
      </trkpt>
      <trkpt lat="42.71496" lon="18.50461">
        <ele>488</ele>
        <time>2016-07-28T20:14:06Z</time>
      </trkpt>
      <trkpt lat="42.71503" lon="18.50455">
        <ele>488</ele>
        <time>2016-07-28T20:16:06Z</time>
      </trkpt>
      <trkpt lat="42.7151" lon="18.50449">
        <ele>488</ele>
        <time>2016-07-28T20:18:06Z</time>
      </trkpt>
      <trkpt lat="42.71517" lon="18.50443">
        <ele>489</ele>
        <time>2016-07-28T20:20:06Z</time>
      </trkpt>
      <trkpt lat="42.71524" lon="18.50437">
        <ele>489</ele>
        <time>2016-07-28T20:22:06Z</time>
      </trkpt>
      <trkpt lat="42.7153" lon="18.50431">
        <ele>489</ele>
        <time>2016-07-28T20:24:06Z</time>
      </trkpt>
      <trkpt lat="42.71536" lon="18.50425">
        <ele>489</ele>
        <time>2016-07-28T20:26:06Z</time>
      </trkpt>
      <trkpt lat="42.71542" lon="18.50419">
        <ele>489</ele>
        <time>2016-07-28T20:28:06Z</time>
      </trkpt>
      <trkpt lat="42.71548" lon="18.50413">
        <ele>490</ele>
        <time>2016-07-28T20:30:06Z</time>
      </trkpt>
      <trkpt lat="42.71554" lon="18.50407">
        <ele>490</ele>
        <time>2016-07-28T20:32:06Z</time>
      </trkpt>
      <trkpt lat="42.71563" lon="18.50398">
        <ele>490</ele>
        <time>2016-07-28T20:34:06Z</time>
      </trkpt>
      <trkpt lat="42.71571" lon="18.5039">
        <ele>490</ele>
        <time>2016-07-28T20:36:06Z</time>
      </trkpt>
      <trkpt lat="42.71579" lon="18.50382">
        <ele>489</ele>
        <time>2016-07-28T20:38:06Z</time>
      </trkpt>
      <trkpt lat="42.71588" lon="18.50374">
        <ele>489</ele>
        <time>2016-07-28T20:40:06Z</time>
      </trkpt>
      <trkpt lat="42.71596" lon="18.50366">
        <ele>489</ele>
        <time>2016-07-28T20:42:06Z</time>
      </trkpt>
      <trkpt lat="42.71605" lon="18.50359">
        <ele>490</ele>
        <time>2016-07-28T20:44:06Z</time>
      </trkpt>
      <trkpt lat="42.71612" lon="18.50352">
        <ele>489</ele>
        <time>2016-07-28T20:46:06Z</time>
      </trkpt>
      <trkpt lat="42.71619" lon="18.50346">
        <ele>490</ele>
        <time>2016-07-28T20:48:06Z</time>
      </trkpt>
      <trkpt lat="42.71627" lon="18.5034">
        <ele>490</ele>
        <time>2016-07-28T20:50:06Z</time>
      </trkpt>
      <trkpt lat="42.71662" lon="18.50317">
        <ele>494</ele>
        <time>2016-07-28T20:52:06Z</time>
      </trkpt>
      <trkpt lat="42.71666" lon="18.50316">
        <ele>495</ele>
        <time>2016-07-28T20:54:06Z</time>
      </trkpt>
      <trkpt lat="42.7167" lon="18.50314">
        <ele>495</ele>
        <time>2016-07-28T20:56:06Z</time>
      </trkpt>
      <trkpt lat="42.71674" lon="18.50313">
        <ele>495</ele>
        <time>2016-07-28T20:58:06Z</time>
      </trkpt>
      <trkpt lat="42.71678" lon="18.50312">
        <ele>494</ele>
        <time>2016-07-28T21:00:06Z</time>
      </trkpt>
      <trkpt lat="42.71683" lon="18.50311">
        <ele>494</ele>
        <time>2016-07-28T21:02:06Z</time>
      </trkpt>
      <trkpt lat="42.71687" lon="18.5031">
        <ele>494</ele>
        <time>2016-07-28T21:04:06Z</time>
      </trkpt>
      <trkpt lat="42.71691" lon="18.50309">
        <ele>494</ele>
        <time>2016-07-28T21:06:06Z</time>
      </trkpt>
      <trkpt lat="42.71696" lon="18.50309">
        <ele>494</ele>
        <time>2016-07-28T21:08:06Z</time>
      </trkpt>
      <trkpt lat="42.717" lon="18.50309">
        <ele>494</ele>
        <time>2016-07-28T21:10:06Z</time>
      </trkpt>
      <trkpt lat="42.71704" lon="18.50308">
        <ele>494</ele>
        <time>2016-07-28T21:12:06Z</time>
      </trkpt>
      <trkpt lat="42.71709" lon="18.50308">
        <ele>494</ele>
        <time>2016-07-28T21:14:06Z</time>
      </trkpt>
      <trkpt lat="42.71712" lon="18.50309">
        <ele>495</ele>
        <time>2016-07-28T21:16:06Z</time>
      </trkpt>
      <trkpt lat="42.71716" lon="18.5031">
        <ele>495</ele>
        <time>2016-07-28T21:18:06Z</time>
      </trkpt>
      <trkpt lat="42.7172" lon="18.50311">
        <ele>496</ele>
        <time>2016-07-28T21:20:06Z</time>
      </trkpt>
      <trkpt lat="42.71723" lon="18.50313">
        <ele>497</ele>
        <time>2016-07-28T21:22:06Z</time>
      </trkpt>
      <trkpt lat="42.71727" lon="18.50314">
        <ele>497</ele>
        <time>2016-07-28T21:24:06Z</time>
      </trkpt>
      <trkpt lat="42.7173" lon="18.50316">
        <ele>498</ele>
        <time>2016-07-28T21:26:06Z</time>
      </trkpt>
      <trkpt lat="42.71734" lon="18.50318">
        <ele>499</ele>
        <time>2016-07-28T21:28:06Z</time>
      </trkpt>
      <trkpt lat="42.71737" lon="18.5032">
        <ele>499</ele>
        <time>2016-07-28T21:30:06Z</time>
      </trkpt>
      <trkpt lat="42.71741" lon="18.50322">
        <ele>500</ele>
        <time>2016-07-28T21:32:06Z</time>
      </trkpt>
      <trkpt lat="42.71744" lon="18.50324">
        <ele>501</ele>
        <time>2016-07-28T21:34:06Z</time>
      </trkpt>
      <trkpt lat="42.71747" lon="18.50327">
        <ele>502</ele>
        <time>2016-07-28T21:36:06Z</time>
      </trkpt>
      <trkpt lat="42.7175" lon="18.50329">
        <ele>503</ele>
        <time>2016-07-28T21:38:06Z</time>
      </trkpt>
      <trkpt lat="42.71753" lon="18.50332">
        <ele>502</ele>
        <time>2016-07-28T21:40:06Z</time>
      </trkpt>
      <trkpt lat="42.71755" lon="18.50335">
        <ele>502</ele>
        <time>2016-07-28T21:42:06Z</time>
      </trkpt>
      <trkpt lat="42.71758" lon="18.50338">
        <ele>501</ele>
        <time>2016-07-28T21:44:06Z</time>
      </trkpt>
      <trkpt lat="42.71761" lon="18.5034">
        <ele>500</ele>
        <time>2016-07-28T21:46:06Z</time>
      </trkpt>
      <trkpt lat="42.71763" lon="18.50344">
        <ele>500</ele>
        <time>2016-07-28T21:48:06Z</time>
      </trkpt>
      <trkpt lat="42.71765" lon="18.50348">
        <ele>500</ele>
        <time>2016-07-28T21:50:06Z</time>
      </trkpt>
      <trkpt lat="42.71767" lon="18.50352">
        <ele>500</ele>
        <time>2016-07-28T21:52:06Z</time>
      </trkpt>
      <trkpt lat="42.71769" lon="18.50357">
        <ele>500</ele>
        <time>2016-07-28T21:54:06Z</time>
      </trkpt>
      <trkpt lat="42.71771" lon="18.50361">
        <ele>499</ele>
        <time>2016-07-28T21:56:06Z</time>
      </trkpt>
      <trkpt lat="42.71772" lon="18.50365">
        <ele>499</ele>
        <time>2016-07-28T21:58:06Z</time>
      </trkpt>
      <trkpt lat="42.71774" lon="18.5037">
        <ele>499</ele>
        <time>2016-07-28T22:00:06Z</time>
      </trkpt>
      <trkpt lat="42.71775" lon="18.50375">
        <ele>500</ele>
        <time>2016-07-28T22:02:06Z</time>
      </trkpt>
      <trkpt lat="42.71776" lon="18.50379">
        <ele>500</ele>
        <time>2016-07-28T22:04:06Z</time>
      </trkpt>
      <trkpt lat="42.71777" lon="18.50383">
        <ele>500</ele>
        <time>2016-07-28T22:06:06Z</time>
      </trkpt>
      <trkpt lat="42.71778" lon="18.50388">
        <ele>500</ele>
        <time>2016-07-28T22:08:06Z</time>
      </trkpt>
      <trkpt lat="42.71779" lon="18.50393">
        <ele>500</ele>
        <time>2016-07-28T22:10:06Z</time>
      </trkpt>
      <trkpt lat="42.71779" lon="18.50397">
        <ele>501</ele>
        <time>2016-07-28T22:12:06Z</time>
      </trkpt>
      <trkpt lat="42.7178" lon="18.50402">
        <ele>501</ele>
        <time>2016-07-28T22:14:06Z</time>
      </trkpt>
      <trkpt lat="42.7178" lon="18.50406">
        <ele>502</ele>
        <time>2016-07-28T22:16:06Z</time>
      </trkpt>
      <trkpt lat="42.7178" lon="18.50411">
        <ele>503</ele>
        <time>2016-07-28T22:18:06Z</time>
      </trkpt>
      <trkpt lat="42.7178" lon="18.50416">
        <ele>503</ele>
        <time>2016-07-28T22:20:06Z</time>
      </trkpt>
      <trkpt lat="42.71772" lon="18.50484">
        <ele>511</ele>
        <time>2016-07-28T22:22:06Z</time>
      </trkpt>
      <trkpt lat="42.7175" lon="18.50665">
        <ele>519</ele>
        <time>2016-07-28T22:24:06Z</time>
      </trkpt>
      <trkpt lat="42.71748" lon="18.50678">
        <ele>520</ele>
        <time>2016-07-28T22:26:06Z</time>
      </trkpt>
      <trkpt lat="42.71747" lon="18.50691">
        <ele>520</ele>
        <time>2016-07-28T22:28:06Z</time>
      </trkpt>
      <trkpt lat="42.71745" lon="18.50703">
        <ele>521</ele>
        <time>2016-07-28T22:30:06Z</time>
      </trkpt>
      <trkpt lat="42.71743" lon="18.50716">
        <ele>522</ele>
        <time>2016-07-28T22:32:06Z</time>
      </trkpt>
      <trkpt lat="42.71741" lon="18.50729">
        <ele>522</ele>
        <time>2016-07-28T22:34:06Z</time>
      </trkpt>
      <trkpt lat="42.71739" lon="18.50741">
        <ele>523</ele>
        <time>2016-07-28T22:36:06Z</time>
      </trkpt>
      <trkpt lat="42.71737" lon="18.50754">
        <ele>523</ele>
        <time>2016-07-28T22:38:06Z</time>
      </trkpt>
      <trkpt lat="42.71735" lon="18.50766">
        <ele>523</ele>
        <time>2016-07-28T22:40:06Z</time>
      </trkpt>
      <trkpt lat="42.71732" lon="18.50778">
        <ele>524</ele>
        <time>2016-07-28T22:42:06Z</time>
      </trkpt>
      <trkpt lat="42.7173" lon="18.50788">
        <ele>524</ele>
        <time>2016-07-28T22:44:06Z</time>
      </trkpt>
      <trkpt lat="42.71728" lon="18.50797">
        <ele>525</ele>
        <time>2016-07-28T22:46:06Z</time>
      </trkpt>
      <trkpt lat="42.71726" lon="18.50807">
        <ele>525</ele>
        <time>2016-07-28T22:48:06Z</time>
      </trkpt>
      <trkpt lat="42.71724" lon="18.50816">
        <ele>525</ele>
        <time>2016-07-28T22:50:06Z</time>
      </trkpt>
      <trkpt lat="42.71721" lon="18.50826">
        <ele>526</ele>
        <time>2016-07-28T22:52:06Z</time>
      </trkpt>
      <trkpt lat="42.71719" lon="18.50834">
        <ele>527</ele>
        <time>2016-07-28T22:54:06Z</time>
      </trkpt>
      <trkpt lat="42.71717" lon="18.50841">
        <ele>527</ele>
        <time>2016-07-28T22:56:06Z</time>
      </trkpt>
      <trkpt lat="42.71714" lon="18.50849">
        <ele>528</ele>
        <time>2016-07-28T22:58:06Z</time>
      </trkpt>
      <trkpt lat="42.71712" lon="18.50857">
        <ele>528</ele>
        <time>2016-07-28T23:00:06Z</time>
      </trkpt>
      <trkpt lat="42.71699" lon="18.509">
        <ele>531</ele>
        <time>2016-07-28T23:02:06Z</time>
      </trkpt>
      <trkpt lat="42.71688" lon="18.50934">
        <ele>533</ele>
        <time>2016-07-28T23:04:06Z</time>
      </trkpt>
      <trkpt lat="42.71678" lon="18.50962">
        <ele>534</ele>
        <time>2016-07-28T23:06:06Z</time>
      </trkpt>
      <trkpt lat="42.71674" lon="18.50971">
        <ele>535</ele>
        <time>2016-07-28T23:08:06Z</time>
      </trkpt>
      <trkpt lat="42.7167" lon="18.50981">
        <ele>535</ele>
        <time>2016-07-28T23:10:06Z</time>
      </trkpt>
      <trkpt lat="42.71667" lon="18.50991">
        <ele>535</ele>
        <time>2016-07-28T23:12:06Z</time>
      </trkpt>
      <trkpt lat="42.71663" lon="18.51">
        <ele>536</ele>
        <time>2016-07-28T23:14:06Z</time>
      </trkpt>
      <trkpt lat="42.71659" lon="18.5101">
        <ele>537</ele>
        <time>2016-07-28T23:16:06Z</time>
      </trkpt>
      <trkpt lat="42.71655" lon="18.51019">
        <ele>537</ele>
        <time>2016-07-28T23:18:06Z</time>
      </trkpt>
      <trkpt lat="42.71651" lon="18.51029">
        <ele>537</ele>
        <time>2016-07-28T23:20:06Z</time>
      </trkpt>
      <trkpt lat="42.71646" lon="18.51039">
        <ele>538</ele>
        <time>2016-07-28T23:22:06Z</time>
      </trkpt>
      <trkpt lat="42.71642" lon="18.51048">
        <ele>538</ele>
        <time>2016-07-28T23:24:06Z</time>
      </trkpt>
      <trkpt lat="42.71637" lon="18.51057">
        <ele>539</ele>
        <time>2016-07-28T23:26:06Z</time>
      </trkpt>
      <trkpt lat="42.71588" lon="18.51148">
        <ele>546</ele>
        <time>2016-07-28T23:28:06Z</time>
      </trkpt>
      <trkpt lat="42.71582" lon="18.51159">
        <ele>546</ele>
        <time>2016-07-28T23:30:06Z</time>
      </trkpt>
      <trkpt lat="42.71577" lon="18.51169">
        <ele>547</ele>
        <time>2016-07-28T23:32:06Z</time>
      </trkpt>
      <trkpt lat="42.71572" lon="18.5118">
        <ele>547</ele>
        <time>2016-07-28T23:34:06Z</time>
      </trkpt>
      <trkpt lat="42.71567" lon="18.51191">
        <ele>548</ele>
        <time>2016-07-28T23:36:06Z</time>
      </trkpt>
      <trkpt lat="42.71562" lon="18.51202">
        <ele>548</ele>
        <time>2016-07-28T23:38:06Z</time>
      </trkpt>
      <trkpt lat="42.71557" lon="18.51213">
        <ele>549</ele>
        <time>2016-07-28T23:40:06Z</time>
      </trkpt>
      <trkpt lat="42.71552" lon="18.51224">
        <ele>549</ele>
        <time>2016-07-28T23:42:06Z</time>
      </trkpt>
      <trkpt lat="42.71547" lon="18.51236">
        <ele>550</ele>
        <time>2016-07-28T23:44:06Z</time>
      </trkpt>
      <trkpt lat="42.71543" lon="18.51248">
        <ele>549</ele>
        <time>2016-07-28T23:46:06Z</time>
      </trkpt>
      <trkpt lat="42.71518" lon="18.51317">
        <ele>551</ele>
        <time>2016-07-28T23:48:06Z</time>
      </trkpt>
      <trkpt lat="42.71513" lon="18.51327">
        <ele>551</ele>
        <time>2016-07-28T23:50:06Z</time>
      </trkpt>
      <trkpt lat="42.71508" lon="18.51337">
        <ele>552</ele>
        <time>2016-07-28T23:52:06Z</time>
      </trkpt>
      <trkpt lat="42.71504" lon="18.51347">
        <ele>552</ele>
        <time>2016-07-28T23:54:06Z</time>
      </trkpt>
      <trkpt lat="42.71499" lon="18.51357">
        <ele>553</ele>
        <time>2016-07-28T23:56:06Z</time>
      </trkpt>
      <trkpt lat="42.71494" lon="18.51367">
        <ele>553</ele>
        <time>2016-07-28T23:58:06Z</time>
      </trkpt>
      <trkpt lat="42.71488" lon="18.51377">
        <ele>555</ele>
        <time>2016-07-29T00:00:06Z</time>
      </trkpt>
      <trkpt lat="42.71483" lon="18.51387">
        <ele>555</ele>
        <time>2016-07-29T00:02:06Z</time>
      </trkpt>
      <trkpt lat="42.71478" lon="18.51397">
        <ele>556</ele>
        <time>2016-07-29T00:04:06Z</time>
      </trkpt>
      <trkpt lat="42.71472" lon="18.51406">
        <ele>557</ele>
        <time>2016-07-29T00:06:06Z</time>
      </trkpt>
      <trkpt lat="42.7133" lon="18.51651">
        <ele>571</ele>
        <time>2016-07-29T00:08:06Z</time>
      </trkpt>
      <trkpt lat="42.71278" lon="18.51742">
        <ele>572</ele>
        <time>2016-07-29T00:10:06Z</time>
      </trkpt>
      <trkpt lat="42.71274" lon="18.5175">
        <ele>571</ele>
        <time>2016-07-29T00:12:06Z</time>
      </trkpt>
      <trkpt lat="42.71269" lon="18.51758">
        <ele>572</ele>
        <time>2016-07-29T00:14:06Z</time>
      </trkpt>
      <trkpt lat="42.71265" lon="18.51767">
        <ele>572</ele>
        <time>2016-07-29T00:16:06Z</time>
      </trkpt>
      <trkpt lat="42.71261" lon="18.51776">
        <ele>573</ele>
        <time>2016-07-29T00:18:06Z</time>
      </trkpt>
      <trkpt lat="42.71256" lon="18.51784">
        <ele>573</ele>
        <time>2016-07-29T00:20:06Z</time>
      </trkpt>
      <trkpt lat="42.71252" lon="18.51793">
        <ele>574</ele>
        <time>2016-07-29T00:22:06Z</time>
      </trkpt>
      <trkpt lat="42.71249" lon="18.518">
        <ele>574</ele>
        <time>2016-07-29T00:24:06Z</time>
      </trkpt>
      <trkpt lat="42.71246" lon="18.51808">
        <ele>574</ele>
        <time>2016-07-29T00:26:06Z</time>
      </trkpt>
      <trkpt lat="42.71243" lon="18.51815">
        <ele>574</ele>
        <time>2016-07-29T00:28:06Z</time>
      </trkpt>
      <trkpt lat="42.71241" lon="18.51822">
        <ele>574</ele>
        <time>2016-07-29T00:30:06Z</time>
      </trkpt>
      <trkpt lat="42.71238" lon="18.5183">
        <ele>574</ele>
        <time>2016-07-29T00:32:06Z</time>
      </trkpt>
      <trkpt lat="42.71237" lon="18.51837">
        <ele>574</ele>
        <time>2016-07-29T00:34:06Z</time>
      </trkpt>
      <trkpt lat="42.71235" lon="18.51844">
        <ele>574</ele>
        <time>2016-07-29T00:36:06Z</time>
      </trkpt>
      <trkpt lat="42.71234" lon="18.51851">
        <ele>575</ele>
        <time>2016-07-29T00:38:06Z</time>
      </trkpt>
      <trkpt lat="42.71233" lon="18.51858">
        <ele>575</ele>
        <time>2016-07-29T00:40:06Z</time>
      </trkpt>
      <trkpt lat="42.71232" lon="18.51865">
        <ele>575</ele>
        <time>2016-07-29T00:42:06Z</time>
      </trkpt>
      <trkpt lat="42.71232" lon="18.51872">
        <ele>576</ele>
        <time>2016-07-29T00:44:06Z</time>
      </trkpt>
      <trkpt lat="42.71231" lon="18.5188">
        <ele>576</ele>
        <time>2016-07-29T00:46:06Z</time>
      </trkpt>
      <trkpt lat="42.71231" lon="18.51887">
        <ele>576</ele>
        <time>2016-07-29T00:48:06Z</time>
      </trkpt>
      <trkpt lat="42.7123" lon="18.51894">
        <ele>576</ele>
        <time>2016-07-29T00:50:06Z</time>
      </trkpt>
      <trkpt lat="42.7123" lon="18.519">
        <ele>577</ele>
        <time>2016-07-29T00:52:06Z</time>
      </trkpt>
      <trkpt lat="42.7123" lon="18.51907">
        <ele>577</ele>
        <time>2016-07-29T00:54:06Z</time>
      </trkpt>
      <trkpt lat="42.7123" lon="18.51914">
        <ele>577</ele>
        <time>2016-07-29T00:56:06Z</time>
      </trkpt>
      <trkpt lat="42.7123" lon="18.51921">
        <ele>577</ele>
        <time>2016-07-29T00:58:06Z</time>
      </trkpt>
      <trkpt lat="42.71231" lon="18.51927">
        <ele>578</ele>
        <time>2016-07-29T01:00:06Z</time>
      </trkpt>
      <trkpt lat="42.71233" lon="18.51935">
        <ele>578</ele>
        <time>2016-07-29T01:02:06Z</time>
      </trkpt>
      <trkpt lat="42.71234" lon="18.51943">
        <ele>578</ele>
        <time>2016-07-29T01:04:06Z</time>
      </trkpt>
      <trkpt lat="42.71237" lon="18.51951">
        <ele>579</ele>
        <time>2016-07-29T01:06:06Z</time>
      </trkpt>
      <trkpt lat="42.71239" lon="18.51959">
        <ele>579</ele>
        <time>2016-07-29T01:08:06Z</time>
      </trkpt>
      <trkpt lat="42.71241" lon="18.51965">
        <ele>579</ele>
        <time>2016-07-29T01:10:06Z</time>
      </trkpt>
      <trkpt lat="42.71243" lon="18.51972">
        <ele>580</ele>
        <time>2016-07-29T01:12:06Z</time>
      </trkpt>
      <trkpt lat="42.71245" lon="18.51978">
        <ele>580</ele>
        <time>2016-07-29T01:14:06Z</time>
      </trkpt>
      <trkpt lat="42.71247" lon="18.51985">
        <ele>580</ele>
        <time>2016-07-29T01:16:06Z</time>
      </trkpt>
      <trkpt lat="42.7125" lon="18.51991">
        <ele>580</ele>
        <time>2016-07-29T01:18:06Z</time>
      </trkpt>
      <trkpt lat="42.71262" lon="18.52018">
        <ele>582</ele>
        <time>2016-07-29T01:20:06Z</time>
      </trkpt>
      <trkpt lat="42.71265" lon="18.52023">
        <ele>582</ele>
        <time>2016-07-29T01:22:06Z</time>
      </trkpt>
      <trkpt lat="42.71268" lon="18.52029">
        <ele>583</ele>
        <time>2016-07-29T01:24:06Z</time>
      </trkpt>
      <trkpt lat="42.7127" lon="18.52035">
        <ele>583</ele>
        <time>2016-07-29T01:26:06Z</time>
      </trkpt>
      <trkpt lat="42.71272" lon="18.52041">
        <ele>583</ele>
        <time>2016-07-29T01:28:06Z</time>
      </trkpt>
      <trkpt lat="42.71275" lon="18.52048">
        <ele>584</ele>
        <time>2016-07-29T01:30:06Z</time>
      </trkpt>
      <trkpt lat="42.71277" lon="18.52054">
        <ele>584</ele>
        <time>2016-07-29T01:32:06Z</time>
      </trkpt>
      <trkpt lat="42.71279" lon="18.5206">
        <ele>584</ele>
        <time>2016-07-29T01:34:06Z</time>
      </trkpt>
      <trkpt lat="42.7128" lon="18.52066">
        <ele>585</ele>
        <time>2016-07-29T01:36:06Z</time>
      </trkpt>
      <trkpt lat="42.71282" lon="18.52072">
        <ele>585</ele>
        <time>2016-07-29T01:38:06Z</time>
      </trkpt>
      <trkpt lat="42.71284" lon="18.52078">
        <ele>585</ele>
        <time>2016-07-29T01:40:06Z</time>
      </trkpt>
      <trkpt lat="42.71285" lon="18.52085">
        <ele>586</ele>
        <time>2016-07-29T01:42:06Z</time>
      </trkpt>
      <trkpt lat="42.71301" lon="18.52176">
        <ele>593</ele>
        <time>2016-07-29T01:44:06Z</time>
      </trkpt>
      <trkpt lat="42.71302" lon="18.52181">
        <ele>593</ele>
        <time>2016-07-29T01:46:06Z</time>
      </trkpt>
      <trkpt lat="42.71304" lon="18.52186">
        <ele>593</ele>
        <time>2016-07-29T01:48:06Z</time>
      </trkpt>
      <trkpt lat="42.71305" lon="18.5219">
        <ele>593</ele>
        <time>2016-07-29T01:50:06Z</time>
      </trkpt>
      <trkpt lat="42.71307" lon="18.52195">
        <ele>594</ele>
        <time>2016-07-29T01:52:06Z</time>
      </trkpt>
      <trkpt lat="42.71308" lon="18.52199">
        <ele>594</ele>
        <time>2016-07-29T01:54:06Z</time>
      </trkpt>
      <trkpt lat="42.7131" lon="18.52204">
        <ele>594</ele>
        <time>2016-07-29T01:56:06Z</time>
      </trkpt>
      <trkpt lat="42.71312" lon="18.52208">
        <ele>594</ele>
        <time>2016-07-29T01:58:06Z</time>
      </trkpt>
      <trkpt lat="42.71314" lon="18.52212">
        <ele>594</ele>
        <time>2016-07-29T02:00:06Z</time>
      </trkpt>
      <trkpt lat="42.71316" lon="18.52216">
        <ele>595</ele>
        <time>2016-07-29T02:02:06Z</time>
      </trkpt>
      <trkpt lat="42.71318" lon="18.5222">
        <ele>595</ele>
        <time>2016-07-29T02:04:06Z</time>
      </trkpt>
      <trkpt lat="42.7132" lon="18.52224">
        <ele>595</ele>
        <time>2016-07-29T02:06:06Z</time>
      </trkpt>
      <trkpt lat="42.71323" lon="18.52228">
        <ele>595</ele>
        <time>2016-07-29T02:08:06Z</time>
      </trkpt>
      <trkpt lat="42.71326" lon="18.52232">
        <ele>595</ele>
        <time>2016-07-29T02:10:06Z</time>
      </trkpt>
      <trkpt lat="42.71328" lon="18.52235">
        <ele>595</ele>
        <time>2016-07-29T02:12:06Z</time>
      </trkpt>
      <trkpt lat="42.71331" lon="18.52239">
        <ele>595</ele>
        <time>2016-07-29T02:14:06Z</time>
      </trkpt>
      <trkpt lat="42.71334" lon="18.52242">
        <ele>595</ele>
        <time>2016-07-29T02:16:06Z</time>
      </trkpt>
      <trkpt lat="42.71337" lon="18.52245">
        <ele>596</ele>
        <time>2016-07-29T02:18:06Z</time>
      </trkpt>
      <trkpt lat="42.7134" lon="18.52248">
        <ele>596</ele>
        <time>2016-07-29T02:20:06Z</time>
      </trkpt>
      <trkpt lat="42.71343" lon="18.5225">
        <ele>596</ele>
        <time>2016-07-29T02:22:06Z</time>
      </trkpt>
      <trkpt lat="42.71346" lon="18.52252">
        <ele>596</ele>
        <time>2016-07-29T02:24:06Z</time>
      </trkpt>
      <trkpt lat="42.7135" lon="18.52255">
        <ele>597</ele>
        <time>2016-07-29T02:26:06Z</time>
      </trkpt>
      <trkpt lat="42.71353" lon="18.52256">
        <ele>597</ele>
        <time>2016-07-29T02:28:06Z</time>
      </trkpt>
      <trkpt lat="42.71357" lon="18.52258">
        <ele>597</ele>
        <time>2016-07-29T02:30:06Z</time>
      </trkpt>
      <trkpt lat="42.7136" lon="18.5226">
        <ele>598</ele>
        <time>2016-07-29T02:32:06Z</time>
      </trkpt>
      <trkpt lat="42.71364" lon="18.52261">
        <ele>598</ele>
        <time>2016-07-29T02:34:06Z</time>
      </trkpt>
      <trkpt lat="42.71367" lon="18.52262">
        <ele>598</ele>
        <time>2016-07-29T02:36:06Z</time>
      </trkpt>
      <trkpt lat="42.71371" lon="18.52264">
        <ele>598</ele>
        <time>2016-07-29T02:38:06Z</time>
      </trkpt>
      <trkpt lat="42.71375" lon="18.52264">
        <ele>599</ele>
        <time>2016-07-29T02:40:06Z</time>
      </trkpt>
      <trkpt lat="42.71378" lon="18.52265">
        <ele>599</ele>
        <time>2016-07-29T02:42:06Z</time>
      </trkpt>
      <trkpt lat="42.71382" lon="18.52266">
        <ele>599</ele>
        <time>2016-07-29T02:44:06Z</time>
      </trkpt>
      <trkpt lat="42.71386" lon="18.52266">
        <ele>599</ele>
        <time>2016-07-29T02:46:06Z</time>
      </trkpt>
      <trkpt lat="42.7139" lon="18.52266">
        <ele>599</ele>
        <time>2016-07-29T02:48:06Z</time>
      </trkpt>
      <trkpt lat="42.71393" lon="18.52266">
        <ele>600</ele>
        <time>2016-07-29T02:50:06Z</time>
      </trkpt>
      <trkpt lat="42.71398" lon="18.52265">
        <ele>600</ele>
        <time>2016-07-29T02:52:06Z</time>
      </trkpt>
      <trkpt lat="42.71401" lon="18.52265">
        <ele>600</ele>
        <time>2016-07-29T02:54:06Z</time>
      </trkpt>
      <trkpt lat="42.71405" lon="18.52263">
        <ele>599</ele>
        <time>2016-07-29T02:56:06Z</time>
      </trkpt>
      <trkpt lat="42.71409" lon="18.52261">
        <ele>599</ele>
        <time>2016-07-29T02:58:06Z</time>
      </trkpt>
      <trkpt lat="42.71413" lon="18.52259">
        <ele>599</ele>
        <time>2016-07-29T03:00:06Z</time>
      </trkpt>
      <trkpt lat="42.71418" lon="18.52256">
        <ele>599</ele>
        <time>2016-07-29T03:02:06Z</time>
      </trkpt>
      <trkpt lat="42.71422" lon="18.52254">
        <ele>599</ele>
        <time>2016-07-29T03:04:06Z</time>
      </trkpt>
      <trkpt lat="42.71427" lon="18.52251">
        <ele>600</ele>
        <time>2016-07-29T03:06:06Z</time>
      </trkpt>
      <trkpt lat="42.71431" lon="18.52248">
        <ele>601</ele>
        <time>2016-07-29T03:08:06Z</time>
      </trkpt>
      <trkpt lat="42.71435" lon="18.52245">
        <ele>602</ele>
        <time>2016-07-29T03:10:06Z</time>
      </trkpt>
      <trkpt lat="42.71438" lon="18.52242">
        <ele>603</ele>
        <time>2016-07-29T03:12:06Z</time>
      </trkpt>
      <trkpt lat="42.71442" lon="18.52239">
        <ele>604</ele>
        <time>2016-07-29T03:14:06Z</time>
      </trkpt>
      <trkpt lat="42.71445" lon="18.52236">
        <ele>604</ele>
        <time>2016-07-29T03:16:06Z</time>
      </trkpt>
      <trkpt lat="42.71449" lon="18.52232">
        <ele>605</ele>
        <time>2016-07-29T03:18:06Z</time>
      </trkpt>
      <trkpt lat="42.71452" lon="18.52228">
        <ele>605</ele>
        <time>2016-07-29T03:20:06Z</time>
      </trkpt>
      <trkpt lat="42.71455" lon="18.52224">
        <ele>606</ele>
        <time>2016-07-29T03:22:06Z</time>
      </trkpt>
      <trkpt lat="42.71459" lon="18.5222">
        <ele>606</ele>
        <time>2016-07-29T03:24:06Z</time>
      </trkpt>
      <trkpt lat="42.71462" lon="18.52216">
        <ele>607</ele>
        <time>2016-07-29T03:26:06Z</time>
      </trkpt>
      <trkpt lat="42.71498" lon="18.52135">
        <ele>606</ele>
        <time>2016-07-29T03:28:06Z</time>
      </trkpt>
      <trkpt lat="42.71519" lon="18.52087">
        <ele>607</ele>
        <time>2016-07-29T03:30:06Z</time>
      </trkpt>
      <trkpt lat="42.71522" lon="18.52081">
        <ele>608</ele>
        <time>2016-07-29T03:32:06Z</time>
      </trkpt>
      <trkpt lat="42.71525" lon="18.52075">
        <ele>608</ele>
        <time>2016-07-29T03:34:06Z</time>
      </trkpt>
      <trkpt lat="42.71527" lon="18.52068">
        <ele>608</ele>
        <time>2016-07-29T03:36:06Z</time>
      </trkpt>
      <trkpt lat="42.7153" lon="18.52062">
        <ele>609</ele>
        <time>2016-07-29T03:38:06Z</time>
      </trkpt>
      <trkpt lat="42.71532" lon="18.52055">
        <ele>609</ele>
        <time>2016-07-29T03:40:06Z</time>
      </trkpt>
      <trkpt lat="42.71534" lon="18.52049">
        <ele>609</ele>
        <time>2016-07-29T03:42:06Z</time>
      </trkpt>
      <trkpt lat="42.71536" lon="18.52042">
        <ele>609</ele>
        <time>2016-07-29T03:44:06Z</time>
      </trkpt>
      <trkpt lat="42.71538" lon="18.52035">
        <ele>609</ele>
        <time>2016-07-29T03:46:06Z</time>
      </trkpt>
      <trkpt lat="42.7154" lon="18.52029">
        <ele>609</ele>
        <time>2016-07-29T03:48:06Z</time>
      </trkpt>
      <trkpt lat="42.71541" lon="18.52022">
        <ele>609</ele>
        <time>2016-07-29T03:50:06Z</time>
      </trkpt>
      <trkpt lat="42.71543" lon="18.52015">
        <ele>609</ele>
        <time>2016-07-29T03:52:06Z</time>
      </trkpt>
      <trkpt lat="42.71543" lon="18.52012">
        <ele>609</ele>
        <time>2016-07-29T03:54:06Z</time>
      </trkpt>
      <trkpt lat="42.71544" lon="18.52009">
        <ele>609</ele>
        <time>2016-07-29T03:56:06Z</time>
      </trkpt>
      <trkpt lat="42.71545" lon="18.52006">
        <ele>609</ele>
        <time>2016-07-29T03:58:06Z</time>
      </trkpt>
      <trkpt lat="42.71546" lon="18.52003">
        <ele>608</ele>
        <time>2016-07-29T04:00:06Z</time>
      </trkpt>
      <trkpt lat="42.71547" lon="18.52">
        <ele>608</ele>
        <time>2016-07-29T04:02:06Z</time>
      </trkpt>
      <trkpt lat="42.71548" lon="18.51997">
        <ele>608</ele>
        <time>2016-07-29T04:04:06Z</time>
      </trkpt>
      <trkpt lat="42.71549" lon="18.51994">
        <ele>608</ele>
        <time>2016-07-29T04:06:06Z</time>
      </trkpt>
      <trkpt lat="42.71551" lon="18.51991">
        <ele>609</ele>
        <time>2016-07-29T04:08:06Z</time>
      </trkpt>
      <trkpt lat="42.71552" lon="18.51988">
        <ele>609</ele>
        <time>2016-07-29T04:10:06Z</time>
      </trkpt>
      <trkpt lat="42.71554" lon="18.51986">
        <ele>609</ele>
        <time>2016-07-29T04:12:06Z</time>
      </trkpt>
      <trkpt lat="42.71556" lon="18.51983">
        <ele>609</ele>
        <time>2016-07-29T04:14:06Z</time>
      </trkpt>
      <trkpt lat="42.71557" lon="18.51981">
        <ele>609</ele>
        <time>2016-07-29T04:16:06Z</time>
      </trkpt>
      <trkpt lat="42.71559" lon="18.51979">
        <ele>610</ele>
        <time>2016-07-29T04:18:06Z</time>
      </trkpt>
      <trkpt lat="42.71561" lon="18.51977">
        <ele>610</ele>
        <time>2016-07-29T04:20:06Z</time>
      </trkpt>
      <trkpt lat="42.71563" lon="18.51976">
        <ele>610</ele>
        <time>2016-07-29T04:22:06Z</time>
      </trkpt>
      <trkpt lat="42.71565" lon="18.51975">
        <ele>611</ele>
        <time>2016-07-29T04:24:06Z</time>
      </trkpt>
      <trkpt lat="42.71566" lon="18.51975">
        <ele>611</ele>
        <time>2016-07-29T04:26:06Z</time>
      </trkpt>
      <trkpt lat="42.71568" lon="18.51975">
        <ele>611</ele>
        <time>2016-07-29T04:28:06Z</time>
      </trkpt>
      <trkpt lat="42.7157" lon="18.51975">
        <ele>612</ele>
        <time>2016-07-29T04:30:06Z</time>
      </trkpt>
      <trkpt lat="42.71572" lon="18.51975">
        <ele>612</ele>
        <time>2016-07-29T04:32:06Z</time>
      </trkpt>
      <trkpt lat="42.71573" lon="18.51976">
        <ele>613</ele>
        <time>2016-07-29T04:34:06Z</time>
      </trkpt>
      <trkpt lat="42.71575" lon="18.51977">
        <ele>613</ele>
        <time>2016-07-29T04:36:06Z</time>
      </trkpt>
      <trkpt lat="42.71577" lon="18.51977">
        <ele>614</ele>
        <time>2016-07-29T04:38:06Z</time>
      </trkpt>
      <trkpt lat="42.71578" lon="18.51979">
        <ele>614</ele>
        <time>2016-07-29T04:40:06Z</time>
      </trkpt>
      <trkpt lat="42.7158" lon="18.5198">
        <ele>615</ele>
        <time>2016-07-29T04:42:06Z</time>
      </trkpt>
      <trkpt lat="42.71581" lon="18.51981">
        <ele>615</ele>
        <time>2016-07-29T04:44:06Z</time>
      </trkpt>
      <trkpt lat="42.71582" lon="18.51983">
        <ele>616</ele>
        <time>2016-07-29T04:46:06Z</time>
      </trkpt>
      <trkpt lat="42.71584" lon="18.51985">
        <ele>617</ele>
        <time>2016-07-29T04:48:06Z</time>
      </trkpt>
      <trkpt lat="42.71585" lon="18.51988">
        <ele>617</ele>
        <time>2016-07-29T04:50:06Z</time>
      </trkpt>
      <trkpt lat="42.71586" lon="18.5199">
        <ele>618</ele>
        <time>2016-07-29T04:52:06Z</time>
      </trkpt>
      <trkpt lat="42.71587" lon="18.51992">
        <ele>618</ele>
        <time>2016-07-29T04:54:06Z</time>
      </trkpt>
      <trkpt lat="42.71587" lon="18.51995">
        <ele>618</ele>
        <time>2016-07-29T04:56:06Z</time>
      </trkpt>
      <trkpt lat="42.71588" lon="18.51997">
        <ele>619</ele>
        <time>2016-07-29T04:58:06Z</time>
      </trkpt>
      <trkpt lat="42.71588" lon="18.52">
        <ele>619</ele>
        <time>2016-07-29T05:00:06Z</time>
      </trkpt>
      <trkpt lat="42.71589" lon="18.52003">
        <ele>620</ele>
        <time>2016-07-29T05:02:06Z</time>
      </trkpt>
      <trkpt lat="42.71589" lon="18.52005">
        <ele>620</ele>
        <time>2016-07-29T05:04:06Z</time>
      </trkpt>
      <trkpt lat="42.71589" lon="18.52008">
        <ele>621</ele>
        <time>2016-07-29T05:06:06Z</time>
      </trkpt>
      <trkpt lat="42.71589" lon="18.52011">
        <ele>621</ele>
        <time>2016-07-29T05:08:06Z</time>
      </trkpt>
      <trkpt lat="42.71589" lon="18.52013">
        <ele>622</ele>
        <time>2016-07-29T05:10:06Z</time>
      </trkpt>
      <trkpt lat="42.71588" lon="18.52017">
        <ele>622</ele>
        <time>2016-07-29T05:12:06Z</time>
      </trkpt>
      <trkpt lat="42.71586" lon="18.5202">
        <ele>622</ele>
        <time>2016-07-29T05:14:06Z</time>
      </trkpt>
      <trkpt lat="42.71584" lon="18.52024">
        <ele>622</ele>
        <time>2016-07-29T05:16:06Z</time>
      </trkpt>
      <trkpt lat="42.71582" lon="18.52027">
        <ele>622</ele>
        <time>2016-07-29T05:18:06Z</time>
      </trkpt>
      <trkpt lat="42.71579" lon="18.52031">
        <ele>622</ele>
        <time>2016-07-29T05:20:06Z</time>
      </trkpt>
      <trkpt lat="42.71577" lon="18.52034">
        <ele>622</ele>
        <time>2016-07-29T05:22:06Z</time>
      </trkpt>
      <trkpt lat="42.71574" lon="18.52038">
        <ele>621</ele>
        <time>2016-07-29T05:24:06Z</time>
      </trkpt>
      <trkpt lat="42.71572" lon="18.52041">
        <ele>621</ele>
        <time>2016-07-29T05:26:06Z</time>
      </trkpt>
      <trkpt lat="42.71569" lon="18.52045">
        <ele>621</ele>
        <time>2016-07-29T05:28:06Z</time>
      </trkpt>
      <trkpt lat="42.71565" lon="18.5205">
        <ele>620</ele>
        <time>2016-07-29T05:30:06Z</time>
      </trkpt>
      <trkpt lat="42.71562" lon="18.52054">
        <ele>620</ele>
        <time>2016-07-29T05:32:06Z</time>
      </trkpt>
      <trkpt lat="42.7156" lon="18.52059">
        <ele>620</ele>
        <time>2016-07-29T05:34:06Z</time>
      </trkpt>
      <trkpt lat="42.71557" lon="18.52063">
        <ele>619</ele>
        <time>2016-07-29T05:36:06Z</time>
      </trkpt>
      <trkpt lat="42.71554" lon="18.52068">
        <ele>619</ele>
        <time>2016-07-29T05:38:06Z</time>
      </trkpt>
      <trkpt lat="42.71552" lon="18.52072">
        <ele>618</ele>
        <time>2016-07-29T05:40:06Z</time>
      </trkpt>
      <trkpt lat="42.7155" lon="18.52077">
        <ele>618</ele>
        <time>2016-07-29T05:42:06Z</time>
      </trkpt>
      <trkpt lat="42.71548" lon="18.52081">
        <ele>618</ele>
        <time>2016-07-29T05:44:06Z</time>
      </trkpt>
      <trkpt lat="42.71546" lon="18.52085">
        <ele>618</ele>
        <time>2016-07-29T05:46:06Z</time>
      </trkpt>
      <trkpt lat="42.71545" lon="18.5209">
        <ele>618</ele>
        <time>2016-07-29T05:48:06Z</time>
      </trkpt>
      <trkpt lat="42.71543" lon="18.52095">
        <ele>618</ele>
        <time>2016-07-29T05:50:06Z</time>
      </trkpt>
      <trkpt lat="42.71541" lon="18.521">
        <ele>618</ele>
        <time>2016-07-29T05:52:06Z</time>
      </trkpt>
      <trkpt lat="42.7154" lon="18.52105">
        <ele>618</ele>
        <time>2016-07-29T05:54:06Z</time>
      </trkpt>
      <trkpt lat="42.71539" lon="18.5211">
        <ele>619</ele>
        <time>2016-07-29T05:56:06Z</time>
      </trkpt>
      <trkpt lat="42.71537" lon="18.52115">
        <ele>619</ele>
        <time>2016-07-29T05:58:06Z</time>
      </trkpt>
      <trkpt lat="42.71536" lon="18.52121">
        <ele>619</ele>
        <time>2016-07-29T06:00:06Z</time>
      </trkpt>
      <trkpt lat="42.71535" lon="18.52126">
        <ele>620</ele>
        <time>2016-07-29T06:02:06Z</time>
      </trkpt>
      <trkpt lat="42.71534" lon="18.52131">
        <ele>620</ele>
        <time>2016-07-29T06:04:06Z</time>
      </trkpt>
      <trkpt lat="42.71534" lon="18.52136">
        <ele>621</ele>
        <time>2016-07-29T06:06:06Z</time>
      </trkpt>
      <trkpt lat="42.71533" lon="18.52141">
        <ele>621</ele>
        <time>2016-07-29T06:08:06Z</time>
      </trkpt>
      <trkpt lat="42.71533" lon="18.52146">
        <ele>622</ele>
        <time>2016-07-29T06:10:06Z</time>
      </trkpt>
      <trkpt lat="42.71532" lon="18.5215">
        <ele>623</ele>
        <time>2016-07-29T06:12:06Z</time>
      </trkpt>
      <trkpt lat="42.71532" lon="18.52155">
        <ele>623</ele>
        <time>2016-07-29T06:14:06Z</time>
      </trkpt>
      <trkpt lat="42.71529" lon="18.52199">
        <ele>628</ele>
        <time>2016-07-29T06:16:06Z</time>
      </trkpt>
      <trkpt lat="42.71528" lon="18.52204">
        <ele>628</ele>
        <time>2016-07-29T06:18:06Z</time>
      </trkpt>
      <trkpt lat="42.71528" lon="18.5221">
        <ele>629</ele>
        <time>2016-07-29T06:20:06Z</time>
      </trkpt>
      <trkpt lat="42.71527" lon="18.52215">
        <ele>629</ele>
        <time>2016-07-29T06:22:06Z</time>
      </trkpt>
      <trkpt lat="42.71526" lon="18.5222">
        <ele>629</ele>
        <time>2016-07-29T06:24:06Z</time>
      </trkpt>
      <trkpt lat="42.71525" lon="18.52225">
        <ele>630</ele>
        <time>2016-07-29T06:26:06Z</time>
      </trkpt>
      <trkpt lat="42.71524" lon="18.5223">
        <ele>630</ele>
        <time>2016-07-29T06:28:06Z</time>
      </trkpt>
      <trkpt lat="42.71523" lon="18.52236">
        <ele>630</ele>
        <time>2016-07-29T06:30:06Z</time>
      </trkpt>
      <trkpt lat="42.71521" lon="18.52241">
        <ele>630</ele>
        <time>2016-07-29T06:32:06Z</time>
      </trkpt>
      <trkpt lat="42.7152" lon="18.52246">
        <ele>630</ele>
        <time>2016-07-29T06:34:06Z</time>
      </trkpt>
      <trkpt lat="42.71518" lon="18.5225">
        <ele>630</ele>
        <time>2016-07-29T06:36:06Z</time>
      </trkpt>
      <trkpt lat="42.71516" lon="18.52255">
        <ele>630</ele>
        <time>2016-07-29T06:38:06Z</time>
      </trkpt>
      <trkpt lat="42.71514" lon="18.5226">
        <ele>630</ele>
        <time>2016-07-29T06:40:06Z</time>
      </trkpt>
      <trkpt lat="42.71512" lon="18.52265">
        <ele>631</ele>
        <time>2016-07-29T06:42:06Z</time>
      </trkpt>
      <trkpt lat="42.7151" lon="18.52269">
        <ele>631</ele>
        <time>2016-07-29T06:44:06Z</time>
      </trkpt>
      <trkpt lat="42.71508" lon="18.52274">
        <ele>631</ele>
        <time>2016-07-29T06:46:06Z</time>
      </trkpt>
      <trkpt lat="42.71505" lon="18.52278">
        <ele>631</ele>
        <time>2016-07-29T06:48:06Z</time>
      </trkpt>
      <trkpt lat="42.71429" lon="18.52387">
        <ele>634</ele>
        <time>2016-07-29T06:50:06Z</time>
      </trkpt>
      <trkpt lat="42.71424" lon="18.52395">
        <ele>634</ele>
        <time>2016-07-29T06:52:06Z</time>
      </trkpt>
      <trkpt lat="42.71419" lon="18.52403">
        <ele>635</ele>
        <time>2016-07-29T06:54:06Z</time>
      </trkpt>
      <trkpt lat="42.71415" lon="18.5241">
        <ele>636</ele>
        <time>2016-07-29T06:56:06Z</time>
      </trkpt>
      <trkpt lat="42.7141" lon="18.52418">
        <ele>637</ele>
        <time>2016-07-29T06:58:06Z</time>
      </trkpt>
      <trkpt lat="42.71406" lon="18.52427">
        <ele>637</ele>
        <time>2016-07-29T07:00:06Z</time>
      </trkpt>
      <trkpt lat="42.71401" lon="18.52435">
        <ele>638</ele>
        <time>2016-07-29T07:02:06Z</time>
      </trkpt>
      <trkpt lat="42.71397" lon="18.52444">
        <ele>638</ele>
        <time>2016-07-29T07:04:06Z</time>
      </trkpt>
      <trkpt lat="42.71392" lon="18.52453">
        <ele>639</ele>
        <time>2016-07-29T07:06:06Z</time>
      </trkpt>
      <trkpt lat="42.71388" lon="18.52463">
        <ele>640</ele>
        <time>2016-07-29T07:08:06Z</time>
      </trkpt>
      <trkpt lat="42.71384" lon="18.5247">
        <ele>640</ele>
        <time>2016-07-29T07:10:06Z</time>
      </trkpt>
      <trkpt lat="42.7138" lon="18.52478">
        <ele>641</ele>
        <time>2016-07-29T07:12:06Z</time>
      </trkpt>
      <trkpt lat="42.71376" lon="18.52485">
        <ele>641</ele>
        <time>2016-07-29T07:14:06Z</time>
      </trkpt>
      <trkpt lat="42.71371" lon="18.52493">
        <ele>641</ele>
        <time>2016-07-29T07:16:06Z</time>
      </trkpt>
      <trkpt lat="42.71367" lon="18.525">
        <ele>641</ele>
        <time>2016-07-29T07:18:06Z</time>
      </trkpt>
      <trkpt lat="42.71362" lon="18.52507">
        <ele>641</ele>
        <time>2016-07-29T07:20:06Z</time>
      </trkpt>
      <trkpt lat="42.71358" lon="18.52514">
        <ele>641</ele>
        <time>2016-07-29T07:22:06Z</time>
      </trkpt>
      <trkpt lat="42.71354" lon="18.5252">
        <ele>641</ele>
        <time>2016-07-29T07:24:06Z</time>
      </trkpt>
      <trkpt lat="42.71349" lon="18.52526">
        <ele>641</ele>
        <time>2016-07-29T07:26:06Z</time>
      </trkpt>
      <trkpt lat="42.71345" lon="18.52532">
        <ele>641</ele>
        <time>2016-07-29T07:28:06Z</time>
      </trkpt>
      <trkpt lat="42.71341" lon="18.52538">
        <ele>641</ele>
        <time>2016-07-29T07:30:06Z</time>
      </trkpt>
      <trkpt lat="42.71336" lon="18.52542">
        <ele>641</ele>
        <time>2016-07-29T07:32:06Z</time>
      </trkpt>
      <trkpt lat="42.71331" lon="18.52546">
        <ele>641</ele>
        <time>2016-07-29T07:34:06Z</time>
      </trkpt>
      <trkpt lat="42.71327" lon="18.5255">
        <ele>642</ele>
        <time>2016-07-29T07:36:06Z</time>
      </trkpt>
      <trkpt lat="42.71322" lon="18.52553">
        <ele>642</ele>
        <time>2016-07-29T07:38:06Z</time>
      </trkpt>
      <trkpt lat="42.71317" lon="18.52557">
        <ele>643</ele>
        <time>2016-07-29T07:40:06Z</time>
      </trkpt>
      <trkpt lat="42.71312" lon="18.5256">
        <ele>643</ele>
        <time>2016-07-29T07:42:06Z</time>
      </trkpt>
      <trkpt lat="42.71307" lon="18.52563">
        <ele>644</ele>
        <time>2016-07-29T07:44:06Z</time>
      </trkpt>
      <trkpt lat="42.71303" lon="18.52565">
        <ele>644</ele>
        <time>2016-07-29T07:46:06Z</time>
      </trkpt>
      <trkpt lat="42.71298" lon="18.52568">
        <ele>645</ele>
        <time>2016-07-29T07:48:06Z</time>
      </trkpt>
      <trkpt lat="42.71245" lon="18.52595">
        <ele>648</ele>
        <time>2016-07-29T07:50:06Z</time>
      </trkpt>
      <trkpt lat="42.71241" lon="18.52599">
        <ele>649</ele>
        <time>2016-07-29T07:52:06Z</time>
      </trkpt>
      <trkpt lat="42.71238" lon="18.52602">
        <ele>649</ele>
        <time>2016-07-29T07:54:06Z</time>
      </trkpt>
      <trkpt lat="42.71234" lon="18.52606">
        <ele>649</ele>
        <time>2016-07-29T07:56:06Z</time>
      </trkpt>
      <trkpt lat="42.7123" lon="18.5261">
        <ele>649</ele>
        <time>2016-07-29T07:58:06Z</time>
      </trkpt>
      <trkpt lat="42.71227" lon="18.52614">
        <ele>649</ele>
        <time>2016-07-29T08:00:06Z</time>
      </trkpt>
      <trkpt lat="42.71223" lon="18.52618">
        <ele>649</ele>
        <time>2016-07-29T08:02:06Z</time>
      </trkpt>
      <trkpt lat="42.7122" lon="18.52623">
        <ele>650</ele>
        <time>2016-07-29T08:04:06Z</time>
      </trkpt>
      <trkpt lat="42.71217" lon="18.52627">
        <ele>650</ele>
        <time>2016-07-29T08:06:06Z</time>
      </trkpt>
      <trkpt lat="42.71214" lon="18.52631">
        <ele>650</ele>
        <time>2016-07-29T08:08:06Z</time>
      </trkpt>
      <trkpt lat="42.71212" lon="18.52636">
        <ele>650</ele>
        <time>2016-07-29T08:10:06Z</time>
      </trkpt>
      <trkpt lat="42.71209" lon="18.5264">
        <ele>651</ele>
        <time>2016-07-29T08:12:06Z</time>
      </trkpt>
      <trkpt lat="42.71207" lon="18.52644">
        <ele>651</ele>
        <time>2016-07-29T08:14:06Z</time>
      </trkpt>
      <trkpt lat="42.71205" lon="18.52649">
        <ele>651</ele>
        <time>2016-07-29T08:16:06Z</time>
      </trkpt>
      <trkpt lat="42.71204" lon="18.52654">
        <ele>652</ele>
        <time>2016-07-29T08:18:06Z</time>
      </trkpt>
      <trkpt lat="42.71202" lon="18.5266">
        <ele>653</ele>
        <time>2016-07-29T08:20:06Z</time>
      </trkpt>
      <trkpt lat="42.71201" lon="18.52665">
        <ele>653</ele>
        <time>2016-07-29T08:22:06Z</time>
      </trkpt>
      <trkpt lat="42.712" lon="18.52671">
        <ele>654</ele>
        <time>2016-07-29T08:24:06Z</time>
      </trkpt>
      <trkpt lat="42.71199" lon="18.52676">
        <ele>654</ele>
        <time>2016-07-29T08:26:06Z</time>
      </trkpt>
      <trkpt lat="42.71198" lon="18.52682">
        <ele>654</ele>
        <time>2016-07-29T08:28:06Z</time>
      </trkpt>
      <trkpt lat="42.71197" lon="18.52687">
        <ele>655</ele>
        <time>2016-07-29T08:30:06Z</time>
      </trkpt>
      <trkpt lat="42.71196" lon="18.52692">
        <ele>655</ele>
        <time>2016-07-29T08:32:06Z</time>
      </trkpt>
      <trkpt lat="42.71196" lon="18.52697">
        <ele>655</ele>
        <time>2016-07-29T08:34:06Z</time>
      </trkpt>
      <trkpt lat="42.71196" lon="18.52702">
        <ele>656</ele>
        <time>2016-07-29T08:36:06Z</time>
      </trkpt>
      <trkpt lat="42.71195" lon="18.52707">
        <ele>656</ele>
        <time>2016-07-29T08:38:06Z</time>
      </trkpt>
      <trkpt lat="42.71195" lon="18.52712">
        <ele>657</ele>
        <time>2016-07-29T08:40:06Z</time>
      </trkpt>
      <trkpt lat="42.71195" lon="18.52717">
        <ele>657</ele>
        <time>2016-07-29T08:42:06Z</time>
      </trkpt>
      <trkpt lat="42.71196" lon="18.52726">
        <ele>658</ele>
        <time>2016-07-29T08:44:06Z</time>
      </trkpt>
      <trkpt lat="42.71197" lon="18.52735">
        <ele>659</ele>
        <time>2016-07-29T08:46:06Z</time>
      </trkpt>
      <trkpt lat="42.71198" lon="18.52743">
        <ele>660</ele>
        <time>2016-07-29T08:48:06Z</time>
      </trkpt>
      <trkpt lat="42.71199" lon="18.52752">
        <ele>661</ele>
        <time>2016-07-29T08:50:06Z</time>
      </trkpt>
      <trkpt lat="42.712" lon="18.52761">
        <ele>661</ele>
        <time>2016-07-29T08:52:06Z</time>
      </trkpt>
      <trkpt lat="42.71201" lon="18.5277">
        <ele>662</ele>
        <time>2016-07-29T08:54:06Z</time>
      </trkpt>
      <trkpt lat="42.71203" lon="18.5278">
        <ele>663</ele>
        <time>2016-07-29T08:56:06Z</time>
      </trkpt>
      <trkpt lat="42.71204" lon="18.5279">
        <ele>663</ele>
        <time>2016-07-29T08:58:06Z</time>
      </trkpt>
      <trkpt lat="42.71206" lon="18.52799">
        <ele>664</ele>
        <time>2016-07-29T09:00:06Z</time>
      </trkpt>
      <trkpt lat="42.71208" lon="18.52808">
        <ele>665</ele>
        <time>2016-07-29T09:02:06Z</time>
      </trkpt>
      <trkpt lat="42.71209" lon="18.52816">
        <ele>665</ele>
        <time>2016-07-29T09:04:06Z</time>
      </trkpt>
      <trkpt lat="42.7121" lon="18.52824">
        <ele>666</ele>
        <time>2016-07-29T09:06:06Z</time>
      </trkpt>
      <trkpt lat="42.71211" lon="18.52832">
        <ele>666</ele>
        <time>2016-07-29T09:08:06Z</time>
      </trkpt>
      <trkpt lat="42.71212" lon="18.5284">
        <ele>667</ele>
        <time>2016-07-29T09:10:06Z</time>
      </trkpt>
      <trkpt lat="42.71212" lon="18.52847">
        <ele>667</ele>
        <time>2016-07-29T09:12:06Z</time>
      </trkpt>
      <trkpt lat="42.71213" lon="18.52856">
        <ele>668</ele>
        <time>2016-07-29T09:14:06Z</time>
      </trkpt>
      <trkpt lat="42.71213" lon="18.52865">
        <ele>668</ele>
        <time>2016-07-29T09:16:06Z</time>
      </trkpt>
      <trkpt lat="42.71214" lon="18.52874">
        <ele>669</ele>
        <time>2016-07-29T09:18:06Z</time>
      </trkpt>
      <trkpt lat="42.71213" lon="18.52881">
        <ele>669</ele>
        <time>2016-07-29T09:20:06Z</time>
      </trkpt>
      <trkpt lat="42.71213" lon="18.52888">
        <ele>669</ele>
        <time>2016-07-29T09:22:06Z</time>
      </trkpt>
      <trkpt lat="42.71213" lon="18.52895">
        <ele>670</ele>
        <time>2016-07-29T09:24:06Z</time>
      </trkpt>
      <trkpt lat="42.71212" lon="18.52902">
        <ele>670</ele>
        <time>2016-07-29T09:26:06Z</time>
      </trkpt>
      <trkpt lat="42.71211" lon="18.52908">
        <ele>670</ele>
        <time>2016-07-29T09:28:06Z</time>
      </trkpt>
      <trkpt lat="42.7121" lon="18.52915">
        <ele>670</ele>
        <time>2016-07-29T09:30:06Z</time>
      </trkpt>
      <trkpt lat="42.71209" lon="18.52922">
        <ele>671</ele>
        <time>2016-07-29T09:32:06Z</time>
      </trkpt>
      <trkpt lat="42.71208" lon="18.52928">
        <ele>672</ele>
        <time>2016-07-29T09:34:06Z</time>
      </trkpt>
      <trkpt lat="42.71207" lon="18.52935">
        <ele>672</ele>
        <time>2016-07-29T09:36:06Z</time>
      </trkpt>
      <trkpt lat="42.71205" lon="18.52941">
        <ele>673</ele>
        <time>2016-07-29T09:38:06Z</time>
      </trkpt>
      <trkpt lat="42.71204" lon="18.52947">
        <ele>674</ele>
        <time>2016-07-29T09:40:06Z</time>
      </trkpt>
      <trkpt lat="42.71191" lon="18.52982">
        <ele>676</ele>
        <time>2016-07-29T09:42:06Z</time>
      </trkpt>
      <trkpt lat="42.71188" lon="18.52987">
        <ele>676</ele>
        <time>2016-07-29T09:44:06Z</time>
      </trkpt>
      <trkpt lat="42.71185" lon="18.52992">
        <ele>676</ele>
        <time>2016-07-29T09:46:06Z</time>
      </trkpt>
      <trkpt lat="42.71182" lon="18.52996">
        <ele>676</ele>
        <time>2016-07-29T09:48:06Z</time>
      </trkpt>
      <trkpt lat="42.71179" lon="18.53001">
        <ele>676</ele>
        <time>2016-07-29T09:50:06Z</time>
      </trkpt>
      <trkpt lat="42.71176" lon="18.53005">
        <ele>676</ele>
        <time>2016-07-29T09:52:06Z</time>
      </trkpt>
      <trkpt lat="42.71172" lon="18.53009">
        <ele>676</ele>
        <time>2016-07-29T09:54:06Z</time>
      </trkpt>
      <trkpt lat="42.71169" lon="18.53013">
        <ele>676</ele>
        <time>2016-07-29T09:56:06Z</time>
      </trkpt>
      <trkpt lat="42.71166" lon="18.53017">
        <ele>676</ele>
        <time>2016-07-29T09:58:06Z</time>
      </trkpt>
      <trkpt lat="42.71162" lon="18.53021">
        <ele>677</ele>
        <time>2016-07-29T10:00:06Z</time>
      </trkpt>
      <trkpt lat="42.71158" lon="18.53024">
        <ele>677</ele>
        <time>2016-07-29T10:02:06Z</time>
      </trkpt>
      <trkpt lat="42.71152" lon="18.53029">
        <ele>677</ele>
        <time>2016-07-29T10:04:06Z</time>
      </trkpt>
      <trkpt lat="42.71146" lon="18.53034">
        <ele>677</ele>
        <time>2016-07-29T10:06:06Z</time>
      </trkpt>
      <trkpt lat="42.7114" lon="18.53038">
        <ele>677</ele>
        <time>2016-07-29T10:08:06Z</time>
      </trkpt>
      <trkpt lat="42.71133" lon="18.53043">
        <ele>677</ele>
        <time>2016-07-29T10:10:06Z</time>
      </trkpt>
      <trkpt lat="42.71127" lon="18.53047">
        <ele>677</ele>
        <time>2016-07-29T10:12:06Z</time>
      </trkpt>
      <trkpt lat="42.7112" lon="18.53051">
        <ele>677</ele>
        <time>2016-07-29T10:14:06Z</time>
      </trkpt>
      <trkpt lat="42.71114" lon="18.53055">
        <ele>677</ele>
        <time>2016-07-29T10:16:06Z</time>
      </trkpt>
      <trkpt lat="42.71108" lon="18.53059">
        <ele>677</ele>
        <time>2016-07-29T10:18:06Z</time>
      </trkpt>
      <trkpt lat="42.71102" lon="18.53063">
        <ele>676</ele>
        <time>2016-07-29T10:20:06Z</time>
      </trkpt>
      <trkpt lat="42.71071" lon="18.53078">
        <ele>675</ele>
        <time>2016-07-29T10:22:06Z</time>
      </trkpt>
      <trkpt lat="42.71067" lon="18.5308">
        <ele>674</ele>
        <time>2016-07-29T10:24:06Z</time>
      </trkpt>
      <trkpt lat="42.71064" lon="18.53083">
        <ele>675</ele>
        <time>2016-07-29T10:26:06Z</time>
      </trkpt>
      <trkpt lat="42.7106" lon="18.53086">
        <ele>675</ele>
        <time>2016-07-29T10:28:06Z</time>
      </trkpt>
      <trkpt lat="42.71056" lon="18.5309">
        <ele>674</ele>
        <time>2016-07-29T10:30:06Z</time>
      </trkpt>
      <trkpt lat="42.71053" lon="18.53093">
        <ele>674</ele>
        <time>2016-07-29T10:32:06Z</time>
      </trkpt>
      <trkpt lat="42.71049" lon="18.53097">
        <ele>674</ele>
        <time>2016-07-29T10:34:06Z</time>
      </trkpt>
      <trkpt lat="42.71046" lon="18.53101">
        <ele>674</ele>
        <time>2016-07-29T10:36:06Z</time>
      </trkpt>
      <trkpt lat="42.71043" lon="18.53104">
        <ele>674</ele>
        <time>2016-07-29T10:38:06Z</time>
      </trkpt>
      <trkpt lat="42.7104" lon="18.53108">
        <ele>675</ele>
        <time>2016-07-29T10:40:06Z</time>
      </trkpt>
      <trkpt lat="42.71037" lon="18.53112">
        <ele>675</ele>
        <time>2016-07-29T10:42:06Z</time>
      </trkpt>
      <trkpt lat="42.71034" lon="18.53116">
        <ele>675</ele>
        <time>2016-07-29T10:44:06Z</time>
      </trkpt>
      <trkpt lat="42.71032" lon="18.53121">
        <ele>675</ele>
        <time>2016-07-29T10:46:06Z</time>
      </trkpt>
      <trkpt lat="42.71029" lon="18.53125">
        <ele>675</ele>
        <time>2016-07-29T10:48:06Z</time>
      </trkpt>
      <trkpt lat="42.71027" lon="18.5313">
        <ele>675</ele>
        <time>2016-07-29T10:50:06Z</time>
      </trkpt>
      <trkpt lat="42.71024" lon="18.53138">
        <ele>675</ele>
        <time>2016-07-29T10:52:06Z</time>
      </trkpt>
      <trkpt lat="42.71021" lon="18.53147">
        <ele>676</ele>
        <time>2016-07-29T10:54:06Z</time>
      </trkpt>
      <trkpt lat="42.71018" lon="18.53156">
        <ele>676</ele>
        <time>2016-07-29T10:56:06Z</time>
      </trkpt>
      <trkpt lat="42.71016" lon="18.53165">
        <ele>676</ele>
        <time>2016-07-29T10:58:06Z</time>
      </trkpt>
      <trkpt lat="42.71013" lon="18.53173">
        <ele>677</ele>
        <time>2016-07-29T11:00:06Z</time>
      </trkpt>
      <trkpt lat="42.71011" lon="18.53182">
        <ele>678</ele>
        <time>2016-07-29T11:02:06Z</time>
      </trkpt>
      <trkpt lat="42.71008" lon="18.53192">
        <ele>679</ele>
        <time>2016-07-29T11:04:06Z</time>
      </trkpt>
      <trkpt lat="42.71006" lon="18.53202">
        <ele>680</ele>
        <time>2016-07-29T11:06:06Z</time>
      </trkpt>
      <trkpt lat="42.71004" lon="18.53212">
        <ele>681</ele>
        <time>2016-07-29T11:08:06Z</time>
      </trkpt>
      <trkpt lat="42.71002" lon="18.53219">
        <ele>681</ele>
        <time>2016-07-29T11:10:06Z</time>
      </trkpt>
      <trkpt lat="42.71" lon="18.53226">
        <ele>682</ele>
        <time>2016-07-29T11:12:06Z</time>
      </trkpt>
      <trkpt lat="42.70998" lon="18.53233">
        <ele>683</ele>
        <time>2016-07-29T11:14:06Z</time>
      </trkpt>
      <trkpt lat="42.70996" lon="18.5324">
        <ele>684</ele>
        <time>2016-07-29T11:16:06Z</time>
      </trkpt>
      <trkpt lat="42.70993" lon="18.53247">
        <ele>684</ele>
        <time>2016-07-29T11:18:06Z</time>
      </trkpt>
      <trkpt lat="42.70991" lon="18.53254">
        <ele>685</ele>
        <time>2016-07-29T11:20:06Z</time>
      </trkpt>
      <trkpt lat="42.70988" lon="18.53261">
        <ele>685</ele>
        <time>2016-07-29T11:22:06Z</time>
      </trkpt>
      <trkpt lat="42.70986" lon="18.53268">
        <ele>686</ele>
        <time>2016-07-29T11:24:06Z</time>
      </trkpt>
      <trkpt lat="42.70983" lon="18.53274">
        <ele>686</ele>
        <time>2016-07-29T11:26:06Z</time>
      </trkpt>
      <trkpt lat="42.7098" lon="18.53281">
        <ele>686</ele>
        <time>2016-07-29T11:28:06Z</time>
      </trkpt>
      <trkpt lat="42.70977" lon="18.53287">
        <ele>686</ele>
        <time>2016-07-29T11:30:06Z</time>
      </trkpt>
      <trkpt lat="42.70974" lon="18.53293">
        <ele>686</ele>
        <time>2016-07-29T11:32:06Z</time>
      </trkpt>
      <trkpt lat="42.70971" lon="18.53299">
        <ele>686</ele>
        <time>2016-07-29T11:34:06Z</time>
      </trkpt>
      <trkpt lat="42.70966" lon="18.53306">
        <ele>686</ele>
        <time>2016-07-29T11:36:06Z</time>
      </trkpt>
      <trkpt lat="42.70961" lon="18.53314">
        <ele>685</ele>
        <time>2016-07-29T11:38:06Z</time>
      </trkpt>
      <trkpt lat="42.70956" lon="18.53321">
        <ele>685</ele>
        <time>2016-07-29T11:40:06Z</time>
      </trkpt>
      <trkpt lat="42.7095" lon="18.53328">
        <ele>684</ele>
        <time>2016-07-29T11:42:06Z</time>
      </trkpt>
      <trkpt lat="42.70945" lon="18.53335">
        <ele>684</ele>
        <time>2016-07-29T11:44:06Z</time>
      </trkpt>
      <trkpt lat="42.70939" lon="18.53342">
        <ele>684</ele>
        <time>2016-07-29T11:46:06Z</time>
      </trkpt>
      <trkpt lat="42.70934" lon="18.53348">
        <ele>684</ele>
        <time>2016-07-29T11:48:06Z</time>
      </trkpt>
      <trkpt lat="42.70928" lon="18.53355">
        <ele>684</ele>
        <time>2016-07-29T11:50:06Z</time>
      </trkpt>
      <trkpt lat="42.70922" lon="18.53362">
        <ele>683</ele>
        <time>2016-07-29T11:52:06Z</time>
      </trkpt>
      <trkpt lat="42.70906" lon="18.53376">
        <ele>684</ele>
        <time>2016-07-29T11:54:06Z</time>
      </trkpt>
      <trkpt lat="42.70904" lon="18.5338">
        <ele>685</ele>
        <time>2016-07-29T11:56:06Z</time>
      </trkpt>
      <trkpt lat="42.70902" lon="18.53383">
        <ele>685</ele>
        <time>2016-07-29T11:58:06Z</time>
      </trkpt>
      <trkpt lat="42.709" lon="18.53386">
        <ele>686</ele>
        <time>2016-07-29T12:00:06Z</time>
      </trkpt>
      <trkpt lat="42.70898" lon="18.5339">
        <ele>686</ele>
        <time>2016-07-29T12:02:06Z</time>
      </trkpt>
      <trkpt lat="42.70897" lon="18.53394">
        <ele>686</ele>
        <time>2016-07-29T12:04:06Z</time>
      </trkpt>
      <trkpt lat="42.70895" lon="18.53397">
        <ele>687</ele>
        <time>2016-07-29T12:06:06Z</time>
      </trkpt>
      <trkpt lat="42.70893" lon="18.53401">
        <ele>687</ele>
        <time>2016-07-29T12:08:06Z</time>
      </trkpt>
      <trkpt lat="42.70892" lon="18.53406">
        <ele>687</ele>
        <time>2016-07-29T12:10:06Z</time>
      </trkpt>
      <trkpt lat="42.70891" lon="18.5341">
        <ele>688</ele>
        <time>2016-07-29T12:12:06Z</time>
      </trkpt>
      <trkpt lat="42.7089" lon="18.53414">
        <ele>688</ele>
        <time>2016-07-29T12:14:06Z</time>
      </trkpt>
      <trkpt lat="42.70889" lon="18.53419">
        <ele>688</ele>
        <time>2016-07-29T12:16:06Z</time>
      </trkpt>
      <trkpt lat="42.70888" lon="18.53423">
        <ele>689</ele>
        <time>2016-07-29T12:18:06Z</time>
      </trkpt>
      <trkpt lat="42.70887" lon="18.53428">
        <ele>689</ele>
        <time>2016-07-29T12:20:06Z</time>
      </trkpt>
      <trkpt lat="42.70887" lon="18.53432">
        <ele>689</ele>
        <time>2016-07-29T12:22:06Z</time>
      </trkpt>
      <trkpt lat="42.70887" lon="18.53437">
        <ele>690</ele>
        <time>2016-07-29T12:24:06Z</time>
      </trkpt>
      <trkpt lat="42.70887" lon="18.53441">
        <ele>690</ele>
        <time>2016-07-29T12:26:06Z</time>
      </trkpt>
      <trkpt lat="42.70887" lon="18.53444">
        <ele>690</ele>
        <time>2016-07-29T12:28:06Z</time>
      </trkpt>
      <trkpt lat="42.70888" lon="18.53448">
        <ele>690</ele>
        <time>2016-07-29T12:30:06Z</time>
      </trkpt>
      <trkpt lat="42.70888" lon="18.53452">
        <ele>691</ele>
        <time>2016-07-29T12:32:06Z</time>
      </trkpt>
      <trkpt lat="42.70889" lon="18.53456">
        <ele>691</ele>
        <time>2016-07-29T12:34:06Z</time>
      </trkpt>
      <trkpt lat="42.7089" lon="18.53459">
        <ele>691</ele>
        <time>2016-07-29T12:36:06Z</time>
      </trkpt>
      <trkpt lat="42.70891" lon="18.53463">
        <ele>691</ele>
        <time>2016-07-29T12:38:06Z</time>
      </trkpt>
      <trkpt lat="42.70892" lon="18.53466">
        <ele>691</ele>
        <time>2016-07-29T12:40:06Z</time>
      </trkpt>
      <trkpt lat="42.70894" lon="18.5347">
        <ele>692</ele>
        <time>2016-07-29T12:42:06Z</time>
      </trkpt>
      <trkpt lat="42.70895" lon="18.53473">
        <ele>692</ele>
        <time>2016-07-29T12:44:06Z</time>
      </trkpt>
      <trkpt lat="42.70897" lon="18.53476">
        <ele>692</ele>
        <time>2016-07-29T12:46:06Z</time>
      </trkpt>
      <trkpt lat="42.70898" lon="18.53479">
        <ele>692</ele>
        <time>2016-07-29T12:48:06Z</time>
      </trkpt>
      <trkpt lat="42.709" lon="18.53482">
        <ele>693</ele>
        <time>2016-07-29T12:50:06Z</time>
      </trkpt>
      <trkpt lat="42.70902" lon="18.53485">
        <ele>693</ele>
        <time>2016-07-29T12:52:06Z</time>
      </trkpt>
      <trkpt lat="42.70904" lon="18.53487">
        <ele>693</ele>
        <time>2016-07-29T12:54:06Z</time>
      </trkpt>
      <trkpt lat="42.70906" lon="18.5349">
        <ele>693</ele>
        <time>2016-07-29T12:56:06Z</time>
      </trkpt>
      <trkpt lat="42.70908" lon="18.53492">
        <ele>693</ele>
        <time>2016-07-29T12:58:06Z</time>
      </trkpt>
      <trkpt lat="42.7091" lon="18.53494">
        <ele>693</ele>
        <time>2016-07-29T13:00:06Z</time>
      </trkpt>
      <trkpt lat="42.70913" lon="18.53496">
        <ele>694</ele>
        <time>2016-07-29T13:02:06Z</time>
      </trkpt>
      <trkpt lat="42.70916" lon="18.53498">
        <ele>694</ele>
        <time>2016-07-29T13:04:06Z</time>
      </trkpt>
      <trkpt lat="42.70918" lon="18.535">
        <ele>694</ele>
        <time>2016-07-29T13:06:06Z</time>
      </trkpt>
      <trkpt lat="42.70921" lon="18.53501">
        <ele>695</ele>
        <time>2016-07-29T13:08:06Z</time>
      </trkpt>
      <trkpt lat="42.70924" lon="18.53502">
        <ele>695</ele>
        <time>2016-07-29T13:10:06Z</time>
      </trkpt>
      <trkpt lat="42.70927" lon="18.53503">
        <ele>695</ele>
        <time>2016-07-29T13:12:06Z</time>
      </trkpt>
      <trkpt lat="42.7093" lon="18.53504">
        <ele>696</ele>
        <time>2016-07-29T13:14:06Z</time>
      </trkpt>
      <trkpt lat="42.70933" lon="18.53504">
        <ele>696</ele>
        <time>2016-07-29T13:16:06Z</time>
      </trkpt>
      <trkpt lat="42.70936" lon="18.53505">
        <ele>697</ele>
        <time>2016-07-29T13:18:06Z</time>
      </trkpt>
      <trkpt lat="42.70939" lon="18.53505">
        <ele>697</ele>
        <time>2016-07-29T13:20:06Z</time>
      </trkpt>
      <trkpt lat="42.70942" lon="18.53505">
        <ele>697</ele>
        <time>2016-07-29T13:22:06Z</time>
      </trkpt>
      <trkpt lat="42.70945" lon="18.53505">
        <ele>698</ele>
        <time>2016-07-29T13:24:06Z</time>
      </trkpt>
      <trkpt lat="42.70948" lon="18.53504">
        <ele>698</ele>
        <time>2016-07-29T13:26:06Z</time>
      </trkpt>
      <trkpt lat="42.70951" lon="18.53504">
        <ele>698</ele>
        <time>2016-07-29T13:28:06Z</time>
      </trkpt>
      <trkpt lat="42.70953" lon="18.53503">
        <ele>699</ele>
        <time>2016-07-29T13:30:06Z</time>
      </trkpt>
      <trkpt lat="42.70956" lon="18.53502">
        <ele>699</ele>
        <time>2016-07-29T13:32:06Z</time>
      </trkpt>
      <trkpt lat="42.70959" lon="18.53501">
        <ele>699</ele>
        <time>2016-07-29T13:34:06Z</time>
      </trkpt>
      <trkpt lat="42.70962" lon="18.535">
        <ele>699</ele>
        <time>2016-07-29T13:36:06Z</time>
      </trkpt>
      <trkpt lat="42.70964" lon="18.53498">
        <ele>700</ele>
        <time>2016-07-29T13:38:06Z</time>
      </trkpt>
      <trkpt lat="42.70967" lon="18.53497">
        <ele>700</ele>
        <time>2016-07-29T13:40:06Z</time>
      </trkpt>
      <trkpt lat="42.70974" lon="18.5349">
        <ele>700</ele>
        <time>2016-07-29T13:42:06Z</time>
      </trkpt>
      <trkpt lat="42.70981" lon="18.53483">
        <ele>700</ele>
        <time>2016-07-29T13:44:06Z</time>
      </trkpt>
      <trkpt lat="42.70988" lon="18.53476">
        <ele>701</ele>
        <time>2016-07-29T13:46:06Z</time>
      </trkpt>
      <trkpt lat="42.70994" lon="18.5347">
        <ele>701</ele>
        <time>2016-07-29T13:48:06Z</time>
      </trkpt>
      <trkpt lat="42.71002" lon="18.53462">
        <ele>701</ele>
        <time>2016-07-29T13:50:06Z</time>
      </trkpt>
      <trkpt lat="42.71009" lon="18.53454">
        <ele>701</ele>
        <time>2016-07-29T13:52:06Z</time>
      </trkpt>
      <trkpt lat="42.71016" lon="18.53446">
        <ele>701</ele>
        <time>2016-07-29T13:54:06Z</time>
      </trkpt>
      <trkpt lat="42.71023" lon="18.53438">
        <ele>701</ele>
        <time>2016-07-29T13:56:06Z</time>
      </trkpt>
      <trkpt lat="42.7103" lon="18.5343">
        <ele>701</ele>
        <time>2016-07-29T13:58:06Z</time>
      </trkpt>
      <trkpt lat="42.71054" lon="18.53402">
        <ele>701</ele>
        <time>2016-07-29T14:00:06Z</time>
      </trkpt>
      <trkpt lat="42.71058" lon="18.53398">
        <ele>701</ele>
        <time>2016-07-29T14:02:06Z</time>
      </trkpt>
      <trkpt lat="42.71062" lon="18.53394">
        <ele>701</ele>
        <time>2016-07-29T14:04:06Z</time>
      </trkpt>
      <trkpt lat="42.71066" lon="18.5339">
        <ele>701</ele>
        <time>2016-07-29T14:06:06Z</time>
      </trkpt>
      <trkpt lat="42.7107" lon="18.53387">
        <ele>701</ele>
        <time>2016-07-29T14:08:06Z</time>
      </trkpt>
      <trkpt lat="42.71075" lon="18.53384">
        <ele>701</ele>
        <time>2016-07-29T14:10:06Z</time>
      </trkpt>
      <trkpt lat="42.71079" lon="18.53381">
        <ele>701</ele>
        <time>2016-07-29T14:12:06Z</time>
      </trkpt>
      <trkpt lat="42.71084" lon="18.53378">
        <ele>701</ele>
        <time>2016-07-29T14:14:06Z</time>
      </trkpt>
      <trkpt lat="42.71088" lon="18.53375">
        <ele>701</ele>
        <time>2016-07-29T14:16:06Z</time>
      </trkpt>
      <trkpt lat="42.71093" lon="18.53373">
        <ele>701</ele>
        <time>2016-07-29T14:18:06Z</time>
      </trkpt>
      <trkpt lat="42.71097" lon="18.53371">
        <ele>702</ele>
        <time>2016-07-29T14:20:06Z</time>
      </trkpt>
      <trkpt lat="42.71101" lon="18.53369">
        <ele>702</ele>
        <time>2016-07-29T14:22:06Z</time>
      </trkpt>
      <trkpt lat="42.71105" lon="18.53367">
        <ele>702</ele>
        <time>2016-07-29T14:24:06Z</time>
      </trkpt>
      <trkpt lat="42.71109" lon="18.53366">
        <ele>703</ele>
        <time>2016-07-29T14:26:06Z</time>
      </trkpt>
      <trkpt lat="42.71158" lon="18.53356">
        <ele>707</ele>
        <time>2016-07-29T14:28:06Z</time>
      </trkpt>
      <trkpt lat="42.71162" lon="18.53356">
        <ele>708</ele>
        <time>2016-07-29T14:30:06Z</time>
      </trkpt>
      <trkpt lat="42.71165" lon="18.53355">
        <ele>708</ele>
        <time>2016-07-29T14:32:06Z</time>
      </trkpt>
      <trkpt lat="42.71168" lon="18.53354">
        <ele>709</ele>
        <time>2016-07-29T14:34:06Z</time>
      </trkpt>
      <trkpt lat="42.71172" lon="18.53353">
        <ele>709</ele>
        <time>2016-07-29T14:36:06Z</time>
      </trkpt>
      <trkpt lat="42.71175" lon="18.53351">
        <ele>710</ele>
        <time>2016-07-29T14:38:06Z</time>
      </trkpt>
      <trkpt lat="42.71178" lon="18.5335">
        <ele>710</ele>
        <time>2016-07-29T14:40:06Z</time>
      </trkpt>
      <trkpt lat="42.71181" lon="18.53348">
        <ele>710</ele>
        <time>2016-07-29T14:42:06Z</time>
      </trkpt>
      <trkpt lat="42.71184" lon="18.53346">
        <ele>711</ele>
        <time>2016-07-29T14:44:06Z</time>
      </trkpt>
      <trkpt lat="42.71187" lon="18.53344">
        <ele>711</ele>
        <time>2016-07-29T14:46:06Z</time>
      </trkpt>
      <trkpt lat="42.7119" lon="18.53342">
        <ele>712</ele>
        <time>2016-07-29T14:48:06Z</time>
      </trkpt>
      <trkpt lat="42.71193" lon="18.53339">
        <ele>712</ele>
        <time>2016-07-29T14:50:06Z</time>
      </trkpt>
      <trkpt lat="42.71196" lon="18.53337">
        <ele>712</ele>
        <time>2016-07-29T14:52:06Z</time>
      </trkpt>
      <trkpt lat="42.71198" lon="18.53334">
        <ele>712</ele>
        <time>2016-07-29T14:54:06Z</time>
      </trkpt>
      <trkpt lat="42.71201" lon="18.53331">
        <ele>713</ele>
        <time>2016-07-29T14:56:06Z</time>
      </trkpt>
      <trkpt lat="42.71203" lon="18.53329">
        <ele>713</ele>
        <time>2016-07-29T14:58:06Z</time>
      </trkpt>
      <trkpt lat="42.71205" lon="18.53326">
        <ele>713</ele>
        <time>2016-07-29T15:00:06Z</time>
      </trkpt>
      <trkpt lat="42.71208" lon="18.53323">
        <ele>714</ele>
        <time>2016-07-29T15:02:06Z</time>
      </trkpt>
      <trkpt lat="42.7121" lon="18.53319">
        <ele>714</ele>
        <time>2016-07-29T15:04:06Z</time>
      </trkpt>
      <trkpt lat="42.71279" lon="18.53191">
        <ele>720</ele>
        <time>2016-07-29T15:06:06Z</time>
      </trkpt>
      <trkpt lat="42.71349" lon="18.53067">
        <ele>725</ele>
        <time>2016-07-29T15:08:06Z</time>
      </trkpt>
      <trkpt lat="42.71355" lon="18.53058">
        <ele>726</ele>
        <time>2016-07-29T15:10:06Z</time>
      </trkpt>
      <trkpt lat="42.71361" lon="18.53049">
        <ele>727</ele>
        <time>2016-07-29T15:12:06Z</time>
      </trkpt>
      <trkpt lat="42.71367" lon="18.5304">
        <ele>727</ele>
        <time>2016-07-29T15:14:06Z</time>
      </trkpt>
      <trkpt lat="42.71374" lon="18.53031">
        <ele>728</ele>
        <time>2016-07-29T15:16:06Z</time>
      </trkpt>
      <trkpt lat="42.7138" lon="18.53023">
        <ele>729</ele>
        <time>2016-07-29T15:18:06Z</time>
      </trkpt>
      <trkpt lat="42.71387" lon="18.53014">
        <ele>729</ele>
        <time>2016-07-29T15:20:06Z</time>
      </trkpt>
      <trkpt lat="42.71393" lon="18.53006">
        <ele>730</ele>
        <time>2016-07-29T15:22:06Z</time>
      </trkpt>
      <trkpt lat="42.714" lon="18.52998">
        <ele>731</ele>
        <time>2016-07-29T15:24:06Z</time>
      </trkpt>
      <trkpt lat="42.71407" lon="18.5299">
        <ele>731</ele>
        <time>2016-07-29T15:26:06Z</time>
      </trkpt>
      <trkpt lat="42.71414" lon="18.52982">
        <ele>731</ele>
        <time>2016-07-29T15:28:06Z</time>
      </trkpt>
      <trkpt lat="42.71421" lon="18.52974">
        <ele>732</ele>
        <time>2016-07-29T15:30:06Z</time>
      </trkpt>
      <trkpt lat="42.71455" lon="18.5294">
        <ele>739</ele>
        <time>2016-07-29T15:32:06Z</time>
      </trkpt>
      <trkpt lat="42.71459" lon="18.52935">
        <ele>739</ele>
        <time>2016-07-29T15:34:06Z</time>
      </trkpt>
      <trkpt lat="42.71464" lon="18.52929">
        <ele>740</ele>
        <time>2016-07-29T15:36:06Z</time>
      </trkpt>
      <trkpt lat="42.71469" lon="18.52924">
        <ele>741</ele>
        <time>2016-07-29T15:38:06Z</time>
      </trkpt>
      <trkpt lat="42.71473" lon="18.52918">
        <ele>741</ele>
        <time>2016-07-29T15:40:06Z</time>
      </trkpt>
      <trkpt lat="42.71477" lon="18.52912">
        <ele>742</ele>
        <time>2016-07-29T15:42:06Z</time>
      </trkpt>
      <trkpt lat="42.71482" lon="18.52906">
        <ele>743</ele>
        <time>2016-07-29T15:44:06Z</time>
      </trkpt>
      <trkpt lat="42.71485" lon="18.529">
        <ele>743</ele>
        <time>2016-07-29T15:46:06Z</time>
      </trkpt>
      <trkpt lat="42.71489" lon="18.52895">
        <ele>744</ele>
        <time>2016-07-29T15:48:06Z</time>
      </trkpt>
      <trkpt lat="42.71492" lon="18.52889">
        <ele>744</ele>
        <time>2016-07-29T15:50:06Z</time>
      </trkpt>
      <trkpt lat="42.71496" lon="18.52883">
        <ele>744</ele>
        <time>2016-07-29T15:52:06Z</time>
      </trkpt>
      <trkpt lat="42.71499" lon="18.52877">
        <ele>744</ele>
        <time>2016-07-29T15:54:06Z</time>
      </trkpt>
      <trkpt lat="42.71541" lon="18.52796">
        <ele>747</ele>
        <time>2016-07-29T15:56:06Z</time>
      </trkpt>
      <trkpt lat="42.71546" lon="18.52788">
        <ele>747</ele>
        <time>2016-07-29T15:58:06Z</time>
      </trkpt>
      <trkpt lat="42.71551" lon="18.5278">
        <ele>748</ele>
        <time>2016-07-29T16:00:06Z</time>
      </trkpt>
      <trkpt lat="42.71556" lon="18.52773">
        <ele>748</ele>
        <time>2016-07-29T16:02:06Z</time>
      </trkpt>
      <trkpt lat="42.7156" lon="18.52767">
        <ele>749</ele>
        <time>2016-07-29T16:04:06Z</time>
      </trkpt>
      <trkpt lat="42.71565" lon="18.52761">
        <ele>749</ele>
        <time>2016-07-29T16:06:06Z</time>
      </trkpt>
      <trkpt lat="42.71569" lon="18.52755">
        <ele>750</ele>
        <time>2016-07-29T16:08:06Z</time>
      </trkpt>
      <trkpt lat="42.71571" lon="18.52751">
        <ele>750</ele>
        <time>2016-07-29T16:10:06Z</time>
      </trkpt>
      <trkpt lat="42.71573" lon="18.52748">
        <ele>750</ele>
        <time>2016-07-29T16:12:06Z</time>
      </trkpt>
      <trkpt lat="42.71575" lon="18.52744">
        <ele>750</ele>
        <time>2016-07-29T16:14:06Z</time>
      </trkpt>
      <trkpt lat="42.71577" lon="18.5274">
        <ele>751</ele>
        <time>2016-07-29T16:16:06Z</time>
      </trkpt>
      <trkpt lat="42.71579" lon="18.52737">
        <ele>751</ele>
        <time>2016-07-29T16:18:06Z</time>
      </trkpt>
      <trkpt lat="42.71581" lon="18.52733">
        <ele>751</ele>
        <time>2016-07-29T16:20:06Z</time>
      </trkpt>
      <trkpt lat="42.71583" lon="18.52728">
        <ele>752</ele>
        <time>2016-07-29T16:22:06Z</time>
      </trkpt>
      <trkpt lat="42.71584" lon="18.52724">
        <ele>751</ele>
        <time>2016-07-29T16:24:06Z</time>
      </trkpt>
      <trkpt lat="42.71586" lon="18.5272">
        <ele>751</ele>
        <time>2016-07-29T16:26:06Z</time>
      </trkpt>
      <trkpt lat="42.71587" lon="18.52715">
        <ele>751</ele>
        <time>2016-07-29T16:28:06Z</time>
      </trkpt>
      <trkpt lat="42.71588" lon="18.52711">
        <ele>751</ele>
        <time>2016-07-29T16:30:06Z</time>
      </trkpt>
      <trkpt lat="42.71589" lon="18.52706">
        <ele>751</ele>
        <time>2016-07-29T16:32:06Z</time>
      </trkpt>
      <trkpt lat="42.7159" lon="18.52702">
        <ele>750</ele>
        <time>2016-07-29T16:34:06Z</time>
      </trkpt>
      <trkpt lat="42.71591" lon="18.52697">
        <ele>750</ele>
        <time>2016-07-29T16:36:06Z</time>
      </trkpt>
      <trkpt lat="42.71591" lon="18.52693">
        <ele>750</ele>
        <time>2016-07-29T16:38:06Z</time>
      </trkpt>
      <trkpt lat="42.71593" lon="18.52664">
        <ele>747</ele>
        <time>2016-07-29T16:40:06Z</time>
      </trkpt>
      <trkpt lat="42.71593" lon="18.52661">
        <ele>746</ele>
        <time>2016-07-29T16:42:06Z</time>
      </trkpt>
      <trkpt lat="42.71593" lon="18.52658">
        <ele>746</ele>
        <time>2016-07-29T16:44:06Z</time>
      </trkpt>
      <trkpt lat="42.71594" lon="18.52655">
        <ele>746</ele>
        <time>2016-07-29T16:46:06Z</time>
      </trkpt>
      <trkpt lat="42.71595" lon="18.52652">
        <ele>745</ele>
        <time>2016-07-29T16:48:06Z</time>
      </trkpt>
      <trkpt lat="42.71595" lon="18.52649">
        <ele>745</ele>
        <time>2016-07-29T16:50:06Z</time>
      </trkpt>
      <trkpt lat="42.71596" lon="18.52646">
        <ele>745</ele>
        <time>2016-07-29T16:52:06Z</time>
      </trkpt>
      <trkpt lat="42.71597" lon="18.52643">
        <ele>745</ele>
        <time>2016-07-29T16:54:06Z</time>
      </trkpt>
      <trkpt lat="42.71598" lon="18.5264">
        <ele>744</ele>
        <time>2016-07-29T16:56:06Z</time>
      </trkpt>
      <trkpt lat="42.716" lon="18.52638">
        <ele>745</ele>
        <time>2016-07-29T16:58:06Z</time>
      </trkpt>
      <trkpt lat="42.71601" lon="18.52635">
        <ele>744</ele>
        <time>2016-07-29T17:00:06Z</time>
      </trkpt>
      <trkpt lat="42.71603" lon="18.52632">
        <ele>744</ele>
        <time>2016-07-29T17:02:06Z</time>
      </trkpt>
      <trkpt lat="42.71604" lon="18.5263">
        <ele>744</ele>
        <time>2016-07-29T17:04:06Z</time>
      </trkpt>
      <trkpt lat="42.71606" lon="18.52628">
        <ele>744</ele>
        <time>2016-07-29T17:06:06Z</time>
      </trkpt>
      <trkpt lat="42.71607" lon="18.52627">
        <ele>744</ele>
        <time>2016-07-29T17:08:06Z</time>
      </trkpt>
      <trkpt lat="42.71609" lon="18.52626">
        <ele>744</ele>
        <time>2016-07-29T17:10:06Z</time>
      </trkpt>
      <trkpt lat="42.71611" lon="18.52626">
        <ele>745</ele>
        <time>2016-07-29T17:12:06Z</time>
      </trkpt>
      <trkpt lat="42.71613" lon="18.52625">
        <ele>745</ele>
        <time>2016-07-29T17:14:06Z</time>
      </trkpt>
      <trkpt lat="42.71614" lon="18.52625">
        <ele>745</ele>
        <time>2016-07-29T17:16:06Z</time>
      </trkpt>
      <trkpt lat="42.71616" lon="18.52625">
        <ele>745</ele>
        <time>2016-07-29T17:18:06Z</time>
      </trkpt>
      <trkpt lat="42.71618" lon="18.52625">
        <ele>746</ele>
        <time>2016-07-29T17:20:06Z</time>
      </trkpt>
      <trkpt lat="42.7162" lon="18.52626">
        <ele>746</ele>
        <time>2016-07-29T17:22:06Z</time>
      </trkpt>
      <trkpt lat="42.71621" lon="18.52626">
        <ele>746</ele>
        <time>2016-07-29T17:24:06Z</time>
      </trkpt>
      <trkpt lat="42.71623" lon="18.52627">
        <ele>747</ele>
        <time>2016-07-29T17:26:06Z</time>
      </trkpt>
      <trkpt lat="42.71625" lon="18.52628">
        <ele>747</ele>
        <time>2016-07-29T17:28:06Z</time>
      </trkpt>
      <trkpt lat="42.71626" lon="18.52629">
        <ele>748</ele>
        <time>2016-07-29T17:30:06Z</time>
      </trkpt>
      <trkpt lat="42.71628" lon="18.5263">
        <ele>748</ele>
        <time>2016-07-29T17:32:06Z</time>
      </trkpt>
      <trkpt lat="42.71629" lon="18.52632">
        <ele>749</ele>
        <time>2016-07-29T17:34:06Z</time>
      </trkpt>
      <trkpt lat="42.71631" lon="18.52633">
        <ele>749</ele>
        <time>2016-07-29T17:36:06Z</time>
      </trkpt>
      <trkpt lat="42.71632" lon="18.52635">
        <ele>750</ele>
        <time>2016-07-29T17:38:06Z</time>
      </trkpt>
      <trkpt lat="42.71633" lon="18.52637">
        <ele>750</ele>
        <time>2016-07-29T17:40:06Z</time>
      </trkpt>
      <trkpt lat="42.71634" lon="18.52639">
        <ele>751</ele>
        <time>2016-07-29T17:42:06Z</time>
      </trkpt>
      <trkpt lat="42.71635" lon="18.52641">
        <ele>751</ele>
        <time>2016-07-29T17:44:06Z</time>
      </trkpt>
      <trkpt lat="42.71635" lon="18.52643">
        <ele>752</ele>
        <time>2016-07-29T17:46:06Z</time>
      </trkpt>
      <trkpt lat="42.71636" lon="18.52645">
        <ele>752</ele>
        <time>2016-07-29T17:48:06Z</time>
      </trkpt>
      <trkpt lat="42.71636" lon="18.52648">
        <ele>753</ele>
        <time>2016-07-29T17:50:06Z</time>
      </trkpt>
      <trkpt lat="42.71637" lon="18.5265">
        <ele>753</ele>
        <time>2016-07-29T17:52:06Z</time>
      </trkpt>
      <trkpt lat="42.71636" lon="18.52653">
        <ele>753</ele>
        <time>2016-07-29T17:54:06Z</time>
      </trkpt>
      <trkpt lat="42.71636" lon="18.52656">
        <ele>754</ele>
        <time>2016-07-29T17:56:06Z</time>
      </trkpt>
      <trkpt lat="42.71635" lon="18.52659">
        <ele>754</ele>
        <time>2016-07-29T17:58:06Z</time>
      </trkpt>
      <trkpt lat="42.71634" lon="18.52662">
        <ele>755</ele>
        <time>2016-07-29T18:00:06Z</time>
      </trkpt>
      <trkpt lat="42.71634" lon="18.52665">
        <ele>755</ele>
        <time>2016-07-29T18:02:06Z</time>
      </trkpt>
      <trkpt lat="42.71633" lon="18.52668">
        <ele>755</ele>
        <time>2016-07-29T18:04:06Z</time>
      </trkpt>
      <trkpt lat="42.71631" lon="18.52672">
        <ele>756</ele>
        <time>2016-07-29T18:06:06Z</time>
      </trkpt>
      <trkpt lat="42.7163" lon="18.52675">
        <ele>756</ele>
        <time>2016-07-29T18:08:06Z</time>
      </trkpt>
      <trkpt lat="42.71628" lon="18.52678">
        <ele>756</ele>
        <time>2016-07-29T18:10:06Z</time>
      </trkpt>
      <trkpt lat="42.71627" lon="18.52681">
        <ele>756</ele>
        <time>2016-07-29T18:12:06Z</time>
      </trkpt>
      <trkpt lat="42.71625" lon="18.52683">
        <ele>756</ele>
        <time>2016-07-29T18:14:06Z</time>
      </trkpt>
      <trkpt lat="42.71622" lon="18.52688">
        <ele>756</ele>
        <time>2016-07-29T18:16:06Z</time>
      </trkpt>
      <trkpt lat="42.7162" lon="18.52693">
        <ele>756</ele>
        <time>2016-07-29T18:18:06Z</time>
      </trkpt>
      <trkpt lat="42.71617" lon="18.52699">
        <ele>757</ele>
        <time>2016-07-29T18:20:06Z</time>
      </trkpt>
      <trkpt lat="42.71615" lon="18.52704">
        <ele>757</ele>
        <time>2016-07-29T18:22:06Z</time>
      </trkpt>
      <trkpt lat="42.71612" lon="18.52709">
        <ele>757</ele>
        <time>2016-07-29T18:24:06Z</time>
      </trkpt>
      <trkpt lat="42.7161" lon="18.52715">
        <ele>757</ele>
        <time>2016-07-29T18:26:06Z</time>
      </trkpt>
      <trkpt lat="42.71608" lon="18.5272">
        <ele>757</ele>
        <time>2016-07-29T18:28:06Z</time>
      </trkpt>
      <trkpt lat="42.71606" lon="18.52725">
        <ele>757</ele>
        <time>2016-07-29T18:30:06Z</time>
      </trkpt>
      <trkpt lat="42.71605" lon="18.5273">
        <ele>758</ele>
        <time>2016-07-29T18:32:06Z</time>
      </trkpt>
      <trkpt lat="42.71603" lon="18.52735">
        <ele>758</ele>
        <time>2016-07-29T18:34:06Z</time>
      </trkpt>
      <trkpt lat="42.71602" lon="18.5274">
        <ele>758</ele>
        <time>2016-07-29T18:36:06Z</time>
      </trkpt>
      <trkpt lat="42.716" lon="18.52745">
        <ele>758</ele>
        <time>2016-07-29T18:38:06Z</time>
      </trkpt>
      <trkpt lat="42.71595" lon="18.52762">
        <ele>760</ele>
        <time>2016-07-29T18:40:06Z</time>
      </trkpt>
      <trkpt lat="42.7159" lon="18.52779">
        <ele>762</ele>
        <time>2016-07-29T18:42:06Z</time>
      </trkpt>
      <trkpt lat="42.71585" lon="18.52796">
        <ele>764</ele>
        <time>2016-07-29T18:44:06Z</time>
      </trkpt>
      <trkpt lat="42.71579" lon="18.52813">
        <ele>764</ele>
        <time>2016-07-29T18:46:06Z</time>
      </trkpt>
      <trkpt lat="42.71573" lon="18.52829">
        <ele>765</ele>
        <time>2016-07-29T18:48:06Z</time>
      </trkpt>
      <trkpt lat="42.71568" lon="18.52846">
        <ele>767</ele>
        <time>2016-07-29T18:50:06Z</time>
      </trkpt>
      <trkpt lat="42.71562" lon="18.52863">
        <ele>769</ele>
        <time>2016-07-29T18:52:06Z</time>
      </trkpt>
      <trkpt lat="42.71556" lon="18.52879">
        <ele>770</ele>
        <time>2016-07-29T18:54:06Z</time>
      </trkpt>
      <trkpt lat="42.7155" lon="18.52896">
        <ele>771</ele>
        <time>2016-07-29T18:56:06Z</time>
      </trkpt>
      <trkpt lat="42.71544" lon="18.52912">
        <ele>772</ele>
        <time>2016-07-29T18:58:06Z</time>
      </trkpt>
      <trkpt lat="42.71537" lon="18.52928">
        <ele>773</ele>
        <time>2016-07-29T19:00:06Z</time>
      </trkpt>
      <trkpt lat="42.71522" lon="18.5297">
        <ele>777</ele>
        <time>2016-07-29T19:02:06Z</time>
      </trkpt>
      <trkpt lat="42.71513" lon="18.52996">
        <ele>779</ele>
        <time>2016-07-29T19:04:06Z</time>
      </trkpt>
      <trkpt lat="42.71504" lon="18.53022">
        <ele>781</ele>
        <time>2016-07-29T19:06:06Z</time>
      </trkpt>
      <trkpt lat="42.71496" lon="18.53049">
        <ele>784</ele>
        <time>2016-07-29T19:08:06Z</time>
      </trkpt>
      <trkpt lat="42.71487" lon="18.53075">
        <ele>785</ele>
        <time>2016-07-29T19:10:06Z</time>
      </trkpt>
      <trkpt lat="42.71479" lon="18.531">
        <ele>786</ele>
        <time>2016-07-29T19:12:06Z</time>
      </trkpt>
      <trkpt lat="42.71471" lon="18.53125">
        <ele>786</ele>
        <time>2016-07-29T19:14:06Z</time>
      </trkpt>
      <trkpt lat="42.71467" lon="18.53141">
        <ele>786</ele>
        <time>2016-07-29T19:16:06Z</time>
      </trkpt>
      <trkpt lat="42.71463" lon="18.53156">
        <ele>787</ele>
        <time>2016-07-29T19:18:06Z</time>
      </trkpt>
      <trkpt lat="42.71459" lon="18.53172">
        <ele>787</ele>
        <time>2016-07-29T19:20:06Z</time>
      </trkpt>
      <trkpt lat="42.71455" lon="18.53188">
        <ele>789</ele>
        <time>2016-07-29T19:22:06Z</time>
      </trkpt>
      <trkpt lat="42.71452" lon="18.53204">
        <ele>790</ele>
        <time>2016-07-29T19:24:06Z</time>
      </trkpt>
      <trkpt lat="42.71448" lon="18.5322">
        <ele>792</ele>
        <time>2016-07-29T19:26:06Z</time>
      </trkpt>
      <trkpt lat="42.71446" lon="18.53232">
        <ele>793</ele>
        <time>2016-07-29T19:28:06Z</time>
      </trkpt>
      <trkpt lat="42.71443" lon="18.53245">
        <ele>794</ele>
        <time>2016-07-29T19:30:06Z</time>
      </trkpt>
      <trkpt lat="42.71441" lon="18.53257">
        <ele>795</ele>
        <time>2016-07-29T19:32:06Z</time>
      </trkpt>
      <trkpt lat="42.71412" lon="18.53435">
        <ele>804</ele>
        <time>2016-07-29T19:34:06Z</time>
      </trkpt>
      <trkpt lat="42.71396" lon="18.53559">
        <ele>813</ele>
        <time>2016-07-29T19:36:06Z</time>
      </trkpt>
      <trkpt lat="42.71395" lon="18.53568">
        <ele>814</ele>
        <time>2016-07-29T19:38:06Z</time>
      </trkpt>
      <trkpt lat="42.71393" lon="18.53578">
        <ele>815</ele>
        <time>2016-07-29T19:40:06Z</time>
      </trkpt>
      <trkpt lat="42.71391" lon="18.53587">
        <ele>815</ele>
        <time>2016-07-29T19:42:06Z</time>
      </trkpt>
      <trkpt lat="42.71389" lon="18.53596">
        <ele>816</ele>
        <time>2016-07-29T19:44:06Z</time>
      </trkpt>
      <trkpt lat="42.71387" lon="18.53605">
        <ele>817</ele>
        <time>2016-07-29T19:46:06Z</time>
      </trkpt>
      <trkpt lat="42.71385" lon="18.53614">
        <ele>818</ele>
        <time>2016-07-29T19:48:06Z</time>
      </trkpt>
      <trkpt lat="42.71383" lon="18.53623">
        <ele>818</ele>
        <time>2016-07-29T19:50:06Z</time>
      </trkpt>
      <trkpt lat="42.7138" lon="18.53632">
        <ele>819</ele>
        <time>2016-07-29T19:52:06Z</time>
      </trkpt>
      <trkpt lat="42.71378" lon="18.53641">
        <ele>819</ele>
        <time>2016-07-29T19:54:06Z</time>
      </trkpt>
      <trkpt lat="42.71375" lon="18.53649">
        <ele>819</ele>
        <time>2016-07-29T19:56:06Z</time>
      </trkpt>
      <trkpt lat="42.71372" lon="18.53658">
        <ele>820</ele>
        <time>2016-07-29T19:58:06Z</time>
      </trkpt>
      <trkpt lat="42.71369" lon="18.53667">
        <ele>820</ele>
        <time>2016-07-29T20:00:06Z</time>
      </trkpt>
      <trkpt lat="42.71366" lon="18.53675">
        <ele>820</ele>
        <time>2016-07-29T20:02:06Z</time>
      </trkpt>
      <trkpt lat="42.71363" lon="18.53684">
        <ele>821</ele>
        <time>2016-07-29T20:04:06Z</time>
      </trkpt>
      <trkpt lat="42.71324" lon="18.53775">
        <ele>827</ele>
        <time>2016-07-29T20:06:06Z</time>
      </trkpt>
      <trkpt lat="42.7132" lon="18.53784">
        <ele>827</ele>
        <time>2016-07-29T20:08:06Z</time>
      </trkpt>
      <trkpt lat="42.71317" lon="18.53794">
        <ele>829</ele>
        <time>2016-07-29T20:10:06Z</time>
      </trkpt>
      <trkpt lat="42.71314" lon="18.53803">
        <ele>829</ele>
        <time>2016-07-29T20:12:06Z</time>
      </trkpt>
      <trkpt lat="42.71311" lon="18.53813">
        <ele>831</ele>
        <time>2016-07-29T20:14:06Z</time>
      </trkpt>
      <trkpt lat="42.71309" lon="18.53823">
        <ele>832</ele>
        <time>2016-07-29T20:16:06Z</time>
      </trkpt>
      <trkpt lat="42.71306" lon="18.53832">
        <ele>833</ele>
        <time>2016-07-29T20:18:06Z</time>
      </trkpt>
      <trkpt lat="42.71304" lon="18.53841">
        <ele>834</ele>
        <time>2016-07-29T20:20:06Z</time>
      </trkpt>
      <trkpt lat="42.71302" lon="18.53849">
        <ele>835</ele>
        <time>2016-07-29T20:22:06Z</time>
      </trkpt>
      <trkpt lat="42.713" lon="18.53858">
        <ele>836</ele>
        <time>2016-07-29T20:24:06Z</time>
      </trkpt>
      <trkpt lat="42.71298" lon="18.53866">
        <ele>836</ele>
        <time>2016-07-29T20:26:06Z</time>
      </trkpt>
      <trkpt lat="42.71296" lon="18.53876">
        <ele>838</ele>
        <time>2016-07-29T20:28:06Z</time>
      </trkpt>
      <trkpt lat="42.71295" lon="18.53887">
        <ele>839</ele>
        <time>2016-07-29T20:30:06Z</time>
      </trkpt>
      <trkpt lat="42.71294" lon="18.53897">
        <ele>841</ele>
        <time>2016-07-29T20:32:06Z</time>
      </trkpt>
      <trkpt lat="42.71294" lon="18.53907">
        <ele>842</ele>
        <time>2016-07-29T20:34:06Z</time>
      </trkpt>
      <trkpt lat="42.71293" lon="18.53918">
        <ele>844</ele>
        <time>2016-07-29T20:36:06Z</time>
      </trkpt>
      <trkpt lat="42.71292" lon="18.53928">
        <ele>843</ele>
        <time>2016-07-29T20:38:06Z</time>
      </trkpt>
      <trkpt lat="42.71292" lon="18.53938">
        <ele>843</ele>
        <time>2016-07-29T20:40:06Z</time>
      </trkpt>
      <trkpt lat="42.71292" lon="18.53949">
        <ele>842</ele>
        <time>2016-07-29T20:42:06Z</time>
      </trkpt>
      <trkpt lat="42.71291" lon="18.53959">
        <ele>842</ele>
        <time>2016-07-29T20:44:06Z</time>
      </trkpt>
      <trkpt lat="42.71291" lon="18.53967">
        <ele>841</ele>
        <time>2016-07-29T20:46:06Z</time>
      </trkpt>
      <trkpt lat="42.71291" lon="18.53976">
        <ele>841</ele>
        <time>2016-07-29T20:48:06Z</time>
      </trkpt>
      <trkpt lat="42.71291" lon="18.53984">
        <ele>841</ele>
        <time>2016-07-29T20:50:06Z</time>
      </trkpt>
      <trkpt lat="42.71291" lon="18.53993">
        <ele>840</ele>
        <time>2016-07-29T20:52:06Z</time>
      </trkpt>
      <trkpt lat="42.71291" lon="18.54002">
        <ele>840</ele>
        <time>2016-07-29T20:54:06Z</time>
      </trkpt>
      <trkpt lat="42.71292" lon="18.54011">
        <ele>840</ele>
        <time>2016-07-29T20:56:06Z</time>
      </trkpt>
      <trkpt lat="42.71292" lon="18.54019">
        <ele>839</ele>
        <time>2016-07-29T20:58:06Z</time>
      </trkpt>
      <trkpt lat="42.71294" lon="18.54033">
        <ele>839</ele>
        <time>2016-07-29T21:00:06Z</time>
      </trkpt>
      <trkpt lat="42.71295" lon="18.54046">
        <ele>839</ele>
        <time>2016-07-29T21:02:06Z</time>
      </trkpt>
      <trkpt lat="42.71297" lon="18.54059">
        <ele>839</ele>
        <time>2016-07-29T21:04:06Z</time>
      </trkpt>
      <trkpt lat="42.71298" lon="18.54073">
        <ele>839</ele>
        <time>2016-07-29T21:06:06Z</time>
      </trkpt>
      <trkpt lat="42.71299" lon="18.54086">
        <ele>839</ele>
        <time>2016-07-29T21:08:06Z</time>
      </trkpt>
      <trkpt lat="42.713" lon="18.541">
        <ele>840</ele>
        <time>2016-07-29T21:10:06Z</time>
      </trkpt>
      <trkpt lat="42.71301" lon="18.54115">
        <ele>842</ele>
        <time>2016-07-29T21:12:06Z</time>
      </trkpt>
      <trkpt lat="42.71301" lon="18.54123">
        <ele>842</ele>
        <time>2016-07-29T21:14:06Z</time>
      </trkpt>
      <trkpt lat="42.71302" lon="18.5413">
        <ele>843</ele>
        <time>2016-07-29T21:16:06Z</time>
      </trkpt>
      <trkpt lat="42.71302" lon="18.54138">
        <ele>844</ele>
        <time>2016-07-29T21:18:06Z</time>
      </trkpt>
      <trkpt lat="42.71301" lon="18.54146">
        <ele>844</ele>
        <time>2016-07-29T21:20:06Z</time>
      </trkpt>
      <trkpt lat="42.71301" lon="18.54154">
        <ele>844</ele>
        <time>2016-07-29T21:22:06Z</time>
      </trkpt>
      <trkpt lat="42.71301" lon="18.54161">
        <ele>845</ele>
        <time>2016-07-29T21:24:06Z</time>
      </trkpt>
      <trkpt lat="42.713" lon="18.54169">
        <ele>845</ele>
        <time>2016-07-29T21:26:06Z</time>
      </trkpt>
      <trkpt lat="42.713" lon="18.54177">
        <ele>846</ele>
        <time>2016-07-29T21:28:06Z</time>
      </trkpt>
      <trkpt lat="42.71299" lon="18.54185">
        <ele>846</ele>
        <time>2016-07-29T21:30:06Z</time>
      </trkpt>
      <trkpt lat="42.71298" lon="18.54192">
        <ele>846</ele>
        <time>2016-07-29T21:32:06Z</time>
      </trkpt>
      <trkpt lat="42.71297" lon="18.542">
        <ele>846</ele>
        <time>2016-07-29T21:34:06Z</time>
      </trkpt>
      <trkpt lat="42.71296" lon="18.54207">
        <ele>847</ele>
        <time>2016-07-29T21:36:06Z</time>
      </trkpt>
      <trkpt lat="42.71282" lon="18.54296">
        <ele>851</ele>
        <time>2016-07-29T21:38:06Z</time>
      </trkpt>
      <trkpt lat="42.71247" lon="18.54444">
        <ele>859</ele>
        <time>2016-07-29T21:40:06Z</time>
      </trkpt>
      <trkpt lat="42.71218" lon="18.54578">
        <ele>867</ele>
        <time>2016-07-29T21:42:06Z</time>
      </trkpt>
      <trkpt lat="42.71216" lon="18.5459">
        <ele>868</ele>
        <time>2016-07-29T21:44:06Z</time>
      </trkpt>
      <trkpt lat="42.71214" lon="18.54603">
        <ele>868</ele>
        <time>2016-07-29T21:46:06Z</time>
      </trkpt>
      <trkpt lat="42.71213" lon="18.54616">
        <ele>869</ele>
        <time>2016-07-29T21:48:06Z</time>
      </trkpt>
      <trkpt lat="42.71212" lon="18.54629">
        <ele>869</ele>
        <time>2016-07-29T21:50:06Z</time>
      </trkpt>
      <trkpt lat="42.71211" lon="18.54642">
        <ele>870</ele>
        <time>2016-07-29T21:52:06Z</time>
      </trkpt>
      <trkpt lat="42.7121" lon="18.54655">
        <ele>870</ele>
        <time>2016-07-29T21:54:06Z</time>
      </trkpt>
      <trkpt lat="42.71209" lon="18.54667">
        <ele>871</ele>
        <time>2016-07-29T21:56:06Z</time>
      </trkpt>
      <trkpt lat="42.71209" lon="18.5468">
        <ele>871</ele>
        <time>2016-07-29T21:58:06Z</time>
      </trkpt>
      <trkpt lat="42.71208" lon="18.54693">
        <ele>872</ele>
        <time>2016-07-29T22:00:06Z</time>
      </trkpt>
      <trkpt lat="42.71207" lon="18.54755">
        <ele>876</ele>
        <time>2016-07-29T22:02:06Z</time>
      </trkpt>
      <trkpt lat="42.71207" lon="18.54763">
        <ele>877</ele>
        <time>2016-07-29T22:04:06Z</time>
      </trkpt>
      <trkpt lat="42.71206" lon="18.54772">
        <ele>877</ele>
        <time>2016-07-29T22:06:06Z</time>
      </trkpt>
      <trkpt lat="42.71205" lon="18.5478">
        <ele>878</ele>
        <time>2016-07-29T22:08:06Z</time>
      </trkpt>
      <trkpt lat="42.71204" lon="18.54788">
        <ele>878</ele>
        <time>2016-07-29T22:10:06Z</time>
      </trkpt>
      <trkpt lat="42.71203" lon="18.54797">
        <ele>879</ele>
        <time>2016-07-29T22:12:06Z</time>
      </trkpt>
      <trkpt lat="42.71201" lon="18.54805">
        <ele>879</ele>
        <time>2016-07-29T22:14:06Z</time>
      </trkpt>
      <trkpt lat="42.712" lon="18.54814">
        <ele>879</ele>
        <time>2016-07-29T22:16:06Z</time>
      </trkpt>
      <trkpt lat="42.71199" lon="18.54822">
        <ele>880</ele>
        <time>2016-07-29T22:18:06Z</time>
      </trkpt>
      <trkpt lat="42.71197" lon="18.5483">
        <ele>880</ele>
        <time>2016-07-29T22:20:06Z</time>
      </trkpt>
      <trkpt lat="42.71195" lon="18.54839">
        <ele>880</ele>
        <time>2016-07-29T22:22:06Z</time>
      </trkpt>
      <trkpt lat="42.71194" lon="18.54847">
        <ele>880</ele>
        <time>2016-07-29T22:24:06Z</time>
      </trkpt>
      <trkpt lat="42.71193" lon="18.54856">
        <ele>881</ele>
        <time>2016-07-29T22:26:06Z</time>
      </trkpt>
      <trkpt lat="42.71192" lon="18.54865">
        <ele>881</ele>
        <time>2016-07-29T22:28:06Z</time>
      </trkpt>
      <trkpt lat="42.71191" lon="18.54874">
        <ele>881</ele>
        <time>2016-07-29T22:30:06Z</time>
      </trkpt>
      <trkpt lat="42.7119" lon="18.54883">
        <ele>881</ele>
        <time>2016-07-29T22:32:06Z</time>
      </trkpt>
      <trkpt lat="42.71188" lon="18.54903">
        <ele>882</ele>
        <time>2016-07-29T22:34:06Z</time>
      </trkpt>
      <trkpt lat="42.71189" lon="18.5491">
        <ele>882</ele>
        <time>2016-07-29T22:36:06Z</time>
      </trkpt>
      <trkpt lat="42.7119" lon="18.54911">
        <ele>882</ele>
        <time>2016-07-29T22:38:06Z</time>
      </trkpt>
      <trkpt lat="42.71192" lon="18.54917">
        <ele>883</ele>
        <time>2016-07-29T22:40:06Z</time>
      </trkpt>
      <trkpt lat="42.71195" lon="18.5492">
        <ele>883</ele>
        <time>2016-07-29T22:42:06Z</time>
      </trkpt>
      <trkpt lat="42.71197" lon="18.54922">
        <ele>884</ele>
        <time>2016-07-29T22:44:06Z</time>
      </trkpt>
      <trkpt lat="42.712" lon="18.54922">
        <ele>884</ele>
        <time>2016-07-29T22:46:06Z</time>
      </trkpt>
      <trkpt lat="42.71204" lon="18.54923">
        <ele>885</ele>
        <time>2016-07-29T22:48:06Z</time>
      </trkpt>
      <trkpt lat="42.71208" lon="18.54922">
        <ele>885</ele>
        <time>2016-07-29T22:50:06Z</time>
      </trkpt>
      <trkpt lat="42.71215" lon="18.54914">
        <ele>886</ele>
        <time>2016-07-29T22:52:06Z</time>
      </trkpt>
      <trkpt lat="42.7122" lon="18.54903">
        <ele>886</ele>
        <time>2016-07-29T22:54:06Z</time>
      </trkpt>
      <trkpt lat="42.71224" lon="18.5489">
        <ele>886</ele>
        <time>2016-07-29T22:56:06Z</time>
      </trkpt>
      <trkpt lat="42.71274" lon="18.54716">
        <ele>883</ele>
        <time>2016-07-29T22:58:06Z</time>
      </trkpt>
      <trkpt lat="42.7128" lon="18.54709">
        <ele>884</ele>
        <time>2016-07-29T23:00:06Z</time>
      </trkpt>
      <trkpt lat="42.71286" lon="18.54703">
        <ele>884</ele>
        <time>2016-07-29T23:02:06Z</time>
      </trkpt>
      <trkpt lat="42.71291" lon="18.54702">
        <ele>885</ele>
        <time>2016-07-29T23:04:06Z</time>
      </trkpt>
      <trkpt lat="42.71295" lon="18.54702">
        <ele>885</ele>
        <time>2016-07-29T23:06:06Z</time>
      </trkpt>
      <trkpt lat="42.713" lon="18.54703">
        <ele>886</ele>
        <time>2016-07-29T23:08:06Z</time>
      </trkpt>
      <trkpt lat="42.71304" lon="18.54706">
        <ele>886</ele>
        <time>2016-07-29T23:10:06Z</time>
      </trkpt>
      <trkpt lat="42.71307" lon="18.5471">
        <ele>887</ele>
        <time>2016-07-29T23:12:06Z</time>
      </trkpt>
      <trkpt lat="42.71309" lon="18.54715">
        <ele>887</ele>
        <time>2016-07-29T23:14:06Z</time>
      </trkpt>
      <trkpt lat="42.7131" lon="18.54721">
        <ele>887</ele>
        <time>2016-07-29T23:16:06Z</time>
      </trkpt>
      <trkpt lat="42.7131" lon="18.5473">
        <ele>888</ele>
        <time>2016-07-29T23:18:06Z</time>
      </trkpt>
      <trkpt lat="42.71307" lon="18.54738">
        <ele>887</ele>
        <time>2016-07-29T23:20:06Z</time>
      </trkpt>
      <trkpt lat="42.71303" lon="18.54743">
        <ele>887</ele>
        <time>2016-07-29T23:22:06Z</time>
      </trkpt>
      <trkpt lat="42.71289" lon="18.5476">
        <ele>887</ele>
        <time>2016-07-29T23:24:06Z</time>
      </trkpt>
      <trkpt lat="42.71273" lon="18.5478">
        <ele>887</ele>
        <time>2016-07-29T23:26:06Z</time>
      </trkpt>
      <trkpt lat="42.71241" lon="18.54891">
        <ele>889</ele>
        <time>2016-07-29T23:28:06Z</time>
      </trkpt>
      <trkpt lat="42.71239" lon="18.54903">
        <ele>889</ele>
        <time>2016-07-29T23:30:06Z</time>
      </trkpt>
      <trkpt lat="42.71206" lon="18.55019">
        <ele>892</ele>
        <time>2016-07-29T23:32:06Z</time>
      </trkpt>
      <trkpt lat="42.71198" lon="18.5505">
        <ele>893</ele>
        <time>2016-07-29T23:34:06Z</time>
      </trkpt>
      <trkpt lat="42.71191" lon="18.55057">
        <ele>893</ele>
        <time>2016-07-29T23:36:06Z</time>
      </trkpt>
      <trkpt lat="42.7117" lon="18.55082">
        <ele>891</ele>
        <time>2016-07-29T23:38:06Z</time>
      </trkpt>
      <trkpt lat="42.71166" lon="18.55087">
        <ele>892</ele>
        <time>2016-07-29T23:40:06Z</time>
      </trkpt>
      <trkpt lat="42.71163" lon="18.55091">
        <ele>893</ele>
        <time>2016-07-29T23:42:06Z</time>
      </trkpt>
      <trkpt lat="42.7116" lon="18.55094">
        <ele>894</ele>
        <time>2016-07-29T23:44:06Z</time>
      </trkpt>
      <trkpt lat="42.71157" lon="18.55097">
        <ele>895</ele>
        <time>2016-07-29T23:46:06Z</time>
      </trkpt>
      <trkpt lat="42.71153" lon="18.551">
        <ele>895</ele>
        <time>2016-07-29T23:48:06Z</time>
      </trkpt>
      <trkpt lat="42.7115" lon="18.55103">
        <ele>896</ele>
        <time>2016-07-29T23:50:06Z</time>
      </trkpt>
      <trkpt lat="42.71147" lon="18.55105">
        <ele>896</ele>
        <time>2016-07-29T23:52:06Z</time>
      </trkpt>
      <trkpt lat="42.71098" lon="18.55148">
        <ele>899</ele>
        <time>2016-07-29T23:54:06Z</time>
      </trkpt>
      <trkpt lat="42.71096" lon="18.55151">
        <ele>899</ele>
        <time>2016-07-29T23:56:06Z</time>
      </trkpt>
      <trkpt lat="42.71094" lon="18.55153">
        <ele>899</ele>
        <time>2016-07-29T23:58:06Z</time>
      </trkpt>
      <trkpt lat="42.71092" lon="18.55158">
        <ele>900</ele>
        <time>2016-07-30T00:00:06Z</time>
      </trkpt>
      <trkpt lat="42.71087" lon="18.55167">
        <ele>900</ele>
        <time>2016-07-30T00:02:06Z</time>
      </trkpt>
      <trkpt lat="42.71085" lon="18.5517">
        <ele>900</ele>
        <time>2016-07-30T00:04:06Z</time>
      </trkpt>
      <trkpt lat="42.71083" lon="18.55174">
        <ele>900</ele>
        <time>2016-07-30T00:06:06Z</time>
      </trkpt>
      <trkpt lat="42.71081" lon="18.55179">
        <ele>900</ele>
        <time>2016-07-30T00:08:06Z</time>
      </trkpt>
      <trkpt lat="42.71079" lon="18.55184">
        <ele>899</ele>
        <time>2016-07-30T00:10:06Z</time>
      </trkpt>
      <trkpt lat="42.71076" lon="18.55193">
        <ele>899</ele>
        <time>2016-07-30T00:12:06Z</time>
      </trkpt>
      <trkpt lat="42.71075" lon="18.55198">
        <ele>899</ele>
        <time>2016-07-30T00:14:06Z</time>
      </trkpt>
      <trkpt lat="42.71074" lon="18.55205">
        <ele>900</ele>
        <time>2016-07-30T00:16:06Z</time>
      </trkpt>
      <trkpt lat="42.71072" lon="18.55212">
        <ele>899</ele>
        <time>2016-07-30T00:18:06Z</time>
      </trkpt>
      <trkpt lat="42.71072" lon="18.55219">
        <ele>900</ele>
        <time>2016-07-30T00:20:06Z</time>
      </trkpt>
      <trkpt lat="42.71071" lon="18.55225">
        <ele>900</ele>
        <time>2016-07-30T00:22:06Z</time>
      </trkpt>
      <trkpt lat="42.7107" lon="18.55232">
        <ele>900</ele>
        <time>2016-07-30T00:24:06Z</time>
      </trkpt>
      <trkpt lat="42.7107" lon="18.55239">
        <ele>901</ele>
        <time>2016-07-30T00:26:06Z</time>
      </trkpt>
      <trkpt lat="42.71069" lon="18.55246">
        <ele>901</ele>
        <time>2016-07-30T00:28:06Z</time>
      </trkpt>
      <trkpt lat="42.71069" lon="18.55252">
        <ele>901</ele>
        <time>2016-07-30T00:30:06Z</time>
      </trkpt>
      <trkpt lat="42.71069" lon="18.55259">
        <ele>901</ele>
        <time>2016-07-30T00:32:06Z</time>
      </trkpt>
      <trkpt lat="42.71069" lon="18.55265">
        <ele>901</ele>
        <time>2016-07-30T00:34:06Z</time>
      </trkpt>
      <trkpt lat="42.71069" lon="18.55271">
        <ele>901</ele>
        <time>2016-07-30T00:36:06Z</time>
      </trkpt>
      <trkpt lat="42.7107" lon="18.5528">
        <ele>901</ele>
        <time>2016-07-30T00:38:06Z</time>
      </trkpt>
      <trkpt lat="42.71071" lon="18.55289">
        <ele>901</ele>
        <time>2016-07-30T00:40:06Z</time>
      </trkpt>
      <trkpt lat="42.71073" lon="18.55297">
        <ele>902</ele>
        <time>2016-07-30T00:42:06Z</time>
      </trkpt>
      <trkpt lat="42.71074" lon="18.55306">
        <ele>902</ele>
        <time>2016-07-30T00:44:06Z</time>
      </trkpt>
      <trkpt lat="42.71076" lon="18.55315">
        <ele>903</ele>
        <time>2016-07-30T00:46:06Z</time>
      </trkpt>
      <trkpt lat="42.71078" lon="18.55324">
        <ele>904</ele>
        <time>2016-07-30T00:48:06Z</time>
      </trkpt>
      <trkpt lat="42.7108" lon="18.55333">
        <ele>905</ele>
        <time>2016-07-30T00:50:06Z</time>
      </trkpt>
      <trkpt lat="42.71082" lon="18.55341">
        <ele>906</ele>
        <time>2016-07-30T00:52:06Z</time>
      </trkpt>
      <trkpt lat="42.71084" lon="18.5535">
        <ele>907</ele>
        <time>2016-07-30T00:54:06Z</time>
      </trkpt>
      <trkpt lat="42.71086" lon="18.55359">
        <ele>907</ele>
        <time>2016-07-30T00:56:06Z</time>
      </trkpt>
      <trkpt lat="42.71089" lon="18.55369">
        <ele>908</ele>
        <time>2016-07-30T00:58:06Z</time>
      </trkpt>
      <trkpt lat="42.71097" lon="18.55392">
        <ele>910</ele>
        <time>2016-07-30T01:00:06Z</time>
      </trkpt>
      <trkpt lat="42.71109" lon="18.55423">
        <ele>913</ele>
        <time>2016-07-30T01:02:06Z</time>
      </trkpt>
      <trkpt lat="42.7112" lon="18.55452">
        <ele>913</ele>
        <time>2016-07-30T01:04:06Z</time>
      </trkpt>
      <trkpt lat="42.71127" lon="18.55471">
        <ele>912</ele>
        <time>2016-07-30T01:06:06Z</time>
      </trkpt>
      <trkpt lat="42.71133" lon="18.55488">
        <ele>912</ele>
        <time>2016-07-30T01:08:06Z</time>
      </trkpt>
      <trkpt lat="42.71137" lon="18.55497">
        <ele>913</ele>
        <time>2016-07-30T01:10:06Z</time>
      </trkpt>
      <trkpt lat="42.71138" lon="18.55502">
        <ele>912</ele>
        <time>2016-07-30T01:12:06Z</time>
      </trkpt>
      <trkpt lat="42.7114" lon="18.55507">
        <ele>913</ele>
        <time>2016-07-30T01:14:06Z</time>
      </trkpt>
      <trkpt lat="42.71141" lon="18.55511">
        <ele>913</ele>
        <time>2016-07-30T01:16:06Z</time>
      </trkpt>
      <trkpt lat="42.71142" lon="18.55516">
        <ele>913</ele>
        <time>2016-07-30T01:18:06Z</time>
      </trkpt>
      <trkpt lat="42.71144" lon="18.55522">
        <ele>913</ele>
        <time>2016-07-30T01:20:06Z</time>
      </trkpt>
      <trkpt lat="42.71145" lon="18.55526">
        <ele>913</ele>
        <time>2016-07-30T01:22:06Z</time>
      </trkpt>
      <trkpt lat="42.71145" lon="18.5553">
        <ele>913</ele>
        <time>2016-07-30T01:24:06Z</time>
      </trkpt>
      <trkpt lat="42.71146" lon="18.55533">
        <ele>913</ele>
        <time>2016-07-30T01:26:06Z</time>
      </trkpt>
      <trkpt lat="42.71147" lon="18.55538">
        <ele>913</ele>
        <time>2016-07-30T01:28:06Z</time>
      </trkpt>
      <trkpt lat="42.71148" lon="18.55543">
        <ele>913</ele>
        <time>2016-07-30T01:30:06Z</time>
      </trkpt>
      <trkpt lat="42.71149" lon="18.55554">
        <ele>913</ele>
        <time>2016-07-30T01:32:06Z</time>
      </trkpt>
      <trkpt lat="42.71152" lon="18.55565">
        <ele>913</ele>
        <time>2016-07-30T01:34:06Z</time>
      </trkpt>
      <trkpt lat="42.71154" lon="18.55578">
        <ele>913</ele>
        <time>2016-07-30T01:36:06Z</time>
      </trkpt>
      <trkpt lat="42.71156" lon="18.55595">
        <ele>914</ele>
        <time>2016-07-30T01:38:06Z</time>
      </trkpt>
      <trkpt lat="42.71157" lon="18.55606">
        <ele>915</ele>
        <time>2016-07-30T01:40:06Z</time>
      </trkpt>
      <trkpt lat="42.71158" lon="18.55615">
        <ele>916</ele>
        <time>2016-07-30T01:42:06Z</time>
      </trkpt>
      <trkpt lat="42.71159" lon="18.55619">
        <ele>917</ele>
        <time>2016-07-30T01:44:06Z</time>
      </trkpt>
      <trkpt lat="42.71159" lon="18.55623">
        <ele>917</ele>
        <time>2016-07-30T01:46:06Z</time>
      </trkpt>
      <trkpt lat="42.71159" lon="18.55626">
        <ele>917</ele>
        <time>2016-07-30T01:48:06Z</time>
      </trkpt>
      <trkpt lat="42.71161" lon="18.55634">
        <ele>918</ele>
        <time>2016-07-30T01:50:06Z</time>
      </trkpt>
      <trkpt lat="42.71162" lon="18.55644">
        <ele>919</ele>
        <time>2016-07-30T01:52:06Z</time>
      </trkpt>
      <trkpt lat="42.71163" lon="18.55655">
        <ele>920</ele>
        <time>2016-07-30T01:54:06Z</time>
      </trkpt>
      <trkpt lat="42.71163" lon="18.55665">
        <ele>920</ele>
        <time>2016-07-30T01:56:06Z</time>
      </trkpt>
      <trkpt lat="42.71164" lon="18.55674">
        <ele>921</ele>
        <time>2016-07-30T01:58:06Z</time>
      </trkpt>
      <trkpt lat="42.71165" lon="18.55683">
        <ele>921</ele>
        <time>2016-07-30T02:00:06Z</time>
      </trkpt>
      <trkpt lat="42.71167" lon="18.55692">
        <ele>922</ele>
        <time>2016-07-30T02:02:06Z</time>
      </trkpt>
      <trkpt lat="42.71169" lon="18.557">
        <ele>923</ele>
        <time>2016-07-30T02:04:06Z</time>
      </trkpt>
      <trkpt lat="42.71179" lon="18.55727">
        <ele>928</ele>
        <time>2016-07-30T02:06:06Z</time>
      </trkpt>
      <trkpt lat="42.71186" lon="18.55745">
        <ele>931</ele>
        <time>2016-07-30T02:08:06Z</time>
      </trkpt>
      <trkpt lat="42.71193" lon="18.55761">
        <ele>931</ele>
        <time>2016-07-30T02:10:06Z</time>
      </trkpt>
      <trkpt lat="42.712" lon="18.55776">
        <ele>929</ele>
        <time>2016-07-30T02:12:06Z</time>
      </trkpt>
      <trkpt lat="42.71206" lon="18.55786">
        <ele>929</ele>
        <time>2016-07-30T02:14:06Z</time>
      </trkpt>
      <trkpt lat="42.71212" lon="18.55794">
        <ele>930</ele>
        <time>2016-07-30T02:16:06Z</time>
      </trkpt>
      <trkpt lat="42.71222" lon="18.55804">
        <ele>932</ele>
        <time>2016-07-30T02:18:06Z</time>
      </trkpt>
      <trkpt lat="42.7124" lon="18.5582">
        <ele>938</ele>
        <time>2016-07-30T02:20:06Z</time>
      </trkpt>
      <trkpt lat="42.71247" lon="18.55826">
        <ele>940</ele>
        <time>2016-07-30T02:22:06Z</time>
      </trkpt>
      <trkpt lat="42.71252" lon="18.55831">
        <ele>942</ele>
        <time>2016-07-30T02:24:06Z</time>
      </trkpt>
      <trkpt lat="42.71263" lon="18.55843">
        <ele>945</ele>
        <time>2016-07-30T02:26:06Z</time>
      </trkpt>
      <trkpt lat="42.71278" lon="18.5586">
        <ele>949</ele>
        <time>2016-07-30T02:28:06Z</time>
      </trkpt>
      <trkpt lat="42.71284" lon="18.55867">
        <ele>951</ele>
        <time>2016-07-30T02:30:06Z</time>
      </trkpt>
      <trkpt lat="42.7129" lon="18.55876">
        <ele>953</ele>
        <time>2016-07-30T02:32:06Z</time>
      </trkpt>
      <trkpt lat="42.71297" lon="18.55885">
        <ele>954</ele>
        <time>2016-07-30T02:34:06Z</time>
      </trkpt>
      <trkpt lat="42.71303" lon="18.55894">
        <ele>956</ele>
        <time>2016-07-30T02:36:06Z</time>
      </trkpt>
      <trkpt lat="42.71306" lon="18.55899">
        <ele>957</ele>
        <time>2016-07-30T02:38:06Z</time>
      </trkpt>
      <trkpt lat="42.71308" lon="18.55905">
        <ele>956</ele>
        <time>2016-07-30T02:40:06Z</time>
      </trkpt>
      <trkpt lat="42.7131" lon="18.55909">
        <ele>957</ele>
        <time>2016-07-30T02:42:06Z</time>
      </trkpt>
      <trkpt lat="42.71311" lon="18.55912">
        <ele>956</ele>
        <time>2016-07-30T02:44:06Z</time>
      </trkpt>
      <trkpt lat="42.71313" lon="18.55915">
        <ele>957</ele>
        <time>2016-07-30T02:46:06Z</time>
      </trkpt>
      <trkpt lat="42.71314" lon="18.55919">
        <ele>957</ele>
        <time>2016-07-30T02:48:06Z</time>
      </trkpt>
      <trkpt lat="42.71314" lon="18.55922">
        <ele>957</ele>
        <time>2016-07-30T02:50:06Z</time>
      </trkpt>
      <trkpt lat="42.71315" lon="18.55925">
        <ele>958</ele>
        <time>2016-07-30T02:52:06Z</time>
      </trkpt>
      <trkpt lat="42.71316" lon="18.55932">
        <ele>958</ele>
        <time>2016-07-30T02:54:06Z</time>
      </trkpt>
      <trkpt lat="42.71317" lon="18.5594">
        <ele>958</ele>
        <time>2016-07-30T02:56:06Z</time>
      </trkpt>
      <trkpt lat="42.71317" lon="18.55948">
        <ele>958</ele>
        <time>2016-07-30T02:58:06Z</time>
      </trkpt>
      <trkpt lat="42.71317" lon="18.55955">
        <ele>958</ele>
        <time>2016-07-30T03:00:06Z</time>
      </trkpt>
      <trkpt lat="42.71317" lon="18.55964">
        <ele>958</ele>
        <time>2016-07-30T03:02:06Z</time>
      </trkpt>
      <trkpt lat="42.71316" lon="18.5597">
        <ele>957</ele>
        <time>2016-07-30T03:04:06Z</time>
      </trkpt>
      <trkpt lat="42.71316" lon="18.55977">
        <ele>957</ele>
        <time>2016-07-30T03:06:06Z</time>
      </trkpt>
      <trkpt lat="42.71314" lon="18.55985">
        <ele>955</ele>
        <time>2016-07-30T03:08:06Z</time>
      </trkpt>
      <trkpt lat="42.71312" lon="18.55994">
        <ele>954</ele>
        <time>2016-07-30T03:10:06Z</time>
      </trkpt>
      <trkpt lat="42.71311" lon="18.56">
        <ele>953</ele>
        <time>2016-07-30T03:12:06Z</time>
      </trkpt>
      <trkpt lat="42.71309" lon="18.56005">
        <ele>953</ele>
        <time>2016-07-30T03:14:06Z</time>
      </trkpt>
      <trkpt lat="42.71292" lon="18.56039">
        <ele>954</ele>
        <time>2016-07-30T03:16:06Z</time>
      </trkpt>
      <trkpt lat="42.71265" lon="18.56087">
        <ele>957</ele>
        <time>2016-07-30T03:18:06Z</time>
      </trkpt>
      <trkpt lat="42.71261" lon="18.56096">
        <ele>956</ele>
        <time>2016-07-30T03:20:06Z</time>
      </trkpt>
      <trkpt lat="42.71258" lon="18.56106">
        <ele>955</ele>
        <time>2016-07-30T03:22:06Z</time>
      </trkpt>
      <trkpt lat="42.71256" lon="18.56114">
        <ele>955</ele>
        <time>2016-07-30T03:24:06Z</time>
      </trkpt>
      <trkpt lat="42.71254" lon="18.56123">
        <ele>954</ele>
        <time>2016-07-30T03:26:06Z</time>
      </trkpt>
      <trkpt lat="42.71252" lon="18.56131">
        <ele>954</ele>
        <time>2016-07-30T03:28:06Z</time>
      </trkpt>
      <trkpt lat="42.71251" lon="18.56137">
        <ele>954</ele>
        <time>2016-07-30T03:30:06Z</time>
      </trkpt>
      <trkpt lat="42.7125" lon="18.56142">
        <ele>954</ele>
        <time>2016-07-30T03:32:06Z</time>
      </trkpt>
      <trkpt lat="42.71249" lon="18.56147">
        <ele>953</ele>
        <time>2016-07-30T03:34:06Z</time>
      </trkpt>
      <trkpt lat="42.71249" lon="18.56148">
        <ele>954</ele>
        <time>2016-07-30T03:36:06Z</time>
      </trkpt>
      <trkpt lat="42.71249" lon="18.5615">
        <ele>954</ele>
        <time>2016-07-30T03:38:06Z</time>
      </trkpt>
      <trkpt lat="42.71249" lon="18.56152">
        <ele>954</ele>
        <time>2016-07-30T03:40:06Z</time>
      </trkpt>
      <trkpt lat="42.71249" lon="18.56154">
        <ele>954</ele>
        <time>2016-07-30T03:42:06Z</time>
      </trkpt>
      <trkpt lat="42.71249" lon="18.56156">
        <ele>954</ele>
        <time>2016-07-30T03:44:06Z</time>
      </trkpt>
      <trkpt lat="42.7125" lon="18.56158">
        <ele>955</ele>
        <time>2016-07-30T03:46:06Z</time>
      </trkpt>
      <trkpt lat="42.7125" lon="18.56165">
        <ele>956</ele>
        <time>2016-07-30T03:48:06Z</time>
      </trkpt>
      <trkpt lat="42.7125" lon="18.56175">
        <ele>956</ele>
        <time>2016-07-30T03:50:06Z</time>
      </trkpt>
      <trkpt lat="42.7125" lon="18.56182">
        <ele>956</ele>
        <time>2016-07-30T03:52:06Z</time>
      </trkpt>
      <trkpt lat="42.71251" lon="18.56192">
        <ele>957</ele>
        <time>2016-07-30T03:54:06Z</time>
      </trkpt>
      <trkpt lat="42.71251" lon="18.56202">
        <ele>957</ele>
        <time>2016-07-30T03:56:06Z</time>
      </trkpt>
      <trkpt lat="42.71253" lon="18.56213">
        <ele>958</ele>
        <time>2016-07-30T03:58:06Z</time>
      </trkpt>
      <trkpt lat="42.71254" lon="18.56222">
        <ele>958</ele>
        <time>2016-07-30T04:00:06Z</time>
      </trkpt>
      <trkpt lat="42.71256" lon="18.5623">
        <ele>959</ele>
        <time>2016-07-30T04:02:06Z</time>
      </trkpt>
      <trkpt lat="42.71267" lon="18.5629">
        <ele>964</ele>
        <time>2016-07-30T04:04:06Z</time>
      </trkpt>
      <trkpt lat="42.71267" lon="18.56293">
        <ele>964</ele>
        <time>2016-07-30T04:06:06Z</time>
      </trkpt>
      <trkpt lat="42.71268" lon="18.56297">
        <ele>965</ele>
        <time>2016-07-30T04:08:06Z</time>
      </trkpt>
      <trkpt lat="42.71268" lon="18.563">
        <ele>965</ele>
        <time>2016-07-30T04:10:06Z</time>
      </trkpt>
      <trkpt lat="42.71269" lon="18.56304">
        <ele>965</ele>
        <time>2016-07-30T04:12:06Z</time>
      </trkpt>
      <trkpt lat="42.71269" lon="18.56308">
        <ele>965</ele>
        <time>2016-07-30T04:14:06Z</time>
      </trkpt>
      <trkpt lat="42.71269" lon="18.56316">
        <ele>965</ele>
        <time>2016-07-30T04:16:06Z</time>
      </trkpt>
      <trkpt lat="42.71269" lon="18.56325">
        <ele>965</ele>
        <time>2016-07-30T04:18:06Z</time>
      </trkpt>
      <trkpt lat="42.71269" lon="18.56332">
        <ele>965</ele>
        <time>2016-07-30T04:20:06Z</time>
      </trkpt>
      <trkpt lat="42.71268" lon="18.56341">
        <ele>965</ele>
        <time>2016-07-30T04:22:06Z</time>
      </trkpt>
      <trkpt lat="42.71267" lon="18.56347">
        <ele>965</ele>
        <time>2016-07-30T04:24:06Z</time>
      </trkpt>
      <trkpt lat="42.71266" lon="18.56352">
        <ele>965</ele>
        <time>2016-07-30T04:26:06Z</time>
      </trkpt>
      <trkpt lat="42.71265" lon="18.56357">
        <ele>965</ele>
        <time>2016-07-30T04:28:06Z</time>
      </trkpt>
      <trkpt lat="42.71264" lon="18.56363">
        <ele>965</ele>
        <time>2016-07-30T04:30:06Z</time>
      </trkpt>
      <trkpt lat="42.71262" lon="18.56372">
        <ele>965</ele>
        <time>2016-07-30T04:32:06Z</time>
      </trkpt>
      <trkpt lat="42.71259" lon="18.56386">
        <ele>965</ele>
        <time>2016-07-30T04:34:06Z</time>
      </trkpt>
      <trkpt lat="42.71255" lon="18.56402">
        <ele>965</ele>
        <time>2016-07-30T04:36:06Z</time>
      </trkpt>
      <trkpt lat="42.71251" lon="18.56417">
        <ele>965</ele>
        <time>2016-07-30T04:38:06Z</time>
      </trkpt>
      <trkpt lat="42.71246" lon="18.56438">
        <ele>966</ele>
        <time>2016-07-30T04:40:06Z</time>
      </trkpt>
      <trkpt lat="42.71242" lon="18.56454">
        <ele>966</ele>
        <time>2016-07-30T04:42:06Z</time>
      </trkpt>
      <trkpt lat="42.71237" lon="18.5647">
        <ele>965</ele>
        <time>2016-07-30T04:44:06Z</time>
      </trkpt>
      <trkpt lat="42.71231" lon="18.56494">
        <ele>966</ele>
        <time>2016-07-30T04:46:06Z</time>
      </trkpt>
      <trkpt lat="42.71226" lon="18.56516">
        <ele>967</ele>
        <time>2016-07-30T04:48:06Z</time>
      </trkpt>
      <trkpt lat="42.71221" lon="18.56544">
        <ele>970</ele>
        <time>2016-07-30T04:50:06Z</time>
      </trkpt>
      <trkpt lat="42.71216" lon="18.56572">
        <ele>973</ele>
        <time>2016-07-30T04:52:06Z</time>
      </trkpt>
      <trkpt lat="42.71215" lon="18.56575">
        <ele>973</ele>
        <time>2016-07-30T04:54:06Z</time>
      </trkpt>
    </trkseg>
  </trk>
</gpx>